<?xml version="1.0" encoding="UTF-8" standalone="no" ?>
<gpx xmlns="http://www.topografix.com/GPX/1/1" xmlns:xsi="http://www.w3.org/2001/XMLSchema-instance" xsi:schemaLocation="http://www.topografix.com/GPX/1/1 http://www.topografix.com/GPX/1/1/gpx.xsd" version="1.1" creator="VisuGPX - https://www.visugpx.com">
  <metadata>
    <name>Die-Val de Méouge par Val Drôme </name>
    <desc><![CDATA[Deuxième étape Valence-Nice]]></desc>
  </metadata>
  <trk>
    <name><![CDATA[Die-Val de Méouge par Val Drôme ]]></name>
    <trkseg>
      <trkpt lat="44.75209" lon="5.37468">
        <ele>416.3</ele>
        <time>2022-10-28T07:39:07Z</time>
      </trkpt>
      <trkpt lat="44.75209" lon="5.37467">
        <ele>416.3</ele>
        <time>2022-10-28T07:39:12Z</time>
      </trkpt>
      <trkpt lat="44.75209" lon="5.37467">
        <ele>416.3</ele>
        <time>2022-10-28T07:39:17Z</time>
      </trkpt>
      <trkpt lat="44.75221" lon="5.37484">
        <ele>416.8</ele>
        <time>2022-10-28T07:42:00Z</time>
      </trkpt>
      <trkpt lat="44.75221" lon="5.37483">
        <ele>416.7</ele>
        <time>2022-10-28T07:42:01Z</time>
      </trkpt>
      <trkpt lat="44.75221" lon="5.37482">
        <ele>416.7</ele>
        <time>2022-10-28T07:42:02Z</time>
      </trkpt>
      <trkpt lat="44.7522" lon="5.37481">
        <ele>416.7</ele>
        <time>2022-10-28T07:42:03Z</time>
      </trkpt>
      <trkpt lat="44.7522" lon="5.37479">
        <ele>416.7</ele>
        <time>2022-10-28T07:42:04Z</time>
      </trkpt>
      <trkpt lat="44.7522" lon="5.37476">
        <ele>416.7</ele>
        <time>2022-10-28T07:42:05Z</time>
      </trkpt>
      <trkpt lat="44.75221" lon="5.37475">
        <ele>416.7</ele>
        <time>2022-10-28T07:42:06Z</time>
      </trkpt>
      <trkpt lat="44.75222" lon="5.37475">
        <ele>416.7</ele>
        <time>2022-10-28T07:42:07Z</time>
      </trkpt>
      <trkpt lat="44.75223" lon="5.37476">
        <ele>416.7</ele>
        <time>2022-10-28T07:42:08Z</time>
      </trkpt>
      <trkpt lat="44.75224" lon="5.37476">
        <ele>416.7</ele>
        <time>2022-10-28T07:42:09Z</time>
      </trkpt>
      <trkpt lat="44.75224" lon="5.37476">
        <ele>416.7</ele>
        <time>2022-10-28T07:42:10Z</time>
      </trkpt>
      <trkpt lat="44.75225" lon="5.37476">
        <ele>416.7</ele>
        <time>2022-10-28T07:42:11Z</time>
      </trkpt>
      <trkpt lat="44.75225" lon="5.37475">
        <ele>416.7</ele>
        <time>2022-10-28T07:42:12Z</time>
      </trkpt>
      <trkpt lat="44.75226" lon="5.37473">
        <ele>416.7</ele>
        <time>2022-10-28T07:42:13Z</time>
      </trkpt>
      <trkpt lat="44.75226" lon="5.37471">
        <ele>416.7</ele>
        <time>2022-10-28T07:42:14Z</time>
      </trkpt>
      <trkpt lat="44.75226" lon="5.37469">
        <ele>416.7</ele>
        <time>2022-10-28T07:42:15Z</time>
      </trkpt>
      <trkpt lat="44.75225" lon="5.37467">
        <ele>416.7</ele>
        <time>2022-10-28T07:42:16Z</time>
      </trkpt>
      <trkpt lat="44.75225" lon="5.37466">
        <ele>416.7</ele>
        <time>2022-10-28T07:42:17Z</time>
      </trkpt>
      <trkpt lat="44.75223" lon="5.37466">
        <ele>416.7</ele>
        <time>2022-10-28T07:42:18Z</time>
      </trkpt>
      <trkpt lat="44.75222" lon="5.37467">
        <ele>416.7</ele>
        <time>2022-10-28T07:42:19Z</time>
      </trkpt>
      <trkpt lat="44.75221" lon="5.37468">
        <ele>416.7</ele>
        <time>2022-10-28T07:42:20Z</time>
      </trkpt>
      <trkpt lat="44.7522" lon="5.37469">
        <ele>416.7</ele>
        <time>2022-10-28T07:42:21Z</time>
      </trkpt>
      <trkpt lat="44.7522" lon="5.3747">
        <ele>416.7</ele>
        <time>2022-10-28T07:42:22Z</time>
      </trkpt>
      <trkpt lat="44.75219" lon="5.37471">
        <ele>416.7</ele>
        <time>2022-10-28T07:42:23Z</time>
      </trkpt>
      <trkpt lat="44.75218" lon="5.37472">
        <ele>416.7</ele>
        <time>2022-10-28T07:42:24Z</time>
      </trkpt>
      <trkpt lat="44.75218" lon="5.37473">
        <ele>416.7</ele>
        <time>2022-10-28T07:42:25Z</time>
      </trkpt>
      <trkpt lat="44.75217" lon="5.37474">
        <ele>416.7</ele>
        <time>2022-10-28T07:42:26Z</time>
      </trkpt>
      <trkpt lat="44.75217" lon="5.37475">
        <ele>416.7</ele>
        <time>2022-10-28T07:42:27Z</time>
      </trkpt>
      <trkpt lat="44.75216" lon="5.37475">
        <ele>416.7</ele>
        <time>2022-10-28T07:42:28Z</time>
      </trkpt>
      <trkpt lat="44.75215" lon="5.37476">
        <ele>416.7</ele>
        <time>2022-10-28T07:42:29Z</time>
      </trkpt>
      <trkpt lat="44.75215" lon="5.37476">
        <ele>416.7</ele>
        <time>2022-10-28T07:42:30Z</time>
      </trkpt>
      <trkpt lat="44.75215" lon="5.37475">
        <ele>416.7</ele>
        <time>2022-10-28T07:42:31Z</time>
      </trkpt>
      <trkpt lat="44.75214" lon="5.37475">
        <ele>416.7</ele>
        <time>2022-10-28T07:42:32Z</time>
      </trkpt>
      <trkpt lat="44.75213" lon="5.37475">
        <ele>416.7</ele>
        <time>2022-10-28T07:42:33Z</time>
      </trkpt>
      <trkpt lat="44.75213" lon="5.37475">
        <ele>416.7</ele>
        <time>2022-10-28T07:42:34Z</time>
      </trkpt>
      <trkpt lat="44.75213" lon="5.37475">
        <ele>416.7</ele>
        <time>2022-10-28T07:42:35Z</time>
      </trkpt>
      <trkpt lat="44.75213" lon="5.37476">
        <ele>416.7</ele>
        <time>2022-10-28T07:42:36Z</time>
      </trkpt>
      <trkpt lat="44.75214" lon="5.37476">
        <ele>416.7</ele>
        <time>2022-10-28T07:42:37Z</time>
      </trkpt>
      <trkpt lat="44.75215" lon="5.37476">
        <ele>416.7</ele>
        <time>2022-10-28T07:42:38Z</time>
      </trkpt>
      <trkpt lat="44.75216" lon="5.37476">
        <ele>416.7</ele>
        <time>2022-10-28T07:42:39Z</time>
      </trkpt>
      <trkpt lat="44.75217" lon="5.37476">
        <ele>416.7</ele>
        <time>2022-10-28T07:42:40Z</time>
      </trkpt>
      <trkpt lat="44.75217" lon="5.37477">
        <ele>416.7</ele>
        <time>2022-10-28T07:42:41Z</time>
      </trkpt>
      <trkpt lat="44.75218" lon="5.37478">
        <ele>416.7</ele>
        <time>2022-10-28T07:42:42Z</time>
      </trkpt>
      <trkpt lat="44.75217" lon="5.3748">
        <ele>416.7</ele>
        <time>2022-10-28T07:42:43Z</time>
      </trkpt>
      <trkpt lat="44.75216" lon="5.3748">
        <ele>416.7</ele>
        <time>2022-10-28T07:42:44Z</time>
      </trkpt>
      <trkpt lat="44.75215" lon="5.37479">
        <ele>416.7</ele>
        <time>2022-10-28T07:42:45Z</time>
      </trkpt>
      <trkpt lat="44.75215" lon="5.37479">
        <ele>416.7</ele>
        <time>2022-10-28T07:42:46Z</time>
      </trkpt>
      <trkpt lat="44.75214" lon="5.37478">
        <ele>416.7</ele>
        <time>2022-10-28T07:42:47Z</time>
      </trkpt>
      <trkpt lat="44.75214" lon="5.37478">
        <ele>416.7</ele>
        <time>2022-10-28T07:42:48Z</time>
      </trkpt>
      <trkpt lat="44.75215" lon="5.37477">
        <ele>416.7</ele>
        <time>2022-10-28T07:42:49Z</time>
      </trkpt>
      <trkpt lat="44.75216" lon="5.37477">
        <ele>416.7</ele>
        <time>2022-10-28T07:42:50Z</time>
      </trkpt>
      <trkpt lat="44.75216" lon="5.37476">
        <ele>416.7</ele>
        <time>2022-10-28T07:42:51Z</time>
      </trkpt>
      <trkpt lat="44.75217" lon="5.37476">
        <ele>416.7</ele>
        <time>2022-10-28T07:42:52Z</time>
      </trkpt>
      <trkpt lat="44.75217" lon="5.37475">
        <ele>416.7</ele>
        <time>2022-10-28T07:42:53Z</time>
      </trkpt>
      <trkpt lat="44.75217" lon="5.37475">
        <ele>416.7</ele>
        <time>2022-10-28T07:42:54Z</time>
      </trkpt>
      <trkpt lat="44.75217" lon="5.37474">
        <ele>416.7</ele>
        <time>2022-10-28T07:42:55Z</time>
      </trkpt>
      <trkpt lat="44.75217" lon="5.37474">
        <ele>416.7</ele>
        <time>2022-10-28T07:42:56Z</time>
      </trkpt>
      <trkpt lat="44.75217" lon="5.37474">
        <ele>416.7</ele>
        <time>2022-10-28T07:42:57Z</time>
      </trkpt>
      <trkpt lat="44.75217" lon="5.37474">
        <ele>416.7</ele>
        <time>2022-10-28T07:42:58Z</time>
      </trkpt>
      <trkpt lat="44.75216" lon="5.37475">
        <ele>416.7</ele>
        <time>2022-10-28T07:42:59Z</time>
      </trkpt>
      <trkpt lat="44.75216" lon="5.37476">
        <ele>416.7</ele>
        <time>2022-10-28T07:43:00Z</time>
      </trkpt>
      <trkpt lat="44.75216" lon="5.37478">
        <ele>416.7</ele>
        <time>2022-10-28T07:43:01Z</time>
      </trkpt>
      <trkpt lat="44.75216" lon="5.37479">
        <ele>416.7</ele>
        <time>2022-10-28T07:43:02Z</time>
      </trkpt>
      <trkpt lat="44.75216" lon="5.37479">
        <ele>416.7</ele>
        <time>2022-10-28T07:43:03Z</time>
      </trkpt>
      <trkpt lat="44.75216" lon="5.37479">
        <ele>416.7</ele>
        <time>2022-10-28T07:43:04Z</time>
      </trkpt>
      <trkpt lat="44.75216" lon="5.3748">
        <ele>416.7</ele>
        <time>2022-10-28T07:43:05Z</time>
      </trkpt>
      <trkpt lat="44.75216" lon="5.37481">
        <ele>416.7</ele>
        <time>2022-10-28T07:43:06Z</time>
      </trkpt>
      <trkpt lat="44.75215" lon="5.37483">
        <ele>416.7</ele>
        <time>2022-10-28T07:43:07Z</time>
      </trkpt>
      <trkpt lat="44.75215" lon="5.37484">
        <ele>416.7</ele>
        <time>2022-10-28T07:43:08Z</time>
      </trkpt>
      <trkpt lat="44.75215" lon="5.37486">
        <ele>416.7</ele>
        <time>2022-10-28T07:43:09Z</time>
      </trkpt>
      <trkpt lat="44.75216" lon="5.37486">
        <ele>416.7</ele>
        <time>2022-10-28T07:43:10Z</time>
      </trkpt>
      <trkpt lat="44.75216" lon="5.37487">
        <ele>416.7</ele>
        <time>2022-10-28T07:43:11Z</time>
      </trkpt>
      <trkpt lat="44.75217" lon="5.37487">
        <ele>416.7</ele>
        <time>2022-10-28T07:43:12Z</time>
      </trkpt>
      <trkpt lat="44.75217" lon="5.37486">
        <ele>416.7</ele>
        <time>2022-10-28T07:43:13Z</time>
      </trkpt>
      <trkpt lat="44.75217" lon="5.37486">
        <ele>416.7</ele>
        <time>2022-10-28T07:43:14Z</time>
      </trkpt>
      <trkpt lat="44.75217" lon="5.37485">
        <ele>416.7</ele>
        <time>2022-10-28T07:43:15Z</time>
      </trkpt>
      <trkpt lat="44.75217" lon="5.37486">
        <ele>416.7</ele>
        <time>2022-10-28T07:43:16Z</time>
      </trkpt>
      <trkpt lat="44.75216" lon="5.37485">
        <ele>416.7</ele>
        <time>2022-10-28T07:43:17Z</time>
      </trkpt>
      <trkpt lat="44.75215" lon="5.37484">
        <ele>416.7</ele>
        <time>2022-10-28T07:43:18Z</time>
      </trkpt>
      <trkpt lat="44.75214" lon="5.37483">
        <ele>416.7</ele>
        <time>2022-10-28T07:43:19Z</time>
      </trkpt>
      <trkpt lat="44.75214" lon="5.37482">
        <ele>416.7</ele>
        <time>2022-10-28T07:43:20Z</time>
      </trkpt>
      <trkpt lat="44.75213" lon="5.37481">
        <ele>416.7</ele>
        <time>2022-10-28T07:43:21Z</time>
      </trkpt>
      <trkpt lat="44.75213" lon="5.3748">
        <ele>416.7</ele>
        <time>2022-10-28T07:43:22Z</time>
      </trkpt>
      <trkpt lat="44.75212" lon="5.3748">
        <ele>416.7</ele>
        <time>2022-10-28T07:43:23Z</time>
      </trkpt>
      <trkpt lat="44.75212" lon="5.3748">
        <ele>416.7</ele>
        <time>2022-10-28T07:43:24Z</time>
      </trkpt>
      <trkpt lat="44.75212" lon="5.37481">
        <ele>416.7</ele>
        <time>2022-10-28T07:43:25Z</time>
      </trkpt>
      <trkpt lat="44.75211" lon="5.37483">
        <ele>416.7</ele>
        <time>2022-10-28T07:43:26Z</time>
      </trkpt>
      <trkpt lat="44.75211" lon="5.37485">
        <ele>416.7</ele>
        <time>2022-10-28T07:43:27Z</time>
      </trkpt>
      <trkpt lat="44.75212" lon="5.37486">
        <ele>416.7</ele>
        <time>2022-10-28T07:43:28Z</time>
      </trkpt>
      <trkpt lat="44.75212" lon="5.37486">
        <ele>416.7</ele>
        <time>2022-10-28T07:43:29Z</time>
      </trkpt>
      <trkpt lat="44.75214" lon="5.37486">
        <ele>416.7</ele>
        <time>2022-10-28T07:43:30Z</time>
      </trkpt>
      <trkpt lat="44.75215" lon="5.37484">
        <ele>416.7</ele>
        <time>2022-10-28T07:43:31Z</time>
      </trkpt>
      <trkpt lat="44.75217" lon="5.3748">
        <ele>416.7</ele>
        <time>2022-10-28T07:43:32Z</time>
      </trkpt>
      <trkpt lat="44.75218" lon="5.37478">
        <ele>416.7</ele>
        <time>2022-10-28T07:43:33Z</time>
      </trkpt>
      <trkpt lat="44.75217" lon="5.37473">
        <ele>416.7</ele>
        <time>2022-10-28T07:43:34Z</time>
      </trkpt>
      <trkpt lat="44.75217" lon="5.37472">
        <ele>416.7</ele>
        <time>2022-10-28T07:43:35Z</time>
      </trkpt>
      <trkpt lat="44.75215" lon="5.3747">
        <ele>416.7</ele>
        <time>2022-10-28T07:43:36Z</time>
      </trkpt>
      <trkpt lat="44.75213" lon="5.37469">
        <ele>416.7</ele>
        <time>2022-10-28T07:43:37Z</time>
      </trkpt>
      <trkpt lat="44.75213" lon="5.37468">
        <ele>416.7</ele>
        <time>2022-10-28T07:43:38Z</time>
      </trkpt>
      <trkpt lat="44.75213" lon="5.37467">
        <ele>416.7</ele>
        <time>2022-10-28T07:43:39Z</time>
      </trkpt>
      <trkpt lat="44.75213" lon="5.37467">
        <ele>416.7</ele>
        <time>2022-10-28T07:43:40Z</time>
      </trkpt>
      <trkpt lat="44.75213" lon="5.37467">
        <ele>416.7</ele>
        <time>2022-10-28T07:43:41Z</time>
      </trkpt>
      <trkpt lat="44.75213" lon="5.37467">
        <ele>416.7</ele>
        <time>2022-10-28T07:43:42Z</time>
      </trkpt>
      <trkpt lat="44.75213" lon="5.37468">
        <ele>416.7</ele>
        <time>2022-10-28T07:43:43Z</time>
      </trkpt>
      <trkpt lat="44.75214" lon="5.37469">
        <ele>416.7</ele>
        <time>2022-10-28T07:43:44Z</time>
      </trkpt>
      <trkpt lat="44.75214" lon="5.37471">
        <ele>416.7</ele>
        <time>2022-10-28T07:43:45Z</time>
      </trkpt>
      <trkpt lat="44.75214" lon="5.37472">
        <ele>416.7</ele>
        <time>2022-10-28T07:43:46Z</time>
      </trkpt>
      <trkpt lat="44.75214" lon="5.37472">
        <ele>416.7</ele>
        <time>2022-10-28T07:43:47Z</time>
      </trkpt>
      <trkpt lat="44.75214" lon="5.37474">
        <ele>416.7</ele>
        <time>2022-10-28T07:43:48Z</time>
      </trkpt>
      <trkpt lat="44.75214" lon="5.3748">
        <ele>416.7</ele>
        <time>2022-10-28T07:43:49Z</time>
      </trkpt>
      <trkpt lat="44.75215" lon="5.37481">
        <ele>416.7</ele>
        <time>2022-10-28T07:43:50Z</time>
      </trkpt>
      <trkpt lat="44.75215" lon="5.37486">
        <ele>416.7</ele>
        <time>2022-10-28T07:43:51Z</time>
      </trkpt>
      <trkpt lat="44.75215" lon="5.37491">
        <ele>416.7</ele>
        <time>2022-10-28T07:43:52Z</time>
      </trkpt>
      <trkpt lat="44.75215" lon="5.37493">
        <ele>416.7</ele>
        <time>2022-10-28T07:43:53Z</time>
      </trkpt>
      <trkpt lat="44.75216" lon="5.37498">
        <ele>416.7</ele>
        <time>2022-10-28T07:43:54Z</time>
      </trkpt>
      <trkpt lat="44.75217" lon="5.37499">
        <ele>416.7</ele>
        <time>2022-10-28T07:43:55Z</time>
      </trkpt>
      <trkpt lat="44.75218" lon="5.375">
        <ele>416.7</ele>
        <time>2022-10-28T07:43:56Z</time>
      </trkpt>
      <trkpt lat="44.75219" lon="5.37499">
        <ele>416.7</ele>
        <time>2022-10-28T07:43:57Z</time>
      </trkpt>
      <trkpt lat="44.75219" lon="5.37499">
        <ele>416.7</ele>
        <time>2022-10-28T07:43:58Z</time>
      </trkpt>
      <trkpt lat="44.7522" lon="5.37499">
        <ele>416.7</ele>
        <time>2022-10-28T07:43:59Z</time>
      </trkpt>
      <trkpt lat="44.7522" lon="5.37498">
        <ele>416.7</ele>
        <time>2022-10-28T07:44:00Z</time>
      </trkpt>
      <trkpt lat="44.75221" lon="5.37497">
        <ele>416.7</ele>
        <time>2022-10-28T07:44:01Z</time>
      </trkpt>
      <trkpt lat="44.7522" lon="5.37496">
        <ele>416.7</ele>
        <time>2022-10-28T07:44:02Z</time>
      </trkpt>
      <trkpt lat="44.7522" lon="5.37494">
        <ele>416.7</ele>
        <time>2022-10-28T07:44:03Z</time>
      </trkpt>
      <trkpt lat="44.75219" lon="5.37492">
        <ele>416.7</ele>
        <time>2022-10-28T07:44:04Z</time>
      </trkpt>
      <trkpt lat="44.75219" lon="5.3749">
        <ele>416.7</ele>
        <time>2022-10-28T07:44:05Z</time>
      </trkpt>
      <trkpt lat="44.75219" lon="5.37487">
        <ele>416.7</ele>
        <time>2022-10-28T07:44:06Z</time>
      </trkpt>
      <trkpt lat="44.75219" lon="5.37486">
        <ele>416.7</ele>
        <time>2022-10-28T07:44:07Z</time>
      </trkpt>
      <trkpt lat="44.75219" lon="5.37485">
        <ele>416.7</ele>
        <time>2022-10-28T07:44:08Z</time>
      </trkpt>
      <trkpt lat="44.75219" lon="5.37485">
        <ele>416.7</ele>
        <time>2022-10-28T07:44:09Z</time>
      </trkpt>
      <trkpt lat="44.75219" lon="5.37485">
        <ele>416.7</ele>
        <time>2022-10-28T07:44:10Z</time>
      </trkpt>
      <trkpt lat="44.75219" lon="5.37485">
        <ele>416.7</ele>
        <time>2022-10-28T07:44:11Z</time>
      </trkpt>
      <trkpt lat="44.75219" lon="5.37486">
        <ele>416.7</ele>
        <time>2022-10-28T07:44:12Z</time>
      </trkpt>
      <trkpt lat="44.75219" lon="5.37486">
        <ele>416.7</ele>
        <time>2022-10-28T07:44:13Z</time>
      </trkpt>
      <trkpt lat="44.7522" lon="5.37486">
        <ele>416.6</ele>
        <time>2022-10-28T07:44:14Z</time>
      </trkpt>
      <trkpt lat="44.75219" lon="5.37488">
        <ele>416.6</ele>
        <time>2022-10-28T07:44:15Z</time>
      </trkpt>
      <trkpt lat="44.75219" lon="5.37489">
        <ele>416.6</ele>
        <time>2022-10-28T07:44:16Z</time>
      </trkpt>
      <trkpt lat="44.75219" lon="5.37489">
        <ele>416.6</ele>
        <time>2022-10-28T07:44:17Z</time>
      </trkpt>
      <trkpt lat="44.75219" lon="5.37489">
        <ele>416.6</ele>
        <time>2022-10-28T07:44:18Z</time>
      </trkpt>
      <trkpt lat="44.75219" lon="5.37489">
        <ele>416.6</ele>
        <time>2022-10-28T07:44:19Z</time>
      </trkpt>
      <trkpt lat="44.75219" lon="5.37489">
        <ele>416.6</ele>
        <time>2022-10-28T07:44:20Z</time>
      </trkpt>
      <trkpt lat="44.75219" lon="5.3749">
        <ele>416.6</ele>
        <time>2022-10-28T07:44:21Z</time>
      </trkpt>
      <trkpt lat="44.75219" lon="5.3749">
        <ele>416.6</ele>
        <time>2022-10-28T07:44:22Z</time>
      </trkpt>
      <trkpt lat="44.75218" lon="5.37492">
        <ele>416.6</ele>
        <time>2022-10-28T07:44:23Z</time>
      </trkpt>
      <trkpt lat="44.75218" lon="5.37493">
        <ele>416.6</ele>
        <time>2022-10-28T07:44:24Z</time>
      </trkpt>
      <trkpt lat="44.75218" lon="5.37493">
        <ele>416.6</ele>
        <time>2022-10-28T07:44:25Z</time>
      </trkpt>
      <trkpt lat="44.75218" lon="5.37492">
        <ele>416.6</ele>
        <time>2022-10-28T07:44:26Z</time>
      </trkpt>
      <trkpt lat="44.75218" lon="5.37492">
        <ele>416.6</ele>
        <time>2022-10-28T07:44:27Z</time>
      </trkpt>
      <trkpt lat="44.75218" lon="5.37491">
        <ele>416.6</ele>
        <time>2022-10-28T07:44:28Z</time>
      </trkpt>
      <trkpt lat="44.75217" lon="5.3749">
        <ele>416.6</ele>
        <time>2022-10-28T07:44:29Z</time>
      </trkpt>
      <trkpt lat="44.75217" lon="5.3749">
        <ele>416.6</ele>
        <time>2022-10-28T07:44:30Z</time>
      </trkpt>
      <trkpt lat="44.75217" lon="5.37489">
        <ele>416.6</ele>
        <time>2022-10-28T07:44:31Z</time>
      </trkpt>
      <trkpt lat="44.75217" lon="5.37489">
        <ele>416.6</ele>
        <time>2022-10-28T07:44:32Z</time>
      </trkpt>
      <trkpt lat="44.75217" lon="5.37488">
        <ele>416.6</ele>
        <time>2022-10-28T07:44:33Z</time>
      </trkpt>
      <trkpt lat="44.75216" lon="5.37487">
        <ele>416.6</ele>
        <time>2022-10-28T07:44:34Z</time>
      </trkpt>
      <trkpt lat="44.75216" lon="5.37487">
        <ele>416.6</ele>
        <time>2022-10-28T07:44:35Z</time>
      </trkpt>
      <trkpt lat="44.75216" lon="5.37486">
        <ele>416.6</ele>
        <time>2022-10-28T07:44:42Z</time>
      </trkpt>
      <trkpt lat="44.75216" lon="5.37486">
        <ele>416.6</ele>
        <time>2022-10-28T07:44:43Z</time>
      </trkpt>
      <trkpt lat="44.75215" lon="5.37485">
        <ele>416.6</ele>
        <time>2022-10-28T07:44:44Z</time>
      </trkpt>
      <trkpt lat="44.75215" lon="5.37484">
        <ele>416.6</ele>
        <time>2022-10-28T07:44:45Z</time>
      </trkpt>
      <trkpt lat="44.75215" lon="5.37484">
        <ele>416.6</ele>
        <time>2022-10-28T07:44:46Z</time>
      </trkpt>
      <trkpt lat="44.75215" lon="5.37483">
        <ele>416.6</ele>
        <time>2022-10-28T07:44:47Z</time>
      </trkpt>
      <trkpt lat="44.75215" lon="5.37483">
        <ele>416.6</ele>
        <time>2022-10-28T07:44:48Z</time>
      </trkpt>
      <trkpt lat="44.75214" lon="5.37482">
        <ele>416.6</ele>
        <time>2022-10-28T07:44:49Z</time>
      </trkpt>
      <trkpt lat="44.75214" lon="5.37481">
        <ele>416.6</ele>
        <time>2022-10-28T07:44:50Z</time>
      </trkpt>
      <trkpt lat="44.75214" lon="5.37481">
        <ele>416.6</ele>
        <time>2022-10-28T07:44:51Z</time>
      </trkpt>
      <trkpt lat="44.75214" lon="5.3748">
        <ele>416.6</ele>
        <time>2022-10-28T07:44:52Z</time>
      </trkpt>
      <trkpt lat="44.75213" lon="5.37479">
        <ele>416.6</ele>
        <time>2022-10-28T07:44:53Z</time>
      </trkpt>
      <trkpt lat="44.75213" lon="5.37479">
        <ele>416.6</ele>
        <time>2022-10-28T07:44:54Z</time>
      </trkpt>
      <trkpt lat="44.75213" lon="5.37478">
        <ele>416.6</ele>
        <time>2022-10-28T07:44:55Z</time>
      </trkpt>
      <trkpt lat="44.75213" lon="5.37478">
        <ele>416.6</ele>
        <time>2022-10-28T07:45:09Z</time>
      </trkpt>
      <trkpt lat="44.75213" lon="5.37477">
        <ele>416.6</ele>
        <time>2022-10-28T07:45:10Z</time>
      </trkpt>
      <trkpt lat="44.75212" lon="5.37476">
        <ele>416.6</ele>
        <time>2022-10-28T07:45:11Z</time>
      </trkpt>
      <trkpt lat="44.75212" lon="5.37476">
        <ele>416.6</ele>
        <time>2022-10-28T07:45:12Z</time>
      </trkpt>
      <trkpt lat="44.75212" lon="5.37476">
        <ele>416.6</ele>
        <time>2022-10-28T07:45:13Z</time>
      </trkpt>
      <trkpt lat="44.75212" lon="5.37476">
        <ele>416.6</ele>
        <time>2022-10-28T07:45:14Z</time>
      </trkpt>
      <trkpt lat="44.75211" lon="5.37477">
        <ele>416.6</ele>
        <time>2022-10-28T07:45:15Z</time>
      </trkpt>
      <trkpt lat="44.75211" lon="5.37476">
        <ele>416.6</ele>
        <time>2022-10-28T07:45:16Z</time>
      </trkpt>
      <trkpt lat="44.7521" lon="5.37476">
        <ele>416.6</ele>
        <time>2022-10-28T07:45:17Z</time>
      </trkpt>
      <trkpt lat="44.7521" lon="5.37475">
        <ele>416.6</ele>
        <time>2022-10-28T07:45:18Z</time>
      </trkpt>
      <trkpt lat="44.75209" lon="5.37474">
        <ele>416.6</ele>
        <time>2022-10-28T07:45:19Z</time>
      </trkpt>
      <trkpt lat="44.75209" lon="5.37476">
        <ele>416.6</ele>
        <time>2022-10-28T07:45:20Z</time>
      </trkpt>
      <trkpt lat="44.7521" lon="5.37477">
        <ele>416.6</ele>
        <time>2022-10-28T07:45:21Z</time>
      </trkpt>
      <trkpt lat="44.7521" lon="5.37478">
        <ele>416.6</ele>
        <time>2022-10-28T07:45:22Z</time>
      </trkpt>
      <trkpt lat="44.7521" lon="5.37479">
        <ele>416.6</ele>
        <time>2022-10-28T07:45:23Z</time>
      </trkpt>
      <trkpt lat="44.7521" lon="5.37479">
        <ele>416.6</ele>
        <time>2022-10-28T07:45:24Z</time>
      </trkpt>
      <trkpt lat="44.75209" lon="5.37481">
        <ele>416.6</ele>
        <time>2022-10-28T07:45:25Z</time>
      </trkpt>
      <trkpt lat="44.75208" lon="5.37482">
        <ele>416.5</ele>
        <time>2022-10-28T07:45:26Z</time>
      </trkpt>
      <trkpt lat="44.75207" lon="5.37483">
        <ele>416.5</ele>
        <time>2022-10-28T07:45:27Z</time>
      </trkpt>
      <trkpt lat="44.75205" lon="5.37484">
        <ele>416.5</ele>
        <time>2022-10-28T07:45:28Z</time>
      </trkpt>
      <trkpt lat="44.75202" lon="5.37486">
        <ele>416.5</ele>
        <time>2022-10-28T07:45:29Z</time>
      </trkpt>
      <trkpt lat="44.75201" lon="5.37488">
        <ele>416.5</ele>
        <time>2022-10-28T07:45:30Z</time>
      </trkpt>
      <trkpt lat="44.75199" lon="5.3749">
        <ele>416.5</ele>
        <time>2022-10-28T07:45:31Z</time>
      </trkpt>
      <trkpt lat="44.75197" lon="5.37493">
        <ele>416.5</ele>
        <time>2022-10-28T07:45:32Z</time>
      </trkpt>
      <trkpt lat="44.75194" lon="5.37495">
        <ele>416.4</ele>
        <time>2022-10-28T07:45:33Z</time>
      </trkpt>
      <trkpt lat="44.75192" lon="5.37498">
        <ele>416.4</ele>
        <time>2022-10-28T07:45:34Z</time>
      </trkpt>
      <trkpt lat="44.75189" lon="5.37501">
        <ele>416.3</ele>
        <time>2022-10-28T07:45:35Z</time>
      </trkpt>
      <trkpt lat="44.75187" lon="5.37504">
        <ele>416.3</ele>
        <time>2022-10-28T07:45:36Z</time>
      </trkpt>
      <trkpt lat="44.75185" lon="5.37507">
        <ele>416.2</ele>
        <time>2022-10-28T07:45:37Z</time>
      </trkpt>
      <trkpt lat="44.75182" lon="5.3751">
        <ele>416.2</ele>
        <time>2022-10-28T07:45:38Z</time>
      </trkpt>
      <trkpt lat="44.7518" lon="5.37513">
        <ele>416.2</ele>
        <time>2022-10-28T07:45:39Z</time>
      </trkpt>
      <trkpt lat="44.75177" lon="5.37517">
        <ele>416.1</ele>
        <time>2022-10-28T07:45:40Z</time>
      </trkpt>
      <trkpt lat="44.75175" lon="5.37521">
        <ele>416.1</ele>
        <time>2022-10-28T07:45:41Z</time>
      </trkpt>
      <trkpt lat="44.75172" lon="5.37525">
        <ele>416</ele>
        <time>2022-10-28T07:45:42Z</time>
      </trkpt>
      <trkpt lat="44.75169" lon="5.37529">
        <ele>416</ele>
        <time>2022-10-28T07:45:43Z</time>
      </trkpt>
      <trkpt lat="44.75166" lon="5.37533">
        <ele>416</ele>
        <time>2022-10-28T07:45:44Z</time>
      </trkpt>
      <trkpt lat="44.75163" lon="5.37537">
        <ele>415.9</ele>
        <time>2022-10-28T07:45:45Z</time>
      </trkpt>
      <trkpt lat="44.7516" lon="5.37541">
        <ele>415.9</ele>
        <time>2022-10-28T07:45:46Z</time>
      </trkpt>
      <trkpt lat="44.75157" lon="5.37544">
        <ele>415.9</ele>
        <time>2022-10-28T07:45:47Z</time>
      </trkpt>
      <trkpt lat="44.75155" lon="5.37547">
        <ele>415.8</ele>
        <time>2022-10-28T07:45:48Z</time>
      </trkpt>
      <trkpt lat="44.75152" lon="5.37551">
        <ele>415.8</ele>
        <time>2022-10-28T07:45:49Z</time>
      </trkpt>
      <trkpt lat="44.75148" lon="5.37556">
        <ele>415.8</ele>
        <time>2022-10-28T07:45:50Z</time>
      </trkpt>
      <trkpt lat="44.75147" lon="5.37558">
        <ele>415.7</ele>
        <time>2022-10-28T07:45:51Z</time>
      </trkpt>
      <trkpt lat="44.75143" lon="5.37562">
        <ele>415.7</ele>
        <time>2022-10-28T07:45:52Z</time>
      </trkpt>
      <trkpt lat="44.7514" lon="5.37565">
        <ele>415.7</ele>
        <time>2022-10-28T07:45:53Z</time>
      </trkpt>
      <trkpt lat="44.75137" lon="5.37567">
        <ele>415.6</ele>
        <time>2022-10-28T07:45:54Z</time>
      </trkpt>
      <trkpt lat="44.75134" lon="5.37571">
        <ele>415.6</ele>
        <time>2022-10-28T07:45:55Z</time>
      </trkpt>
      <trkpt lat="44.75131" lon="5.37574">
        <ele>415.6</ele>
        <time>2022-10-28T07:45:56Z</time>
      </trkpt>
      <trkpt lat="44.75127" lon="5.37578">
        <ele>415.5</ele>
        <time>2022-10-28T07:45:57Z</time>
      </trkpt>
      <trkpt lat="44.75124" lon="5.37582">
        <ele>415.5</ele>
        <time>2022-10-28T07:45:58Z</time>
      </trkpt>
      <trkpt lat="44.75121" lon="5.37586">
        <ele>415.4</ele>
        <time>2022-10-28T07:45:59Z</time>
      </trkpt>
      <trkpt lat="44.75118" lon="5.3759">
        <ele>415.4</ele>
        <time>2022-10-28T07:46:00Z</time>
      </trkpt>
      <trkpt lat="44.75115" lon="5.37594">
        <ele>415.3</ele>
        <time>2022-10-28T07:46:01Z</time>
      </trkpt>
      <trkpt lat="44.75112" lon="5.37599">
        <ele>415.3</ele>
        <time>2022-10-28T07:46:02Z</time>
      </trkpt>
      <trkpt lat="44.7511" lon="5.37602">
        <ele>415.2</ele>
        <time>2022-10-28T07:46:03Z</time>
      </trkpt>
      <trkpt lat="44.75107" lon="5.37606">
        <ele>415.2</ele>
        <time>2022-10-28T07:46:04Z</time>
      </trkpt>
      <trkpt lat="44.75104" lon="5.3761">
        <ele>415.2</ele>
        <time>2022-10-28T07:46:05Z</time>
      </trkpt>
      <trkpt lat="44.75101" lon="5.37614">
        <ele>415.1</ele>
        <time>2022-10-28T07:46:06Z</time>
      </trkpt>
      <trkpt lat="44.75098" lon="5.37618">
        <ele>415.1</ele>
        <time>2022-10-28T07:46:07Z</time>
      </trkpt>
      <trkpt lat="44.75095" lon="5.37623">
        <ele>415</ele>
        <time>2022-10-28T07:46:08Z</time>
      </trkpt>
      <trkpt lat="44.75091" lon="5.37628">
        <ele>414.9</ele>
        <time>2022-10-28T07:46:09Z</time>
      </trkpt>
      <trkpt lat="44.75088" lon="5.37633">
        <ele>414.9</ele>
        <time>2022-10-28T07:46:10Z</time>
      </trkpt>
      <trkpt lat="44.75086" lon="5.37636">
        <ele>414.8</ele>
        <time>2022-10-28T07:46:11Z</time>
      </trkpt>
      <trkpt lat="44.75081" lon="5.37642">
        <ele>414.8</ele>
        <time>2022-10-28T07:46:12Z</time>
      </trkpt>
      <trkpt lat="44.75077" lon="5.37646">
        <ele>414.7</ele>
        <time>2022-10-28T07:46:13Z</time>
      </trkpt>
      <trkpt lat="44.75074" lon="5.37651">
        <ele>414.6</ele>
        <time>2022-10-28T07:46:14Z</time>
      </trkpt>
      <trkpt lat="44.75071" lon="5.37656">
        <ele>414.5</ele>
        <time>2022-10-28T07:46:15Z</time>
      </trkpt>
      <trkpt lat="44.75067" lon="5.3766">
        <ele>414.5</ele>
        <time>2022-10-28T07:46:16Z</time>
      </trkpt>
      <trkpt lat="44.75063" lon="5.37665">
        <ele>414.4</ele>
        <time>2022-10-28T07:46:17Z</time>
      </trkpt>
      <trkpt lat="44.7506" lon="5.3767">
        <ele>414.3</ele>
        <time>2022-10-28T07:46:18Z</time>
      </trkpt>
      <trkpt lat="44.75056" lon="5.37675">
        <ele>414.2</ele>
        <time>2022-10-28T07:46:19Z</time>
      </trkpt>
      <trkpt lat="44.75052" lon="5.37679">
        <ele>414.1</ele>
        <time>2022-10-28T07:46:20Z</time>
      </trkpt>
      <trkpt lat="44.75049" lon="5.37684">
        <ele>413.9</ele>
        <time>2022-10-28T07:46:21Z</time>
      </trkpt>
      <trkpt lat="44.75046" lon="5.37689">
        <ele>413.8</ele>
        <time>2022-10-28T07:46:22Z</time>
      </trkpt>
      <trkpt lat="44.75042" lon="5.37694">
        <ele>413.7</ele>
        <time>2022-10-28T07:46:23Z</time>
      </trkpt>
      <trkpt lat="44.75039" lon="5.37699">
        <ele>413.6</ele>
        <time>2022-10-28T07:46:24Z</time>
      </trkpt>
      <trkpt lat="44.75036" lon="5.37704">
        <ele>413.4</ele>
        <time>2022-10-28T07:46:25Z</time>
      </trkpt>
      <trkpt lat="44.75033" lon="5.37709">
        <ele>413.3</ele>
        <time>2022-10-28T07:46:26Z</time>
      </trkpt>
      <trkpt lat="44.7503" lon="5.37715">
        <ele>413.2</ele>
        <time>2022-10-28T07:46:27Z</time>
      </trkpt>
      <trkpt lat="44.75026" lon="5.3772">
        <ele>413.1</ele>
        <time>2022-10-28T07:46:28Z</time>
      </trkpt>
      <trkpt lat="44.75024" lon="5.37726">
        <ele>412.9</ele>
        <time>2022-10-28T07:46:29Z</time>
      </trkpt>
      <trkpt lat="44.75021" lon="5.3773">
        <ele>412.8</ele>
        <time>2022-10-28T07:46:30Z</time>
      </trkpt>
      <trkpt lat="44.75018" lon="5.37736">
        <ele>412.7</ele>
        <time>2022-10-28T07:46:31Z</time>
      </trkpt>
      <trkpt lat="44.75014" lon="5.37741">
        <ele>412.5</ele>
        <time>2022-10-28T07:46:32Z</time>
      </trkpt>
      <trkpt lat="44.75011" lon="5.37747">
        <ele>412.5</ele>
        <time>2022-10-28T07:46:33Z</time>
      </trkpt>
      <trkpt lat="44.75007" lon="5.37754">
        <ele>412.4</ele>
        <time>2022-10-28T07:46:34Z</time>
      </trkpt>
      <trkpt lat="44.75004" lon="5.37759">
        <ele>412.3</ele>
        <time>2022-10-28T07:46:35Z</time>
      </trkpt>
      <trkpt lat="44.75001" lon="5.37765">
        <ele>412.1</ele>
        <time>2022-10-28T07:46:36Z</time>
      </trkpt>
      <trkpt lat="44.74997" lon="5.3777">
        <ele>411.9</ele>
        <time>2022-10-28T07:46:37Z</time>
      </trkpt>
      <trkpt lat="44.74993" lon="5.37775">
        <ele>411.8</ele>
        <time>2022-10-28T07:46:38Z</time>
      </trkpt>
      <trkpt lat="44.7499" lon="5.37781">
        <ele>411.6</ele>
        <time>2022-10-28T07:46:39Z</time>
      </trkpt>
      <trkpt lat="44.74986" lon="5.37787">
        <ele>411.4</ele>
        <time>2022-10-28T07:46:40Z</time>
      </trkpt>
      <trkpt lat="44.74983" lon="5.37793">
        <ele>411.2</ele>
        <time>2022-10-28T07:46:41Z</time>
      </trkpt>
      <trkpt lat="44.7498" lon="5.37799">
        <ele>411</ele>
        <time>2022-10-28T07:46:42Z</time>
      </trkpt>
      <trkpt lat="44.74976" lon="5.37805">
        <ele>410.9</ele>
        <time>2022-10-28T07:46:43Z</time>
      </trkpt>
      <trkpt lat="44.74973" lon="5.37811">
        <ele>410.7</ele>
        <time>2022-10-28T07:46:44Z</time>
      </trkpt>
      <trkpt lat="44.74969" lon="5.37818">
        <ele>410.5</ele>
        <time>2022-10-28T07:46:45Z</time>
      </trkpt>
      <trkpt lat="44.74966" lon="5.37824">
        <ele>410.4</ele>
        <time>2022-10-28T07:46:46Z</time>
      </trkpt>
      <trkpt lat="44.74962" lon="5.3783">
        <ele>410.2</ele>
        <time>2022-10-28T07:46:47Z</time>
      </trkpt>
      <trkpt lat="44.74958" lon="5.37836">
        <ele>410</ele>
        <time>2022-10-28T07:46:48Z</time>
      </trkpt>
      <trkpt lat="44.74955" lon="5.37842">
        <ele>409.9</ele>
        <time>2022-10-28T07:46:49Z</time>
      </trkpt>
      <trkpt lat="44.74951" lon="5.37848">
        <ele>409.8</ele>
        <time>2022-10-28T07:46:50Z</time>
      </trkpt>
      <trkpt lat="44.74947" lon="5.37854">
        <ele>409.6</ele>
        <time>2022-10-28T07:46:51Z</time>
      </trkpt>
      <trkpt lat="44.74944" lon="5.3786">
        <ele>409.5</ele>
        <time>2022-10-28T07:46:52Z</time>
      </trkpt>
      <trkpt lat="44.7494" lon="5.37866">
        <ele>409.4</ele>
        <time>2022-10-28T07:46:53Z</time>
      </trkpt>
      <trkpt lat="44.74937" lon="5.37872">
        <ele>409.3</ele>
        <time>2022-10-28T07:46:54Z</time>
      </trkpt>
      <trkpt lat="44.74933" lon="5.37878">
        <ele>409.3</ele>
        <time>2022-10-28T07:46:55Z</time>
      </trkpt>
      <trkpt lat="44.7493" lon="5.37884">
        <ele>409.2</ele>
        <time>2022-10-28T07:46:56Z</time>
      </trkpt>
      <trkpt lat="44.74927" lon="5.37889">
        <ele>409.2</ele>
        <time>2022-10-28T07:46:57Z</time>
      </trkpt>
      <trkpt lat="44.74923" lon="5.37894">
        <ele>409.2</ele>
        <time>2022-10-28T07:46:58Z</time>
      </trkpt>
      <trkpt lat="44.7492" lon="5.37899">
        <ele>409.2</ele>
        <time>2022-10-28T07:46:59Z</time>
      </trkpt>
      <trkpt lat="44.74917" lon="5.37904">
        <ele>409.2</ele>
        <time>2022-10-28T07:47:00Z</time>
      </trkpt>
      <trkpt lat="44.74914" lon="5.37909">
        <ele>409.2</ele>
        <time>2022-10-28T07:47:01Z</time>
      </trkpt>
      <trkpt lat="44.74911" lon="5.37913">
        <ele>409.2</ele>
        <time>2022-10-28T07:47:02Z</time>
      </trkpt>
      <trkpt lat="44.74909" lon="5.37917">
        <ele>409.1</ele>
        <time>2022-10-28T07:47:03Z</time>
      </trkpt>
      <trkpt lat="44.74906" lon="5.37922">
        <ele>409.1</ele>
        <time>2022-10-28T07:47:04Z</time>
      </trkpt>
      <trkpt lat="44.74903" lon="5.37927">
        <ele>409.1</ele>
        <time>2022-10-28T07:47:05Z</time>
      </trkpt>
      <trkpt lat="44.749" lon="5.37932">
        <ele>409.1</ele>
        <time>2022-10-28T07:47:06Z</time>
      </trkpt>
      <trkpt lat="44.74897" lon="5.37935">
        <ele>409.1</ele>
        <time>2022-10-28T07:47:07Z</time>
      </trkpt>
      <trkpt lat="44.74894" lon="5.37938">
        <ele>409</ele>
        <time>2022-10-28T07:47:08Z</time>
      </trkpt>
      <trkpt lat="44.7489" lon="5.37941">
        <ele>409</ele>
        <time>2022-10-28T07:47:09Z</time>
      </trkpt>
      <trkpt lat="44.74885" lon="5.37944">
        <ele>409</ele>
        <time>2022-10-28T07:47:10Z</time>
      </trkpt>
      <trkpt lat="44.74879" lon="5.37945">
        <ele>408.8</ele>
        <time>2022-10-28T07:47:11Z</time>
      </trkpt>
      <trkpt lat="44.74874" lon="5.37945">
        <ele>408.7</ele>
        <time>2022-10-28T07:47:12Z</time>
      </trkpt>
      <trkpt lat="44.74869" lon="5.37942">
        <ele>408.6</ele>
        <time>2022-10-28T07:47:13Z</time>
      </trkpt>
      <trkpt lat="44.74865" lon="5.3794">
        <ele>408.5</ele>
        <time>2022-10-28T07:47:14Z</time>
      </trkpt>
      <trkpt lat="44.74862" lon="5.37937">
        <ele>408.4</ele>
        <time>2022-10-28T07:47:15Z</time>
      </trkpt>
      <trkpt lat="44.74861" lon="5.37936">
        <ele>408.4</ele>
        <time>2022-10-28T07:47:16Z</time>
      </trkpt>
      <trkpt lat="44.74859" lon="5.37932">
        <ele>408.3</ele>
        <time>2022-10-28T07:47:17Z</time>
      </trkpt>
      <trkpt lat="44.74858" lon="5.37929">
        <ele>408.2</ele>
        <time>2022-10-28T07:47:18Z</time>
      </trkpt>
      <trkpt lat="44.74857" lon="5.37924">
        <ele>408.2</ele>
        <time>2022-10-28T07:47:19Z</time>
      </trkpt>
      <trkpt lat="44.74856" lon="5.37921">
        <ele>408.2</ele>
        <time>2022-10-28T07:47:20Z</time>
      </trkpt>
      <trkpt lat="44.74854" lon="5.37918">
        <ele>408.1</ele>
        <time>2022-10-28T07:47:21Z</time>
      </trkpt>
      <trkpt lat="44.74854" lon="5.37917">
        <ele>408.1</ele>
        <time>2022-10-28T07:47:22Z</time>
      </trkpt>
      <trkpt lat="44.74853" lon="5.37916">
        <ele>408.1</ele>
        <time>2022-10-28T07:47:23Z</time>
      </trkpt>
      <trkpt lat="44.74853" lon="5.37916">
        <ele>408.1</ele>
        <time>2022-10-28T07:47:24Z</time>
      </trkpt>
      <trkpt lat="44.74853" lon="5.37916">
        <ele>408.1</ele>
        <time>2022-10-28T07:47:25Z</time>
      </trkpt>
      <trkpt lat="44.74853" lon="5.37917">
        <ele>408.1</ele>
        <time>2022-10-28T07:47:26Z</time>
      </trkpt>
      <trkpt lat="44.74853" lon="5.37917">
        <ele>408.1</ele>
        <time>2022-10-28T07:47:27Z</time>
      </trkpt>
      <trkpt lat="44.74853" lon="5.37917">
        <ele>408.1</ele>
        <time>2022-10-28T07:47:28Z</time>
      </trkpt>
      <trkpt lat="44.74853" lon="5.37917">
        <ele>408.1</ele>
        <time>2022-10-28T07:47:29Z</time>
      </trkpt>
      <trkpt lat="44.74853" lon="5.37917">
        <ele>408.1</ele>
        <time>2022-10-28T07:47:30Z</time>
      </trkpt>
      <trkpt lat="44.74853" lon="5.37917">
        <ele>408.1</ele>
        <time>2022-10-28T07:47:31Z</time>
      </trkpt>
      <trkpt lat="44.74853" lon="5.37917">
        <ele>408.1</ele>
        <time>2022-10-28T07:47:32Z</time>
      </trkpt>
      <trkpt lat="44.74853" lon="5.37918">
        <ele>408.1</ele>
        <time>2022-10-28T07:47:33Z</time>
      </trkpt>
      <trkpt lat="44.74853" lon="5.37918">
        <ele>408.1</ele>
        <time>2022-10-28T07:47:34Z</time>
      </trkpt>
      <trkpt lat="44.7485" lon="5.37916">
        <ele>408</ele>
        <time>2022-10-28T07:48:50Z</time>
      </trkpt>
      <trkpt lat="44.74849" lon="5.37915">
        <ele>408</ele>
        <time>2022-10-28T07:48:51Z</time>
      </trkpt>
      <trkpt lat="44.74847" lon="5.37914">
        <ele>408</ele>
        <time>2022-10-28T07:48:52Z</time>
      </trkpt>
      <trkpt lat="44.74845" lon="5.37911">
        <ele>408</ele>
        <time>2022-10-28T07:48:53Z</time>
      </trkpt>
      <trkpt lat="44.74842" lon="5.37907">
        <ele>407.7</ele>
        <time>2022-10-28T07:48:54Z</time>
      </trkpt>
      <trkpt lat="44.74841" lon="5.37905">
        <ele>407.6</ele>
        <time>2022-10-28T07:48:55Z</time>
      </trkpt>
      <trkpt lat="44.7484" lon="5.37901">
        <ele>407.5</ele>
        <time>2022-10-28T07:48:56Z</time>
      </trkpt>
      <trkpt lat="44.74839" lon="5.37897">
        <ele>407.4</ele>
        <time>2022-10-28T07:48:57Z</time>
      </trkpt>
      <trkpt lat="44.74837" lon="5.37892">
        <ele>407.3</ele>
        <time>2022-10-28T07:48:58Z</time>
      </trkpt>
      <trkpt lat="44.74836" lon="5.37887">
        <ele>407.1</ele>
        <time>2022-10-28T07:48:59Z</time>
      </trkpt>
      <trkpt lat="44.74835" lon="5.37883">
        <ele>407</ele>
        <time>2022-10-28T07:49:00Z</time>
      </trkpt>
      <trkpt lat="44.74833" lon="5.37876">
        <ele>406.8</ele>
        <time>2022-10-28T07:49:01Z</time>
      </trkpt>
      <trkpt lat="44.74832" lon="5.37871">
        <ele>406.6</ele>
        <time>2022-10-28T07:49:02Z</time>
      </trkpt>
      <trkpt lat="44.7483" lon="5.37864">
        <ele>406.4</ele>
        <time>2022-10-28T07:49:03Z</time>
      </trkpt>
      <trkpt lat="44.74829" lon="5.37856">
        <ele>406.1</ele>
        <time>2022-10-28T07:49:04Z</time>
      </trkpt>
      <trkpt lat="44.74829" lon="5.37849">
        <ele>405.9</ele>
        <time>2022-10-28T07:49:05Z</time>
      </trkpt>
      <trkpt lat="44.74829" lon="5.37841">
        <ele>405.6</ele>
        <time>2022-10-28T07:49:06Z</time>
      </trkpt>
      <trkpt lat="44.7483" lon="5.37833">
        <ele>405.5</ele>
        <time>2022-10-28T07:49:07Z</time>
      </trkpt>
      <trkpt lat="44.7483" lon="5.37825">
        <ele>405.3</ele>
        <time>2022-10-28T07:49:08Z</time>
      </trkpt>
      <trkpt lat="44.74832" lon="5.37817">
        <ele>405.1</ele>
        <time>2022-10-28T07:49:09Z</time>
      </trkpt>
      <trkpt lat="44.74834" lon="5.37809">
        <ele>404.9</ele>
        <time>2022-10-28T07:49:10Z</time>
      </trkpt>
      <trkpt lat="44.74837" lon="5.37802">
        <ele>404.8</ele>
        <time>2022-10-28T07:49:11Z</time>
      </trkpt>
      <trkpt lat="44.74841" lon="5.37795">
        <ele>404.6</ele>
        <time>2022-10-28T07:49:12Z</time>
      </trkpt>
      <trkpt lat="44.74844" lon="5.37787">
        <ele>404.5</ele>
        <time>2022-10-28T07:49:13Z</time>
      </trkpt>
      <trkpt lat="44.74848" lon="5.3778">
        <ele>404.3</ele>
        <time>2022-10-28T07:49:14Z</time>
      </trkpt>
      <trkpt lat="44.74852" lon="5.37772">
        <ele>404.2</ele>
        <time>2022-10-28T07:49:15Z</time>
      </trkpt>
      <trkpt lat="44.74855" lon="5.37765">
        <ele>404.1</ele>
        <time>2022-10-28T07:49:16Z</time>
      </trkpt>
      <trkpt lat="44.74859" lon="5.37758">
        <ele>404.1</ele>
        <time>2022-10-28T07:49:17Z</time>
      </trkpt>
      <trkpt lat="44.74863" lon="5.3775">
        <ele>404</ele>
        <time>2022-10-28T07:49:18Z</time>
      </trkpt>
      <trkpt lat="44.74866" lon="5.37743">
        <ele>404</ele>
        <time>2022-10-28T07:49:19Z</time>
      </trkpt>
      <trkpt lat="44.7487" lon="5.37736">
        <ele>404</ele>
        <time>2022-10-28T07:49:20Z</time>
      </trkpt>
      <trkpt lat="44.74874" lon="5.37729">
        <ele>404</ele>
        <time>2022-10-28T07:49:21Z</time>
      </trkpt>
      <trkpt lat="44.74877" lon="5.37722">
        <ele>404</ele>
        <time>2022-10-28T07:49:22Z</time>
      </trkpt>
      <trkpt lat="44.7488" lon="5.37715">
        <ele>404</ele>
        <time>2022-10-28T07:49:23Z</time>
      </trkpt>
      <trkpt lat="44.74884" lon="5.37709">
        <ele>404</ele>
        <time>2022-10-28T07:49:24Z</time>
      </trkpt>
      <trkpt lat="44.74887" lon="5.37703">
        <ele>404</ele>
        <time>2022-10-28T07:49:25Z</time>
      </trkpt>
      <trkpt lat="44.74889" lon="5.37696">
        <ele>404</ele>
        <time>2022-10-28T07:49:26Z</time>
      </trkpt>
      <trkpt lat="44.74891" lon="5.3769">
        <ele>404</ele>
        <time>2022-10-28T07:49:27Z</time>
      </trkpt>
      <trkpt lat="44.74893" lon="5.37683">
        <ele>404</ele>
        <time>2022-10-28T07:49:28Z</time>
      </trkpt>
      <trkpt lat="44.74894" lon="5.37676">
        <ele>404</ele>
        <time>2022-10-28T07:49:29Z</time>
      </trkpt>
      <trkpt lat="44.74896" lon="5.3767">
        <ele>404.1</ele>
        <time>2022-10-28T07:49:30Z</time>
      </trkpt>
      <trkpt lat="44.74898" lon="5.37663">
        <ele>404.1</ele>
        <time>2022-10-28T07:49:31Z</time>
      </trkpt>
      <trkpt lat="44.74899" lon="5.37656">
        <ele>404.2</ele>
        <time>2022-10-28T07:49:32Z</time>
      </trkpt>
      <trkpt lat="44.74899" lon="5.37649">
        <ele>404.1</ele>
        <time>2022-10-28T07:49:33Z</time>
      </trkpt>
      <trkpt lat="44.74897" lon="5.37643">
        <ele>404.1</ele>
        <time>2022-10-28T07:49:34Z</time>
      </trkpt>
      <trkpt lat="44.74893" lon="5.37638">
        <ele>404</ele>
        <time>2022-10-28T07:49:35Z</time>
      </trkpt>
      <trkpt lat="44.74889" lon="5.37634">
        <ele>404</ele>
        <time>2022-10-28T07:49:36Z</time>
      </trkpt>
      <trkpt lat="44.74884" lon="5.37631">
        <ele>403.9</ele>
        <time>2022-10-28T07:49:37Z</time>
      </trkpt>
      <trkpt lat="44.7488" lon="5.37627">
        <ele>403.9</ele>
        <time>2022-10-28T07:49:38Z</time>
      </trkpt>
      <trkpt lat="44.74875" lon="5.37624">
        <ele>403.8</ele>
        <time>2022-10-28T07:49:39Z</time>
      </trkpt>
      <trkpt lat="44.74871" lon="5.37621">
        <ele>403.7</ele>
        <time>2022-10-28T07:49:40Z</time>
      </trkpt>
      <trkpt lat="44.74868" lon="5.37616">
        <ele>403.7</ele>
        <time>2022-10-28T07:49:41Z</time>
      </trkpt>
      <trkpt lat="44.74864" lon="5.37612">
        <ele>403.6</ele>
        <time>2022-10-28T07:49:42Z</time>
      </trkpt>
      <trkpt lat="44.7486" lon="5.37609">
        <ele>403.6</ele>
        <time>2022-10-28T07:49:43Z</time>
      </trkpt>
      <trkpt lat="44.74857" lon="5.37606">
        <ele>403.6</ele>
        <time>2022-10-28T07:49:44Z</time>
      </trkpt>
      <trkpt lat="44.74854" lon="5.37604">
        <ele>403.7</ele>
        <time>2022-10-28T07:49:45Z</time>
      </trkpt>
      <trkpt lat="44.7485" lon="5.37603">
        <ele>403.7</ele>
        <time>2022-10-28T07:49:46Z</time>
      </trkpt>
      <trkpt lat="44.74846" lon="5.37602">
        <ele>403.7</ele>
        <time>2022-10-28T07:49:47Z</time>
      </trkpt>
      <trkpt lat="44.74843" lon="5.37602">
        <ele>403.7</ele>
        <time>2022-10-28T07:49:48Z</time>
      </trkpt>
      <trkpt lat="44.7484" lon="5.37601">
        <ele>403.7</ele>
        <time>2022-10-28T07:49:49Z</time>
      </trkpt>
      <trkpt lat="44.74836" lon="5.37599">
        <ele>403.7</ele>
        <time>2022-10-28T07:49:50Z</time>
      </trkpt>
      <trkpt lat="44.74833" lon="5.37597">
        <ele>403.7</ele>
        <time>2022-10-28T07:49:51Z</time>
      </trkpt>
      <trkpt lat="44.74829" lon="5.37596">
        <ele>403.6</ele>
        <time>2022-10-28T07:49:52Z</time>
      </trkpt>
      <trkpt lat="44.74817" lon="5.37591">
        <ele>403.4</ele>
        <time>2022-10-28T07:49:54Z</time>
      </trkpt>
      <trkpt lat="44.74811" lon="5.37588">
        <ele>403.3</ele>
        <time>2022-10-28T07:49:55Z</time>
      </trkpt>
      <trkpt lat="44.74805" lon="5.37587">
        <ele>403.3</ele>
        <time>2022-10-28T07:49:56Z</time>
      </trkpt>
      <trkpt lat="44.748" lon="5.37585">
        <ele>403.2</ele>
        <time>2022-10-28T07:49:57Z</time>
      </trkpt>
      <trkpt lat="44.74794" lon="5.37583">
        <ele>403.1</ele>
        <time>2022-10-28T07:49:58Z</time>
      </trkpt>
      <trkpt lat="44.74789" lon="5.37581">
        <ele>403.1</ele>
        <time>2022-10-28T07:49:59Z</time>
      </trkpt>
      <trkpt lat="44.74783" lon="5.37581">
        <ele>403.1</ele>
        <time>2022-10-28T07:50:00Z</time>
      </trkpt>
      <trkpt lat="44.74778" lon="5.37583">
        <ele>403.1</ele>
        <time>2022-10-28T07:50:01Z</time>
      </trkpt>
      <trkpt lat="44.74774" lon="5.37585">
        <ele>403.1</ele>
        <time>2022-10-28T07:50:02Z</time>
      </trkpt>
      <trkpt lat="44.74769" lon="5.37586">
        <ele>403.2</ele>
        <time>2022-10-28T07:50:03Z</time>
      </trkpt>
      <trkpt lat="44.74764" lon="5.37587">
        <ele>403.2</ele>
        <time>2022-10-28T07:50:04Z</time>
      </trkpt>
      <trkpt lat="44.7476" lon="5.37589">
        <ele>403.2</ele>
        <time>2022-10-28T07:50:05Z</time>
      </trkpt>
      <trkpt lat="44.74756" lon="5.3759">
        <ele>403.3</ele>
        <time>2022-10-28T07:50:06Z</time>
      </trkpt>
      <trkpt lat="44.74752" lon="5.37592">
        <ele>403.3</ele>
        <time>2022-10-28T07:50:07Z</time>
      </trkpt>
      <trkpt lat="44.74749" lon="5.37594">
        <ele>403.4</ele>
        <time>2022-10-28T07:50:08Z</time>
      </trkpt>
      <trkpt lat="44.74746" lon="5.37595">
        <ele>403.4</ele>
        <time>2022-10-28T07:50:09Z</time>
      </trkpt>
      <trkpt lat="44.74741" lon="5.37597">
        <ele>403.5</ele>
        <time>2022-10-28T07:50:10Z</time>
      </trkpt>
      <trkpt lat="44.74738" lon="5.37599">
        <ele>403.6</ele>
        <time>2022-10-28T07:50:11Z</time>
      </trkpt>
      <trkpt lat="44.74735" lon="5.37601">
        <ele>403.6</ele>
        <time>2022-10-28T07:50:12Z</time>
      </trkpt>
      <trkpt lat="44.74732" lon="5.37604">
        <ele>403.7</ele>
        <time>2022-10-28T07:50:13Z</time>
      </trkpt>
      <trkpt lat="44.74729" lon="5.37606">
        <ele>403.7</ele>
        <time>2022-10-28T07:50:14Z</time>
      </trkpt>
      <trkpt lat="44.74725" lon="5.3761">
        <ele>403.8</ele>
        <time>2022-10-28T07:50:15Z</time>
      </trkpt>
      <trkpt lat="44.74721" lon="5.37616">
        <ele>403.9</ele>
        <time>2022-10-28T07:50:16Z</time>
      </trkpt>
      <trkpt lat="44.74719" lon="5.37622">
        <ele>404</ele>
        <time>2022-10-28T07:50:18Z</time>
      </trkpt>
      <trkpt lat="44.74716" lon="5.37629">
        <ele>404.1</ele>
        <time>2022-10-28T07:50:19Z</time>
      </trkpt>
      <trkpt lat="44.74714" lon="5.37636">
        <ele>404.1</ele>
        <time>2022-10-28T07:50:20Z</time>
      </trkpt>
      <trkpt lat="44.74713" lon="5.37642">
        <ele>404.2</ele>
        <time>2022-10-28T07:50:21Z</time>
      </trkpt>
      <trkpt lat="44.74711" lon="5.37649">
        <ele>404.3</ele>
        <time>2022-10-28T07:50:22Z</time>
      </trkpt>
      <trkpt lat="44.74711" lon="5.37655">
        <ele>404.3</ele>
        <time>2022-10-28T07:50:23Z</time>
      </trkpt>
      <trkpt lat="44.7471" lon="5.37662">
        <ele>404.4</ele>
        <time>2022-10-28T07:50:24Z</time>
      </trkpt>
      <trkpt lat="44.74709" lon="5.37669">
        <ele>404.4</ele>
        <time>2022-10-28T07:50:26Z</time>
      </trkpt>
      <trkpt lat="44.74708" lon="5.37676">
        <ele>404.5</ele>
        <time>2022-10-28T07:50:27Z</time>
      </trkpt>
      <trkpt lat="44.74707" lon="5.37683">
        <ele>404.6</ele>
        <time>2022-10-28T07:50:28Z</time>
      </trkpt>
      <trkpt lat="44.74706" lon="5.37689">
        <ele>404.7</ele>
        <time>2022-10-28T07:50:29Z</time>
      </trkpt>
      <trkpt lat="44.74706" lon="5.37695">
        <ele>404.8</ele>
        <time>2022-10-28T07:50:30Z</time>
      </trkpt>
      <trkpt lat="44.74705" lon="5.37701">
        <ele>404.9</ele>
        <time>2022-10-28T07:50:31Z</time>
      </trkpt>
      <trkpt lat="44.74704" lon="5.37708">
        <ele>405</ele>
        <time>2022-10-28T07:50:32Z</time>
      </trkpt>
      <trkpt lat="44.74703" lon="5.37714">
        <ele>405.2</ele>
        <time>2022-10-28T07:50:34Z</time>
      </trkpt>
      <trkpt lat="44.74701" lon="5.37721">
        <ele>405.3</ele>
        <time>2022-10-28T07:50:35Z</time>
      </trkpt>
      <trkpt lat="44.747" lon="5.37727">
        <ele>405.5</ele>
        <time>2022-10-28T07:50:36Z</time>
      </trkpt>
      <trkpt lat="44.74699" lon="5.37733">
        <ele>405.6</ele>
        <time>2022-10-28T07:50:37Z</time>
      </trkpt>
      <trkpt lat="44.74698" lon="5.37737">
        <ele>405.7</ele>
        <time>2022-10-28T07:50:38Z</time>
      </trkpt>
      <trkpt lat="44.74697" lon="5.37742">
        <ele>405.9</ele>
        <time>2022-10-28T07:50:39Z</time>
      </trkpt>
      <trkpt lat="44.74696" lon="5.37744">
        <ele>405.9</ele>
        <time>2022-10-28T07:50:40Z</time>
      </trkpt>
      <trkpt lat="44.74695" lon="5.37748">
        <ele>406.1</ele>
        <time>2022-10-28T07:50:41Z</time>
      </trkpt>
      <trkpt lat="44.74694" lon="5.37753">
        <ele>406.2</ele>
        <time>2022-10-28T07:50:43Z</time>
      </trkpt>
      <trkpt lat="44.74694" lon="5.37757">
        <ele>406.3</ele>
        <time>2022-10-28T07:50:44Z</time>
      </trkpt>
      <trkpt lat="44.74693" lon="5.37762">
        <ele>406.4</ele>
        <time>2022-10-28T07:50:45Z</time>
      </trkpt>
      <trkpt lat="44.74692" lon="5.37766">
        <ele>406.6</ele>
        <time>2022-10-28T07:50:46Z</time>
      </trkpt>
      <trkpt lat="44.74692" lon="5.37771">
        <ele>406.6</ele>
        <time>2022-10-28T07:50:47Z</time>
      </trkpt>
      <trkpt lat="44.74691" lon="5.37776">
        <ele>406.7</ele>
        <time>2022-10-28T07:50:49Z</time>
      </trkpt>
      <trkpt lat="44.7469" lon="5.37781">
        <ele>406.7</ele>
        <time>2022-10-28T07:50:50Z</time>
      </trkpt>
      <trkpt lat="44.74689" lon="5.37787">
        <ele>406.7</ele>
        <time>2022-10-28T07:50:51Z</time>
      </trkpt>
      <trkpt lat="44.74689" lon="5.37792">
        <ele>406.8</ele>
        <time>2022-10-28T07:50:52Z</time>
      </trkpt>
      <trkpt lat="44.74688" lon="5.37798">
        <ele>406.8</ele>
        <time>2022-10-28T07:50:54Z</time>
      </trkpt>
      <trkpt lat="44.74688" lon="5.37807">
        <ele>406.9</ele>
        <time>2022-10-28T07:50:55Z</time>
      </trkpt>
      <trkpt lat="44.74687" lon="5.37813">
        <ele>406.9</ele>
        <time>2022-10-28T07:50:57Z</time>
      </trkpt>
      <trkpt lat="44.74687" lon="5.3782">
        <ele>406.9</ele>
        <time>2022-10-28T07:50:58Z</time>
      </trkpt>
      <trkpt lat="44.74687" lon="5.37826">
        <ele>407</ele>
        <time>2022-10-28T07:50:59Z</time>
      </trkpt>
      <trkpt lat="44.74687" lon="5.37835">
        <ele>407.1</ele>
        <time>2022-10-28T07:51:01Z</time>
      </trkpt>
      <trkpt lat="44.74686" lon="5.37841">
        <ele>407.1</ele>
        <time>2022-10-28T07:51:02Z</time>
      </trkpt>
      <trkpt lat="44.74686" lon="5.37847">
        <ele>407.2</ele>
        <time>2022-10-28T07:51:03Z</time>
      </trkpt>
      <trkpt lat="44.74685" lon="5.37852">
        <ele>407.2</ele>
        <time>2022-10-28T07:51:04Z</time>
      </trkpt>
      <trkpt lat="44.74685" lon="5.37856">
        <ele>407.3</ele>
        <time>2022-10-28T07:51:05Z</time>
      </trkpt>
      <trkpt lat="44.74684" lon="5.37864">
        <ele>407.4</ele>
        <time>2022-10-28T07:51:07Z</time>
      </trkpt>
      <trkpt lat="44.74684" lon="5.37871">
        <ele>407.5</ele>
        <time>2022-10-28T07:51:08Z</time>
      </trkpt>
      <trkpt lat="44.74683" lon="5.37877">
        <ele>407.6</ele>
        <time>2022-10-28T07:51:09Z</time>
      </trkpt>
      <trkpt lat="44.74682" lon="5.37883">
        <ele>407.6</ele>
        <time>2022-10-28T07:51:10Z</time>
      </trkpt>
      <trkpt lat="44.74682" lon="5.3789">
        <ele>407.7</ele>
        <time>2022-10-28T07:51:11Z</time>
      </trkpt>
      <trkpt lat="44.74682" lon="5.37895">
        <ele>407.8</ele>
        <time>2022-10-28T07:51:12Z</time>
      </trkpt>
      <trkpt lat="44.7468" lon="5.37902">
        <ele>407.9</ele>
        <time>2022-10-28T07:51:14Z</time>
      </trkpt>
      <trkpt lat="44.74679" lon="5.37909">
        <ele>408</ele>
        <time>2022-10-28T07:51:15Z</time>
      </trkpt>
      <trkpt lat="44.74679" lon="5.37915">
        <ele>408.1</ele>
        <time>2022-10-28T07:51:16Z</time>
      </trkpt>
      <trkpt lat="44.74678" lon="5.3792">
        <ele>408.2</ele>
        <time>2022-10-28T07:51:17Z</time>
      </trkpt>
      <trkpt lat="44.74676" lon="5.37925">
        <ele>408.3</ele>
        <time>2022-10-28T07:51:18Z</time>
      </trkpt>
      <trkpt lat="44.74676" lon="5.3793">
        <ele>408.3</ele>
        <time>2022-10-28T07:51:19Z</time>
      </trkpt>
      <trkpt lat="44.74674" lon="5.37935">
        <ele>408.4</ele>
        <time>2022-10-28T07:51:20Z</time>
      </trkpt>
      <trkpt lat="44.74673" lon="5.3794">
        <ele>408.5</ele>
        <time>2022-10-28T07:51:21Z</time>
      </trkpt>
      <trkpt lat="44.74673" lon="5.37945">
        <ele>408.6</ele>
        <time>2022-10-28T07:51:22Z</time>
      </trkpt>
      <trkpt lat="44.74672" lon="5.3795">
        <ele>408.6</ele>
        <time>2022-10-28T07:51:23Z</time>
      </trkpt>
      <trkpt lat="44.7467" lon="5.37956">
        <ele>408.7</ele>
        <time>2022-10-28T07:51:24Z</time>
      </trkpt>
      <trkpt lat="44.74669" lon="5.3796">
        <ele>408.8</ele>
        <time>2022-10-28T07:51:25Z</time>
      </trkpt>
      <trkpt lat="44.74668" lon="5.37968">
        <ele>408.9</ele>
        <time>2022-10-28T07:51:27Z</time>
      </trkpt>
      <trkpt lat="44.74666" lon="5.37976">
        <ele>409</ele>
        <time>2022-10-28T07:51:28Z</time>
      </trkpt>
      <trkpt lat="44.74664" lon="5.37982">
        <ele>409.1</ele>
        <time>2022-10-28T07:51:30Z</time>
      </trkpt>
      <trkpt lat="44.74661" lon="5.37989">
        <ele>409.3</ele>
        <time>2022-10-28T07:51:31Z</time>
      </trkpt>
      <trkpt lat="44.74659" lon="5.37994">
        <ele>409.4</ele>
        <time>2022-10-28T07:51:32Z</time>
      </trkpt>
      <trkpt lat="44.74657" lon="5.37998">
        <ele>409.5</ele>
        <time>2022-10-28T07:51:34Z</time>
      </trkpt>
      <trkpt lat="44.74654" lon="5.38003">
        <ele>409.6</ele>
        <time>2022-10-28T07:51:35Z</time>
      </trkpt>
      <trkpt lat="44.7465" lon="5.38007">
        <ele>409.7</ele>
        <time>2022-10-28T07:51:36Z</time>
      </trkpt>
      <trkpt lat="44.74648" lon="5.38011">
        <ele>409.8</ele>
        <time>2022-10-28T07:51:37Z</time>
      </trkpt>
      <trkpt lat="44.74645" lon="5.38014">
        <ele>409.8</ele>
        <time>2022-10-28T07:51:38Z</time>
      </trkpt>
      <trkpt lat="44.74642" lon="5.38018">
        <ele>409.9</ele>
        <time>2022-10-28T07:51:39Z</time>
      </trkpt>
      <trkpt lat="44.7464" lon="5.3802">
        <ele>410</ele>
        <time>2022-10-28T07:51:40Z</time>
      </trkpt>
      <trkpt lat="44.74637" lon="5.38023">
        <ele>410.1</ele>
        <time>2022-10-28T07:51:41Z</time>
      </trkpt>
      <trkpt lat="44.74634" lon="5.38027">
        <ele>410.1</ele>
        <time>2022-10-28T07:51:42Z</time>
      </trkpt>
      <trkpt lat="44.74632" lon="5.38029">
        <ele>410.2</ele>
        <time>2022-10-28T07:51:43Z</time>
      </trkpt>
      <trkpt lat="44.74629" lon="5.38033">
        <ele>410.3</ele>
        <time>2022-10-28T07:51:44Z</time>
      </trkpt>
      <trkpt lat="44.74626" lon="5.38037">
        <ele>410.3</ele>
        <time>2022-10-28T07:51:46Z</time>
      </trkpt>
      <trkpt lat="44.74623" lon="5.3804">
        <ele>410.4</ele>
        <time>2022-10-28T07:51:47Z</time>
      </trkpt>
      <trkpt lat="44.74619" lon="5.38044">
        <ele>410.5</ele>
        <time>2022-10-28T07:51:48Z</time>
      </trkpt>
      <trkpt lat="44.74615" lon="5.38048">
        <ele>410.6</ele>
        <time>2022-10-28T07:51:49Z</time>
      </trkpt>
      <trkpt lat="44.74612" lon="5.38051">
        <ele>410.6</ele>
        <time>2022-10-28T07:51:50Z</time>
      </trkpt>
      <trkpt lat="44.74609" lon="5.38055">
        <ele>410.7</ele>
        <time>2022-10-28T07:51:51Z</time>
      </trkpt>
      <trkpt lat="44.74604" lon="5.38058">
        <ele>410.9</ele>
        <time>2022-10-28T07:51:52Z</time>
      </trkpt>
      <trkpt lat="44.74601" lon="5.38061">
        <ele>411</ele>
        <time>2022-10-28T07:51:53Z</time>
      </trkpt>
      <trkpt lat="44.74598" lon="5.38064">
        <ele>411.1</ele>
        <time>2022-10-28T07:51:55Z</time>
      </trkpt>
      <trkpt lat="44.74595" lon="5.38067">
        <ele>411.2</ele>
        <time>2022-10-28T07:51:56Z</time>
      </trkpt>
      <trkpt lat="44.74591" lon="5.3807">
        <ele>411.3</ele>
        <time>2022-10-28T07:51:57Z</time>
      </trkpt>
      <trkpt lat="44.74586" lon="5.38074">
        <ele>411.4</ele>
        <time>2022-10-28T07:51:58Z</time>
      </trkpt>
      <trkpt lat="44.74583" lon="5.38076">
        <ele>411.5</ele>
        <time>2022-10-28T07:51:59Z</time>
      </trkpt>
      <trkpt lat="44.74579" lon="5.38079">
        <ele>411.6</ele>
        <time>2022-10-28T07:52:01Z</time>
      </trkpt>
      <trkpt lat="44.74575" lon="5.38081">
        <ele>411.7</ele>
        <time>2022-10-28T07:52:02Z</time>
      </trkpt>
      <trkpt lat="44.7457" lon="5.38083">
        <ele>411.8</ele>
        <time>2022-10-28T07:52:03Z</time>
      </trkpt>
      <trkpt lat="44.74566" lon="5.38085">
        <ele>411.9</ele>
        <time>2022-10-28T07:52:04Z</time>
      </trkpt>
      <trkpt lat="44.74562" lon="5.38086">
        <ele>412</ele>
        <time>2022-10-28T07:52:05Z</time>
      </trkpt>
      <trkpt lat="44.74559" lon="5.38087">
        <ele>412</ele>
        <time>2022-10-28T07:52:06Z</time>
      </trkpt>
      <trkpt lat="44.74555" lon="5.38088">
        <ele>412.1</ele>
        <time>2022-10-28T07:52:07Z</time>
      </trkpt>
      <trkpt lat="44.74551" lon="5.38089">
        <ele>412.2</ele>
        <time>2022-10-28T07:52:08Z</time>
      </trkpt>
      <trkpt lat="44.74547" lon="5.38089">
        <ele>412.3</ele>
        <time>2022-10-28T07:52:09Z</time>
      </trkpt>
      <trkpt lat="44.74544" lon="5.38089">
        <ele>412.4</ele>
        <time>2022-10-28T07:52:10Z</time>
      </trkpt>
      <trkpt lat="44.7454" lon="5.38089">
        <ele>412.5</ele>
        <time>2022-10-28T07:52:11Z</time>
      </trkpt>
      <trkpt lat="44.74536" lon="5.38089">
        <ele>412.6</ele>
        <time>2022-10-28T07:52:12Z</time>
      </trkpt>
      <trkpt lat="44.74533" lon="5.38089">
        <ele>412.7</ele>
        <time>2022-10-28T07:52:13Z</time>
      </trkpt>
      <trkpt lat="44.74529" lon="5.38089">
        <ele>412.8</ele>
        <time>2022-10-28T07:52:14Z</time>
      </trkpt>
      <trkpt lat="44.74525" lon="5.38089">
        <ele>412.8</ele>
        <time>2022-10-28T07:52:15Z</time>
      </trkpt>
      <trkpt lat="44.74519" lon="5.38089">
        <ele>412.9</ele>
        <time>2022-10-28T07:52:17Z</time>
      </trkpt>
      <trkpt lat="44.74515" lon="5.38089">
        <ele>413</ele>
        <time>2022-10-28T07:52:18Z</time>
      </trkpt>
      <trkpt lat="44.74511" lon="5.38089">
        <ele>413</ele>
        <time>2022-10-28T07:52:19Z</time>
      </trkpt>
      <trkpt lat="44.74506" lon="5.38089">
        <ele>413.1</ele>
        <time>2022-10-28T07:52:20Z</time>
      </trkpt>
      <trkpt lat="44.74501" lon="5.38089">
        <ele>413.1</ele>
        <time>2022-10-28T07:52:21Z</time>
      </trkpt>
      <trkpt lat="44.74498" lon="5.38089">
        <ele>413.2</ele>
        <time>2022-10-28T07:52:22Z</time>
      </trkpt>
      <trkpt lat="44.74492" lon="5.38089">
        <ele>413.2</ele>
        <time>2022-10-28T07:52:24Z</time>
      </trkpt>
      <trkpt lat="44.74486" lon="5.38089">
        <ele>413.2</ele>
        <time>2022-10-28T07:52:25Z</time>
      </trkpt>
      <trkpt lat="44.74482" lon="5.38089">
        <ele>413.3</ele>
        <time>2022-10-28T07:52:26Z</time>
      </trkpt>
      <trkpt lat="44.74479" lon="5.38088">
        <ele>413.3</ele>
        <time>2022-10-28T07:52:27Z</time>
      </trkpt>
      <trkpt lat="44.74474" lon="5.38088">
        <ele>413.3</ele>
        <time>2022-10-28T07:52:28Z</time>
      </trkpt>
      <trkpt lat="44.74469" lon="5.38088">
        <ele>413.3</ele>
        <time>2022-10-28T07:52:29Z</time>
      </trkpt>
      <trkpt lat="44.74465" lon="5.38089">
        <ele>413.4</ele>
        <time>2022-10-28T07:52:30Z</time>
      </trkpt>
      <trkpt lat="44.74461" lon="5.3809">
        <ele>413.4</ele>
        <time>2022-10-28T07:52:32Z</time>
      </trkpt>
      <trkpt lat="44.74456" lon="5.3809">
        <ele>413.5</ele>
        <time>2022-10-28T07:52:33Z</time>
      </trkpt>
      <trkpt lat="44.74451" lon="5.38091">
        <ele>413.5</ele>
        <time>2022-10-28T07:52:34Z</time>
      </trkpt>
      <trkpt lat="44.74446" lon="5.38092">
        <ele>413.6</ele>
        <time>2022-10-28T07:52:35Z</time>
      </trkpt>
      <trkpt lat="44.74442" lon="5.38093">
        <ele>413.6</ele>
        <time>2022-10-28T07:52:36Z</time>
      </trkpt>
      <trkpt lat="44.7444" lon="5.38094">
        <ele>413.6</ele>
        <time>2022-10-28T07:52:37Z</time>
      </trkpt>
      <trkpt lat="44.74435" lon="5.38096">
        <ele>413.7</ele>
        <time>2022-10-28T07:52:38Z</time>
      </trkpt>
      <trkpt lat="44.74431" lon="5.38098">
        <ele>413.7</ele>
        <time>2022-10-28T07:52:39Z</time>
      </trkpt>
      <trkpt lat="44.74427" lon="5.381">
        <ele>413.7</ele>
        <time>2022-10-28T07:52:41Z</time>
      </trkpt>
      <trkpt lat="44.74422" lon="5.38103">
        <ele>413.8</ele>
        <time>2022-10-28T07:52:42Z</time>
      </trkpt>
      <trkpt lat="44.74418" lon="5.38106">
        <ele>413.8</ele>
        <time>2022-10-28T07:52:43Z</time>
      </trkpt>
      <trkpt lat="44.74413" lon="5.38109">
        <ele>413.8</ele>
        <time>2022-10-28T07:52:44Z</time>
      </trkpt>
      <trkpt lat="44.7441" lon="5.38112">
        <ele>413.9</ele>
        <time>2022-10-28T07:52:45Z</time>
      </trkpt>
      <trkpt lat="44.74405" lon="5.38114">
        <ele>413.9</ele>
        <time>2022-10-28T07:52:46Z</time>
      </trkpt>
      <trkpt lat="44.74401" lon="5.38117">
        <ele>413.9</ele>
        <time>2022-10-28T07:52:48Z</time>
      </trkpt>
      <trkpt lat="44.74397" lon="5.38121">
        <ele>414</ele>
        <time>2022-10-28T07:52:49Z</time>
      </trkpt>
      <trkpt lat="44.74391" lon="5.38124">
        <ele>414</ele>
        <time>2022-10-28T07:52:50Z</time>
      </trkpt>
      <trkpt lat="44.74386" lon="5.38127">
        <ele>414</ele>
        <time>2022-10-28T07:52:52Z</time>
      </trkpt>
      <trkpt lat="44.74382" lon="5.38131">
        <ele>414.1</ele>
        <time>2022-10-28T07:52:53Z</time>
      </trkpt>
      <trkpt lat="44.74377" lon="5.38134">
        <ele>414.1</ele>
        <time>2022-10-28T07:52:54Z</time>
      </trkpt>
      <trkpt lat="44.74373" lon="5.38137">
        <ele>414.1</ele>
        <time>2022-10-28T07:52:55Z</time>
      </trkpt>
      <trkpt lat="44.74369" lon="5.38139">
        <ele>414.2</ele>
        <time>2022-10-28T07:52:56Z</time>
      </trkpt>
      <trkpt lat="44.74364" lon="5.38142">
        <ele>414.2</ele>
        <time>2022-10-28T07:52:58Z</time>
      </trkpt>
      <trkpt lat="44.74359" lon="5.38144">
        <ele>414.2</ele>
        <time>2022-10-28T07:52:59Z</time>
      </trkpt>
      <trkpt lat="44.74354" lon="5.38145">
        <ele>414.3</ele>
        <time>2022-10-28T07:53:00Z</time>
      </trkpt>
      <trkpt lat="44.74349" lon="5.38146">
        <ele>414.3</ele>
        <time>2022-10-28T07:53:01Z</time>
      </trkpt>
      <trkpt lat="44.74345" lon="5.38147">
        <ele>414.3</ele>
        <time>2022-10-28T07:53:02Z</time>
      </trkpt>
      <trkpt lat="44.7434" lon="5.38146">
        <ele>414.3</ele>
        <time>2022-10-28T07:53:03Z</time>
      </trkpt>
      <trkpt lat="44.74335" lon="5.38146">
        <ele>414.3</ele>
        <time>2022-10-28T07:53:05Z</time>
      </trkpt>
      <trkpt lat="44.7433" lon="5.38146">
        <ele>414.4</ele>
        <time>2022-10-28T07:53:06Z</time>
      </trkpt>
      <trkpt lat="44.74325" lon="5.38146">
        <ele>414.4</ele>
        <time>2022-10-28T07:53:07Z</time>
      </trkpt>
      <trkpt lat="44.7432" lon="5.38145">
        <ele>414.4</ele>
        <time>2022-10-28T07:53:08Z</time>
      </trkpt>
      <trkpt lat="44.7431" lon="5.38144">
        <ele>414.5</ele>
        <time>2022-10-28T07:53:10Z</time>
      </trkpt>
      <trkpt lat="44.74305" lon="5.38143">
        <ele>414.5</ele>
        <time>2022-10-28T07:53:12Z</time>
      </trkpt>
      <trkpt lat="44.743" lon="5.38143">
        <ele>414.6</ele>
        <time>2022-10-28T07:53:13Z</time>
      </trkpt>
      <trkpt lat="44.74295" lon="5.38142">
        <ele>414.6</ele>
        <time>2022-10-28T07:53:14Z</time>
      </trkpt>
      <trkpt lat="44.7429" lon="5.38142">
        <ele>414.7</ele>
        <time>2022-10-28T07:53:15Z</time>
      </trkpt>
      <trkpt lat="44.74286" lon="5.38141">
        <ele>414.7</ele>
        <time>2022-10-28T07:53:16Z</time>
      </trkpt>
      <trkpt lat="44.74281" lon="5.38142">
        <ele>414.7</ele>
        <time>2022-10-28T07:53:17Z</time>
      </trkpt>
      <trkpt lat="44.74277" lon="5.38143">
        <ele>414.8</ele>
        <time>2022-10-28T07:53:18Z</time>
      </trkpt>
      <trkpt lat="44.74272" lon="5.38144">
        <ele>414.8</ele>
        <time>2022-10-28T07:53:19Z</time>
      </trkpt>
      <trkpt lat="44.74265" lon="5.38144">
        <ele>414.9</ele>
        <time>2022-10-28T07:53:21Z</time>
      </trkpt>
      <trkpt lat="44.7426" lon="5.38144">
        <ele>415</ele>
        <time>2022-10-28T07:53:22Z</time>
      </trkpt>
      <trkpt lat="44.74257" lon="5.38145">
        <ele>415</ele>
        <time>2022-10-28T07:53:23Z</time>
      </trkpt>
      <trkpt lat="44.74253" lon="5.38145">
        <ele>415</ele>
        <time>2022-10-28T07:53:24Z</time>
      </trkpt>
      <trkpt lat="44.74248" lon="5.38145">
        <ele>415.1</ele>
        <time>2022-10-28T07:53:25Z</time>
      </trkpt>
      <trkpt lat="44.74244" lon="5.38146">
        <ele>415.1</ele>
        <time>2022-10-28T07:53:26Z</time>
      </trkpt>
      <trkpt lat="44.7424" lon="5.38147">
        <ele>415.1</ele>
        <time>2022-10-28T07:53:27Z</time>
      </trkpt>
      <trkpt lat="44.74237" lon="5.38147">
        <ele>415.1</ele>
        <time>2022-10-28T07:53:28Z</time>
      </trkpt>
      <trkpt lat="44.74232" lon="5.38148">
        <ele>415.1</ele>
        <time>2022-10-28T07:53:29Z</time>
      </trkpt>
      <trkpt lat="44.74227" lon="5.3815">
        <ele>415.2</ele>
        <time>2022-10-28T07:53:30Z</time>
      </trkpt>
      <trkpt lat="44.74222" lon="5.38151">
        <ele>415.2</ele>
        <time>2022-10-28T07:53:31Z</time>
      </trkpt>
      <trkpt lat="44.74218" lon="5.38154">
        <ele>415.2</ele>
        <time>2022-10-28T07:53:33Z</time>
      </trkpt>
      <trkpt lat="44.74212" lon="5.38156">
        <ele>415.2</ele>
        <time>2022-10-28T07:53:34Z</time>
      </trkpt>
      <trkpt lat="44.74206" lon="5.38159">
        <ele>415.1</ele>
        <time>2022-10-28T07:53:35Z</time>
      </trkpt>
      <trkpt lat="44.74201" lon="5.38162">
        <ele>415</ele>
        <time>2022-10-28T07:53:36Z</time>
      </trkpt>
      <trkpt lat="44.74196" lon="5.38164">
        <ele>414.9</ele>
        <time>2022-10-28T07:53:37Z</time>
      </trkpt>
      <trkpt lat="44.74192" lon="5.38167">
        <ele>414.8</ele>
        <time>2022-10-28T07:53:38Z</time>
      </trkpt>
      <trkpt lat="44.74188" lon="5.3817">
        <ele>414.7</ele>
        <time>2022-10-28T07:53:39Z</time>
      </trkpt>
      <trkpt lat="44.74183" lon="5.38172">
        <ele>414.5</ele>
        <time>2022-10-28T07:53:40Z</time>
      </trkpt>
      <trkpt lat="44.74178" lon="5.38174">
        <ele>414.4</ele>
        <time>2022-10-28T07:53:41Z</time>
      </trkpt>
      <trkpt lat="44.74173" lon="5.38176">
        <ele>414.2</ele>
        <time>2022-10-28T07:53:42Z</time>
      </trkpt>
      <trkpt lat="44.74169" lon="5.38177">
        <ele>414.1</ele>
        <time>2022-10-28T07:53:43Z</time>
      </trkpt>
      <trkpt lat="44.74163" lon="5.38179">
        <ele>413.9</ele>
        <time>2022-10-28T07:53:44Z</time>
      </trkpt>
      <trkpt lat="44.74158" lon="5.38181">
        <ele>413.8</ele>
        <time>2022-10-28T07:53:45Z</time>
      </trkpt>
      <trkpt lat="44.74153" lon="5.38183">
        <ele>413.6</ele>
        <time>2022-10-28T07:53:46Z</time>
      </trkpt>
      <trkpt lat="44.74147" lon="5.38185">
        <ele>413.4</ele>
        <time>2022-10-28T07:53:47Z</time>
      </trkpt>
      <trkpt lat="44.74141" lon="5.38186">
        <ele>413.3</ele>
        <time>2022-10-28T07:53:48Z</time>
      </trkpt>
      <trkpt lat="44.74135" lon="5.38187">
        <ele>413.1</ele>
        <time>2022-10-28T07:53:49Z</time>
      </trkpt>
      <trkpt lat="44.74129" lon="5.38188">
        <ele>413</ele>
        <time>2022-10-28T07:53:50Z</time>
      </trkpt>
      <trkpt lat="44.74123" lon="5.38188">
        <ele>412.8</ele>
        <time>2022-10-28T07:53:51Z</time>
      </trkpt>
      <trkpt lat="44.74117" lon="5.38187">
        <ele>412.7</ele>
        <time>2022-10-28T07:53:52Z</time>
      </trkpt>
      <trkpt lat="44.74111" lon="5.38186">
        <ele>412.6</ele>
        <time>2022-10-28T07:53:53Z</time>
      </trkpt>
      <trkpt lat="44.74105" lon="5.38184">
        <ele>412.5</ele>
        <time>2022-10-28T07:53:54Z</time>
      </trkpt>
      <trkpt lat="44.741" lon="5.38181">
        <ele>412.5</ele>
        <time>2022-10-28T07:53:55Z</time>
      </trkpt>
      <trkpt lat="44.74094" lon="5.38178">
        <ele>412.5</ele>
        <time>2022-10-28T07:53:56Z</time>
      </trkpt>
      <trkpt lat="44.74088" lon="5.38176">
        <ele>412.5</ele>
        <time>2022-10-28T07:53:57Z</time>
      </trkpt>
      <trkpt lat="44.74083" lon="5.38175">
        <ele>412.7</ele>
        <time>2022-10-28T07:53:58Z</time>
      </trkpt>
      <trkpt lat="44.74078" lon="5.38173">
        <ele>412.8</ele>
        <time>2022-10-28T07:53:59Z</time>
      </trkpt>
      <trkpt lat="44.74073" lon="5.38172">
        <ele>412.9</ele>
        <time>2022-10-28T07:54:00Z</time>
      </trkpt>
      <trkpt lat="44.74068" lon="5.38171">
        <ele>413.1</ele>
        <time>2022-10-28T07:54:01Z</time>
      </trkpt>
      <trkpt lat="44.74063" lon="5.3817">
        <ele>413.2</ele>
        <time>2022-10-28T07:54:02Z</time>
      </trkpt>
      <trkpt lat="44.74059" lon="5.38168">
        <ele>413.4</ele>
        <time>2022-10-28T07:54:03Z</time>
      </trkpt>
      <trkpt lat="44.74055" lon="5.38166">
        <ele>413.5</ele>
        <time>2022-10-28T07:54:04Z</time>
      </trkpt>
      <trkpt lat="44.74051" lon="5.38165">
        <ele>413.7</ele>
        <time>2022-10-28T07:54:05Z</time>
      </trkpt>
      <trkpt lat="44.74048" lon="5.38164">
        <ele>413.8</ele>
        <time>2022-10-28T07:54:06Z</time>
      </trkpt>
      <trkpt lat="44.74045" lon="5.38162">
        <ele>413.9</ele>
        <time>2022-10-28T07:54:07Z</time>
      </trkpt>
      <trkpt lat="44.74041" lon="5.3816">
        <ele>414.1</ele>
        <time>2022-10-28T07:54:08Z</time>
      </trkpt>
      <trkpt lat="44.74037" lon="5.38158">
        <ele>414.3</ele>
        <time>2022-10-28T07:54:09Z</time>
      </trkpt>
      <trkpt lat="44.74035" lon="5.38156">
        <ele>414.4</ele>
        <time>2022-10-28T07:54:10Z</time>
      </trkpt>
      <trkpt lat="44.74031" lon="5.38155">
        <ele>414.6</ele>
        <time>2022-10-28T07:54:11Z</time>
      </trkpt>
      <trkpt lat="44.74025" lon="5.38152">
        <ele>414.9</ele>
        <time>2022-10-28T07:54:13Z</time>
      </trkpt>
      <trkpt lat="44.74022" lon="5.38149">
        <ele>415</ele>
        <time>2022-10-28T07:54:14Z</time>
      </trkpt>
      <trkpt lat="44.74018" lon="5.38145">
        <ele>415.3</ele>
        <time>2022-10-28T07:54:15Z</time>
      </trkpt>
      <trkpt lat="44.74013" lon="5.38143">
        <ele>415.6</ele>
        <time>2022-10-28T07:54:17Z</time>
      </trkpt>
      <trkpt lat="44.74008" lon="5.3814">
        <ele>415.8</ele>
        <time>2022-10-28T07:54:18Z</time>
      </trkpt>
      <trkpt lat="44.74004" lon="5.38137">
        <ele>416</ele>
        <time>2022-10-28T07:54:19Z</time>
      </trkpt>
      <trkpt lat="44.74001" lon="5.38136">
        <ele>416.1</ele>
        <time>2022-10-28T07:54:20Z</time>
      </trkpt>
      <trkpt lat="44.73997" lon="5.38134">
        <ele>416.3</ele>
        <time>2022-10-28T07:54:21Z</time>
      </trkpt>
      <trkpt lat="44.73995" lon="5.38133">
        <ele>416.4</ele>
        <time>2022-10-28T07:54:22Z</time>
      </trkpt>
      <trkpt lat="44.73991" lon="5.3813">
        <ele>416.6</ele>
        <time>2022-10-28T07:54:23Z</time>
      </trkpt>
      <trkpt lat="44.73988" lon="5.38128">
        <ele>416.8</ele>
        <time>2022-10-28T07:54:24Z</time>
      </trkpt>
      <trkpt lat="44.73984" lon="5.38126">
        <ele>417</ele>
        <time>2022-10-28T07:54:26Z</time>
      </trkpt>
      <trkpt lat="44.73981" lon="5.38124">
        <ele>417.1</ele>
        <time>2022-10-28T07:54:27Z</time>
      </trkpt>
      <trkpt lat="44.73978" lon="5.38122">
        <ele>417.3</ele>
        <time>2022-10-28T07:54:28Z</time>
      </trkpt>
      <trkpt lat="44.73975" lon="5.3812">
        <ele>417.4</ele>
        <time>2022-10-28T07:54:29Z</time>
      </trkpt>
      <trkpt lat="44.73972" lon="5.38118">
        <ele>417.6</ele>
        <time>2022-10-28T07:54:30Z</time>
      </trkpt>
      <trkpt lat="44.7397" lon="5.38117">
        <ele>417.7</ele>
        <time>2022-10-28T07:54:31Z</time>
      </trkpt>
      <trkpt lat="44.73967" lon="5.38116">
        <ele>417.8</ele>
        <time>2022-10-28T07:54:33Z</time>
      </trkpt>
      <trkpt lat="44.73964" lon="5.38115">
        <ele>418</ele>
        <time>2022-10-28T07:54:34Z</time>
      </trkpt>
      <trkpt lat="44.73962" lon="5.38113">
        <ele>418.1</ele>
        <time>2022-10-28T07:54:35Z</time>
      </trkpt>
      <trkpt lat="44.73959" lon="5.38113">
        <ele>418.2</ele>
        <time>2022-10-28T07:54:36Z</time>
      </trkpt>
      <trkpt lat="44.73956" lon="5.38112">
        <ele>418.4</ele>
        <time>2022-10-28T07:54:37Z</time>
      </trkpt>
      <trkpt lat="44.73953" lon="5.38112">
        <ele>418.5</ele>
        <time>2022-10-28T07:54:38Z</time>
      </trkpt>
      <trkpt lat="44.7395" lon="5.38111">
        <ele>418.6</ele>
        <time>2022-10-28T07:54:39Z</time>
      </trkpt>
      <trkpt lat="44.73947" lon="5.3811">
        <ele>418.6</ele>
        <time>2022-10-28T07:54:40Z</time>
      </trkpt>
      <trkpt lat="44.73944" lon="5.38109">
        <ele>418.7</ele>
        <time>2022-10-28T07:54:42Z</time>
      </trkpt>
      <trkpt lat="44.73941" lon="5.38108">
        <ele>418.8</ele>
        <time>2022-10-28T07:54:43Z</time>
      </trkpt>
      <trkpt lat="44.73937" lon="5.38108">
        <ele>418.9</ele>
        <time>2022-10-28T07:54:44Z</time>
      </trkpt>
      <trkpt lat="44.73934" lon="5.38107">
        <ele>419</ele>
        <time>2022-10-28T07:54:45Z</time>
      </trkpt>
      <trkpt lat="44.7393" lon="5.38107">
        <ele>419</ele>
        <time>2022-10-28T07:54:46Z</time>
      </trkpt>
      <trkpt lat="44.73927" lon="5.38107">
        <ele>419.1</ele>
        <time>2022-10-28T07:54:47Z</time>
      </trkpt>
      <trkpt lat="44.73923" lon="5.38107">
        <ele>419.2</ele>
        <time>2022-10-28T07:54:49Z</time>
      </trkpt>
      <trkpt lat="44.73918" lon="5.38107">
        <ele>419.2</ele>
        <time>2022-10-28T07:54:50Z</time>
      </trkpt>
      <trkpt lat="44.73914" lon="5.38108">
        <ele>419.3</ele>
        <time>2022-10-28T07:54:51Z</time>
      </trkpt>
      <trkpt lat="44.7391" lon="5.38108">
        <ele>419.4</ele>
        <time>2022-10-28T07:54:52Z</time>
      </trkpt>
      <trkpt lat="44.73906" lon="5.38108">
        <ele>419.4</ele>
        <time>2022-10-28T07:54:53Z</time>
      </trkpt>
      <trkpt lat="44.73902" lon="5.38109">
        <ele>419.5</ele>
        <time>2022-10-28T07:54:54Z</time>
      </trkpt>
      <trkpt lat="44.73897" lon="5.38109">
        <ele>419.5</ele>
        <time>2022-10-28T07:54:56Z</time>
      </trkpt>
      <trkpt lat="44.73892" lon="5.3811">
        <ele>419.6</ele>
        <time>2022-10-28T07:54:57Z</time>
      </trkpt>
      <trkpt lat="44.73886" lon="5.38111">
        <ele>419.6</ele>
        <time>2022-10-28T07:54:58Z</time>
      </trkpt>
      <trkpt lat="44.73882" lon="5.38112">
        <ele>419.7</ele>
        <time>2022-10-28T07:54:59Z</time>
      </trkpt>
      <trkpt lat="44.73877" lon="5.38111">
        <ele>419.8</ele>
        <time>2022-10-28T07:55:01Z</time>
      </trkpt>
      <trkpt lat="44.73873" lon="5.38111">
        <ele>419.8</ele>
        <time>2022-10-28T07:55:02Z</time>
      </trkpt>
      <trkpt lat="44.73869" lon="5.38111">
        <ele>419.9</ele>
        <time>2022-10-28T07:55:03Z</time>
      </trkpt>
      <trkpt lat="44.73864" lon="5.38111">
        <ele>420</ele>
        <time>2022-10-28T07:55:04Z</time>
      </trkpt>
      <trkpt lat="44.7386" lon="5.38111">
        <ele>420.1</ele>
        <time>2022-10-28T07:55:05Z</time>
      </trkpt>
      <trkpt lat="44.73857" lon="5.3811">
        <ele>420.2</ele>
        <time>2022-10-28T07:55:07Z</time>
      </trkpt>
      <trkpt lat="44.73852" lon="5.38109">
        <ele>420.4</ele>
        <time>2022-10-28T07:55:08Z</time>
      </trkpt>
      <trkpt lat="44.73848" lon="5.38109">
        <ele>420.6</ele>
        <time>2022-10-28T07:55:09Z</time>
      </trkpt>
      <trkpt lat="44.73845" lon="5.38109">
        <ele>420.8</ele>
        <time>2022-10-28T07:55:10Z</time>
      </trkpt>
      <trkpt lat="44.73842" lon="5.38109">
        <ele>421</ele>
        <time>2022-10-28T07:55:11Z</time>
      </trkpt>
      <trkpt lat="44.7384" lon="5.38109">
        <ele>421.1</ele>
        <time>2022-10-28T07:55:12Z</time>
      </trkpt>
      <trkpt lat="44.73836" lon="5.38109">
        <ele>421.4</ele>
        <time>2022-10-28T07:55:14Z</time>
      </trkpt>
      <trkpt lat="44.73832" lon="5.3811">
        <ele>421.8</ele>
        <time>2022-10-28T07:55:15Z</time>
      </trkpt>
      <trkpt lat="44.73831" lon="5.3811">
        <ele>421.9</ele>
        <time>2022-10-28T07:55:16Z</time>
      </trkpt>
      <trkpt lat="44.73827" lon="5.38111">
        <ele>422.3</ele>
        <time>2022-10-28T07:55:18Z</time>
      </trkpt>
      <trkpt lat="44.73825" lon="5.38111">
        <ele>422.4</ele>
        <time>2022-10-28T07:55:19Z</time>
      </trkpt>
      <trkpt lat="44.73824" lon="5.38111">
        <ele>422.6</ele>
        <time>2022-10-28T07:55:20Z</time>
      </trkpt>
      <trkpt lat="44.73821" lon="5.38113">
        <ele>422.8</ele>
        <time>2022-10-28T07:55:21Z</time>
      </trkpt>
      <trkpt lat="44.73821" lon="5.38113">
        <ele>422.9</ele>
        <time>2022-10-28T07:55:22Z</time>
      </trkpt>
      <trkpt lat="44.73817" lon="5.38114">
        <ele>423.3</ele>
        <time>2022-10-28T07:55:24Z</time>
      </trkpt>
      <trkpt lat="44.73816" lon="5.38114">
        <ele>423.4</ele>
        <time>2022-10-28T07:55:25Z</time>
      </trkpt>
      <trkpt lat="44.73814" lon="5.38115">
        <ele>423.6</ele>
        <time>2022-10-28T07:55:26Z</time>
      </trkpt>
      <trkpt lat="44.73811" lon="5.38117">
        <ele>423.9</ele>
        <time>2022-10-28T07:55:28Z</time>
      </trkpt>
      <trkpt lat="44.73808" lon="5.38117">
        <ele>424.3</ele>
        <time>2022-10-28T07:55:29Z</time>
      </trkpt>
      <trkpt lat="44.73807" lon="5.38117">
        <ele>424.4</ele>
        <time>2022-10-28T07:55:30Z</time>
      </trkpt>
      <trkpt lat="44.73804" lon="5.38119">
        <ele>424.7</ele>
        <time>2022-10-28T07:55:31Z</time>
      </trkpt>
      <trkpt lat="44.73803" lon="5.38119">
        <ele>424.8</ele>
        <time>2022-10-28T07:55:32Z</time>
      </trkpt>
      <trkpt lat="44.73801" lon="5.3812">
        <ele>425.1</ele>
        <time>2022-10-28T07:55:34Z</time>
      </trkpt>
      <trkpt lat="44.73798" lon="5.38122">
        <ele>425.3</ele>
        <time>2022-10-28T07:55:35Z</time>
      </trkpt>
      <trkpt lat="44.73795" lon="5.38123">
        <ele>425.6</ele>
        <time>2022-10-28T07:55:36Z</time>
      </trkpt>
      <trkpt lat="44.73794" lon="5.38123">
        <ele>425.7</ele>
        <time>2022-10-28T07:55:37Z</time>
      </trkpt>
      <trkpt lat="44.73791" lon="5.38125">
        <ele>426</ele>
        <time>2022-10-28T07:55:38Z</time>
      </trkpt>
      <trkpt lat="44.7379" lon="5.38126">
        <ele>426.1</ele>
        <time>2022-10-28T07:55:39Z</time>
      </trkpt>
      <trkpt lat="44.73787" lon="5.38127">
        <ele>426.3</ele>
        <time>2022-10-28T07:55:40Z</time>
      </trkpt>
      <trkpt lat="44.73785" lon="5.38129">
        <ele>426.4</ele>
        <time>2022-10-28T07:55:42Z</time>
      </trkpt>
      <trkpt lat="44.73783" lon="5.3813">
        <ele>426.6</ele>
        <time>2022-10-28T07:55:43Z</time>
      </trkpt>
      <trkpt lat="44.73779" lon="5.38132">
        <ele>426.8</ele>
        <time>2022-10-28T07:55:44Z</time>
      </trkpt>
      <trkpt lat="44.73778" lon="5.38133">
        <ele>426.9</ele>
        <time>2022-10-28T07:55:45Z</time>
      </trkpt>
      <trkpt lat="44.73776" lon="5.38135">
        <ele>427</ele>
        <time>2022-10-28T07:55:46Z</time>
      </trkpt>
      <trkpt lat="44.73774" lon="5.38136">
        <ele>427.2</ele>
        <time>2022-10-28T07:55:48Z</time>
      </trkpt>
      <trkpt lat="44.73771" lon="5.38137">
        <ele>427.3</ele>
        <time>2022-10-28T07:55:49Z</time>
      </trkpt>
      <trkpt lat="44.73768" lon="5.3814">
        <ele>427.5</ele>
        <time>2022-10-28T07:55:50Z</time>
      </trkpt>
      <trkpt lat="44.73767" lon="5.38141">
        <ele>427.5</ele>
        <time>2022-10-28T07:55:51Z</time>
      </trkpt>
      <trkpt lat="44.73765" lon="5.38144">
        <ele>427.7</ele>
        <time>2022-10-28T07:55:52Z</time>
      </trkpt>
      <trkpt lat="44.73764" lon="5.38144">
        <ele>427.7</ele>
        <time>2022-10-28T07:55:53Z</time>
      </trkpt>
      <trkpt lat="44.73761" lon="5.38146">
        <ele>427.9</ele>
        <time>2022-10-28T07:55:55Z</time>
      </trkpt>
      <trkpt lat="44.73759" lon="5.38149">
        <ele>428</ele>
        <time>2022-10-28T07:55:56Z</time>
      </trkpt>
      <trkpt lat="44.73756" lon="5.38152">
        <ele>428.2</ele>
        <time>2022-10-28T07:55:57Z</time>
      </trkpt>
      <trkpt lat="44.73755" lon="5.38153">
        <ele>428.3</ele>
        <time>2022-10-28T07:55:58Z</time>
      </trkpt>
      <trkpt lat="44.73752" lon="5.38154">
        <ele>428.5</ele>
        <time>2022-10-28T07:55:59Z</time>
      </trkpt>
      <trkpt lat="44.73751" lon="5.38155">
        <ele>428.5</ele>
        <time>2022-10-28T07:56:00Z</time>
      </trkpt>
      <trkpt lat="44.73748" lon="5.38158">
        <ele>428.7</ele>
        <time>2022-10-28T07:56:02Z</time>
      </trkpt>
      <trkpt lat="44.73747" lon="5.38158">
        <ele>428.8</ele>
        <time>2022-10-28T07:56:03Z</time>
      </trkpt>
      <trkpt lat="44.73743" lon="5.38162">
        <ele>428.9</ele>
        <time>2022-10-28T07:56:04Z</time>
      </trkpt>
      <trkpt lat="44.73742" lon="5.38163">
        <ele>429</ele>
        <time>2022-10-28T07:56:05Z</time>
      </trkpt>
      <trkpt lat="44.73739" lon="5.38165">
        <ele>429.2</ele>
        <time>2022-10-28T07:56:06Z</time>
      </trkpt>
      <trkpt lat="44.73738" lon="5.38166">
        <ele>429.2</ele>
        <time>2022-10-28T07:56:07Z</time>
      </trkpt>
      <trkpt lat="44.73736" lon="5.38168">
        <ele>429.3</ele>
        <time>2022-10-28T07:56:08Z</time>
      </trkpt>
      <trkpt lat="44.73734" lon="5.38169">
        <ele>429.4</ele>
        <time>2022-10-28T07:56:10Z</time>
      </trkpt>
      <trkpt lat="44.73731" lon="5.38172">
        <ele>429.6</ele>
        <time>2022-10-28T07:56:11Z</time>
      </trkpt>
      <trkpt lat="44.73729" lon="5.38174">
        <ele>429.7</ele>
        <time>2022-10-28T07:56:12Z</time>
      </trkpt>
      <trkpt lat="44.73726" lon="5.38176">
        <ele>429.8</ele>
        <time>2022-10-28T07:56:13Z</time>
      </trkpt>
      <trkpt lat="44.73725" lon="5.38178">
        <ele>429.9</ele>
        <time>2022-10-28T07:56:15Z</time>
      </trkpt>
      <trkpt lat="44.73722" lon="5.38182">
        <ele>430.1</ele>
        <time>2022-10-28T07:56:16Z</time>
      </trkpt>
      <trkpt lat="44.73721" lon="5.38183">
        <ele>430.1</ele>
        <time>2022-10-28T07:56:17Z</time>
      </trkpt>
      <trkpt lat="44.73719" lon="5.38187">
        <ele>430.3</ele>
        <time>2022-10-28T07:56:18Z</time>
      </trkpt>
      <trkpt lat="44.73718" lon="5.38189">
        <ele>430.3</ele>
        <time>2022-10-28T07:56:19Z</time>
      </trkpt>
      <trkpt lat="44.73716" lon="5.38191">
        <ele>430.4</ele>
        <time>2022-10-28T07:56:20Z</time>
      </trkpt>
      <trkpt lat="44.73714" lon="5.38193">
        <ele>430.6</ele>
        <time>2022-10-28T07:56:22Z</time>
      </trkpt>
      <trkpt lat="44.7371" lon="5.38196">
        <ele>430.8</ele>
        <time>2022-10-28T07:56:23Z</time>
      </trkpt>
      <trkpt lat="44.73709" lon="5.38198">
        <ele>430.8</ele>
        <time>2022-10-28T07:56:24Z</time>
      </trkpt>
      <trkpt lat="44.73706" lon="5.382">
        <ele>431</ele>
        <time>2022-10-28T07:56:25Z</time>
      </trkpt>
      <trkpt lat="44.73705" lon="5.38201">
        <ele>431.1</ele>
        <time>2022-10-28T07:56:26Z</time>
      </trkpt>
      <trkpt lat="44.73703" lon="5.38202">
        <ele>431.1</ele>
        <time>2022-10-28T07:56:27Z</time>
      </trkpt>
      <trkpt lat="44.737" lon="5.38204">
        <ele>431.3</ele>
        <time>2022-10-28T07:56:29Z</time>
      </trkpt>
      <trkpt lat="44.73696" lon="5.38206">
        <ele>431.5</ele>
        <time>2022-10-28T07:56:30Z</time>
      </trkpt>
      <trkpt lat="44.73695" lon="5.38207">
        <ele>431.6</ele>
        <time>2022-10-28T07:56:31Z</time>
      </trkpt>
      <trkpt lat="44.73693" lon="5.38208">
        <ele>431.7</ele>
        <time>2022-10-28T07:56:32Z</time>
      </trkpt>
      <trkpt lat="44.73691" lon="5.38208">
        <ele>431.8</ele>
        <time>2022-10-28T07:56:34Z</time>
      </trkpt>
      <trkpt lat="44.73688" lon="5.38209">
        <ele>432</ele>
        <time>2022-10-28T07:56:35Z</time>
      </trkpt>
      <trkpt lat="44.73684" lon="5.3821">
        <ele>432.2</ele>
        <time>2022-10-28T07:56:36Z</time>
      </trkpt>
      <trkpt lat="44.73683" lon="5.3821">
        <ele>432.2</ele>
        <time>2022-10-28T07:56:37Z</time>
      </trkpt>
      <trkpt lat="44.73681" lon="5.38211">
        <ele>432.4</ele>
        <time>2022-10-28T07:56:38Z</time>
      </trkpt>
      <trkpt lat="44.73678" lon="5.38212">
        <ele>432.5</ele>
        <time>2022-10-28T07:56:40Z</time>
      </trkpt>
      <trkpt lat="44.73675" lon="5.38214">
        <ele>432.7</ele>
        <time>2022-10-28T07:56:41Z</time>
      </trkpt>
      <trkpt lat="44.73673" lon="5.38215">
        <ele>432.8</ele>
        <time>2022-10-28T07:56:42Z</time>
      </trkpt>
      <trkpt lat="44.7367" lon="5.38217">
        <ele>433</ele>
        <time>2022-10-28T07:56:43Z</time>
      </trkpt>
      <trkpt lat="44.73669" lon="5.38218">
        <ele>433.1</ele>
        <time>2022-10-28T07:56:44Z</time>
      </trkpt>
      <trkpt lat="44.73667" lon="5.38219">
        <ele>433.2</ele>
        <time>2022-10-28T07:56:45Z</time>
      </trkpt>
      <trkpt lat="44.73665" lon="5.38221">
        <ele>433.3</ele>
        <time>2022-10-28T07:56:47Z</time>
      </trkpt>
      <trkpt lat="44.73662" lon="5.38224">
        <ele>433.5</ele>
        <time>2022-10-28T07:56:48Z</time>
      </trkpt>
      <trkpt lat="44.73661" lon="5.38225">
        <ele>433.6</ele>
        <time>2022-10-28T07:56:49Z</time>
      </trkpt>
      <trkpt lat="44.73659" lon="5.38227">
        <ele>433.7</ele>
        <time>2022-10-28T07:56:50Z</time>
      </trkpt>
      <trkpt lat="44.73656" lon="5.38229">
        <ele>433.9</ele>
        <time>2022-10-28T07:56:51Z</time>
      </trkpt>
      <trkpt lat="44.73655" lon="5.3823">
        <ele>434</ele>
        <time>2022-10-28T07:56:52Z</time>
      </trkpt>
      <trkpt lat="44.73654" lon="5.38232">
        <ele>434.1</ele>
        <time>2022-10-28T07:56:53Z</time>
      </trkpt>
      <trkpt lat="44.73653" lon="5.38234">
        <ele>434.2</ele>
        <time>2022-10-28T07:56:54Z</time>
      </trkpt>
      <trkpt lat="44.7365" lon="5.38237">
        <ele>434.4</ele>
        <time>2022-10-28T07:56:55Z</time>
      </trkpt>
      <trkpt lat="44.73649" lon="5.38238">
        <ele>434.5</ele>
        <time>2022-10-28T07:56:56Z</time>
      </trkpt>
      <trkpt lat="44.73645" lon="5.38243">
        <ele>434.7</ele>
        <time>2022-10-28T07:56:58Z</time>
      </trkpt>
      <trkpt lat="44.73643" lon="5.38244">
        <ele>434.8</ele>
        <time>2022-10-28T07:56:59Z</time>
      </trkpt>
      <trkpt lat="44.73642" lon="5.38245">
        <ele>434.9</ele>
        <time>2022-10-28T07:57:00Z</time>
      </trkpt>
      <trkpt lat="44.73639" lon="5.38248">
        <ele>435</ele>
        <time>2022-10-28T07:57:01Z</time>
      </trkpt>
      <trkpt lat="44.73638" lon="5.38249">
        <ele>435.1</ele>
        <time>2022-10-28T07:57:02Z</time>
      </trkpt>
      <trkpt lat="44.73635" lon="5.38251">
        <ele>435.2</ele>
        <time>2022-10-28T07:57:03Z</time>
      </trkpt>
      <trkpt lat="44.73634" lon="5.38252">
        <ele>435.3</ele>
        <time>2022-10-28T07:57:04Z</time>
      </trkpt>
      <trkpt lat="44.73631" lon="5.38254">
        <ele>435.4</ele>
        <time>2022-10-28T07:57:05Z</time>
      </trkpt>
      <trkpt lat="44.73631" lon="5.38255">
        <ele>435.5</ele>
        <time>2022-10-28T07:57:06Z</time>
      </trkpt>
      <trkpt lat="44.73629" lon="5.38258">
        <ele>435.6</ele>
        <time>2022-10-28T07:57:07Z</time>
      </trkpt>
      <trkpt lat="44.73626" lon="5.38259">
        <ele>435.7</ele>
        <time>2022-10-28T07:57:09Z</time>
      </trkpt>
      <trkpt lat="44.73624" lon="5.38263">
        <ele>435.9</ele>
        <time>2022-10-28T07:57:10Z</time>
      </trkpt>
      <trkpt lat="44.73623" lon="5.38265">
        <ele>436</ele>
        <time>2022-10-28T07:57:11Z</time>
      </trkpt>
      <trkpt lat="44.7362" lon="5.38268">
        <ele>436.2</ele>
        <time>2022-10-28T07:57:12Z</time>
      </trkpt>
      <trkpt lat="44.73619" lon="5.3827">
        <ele>436.2</ele>
        <time>2022-10-28T07:57:13Z</time>
      </trkpt>
      <trkpt lat="44.73617" lon="5.38272">
        <ele>436.3</ele>
        <time>2022-10-28T07:57:14Z</time>
      </trkpt>
      <trkpt lat="44.73615" lon="5.38274">
        <ele>436.5</ele>
        <time>2022-10-28T07:57:16Z</time>
      </trkpt>
      <trkpt lat="44.73613" lon="5.38277">
        <ele>436.6</ele>
        <time>2022-10-28T07:57:17Z</time>
      </trkpt>
      <trkpt lat="44.73611" lon="5.3828">
        <ele>436.7</ele>
        <time>2022-10-28T07:57:18Z</time>
      </trkpt>
      <trkpt lat="44.73608" lon="5.38284">
        <ele>436.9</ele>
        <time>2022-10-28T07:57:19Z</time>
      </trkpt>
      <trkpt lat="44.73608" lon="5.38285">
        <ele>437</ele>
        <time>2022-10-28T07:57:20Z</time>
      </trkpt>
      <trkpt lat="44.73606" lon="5.38289">
        <ele>437.1</ele>
        <time>2022-10-28T07:57:21Z</time>
      </trkpt>
      <trkpt lat="44.73603" lon="5.38292">
        <ele>437.3</ele>
        <time>2022-10-28T07:57:23Z</time>
      </trkpt>
      <trkpt lat="44.73602" lon="5.38293">
        <ele>437.3</ele>
        <time>2022-10-28T07:57:24Z</time>
      </trkpt>
      <trkpt lat="44.73599" lon="5.38296">
        <ele>437.5</ele>
        <time>2022-10-28T07:57:25Z</time>
      </trkpt>
      <trkpt lat="44.73599" lon="5.38297">
        <ele>437.6</ele>
        <time>2022-10-28T07:57:26Z</time>
      </trkpt>
      <trkpt lat="44.73596" lon="5.383">
        <ele>437.7</ele>
        <time>2022-10-28T07:57:28Z</time>
      </trkpt>
      <trkpt lat="44.73594" lon="5.38301">
        <ele>437.8</ele>
        <time>2022-10-28T07:57:29Z</time>
      </trkpt>
      <trkpt lat="44.73592" lon="5.38303">
        <ele>437.9</ele>
        <time>2022-10-28T07:57:30Z</time>
      </trkpt>
      <trkpt lat="44.7359" lon="5.38307">
        <ele>438</ele>
        <time>2022-10-28T07:57:31Z</time>
      </trkpt>
      <trkpt lat="44.73589" lon="5.38308">
        <ele>438</ele>
        <time>2022-10-28T07:57:32Z</time>
      </trkpt>
      <trkpt lat="44.73589" lon="5.3831">
        <ele>438.1</ele>
        <time>2022-10-28T07:57:33Z</time>
      </trkpt>
      <trkpt lat="44.73589" lon="5.38312">
        <ele>438.1</ele>
        <time>2022-10-28T07:57:34Z</time>
      </trkpt>
      <trkpt lat="44.73589" lon="5.38313">
        <ele>438.2</ele>
        <time>2022-10-28T07:57:35Z</time>
      </trkpt>
      <trkpt lat="44.7359" lon="5.38315">
        <ele>438.2</ele>
        <time>2022-10-28T07:57:36Z</time>
      </trkpt>
      <trkpt lat="44.7359" lon="5.38314">
        <ele>438.2</ele>
        <time>2022-10-28T07:57:37Z</time>
      </trkpt>
      <trkpt lat="44.7359" lon="5.38314">
        <ele>438.2</ele>
        <time>2022-10-28T07:57:38Z</time>
      </trkpt>
      <trkpt lat="44.7359" lon="5.38313">
        <ele>438.2</ele>
        <time>2022-10-28T07:57:39Z</time>
      </trkpt>
      <trkpt lat="44.73589" lon="5.38312">
        <ele>438.2</ele>
        <time>2022-10-28T07:57:41Z</time>
      </trkpt>
      <trkpt lat="44.73589" lon="5.38312">
        <ele>438.2</ele>
        <time>2022-10-28T07:57:42Z</time>
      </trkpt>
      <trkpt lat="44.73589" lon="5.38311">
        <ele>438.2</ele>
        <time>2022-10-28T07:57:44Z</time>
      </trkpt>
      <trkpt lat="44.73589" lon="5.38311">
        <ele>438.2</ele>
        <time>2022-10-28T07:57:45Z</time>
      </trkpt>
      <trkpt lat="44.73589" lon="5.38311">
        <ele>438.2</ele>
        <time>2022-10-28T07:57:46Z</time>
      </trkpt>
      <trkpt lat="44.73586" lon="5.38315">
        <ele>438.3</ele>
        <time>2022-10-28T07:59:16Z</time>
      </trkpt>
      <trkpt lat="44.73585" lon="5.38316">
        <ele>438.3</ele>
        <time>2022-10-28T07:59:17Z</time>
      </trkpt>
      <trkpt lat="44.73583" lon="5.38316">
        <ele>438.3</ele>
        <time>2022-10-28T07:59:18Z</time>
      </trkpt>
      <trkpt lat="44.7358" lon="5.38316">
        <ele>438.3</ele>
        <time>2022-10-28T07:59:19Z</time>
      </trkpt>
      <trkpt lat="44.73579" lon="5.38316">
        <ele>438.3</ele>
        <time>2022-10-28T07:59:20Z</time>
      </trkpt>
      <trkpt lat="44.73577" lon="5.38316">
        <ele>438.3</ele>
        <time>2022-10-28T07:59:21Z</time>
      </trkpt>
      <trkpt lat="44.73575" lon="5.38315">
        <ele>438.3</ele>
        <time>2022-10-28T07:59:23Z</time>
      </trkpt>
      <trkpt lat="44.73571" lon="5.38316">
        <ele>438.2</ele>
        <time>2022-10-28T07:59:24Z</time>
      </trkpt>
      <trkpt lat="44.73566" lon="5.38316">
        <ele>438.1</ele>
        <time>2022-10-28T07:59:25Z</time>
      </trkpt>
      <trkpt lat="44.73562" lon="5.38316">
        <ele>438</ele>
        <time>2022-10-28T07:59:26Z</time>
      </trkpt>
      <trkpt lat="44.73557" lon="5.38317">
        <ele>437.9</ele>
        <time>2022-10-28T07:59:27Z</time>
      </trkpt>
      <trkpt lat="44.73552" lon="5.38317">
        <ele>437.8</ele>
        <time>2022-10-28T07:59:28Z</time>
      </trkpt>
      <trkpt lat="44.73549" lon="5.38318">
        <ele>437.7</ele>
        <time>2022-10-28T07:59:29Z</time>
      </trkpt>
      <trkpt lat="44.73545" lon="5.38319">
        <ele>437.6</ele>
        <time>2022-10-28T07:59:30Z</time>
      </trkpt>
      <trkpt lat="44.7354" lon="5.38321">
        <ele>437.5</ele>
        <time>2022-10-28T07:59:31Z</time>
      </trkpt>
      <trkpt lat="44.73536" lon="5.3833">
        <ele>437.3</ele>
        <time>2022-10-28T07:59:32Z</time>
      </trkpt>
      <trkpt lat="44.73532" lon="5.38336">
        <ele>437.2</ele>
        <time>2022-10-28T07:59:33Z</time>
      </trkpt>
      <trkpt lat="44.73528" lon="5.3834">
        <ele>437.1</ele>
        <time>2022-10-28T07:59:35Z</time>
      </trkpt>
      <trkpt lat="44.73524" lon="5.38343">
        <ele>437</ele>
        <time>2022-10-28T07:59:36Z</time>
      </trkpt>
      <trkpt lat="44.7352" lon="5.38348">
        <ele>436.9</ele>
        <time>2022-10-28T07:59:37Z</time>
      </trkpt>
      <trkpt lat="44.73515" lon="5.38351">
        <ele>436.8</ele>
        <time>2022-10-28T07:59:38Z</time>
      </trkpt>
      <trkpt lat="44.73508" lon="5.38358">
        <ele>436.7</ele>
        <time>2022-10-28T07:59:40Z</time>
      </trkpt>
      <trkpt lat="44.73499" lon="5.38365">
        <ele>436.4</ele>
        <time>2022-10-28T07:59:41Z</time>
      </trkpt>
      <trkpt lat="44.73494" lon="5.38368">
        <ele>436.3</ele>
        <time>2022-10-28T07:59:42Z</time>
      </trkpt>
      <trkpt lat="44.7349" lon="5.3837">
        <ele>436.2</ele>
        <time>2022-10-28T07:59:43Z</time>
      </trkpt>
      <trkpt lat="44.73485" lon="5.38373">
        <ele>436</ele>
        <time>2022-10-28T07:59:44Z</time>
      </trkpt>
      <trkpt lat="44.7348" lon="5.38377">
        <ele>435.8</ele>
        <time>2022-10-28T07:59:45Z</time>
      </trkpt>
      <trkpt lat="44.73475" lon="5.38381">
        <ele>435.6</ele>
        <time>2022-10-28T07:59:46Z</time>
      </trkpt>
      <trkpt lat="44.7347" lon="5.38385">
        <ele>435.4</ele>
        <time>2022-10-28T07:59:47Z</time>
      </trkpt>
      <trkpt lat="44.73465" lon="5.3839">
        <ele>435.1</ele>
        <time>2022-10-28T07:59:48Z</time>
      </trkpt>
      <trkpt lat="44.7346" lon="5.38395">
        <ele>434.9</ele>
        <time>2022-10-28T07:59:49Z</time>
      </trkpt>
      <trkpt lat="44.73455" lon="5.38399">
        <ele>434.7</ele>
        <time>2022-10-28T07:59:50Z</time>
      </trkpt>
      <trkpt lat="44.7345" lon="5.38405">
        <ele>434.4</ele>
        <time>2022-10-28T07:59:51Z</time>
      </trkpt>
      <trkpt lat="44.73446" lon="5.3841">
        <ele>434.2</ele>
        <time>2022-10-28T07:59:52Z</time>
      </trkpt>
      <trkpt lat="44.73441" lon="5.38416">
        <ele>433.9</ele>
        <time>2022-10-28T07:59:53Z</time>
      </trkpt>
      <trkpt lat="44.73436" lon="5.38422">
        <ele>433.6</ele>
        <time>2022-10-28T07:59:54Z</time>
      </trkpt>
      <trkpt lat="44.73431" lon="5.38429">
        <ele>433.2</ele>
        <time>2022-10-28T07:59:55Z</time>
      </trkpt>
      <trkpt lat="44.73426" lon="5.38435">
        <ele>432.9</ele>
        <time>2022-10-28T07:59:56Z</time>
      </trkpt>
      <trkpt lat="44.73421" lon="5.38441">
        <ele>432.5</ele>
        <time>2022-10-28T07:59:57Z</time>
      </trkpt>
      <trkpt lat="44.73415" lon="5.38447">
        <ele>432.2</ele>
        <time>2022-10-28T07:59:58Z</time>
      </trkpt>
      <trkpt lat="44.7341" lon="5.38453">
        <ele>431.9</ele>
        <time>2022-10-28T07:59:59Z</time>
      </trkpt>
      <trkpt lat="44.73404" lon="5.38458">
        <ele>431.6</ele>
        <time>2022-10-28T08:00:00Z</time>
      </trkpt>
      <trkpt lat="44.73398" lon="5.38464">
        <ele>431.3</ele>
        <time>2022-10-28T08:00:01Z</time>
      </trkpt>
      <trkpt lat="44.73393" lon="5.38469">
        <ele>431</ele>
        <time>2022-10-28T08:00:02Z</time>
      </trkpt>
      <trkpt lat="44.73387" lon="5.38473">
        <ele>430.7</ele>
        <time>2022-10-28T08:00:03Z</time>
      </trkpt>
      <trkpt lat="44.73381" lon="5.38478">
        <ele>430.4</ele>
        <time>2022-10-28T08:00:04Z</time>
      </trkpt>
      <trkpt lat="44.73375" lon="5.38481">
        <ele>430</ele>
        <time>2022-10-28T08:00:05Z</time>
      </trkpt>
      <trkpt lat="44.73369" lon="5.38485">
        <ele>429.7</ele>
        <time>2022-10-28T08:00:06Z</time>
      </trkpt>
      <trkpt lat="44.73363" lon="5.38488">
        <ele>429.3</ele>
        <time>2022-10-28T08:00:07Z</time>
      </trkpt>
      <trkpt lat="44.73356" lon="5.38492">
        <ele>428.7</ele>
        <time>2022-10-28T08:00:08Z</time>
      </trkpt>
      <trkpt lat="44.73348" lon="5.38496">
        <ele>428</ele>
        <time>2022-10-28T08:00:09Z</time>
      </trkpt>
      <trkpt lat="44.7334" lon="5.385">
        <ele>427.1</ele>
        <time>2022-10-28T08:00:10Z</time>
      </trkpt>
      <trkpt lat="44.73333" lon="5.38505">
        <ele>426.3</ele>
        <time>2022-10-28T08:00:11Z</time>
      </trkpt>
      <trkpt lat="44.73327" lon="5.38511">
        <ele>425.5</ele>
        <time>2022-10-28T08:00:12Z</time>
      </trkpt>
      <trkpt lat="44.73324" lon="5.38519">
        <ele>424.7</ele>
        <time>2022-10-28T08:00:13Z</time>
      </trkpt>
      <trkpt lat="44.73322" lon="5.38528">
        <ele>423.9</ele>
        <time>2022-10-28T08:00:14Z</time>
      </trkpt>
      <trkpt lat="44.73321" lon="5.38537">
        <ele>423</ele>
        <time>2022-10-28T08:00:15Z</time>
      </trkpt>
      <trkpt lat="44.73317" lon="5.38547">
        <ele>422.1</ele>
        <time>2022-10-28T08:00:16Z</time>
      </trkpt>
      <trkpt lat="44.73312" lon="5.38555">
        <ele>421.3</ele>
        <time>2022-10-28T08:00:17Z</time>
      </trkpt>
      <trkpt lat="44.73306" lon="5.38562">
        <ele>420.3</ele>
        <time>2022-10-28T08:00:18Z</time>
      </trkpt>
      <trkpt lat="44.73299" lon="5.38567">
        <ele>419.8</ele>
        <time>2022-10-28T08:00:19Z</time>
      </trkpt>
      <trkpt lat="44.73291" lon="5.3857">
        <ele>419.3</ele>
        <time>2022-10-28T08:00:20Z</time>
      </trkpt>
      <trkpt lat="44.73283" lon="5.38572">
        <ele>419</ele>
        <time>2022-10-28T08:00:21Z</time>
      </trkpt>
      <trkpt lat="44.73277" lon="5.38574">
        <ele>418.9</ele>
        <time>2022-10-28T08:00:22Z</time>
      </trkpt>
      <trkpt lat="44.73269" lon="5.38575">
        <ele>418.8</ele>
        <time>2022-10-28T08:00:23Z</time>
      </trkpt>
      <trkpt lat="44.73261" lon="5.38576">
        <ele>418.8</ele>
        <time>2022-10-28T08:00:24Z</time>
      </trkpt>
      <trkpt lat="44.73255" lon="5.38578">
        <ele>418.8</ele>
        <time>2022-10-28T08:00:25Z</time>
      </trkpt>
      <trkpt lat="44.73248" lon="5.38579">
        <ele>418.9</ele>
        <time>2022-10-28T08:00:26Z</time>
      </trkpt>
      <trkpt lat="44.73242" lon="5.38579">
        <ele>419</ele>
        <time>2022-10-28T08:00:27Z</time>
      </trkpt>
      <trkpt lat="44.73236" lon="5.38581">
        <ele>419.1</ele>
        <time>2022-10-28T08:00:28Z</time>
      </trkpt>
      <trkpt lat="44.7323" lon="5.38582">
        <ele>419.3</ele>
        <time>2022-10-28T08:00:29Z</time>
      </trkpt>
      <trkpt lat="44.73225" lon="5.38583">
        <ele>419.5</ele>
        <time>2022-10-28T08:00:30Z</time>
      </trkpt>
      <trkpt lat="44.73219" lon="5.38584">
        <ele>419.6</ele>
        <time>2022-10-28T08:00:31Z</time>
      </trkpt>
      <trkpt lat="44.73214" lon="5.38585">
        <ele>419.8</ele>
        <time>2022-10-28T08:00:32Z</time>
      </trkpt>
      <trkpt lat="44.73209" lon="5.38587">
        <ele>420</ele>
        <time>2022-10-28T08:00:33Z</time>
      </trkpt>
      <trkpt lat="44.73204" lon="5.38588">
        <ele>420.2</ele>
        <time>2022-10-28T08:00:34Z</time>
      </trkpt>
      <trkpt lat="44.732" lon="5.38589">
        <ele>420.3</ele>
        <time>2022-10-28T08:00:35Z</time>
      </trkpt>
      <trkpt lat="44.73195" lon="5.3859">
        <ele>420.6</ele>
        <time>2022-10-28T08:00:36Z</time>
      </trkpt>
      <trkpt lat="44.73191" lon="5.3859">
        <ele>420.8</ele>
        <time>2022-10-28T08:00:37Z</time>
      </trkpt>
      <trkpt lat="44.73188" lon="5.38589">
        <ele>421.1</ele>
        <time>2022-10-28T08:00:38Z</time>
      </trkpt>
      <trkpt lat="44.73184" lon="5.38588">
        <ele>421.4</ele>
        <time>2022-10-28T08:00:39Z</time>
      </trkpt>
      <trkpt lat="44.73182" lon="5.38587">
        <ele>421.6</ele>
        <time>2022-10-28T08:00:40Z</time>
      </trkpt>
      <trkpt lat="44.73178" lon="5.38587">
        <ele>421.9</ele>
        <time>2022-10-28T08:00:41Z</time>
      </trkpt>
      <trkpt lat="44.73175" lon="5.38587">
        <ele>422.2</ele>
        <time>2022-10-28T08:00:42Z</time>
      </trkpt>
      <trkpt lat="44.73171" lon="5.38586">
        <ele>422.5</ele>
        <time>2022-10-28T08:00:43Z</time>
      </trkpt>
      <trkpt lat="44.73171" lon="5.38586">
        <ele>422.6</ele>
        <time>2022-10-28T08:00:44Z</time>
      </trkpt>
      <trkpt lat="44.73167" lon="5.38584">
        <ele>423</ele>
        <time>2022-10-28T08:00:45Z</time>
      </trkpt>
      <trkpt lat="44.73167" lon="5.38583">
        <ele>423.1</ele>
        <time>2022-10-28T08:00:46Z</time>
      </trkpt>
      <trkpt lat="44.73164" lon="5.38581">
        <ele>423.4</ele>
        <time>2022-10-28T08:00:47Z</time>
      </trkpt>
      <trkpt lat="44.73163" lon="5.3858">
        <ele>423.6</ele>
        <time>2022-10-28T08:00:48Z</time>
      </trkpt>
      <trkpt lat="44.7316" lon="5.38579">
        <ele>423.9</ele>
        <time>2022-10-28T08:00:49Z</time>
      </trkpt>
      <trkpt lat="44.73159" lon="5.38578">
        <ele>424.1</ele>
        <time>2022-10-28T08:00:50Z</time>
      </trkpt>
      <trkpt lat="44.73156" lon="5.38576">
        <ele>424.4</ele>
        <time>2022-10-28T08:00:51Z</time>
      </trkpt>
      <trkpt lat="44.73153" lon="5.38574">
        <ele>424.8</ele>
        <time>2022-10-28T08:00:52Z</time>
      </trkpt>
      <trkpt lat="44.73152" lon="5.38574">
        <ele>424.9</ele>
        <time>2022-10-28T08:00:53Z</time>
      </trkpt>
      <trkpt lat="44.73149" lon="5.38572">
        <ele>425.2</ele>
        <time>2022-10-28T08:00:54Z</time>
      </trkpt>
      <trkpt lat="44.73146" lon="5.38571">
        <ele>425.5</ele>
        <time>2022-10-28T08:00:55Z</time>
      </trkpt>
      <trkpt lat="44.73145" lon="5.3857">
        <ele>425.7</ele>
        <time>2022-10-28T08:00:56Z</time>
      </trkpt>
      <trkpt lat="44.73142" lon="5.38569">
        <ele>426</ele>
        <time>2022-10-28T08:00:57Z</time>
      </trkpt>
      <trkpt lat="44.73141" lon="5.38569">
        <ele>426.1</ele>
        <time>2022-10-28T08:00:58Z</time>
      </trkpt>
      <trkpt lat="44.73138" lon="5.38568">
        <ele>426.4</ele>
        <time>2022-10-28T08:00:59Z</time>
      </trkpt>
      <trkpt lat="44.73137" lon="5.38568">
        <ele>426.5</ele>
        <time>2022-10-28T08:01:00Z</time>
      </trkpt>
      <trkpt lat="44.73133" lon="5.38567">
        <ele>426.8</ele>
        <time>2022-10-28T08:01:01Z</time>
      </trkpt>
      <trkpt lat="44.73132" lon="5.38567">
        <ele>426.9</ele>
        <time>2022-10-28T08:01:02Z</time>
      </trkpt>
      <trkpt lat="44.73128" lon="5.38567">
        <ele>427.2</ele>
        <time>2022-10-28T08:01:03Z</time>
      </trkpt>
      <trkpt lat="44.73127" lon="5.38567">
        <ele>427.3</ele>
        <time>2022-10-28T08:01:04Z</time>
      </trkpt>
      <trkpt lat="44.73123" lon="5.38567">
        <ele>427.6</ele>
        <time>2022-10-28T08:01:05Z</time>
      </trkpt>
      <trkpt lat="44.73122" lon="5.38567">
        <ele>427.6</ele>
        <time>2022-10-28T08:01:06Z</time>
      </trkpt>
      <trkpt lat="44.73118" lon="5.38567">
        <ele>427.8</ele>
        <time>2022-10-28T08:01:07Z</time>
      </trkpt>
      <trkpt lat="44.73117" lon="5.38567">
        <ele>427.9</ele>
        <time>2022-10-28T08:01:08Z</time>
      </trkpt>
      <trkpt lat="44.73113" lon="5.38568">
        <ele>428.1</ele>
        <time>2022-10-28T08:01:09Z</time>
      </trkpt>
      <trkpt lat="44.73112" lon="5.38568">
        <ele>428.1</ele>
        <time>2022-10-28T08:01:10Z</time>
      </trkpt>
      <trkpt lat="44.73108" lon="5.38568">
        <ele>428.3</ele>
        <time>2022-10-28T08:01:11Z</time>
      </trkpt>
      <trkpt lat="44.73106" lon="5.38568">
        <ele>428.3</ele>
        <time>2022-10-28T08:01:12Z</time>
      </trkpt>
      <trkpt lat="44.73103" lon="5.38568">
        <ele>428.4</ele>
        <time>2022-10-28T08:01:13Z</time>
      </trkpt>
      <trkpt lat="44.73099" lon="5.38568">
        <ele>428.4</ele>
        <time>2022-10-28T08:01:14Z</time>
      </trkpt>
      <trkpt lat="44.73097" lon="5.38568">
        <ele>428.5</ele>
        <time>2022-10-28T08:01:15Z</time>
      </trkpt>
      <trkpt lat="44.73094" lon="5.38568">
        <ele>428.5</ele>
        <time>2022-10-28T08:01:16Z</time>
      </trkpt>
      <trkpt lat="44.73091" lon="5.38567">
        <ele>428.4</ele>
        <time>2022-10-28T08:01:17Z</time>
      </trkpt>
      <trkpt lat="44.73087" lon="5.38566">
        <ele>428.4</ele>
        <time>2022-10-28T08:01:18Z</time>
      </trkpt>
      <trkpt lat="44.73084" lon="5.38565">
        <ele>428.3</ele>
        <time>2022-10-28T08:01:19Z</time>
      </trkpt>
      <trkpt lat="44.7308" lon="5.38564">
        <ele>428.2</ele>
        <time>2022-10-28T08:01:20Z</time>
      </trkpt>
      <trkpt lat="44.73076" lon="5.38563">
        <ele>428</ele>
        <time>2022-10-28T08:01:21Z</time>
      </trkpt>
      <trkpt lat="44.73072" lon="5.38562">
        <ele>427.8</ele>
        <time>2022-10-28T08:01:22Z</time>
      </trkpt>
      <trkpt lat="44.73067" lon="5.38564">
        <ele>427.5</ele>
        <time>2022-10-28T08:01:23Z</time>
      </trkpt>
      <trkpt lat="44.73062" lon="5.38568">
        <ele>427.2</ele>
        <time>2022-10-28T08:01:24Z</time>
      </trkpt>
      <trkpt lat="44.73058" lon="5.38571">
        <ele>426.9</ele>
        <time>2022-10-28T08:01:25Z</time>
      </trkpt>
      <trkpt lat="44.73053" lon="5.38574">
        <ele>426.5</ele>
        <time>2022-10-28T08:01:26Z</time>
      </trkpt>
      <trkpt lat="44.73047" lon="5.38577">
        <ele>426.1</ele>
        <time>2022-10-28T08:01:27Z</time>
      </trkpt>
      <trkpt lat="44.73041" lon="5.38581">
        <ele>425.6</ele>
        <time>2022-10-28T08:01:28Z</time>
      </trkpt>
      <trkpt lat="44.73035" lon="5.38584">
        <ele>425.1</ele>
        <time>2022-10-28T08:01:29Z</time>
      </trkpt>
      <trkpt lat="44.73028" lon="5.38588">
        <ele>424.6</ele>
        <time>2022-10-28T08:01:30Z</time>
      </trkpt>
      <trkpt lat="44.73022" lon="5.3859">
        <ele>424.2</ele>
        <time>2022-10-28T08:01:31Z</time>
      </trkpt>
      <trkpt lat="44.73015" lon="5.38593">
        <ele>423.9</ele>
        <time>2022-10-28T08:01:32Z</time>
      </trkpt>
      <trkpt lat="44.73009" lon="5.38596">
        <ele>423.6</ele>
        <time>2022-10-28T08:01:33Z</time>
      </trkpt>
      <trkpt lat="44.73002" lon="5.386">
        <ele>423.3</ele>
        <time>2022-10-28T08:01:34Z</time>
      </trkpt>
      <trkpt lat="44.72997" lon="5.38604">
        <ele>423.2</ele>
        <time>2022-10-28T08:01:35Z</time>
      </trkpt>
      <trkpt lat="44.72992" lon="5.38608">
        <ele>423.1</ele>
        <time>2022-10-28T08:01:36Z</time>
      </trkpt>
      <trkpt lat="44.72987" lon="5.38612">
        <ele>423</ele>
        <time>2022-10-28T08:01:37Z</time>
      </trkpt>
      <trkpt lat="44.72983" lon="5.38617">
        <ele>422.9</ele>
        <time>2022-10-28T08:01:38Z</time>
      </trkpt>
      <trkpt lat="44.72979" lon="5.38623">
        <ele>422.8</ele>
        <time>2022-10-28T08:01:39Z</time>
      </trkpt>
      <trkpt lat="44.72976" lon="5.38629">
        <ele>422.7</ele>
        <time>2022-10-28T08:01:40Z</time>
      </trkpt>
      <trkpt lat="44.72973" lon="5.38636">
        <ele>422.5</ele>
        <time>2022-10-28T08:01:41Z</time>
      </trkpt>
      <trkpt lat="44.7297" lon="5.38643">
        <ele>422.3</ele>
        <time>2022-10-28T08:01:42Z</time>
      </trkpt>
      <trkpt lat="44.72967" lon="5.38651">
        <ele>422.1</ele>
        <time>2022-10-28T08:01:43Z</time>
      </trkpt>
      <trkpt lat="44.72965" lon="5.38659">
        <ele>421.8</ele>
        <time>2022-10-28T08:01:44Z</time>
      </trkpt>
      <trkpt lat="44.72963" lon="5.38668">
        <ele>421.4</ele>
        <time>2022-10-28T08:01:45Z</time>
      </trkpt>
      <trkpt lat="44.7296" lon="5.38676">
        <ele>421.1</ele>
        <time>2022-10-28T08:01:46Z</time>
      </trkpt>
      <trkpt lat="44.72956" lon="5.38685">
        <ele>420.8</ele>
        <time>2022-10-28T08:01:47Z</time>
      </trkpt>
      <trkpt lat="44.72952" lon="5.38692">
        <ele>420.5</ele>
        <time>2022-10-28T08:01:48Z</time>
      </trkpt>
      <trkpt lat="44.72947" lon="5.38699">
        <ele>420.2</ele>
        <time>2022-10-28T08:01:49Z</time>
      </trkpt>
      <trkpt lat="44.72942" lon="5.38706">
        <ele>420</ele>
        <time>2022-10-28T08:01:50Z</time>
      </trkpt>
      <trkpt lat="44.72936" lon="5.38712">
        <ele>419.9</ele>
        <time>2022-10-28T08:01:51Z</time>
      </trkpt>
      <trkpt lat="44.72931" lon="5.38717">
        <ele>419.9</ele>
        <time>2022-10-28T08:01:52Z</time>
      </trkpt>
      <trkpt lat="44.72925" lon="5.3872">
        <ele>420</ele>
        <time>2022-10-28T08:01:53Z</time>
      </trkpt>
      <trkpt lat="44.7292" lon="5.38722">
        <ele>420.2</ele>
        <time>2022-10-28T08:01:54Z</time>
      </trkpt>
      <trkpt lat="44.72915" lon="5.38724">
        <ele>420.4</ele>
        <time>2022-10-28T08:01:55Z</time>
      </trkpt>
      <trkpt lat="44.7291" lon="5.38724">
        <ele>420.5</ele>
        <time>2022-10-28T08:01:56Z</time>
      </trkpt>
      <trkpt lat="44.72905" lon="5.38724">
        <ele>420.7</ele>
        <time>2022-10-28T08:01:57Z</time>
      </trkpt>
      <trkpt lat="44.72902" lon="5.38724">
        <ele>420.9</ele>
        <time>2022-10-28T08:01:58Z</time>
      </trkpt>
      <trkpt lat="44.72897" lon="5.38724">
        <ele>421.1</ele>
        <time>2022-10-28T08:01:59Z</time>
      </trkpt>
      <trkpt lat="44.72892" lon="5.38725">
        <ele>421.2</ele>
        <time>2022-10-28T08:02:00Z</time>
      </trkpt>
      <trkpt lat="44.72889" lon="5.38724">
        <ele>421.4</ele>
        <time>2022-10-28T08:02:01Z</time>
      </trkpt>
      <trkpt lat="44.72885" lon="5.38724">
        <ele>421.5</ele>
        <time>2022-10-28T08:02:02Z</time>
      </trkpt>
      <trkpt lat="44.7288" lon="5.38724">
        <ele>421.7</ele>
        <time>2022-10-28T08:02:03Z</time>
      </trkpt>
      <trkpt lat="44.72878" lon="5.38723">
        <ele>421.7</ele>
        <time>2022-10-28T08:02:04Z</time>
      </trkpt>
      <trkpt lat="44.72877" lon="5.38725">
        <ele>421.8</ele>
        <time>2022-10-28T08:02:05Z</time>
      </trkpt>
      <trkpt lat="44.72871" lon="5.38727">
        <ele>422</ele>
        <time>2022-10-28T08:02:06Z</time>
      </trkpt>
      <trkpt lat="44.72866" lon="5.38728">
        <ele>422.2</ele>
        <time>2022-10-28T08:02:07Z</time>
      </trkpt>
      <trkpt lat="44.72863" lon="5.38726">
        <ele>422.3</ele>
        <time>2022-10-28T08:02:08Z</time>
      </trkpt>
      <trkpt lat="44.72859" lon="5.38726">
        <ele>422.4</ele>
        <time>2022-10-28T08:02:09Z</time>
      </trkpt>
      <trkpt lat="44.72855" lon="5.38725">
        <ele>422.6</ele>
        <time>2022-10-28T08:02:10Z</time>
      </trkpt>
      <trkpt lat="44.72852" lon="5.38725">
        <ele>422.7</ele>
        <time>2022-10-28T08:02:11Z</time>
      </trkpt>
      <trkpt lat="44.72848" lon="5.38725">
        <ele>422.8</ele>
        <time>2022-10-28T08:02:12Z</time>
      </trkpt>
      <trkpt lat="44.72845" lon="5.38725">
        <ele>423</ele>
        <time>2022-10-28T08:02:13Z</time>
      </trkpt>
      <trkpt lat="44.72841" lon="5.38726">
        <ele>423.1</ele>
        <time>2022-10-28T08:02:14Z</time>
      </trkpt>
      <trkpt lat="44.72838" lon="5.38726">
        <ele>423.2</ele>
        <time>2022-10-28T08:02:15Z</time>
      </trkpt>
      <trkpt lat="44.72834" lon="5.38726">
        <ele>423.4</ele>
        <time>2022-10-28T08:02:16Z</time>
      </trkpt>
      <trkpt lat="44.7283" lon="5.38726">
        <ele>423.5</ele>
        <time>2022-10-28T08:02:17Z</time>
      </trkpt>
      <trkpt lat="44.72827" lon="5.38726">
        <ele>423.6</ele>
        <time>2022-10-28T08:02:18Z</time>
      </trkpt>
      <trkpt lat="44.72824" lon="5.38727">
        <ele>423.8</ele>
        <time>2022-10-28T08:02:19Z</time>
      </trkpt>
      <trkpt lat="44.72821" lon="5.38728">
        <ele>423.9</ele>
        <time>2022-10-28T08:02:20Z</time>
      </trkpt>
      <trkpt lat="44.72818" lon="5.38728">
        <ele>424</ele>
        <time>2022-10-28T08:02:21Z</time>
      </trkpt>
      <trkpt lat="44.72815" lon="5.38729">
        <ele>424.2</ele>
        <time>2022-10-28T08:02:22Z</time>
      </trkpt>
      <trkpt lat="44.72811" lon="5.38731">
        <ele>424.3</ele>
        <time>2022-10-28T08:02:23Z</time>
      </trkpt>
      <trkpt lat="44.72808" lon="5.38732">
        <ele>424.4</ele>
        <time>2022-10-28T08:02:24Z</time>
      </trkpt>
      <trkpt lat="44.72806" lon="5.38734">
        <ele>424.6</ele>
        <time>2022-10-28T08:02:25Z</time>
      </trkpt>
      <trkpt lat="44.72803" lon="5.38735">
        <ele>424.7</ele>
        <time>2022-10-28T08:02:26Z</time>
      </trkpt>
      <trkpt lat="44.728" lon="5.38737">
        <ele>424.9</ele>
        <time>2022-10-28T08:02:27Z</time>
      </trkpt>
      <trkpt lat="44.72797" lon="5.38739">
        <ele>425</ele>
        <time>2022-10-28T08:02:28Z</time>
      </trkpt>
      <trkpt lat="44.72794" lon="5.38741">
        <ele>425.2</ele>
        <time>2022-10-28T08:02:29Z</time>
      </trkpt>
      <trkpt lat="44.72792" lon="5.38742">
        <ele>425.3</ele>
        <time>2022-10-28T08:02:30Z</time>
      </trkpt>
      <trkpt lat="44.72789" lon="5.38743">
        <ele>425.5</ele>
        <time>2022-10-28T08:02:31Z</time>
      </trkpt>
      <trkpt lat="44.72785" lon="5.38745">
        <ele>425.7</ele>
        <time>2022-10-28T08:02:32Z</time>
      </trkpt>
      <trkpt lat="44.72783" lon="5.38747">
        <ele>425.9</ele>
        <time>2022-10-28T08:02:33Z</time>
      </trkpt>
      <trkpt lat="44.7278" lon="5.38748">
        <ele>426.1</ele>
        <time>2022-10-28T08:02:34Z</time>
      </trkpt>
      <trkpt lat="44.72777" lon="5.3875">
        <ele>426.3</ele>
        <time>2022-10-28T08:02:35Z</time>
      </trkpt>
      <trkpt lat="44.72774" lon="5.38751">
        <ele>426.4</ele>
        <time>2022-10-28T08:02:36Z</time>
      </trkpt>
      <trkpt lat="44.72771" lon="5.38752">
        <ele>426.6</ele>
        <time>2022-10-28T08:02:37Z</time>
      </trkpt>
      <trkpt lat="44.72768" lon="5.38753">
        <ele>426.9</ele>
        <time>2022-10-28T08:02:38Z</time>
      </trkpt>
      <trkpt lat="44.72765" lon="5.38755">
        <ele>427</ele>
        <time>2022-10-28T08:02:39Z</time>
      </trkpt>
      <trkpt lat="44.72762" lon="5.38757">
        <ele>427.3</ele>
        <time>2022-10-28T08:02:40Z</time>
      </trkpt>
      <trkpt lat="44.72761" lon="5.38757">
        <ele>427.4</ele>
        <time>2022-10-28T08:02:41Z</time>
      </trkpt>
      <trkpt lat="44.72758" lon="5.38759">
        <ele>427.5</ele>
        <time>2022-10-28T08:02:42Z</time>
      </trkpt>
      <trkpt lat="44.72755" lon="5.38761">
        <ele>427.8</ele>
        <time>2022-10-28T08:02:43Z</time>
      </trkpt>
      <trkpt lat="44.72751" lon="5.38764">
        <ele>428</ele>
        <time>2022-10-28T08:02:44Z</time>
      </trkpt>
      <trkpt lat="44.7275" lon="5.38764">
        <ele>428.1</ele>
        <time>2022-10-28T08:02:45Z</time>
      </trkpt>
      <trkpt lat="44.72747" lon="5.38766">
        <ele>428.3</ele>
        <time>2022-10-28T08:02:46Z</time>
      </trkpt>
      <trkpt lat="44.72746" lon="5.38767">
        <ele>428.4</ele>
        <time>2022-10-28T08:02:47Z</time>
      </trkpt>
      <trkpt lat="44.72742" lon="5.38768">
        <ele>428.6</ele>
        <time>2022-10-28T08:02:48Z</time>
      </trkpt>
      <trkpt lat="44.72741" lon="5.38769">
        <ele>428.7</ele>
        <time>2022-10-28T08:02:49Z</time>
      </trkpt>
      <trkpt lat="44.72738" lon="5.38771">
        <ele>429</ele>
        <time>2022-10-28T08:02:50Z</time>
      </trkpt>
      <trkpt lat="44.72736" lon="5.38771">
        <ele>429.1</ele>
        <time>2022-10-28T08:02:51Z</time>
      </trkpt>
      <trkpt lat="44.72733" lon="5.38773">
        <ele>429.3</ele>
        <time>2022-10-28T08:02:52Z</time>
      </trkpt>
      <trkpt lat="44.72732" lon="5.38773">
        <ele>429.3</ele>
        <time>2022-10-28T08:02:53Z</time>
      </trkpt>
      <trkpt lat="44.72729" lon="5.38775">
        <ele>429.6</ele>
        <time>2022-10-28T08:02:54Z</time>
      </trkpt>
      <trkpt lat="44.72727" lon="5.38776">
        <ele>429.6</ele>
        <time>2022-10-28T08:02:55Z</time>
      </trkpt>
      <trkpt lat="44.72724" lon="5.38778">
        <ele>429.9</ele>
        <time>2022-10-28T08:02:56Z</time>
      </trkpt>
      <trkpt lat="44.72723" lon="5.38778">
        <ele>429.9</ele>
        <time>2022-10-28T08:02:57Z</time>
      </trkpt>
      <trkpt lat="44.7272" lon="5.3878">
        <ele>430.2</ele>
        <time>2022-10-28T08:02:58Z</time>
      </trkpt>
      <trkpt lat="44.72718" lon="5.38781">
        <ele>430.2</ele>
        <time>2022-10-28T08:02:59Z</time>
      </trkpt>
      <trkpt lat="44.72715" lon="5.38782">
        <ele>430.5</ele>
        <time>2022-10-28T08:03:00Z</time>
      </trkpt>
      <trkpt lat="44.72713" lon="5.38783">
        <ele>430.5</ele>
        <time>2022-10-28T08:03:01Z</time>
      </trkpt>
      <trkpt lat="44.7271" lon="5.38785">
        <ele>430.7</ele>
        <time>2022-10-28T08:03:02Z</time>
      </trkpt>
      <trkpt lat="44.72709" lon="5.38785">
        <ele>430.8</ele>
        <time>2022-10-28T08:03:03Z</time>
      </trkpt>
      <trkpt lat="44.72706" lon="5.38786">
        <ele>431</ele>
        <time>2022-10-28T08:03:04Z</time>
      </trkpt>
      <trkpt lat="44.72705" lon="5.38787">
        <ele>431.1</ele>
        <time>2022-10-28T08:03:05Z</time>
      </trkpt>
      <trkpt lat="44.72702" lon="5.38788">
        <ele>431.3</ele>
        <time>2022-10-28T08:03:06Z</time>
      </trkpt>
      <trkpt lat="44.72701" lon="5.38789">
        <ele>431.3</ele>
        <time>2022-10-28T08:03:07Z</time>
      </trkpt>
      <trkpt lat="44.72698" lon="5.3879">
        <ele>431.5</ele>
        <time>2022-10-28T08:03:08Z</time>
      </trkpt>
      <trkpt lat="44.72693" lon="5.38792">
        <ele>431.8</ele>
        <time>2022-10-28T08:03:10Z</time>
      </trkpt>
      <trkpt lat="44.72691" lon="5.38793">
        <ele>431.9</ele>
        <time>2022-10-28T08:03:11Z</time>
      </trkpt>
      <trkpt lat="44.72688" lon="5.38795">
        <ele>432.1</ele>
        <time>2022-10-28T08:03:12Z</time>
      </trkpt>
      <trkpt lat="44.72687" lon="5.38795">
        <ele>432.2</ele>
        <time>2022-10-28T08:03:13Z</time>
      </trkpt>
      <trkpt lat="44.72684" lon="5.38796">
        <ele>432.3</ele>
        <time>2022-10-28T08:03:14Z</time>
      </trkpt>
      <trkpt lat="44.72682" lon="5.38798">
        <ele>432.5</ele>
        <time>2022-10-28T08:03:16Z</time>
      </trkpt>
      <trkpt lat="44.72678" lon="5.38799">
        <ele>432.7</ele>
        <time>2022-10-28T08:03:17Z</time>
      </trkpt>
      <trkpt lat="44.72677" lon="5.388">
        <ele>432.8</ele>
        <time>2022-10-28T08:03:18Z</time>
      </trkpt>
      <trkpt lat="44.72674" lon="5.38802">
        <ele>433</ele>
        <time>2022-10-28T08:03:19Z</time>
      </trkpt>
      <trkpt lat="44.72672" lon="5.38803">
        <ele>433.1</ele>
        <time>2022-10-28T08:03:20Z</time>
      </trkpt>
      <trkpt lat="44.72671" lon="5.38804">
        <ele>433.2</ele>
        <time>2022-10-28T08:03:21Z</time>
      </trkpt>
      <trkpt lat="44.72668" lon="5.38805">
        <ele>433.3</ele>
        <time>2022-10-28T08:03:23Z</time>
      </trkpt>
      <trkpt lat="44.72665" lon="5.38806">
        <ele>433.5</ele>
        <time>2022-10-28T08:03:24Z</time>
      </trkpt>
      <trkpt lat="44.72663" lon="5.38807">
        <ele>433.7</ele>
        <time>2022-10-28T08:03:25Z</time>
      </trkpt>
      <trkpt lat="44.72658" lon="5.38809">
        <ele>433.9</ele>
        <time>2022-10-28T08:03:27Z</time>
      </trkpt>
      <trkpt lat="44.72657" lon="5.3881">
        <ele>434</ele>
        <time>2022-10-28T08:03:28Z</time>
      </trkpt>
      <trkpt lat="44.72655" lon="5.38811">
        <ele>434.1</ele>
        <time>2022-10-28T08:03:29Z</time>
      </trkpt>
      <trkpt lat="44.72651" lon="5.38812">
        <ele>434.3</ele>
        <time>2022-10-28T08:03:30Z</time>
      </trkpt>
      <trkpt lat="44.7265" lon="5.38813">
        <ele>434.4</ele>
        <time>2022-10-28T08:03:31Z</time>
      </trkpt>
      <trkpt lat="44.72647" lon="5.38814">
        <ele>434.6</ele>
        <time>2022-10-28T08:03:32Z</time>
      </trkpt>
      <trkpt lat="44.72646" lon="5.38814">
        <ele>434.7</ele>
        <time>2022-10-28T08:03:33Z</time>
      </trkpt>
      <trkpt lat="44.72644" lon="5.38815">
        <ele>434.8</ele>
        <time>2022-10-28T08:03:34Z</time>
      </trkpt>
      <trkpt lat="44.72642" lon="5.38816">
        <ele>434.9</ele>
        <time>2022-10-28T08:03:36Z</time>
      </trkpt>
      <trkpt lat="44.72638" lon="5.38817">
        <ele>435.2</ele>
        <time>2022-10-28T08:03:37Z</time>
      </trkpt>
      <trkpt lat="44.72637" lon="5.38818">
        <ele>435.2</ele>
        <time>2022-10-28T08:03:38Z</time>
      </trkpt>
      <trkpt lat="44.72634" lon="5.38819">
        <ele>435.4</ele>
        <time>2022-10-28T08:03:39Z</time>
      </trkpt>
      <trkpt lat="44.72633" lon="5.38819">
        <ele>435.5</ele>
        <time>2022-10-28T08:03:40Z</time>
      </trkpt>
      <trkpt lat="44.7263" lon="5.3882">
        <ele>435.6</ele>
        <time>2022-10-28T08:03:41Z</time>
      </trkpt>
      <trkpt lat="44.72629" lon="5.3882">
        <ele>435.7</ele>
        <time>2022-10-28T08:03:42Z</time>
      </trkpt>
      <trkpt lat="44.72626" lon="5.3882">
        <ele>435.9</ele>
        <time>2022-10-28T08:03:43Z</time>
      </trkpt>
      <trkpt lat="44.72625" lon="5.3882">
        <ele>435.9</ele>
        <time>2022-10-28T08:03:44Z</time>
      </trkpt>
      <trkpt lat="44.72622" lon="5.38821">
        <ele>436.1</ele>
        <time>2022-10-28T08:03:45Z</time>
      </trkpt>
      <trkpt lat="44.72621" lon="5.38822">
        <ele>436.2</ele>
        <time>2022-10-28T08:03:46Z</time>
      </trkpt>
      <trkpt lat="44.72617" lon="5.38823">
        <ele>436.4</ele>
        <time>2022-10-28T08:03:48Z</time>
      </trkpt>
      <trkpt lat="44.72616" lon="5.38824">
        <ele>436.4</ele>
        <time>2022-10-28T08:03:49Z</time>
      </trkpt>
      <trkpt lat="44.72613" lon="5.38824">
        <ele>436.5</ele>
        <time>2022-10-28T08:03:50Z</time>
      </trkpt>
      <trkpt lat="44.72609" lon="5.38825">
        <ele>436.7</ele>
        <time>2022-10-28T08:03:51Z</time>
      </trkpt>
      <trkpt lat="44.72605" lon="5.38826">
        <ele>436.9</ele>
        <time>2022-10-28T08:03:53Z</time>
      </trkpt>
      <trkpt lat="44.72602" lon="5.38827">
        <ele>437</ele>
        <time>2022-10-28T08:03:54Z</time>
      </trkpt>
      <trkpt lat="44.72598" lon="5.38827">
        <ele>437.1</ele>
        <time>2022-10-28T08:03:55Z</time>
      </trkpt>
      <trkpt lat="44.72597" lon="5.38827">
        <ele>437.2</ele>
        <time>2022-10-28T08:03:56Z</time>
      </trkpt>
      <trkpt lat="44.72594" lon="5.38828">
        <ele>437.3</ele>
        <time>2022-10-28T08:03:57Z</time>
      </trkpt>
      <trkpt lat="44.7259" lon="5.38829">
        <ele>437.4</ele>
        <time>2022-10-28T08:03:58Z</time>
      </trkpt>
      <trkpt lat="44.72589" lon="5.38829">
        <ele>437.4</ele>
        <time>2022-10-28T08:03:59Z</time>
      </trkpt>
      <trkpt lat="44.72586" lon="5.3883">
        <ele>437.5</ele>
        <time>2022-10-28T08:04:00Z</time>
      </trkpt>
      <trkpt lat="44.72583" lon="5.38831">
        <ele>437.6</ele>
        <time>2022-10-28T08:04:01Z</time>
      </trkpt>
      <trkpt lat="44.72581" lon="5.38831">
        <ele>437.7</ele>
        <time>2022-10-28T08:04:02Z</time>
      </trkpt>
      <trkpt lat="44.72578" lon="5.38832">
        <ele>437.8</ele>
        <time>2022-10-28T08:04:03Z</time>
      </trkpt>
      <trkpt lat="44.72576" lon="5.38832">
        <ele>437.9</ele>
        <time>2022-10-28T08:04:04Z</time>
      </trkpt>
      <trkpt lat="44.72572" lon="5.38833">
        <ele>438</ele>
        <time>2022-10-28T08:04:06Z</time>
      </trkpt>
      <trkpt lat="44.72568" lon="5.38834">
        <ele>438.1</ele>
        <time>2022-10-28T08:04:07Z</time>
      </trkpt>
      <trkpt lat="44.72566" lon="5.38834">
        <ele>438.2</ele>
        <time>2022-10-28T08:04:08Z</time>
      </trkpt>
      <trkpt lat="44.72563" lon="5.38834">
        <ele>438.3</ele>
        <time>2022-10-28T08:04:09Z</time>
      </trkpt>
      <trkpt lat="44.72559" lon="5.38834">
        <ele>438.5</ele>
        <time>2022-10-28T08:04:10Z</time>
      </trkpt>
      <trkpt lat="44.72557" lon="5.38834">
        <ele>438.5</ele>
        <time>2022-10-28T08:04:11Z</time>
      </trkpt>
      <trkpt lat="44.72553" lon="5.38834">
        <ele>438.6</ele>
        <time>2022-10-28T08:04:12Z</time>
      </trkpt>
      <trkpt lat="44.72552" lon="5.38834">
        <ele>438.7</ele>
        <time>2022-10-28T08:04:13Z</time>
      </trkpt>
      <trkpt lat="44.72549" lon="5.38834">
        <ele>438.8</ele>
        <time>2022-10-28T08:04:14Z</time>
      </trkpt>
      <trkpt lat="44.72545" lon="5.38832">
        <ele>439</ele>
        <time>2022-10-28T08:04:16Z</time>
      </trkpt>
      <trkpt lat="44.72543" lon="5.38831">
        <ele>439.1</ele>
        <time>2022-10-28T08:04:17Z</time>
      </trkpt>
      <trkpt lat="44.72541" lon="5.3883">
        <ele>439.2</ele>
        <time>2022-10-28T08:04:18Z</time>
      </trkpt>
      <trkpt lat="44.72538" lon="5.38829">
        <ele>439.4</ele>
        <time>2022-10-28T08:04:19Z</time>
      </trkpt>
      <trkpt lat="44.72537" lon="5.38829">
        <ele>439.4</ele>
        <time>2022-10-28T08:04:20Z</time>
      </trkpt>
      <trkpt lat="44.72535" lon="5.38828">
        <ele>439.5</ele>
        <time>2022-10-28T08:04:21Z</time>
      </trkpt>
      <trkpt lat="44.72532" lon="5.38826">
        <ele>439.7</ele>
        <time>2022-10-28T08:04:23Z</time>
      </trkpt>
      <trkpt lat="44.72528" lon="5.38823">
        <ele>440</ele>
        <time>2022-10-28T08:04:25Z</time>
      </trkpt>
      <trkpt lat="44.72527" lon="5.38822">
        <ele>440.1</ele>
        <time>2022-10-28T08:04:26Z</time>
      </trkpt>
      <trkpt lat="44.72526" lon="5.38822">
        <ele>440.1</ele>
        <time>2022-10-28T08:04:27Z</time>
      </trkpt>
      <trkpt lat="44.72522" lon="5.3882">
        <ele>440.4</ele>
        <time>2022-10-28T08:04:28Z</time>
      </trkpt>
      <trkpt lat="44.72521" lon="5.38818">
        <ele>440.5</ele>
        <time>2022-10-28T08:04:29Z</time>
      </trkpt>
      <trkpt lat="44.72519" lon="5.38816">
        <ele>440.7</ele>
        <time>2022-10-28T08:04:31Z</time>
      </trkpt>
      <trkpt lat="44.72515" lon="5.38813">
        <ele>440.9</ele>
        <time>2022-10-28T08:04:32Z</time>
      </trkpt>
      <trkpt lat="44.72514" lon="5.38812">
        <ele>441</ele>
        <time>2022-10-28T08:04:33Z</time>
      </trkpt>
      <trkpt lat="44.72512" lon="5.38809">
        <ele>441.1</ele>
        <time>2022-10-28T08:04:34Z</time>
      </trkpt>
      <trkpt lat="44.7251" lon="5.38806">
        <ele>441.4</ele>
        <time>2022-10-28T08:04:35Z</time>
      </trkpt>
      <trkpt lat="44.72509" lon="5.38804">
        <ele>441.5</ele>
        <time>2022-10-28T08:04:36Z</time>
      </trkpt>
      <trkpt lat="44.72506" lon="5.38801">
        <ele>441.7</ele>
        <time>2022-10-28T08:04:38Z</time>
      </trkpt>
      <trkpt lat="44.72504" lon="5.388">
        <ele>441.8</ele>
        <time>2022-10-28T08:04:39Z</time>
      </trkpt>
      <trkpt lat="44.72502" lon="5.38797">
        <ele>442</ele>
        <time>2022-10-28T08:04:40Z</time>
      </trkpt>
      <trkpt lat="44.72501" lon="5.38795">
        <ele>442.1</ele>
        <time>2022-10-28T08:04:41Z</time>
      </trkpt>
      <trkpt lat="44.72499" lon="5.38792">
        <ele>442.3</ele>
        <time>2022-10-28T08:04:42Z</time>
      </trkpt>
      <trkpt lat="44.72499" lon="5.38791">
        <ele>442.3</ele>
        <time>2022-10-28T08:04:43Z</time>
      </trkpt>
      <trkpt lat="44.72497" lon="5.38787">
        <ele>442.5</ele>
        <time>2022-10-28T08:04:44Z</time>
      </trkpt>
      <trkpt lat="44.72496" lon="5.38785">
        <ele>442.6</ele>
        <time>2022-10-28T08:04:45Z</time>
      </trkpt>
      <trkpt lat="44.72495" lon="5.38781">
        <ele>442.8</ele>
        <time>2022-10-28T08:04:46Z</time>
      </trkpt>
      <trkpt lat="44.72494" lon="5.38779">
        <ele>442.9</ele>
        <time>2022-10-28T08:04:47Z</time>
      </trkpt>
      <trkpt lat="44.72492" lon="5.38774">
        <ele>443.1</ele>
        <time>2022-10-28T08:04:49Z</time>
      </trkpt>
      <trkpt lat="44.72491" lon="5.38768">
        <ele>443.4</ele>
        <time>2022-10-28T08:04:51Z</time>
      </trkpt>
      <trkpt lat="44.72489" lon="5.38765">
        <ele>443.5</ele>
        <time>2022-10-28T08:04:52Z</time>
      </trkpt>
      <trkpt lat="44.72488" lon="5.38759">
        <ele>443.8</ele>
        <time>2022-10-28T08:04:54Z</time>
      </trkpt>
      <trkpt lat="44.72486" lon="5.38754">
        <ele>444</ele>
        <time>2022-10-28T08:04:55Z</time>
      </trkpt>
      <trkpt lat="44.72485" lon="5.38753">
        <ele>444.1</ele>
        <time>2022-10-28T08:04:56Z</time>
      </trkpt>
      <trkpt lat="44.72484" lon="5.38748">
        <ele>444.3</ele>
        <time>2022-10-28T08:04:58Z</time>
      </trkpt>
      <trkpt lat="44.72483" lon="5.38745">
        <ele>444.5</ele>
        <time>2022-10-28T08:04:59Z</time>
      </trkpt>
      <trkpt lat="44.72482" lon="5.3874">
        <ele>444.7</ele>
        <time>2022-10-28T08:05:00Z</time>
      </trkpt>
      <trkpt lat="44.72482" lon="5.38739">
        <ele>444.8</ele>
        <time>2022-10-28T08:05:01Z</time>
      </trkpt>
      <trkpt lat="44.7248" lon="5.38734">
        <ele>445</ele>
        <time>2022-10-28T08:05:03Z</time>
      </trkpt>
      <trkpt lat="44.72479" lon="5.38733">
        <ele>445.1</ele>
        <time>2022-10-28T08:05:04Z</time>
      </trkpt>
      <trkpt lat="44.72478" lon="5.38729">
        <ele>445.3</ele>
        <time>2022-10-28T08:05:06Z</time>
      </trkpt>
      <trkpt lat="44.72477" lon="5.38725">
        <ele>445.5</ele>
        <time>2022-10-28T08:05:07Z</time>
      </trkpt>
      <trkpt lat="44.72476" lon="5.38721">
        <ele>445.7</ele>
        <time>2022-10-28T08:05:08Z</time>
      </trkpt>
      <trkpt lat="44.72475" lon="5.38719">
        <ele>445.7</ele>
        <time>2022-10-28T08:05:09Z</time>
      </trkpt>
      <trkpt lat="44.72474" lon="5.38714">
        <ele>445.9</ele>
        <time>2022-10-28T08:05:11Z</time>
      </trkpt>
      <trkpt lat="44.72473" lon="5.38713">
        <ele>446</ele>
        <time>2022-10-28T08:05:12Z</time>
      </trkpt>
      <trkpt lat="44.72472" lon="5.38709">
        <ele>446.2</ele>
        <time>2022-10-28T08:05:13Z</time>
      </trkpt>
      <trkpt lat="44.7247" lon="5.38706">
        <ele>446.3</ele>
        <time>2022-10-28T08:05:15Z</time>
      </trkpt>
      <trkpt lat="44.72468" lon="5.38703">
        <ele>446.5</ele>
        <time>2022-10-28T08:05:16Z</time>
      </trkpt>
      <trkpt lat="44.72466" lon="5.387">
        <ele>446.7</ele>
        <time>2022-10-28T08:05:18Z</time>
      </trkpt>
      <trkpt lat="44.72461" lon="5.38698">
        <ele>446.9</ele>
        <time>2022-10-28T08:05:20Z</time>
      </trkpt>
      <trkpt lat="44.7246" lon="5.38697">
        <ele>447.1</ele>
        <time>2022-10-28T08:05:21Z</time>
      </trkpt>
      <trkpt lat="44.72459" lon="5.38696">
        <ele>447.1</ele>
        <time>2022-10-28T08:05:22Z</time>
      </trkpt>
      <trkpt lat="44.72454" lon="5.38696">
        <ele>447.2</ele>
        <time>2022-10-28T08:05:24Z</time>
      </trkpt>
      <trkpt lat="44.72453" lon="5.38696">
        <ele>447.3</ele>
        <time>2022-10-28T08:05:25Z</time>
      </trkpt>
      <trkpt lat="44.72451" lon="5.38697">
        <ele>447.3</ele>
        <time>2022-10-28T08:05:26Z</time>
      </trkpt>
      <trkpt lat="44.72448" lon="5.38699">
        <ele>447.4</ele>
        <time>2022-10-28T08:05:27Z</time>
      </trkpt>
      <trkpt lat="44.72445" lon="5.38701">
        <ele>447.4</ele>
        <time>2022-10-28T08:05:28Z</time>
      </trkpt>
      <trkpt lat="44.72444" lon="5.38702">
        <ele>447.4</ele>
        <time>2022-10-28T08:05:29Z</time>
      </trkpt>
      <trkpt lat="44.72442" lon="5.38702">
        <ele>447.5</ele>
        <time>2022-10-28T08:05:30Z</time>
      </trkpt>
      <trkpt lat="44.72438" lon="5.38705">
        <ele>447.5</ele>
        <time>2022-10-28T08:05:32Z</time>
      </trkpt>
      <trkpt lat="44.72434" lon="5.38707">
        <ele>447.5</ele>
        <time>2022-10-28T08:05:33Z</time>
      </trkpt>
      <trkpt lat="44.72432" lon="5.38709">
        <ele>447.5</ele>
        <time>2022-10-28T08:05:34Z</time>
      </trkpt>
      <trkpt lat="44.7243" lon="5.3871">
        <ele>447.6</ele>
        <time>2022-10-28T08:05:35Z</time>
      </trkpt>
      <trkpt lat="44.72425" lon="5.38715">
        <ele>447.6</ele>
        <time>2022-10-28T08:05:37Z</time>
      </trkpt>
      <trkpt lat="44.72422" lon="5.38716">
        <ele>447.6</ele>
        <time>2022-10-28T08:05:38Z</time>
      </trkpt>
      <trkpt lat="44.72421" lon="5.38716">
        <ele>447.6</ele>
        <time>2022-10-28T08:05:39Z</time>
      </trkpt>
      <trkpt lat="44.72418" lon="5.38719">
        <ele>447.7</ele>
        <time>2022-10-28T08:05:40Z</time>
      </trkpt>
      <trkpt lat="44.72415" lon="5.38721">
        <ele>447.7</ele>
        <time>2022-10-28T08:05:41Z</time>
      </trkpt>
      <trkpt lat="44.72414" lon="5.38722">
        <ele>447.7</ele>
        <time>2022-10-28T08:05:42Z</time>
      </trkpt>
      <trkpt lat="44.72411" lon="5.38725">
        <ele>447.7</ele>
        <time>2022-10-28T08:05:43Z</time>
      </trkpt>
      <trkpt lat="44.72403" lon="5.38731">
        <ele>447.8</ele>
        <time>2022-10-28T08:05:44Z</time>
      </trkpt>
      <trkpt lat="44.72397" lon="5.38737">
        <ele>447.9</ele>
        <time>2022-10-28T08:05:45Z</time>
      </trkpt>
      <trkpt lat="44.72393" lon="5.38741">
        <ele>447.9</ele>
        <time>2022-10-28T08:05:46Z</time>
      </trkpt>
      <trkpt lat="44.72391" lon="5.38741">
        <ele>447.9</ele>
        <time>2022-10-28T08:05:47Z</time>
      </trkpt>
      <trkpt lat="44.7239" lon="5.38742">
        <ele>447.9</ele>
        <time>2022-10-28T08:05:48Z</time>
      </trkpt>
      <trkpt lat="44.72389" lon="5.38742">
        <ele>447.9</ele>
        <time>2022-10-28T08:05:49Z</time>
      </trkpt>
      <trkpt lat="44.72382" lon="5.3875">
        <ele>448</ele>
        <time>2022-10-28T08:05:50Z</time>
      </trkpt>
      <trkpt lat="44.72376" lon="5.38756">
        <ele>448</ele>
        <time>2022-10-28T08:05:51Z</time>
      </trkpt>
      <trkpt lat="44.7237" lon="5.38763">
        <ele>448</ele>
        <time>2022-10-28T08:05:53Z</time>
      </trkpt>
      <trkpt lat="44.72364" lon="5.38767">
        <ele>448.1</ele>
        <time>2022-10-28T08:05:54Z</time>
      </trkpt>
      <trkpt lat="44.72358" lon="5.38772">
        <ele>448.1</ele>
        <time>2022-10-28T08:05:55Z</time>
      </trkpt>
      <trkpt lat="44.72353" lon="5.38777">
        <ele>448.1</ele>
        <time>2022-10-28T08:05:57Z</time>
      </trkpt>
      <trkpt lat="44.7234" lon="5.38785">
        <ele>448.1</ele>
        <time>2022-10-28T08:05:58Z</time>
      </trkpt>
      <trkpt lat="44.72334" lon="5.38788">
        <ele>448.2</ele>
        <time>2022-10-28T08:05:59Z</time>
      </trkpt>
      <trkpt lat="44.72329" lon="5.3879">
        <ele>448.2</ele>
        <time>2022-10-28T08:06:00Z</time>
      </trkpt>
      <trkpt lat="44.72325" lon="5.38792">
        <ele>448.2</ele>
        <time>2022-10-28T08:06:01Z</time>
      </trkpt>
      <trkpt lat="44.72321" lon="5.38793">
        <ele>448.3</ele>
        <time>2022-10-28T08:06:02Z</time>
      </trkpt>
      <trkpt lat="44.72316" lon="5.38795">
        <ele>448.3</ele>
        <time>2022-10-28T08:06:03Z</time>
      </trkpt>
      <trkpt lat="44.72309" lon="5.38796">
        <ele>448.3</ele>
        <time>2022-10-28T08:06:05Z</time>
      </trkpt>
      <trkpt lat="44.72303" lon="5.38796">
        <ele>448.3</ele>
        <time>2022-10-28T08:06:06Z</time>
      </trkpt>
      <trkpt lat="44.72299" lon="5.38796">
        <ele>448.3</ele>
        <time>2022-10-28T08:06:07Z</time>
      </trkpt>
      <trkpt lat="44.72295" lon="5.38796">
        <ele>448.3</ele>
        <time>2022-10-28T08:06:08Z</time>
      </trkpt>
      <trkpt lat="44.7229" lon="5.38795">
        <ele>448.3</ele>
        <time>2022-10-28T08:06:09Z</time>
      </trkpt>
      <trkpt lat="44.72286" lon="5.38793">
        <ele>448.3</ele>
        <time>2022-10-28T08:06:10Z</time>
      </trkpt>
      <trkpt lat="44.72282" lon="5.38792">
        <ele>448.2</ele>
        <time>2022-10-28T08:06:11Z</time>
      </trkpt>
      <trkpt lat="44.72279" lon="5.3879">
        <ele>448.2</ele>
        <time>2022-10-28T08:06:12Z</time>
      </trkpt>
      <trkpt lat="44.72275" lon="5.38786">
        <ele>448.2</ele>
        <time>2022-10-28T08:06:13Z</time>
      </trkpt>
      <trkpt lat="44.7227" lon="5.38783">
        <ele>448.2</ele>
        <time>2022-10-28T08:06:14Z</time>
      </trkpt>
      <trkpt lat="44.72266" lon="5.3878">
        <ele>448.2</ele>
        <time>2022-10-28T08:06:15Z</time>
      </trkpt>
      <trkpt lat="44.72261" lon="5.38778">
        <ele>448.2</ele>
        <time>2022-10-28T08:06:16Z</time>
      </trkpt>
      <trkpt lat="44.72257" lon="5.3877">
        <ele>448.2</ele>
        <time>2022-10-28T08:06:17Z</time>
      </trkpt>
      <trkpt lat="44.72253" lon="5.38763">
        <ele>448.2</ele>
        <time>2022-10-28T08:06:19Z</time>
      </trkpt>
      <trkpt lat="44.72248" lon="5.3876">
        <ele>448.2</ele>
        <time>2022-10-28T08:06:20Z</time>
      </trkpt>
      <trkpt lat="44.72244" lon="5.38756">
        <ele>448.2</ele>
        <time>2022-10-28T08:06:21Z</time>
      </trkpt>
      <trkpt lat="44.7224" lon="5.38751">
        <ele>448.2</ele>
        <time>2022-10-28T08:06:22Z</time>
      </trkpt>
      <trkpt lat="44.72235" lon="5.38747">
        <ele>448.1</ele>
        <time>2022-10-28T08:06:23Z</time>
      </trkpt>
      <trkpt lat="44.7223" lon="5.38745">
        <ele>448</ele>
        <time>2022-10-28T08:06:24Z</time>
      </trkpt>
      <trkpt lat="44.72225" lon="5.38744">
        <ele>447.9</ele>
        <time>2022-10-28T08:06:25Z</time>
      </trkpt>
      <trkpt lat="44.72219" lon="5.38743">
        <ele>447.8</ele>
        <time>2022-10-28T08:06:26Z</time>
      </trkpt>
      <trkpt lat="44.72214" lon="5.38742">
        <ele>447.7</ele>
        <time>2022-10-28T08:06:27Z</time>
      </trkpt>
      <trkpt lat="44.72208" lon="5.3874">
        <ele>447.6</ele>
        <time>2022-10-28T08:06:28Z</time>
      </trkpt>
      <trkpt lat="44.72204" lon="5.38737">
        <ele>447.6</ele>
        <time>2022-10-28T08:06:29Z</time>
      </trkpt>
      <trkpt lat="44.722" lon="5.38733">
        <ele>447.6</ele>
        <time>2022-10-28T08:06:30Z</time>
      </trkpt>
      <trkpt lat="44.72197" lon="5.38728">
        <ele>447.7</ele>
        <time>2022-10-28T08:06:31Z</time>
      </trkpt>
      <trkpt lat="44.72195" lon="5.38725">
        <ele>447.7</ele>
        <time>2022-10-28T08:06:32Z</time>
      </trkpt>
      <trkpt lat="44.72192" lon="5.3872">
        <ele>447.8</ele>
        <time>2022-10-28T08:06:33Z</time>
      </trkpt>
      <trkpt lat="44.7219" lon="5.38716">
        <ele>447.9</ele>
        <time>2022-10-28T08:06:34Z</time>
      </trkpt>
      <trkpt lat="44.72189" lon="5.38711">
        <ele>448</ele>
        <time>2022-10-28T08:06:35Z</time>
      </trkpt>
      <trkpt lat="44.72189" lon="5.38703">
        <ele>448.2</ele>
        <time>2022-10-28T08:06:36Z</time>
      </trkpt>
      <trkpt lat="44.72187" lon="5.38697">
        <ele>448.3</ele>
        <time>2022-10-28T08:06:37Z</time>
      </trkpt>
      <trkpt lat="44.72185" lon="5.38692">
        <ele>448.5</ele>
        <time>2022-10-28T08:06:38Z</time>
      </trkpt>
      <trkpt lat="44.72183" lon="5.38682">
        <ele>448.8</ele>
        <time>2022-10-28T08:06:40Z</time>
      </trkpt>
      <trkpt lat="44.72179" lon="5.38677">
        <ele>449</ele>
        <time>2022-10-28T08:06:41Z</time>
      </trkpt>
      <trkpt lat="44.72175" lon="5.38672">
        <ele>449.3</ele>
        <time>2022-10-28T08:06:42Z</time>
      </trkpt>
      <trkpt lat="44.72172" lon="5.38668">
        <ele>449.5</ele>
        <time>2022-10-28T08:06:43Z</time>
      </trkpt>
      <trkpt lat="44.72171" lon="5.38667">
        <ele>449.5</ele>
        <time>2022-10-28T08:06:44Z</time>
      </trkpt>
      <trkpt lat="44.7217" lon="5.38667">
        <ele>449.6</ele>
        <time>2022-10-28T08:06:45Z</time>
      </trkpt>
      <trkpt lat="44.7217" lon="5.38672">
        <ele>449.8</ele>
        <time>2022-10-28T08:06:46Z</time>
      </trkpt>
      <trkpt lat="44.72169" lon="5.38676">
        <ele>449.9</ele>
        <time>2022-10-28T08:06:48Z</time>
      </trkpt>
      <trkpt lat="44.72169" lon="5.38678">
        <ele>450</ele>
        <time>2022-10-28T08:06:49Z</time>
      </trkpt>
      <trkpt lat="44.72168" lon="5.38685">
        <ele>450.3</ele>
        <time>2022-10-28T08:06:50Z</time>
      </trkpt>
      <trkpt lat="44.72167" lon="5.38689">
        <ele>450.5</ele>
        <time>2022-10-28T08:06:52Z</time>
      </trkpt>
      <trkpt lat="44.72167" lon="5.38695">
        <ele>450.7</ele>
        <time>2022-10-28T08:06:53Z</time>
      </trkpt>
      <trkpt lat="44.72166" lon="5.38708">
        <ele>451.3</ele>
        <time>2022-10-28T08:06:54Z</time>
      </trkpt>
      <trkpt lat="44.72165" lon="5.38718">
        <ele>451.8</ele>
        <time>2022-10-28T08:06:56Z</time>
      </trkpt>
      <trkpt lat="44.72163" lon="5.38723">
        <ele>452</ele>
        <time>2022-10-28T08:06:57Z</time>
      </trkpt>
      <trkpt lat="44.72161" lon="5.38726">
        <ele>452.2</ele>
        <time>2022-10-28T08:06:58Z</time>
      </trkpt>
      <trkpt lat="44.7216" lon="5.38729">
        <ele>452.4</ele>
        <time>2022-10-28T08:07:00Z</time>
      </trkpt>
      <trkpt lat="44.72157" lon="5.38732">
        <ele>452.5</ele>
        <time>2022-10-28T08:07:01Z</time>
      </trkpt>
      <trkpt lat="44.72155" lon="5.38733">
        <ele>452.7</ele>
        <time>2022-10-28T08:07:02Z</time>
      </trkpt>
      <trkpt lat="44.72152" lon="5.38733">
        <ele>452.9</ele>
        <time>2022-10-28T08:07:04Z</time>
      </trkpt>
      <trkpt lat="44.72149" lon="5.38734">
        <ele>453</ele>
        <time>2022-10-28T08:07:05Z</time>
      </trkpt>
      <trkpt lat="44.72146" lon="5.38734">
        <ele>453.2</ele>
        <time>2022-10-28T08:07:06Z</time>
      </trkpt>
      <trkpt lat="44.72143" lon="5.38733">
        <ele>453.4</ele>
        <time>2022-10-28T08:07:07Z</time>
      </trkpt>
      <trkpt lat="44.72139" lon="5.38733">
        <ele>453.6</ele>
        <time>2022-10-28T08:07:08Z</time>
      </trkpt>
      <trkpt lat="44.72138" lon="5.38733">
        <ele>453.6</ele>
        <time>2022-10-28T08:07:09Z</time>
      </trkpt>
      <trkpt lat="44.72136" lon="5.38732">
        <ele>453.8</ele>
        <time>2022-10-28T08:07:10Z</time>
      </trkpt>
      <trkpt lat="44.72134" lon="5.38732">
        <ele>453.9</ele>
        <time>2022-10-28T08:07:12Z</time>
      </trkpt>
      <trkpt lat="44.72131" lon="5.38732">
        <ele>454.1</ele>
        <time>2022-10-28T08:07:13Z</time>
      </trkpt>
      <trkpt lat="44.7213" lon="5.38732">
        <ele>454.1</ele>
        <time>2022-10-28T08:07:14Z</time>
      </trkpt>
      <trkpt lat="44.72128" lon="5.38732">
        <ele>454.3</ele>
        <time>2022-10-28T08:07:15Z</time>
      </trkpt>
      <trkpt lat="44.72127" lon="5.38732">
        <ele>454.4</ele>
        <time>2022-10-28T08:07:16Z</time>
      </trkpt>
      <trkpt lat="44.72124" lon="5.38735">
        <ele>454.6</ele>
        <time>2022-10-28T08:07:17Z</time>
      </trkpt>
      <trkpt lat="44.72123" lon="5.38737">
        <ele>454.7</ele>
        <time>2022-10-28T08:07:18Z</time>
      </trkpt>
      <trkpt lat="44.72121" lon="5.3874">
        <ele>454.9</ele>
        <time>2022-10-28T08:07:19Z</time>
      </trkpt>
      <trkpt lat="44.72119" lon="5.38744">
        <ele>455.3</ele>
        <time>2022-10-28T08:07:21Z</time>
      </trkpt>
      <trkpt lat="44.72117" lon="5.38747">
        <ele>455.5</ele>
        <time>2022-10-28T08:07:22Z</time>
      </trkpt>
      <trkpt lat="44.72117" lon="5.38751">
        <ele>455.8</ele>
        <time>2022-10-28T08:07:24Z</time>
      </trkpt>
      <trkpt lat="44.72117" lon="5.38752">
        <ele>455.9</ele>
        <time>2022-10-28T08:07:25Z</time>
      </trkpt>
      <trkpt lat="44.72117" lon="5.38754">
        <ele>456.1</ele>
        <time>2022-10-28T08:07:26Z</time>
      </trkpt>
      <trkpt lat="44.72117" lon="5.38756">
        <ele>456.2</ele>
        <time>2022-10-28T08:07:27Z</time>
      </trkpt>
      <trkpt lat="44.72117" lon="5.38759">
        <ele>456.5</ele>
        <time>2022-10-28T08:07:28Z</time>
      </trkpt>
      <trkpt lat="44.72118" lon="5.3876">
        <ele>456.6</ele>
        <time>2022-10-28T08:07:29Z</time>
      </trkpt>
      <trkpt lat="44.72118" lon="5.38761">
        <ele>456.7</ele>
        <time>2022-10-28T08:07:30Z</time>
      </trkpt>
      <trkpt lat="44.72119" lon="5.38764">
        <ele>457</ele>
        <time>2022-10-28T08:07:31Z</time>
      </trkpt>
      <trkpt lat="44.72119" lon="5.38765">
        <ele>457.1</ele>
        <time>2022-10-28T08:07:32Z</time>
      </trkpt>
      <trkpt lat="44.72119" lon="5.38767">
        <ele>457.2</ele>
        <time>2022-10-28T08:07:33Z</time>
      </trkpt>
      <trkpt lat="44.7212" lon="5.38769">
        <ele>457.4</ele>
        <time>2022-10-28T08:07:34Z</time>
      </trkpt>
      <trkpt lat="44.7212" lon="5.38771">
        <ele>457.6</ele>
        <time>2022-10-28T08:07:35Z</time>
      </trkpt>
      <trkpt lat="44.72121" lon="5.38778">
        <ele>458.3</ele>
        <time>2022-10-28T08:07:37Z</time>
      </trkpt>
      <trkpt lat="44.72123" lon="5.38786">
        <ele>459.1</ele>
        <time>2022-10-28T08:07:38Z</time>
      </trkpt>
      <trkpt lat="44.72123" lon="5.38791">
        <ele>459.6</ele>
        <time>2022-10-28T08:07:39Z</time>
      </trkpt>
      <trkpt lat="44.72123" lon="5.38793">
        <ele>459.8</ele>
        <time>2022-10-28T08:07:40Z</time>
      </trkpt>
      <trkpt lat="44.72124" lon="5.38796">
        <ele>460.1</ele>
        <time>2022-10-28T08:07:41Z</time>
      </trkpt>
      <trkpt lat="44.72124" lon="5.38799">
        <ele>460.4</ele>
        <time>2022-10-28T08:07:43Z</time>
      </trkpt>
      <trkpt lat="44.72124" lon="5.38804">
        <ele>460.8</ele>
        <time>2022-10-28T08:07:44Z</time>
      </trkpt>
      <trkpt lat="44.72124" lon="5.38805">
        <ele>461</ele>
        <time>2022-10-28T08:07:45Z</time>
      </trkpt>
      <trkpt lat="44.72123" lon="5.38809">
        <ele>461.4</ele>
        <time>2022-10-28T08:07:46Z</time>
      </trkpt>
      <trkpt lat="44.72123" lon="5.3881">
        <ele>461.5</ele>
        <time>2022-10-28T08:07:47Z</time>
      </trkpt>
      <trkpt lat="44.72123" lon="5.38812">
        <ele>461.6</ele>
        <time>2022-10-28T08:07:48Z</time>
      </trkpt>
      <trkpt lat="44.72122" lon="5.38814">
        <ele>461.9</ele>
        <time>2022-10-28T08:07:49Z</time>
      </trkpt>
      <trkpt lat="44.72121" lon="5.38816">
        <ele>462.1</ele>
        <time>2022-10-28T08:07:50Z</time>
      </trkpt>
      <trkpt lat="44.72121" lon="5.38818">
        <ele>462.2</ele>
        <time>2022-10-28T08:07:51Z</time>
      </trkpt>
      <trkpt lat="44.7212" lon="5.3882">
        <ele>462.5</ele>
        <time>2022-10-28T08:07:52Z</time>
      </trkpt>
      <trkpt lat="44.72119" lon="5.38822">
        <ele>462.7</ele>
        <time>2022-10-28T08:07:53Z</time>
      </trkpt>
      <trkpt lat="44.72118" lon="5.38825">
        <ele>462.9</ele>
        <time>2022-10-28T08:07:54Z</time>
      </trkpt>
      <trkpt lat="44.72118" lon="5.38826">
        <ele>463</ele>
        <time>2022-10-28T08:07:55Z</time>
      </trkpt>
      <trkpt lat="44.72117" lon="5.38827">
        <ele>463.2</ele>
        <time>2022-10-28T08:07:56Z</time>
      </trkpt>
      <trkpt lat="44.72116" lon="5.38829">
        <ele>463.4</ele>
        <time>2022-10-28T08:07:57Z</time>
      </trkpt>
      <trkpt lat="44.72116" lon="5.3883">
        <ele>463.5</ele>
        <time>2022-10-28T08:07:58Z</time>
      </trkpt>
      <trkpt lat="44.72115" lon="5.38831">
        <ele>463.6</ele>
        <time>2022-10-28T08:07:59Z</time>
      </trkpt>
      <trkpt lat="44.72115" lon="5.38832">
        <ele>463.7</ele>
        <time>2022-10-28T08:08:00Z</time>
      </trkpt>
      <trkpt lat="44.72114" lon="5.38833">
        <ele>463.9</ele>
        <time>2022-10-28T08:08:01Z</time>
      </trkpt>
      <trkpt lat="44.72113" lon="5.38834">
        <ele>464</ele>
        <time>2022-10-28T08:08:02Z</time>
      </trkpt>
      <trkpt lat="44.72112" lon="5.38835">
        <ele>464.1</ele>
        <time>2022-10-28T08:08:03Z</time>
      </trkpt>
      <trkpt lat="44.72111" lon="5.38836">
        <ele>464.2</ele>
        <time>2022-10-28T08:08:04Z</time>
      </trkpt>
      <trkpt lat="44.7211" lon="5.38837">
        <ele>464.4</ele>
        <time>2022-10-28T08:08:05Z</time>
      </trkpt>
      <trkpt lat="44.72109" lon="5.38838">
        <ele>464.5</ele>
        <time>2022-10-28T08:08:06Z</time>
      </trkpt>
      <trkpt lat="44.72107" lon="5.38841">
        <ele>464.8</ele>
        <time>2022-10-28T08:08:08Z</time>
      </trkpt>
      <trkpt lat="44.72107" lon="5.38841">
        <ele>464.9</ele>
        <time>2022-10-28T08:08:09Z</time>
      </trkpt>
      <trkpt lat="44.72106" lon="5.38843">
        <ele>465</ele>
        <time>2022-10-28T08:08:10Z</time>
      </trkpt>
      <trkpt lat="44.72105" lon="5.38844">
        <ele>465.1</ele>
        <time>2022-10-28T08:08:11Z</time>
      </trkpt>
      <trkpt lat="44.72104" lon="5.38845">
        <ele>465.2</ele>
        <time>2022-10-28T08:08:12Z</time>
      </trkpt>
      <trkpt lat="44.72104" lon="5.38845">
        <ele>465.4</ele>
        <time>2022-10-28T08:08:13Z</time>
      </trkpt>
      <trkpt lat="44.72103" lon="5.38847">
        <ele>465.5</ele>
        <time>2022-10-28T08:08:14Z</time>
      </trkpt>
      <trkpt lat="44.72101" lon="5.38849">
        <ele>465.8</ele>
        <time>2022-10-28T08:08:15Z</time>
      </trkpt>
      <trkpt lat="44.721" lon="5.3885">
        <ele>465.8</ele>
        <time>2022-10-28T08:08:16Z</time>
      </trkpt>
      <trkpt lat="44.721" lon="5.38851">
        <ele>465.9</ele>
        <time>2022-10-28T08:08:17Z</time>
      </trkpt>
      <trkpt lat="44.72099" lon="5.38852">
        <ele>466.1</ele>
        <time>2022-10-28T08:08:18Z</time>
      </trkpt>
      <trkpt lat="44.72097" lon="5.38853">
        <ele>466.3</ele>
        <time>2022-10-28T08:08:20Z</time>
      </trkpt>
      <trkpt lat="44.72096" lon="5.38855">
        <ele>466.5</ele>
        <time>2022-10-28T08:08:21Z</time>
      </trkpt>
      <trkpt lat="44.72094" lon="5.38856">
        <ele>466.6</ele>
        <time>2022-10-28T08:08:22Z</time>
      </trkpt>
      <trkpt lat="44.72093" lon="5.38858">
        <ele>466.8</ele>
        <time>2022-10-28T08:08:23Z</time>
      </trkpt>
      <trkpt lat="44.72092" lon="5.38859">
        <ele>467</ele>
        <time>2022-10-28T08:08:24Z</time>
      </trkpt>
      <trkpt lat="44.7209" lon="5.38861">
        <ele>467.3</ele>
        <time>2022-10-28T08:08:26Z</time>
      </trkpt>
      <trkpt lat="44.72089" lon="5.38863">
        <ele>467.4</ele>
        <time>2022-10-28T08:08:27Z</time>
      </trkpt>
      <trkpt lat="44.72088" lon="5.38864">
        <ele>467.5</ele>
        <time>2022-10-28T08:08:28Z</time>
      </trkpt>
      <trkpt lat="44.72086" lon="5.38865">
        <ele>467.7</ele>
        <time>2022-10-28T08:08:29Z</time>
      </trkpt>
      <trkpt lat="44.72084" lon="5.38867">
        <ele>468</ele>
        <time>2022-10-28T08:08:31Z</time>
      </trkpt>
      <trkpt lat="44.72083" lon="5.38868">
        <ele>468.1</ele>
        <time>2022-10-28T08:08:32Z</time>
      </trkpt>
      <trkpt lat="44.72082" lon="5.38868">
        <ele>468.2</ele>
        <time>2022-10-28T08:08:33Z</time>
      </trkpt>
      <trkpt lat="44.7208" lon="5.38869">
        <ele>468.4</ele>
        <time>2022-10-28T08:08:34Z</time>
      </trkpt>
      <trkpt lat="44.72078" lon="5.3887">
        <ele>468.6</ele>
        <time>2022-10-28T08:08:35Z</time>
      </trkpt>
      <trkpt lat="44.72078" lon="5.38871">
        <ele>468.6</ele>
        <time>2022-10-28T08:08:36Z</time>
      </trkpt>
      <trkpt lat="44.72077" lon="5.38871">
        <ele>468.7</ele>
        <time>2022-10-28T08:08:37Z</time>
      </trkpt>
      <trkpt lat="44.72075" lon="5.38873">
        <ele>468.9</ele>
        <time>2022-10-28T08:08:38Z</time>
      </trkpt>
      <trkpt lat="44.72074" lon="5.38873">
        <ele>469</ele>
        <time>2022-10-28T08:08:39Z</time>
      </trkpt>
      <trkpt lat="44.72073" lon="5.38873">
        <ele>469.1</ele>
        <time>2022-10-28T08:08:40Z</time>
      </trkpt>
      <trkpt lat="44.72071" lon="5.38874">
        <ele>469.3</ele>
        <time>2022-10-28T08:08:41Z</time>
      </trkpt>
      <trkpt lat="44.7207" lon="5.38874">
        <ele>469.4</ele>
        <time>2022-10-28T08:08:42Z</time>
      </trkpt>
      <trkpt lat="44.72069" lon="5.38875">
        <ele>469.5</ele>
        <time>2022-10-28T08:08:43Z</time>
      </trkpt>
      <trkpt lat="44.72067" lon="5.38876">
        <ele>469.7</ele>
        <time>2022-10-28T08:08:44Z</time>
      </trkpt>
      <trkpt lat="44.72065" lon="5.38877">
        <ele>469.8</ele>
        <time>2022-10-28T08:08:45Z</time>
      </trkpt>
      <trkpt lat="44.72065" lon="5.38877">
        <ele>469.9</ele>
        <time>2022-10-28T08:08:46Z</time>
      </trkpt>
      <trkpt lat="44.72064" lon="5.38878">
        <ele>470</ele>
        <time>2022-10-28T08:08:47Z</time>
      </trkpt>
      <trkpt lat="44.72061" lon="5.38878">
        <ele>470.2</ele>
        <time>2022-10-28T08:08:49Z</time>
      </trkpt>
      <trkpt lat="44.72059" lon="5.38878">
        <ele>470.3</ele>
        <time>2022-10-28T08:08:50Z</time>
      </trkpt>
      <trkpt lat="44.72057" lon="5.38877">
        <ele>470.5</ele>
        <time>2022-10-28T08:08:52Z</time>
      </trkpt>
      <trkpt lat="44.72054" lon="5.38877">
        <ele>470.7</ele>
        <time>2022-10-28T08:08:53Z</time>
      </trkpt>
      <trkpt lat="44.72053" lon="5.38877">
        <ele>470.8</ele>
        <time>2022-10-28T08:08:54Z</time>
      </trkpt>
      <trkpt lat="44.72052" lon="5.38876">
        <ele>470.9</ele>
        <time>2022-10-28T08:08:55Z</time>
      </trkpt>
      <trkpt lat="44.7205" lon="5.38876">
        <ele>471</ele>
        <time>2022-10-28T08:08:56Z</time>
      </trkpt>
      <trkpt lat="44.72048" lon="5.38875">
        <ele>471.2</ele>
        <time>2022-10-28T08:08:57Z</time>
      </trkpt>
      <trkpt lat="44.72047" lon="5.38875">
        <ele>471.2</ele>
        <time>2022-10-28T08:08:58Z</time>
      </trkpt>
      <trkpt lat="44.72046" lon="5.38875">
        <ele>471.3</ele>
        <time>2022-10-28T08:08:59Z</time>
      </trkpt>
      <trkpt lat="44.72043" lon="5.38874">
        <ele>471.5</ele>
        <time>2022-10-28T08:09:00Z</time>
      </trkpt>
      <trkpt lat="44.72043" lon="5.38874">
        <ele>471.5</ele>
        <time>2022-10-28T08:09:01Z</time>
      </trkpt>
      <trkpt lat="44.7204" lon="5.38872">
        <ele>471.7</ele>
        <time>2022-10-28T08:09:03Z</time>
      </trkpt>
      <trkpt lat="44.72038" lon="5.38872">
        <ele>471.9</ele>
        <time>2022-10-28T08:09:04Z</time>
      </trkpt>
      <trkpt lat="44.72036" lon="5.38871">
        <ele>472</ele>
        <time>2022-10-28T08:09:06Z</time>
      </trkpt>
      <trkpt lat="44.72033" lon="5.38869">
        <ele>472.2</ele>
        <time>2022-10-28T08:09:07Z</time>
      </trkpt>
      <trkpt lat="44.72032" lon="5.38869">
        <ele>472.3</ele>
        <time>2022-10-28T08:09:08Z</time>
      </trkpt>
      <trkpt lat="44.72028" lon="5.38866">
        <ele>472.5</ele>
        <time>2022-10-28T08:09:10Z</time>
      </trkpt>
      <trkpt lat="44.72027" lon="5.38865">
        <ele>472.6</ele>
        <time>2022-10-28T08:09:11Z</time>
      </trkpt>
      <trkpt lat="44.72026" lon="5.38865">
        <ele>472.7</ele>
        <time>2022-10-28T08:09:12Z</time>
      </trkpt>
      <trkpt lat="44.72025" lon="5.38863">
        <ele>472.8</ele>
        <time>2022-10-28T08:09:13Z</time>
      </trkpt>
      <trkpt lat="44.72022" lon="5.38862">
        <ele>473</ele>
        <time>2022-10-28T08:09:15Z</time>
      </trkpt>
      <trkpt lat="44.72021" lon="5.38861">
        <ele>473</ele>
        <time>2022-10-28T08:09:16Z</time>
      </trkpt>
      <trkpt lat="44.72019" lon="5.38859">
        <ele>473.2</ele>
        <time>2022-10-28T08:09:17Z</time>
      </trkpt>
      <trkpt lat="44.72017" lon="5.38858">
        <ele>473.3</ele>
        <time>2022-10-28T08:09:18Z</time>
      </trkpt>
      <trkpt lat="44.72014" lon="5.38856">
        <ele>473.5</ele>
        <time>2022-10-28T08:09:20Z</time>
      </trkpt>
      <trkpt lat="44.72013" lon="5.38855">
        <ele>473.6</ele>
        <time>2022-10-28T08:09:21Z</time>
      </trkpt>
      <trkpt lat="44.72011" lon="5.38854">
        <ele>473.7</ele>
        <time>2022-10-28T08:09:22Z</time>
      </trkpt>
      <trkpt lat="44.7201" lon="5.38853">
        <ele>473.8</ele>
        <time>2022-10-28T08:09:23Z</time>
      </trkpt>
      <trkpt lat="44.72008" lon="5.38852">
        <ele>473.9</ele>
        <time>2022-10-28T08:09:24Z</time>
      </trkpt>
      <trkpt lat="44.72005" lon="5.38849">
        <ele>474.1</ele>
        <time>2022-10-28T08:09:26Z</time>
      </trkpt>
      <trkpt lat="44.72004" lon="5.38848">
        <ele>474.2</ele>
        <time>2022-10-28T08:09:27Z</time>
      </trkpt>
      <trkpt lat="44.72002" lon="5.38847">
        <ele>474.2</ele>
        <time>2022-10-28T08:09:28Z</time>
      </trkpt>
      <trkpt lat="44.72001" lon="5.38846">
        <ele>474.3</ele>
        <time>2022-10-28T08:09:29Z</time>
      </trkpt>
      <trkpt lat="44.71999" lon="5.38845">
        <ele>474.4</ele>
        <time>2022-10-28T08:09:30Z</time>
      </trkpt>
      <trkpt lat="44.71998" lon="5.38844">
        <ele>474.5</ele>
        <time>2022-10-28T08:09:31Z</time>
      </trkpt>
      <trkpt lat="44.71996" lon="5.38843">
        <ele>474.6</ele>
        <time>2022-10-28T08:09:32Z</time>
      </trkpt>
      <trkpt lat="44.71995" lon="5.38843">
        <ele>474.6</ele>
        <time>2022-10-28T08:09:33Z</time>
      </trkpt>
      <trkpt lat="44.71993" lon="5.38843">
        <ele>474.7</ele>
        <time>2022-10-28T08:09:34Z</time>
      </trkpt>
      <trkpt lat="44.71991" lon="5.38841">
        <ele>474.8</ele>
        <time>2022-10-28T08:09:35Z</time>
      </trkpt>
      <trkpt lat="44.7199" lon="5.38841">
        <ele>474.8</ele>
        <time>2022-10-28T08:09:36Z</time>
      </trkpt>
      <trkpt lat="44.71988" lon="5.38841">
        <ele>475</ele>
        <time>2022-10-28T08:09:37Z</time>
      </trkpt>
      <trkpt lat="44.71987" lon="5.3884">
        <ele>475</ele>
        <time>2022-10-28T08:09:38Z</time>
      </trkpt>
      <trkpt lat="44.71985" lon="5.3884">
        <ele>475</ele>
        <time>2022-10-28T08:09:39Z</time>
      </trkpt>
      <trkpt lat="44.71983" lon="5.38839">
        <ele>475.1</ele>
        <time>2022-10-28T08:09:40Z</time>
      </trkpt>
      <trkpt lat="44.71981" lon="5.38839">
        <ele>475.2</ele>
        <time>2022-10-28T08:09:41Z</time>
      </trkpt>
      <trkpt lat="44.71979" lon="5.38839">
        <ele>475.3</ele>
        <time>2022-10-28T08:09:43Z</time>
      </trkpt>
      <trkpt lat="44.71976" lon="5.38838">
        <ele>475.5</ele>
        <time>2022-10-28T08:09:44Z</time>
      </trkpt>
      <trkpt lat="44.71974" lon="5.38838">
        <ele>475.5</ele>
        <time>2022-10-28T08:09:45Z</time>
      </trkpt>
      <trkpt lat="44.7197" lon="5.38838">
        <ele>475.7</ele>
        <time>2022-10-28T08:09:47Z</time>
      </trkpt>
      <trkpt lat="44.71969" lon="5.38838">
        <ele>475.8</ele>
        <time>2022-10-28T08:09:48Z</time>
      </trkpt>
      <trkpt lat="44.71967" lon="5.38838">
        <ele>475.8</ele>
        <time>2022-10-28T08:09:49Z</time>
      </trkpt>
      <trkpt lat="44.71964" lon="5.38838">
        <ele>476</ele>
        <time>2022-10-28T08:09:50Z</time>
      </trkpt>
      <trkpt lat="44.71963" lon="5.38838">
        <ele>476</ele>
        <time>2022-10-28T08:09:51Z</time>
      </trkpt>
      <trkpt lat="44.7196" lon="5.38838">
        <ele>476.1</ele>
        <time>2022-10-28T08:09:52Z</time>
      </trkpt>
      <trkpt lat="44.71959" lon="5.38838">
        <ele>476.2</ele>
        <time>2022-10-28T08:09:53Z</time>
      </trkpt>
      <trkpt lat="44.71956" lon="5.38839">
        <ele>476.3</ele>
        <time>2022-10-28T08:09:54Z</time>
      </trkpt>
      <trkpt lat="44.71956" lon="5.38839">
        <ele>476.4</ele>
        <time>2022-10-28T08:09:55Z</time>
      </trkpt>
      <trkpt lat="44.71951" lon="5.38839">
        <ele>476.6</ele>
        <time>2022-10-28T08:09:57Z</time>
      </trkpt>
      <trkpt lat="44.7195" lon="5.38839">
        <ele>476.6</ele>
        <time>2022-10-28T08:09:58Z</time>
      </trkpt>
      <trkpt lat="44.71948" lon="5.38839">
        <ele>476.7</ele>
        <time>2022-10-28T08:09:59Z</time>
      </trkpt>
      <trkpt lat="44.71945" lon="5.38839">
        <ele>476.9</ele>
        <time>2022-10-28T08:10:01Z</time>
      </trkpt>
      <trkpt lat="44.71944" lon="5.38839">
        <ele>476.9</ele>
        <time>2022-10-28T08:10:02Z</time>
      </trkpt>
      <trkpt lat="44.71941" lon="5.38837">
        <ele>477.1</ele>
        <time>2022-10-28T08:10:03Z</time>
      </trkpt>
      <trkpt lat="44.7194" lon="5.38837">
        <ele>477.1</ele>
        <time>2022-10-28T08:10:04Z</time>
      </trkpt>
      <trkpt lat="44.71938" lon="5.38836">
        <ele>477.2</ele>
        <time>2022-10-28T08:10:05Z</time>
      </trkpt>
      <trkpt lat="44.71937" lon="5.38836">
        <ele>477.3</ele>
        <time>2022-10-28T08:10:06Z</time>
      </trkpt>
      <trkpt lat="44.71934" lon="5.38835">
        <ele>477.7</ele>
        <time>2022-10-28T08:10:07Z</time>
      </trkpt>
      <trkpt lat="44.71933" lon="5.38835">
        <ele>477.8</ele>
        <time>2022-10-28T08:10:08Z</time>
      </trkpt>
      <trkpt lat="44.71931" lon="5.38834">
        <ele>477.9</ele>
        <time>2022-10-28T08:10:09Z</time>
      </trkpt>
      <trkpt lat="44.7193" lon="5.38833">
        <ele>478.1</ele>
        <time>2022-10-28T08:10:10Z</time>
      </trkpt>
      <trkpt lat="44.71928" lon="5.38833">
        <ele>478.3</ele>
        <time>2022-10-28T08:10:11Z</time>
      </trkpt>
      <trkpt lat="44.71927" lon="5.38832">
        <ele>478.4</ele>
        <time>2022-10-28T08:10:12Z</time>
      </trkpt>
      <trkpt lat="44.71923" lon="5.38831">
        <ele>478.8</ele>
        <time>2022-10-28T08:10:14Z</time>
      </trkpt>
      <trkpt lat="44.71922" lon="5.3883">
        <ele>478.9</ele>
        <time>2022-10-28T08:10:15Z</time>
      </trkpt>
      <trkpt lat="44.71921" lon="5.38829">
        <ele>479.1</ele>
        <time>2022-10-28T08:10:16Z</time>
      </trkpt>
      <trkpt lat="44.71919" lon="5.38828">
        <ele>479.3</ele>
        <time>2022-10-28T08:10:18Z</time>
      </trkpt>
      <trkpt lat="44.71918" lon="5.38828">
        <ele>479.5</ele>
        <time>2022-10-28T08:10:19Z</time>
      </trkpt>
      <trkpt lat="44.71916" lon="5.38827">
        <ele>479.7</ele>
        <time>2022-10-28T08:10:20Z</time>
      </trkpt>
      <trkpt lat="44.71914" lon="5.38824">
        <ele>480.1</ele>
        <time>2022-10-28T08:10:22Z</time>
      </trkpt>
      <trkpt lat="44.71913" lon="5.38823">
        <ele>480.2</ele>
        <time>2022-10-28T08:10:23Z</time>
      </trkpt>
      <trkpt lat="44.71911" lon="5.38822">
        <ele>480.4</ele>
        <time>2022-10-28T08:10:24Z</time>
      </trkpt>
      <trkpt lat="44.7191" lon="5.38822">
        <ele>480.7</ele>
        <time>2022-10-28T08:10:25Z</time>
      </trkpt>
      <trkpt lat="44.71908" lon="5.38821">
        <ele>481</ele>
        <time>2022-10-28T08:10:26Z</time>
      </trkpt>
      <trkpt lat="44.71907" lon="5.38821">
        <ele>481.1</ele>
        <time>2022-10-28T08:10:27Z</time>
      </trkpt>
      <trkpt lat="44.71906" lon="5.3882">
        <ele>481.2</ele>
        <time>2022-10-28T08:10:28Z</time>
      </trkpt>
      <trkpt lat="44.71905" lon="5.3882">
        <ele>481.4</ele>
        <time>2022-10-28T08:10:29Z</time>
      </trkpt>
      <trkpt lat="44.71903" lon="5.38819">
        <ele>481.6</ele>
        <time>2022-10-28T08:10:30Z</time>
      </trkpt>
      <trkpt lat="44.71901" lon="5.38818">
        <ele>482</ele>
        <time>2022-10-28T08:10:31Z</time>
      </trkpt>
      <trkpt lat="44.719" lon="5.38818">
        <ele>482.1</ele>
        <time>2022-10-28T08:10:32Z</time>
      </trkpt>
      <trkpt lat="44.719" lon="5.38818">
        <ele>482.2</ele>
        <time>2022-10-28T08:10:33Z</time>
      </trkpt>
      <trkpt lat="44.71898" lon="5.38818">
        <ele>482.4</ele>
        <time>2022-10-28T08:10:34Z</time>
      </trkpt>
      <trkpt lat="44.71897" lon="5.38818">
        <ele>482.5</ele>
        <time>2022-10-28T08:10:35Z</time>
      </trkpt>
      <trkpt lat="44.71896" lon="5.38817">
        <ele>482.7</ele>
        <time>2022-10-28T08:10:36Z</time>
      </trkpt>
      <trkpt lat="44.71894" lon="5.38817">
        <ele>483</ele>
        <time>2022-10-28T08:10:37Z</time>
      </trkpt>
      <trkpt lat="44.71893" lon="5.38817">
        <ele>483.1</ele>
        <time>2022-10-28T08:10:38Z</time>
      </trkpt>
      <trkpt lat="44.71892" lon="5.38817">
        <ele>483.2</ele>
        <time>2022-10-28T08:10:39Z</time>
      </trkpt>
      <trkpt lat="44.7189" lon="5.38816">
        <ele>483.4</ele>
        <time>2022-10-28T08:10:40Z</time>
      </trkpt>
      <trkpt lat="44.71889" lon="5.38816">
        <ele>483.6</ele>
        <time>2022-10-28T08:10:41Z</time>
      </trkpt>
      <trkpt lat="44.71888" lon="5.38817">
        <ele>483.8</ele>
        <time>2022-10-28T08:10:42Z</time>
      </trkpt>
      <trkpt lat="44.71886" lon="5.38817">
        <ele>484</ele>
        <time>2022-10-28T08:10:43Z</time>
      </trkpt>
      <trkpt lat="44.71883" lon="5.38817">
        <ele>484.4</ele>
        <time>2022-10-28T08:10:45Z</time>
      </trkpt>
      <trkpt lat="44.71882" lon="5.38817">
        <ele>484.5</ele>
        <time>2022-10-28T08:10:46Z</time>
      </trkpt>
      <trkpt lat="44.7188" lon="5.38817">
        <ele>484.7</ele>
        <time>2022-10-28T08:10:47Z</time>
      </trkpt>
      <trkpt lat="44.71878" lon="5.38816">
        <ele>485</ele>
        <time>2022-10-28T08:10:49Z</time>
      </trkpt>
      <trkpt lat="44.71876" lon="5.38816">
        <ele>485.2</ele>
        <time>2022-10-28T08:10:50Z</time>
      </trkpt>
      <trkpt lat="44.71875" lon="5.38816">
        <ele>485.3</ele>
        <time>2022-10-28T08:10:51Z</time>
      </trkpt>
      <trkpt lat="44.71873" lon="5.38816">
        <ele>485.5</ele>
        <time>2022-10-28T08:10:52Z</time>
      </trkpt>
      <trkpt lat="44.71872" lon="5.38816">
        <ele>485.7</ele>
        <time>2022-10-28T08:10:53Z</time>
      </trkpt>
      <trkpt lat="44.7187" lon="5.38816">
        <ele>485.8</ele>
        <time>2022-10-28T08:10:54Z</time>
      </trkpt>
      <trkpt lat="44.71869" lon="5.38816">
        <ele>486</ele>
        <time>2022-10-28T08:10:55Z</time>
      </trkpt>
      <trkpt lat="44.71867" lon="5.38816">
        <ele>486.1</ele>
        <time>2022-10-28T08:10:56Z</time>
      </trkpt>
      <trkpt lat="44.71866" lon="5.38816">
        <ele>486.2</ele>
        <time>2022-10-28T08:10:57Z</time>
      </trkpt>
      <trkpt lat="44.71865" lon="5.38816">
        <ele>486.3</ele>
        <time>2022-10-28T08:10:58Z</time>
      </trkpt>
      <trkpt lat="44.71864" lon="5.38816">
        <ele>486.4</ele>
        <time>2022-10-28T08:10:59Z</time>
      </trkpt>
      <trkpt lat="44.71863" lon="5.38816">
        <ele>486.5</ele>
        <time>2022-10-28T08:11:00Z</time>
      </trkpt>
      <trkpt lat="44.7186" lon="5.38815">
        <ele>486.7</ele>
        <time>2022-10-28T08:11:02Z</time>
      </trkpt>
      <trkpt lat="44.71856" lon="5.38814">
        <ele>486.9</ele>
        <time>2022-10-28T08:11:04Z</time>
      </trkpt>
      <trkpt lat="44.71854" lon="5.38813">
        <ele>487</ele>
        <time>2022-10-28T08:11:05Z</time>
      </trkpt>
      <trkpt lat="44.71853" lon="5.38813">
        <ele>487.1</ele>
        <time>2022-10-28T08:11:06Z</time>
      </trkpt>
      <trkpt lat="44.7185" lon="5.38812">
        <ele>487.2</ele>
        <time>2022-10-28T08:11:07Z</time>
      </trkpt>
      <trkpt lat="44.71849" lon="5.38812">
        <ele>487.3</ele>
        <time>2022-10-28T08:11:08Z</time>
      </trkpt>
      <trkpt lat="44.71847" lon="5.38812">
        <ele>487.3</ele>
        <time>2022-10-28T08:11:09Z</time>
      </trkpt>
      <trkpt lat="44.71843" lon="5.38812">
        <ele>487.4</ele>
        <time>2022-10-28T08:11:11Z</time>
      </trkpt>
      <trkpt lat="44.7184" lon="5.38812">
        <ele>487.5</ele>
        <time>2022-10-28T08:11:12Z</time>
      </trkpt>
      <trkpt lat="44.71839" lon="5.38812">
        <ele>487.5</ele>
        <time>2022-10-28T08:11:13Z</time>
      </trkpt>
      <trkpt lat="44.71836" lon="5.38812">
        <ele>487.5</ele>
        <time>2022-10-28T08:11:14Z</time>
      </trkpt>
      <trkpt lat="44.71832" lon="5.38812">
        <ele>487.5</ele>
        <time>2022-10-28T08:11:16Z</time>
      </trkpt>
      <trkpt lat="44.71829" lon="5.38813">
        <ele>487.5</ele>
        <time>2022-10-28T08:11:17Z</time>
      </trkpt>
      <trkpt lat="44.71825" lon="5.38813">
        <ele>487.4</ele>
        <time>2022-10-28T08:11:18Z</time>
      </trkpt>
      <trkpt lat="44.71822" lon="5.38813">
        <ele>487.3</ele>
        <time>2022-10-28T08:11:19Z</time>
      </trkpt>
      <trkpt lat="44.71819" lon="5.38812">
        <ele>487.1</ele>
        <time>2022-10-28T08:11:20Z</time>
      </trkpt>
      <trkpt lat="44.71816" lon="5.38812">
        <ele>487</ele>
        <time>2022-10-28T08:11:21Z</time>
      </trkpt>
      <trkpt lat="44.7181" lon="5.38811">
        <ele>486.6</ele>
        <time>2022-10-28T08:11:23Z</time>
      </trkpt>
      <trkpt lat="44.71805" lon="5.3881">
        <ele>486.2</ele>
        <time>2022-10-28T08:11:24Z</time>
      </trkpt>
      <trkpt lat="44.718" lon="5.38808">
        <ele>485.8</ele>
        <time>2022-10-28T08:11:25Z</time>
      </trkpt>
      <trkpt lat="44.71793" lon="5.38805">
        <ele>485.3</ele>
        <time>2022-10-28T08:11:26Z</time>
      </trkpt>
      <trkpt lat="44.71787" lon="5.38803">
        <ele>484.8</ele>
        <time>2022-10-28T08:11:27Z</time>
      </trkpt>
      <trkpt lat="44.71781" lon="5.38802">
        <ele>484.4</ele>
        <time>2022-10-28T08:11:28Z</time>
      </trkpt>
      <trkpt lat="44.71775" lon="5.38799">
        <ele>483.9</ele>
        <time>2022-10-28T08:11:29Z</time>
      </trkpt>
      <trkpt lat="44.71769" lon="5.38796">
        <ele>483.4</ele>
        <time>2022-10-28T08:11:30Z</time>
      </trkpt>
      <trkpt lat="44.71762" lon="5.38792">
        <ele>483</ele>
        <time>2022-10-28T08:11:31Z</time>
      </trkpt>
      <trkpt lat="44.71756" lon="5.38789">
        <ele>482.5</ele>
        <time>2022-10-28T08:11:32Z</time>
      </trkpt>
      <trkpt lat="44.71749" lon="5.38785">
        <ele>482</ele>
        <time>2022-10-28T08:11:33Z</time>
      </trkpt>
      <trkpt lat="44.71742" lon="5.38781">
        <ele>481.5</ele>
        <time>2022-10-28T08:11:34Z</time>
      </trkpt>
      <trkpt lat="44.71734" lon="5.38777">
        <ele>480.9</ele>
        <time>2022-10-28T08:11:35Z</time>
      </trkpt>
      <trkpt lat="44.71726" lon="5.38774">
        <ele>480.4</ele>
        <time>2022-10-28T08:11:36Z</time>
      </trkpt>
      <trkpt lat="44.71717" lon="5.38773">
        <ele>480</ele>
        <time>2022-10-28T08:11:37Z</time>
      </trkpt>
      <trkpt lat="44.71709" lon="5.38775">
        <ele>479.7</ele>
        <time>2022-10-28T08:11:38Z</time>
      </trkpt>
      <trkpt lat="44.71702" lon="5.38778">
        <ele>479.4</ele>
        <time>2022-10-28T08:11:39Z</time>
      </trkpt>
      <trkpt lat="44.71695" lon="5.38782">
        <ele>479.2</ele>
        <time>2022-10-28T08:11:40Z</time>
      </trkpt>
      <trkpt lat="44.71688" lon="5.38785">
        <ele>478.9</ele>
        <time>2022-10-28T08:11:41Z</time>
      </trkpt>
      <trkpt lat="44.71681" lon="5.38788">
        <ele>478.6</ele>
        <time>2022-10-28T08:11:42Z</time>
      </trkpt>
      <trkpt lat="44.71674" lon="5.3879">
        <ele>478.2</ele>
        <time>2022-10-28T08:11:43Z</time>
      </trkpt>
      <trkpt lat="44.71666" lon="5.38793">
        <ele>477.7</ele>
        <time>2022-10-28T08:11:44Z</time>
      </trkpt>
      <trkpt lat="44.71659" lon="5.38796">
        <ele>477.2</ele>
        <time>2022-10-28T08:11:45Z</time>
      </trkpt>
      <trkpt lat="44.71651" lon="5.38799">
        <ele>476.6</ele>
        <time>2022-10-28T08:11:46Z</time>
      </trkpt>
      <trkpt lat="44.71644" lon="5.38804">
        <ele>475.9</ele>
        <time>2022-10-28T08:11:47Z</time>
      </trkpt>
      <trkpt lat="44.71636" lon="5.38809">
        <ele>475.3</ele>
        <time>2022-10-28T08:11:48Z</time>
      </trkpt>
      <trkpt lat="44.71628" lon="5.38815">
        <ele>474.6</ele>
        <time>2022-10-28T08:11:49Z</time>
      </trkpt>
      <trkpt lat="44.71621" lon="5.38821">
        <ele>474.1</ele>
        <time>2022-10-28T08:11:50Z</time>
      </trkpt>
      <trkpt lat="44.71613" lon="5.38828">
        <ele>473.7</ele>
        <time>2022-10-28T08:11:51Z</time>
      </trkpt>
      <trkpt lat="44.71605" lon="5.38834">
        <ele>473.4</ele>
        <time>2022-10-28T08:11:52Z</time>
      </trkpt>
      <trkpt lat="44.71598" lon="5.3884">
        <ele>473.2</ele>
        <time>2022-10-28T08:11:53Z</time>
      </trkpt>
      <trkpt lat="44.7159" lon="5.38846">
        <ele>473.1</ele>
        <time>2022-10-28T08:11:54Z</time>
      </trkpt>
      <trkpt lat="44.71583" lon="5.38851">
        <ele>473</ele>
        <time>2022-10-28T08:11:55Z</time>
      </trkpt>
      <trkpt lat="44.71577" lon="5.38857">
        <ele>472.9</ele>
        <time>2022-10-28T08:11:56Z</time>
      </trkpt>
      <trkpt lat="44.71571" lon="5.38862">
        <ele>472.8</ele>
        <time>2022-10-28T08:11:57Z</time>
      </trkpt>
      <trkpt lat="44.71565" lon="5.38867">
        <ele>472.6</ele>
        <time>2022-10-28T08:11:58Z</time>
      </trkpt>
      <trkpt lat="44.7156" lon="5.38873">
        <ele>472.3</ele>
        <time>2022-10-28T08:11:59Z</time>
      </trkpt>
      <trkpt lat="44.71553" lon="5.38879">
        <ele>472</ele>
        <time>2022-10-28T08:12:00Z</time>
      </trkpt>
      <trkpt lat="44.71547" lon="5.38883">
        <ele>471.7</ele>
        <time>2022-10-28T08:12:01Z</time>
      </trkpt>
      <trkpt lat="44.71541" lon="5.38889">
        <ele>471.3</ele>
        <time>2022-10-28T08:12:02Z</time>
      </trkpt>
      <trkpt lat="44.71535" lon="5.38894">
        <ele>470.9</ele>
        <time>2022-10-28T08:12:03Z</time>
      </trkpt>
      <trkpt lat="44.71529" lon="5.38901">
        <ele>470.6</ele>
        <time>2022-10-28T08:12:04Z</time>
      </trkpt>
      <trkpt lat="44.71523" lon="5.38908">
        <ele>470.2</ele>
        <time>2022-10-28T08:12:05Z</time>
      </trkpt>
      <trkpt lat="44.71518" lon="5.38915">
        <ele>469.8</ele>
        <time>2022-10-28T08:12:06Z</time>
      </trkpt>
      <trkpt lat="44.71514" lon="5.38925">
        <ele>469.4</ele>
        <time>2022-10-28T08:12:07Z</time>
      </trkpt>
      <trkpt lat="44.71509" lon="5.38934">
        <ele>469</ele>
        <time>2022-10-28T08:12:08Z</time>
      </trkpt>
      <trkpt lat="44.71505" lon="5.38943">
        <ele>468.7</ele>
        <time>2022-10-28T08:12:09Z</time>
      </trkpt>
      <trkpt lat="44.715" lon="5.38952">
        <ele>468.4</ele>
        <time>2022-10-28T08:12:10Z</time>
      </trkpt>
      <trkpt lat="44.71494" lon="5.38959">
        <ele>468.1</ele>
        <time>2022-10-28T08:12:11Z</time>
      </trkpt>
      <trkpt lat="44.71488" lon="5.38965">
        <ele>467.8</ele>
        <time>2022-10-28T08:12:12Z</time>
      </trkpt>
      <trkpt lat="44.71481" lon="5.38971">
        <ele>467.4</ele>
        <time>2022-10-28T08:12:13Z</time>
      </trkpt>
      <trkpt lat="44.71475" lon="5.38977">
        <ele>467.1</ele>
        <time>2022-10-28T08:12:14Z</time>
      </trkpt>
      <trkpt lat="44.71469" lon="5.38984">
        <ele>466.7</ele>
        <time>2022-10-28T08:12:15Z</time>
      </trkpt>
      <trkpt lat="44.71463" lon="5.3899">
        <ele>466.3</ele>
        <time>2022-10-28T08:12:16Z</time>
      </trkpt>
      <trkpt lat="44.71456" lon="5.38997">
        <ele>465.8</ele>
        <time>2022-10-28T08:12:17Z</time>
      </trkpt>
      <trkpt lat="44.7145" lon="5.39004">
        <ele>465.4</ele>
        <time>2022-10-28T08:12:18Z</time>
      </trkpt>
      <trkpt lat="44.71443" lon="5.3901">
        <ele>465</ele>
        <time>2022-10-28T08:12:19Z</time>
      </trkpt>
      <trkpt lat="44.71437" lon="5.39016">
        <ele>464.7</ele>
        <time>2022-10-28T08:12:20Z</time>
      </trkpt>
      <trkpt lat="44.7143" lon="5.39023">
        <ele>464.3</ele>
        <time>2022-10-28T08:12:21Z</time>
      </trkpt>
      <trkpt lat="44.71424" lon="5.3903">
        <ele>464</ele>
        <time>2022-10-28T08:12:22Z</time>
      </trkpt>
      <trkpt lat="44.71418" lon="5.39037">
        <ele>463.7</ele>
        <time>2022-10-28T08:12:23Z</time>
      </trkpt>
      <trkpt lat="44.71412" lon="5.39045">
        <ele>463.5</ele>
        <time>2022-10-28T08:12:24Z</time>
      </trkpt>
      <trkpt lat="44.71407" lon="5.39054">
        <ele>463.3</ele>
        <time>2022-10-28T08:12:25Z</time>
      </trkpt>
      <trkpt lat="44.71402" lon="5.39063">
        <ele>463</ele>
        <time>2022-10-28T08:12:26Z</time>
      </trkpt>
      <trkpt lat="44.71398" lon="5.39072">
        <ele>462.9</ele>
        <time>2022-10-28T08:12:27Z</time>
      </trkpt>
      <trkpt lat="44.71393" lon="5.3908">
        <ele>462.7</ele>
        <time>2022-10-28T08:12:28Z</time>
      </trkpt>
      <trkpt lat="44.71388" lon="5.39087">
        <ele>462.5</ele>
        <time>2022-10-28T08:12:29Z</time>
      </trkpt>
      <trkpt lat="44.71382" lon="5.39094">
        <ele>462.2</ele>
        <time>2022-10-28T08:12:30Z</time>
      </trkpt>
      <trkpt lat="44.71377" lon="5.391">
        <ele>461.9</ele>
        <time>2022-10-28T08:12:31Z</time>
      </trkpt>
      <trkpt lat="44.71371" lon="5.39106">
        <ele>461.6</ele>
        <time>2022-10-28T08:12:32Z</time>
      </trkpt>
      <trkpt lat="44.71364" lon="5.39113">
        <ele>461.2</ele>
        <time>2022-10-28T08:12:33Z</time>
      </trkpt>
      <trkpt lat="44.71358" lon="5.39119">
        <ele>460.8</ele>
        <time>2022-10-28T08:12:34Z</time>
      </trkpt>
      <trkpt lat="44.71351" lon="5.39126">
        <ele>460.4</ele>
        <time>2022-10-28T08:12:35Z</time>
      </trkpt>
      <trkpt lat="44.71344" lon="5.39132">
        <ele>460.1</ele>
        <time>2022-10-28T08:12:36Z</time>
      </trkpt>
      <trkpt lat="44.71338" lon="5.39138">
        <ele>459.9</ele>
        <time>2022-10-28T08:12:37Z</time>
      </trkpt>
      <trkpt lat="44.71332" lon="5.39145">
        <ele>459.9</ele>
        <time>2022-10-28T08:12:38Z</time>
      </trkpt>
      <trkpt lat="44.71326" lon="5.39151">
        <ele>459.8</ele>
        <time>2022-10-28T08:12:39Z</time>
      </trkpt>
      <trkpt lat="44.71322" lon="5.39158">
        <ele>459.8</ele>
        <time>2022-10-28T08:12:40Z</time>
      </trkpt>
      <trkpt lat="44.71318" lon="5.39166">
        <ele>459.8</ele>
        <time>2022-10-28T08:12:41Z</time>
      </trkpt>
      <trkpt lat="44.71316" lon="5.39174">
        <ele>459.8</ele>
        <time>2022-10-28T08:12:42Z</time>
      </trkpt>
      <trkpt lat="44.71313" lon="5.39181">
        <ele>459.8</ele>
        <time>2022-10-28T08:12:43Z</time>
      </trkpt>
      <trkpt lat="44.71309" lon="5.39187">
        <ele>459.7</ele>
        <time>2022-10-28T08:12:44Z</time>
      </trkpt>
      <trkpt lat="44.71306" lon="5.39193">
        <ele>459.7</ele>
        <time>2022-10-28T08:12:45Z</time>
      </trkpt>
      <trkpt lat="44.71302" lon="5.39199">
        <ele>459.5</ele>
        <time>2022-10-28T08:12:46Z</time>
      </trkpt>
      <trkpt lat="44.71298" lon="5.39205">
        <ele>459.4</ele>
        <time>2022-10-28T08:12:47Z</time>
      </trkpt>
      <trkpt lat="44.71294" lon="5.39212">
        <ele>459.1</ele>
        <time>2022-10-28T08:12:48Z</time>
      </trkpt>
      <trkpt lat="44.7129" lon="5.39218">
        <ele>458.9</ele>
        <time>2022-10-28T08:12:49Z</time>
      </trkpt>
      <trkpt lat="44.71285" lon="5.39224">
        <ele>458.6</ele>
        <time>2022-10-28T08:12:50Z</time>
      </trkpt>
      <trkpt lat="44.7128" lon="5.39231">
        <ele>458.3</ele>
        <time>2022-10-28T08:12:51Z</time>
      </trkpt>
      <trkpt lat="44.71275" lon="5.39237">
        <ele>458</ele>
        <time>2022-10-28T08:12:52Z</time>
      </trkpt>
      <trkpt lat="44.7127" lon="5.39244">
        <ele>457.8</ele>
        <time>2022-10-28T08:12:53Z</time>
      </trkpt>
      <trkpt lat="44.71265" lon="5.3925">
        <ele>457.5</ele>
        <time>2022-10-28T08:12:54Z</time>
      </trkpt>
      <trkpt lat="44.7126" lon="5.39257">
        <ele>457.3</ele>
        <time>2022-10-28T08:12:55Z</time>
      </trkpt>
      <trkpt lat="44.71255" lon="5.39264">
        <ele>457.1</ele>
        <time>2022-10-28T08:12:56Z</time>
      </trkpt>
      <trkpt lat="44.7125" lon="5.39271">
        <ele>456.9</ele>
        <time>2022-10-28T08:12:57Z</time>
      </trkpt>
      <trkpt lat="44.71245" lon="5.39277">
        <ele>456.8</ele>
        <time>2022-10-28T08:12:58Z</time>
      </trkpt>
      <trkpt lat="44.7124" lon="5.39283">
        <ele>456.6</ele>
        <time>2022-10-28T08:12:59Z</time>
      </trkpt>
      <trkpt lat="44.71235" lon="5.39289">
        <ele>456.5</ele>
        <time>2022-10-28T08:13:00Z</time>
      </trkpt>
      <trkpt lat="44.7123" lon="5.39294">
        <ele>456.4</ele>
        <time>2022-10-28T08:13:01Z</time>
      </trkpt>
      <trkpt lat="44.71225" lon="5.39299">
        <ele>456.2</ele>
        <time>2022-10-28T08:13:02Z</time>
      </trkpt>
      <trkpt lat="44.7122" lon="5.39304">
        <ele>455.9</ele>
        <time>2022-10-28T08:13:03Z</time>
      </trkpt>
      <trkpt lat="44.71215" lon="5.3931">
        <ele>455.6</ele>
        <time>2022-10-28T08:13:04Z</time>
      </trkpt>
      <trkpt lat="44.7121" lon="5.39317">
        <ele>455.3</ele>
        <time>2022-10-28T08:13:05Z</time>
      </trkpt>
      <trkpt lat="44.71204" lon="5.39323">
        <ele>454.9</ele>
        <time>2022-10-28T08:13:06Z</time>
      </trkpt>
      <trkpt lat="44.71199" lon="5.3933">
        <ele>454.6</ele>
        <time>2022-10-28T08:13:07Z</time>
      </trkpt>
      <trkpt lat="44.71194" lon="5.39336">
        <ele>454.3</ele>
        <time>2022-10-28T08:13:08Z</time>
      </trkpt>
      <trkpt lat="44.71189" lon="5.39343">
        <ele>454</ele>
        <time>2022-10-28T08:13:09Z</time>
      </trkpt>
      <trkpt lat="44.71184" lon="5.39349">
        <ele>453.7</ele>
        <time>2022-10-28T08:13:10Z</time>
      </trkpt>
      <trkpt lat="44.71179" lon="5.39356">
        <ele>453.4</ele>
        <time>2022-10-28T08:13:11Z</time>
      </trkpt>
      <trkpt lat="44.71173" lon="5.39363">
        <ele>453.1</ele>
        <time>2022-10-28T08:13:12Z</time>
      </trkpt>
      <trkpt lat="44.71168" lon="5.39369">
        <ele>452.8</ele>
        <time>2022-10-28T08:13:13Z</time>
      </trkpt>
      <trkpt lat="44.71162" lon="5.39376">
        <ele>452.4</ele>
        <time>2022-10-28T08:13:14Z</time>
      </trkpt>
      <trkpt lat="44.71157" lon="5.39383">
        <ele>452</ele>
        <time>2022-10-28T08:13:15Z</time>
      </trkpt>
      <trkpt lat="44.71151" lon="5.39391">
        <ele>451.6</ele>
        <time>2022-10-28T08:13:16Z</time>
      </trkpt>
      <trkpt lat="44.71145" lon="5.39398">
        <ele>451.1</ele>
        <time>2022-10-28T08:13:17Z</time>
      </trkpt>
      <trkpt lat="44.71139" lon="5.39406">
        <ele>450.6</ele>
        <time>2022-10-28T08:13:18Z</time>
      </trkpt>
      <trkpt lat="44.71133" lon="5.39414">
        <ele>450.1</ele>
        <time>2022-10-28T08:13:19Z</time>
      </trkpt>
      <trkpt lat="44.71127" lon="5.39422">
        <ele>449.5</ele>
        <time>2022-10-28T08:13:20Z</time>
      </trkpt>
      <trkpt lat="44.7112" lon="5.39429">
        <ele>448.9</ele>
        <time>2022-10-28T08:13:21Z</time>
      </trkpt>
      <trkpt lat="44.71113" lon="5.39437">
        <ele>448.2</ele>
        <time>2022-10-28T08:13:22Z</time>
      </trkpt>
      <trkpt lat="44.71107" lon="5.39445">
        <ele>447.4</ele>
        <time>2022-10-28T08:13:23Z</time>
      </trkpt>
      <trkpt lat="44.711" lon="5.39454">
        <ele>446.5</ele>
        <time>2022-10-28T08:13:24Z</time>
      </trkpt>
      <trkpt lat="44.71092" lon="5.39463">
        <ele>445.6</ele>
        <time>2022-10-28T08:13:25Z</time>
      </trkpt>
      <trkpt lat="44.71084" lon="5.39473">
        <ele>444.8</ele>
        <time>2022-10-28T08:13:26Z</time>
      </trkpt>
      <trkpt lat="44.71077" lon="5.39482">
        <ele>444.3</ele>
        <time>2022-10-28T08:13:27Z</time>
      </trkpt>
      <trkpt lat="44.7107" lon="5.39491">
        <ele>444</ele>
        <time>2022-10-28T08:13:28Z</time>
      </trkpt>
      <trkpt lat="44.71063" lon="5.395">
        <ele>443.9</ele>
        <time>2022-10-28T08:13:29Z</time>
      </trkpt>
      <trkpt lat="44.71056" lon="5.39507">
        <ele>443.9</ele>
        <time>2022-10-28T08:13:30Z</time>
      </trkpt>
      <trkpt lat="44.71049" lon="5.39512">
        <ele>443.9</ele>
        <time>2022-10-28T08:13:31Z</time>
      </trkpt>
      <trkpt lat="44.71042" lon="5.39514">
        <ele>443.9</ele>
        <time>2022-10-28T08:13:32Z</time>
      </trkpt>
      <trkpt lat="44.71035" lon="5.39515">
        <ele>443.5</ele>
        <time>2022-10-28T08:13:33Z</time>
      </trkpt>
      <trkpt lat="44.71028" lon="5.39516">
        <ele>443.2</ele>
        <time>2022-10-28T08:13:34Z</time>
      </trkpt>
      <trkpt lat="44.7102" lon="5.39517">
        <ele>442.9</ele>
        <time>2022-10-28T08:13:35Z</time>
      </trkpt>
      <trkpt lat="44.71013" lon="5.39518">
        <ele>442.7</ele>
        <time>2022-10-28T08:13:36Z</time>
      </trkpt>
      <trkpt lat="44.71005" lon="5.39519">
        <ele>442.4</ele>
        <time>2022-10-28T08:13:37Z</time>
      </trkpt>
      <trkpt lat="44.70998" lon="5.39519">
        <ele>442.2</ele>
        <time>2022-10-28T08:13:38Z</time>
      </trkpt>
      <trkpt lat="44.7099" lon="5.39521">
        <ele>442</ele>
        <time>2022-10-28T08:13:39Z</time>
      </trkpt>
      <trkpt lat="44.70984" lon="5.39522">
        <ele>441.7</ele>
        <time>2022-10-28T08:13:40Z</time>
      </trkpt>
      <trkpt lat="44.70977" lon="5.39524">
        <ele>441.4</ele>
        <time>2022-10-28T08:13:41Z</time>
      </trkpt>
      <trkpt lat="44.7097" lon="5.39526">
        <ele>441.1</ele>
        <time>2022-10-28T08:13:42Z</time>
      </trkpt>
      <trkpt lat="44.70963" lon="5.39528">
        <ele>440.7</ele>
        <time>2022-10-28T08:13:43Z</time>
      </trkpt>
      <trkpt lat="44.70955" lon="5.3953">
        <ele>440.3</ele>
        <time>2022-10-28T08:13:44Z</time>
      </trkpt>
      <trkpt lat="44.70946" lon="5.39531">
        <ele>440</ele>
        <time>2022-10-28T08:13:45Z</time>
      </trkpt>
      <trkpt lat="44.70938" lon="5.39533">
        <ele>439.8</ele>
        <time>2022-10-28T08:13:46Z</time>
      </trkpt>
      <trkpt lat="44.7093" lon="5.39534">
        <ele>439.7</ele>
        <time>2022-10-28T08:13:47Z</time>
      </trkpt>
      <trkpt lat="44.70922" lon="5.39535">
        <ele>439.6</ele>
        <time>2022-10-28T08:13:48Z</time>
      </trkpt>
      <trkpt lat="44.70914" lon="5.39536">
        <ele>439.4</ele>
        <time>2022-10-28T08:13:49Z</time>
      </trkpt>
      <trkpt lat="44.70907" lon="5.39538">
        <ele>439.3</ele>
        <time>2022-10-28T08:13:50Z</time>
      </trkpt>
      <trkpt lat="44.70899" lon="5.39539">
        <ele>439.3</ele>
        <time>2022-10-28T08:13:51Z</time>
      </trkpt>
      <trkpt lat="44.70892" lon="5.39541">
        <ele>439.2</ele>
        <time>2022-10-28T08:13:52Z</time>
      </trkpt>
      <trkpt lat="44.70886" lon="5.39542">
        <ele>439.1</ele>
        <time>2022-10-28T08:13:53Z</time>
      </trkpt>
      <trkpt lat="44.70879" lon="5.39544">
        <ele>439.1</ele>
        <time>2022-10-28T08:13:54Z</time>
      </trkpt>
      <trkpt lat="44.70873" lon="5.39546">
        <ele>439</ele>
        <time>2022-10-28T08:13:55Z</time>
      </trkpt>
      <trkpt lat="44.70866" lon="5.39547">
        <ele>439</ele>
        <time>2022-10-28T08:13:56Z</time>
      </trkpt>
      <trkpt lat="44.70861" lon="5.39548">
        <ele>439</ele>
        <time>2022-10-28T08:13:57Z</time>
      </trkpt>
      <trkpt lat="44.70855" lon="5.3955">
        <ele>439</ele>
        <time>2022-10-28T08:13:58Z</time>
      </trkpt>
      <trkpt lat="44.70849" lon="5.39551">
        <ele>439</ele>
        <time>2022-10-28T08:13:59Z</time>
      </trkpt>
      <trkpt lat="44.70843" lon="5.39553">
        <ele>439.1</ele>
        <time>2022-10-28T08:14:00Z</time>
      </trkpt>
      <trkpt lat="44.70838" lon="5.39554">
        <ele>439.1</ele>
        <time>2022-10-28T08:14:01Z</time>
      </trkpt>
      <trkpt lat="44.70833" lon="5.39555">
        <ele>439.2</ele>
        <time>2022-10-28T08:14:02Z</time>
      </trkpt>
      <trkpt lat="44.70828" lon="5.39556">
        <ele>439.3</ele>
        <time>2022-10-28T08:14:03Z</time>
      </trkpt>
      <trkpt lat="44.70823" lon="5.39557">
        <ele>439.3</ele>
        <time>2022-10-28T08:14:04Z</time>
      </trkpt>
      <trkpt lat="44.70817" lon="5.39558">
        <ele>439.4</ele>
        <time>2022-10-28T08:14:05Z</time>
      </trkpt>
      <trkpt lat="44.70813" lon="5.3956">
        <ele>439.5</ele>
        <time>2022-10-28T08:14:06Z</time>
      </trkpt>
      <trkpt lat="44.70808" lon="5.39562">
        <ele>439.5</ele>
        <time>2022-10-28T08:14:07Z</time>
      </trkpt>
      <trkpt lat="44.70804" lon="5.39563">
        <ele>439.7</ele>
        <time>2022-10-28T08:14:08Z</time>
      </trkpt>
      <trkpt lat="44.70799" lon="5.39565">
        <ele>439.8</ele>
        <time>2022-10-28T08:14:09Z</time>
      </trkpt>
      <trkpt lat="44.70796" lon="5.39566">
        <ele>439.8</ele>
        <time>2022-10-28T08:14:10Z</time>
      </trkpt>
      <trkpt lat="44.70792" lon="5.39566">
        <ele>440</ele>
        <time>2022-10-28T08:14:11Z</time>
      </trkpt>
      <trkpt lat="44.70788" lon="5.39567">
        <ele>440.1</ele>
        <time>2022-10-28T08:14:12Z</time>
      </trkpt>
      <trkpt lat="44.70785" lon="5.39567">
        <ele>440.2</ele>
        <time>2022-10-28T08:14:13Z</time>
      </trkpt>
      <trkpt lat="44.70781" lon="5.39568">
        <ele>440.3</ele>
        <time>2022-10-28T08:14:14Z</time>
      </trkpt>
      <trkpt lat="44.70777" lon="5.39569">
        <ele>440.4</ele>
        <time>2022-10-28T08:14:15Z</time>
      </trkpt>
      <trkpt lat="44.70775" lon="5.39569">
        <ele>440.4</ele>
        <time>2022-10-28T08:14:16Z</time>
      </trkpt>
      <trkpt lat="44.70772" lon="5.3957">
        <ele>440.5</ele>
        <time>2022-10-28T08:14:17Z</time>
      </trkpt>
      <trkpt lat="44.70769" lon="5.39571">
        <ele>440.6</ele>
        <time>2022-10-28T08:14:18Z</time>
      </trkpt>
      <trkpt lat="44.70765" lon="5.39572">
        <ele>440.7</ele>
        <time>2022-10-28T08:14:19Z</time>
      </trkpt>
      <trkpt lat="44.70762" lon="5.39572">
        <ele>440.8</ele>
        <time>2022-10-28T08:14:20Z</time>
      </trkpt>
      <trkpt lat="44.70759" lon="5.39573">
        <ele>440.9</ele>
        <time>2022-10-28T08:14:21Z</time>
      </trkpt>
      <trkpt lat="44.70756" lon="5.39573">
        <ele>441</ele>
        <time>2022-10-28T08:14:22Z</time>
      </trkpt>
      <trkpt lat="44.70752" lon="5.39574">
        <ele>441.2</ele>
        <time>2022-10-28T08:14:23Z</time>
      </trkpt>
      <trkpt lat="44.70749" lon="5.39575">
        <ele>441.3</ele>
        <time>2022-10-28T08:14:24Z</time>
      </trkpt>
      <trkpt lat="44.70746" lon="5.39576">
        <ele>441.4</ele>
        <time>2022-10-28T08:14:25Z</time>
      </trkpt>
      <trkpt lat="44.70743" lon="5.39577">
        <ele>441.5</ele>
        <time>2022-10-28T08:14:26Z</time>
      </trkpt>
      <trkpt lat="44.7074" lon="5.39577">
        <ele>441.6</ele>
        <time>2022-10-28T08:14:27Z</time>
      </trkpt>
      <trkpt lat="44.70737" lon="5.39578">
        <ele>441.8</ele>
        <time>2022-10-28T08:14:28Z</time>
      </trkpt>
      <trkpt lat="44.70733" lon="5.39579">
        <ele>441.9</ele>
        <time>2022-10-28T08:14:29Z</time>
      </trkpt>
      <trkpt lat="44.70732" lon="5.39579">
        <ele>442</ele>
        <time>2022-10-28T08:14:30Z</time>
      </trkpt>
      <trkpt lat="44.70729" lon="5.3958">
        <ele>442.1</ele>
        <time>2022-10-28T08:14:31Z</time>
      </trkpt>
      <trkpt lat="44.70726" lon="5.39581">
        <ele>442.3</ele>
        <time>2022-10-28T08:14:32Z</time>
      </trkpt>
      <trkpt lat="44.70722" lon="5.39582">
        <ele>442.5</ele>
        <time>2022-10-28T08:14:33Z</time>
      </trkpt>
      <trkpt lat="44.70721" lon="5.39582">
        <ele>442.5</ele>
        <time>2022-10-28T08:14:34Z</time>
      </trkpt>
      <trkpt lat="44.70717" lon="5.39583">
        <ele>442.7</ele>
        <time>2022-10-28T08:14:35Z</time>
      </trkpt>
      <trkpt lat="44.70716" lon="5.39583">
        <ele>442.8</ele>
        <time>2022-10-28T08:14:36Z</time>
      </trkpt>
      <trkpt lat="44.70712" lon="5.39583">
        <ele>443</ele>
        <time>2022-10-28T08:14:37Z</time>
      </trkpt>
      <trkpt lat="44.70711" lon="5.39584">
        <ele>443.1</ele>
        <time>2022-10-28T08:14:38Z</time>
      </trkpt>
      <trkpt lat="44.70709" lon="5.39584">
        <ele>443.2</ele>
        <time>2022-10-28T08:14:39Z</time>
      </trkpt>
      <trkpt lat="44.70708" lon="5.39584">
        <ele>443.4</ele>
        <time>2022-10-28T08:14:40Z</time>
      </trkpt>
      <trkpt lat="44.70705" lon="5.39585">
        <ele>443.6</ele>
        <time>2022-10-28T08:14:41Z</time>
      </trkpt>
      <trkpt lat="44.70704" lon="5.39585">
        <ele>443.7</ele>
        <time>2022-10-28T08:14:42Z</time>
      </trkpt>
      <trkpt lat="44.70702" lon="5.39585">
        <ele>443.8</ele>
        <time>2022-10-28T08:14:43Z</time>
      </trkpt>
      <trkpt lat="44.707" lon="5.39585">
        <ele>443.9</ele>
        <time>2022-10-28T08:14:44Z</time>
      </trkpt>
      <trkpt lat="44.70698" lon="5.39585">
        <ele>444.1</ele>
        <time>2022-10-28T08:14:45Z</time>
      </trkpt>
      <trkpt lat="44.70697" lon="5.39586">
        <ele>444.2</ele>
        <time>2022-10-28T08:14:46Z</time>
      </trkpt>
      <trkpt lat="44.70696" lon="5.39586">
        <ele>444.3</ele>
        <time>2022-10-28T08:14:47Z</time>
      </trkpt>
      <trkpt lat="44.70694" lon="5.39587">
        <ele>444.5</ele>
        <time>2022-10-28T08:14:48Z</time>
      </trkpt>
      <trkpt lat="44.70691" lon="5.39589">
        <ele>444.5</ele>
        <time>2022-10-28T08:14:49Z</time>
      </trkpt>
      <trkpt lat="44.7069" lon="5.39589">
        <ele>444.5</ele>
        <time>2022-10-28T08:14:50Z</time>
      </trkpt>
      <trkpt lat="44.70689" lon="5.39589">
        <ele>444.5</ele>
        <time>2022-10-28T08:14:51Z</time>
      </trkpt>
      <trkpt lat="44.70687" lon="5.3959">
        <ele>444.5</ele>
        <time>2022-10-28T08:14:52Z</time>
      </trkpt>
      <trkpt lat="44.70686" lon="5.3959">
        <ele>444.5</ele>
        <time>2022-10-28T08:14:53Z</time>
      </trkpt>
      <trkpt lat="44.70685" lon="5.39589">
        <ele>444.5</ele>
        <time>2022-10-28T08:14:54Z</time>
      </trkpt>
      <trkpt lat="44.70685" lon="5.39589">
        <ele>444.5</ele>
        <time>2022-10-28T08:14:55Z</time>
      </trkpt>
      <trkpt lat="44.70685" lon="5.39588">
        <ele>444.6</ele>
        <time>2022-10-28T08:14:56Z</time>
      </trkpt>
      <trkpt lat="44.70685" lon="5.39588">
        <ele>444.6</ele>
        <time>2022-10-28T08:14:57Z</time>
      </trkpt>
      <trkpt lat="44.70685" lon="5.39588">
        <ele>444.6</ele>
        <time>2022-10-28T08:14:58Z</time>
      </trkpt>
      <trkpt lat="44.70685" lon="5.39588">
        <ele>444.6</ele>
        <time>2022-10-28T08:14:59Z</time>
      </trkpt>
      <trkpt lat="44.70685" lon="5.39588">
        <ele>444.6</ele>
        <time>2022-10-28T08:15:00Z</time>
      </trkpt>
      <trkpt lat="44.70685" lon="5.39588">
        <ele>444.6</ele>
        <time>2022-10-28T08:15:01Z</time>
      </trkpt>
      <trkpt lat="44.70685" lon="5.39588">
        <ele>444.6</ele>
        <time>2022-10-28T08:15:02Z</time>
      </trkpt>
      <trkpt lat="44.70685" lon="5.39587">
        <ele>444.6</ele>
        <time>2022-10-28T08:15:03Z</time>
      </trkpt>
      <trkpt lat="44.70685" lon="5.39587">
        <ele>444.6</ele>
        <time>2022-10-28T08:15:04Z</time>
      </trkpt>
      <trkpt lat="44.70686" lon="5.39587">
        <ele>444.6</ele>
        <time>2022-10-28T08:15:05Z</time>
      </trkpt>
      <trkpt lat="44.70687" lon="5.39586">
        <ele>444.6</ele>
        <time>2022-10-28T08:19:44Z</time>
      </trkpt>
      <trkpt lat="44.70687" lon="5.39586">
        <ele>444.6</ele>
        <time>2022-10-28T08:19:45Z</time>
      </trkpt>
      <trkpt lat="44.70687" lon="5.39586">
        <ele>444.6</ele>
        <time>2022-10-28T08:19:46Z</time>
      </trkpt>
      <trkpt lat="44.70687" lon="5.39586">
        <ele>444.6</ele>
        <time>2022-10-28T08:19:47Z</time>
      </trkpt>
      <trkpt lat="44.70688" lon="5.39586">
        <ele>444.6</ele>
        <time>2022-10-28T08:19:48Z</time>
      </trkpt>
      <trkpt lat="44.70688" lon="5.39586">
        <ele>444.6</ele>
        <time>2022-10-28T08:19:49Z</time>
      </trkpt>
      <trkpt lat="44.70688" lon="5.39586">
        <ele>444.6</ele>
        <time>2022-10-28T08:19:50Z</time>
      </trkpt>
      <trkpt lat="44.70688" lon="5.39586">
        <ele>444.6</ele>
        <time>2022-10-28T08:19:51Z</time>
      </trkpt>
      <trkpt lat="44.70688" lon="5.39586">
        <ele>444.6</ele>
        <time>2022-10-28T08:19:52Z</time>
      </trkpt>
      <trkpt lat="44.70688" lon="5.39586">
        <ele>444.6</ele>
        <time>2022-10-28T08:19:53Z</time>
      </trkpt>
      <trkpt lat="44.70688" lon="5.39586">
        <ele>444.6</ele>
        <time>2022-10-28T08:19:54Z</time>
      </trkpt>
      <trkpt lat="44.70688" lon="5.39586">
        <ele>444.6</ele>
        <time>2022-10-28T08:19:55Z</time>
      </trkpt>
      <trkpt lat="44.70688" lon="5.39586">
        <ele>444.6</ele>
        <time>2022-10-28T08:19:56Z</time>
      </trkpt>
      <trkpt lat="44.70688" lon="5.39586">
        <ele>444.6</ele>
        <time>2022-10-28T08:19:57Z</time>
      </trkpt>
      <trkpt lat="44.70688" lon="5.39586">
        <ele>444.6</ele>
        <time>2022-10-28T08:19:58Z</time>
      </trkpt>
      <trkpt lat="44.70688" lon="5.39586">
        <ele>444.6</ele>
        <time>2022-10-28T08:19:59Z</time>
      </trkpt>
      <trkpt lat="44.70688" lon="5.39586">
        <ele>444.6</ele>
        <time>2022-10-28T08:20:00Z</time>
      </trkpt>
      <trkpt lat="44.70688" lon="5.39586">
        <ele>444.6</ele>
        <time>2022-10-28T08:20:01Z</time>
      </trkpt>
      <trkpt lat="44.70688" lon="5.39586">
        <ele>444.6</ele>
        <time>2022-10-28T08:20:02Z</time>
      </trkpt>
      <trkpt lat="44.70688" lon="5.39586">
        <ele>444.6</ele>
        <time>2022-10-28T08:20:03Z</time>
      </trkpt>
      <trkpt lat="44.70688" lon="5.39586">
        <ele>444.6</ele>
        <time>2022-10-28T08:20:04Z</time>
      </trkpt>
      <trkpt lat="44.70688" lon="5.39586">
        <ele>444.6</ele>
        <time>2022-10-28T08:20:05Z</time>
      </trkpt>
      <trkpt lat="44.70688" lon="5.39586">
        <ele>444.6</ele>
        <time>2022-10-28T08:20:06Z</time>
      </trkpt>
      <trkpt lat="44.70688" lon="5.39586">
        <ele>444.6</ele>
        <time>2022-10-28T08:20:07Z</time>
      </trkpt>
      <trkpt lat="44.70688" lon="5.39586">
        <ele>444.6</ele>
        <time>2022-10-28T08:20:08Z</time>
      </trkpt>
      <trkpt lat="44.70688" lon="5.39586">
        <ele>444.6</ele>
        <time>2022-10-28T08:20:09Z</time>
      </trkpt>
      <trkpt lat="44.70688" lon="5.39586">
        <ele>444.6</ele>
        <time>2022-10-28T08:20:10Z</time>
      </trkpt>
      <trkpt lat="44.70688" lon="5.39586">
        <ele>444.6</ele>
        <time>2022-10-28T08:20:11Z</time>
      </trkpt>
      <trkpt lat="44.70688" lon="5.39586">
        <ele>444.6</ele>
        <time>2022-10-28T08:20:12Z</time>
      </trkpt>
      <trkpt lat="44.70688" lon="5.39586">
        <ele>444.6</ele>
        <time>2022-10-28T08:20:13Z</time>
      </trkpt>
      <trkpt lat="44.70688" lon="5.39586">
        <ele>444.6</ele>
        <time>2022-10-28T08:20:14Z</time>
      </trkpt>
      <trkpt lat="44.70688" lon="5.39586">
        <ele>444.6</ele>
        <time>2022-10-28T08:20:15Z</time>
      </trkpt>
      <trkpt lat="44.70688" lon="5.39586">
        <ele>444.6</ele>
        <time>2022-10-28T08:20:16Z</time>
      </trkpt>
      <trkpt lat="44.70688" lon="5.39586">
        <ele>444.6</ele>
        <time>2022-10-28T08:20:17Z</time>
      </trkpt>
      <trkpt lat="44.70688" lon="5.39586">
        <ele>444.6</ele>
        <time>2022-10-28T08:20:18Z</time>
      </trkpt>
      <trkpt lat="44.70688" lon="5.39586">
        <ele>444.6</ele>
        <time>2022-10-28T08:20:19Z</time>
      </trkpt>
      <trkpt lat="44.70688" lon="5.39586">
        <ele>444.6</ele>
        <time>2022-10-28T08:20:20Z</time>
      </trkpt>
      <trkpt lat="44.70688" lon="5.39586">
        <ele>444.6</ele>
        <time>2022-10-28T08:20:21Z</time>
      </trkpt>
      <trkpt lat="44.70688" lon="5.39586">
        <ele>444.6</ele>
        <time>2022-10-28T08:20:22Z</time>
      </trkpt>
      <trkpt lat="44.70688" lon="5.39586">
        <ele>444.6</ele>
        <time>2022-10-28T08:20:23Z</time>
      </trkpt>
      <trkpt lat="44.70688" lon="5.39586">
        <ele>444.6</ele>
        <time>2022-10-28T08:20:24Z</time>
      </trkpt>
      <trkpt lat="44.70688" lon="5.39586">
        <ele>444.6</ele>
        <time>2022-10-28T08:20:25Z</time>
      </trkpt>
      <trkpt lat="44.70688" lon="5.39586">
        <ele>444.6</ele>
        <time>2022-10-28T08:20:26Z</time>
      </trkpt>
      <trkpt lat="44.70688" lon="5.39586">
        <ele>444.6</ele>
        <time>2022-10-28T08:20:27Z</time>
      </trkpt>
      <trkpt lat="44.70688" lon="5.39586">
        <ele>444.6</ele>
        <time>2022-10-28T08:20:28Z</time>
      </trkpt>
      <trkpt lat="44.70688" lon="5.39586">
        <ele>444.6</ele>
        <time>2022-10-28T08:20:29Z</time>
      </trkpt>
      <trkpt lat="44.70688" lon="5.39586">
        <ele>444.6</ele>
        <time>2022-10-28T08:20:30Z</time>
      </trkpt>
      <trkpt lat="44.70688" lon="5.39587">
        <ele>444.6</ele>
        <time>2022-10-28T08:20:31Z</time>
      </trkpt>
      <trkpt lat="44.70688" lon="5.39587">
        <ele>444.6</ele>
        <time>2022-10-28T08:20:32Z</time>
      </trkpt>
      <trkpt lat="44.70688" lon="5.39588">
        <ele>444.6</ele>
        <time>2022-10-28T08:20:33Z</time>
      </trkpt>
      <trkpt lat="44.70688" lon="5.39589">
        <ele>444.6</ele>
        <time>2022-10-28T08:20:34Z</time>
      </trkpt>
      <trkpt lat="44.70688" lon="5.39589">
        <ele>444.6</ele>
        <time>2022-10-28T08:20:35Z</time>
      </trkpt>
      <trkpt lat="44.70687" lon="5.3959">
        <ele>444.6</ele>
        <time>2022-10-28T08:20:36Z</time>
      </trkpt>
      <trkpt lat="44.70686" lon="5.39589">
        <ele>444.6</ele>
        <time>2022-10-28T08:20:37Z</time>
      </trkpt>
      <trkpt lat="44.70686" lon="5.39589">
        <ele>444.6</ele>
        <time>2022-10-28T08:20:38Z</time>
      </trkpt>
      <trkpt lat="44.70686" lon="5.39589">
        <ele>444.6</ele>
        <time>2022-10-28T08:20:39Z</time>
      </trkpt>
      <trkpt lat="44.70686" lon="5.39589">
        <ele>444.6</ele>
        <time>2022-10-28T08:20:40Z</time>
      </trkpt>
      <trkpt lat="44.70686" lon="5.39589">
        <ele>444.6</ele>
        <time>2022-10-28T08:20:41Z</time>
      </trkpt>
      <trkpt lat="44.70686" lon="5.39589">
        <ele>444.6</ele>
        <time>2022-10-28T08:20:42Z</time>
      </trkpt>
      <trkpt lat="44.70686" lon="5.39589">
        <ele>444.6</ele>
        <time>2022-10-28T08:20:43Z</time>
      </trkpt>
      <trkpt lat="44.70686" lon="5.39589">
        <ele>444.6</ele>
        <time>2022-10-28T08:20:44Z</time>
      </trkpt>
      <trkpt lat="44.70686" lon="5.39589">
        <ele>444.6</ele>
        <time>2022-10-28T08:20:45Z</time>
      </trkpt>
      <trkpt lat="44.70686" lon="5.39589">
        <ele>444.6</ele>
        <time>2022-10-28T08:20:46Z</time>
      </trkpt>
      <trkpt lat="44.70685" lon="5.39589">
        <ele>444.6</ele>
        <time>2022-10-28T08:21:21Z</time>
      </trkpt>
      <trkpt lat="44.70683" lon="5.39589">
        <ele>444.6</ele>
        <time>2022-10-28T08:21:22Z</time>
      </trkpt>
      <trkpt lat="44.70684" lon="5.39589">
        <ele>444.6</ele>
        <time>2022-10-28T08:21:23Z</time>
      </trkpt>
      <trkpt lat="44.70684" lon="5.39589">
        <ele>444.6</ele>
        <time>2022-10-28T08:21:24Z</time>
      </trkpt>
      <trkpt lat="44.70682" lon="5.3959">
        <ele>444.6</ele>
        <time>2022-10-28T08:21:25Z</time>
      </trkpt>
      <trkpt lat="44.70678" lon="5.39592">
        <ele>444.7</ele>
        <time>2022-10-28T08:21:26Z</time>
      </trkpt>
      <trkpt lat="44.70674" lon="5.39593">
        <ele>444.7</ele>
        <time>2022-10-28T08:21:27Z</time>
      </trkpt>
      <trkpt lat="44.7067" lon="5.39594">
        <ele>444.7</ele>
        <time>2022-10-28T08:21:28Z</time>
      </trkpt>
      <trkpt lat="44.70666" lon="5.39596">
        <ele>444.8</ele>
        <time>2022-10-28T08:21:30Z</time>
      </trkpt>
      <trkpt lat="44.70662" lon="5.39597">
        <ele>444.8</ele>
        <time>2022-10-28T08:21:31Z</time>
      </trkpt>
      <trkpt lat="44.70658" lon="5.39598">
        <ele>444.9</ele>
        <time>2022-10-28T08:21:32Z</time>
      </trkpt>
      <trkpt lat="44.70655" lon="5.39598">
        <ele>444.9</ele>
        <time>2022-10-28T08:21:33Z</time>
      </trkpt>
      <trkpt lat="44.70652" lon="5.39599">
        <ele>444.9</ele>
        <time>2022-10-28T08:21:34Z</time>
      </trkpt>
      <trkpt lat="44.70648" lon="5.396">
        <ele>445</ele>
        <time>2022-10-28T08:21:35Z</time>
      </trkpt>
      <trkpt lat="44.70645" lon="5.39601">
        <ele>445</ele>
        <time>2022-10-28T08:21:36Z</time>
      </trkpt>
      <trkpt lat="44.70642" lon="5.39602">
        <ele>445.1</ele>
        <time>2022-10-28T08:21:37Z</time>
      </trkpt>
      <trkpt lat="44.70638" lon="5.39603">
        <ele>445.2</ele>
        <time>2022-10-28T08:21:39Z</time>
      </trkpt>
      <trkpt lat="44.70632" lon="5.39605">
        <ele>445.3</ele>
        <time>2022-10-28T08:21:40Z</time>
      </trkpt>
      <trkpt lat="44.7063" lon="5.39607">
        <ele>445.3</ele>
        <time>2022-10-28T08:21:41Z</time>
      </trkpt>
      <trkpt lat="44.70626" lon="5.39609">
        <ele>445.4</ele>
        <time>2022-10-28T08:21:42Z</time>
      </trkpt>
      <trkpt lat="44.70624" lon="5.39612">
        <ele>445.5</ele>
        <time>2022-10-28T08:21:43Z</time>
      </trkpt>
      <trkpt lat="44.70621" lon="5.39615">
        <ele>445.6</ele>
        <time>2022-10-28T08:21:44Z</time>
      </trkpt>
      <trkpt lat="44.70618" lon="5.3962">
        <ele>445.7</ele>
        <time>2022-10-28T08:21:46Z</time>
      </trkpt>
      <trkpt lat="44.70615" lon="5.39623">
        <ele>445.8</ele>
        <time>2022-10-28T08:21:47Z</time>
      </trkpt>
      <trkpt lat="44.70612" lon="5.39627">
        <ele>445.9</ele>
        <time>2022-10-28T08:21:48Z</time>
      </trkpt>
      <trkpt lat="44.70609" lon="5.39629">
        <ele>446</ele>
        <time>2022-10-28T08:21:49Z</time>
      </trkpt>
      <trkpt lat="44.70606" lon="5.39632">
        <ele>446.1</ele>
        <time>2022-10-28T08:21:50Z</time>
      </trkpt>
      <trkpt lat="44.70603" lon="5.39635">
        <ele>446.2</ele>
        <time>2022-10-28T08:21:52Z</time>
      </trkpt>
      <trkpt lat="44.706" lon="5.39639">
        <ele>446.3</ele>
        <time>2022-10-28T08:21:53Z</time>
      </trkpt>
      <trkpt lat="44.70596" lon="5.39644">
        <ele>446.4</ele>
        <time>2022-10-28T08:21:55Z</time>
      </trkpt>
      <trkpt lat="44.70593" lon="5.39648">
        <ele>446.5</ele>
        <time>2022-10-28T08:21:56Z</time>
      </trkpt>
      <trkpt lat="44.7059" lon="5.39651">
        <ele>446.6</ele>
        <time>2022-10-28T08:21:57Z</time>
      </trkpt>
      <trkpt lat="44.70587" lon="5.39655">
        <ele>446.7</ele>
        <time>2022-10-28T08:21:58Z</time>
      </trkpt>
      <trkpt lat="44.70584" lon="5.39661">
        <ele>446.8</ele>
        <time>2022-10-28T08:22:00Z</time>
      </trkpt>
      <trkpt lat="44.70582" lon="5.39665">
        <ele>446.9</ele>
        <time>2022-10-28T08:22:01Z</time>
      </trkpt>
      <trkpt lat="44.7058" lon="5.39669">
        <ele>447</ele>
        <time>2022-10-28T08:22:02Z</time>
      </trkpt>
      <trkpt lat="44.70579" lon="5.39672">
        <ele>447.1</ele>
        <time>2022-10-28T08:22:03Z</time>
      </trkpt>
      <trkpt lat="44.70577" lon="5.39677">
        <ele>447.2</ele>
        <time>2022-10-28T08:22:04Z</time>
      </trkpt>
      <trkpt lat="44.70576" lon="5.39679">
        <ele>447.2</ele>
        <time>2022-10-28T08:22:05Z</time>
      </trkpt>
      <trkpt lat="44.70575" lon="5.39684">
        <ele>447.3</ele>
        <time>2022-10-28T08:22:06Z</time>
      </trkpt>
      <trkpt lat="44.70574" lon="5.39686">
        <ele>447.3</ele>
        <time>2022-10-28T08:22:07Z</time>
      </trkpt>
      <trkpt lat="44.70572" lon="5.39691">
        <ele>447.3</ele>
        <time>2022-10-28T08:22:09Z</time>
      </trkpt>
      <trkpt lat="44.70571" lon="5.39696">
        <ele>447.3</ele>
        <time>2022-10-28T08:22:10Z</time>
      </trkpt>
      <trkpt lat="44.70569" lon="5.39701">
        <ele>447.2</ele>
        <time>2022-10-28T08:22:11Z</time>
      </trkpt>
      <trkpt lat="44.70568" lon="5.39706">
        <ele>447.2</ele>
        <time>2022-10-28T08:22:12Z</time>
      </trkpt>
      <trkpt lat="44.70566" lon="5.39712">
        <ele>447.1</ele>
        <time>2022-10-28T08:22:13Z</time>
      </trkpt>
      <trkpt lat="44.70565" lon="5.3972">
        <ele>447</ele>
        <time>2022-10-28T08:22:15Z</time>
      </trkpt>
      <trkpt lat="44.70564" lon="5.39728">
        <ele>446.9</ele>
        <time>2022-10-28T08:22:16Z</time>
      </trkpt>
      <trkpt lat="44.70561" lon="5.39737">
        <ele>446.8</ele>
        <time>2022-10-28T08:22:17Z</time>
      </trkpt>
      <trkpt lat="44.7056" lon="5.39743">
        <ele>446.8</ele>
        <time>2022-10-28T08:22:19Z</time>
      </trkpt>
      <trkpt lat="44.70559" lon="5.39751">
        <ele>446.7</ele>
        <time>2022-10-28T08:22:20Z</time>
      </trkpt>
      <trkpt lat="44.70556" lon="5.39758">
        <ele>446.6</ele>
        <time>2022-10-28T08:22:21Z</time>
      </trkpt>
      <trkpt lat="44.70554" lon="5.39765">
        <ele>446.6</ele>
        <time>2022-10-28T08:22:22Z</time>
      </trkpt>
      <trkpt lat="44.70553" lon="5.39771">
        <ele>446.6</ele>
        <time>2022-10-28T08:22:23Z</time>
      </trkpt>
      <trkpt lat="44.70551" lon="5.39777">
        <ele>446.5</ele>
        <time>2022-10-28T08:22:24Z</time>
      </trkpt>
      <trkpt lat="44.70549" lon="5.39783">
        <ele>446.5</ele>
        <time>2022-10-28T08:22:25Z</time>
      </trkpt>
      <trkpt lat="44.70548" lon="5.3979">
        <ele>446.4</ele>
        <time>2022-10-28T08:22:26Z</time>
      </trkpt>
      <trkpt lat="44.70546" lon="5.39796">
        <ele>446.4</ele>
        <time>2022-10-28T08:22:27Z</time>
      </trkpt>
      <trkpt lat="44.70544" lon="5.39802">
        <ele>446.4</ele>
        <time>2022-10-28T08:22:28Z</time>
      </trkpt>
      <trkpt lat="44.70542" lon="5.39808">
        <ele>446.3</ele>
        <time>2022-10-28T08:22:29Z</time>
      </trkpt>
      <trkpt lat="44.70541" lon="5.39814">
        <ele>446.3</ele>
        <time>2022-10-28T08:22:31Z</time>
      </trkpt>
      <trkpt lat="44.70537" lon="5.39826">
        <ele>446.2</ele>
        <time>2022-10-28T08:22:32Z</time>
      </trkpt>
      <trkpt lat="44.70536" lon="5.39832">
        <ele>446.2</ele>
        <time>2022-10-28T08:22:33Z</time>
      </trkpt>
      <trkpt lat="44.70534" lon="5.39838">
        <ele>446.1</ele>
        <time>2022-10-28T08:22:34Z</time>
      </trkpt>
      <trkpt lat="44.70532" lon="5.39844">
        <ele>446.1</ele>
        <time>2022-10-28T08:22:35Z</time>
      </trkpt>
      <trkpt lat="44.70531" lon="5.3985">
        <ele>446</ele>
        <time>2022-10-28T08:22:36Z</time>
      </trkpt>
      <trkpt lat="44.7053" lon="5.39857">
        <ele>446</ele>
        <time>2022-10-28T08:22:37Z</time>
      </trkpt>
      <trkpt lat="44.70528" lon="5.39863">
        <ele>446</ele>
        <time>2022-10-28T08:22:38Z</time>
      </trkpt>
      <trkpt lat="44.70527" lon="5.39869">
        <ele>446</ele>
        <time>2022-10-28T08:22:39Z</time>
      </trkpt>
      <trkpt lat="44.70525" lon="5.39875">
        <ele>446</ele>
        <time>2022-10-28T08:22:40Z</time>
      </trkpt>
      <trkpt lat="44.70524" lon="5.39881">
        <ele>446</ele>
        <time>2022-10-28T08:22:41Z</time>
      </trkpt>
      <trkpt lat="44.70523" lon="5.39886">
        <ele>446.1</ele>
        <time>2022-10-28T08:22:42Z</time>
      </trkpt>
      <trkpt lat="44.70522" lon="5.3989">
        <ele>446.1</ele>
        <time>2022-10-28T08:22:43Z</time>
      </trkpt>
      <trkpt lat="44.7052" lon="5.39896">
        <ele>446.1</ele>
        <time>2022-10-28T08:22:44Z</time>
      </trkpt>
      <trkpt lat="44.70518" lon="5.39901">
        <ele>446.2</ele>
        <time>2022-10-28T08:22:45Z</time>
      </trkpt>
      <trkpt lat="44.70517" lon="5.39909">
        <ele>446.2</ele>
        <time>2022-10-28T08:22:47Z</time>
      </trkpt>
      <trkpt lat="44.70514" lon="5.39915">
        <ele>446.3</ele>
        <time>2022-10-28T08:22:48Z</time>
      </trkpt>
      <trkpt lat="44.70511" lon="5.39919">
        <ele>446.3</ele>
        <time>2022-10-28T08:22:49Z</time>
      </trkpt>
      <trkpt lat="44.70506" lon="5.39917">
        <ele>446.4</ele>
        <time>2022-10-28T08:22:50Z</time>
      </trkpt>
      <trkpt lat="44.70504" lon="5.39916">
        <ele>446.4</ele>
        <time>2022-10-28T08:22:51Z</time>
      </trkpt>
      <trkpt lat="44.705" lon="5.39914">
        <ele>446.4</ele>
        <time>2022-10-28T08:22:52Z</time>
      </trkpt>
      <trkpt lat="44.70496" lon="5.39912">
        <ele>446.4</ele>
        <time>2022-10-28T08:22:53Z</time>
      </trkpt>
      <trkpt lat="44.70493" lon="5.39911">
        <ele>446.5</ele>
        <time>2022-10-28T08:22:54Z</time>
      </trkpt>
      <trkpt lat="44.70489" lon="5.39909">
        <ele>446.5</ele>
        <time>2022-10-28T08:22:55Z</time>
      </trkpt>
      <trkpt lat="44.70485" lon="5.39908">
        <ele>446.5</ele>
        <time>2022-10-28T08:22:56Z</time>
      </trkpt>
      <trkpt lat="44.70481" lon="5.39906">
        <ele>446.6</ele>
        <time>2022-10-28T08:22:57Z</time>
      </trkpt>
      <trkpt lat="44.70477" lon="5.39904">
        <ele>446.6</ele>
        <time>2022-10-28T08:22:58Z</time>
      </trkpt>
      <trkpt lat="44.70473" lon="5.39903">
        <ele>446.7</ele>
        <time>2022-10-28T08:22:59Z</time>
      </trkpt>
      <trkpt lat="44.70468" lon="5.39901">
        <ele>446.7</ele>
        <time>2022-10-28T08:23:00Z</time>
      </trkpt>
      <trkpt lat="44.70466" lon="5.399">
        <ele>446.7</ele>
        <time>2022-10-28T08:23:01Z</time>
      </trkpt>
      <trkpt lat="44.70462" lon="5.39899">
        <ele>446.8</ele>
        <time>2022-10-28T08:23:02Z</time>
      </trkpt>
      <trkpt lat="44.70458" lon="5.39897">
        <ele>446.8</ele>
        <time>2022-10-28T08:23:03Z</time>
      </trkpt>
      <trkpt lat="44.70454" lon="5.39896">
        <ele>446.9</ele>
        <time>2022-10-28T08:23:04Z</time>
      </trkpt>
      <trkpt lat="44.70451" lon="5.39895">
        <ele>446.9</ele>
        <time>2022-10-28T08:23:05Z</time>
      </trkpt>
      <trkpt lat="44.70446" lon="5.39893">
        <ele>446.9</ele>
        <time>2022-10-28T08:23:06Z</time>
      </trkpt>
      <trkpt lat="44.70442" lon="5.39892">
        <ele>447</ele>
        <time>2022-10-28T08:23:07Z</time>
      </trkpt>
      <trkpt lat="44.70438" lon="5.39891">
        <ele>447</ele>
        <time>2022-10-28T08:23:08Z</time>
      </trkpt>
      <trkpt lat="44.70435" lon="5.3989">
        <ele>447.1</ele>
        <time>2022-10-28T08:23:09Z</time>
      </trkpt>
      <trkpt lat="44.7043" lon="5.39888">
        <ele>447.1</ele>
        <time>2022-10-28T08:23:10Z</time>
      </trkpt>
      <trkpt lat="44.70425" lon="5.39887">
        <ele>447.2</ele>
        <time>2022-10-28T08:23:11Z</time>
      </trkpt>
      <trkpt lat="44.70422" lon="5.39885">
        <ele>447.2</ele>
        <time>2022-10-28T08:23:12Z</time>
      </trkpt>
      <trkpt lat="44.70418" lon="5.39884">
        <ele>447.2</ele>
        <time>2022-10-28T08:23:13Z</time>
      </trkpt>
      <trkpt lat="44.70414" lon="5.39882">
        <ele>447.3</ele>
        <time>2022-10-28T08:23:14Z</time>
      </trkpt>
      <trkpt lat="44.70409" lon="5.3988">
        <ele>447.3</ele>
        <time>2022-10-28T08:23:15Z</time>
      </trkpt>
      <trkpt lat="44.70406" lon="5.39879">
        <ele>447.4</ele>
        <time>2022-10-28T08:23:16Z</time>
      </trkpt>
      <trkpt lat="44.70403" lon="5.39877">
        <ele>447.4</ele>
        <time>2022-10-28T08:23:17Z</time>
      </trkpt>
      <trkpt lat="44.70398" lon="5.39875">
        <ele>447.5</ele>
        <time>2022-10-28T08:23:18Z</time>
      </trkpt>
      <trkpt lat="44.70395" lon="5.39873">
        <ele>447.5</ele>
        <time>2022-10-28T08:23:19Z</time>
      </trkpt>
      <trkpt lat="44.70391" lon="5.39871">
        <ele>447.6</ele>
        <time>2022-10-28T08:23:20Z</time>
      </trkpt>
      <trkpt lat="44.70387" lon="5.39868">
        <ele>447.6</ele>
        <time>2022-10-28T08:23:21Z</time>
      </trkpt>
      <trkpt lat="44.70383" lon="5.39865">
        <ele>447.6</ele>
        <time>2022-10-28T08:23:22Z</time>
      </trkpt>
      <trkpt lat="44.7038" lon="5.39862">
        <ele>447.7</ele>
        <time>2022-10-28T08:23:23Z</time>
      </trkpt>
      <trkpt lat="44.70377" lon="5.3986">
        <ele>447.7</ele>
        <time>2022-10-28T08:23:24Z</time>
      </trkpt>
      <trkpt lat="44.70372" lon="5.39856">
        <ele>447.8</ele>
        <time>2022-10-28T08:23:25Z</time>
      </trkpt>
      <trkpt lat="44.70368" lon="5.39853">
        <ele>447.8</ele>
        <time>2022-10-28T08:23:26Z</time>
      </trkpt>
      <trkpt lat="44.70366" lon="5.39851">
        <ele>447.9</ele>
        <time>2022-10-28T08:23:27Z</time>
      </trkpt>
      <trkpt lat="44.70362" lon="5.39848">
        <ele>447.9</ele>
        <time>2022-10-28T08:23:28Z</time>
      </trkpt>
      <trkpt lat="44.70358" lon="5.39844">
        <ele>448</ele>
        <time>2022-10-28T08:23:29Z</time>
      </trkpt>
      <trkpt lat="44.70354" lon="5.39841">
        <ele>448.1</ele>
        <time>2022-10-28T08:23:30Z</time>
      </trkpt>
      <trkpt lat="44.7035" lon="5.39839">
        <ele>448.1</ele>
        <time>2022-10-28T08:23:31Z</time>
      </trkpt>
      <trkpt lat="44.70346" lon="5.39836">
        <ele>448.2</ele>
        <time>2022-10-28T08:23:32Z</time>
      </trkpt>
      <trkpt lat="44.70343" lon="5.39833">
        <ele>448.2</ele>
        <time>2022-10-28T08:23:33Z</time>
      </trkpt>
      <trkpt lat="44.70339" lon="5.3983">
        <ele>448.3</ele>
        <time>2022-10-28T08:23:34Z</time>
      </trkpt>
      <trkpt lat="44.70335" lon="5.39827">
        <ele>448.3</ele>
        <time>2022-10-28T08:23:35Z</time>
      </trkpt>
      <trkpt lat="44.70332" lon="5.39824">
        <ele>448.4</ele>
        <time>2022-10-28T08:23:36Z</time>
      </trkpt>
      <trkpt lat="44.70328" lon="5.39821">
        <ele>448.4</ele>
        <time>2022-10-28T08:23:37Z</time>
      </trkpt>
      <trkpt lat="44.70325" lon="5.39819">
        <ele>448.5</ele>
        <time>2022-10-28T08:23:38Z</time>
      </trkpt>
      <trkpt lat="44.70321" lon="5.39816">
        <ele>448.5</ele>
        <time>2022-10-28T08:23:39Z</time>
      </trkpt>
      <trkpt lat="44.70318" lon="5.39814">
        <ele>448.5</ele>
        <time>2022-10-28T08:23:40Z</time>
      </trkpt>
      <trkpt lat="44.70315" lon="5.39811">
        <ele>448.6</ele>
        <time>2022-10-28T08:23:41Z</time>
      </trkpt>
      <trkpt lat="44.70311" lon="5.39808">
        <ele>448.6</ele>
        <time>2022-10-28T08:23:42Z</time>
      </trkpt>
      <trkpt lat="44.70307" lon="5.39805">
        <ele>448.6</ele>
        <time>2022-10-28T08:23:43Z</time>
      </trkpt>
      <trkpt lat="44.70303" lon="5.39802">
        <ele>448.6</ele>
        <time>2022-10-28T08:23:44Z</time>
      </trkpt>
      <trkpt lat="44.703" lon="5.39799">
        <ele>448.7</ele>
        <time>2022-10-28T08:23:45Z</time>
      </trkpt>
      <trkpt lat="44.70297" lon="5.39797">
        <ele>448.7</ele>
        <time>2022-10-28T08:23:46Z</time>
      </trkpt>
      <trkpt lat="44.70292" lon="5.39794">
        <ele>448.7</ele>
        <time>2022-10-28T08:23:47Z</time>
      </trkpt>
      <trkpt lat="44.70289" lon="5.39791">
        <ele>448.7</ele>
        <time>2022-10-28T08:23:48Z</time>
      </trkpt>
      <trkpt lat="44.70285" lon="5.39789">
        <ele>448.8</ele>
        <time>2022-10-28T08:23:49Z</time>
      </trkpt>
      <trkpt lat="44.70282" lon="5.39786">
        <ele>448.8</ele>
        <time>2022-10-28T08:23:50Z</time>
      </trkpt>
      <trkpt lat="44.70278" lon="5.39783">
        <ele>448.9</ele>
        <time>2022-10-28T08:23:51Z</time>
      </trkpt>
      <trkpt lat="44.70274" lon="5.3978">
        <ele>448.9</ele>
        <time>2022-10-28T08:23:52Z</time>
      </trkpt>
      <trkpt lat="44.70271" lon="5.39778">
        <ele>449</ele>
        <time>2022-10-28T08:23:53Z</time>
      </trkpt>
      <trkpt lat="44.70267" lon="5.39775">
        <ele>449</ele>
        <time>2022-10-28T08:23:54Z</time>
      </trkpt>
      <trkpt lat="44.70263" lon="5.39772">
        <ele>449.1</ele>
        <time>2022-10-28T08:23:55Z</time>
      </trkpt>
      <trkpt lat="44.7026" lon="5.39769">
        <ele>449.1</ele>
        <time>2022-10-28T08:23:56Z</time>
      </trkpt>
      <trkpt lat="44.70256" lon="5.39767">
        <ele>449.1</ele>
        <time>2022-10-28T08:23:57Z</time>
      </trkpt>
      <trkpt lat="44.70253" lon="5.39764">
        <ele>449.2</ele>
        <time>2022-10-28T08:23:58Z</time>
      </trkpt>
      <trkpt lat="44.70249" lon="5.39761">
        <ele>449.2</ele>
        <time>2022-10-28T08:23:59Z</time>
      </trkpt>
      <trkpt lat="44.70246" lon="5.39759">
        <ele>449.3</ele>
        <time>2022-10-28T08:24:00Z</time>
      </trkpt>
      <trkpt lat="44.70242" lon="5.39756">
        <ele>449.3</ele>
        <time>2022-10-28T08:24:01Z</time>
      </trkpt>
      <trkpt lat="44.70238" lon="5.39754">
        <ele>449.4</ele>
        <time>2022-10-28T08:24:02Z</time>
      </trkpt>
      <trkpt lat="44.70232" lon="5.3975">
        <ele>449.5</ele>
        <time>2022-10-28T08:24:04Z</time>
      </trkpt>
      <trkpt lat="44.70228" lon="5.39747">
        <ele>449.5</ele>
        <time>2022-10-28T08:24:05Z</time>
      </trkpt>
      <trkpt lat="44.70223" lon="5.39742">
        <ele>449.6</ele>
        <time>2022-10-28T08:24:06Z</time>
      </trkpt>
      <trkpt lat="44.70218" lon="5.39738">
        <ele>449.7</ele>
        <time>2022-10-28T08:24:08Z</time>
      </trkpt>
      <trkpt lat="44.70214" lon="5.39735">
        <ele>449.7</ele>
        <time>2022-10-28T08:24:09Z</time>
      </trkpt>
      <trkpt lat="44.7021" lon="5.39732">
        <ele>449.8</ele>
        <time>2022-10-28T08:24:10Z</time>
      </trkpt>
      <trkpt lat="44.70206" lon="5.39729">
        <ele>449.9</ele>
        <time>2022-10-28T08:24:11Z</time>
      </trkpt>
      <trkpt lat="44.70203" lon="5.39726">
        <ele>449.9</ele>
        <time>2022-10-28T08:24:12Z</time>
      </trkpt>
      <trkpt lat="44.70198" lon="5.39722">
        <ele>450</ele>
        <time>2022-10-28T08:24:13Z</time>
      </trkpt>
      <trkpt lat="44.70194" lon="5.3972">
        <ele>450</ele>
        <time>2022-10-28T08:24:14Z</time>
      </trkpt>
      <trkpt lat="44.7019" lon="5.39717">
        <ele>450.1</ele>
        <time>2022-10-28T08:24:16Z</time>
      </trkpt>
      <trkpt lat="44.70185" lon="5.39714">
        <ele>450.2</ele>
        <time>2022-10-28T08:24:17Z</time>
      </trkpt>
      <trkpt lat="44.7018" lon="5.39711">
        <ele>450.3</ele>
        <time>2022-10-28T08:24:18Z</time>
      </trkpt>
      <trkpt lat="44.70176" lon="5.39707">
        <ele>450.4</ele>
        <time>2022-10-28T08:24:20Z</time>
      </trkpt>
      <trkpt lat="44.70171" lon="5.39704">
        <ele>450.5</ele>
        <time>2022-10-28T08:24:21Z</time>
      </trkpt>
      <trkpt lat="44.70167" lon="5.39702">
        <ele>450.6</ele>
        <time>2022-10-28T08:24:22Z</time>
      </trkpt>
      <trkpt lat="44.70164" lon="5.397">
        <ele>450.6</ele>
        <time>2022-10-28T08:24:23Z</time>
      </trkpt>
      <trkpt lat="44.70158" lon="5.39697">
        <ele>450.7</ele>
        <time>2022-10-28T08:24:25Z</time>
      </trkpt>
      <trkpt lat="44.70152" lon="5.39695">
        <ele>450.8</ele>
        <time>2022-10-28T08:24:26Z</time>
      </trkpt>
      <trkpt lat="44.70146" lon="5.39692">
        <ele>451</ele>
        <time>2022-10-28T08:24:28Z</time>
      </trkpt>
      <trkpt lat="44.70141" lon="5.3969">
        <ele>451</ele>
        <time>2022-10-28T08:24:29Z</time>
      </trkpt>
      <trkpt lat="44.70137" lon="5.39688">
        <ele>451.1</ele>
        <time>2022-10-28T08:24:30Z</time>
      </trkpt>
      <trkpt lat="44.70134" lon="5.39687">
        <ele>451.2</ele>
        <time>2022-10-28T08:24:31Z</time>
      </trkpt>
      <trkpt lat="44.70128" lon="5.39685">
        <ele>451.3</ele>
        <time>2022-10-28T08:24:33Z</time>
      </trkpt>
      <trkpt lat="44.70122" lon="5.39683">
        <ele>451.4</ele>
        <time>2022-10-28T08:24:34Z</time>
      </trkpt>
      <trkpt lat="44.70118" lon="5.39681">
        <ele>451.5</ele>
        <time>2022-10-28T08:24:35Z</time>
      </trkpt>
      <trkpt lat="44.70111" lon="5.39679">
        <ele>451.6</ele>
        <time>2022-10-28T08:24:37Z</time>
      </trkpt>
      <trkpt lat="44.70106" lon="5.39677">
        <ele>451.7</ele>
        <time>2022-10-28T08:24:38Z</time>
      </trkpt>
      <trkpt lat="44.70102" lon="5.39677">
        <ele>451.8</ele>
        <time>2022-10-28T08:24:39Z</time>
      </trkpt>
      <trkpt lat="44.70097" lon="5.39675">
        <ele>451.9</ele>
        <time>2022-10-28T08:24:40Z</time>
      </trkpt>
      <trkpt lat="44.70094" lon="5.39674">
        <ele>452</ele>
        <time>2022-10-28T08:24:41Z</time>
      </trkpt>
      <trkpt lat="44.70089" lon="5.39673">
        <ele>452.1</ele>
        <time>2022-10-28T08:24:43Z</time>
      </trkpt>
      <trkpt lat="44.70082" lon="5.39671">
        <ele>452.2</ele>
        <time>2022-10-28T08:24:44Z</time>
      </trkpt>
      <trkpt lat="44.70078" lon="5.39669">
        <ele>452.3</ele>
        <time>2022-10-28T08:24:46Z</time>
      </trkpt>
      <trkpt lat="44.70071" lon="5.39667">
        <ele>452.4</ele>
        <time>2022-10-28T08:24:47Z</time>
      </trkpt>
      <trkpt lat="44.70065" lon="5.39665">
        <ele>452.5</ele>
        <time>2022-10-28T08:24:49Z</time>
      </trkpt>
      <trkpt lat="44.70059" lon="5.39663">
        <ele>452.7</ele>
        <time>2022-10-28T08:24:50Z</time>
      </trkpt>
      <trkpt lat="44.70052" lon="5.39661">
        <ele>452.8</ele>
        <time>2022-10-28T08:24:52Z</time>
      </trkpt>
      <trkpt lat="44.70048" lon="5.39659">
        <ele>452.9</ele>
        <time>2022-10-28T08:24:53Z</time>
      </trkpt>
      <trkpt lat="44.70043" lon="5.39658">
        <ele>453</ele>
        <time>2022-10-28T08:24:54Z</time>
      </trkpt>
      <trkpt lat="44.70038" lon="5.39656">
        <ele>453.2</ele>
        <time>2022-10-28T08:24:56Z</time>
      </trkpt>
      <trkpt lat="44.70032" lon="5.39654">
        <ele>453.3</ele>
        <time>2022-10-28T08:24:57Z</time>
      </trkpt>
      <trkpt lat="44.70026" lon="5.39652">
        <ele>453.4</ele>
        <time>2022-10-28T08:24:59Z</time>
      </trkpt>
      <trkpt lat="44.70021" lon="5.3965">
        <ele>453.5</ele>
        <time>2022-10-28T08:25:00Z</time>
      </trkpt>
      <trkpt lat="44.70018" lon="5.39649">
        <ele>453.5</ele>
        <time>2022-10-28T08:25:01Z</time>
      </trkpt>
      <trkpt lat="44.70012" lon="5.39647">
        <ele>453.7</ele>
        <time>2022-10-28T08:25:03Z</time>
      </trkpt>
      <trkpt lat="44.70008" lon="5.39645">
        <ele>453.7</ele>
        <time>2022-10-28T08:25:04Z</time>
      </trkpt>
      <trkpt lat="44.70004" lon="5.39643">
        <ele>453.8</ele>
        <time>2022-10-28T08:25:05Z</time>
      </trkpt>
      <trkpt lat="44.69998" lon="5.39641">
        <ele>454</ele>
        <time>2022-10-28T08:25:07Z</time>
      </trkpt>
      <trkpt lat="44.69994" lon="5.3964">
        <ele>454</ele>
        <time>2022-10-28T08:25:08Z</time>
      </trkpt>
      <trkpt lat="44.6999" lon="5.39639">
        <ele>454.1</ele>
        <time>2022-10-28T08:25:09Z</time>
      </trkpt>
      <trkpt lat="44.69985" lon="5.39637">
        <ele>454.3</ele>
        <time>2022-10-28T08:25:10Z</time>
      </trkpt>
      <trkpt lat="44.69982" lon="5.39635">
        <ele>454.3</ele>
        <time>2022-10-28T08:25:11Z</time>
      </trkpt>
      <trkpt lat="44.69976" lon="5.39634">
        <ele>454.5</ele>
        <time>2022-10-28T08:25:13Z</time>
      </trkpt>
      <trkpt lat="44.69972" lon="5.39633">
        <ele>454.6</ele>
        <time>2022-10-28T08:25:14Z</time>
      </trkpt>
      <trkpt lat="44.69968" lon="5.39631">
        <ele>454.7</ele>
        <time>2022-10-28T08:25:15Z</time>
      </trkpt>
      <trkpt lat="44.69965" lon="5.3963">
        <ele>454.8</ele>
        <time>2022-10-28T08:25:16Z</time>
      </trkpt>
      <trkpt lat="44.6996" lon="5.39629">
        <ele>455</ele>
        <time>2022-10-28T08:25:18Z</time>
      </trkpt>
      <trkpt lat="44.69956" lon="5.39627">
        <ele>455.1</ele>
        <time>2022-10-28T08:25:19Z</time>
      </trkpt>
      <trkpt lat="44.69953" lon="5.39626">
        <ele>455.2</ele>
        <time>2022-10-28T08:25:20Z</time>
      </trkpt>
      <trkpt lat="44.6995" lon="5.39625">
        <ele>455.3</ele>
        <time>2022-10-28T08:25:21Z</time>
      </trkpt>
      <trkpt lat="44.69947" lon="5.39624">
        <ele>455.4</ele>
        <time>2022-10-28T08:25:22Z</time>
      </trkpt>
      <trkpt lat="44.69941" lon="5.39622">
        <ele>455.5</ele>
        <time>2022-10-28T08:25:24Z</time>
      </trkpt>
      <trkpt lat="44.69938" lon="5.39621">
        <ele>455.7</ele>
        <time>2022-10-28T08:25:25Z</time>
      </trkpt>
      <trkpt lat="44.69935" lon="5.3962">
        <ele>455.7</ele>
        <time>2022-10-28T08:25:26Z</time>
      </trkpt>
      <trkpt lat="44.69932" lon="5.39619">
        <ele>455.8</ele>
        <time>2022-10-28T08:25:27Z</time>
      </trkpt>
      <trkpt lat="44.69927" lon="5.39617">
        <ele>456</ele>
        <time>2022-10-28T08:25:29Z</time>
      </trkpt>
      <trkpt lat="44.69923" lon="5.39615">
        <ele>456.1</ele>
        <time>2022-10-28T08:25:30Z</time>
      </trkpt>
      <trkpt lat="44.69919" lon="5.39614">
        <ele>456.2</ele>
        <time>2022-10-28T08:25:31Z</time>
      </trkpt>
      <trkpt lat="44.69916" lon="5.39613">
        <ele>456.3</ele>
        <time>2022-10-28T08:25:32Z</time>
      </trkpt>
      <trkpt lat="44.69912" lon="5.39612">
        <ele>456.4</ele>
        <time>2022-10-28T08:25:34Z</time>
      </trkpt>
      <trkpt lat="44.69909" lon="5.39611">
        <ele>456.5</ele>
        <time>2022-10-28T08:25:35Z</time>
      </trkpt>
      <trkpt lat="44.69904" lon="5.39609">
        <ele>456.7</ele>
        <time>2022-10-28T08:25:36Z</time>
      </trkpt>
      <trkpt lat="44.69902" lon="5.39609">
        <ele>456.8</ele>
        <time>2022-10-28T08:25:37Z</time>
      </trkpt>
      <trkpt lat="44.69898" lon="5.39607">
        <ele>456.9</ele>
        <time>2022-10-28T08:25:39Z</time>
      </trkpt>
      <trkpt lat="44.69893" lon="5.39605">
        <ele>457.1</ele>
        <time>2022-10-28T08:25:40Z</time>
      </trkpt>
      <trkpt lat="44.6989" lon="5.39604">
        <ele>457.2</ele>
        <time>2022-10-28T08:25:41Z</time>
      </trkpt>
      <trkpt lat="44.69887" lon="5.39603">
        <ele>457.3</ele>
        <time>2022-10-28T08:25:42Z</time>
      </trkpt>
      <trkpt lat="44.69884" lon="5.39602">
        <ele>457.4</ele>
        <time>2022-10-28T08:25:43Z</time>
      </trkpt>
      <trkpt lat="44.6988" lon="5.396">
        <ele>457.6</ele>
        <time>2022-10-28T08:25:45Z</time>
      </trkpt>
      <trkpt lat="44.69876" lon="5.39599">
        <ele>457.7</ele>
        <time>2022-10-28T08:25:46Z</time>
      </trkpt>
      <trkpt lat="44.69873" lon="5.39597">
        <ele>457.8</ele>
        <time>2022-10-28T08:25:47Z</time>
      </trkpt>
      <trkpt lat="44.6987" lon="5.39596">
        <ele>457.9</ele>
        <time>2022-10-28T08:25:48Z</time>
      </trkpt>
      <trkpt lat="44.69867" lon="5.39595">
        <ele>458</ele>
        <time>2022-10-28T08:25:49Z</time>
      </trkpt>
      <trkpt lat="44.69861" lon="5.39593">
        <ele>458.2</ele>
        <time>2022-10-28T08:25:51Z</time>
      </trkpt>
      <trkpt lat="44.69857" lon="5.39592">
        <ele>458.4</ele>
        <time>2022-10-28T08:25:52Z</time>
      </trkpt>
      <trkpt lat="44.69852" lon="5.3959">
        <ele>458.5</ele>
        <time>2022-10-28T08:25:54Z</time>
      </trkpt>
      <trkpt lat="44.69848" lon="5.39588">
        <ele>458.7</ele>
        <time>2022-10-28T08:25:55Z</time>
      </trkpt>
      <trkpt lat="44.69846" lon="5.39587">
        <ele>458.7</ele>
        <time>2022-10-28T08:25:56Z</time>
      </trkpt>
      <trkpt lat="44.69844" lon="5.39586">
        <ele>458.8</ele>
        <time>2022-10-28T08:25:57Z</time>
      </trkpt>
      <trkpt lat="44.6984" lon="5.39585">
        <ele>458.9</ele>
        <time>2022-10-28T08:25:58Z</time>
      </trkpt>
      <trkpt lat="44.69837" lon="5.39584">
        <ele>459.1</ele>
        <time>2022-10-28T08:25:59Z</time>
      </trkpt>
      <trkpt lat="44.69834" lon="5.39583">
        <ele>459.1</ele>
        <time>2022-10-28T08:26:00Z</time>
      </trkpt>
      <trkpt lat="44.69829" lon="5.39581">
        <ele>459.3</ele>
        <time>2022-10-28T08:26:02Z</time>
      </trkpt>
      <trkpt lat="44.69825" lon="5.39579">
        <ele>459.4</ele>
        <time>2022-10-28T08:26:03Z</time>
      </trkpt>
      <trkpt lat="44.69821" lon="5.39577">
        <ele>459.6</ele>
        <time>2022-10-28T08:26:04Z</time>
      </trkpt>
      <trkpt lat="44.6982" lon="5.39576">
        <ele>459.6</ele>
        <time>2022-10-28T08:26:05Z</time>
      </trkpt>
      <trkpt lat="44.69817" lon="5.39575">
        <ele>459.8</ele>
        <time>2022-10-28T08:26:06Z</time>
      </trkpt>
      <trkpt lat="44.69812" lon="5.39572">
        <ele>459.9</ele>
        <time>2022-10-28T08:26:08Z</time>
      </trkpt>
      <trkpt lat="44.69808" lon="5.3957">
        <ele>460.1</ele>
        <time>2022-10-28T08:26:09Z</time>
      </trkpt>
      <trkpt lat="44.69805" lon="5.39568">
        <ele>460.2</ele>
        <time>2022-10-28T08:26:10Z</time>
      </trkpt>
      <trkpt lat="44.69802" lon="5.39566">
        <ele>460.3</ele>
        <time>2022-10-28T08:26:11Z</time>
      </trkpt>
      <trkpt lat="44.69799" lon="5.39564">
        <ele>460.4</ele>
        <time>2022-10-28T08:26:12Z</time>
      </trkpt>
      <trkpt lat="44.69796" lon="5.39562">
        <ele>460.5</ele>
        <time>2022-10-28T08:26:13Z</time>
      </trkpt>
      <trkpt lat="44.69793" lon="5.39561">
        <ele>460.6</ele>
        <time>2022-10-28T08:26:14Z</time>
      </trkpt>
      <trkpt lat="44.6979" lon="5.39559">
        <ele>460.7</ele>
        <time>2022-10-28T08:26:15Z</time>
      </trkpt>
      <trkpt lat="44.69785" lon="5.39556">
        <ele>460.9</ele>
        <time>2022-10-28T08:26:17Z</time>
      </trkpt>
      <trkpt lat="44.69781" lon="5.39553">
        <ele>460.9</ele>
        <time>2022-10-28T08:26:18Z</time>
      </trkpt>
      <trkpt lat="44.69777" lon="5.3955">
        <ele>461</ele>
        <time>2022-10-28T08:26:19Z</time>
      </trkpt>
      <trkpt lat="44.69773" lon="5.39548">
        <ele>461.1</ele>
        <time>2022-10-28T08:26:20Z</time>
      </trkpt>
      <trkpt lat="44.6977" lon="5.39546">
        <ele>461.2</ele>
        <time>2022-10-28T08:26:21Z</time>
      </trkpt>
      <trkpt lat="44.69766" lon="5.39543">
        <ele>461.2</ele>
        <time>2022-10-28T08:26:22Z</time>
      </trkpt>
      <trkpt lat="44.69762" lon="5.39541">
        <ele>461.3</ele>
        <time>2022-10-28T08:26:24Z</time>
      </trkpt>
      <trkpt lat="44.69758" lon="5.39538">
        <ele>461.3</ele>
        <time>2022-10-28T08:26:25Z</time>
      </trkpt>
      <trkpt lat="44.69753" lon="5.39535">
        <ele>461.3</ele>
        <time>2022-10-28T08:26:26Z</time>
      </trkpt>
      <trkpt lat="44.69747" lon="5.39531">
        <ele>461.3</ele>
        <time>2022-10-28T08:26:28Z</time>
      </trkpt>
      <trkpt lat="44.69742" lon="5.39528">
        <ele>461.3</ele>
        <time>2022-10-28T08:26:29Z</time>
      </trkpt>
      <trkpt lat="44.69736" lon="5.39524">
        <ele>461.3</ele>
        <time>2022-10-28T08:26:31Z</time>
      </trkpt>
      <trkpt lat="44.69729" lon="5.39519">
        <ele>461.3</ele>
        <time>2022-10-28T08:26:32Z</time>
      </trkpt>
      <trkpt lat="44.69725" lon="5.39517">
        <ele>461.3</ele>
        <time>2022-10-28T08:26:33Z</time>
      </trkpt>
      <trkpt lat="44.69721" lon="5.39514">
        <ele>461.3</ele>
        <time>2022-10-28T08:26:34Z</time>
      </trkpt>
      <trkpt lat="44.69716" lon="5.39511">
        <ele>461.3</ele>
        <time>2022-10-28T08:26:35Z</time>
      </trkpt>
      <trkpt lat="44.69712" lon="5.39509">
        <ele>461.3</ele>
        <time>2022-10-28T08:26:36Z</time>
      </trkpt>
      <trkpt lat="44.69708" lon="5.39506">
        <ele>461.2</ele>
        <time>2022-10-28T08:26:37Z</time>
      </trkpt>
      <trkpt lat="44.69704" lon="5.39503">
        <ele>461.2</ele>
        <time>2022-10-28T08:26:38Z</time>
      </trkpt>
      <trkpt lat="44.69699" lon="5.395">
        <ele>461.2</ele>
        <time>2022-10-28T08:26:39Z</time>
      </trkpt>
      <trkpt lat="44.69695" lon="5.39498">
        <ele>461.2</ele>
        <time>2022-10-28T08:26:40Z</time>
      </trkpt>
      <trkpt lat="44.69691" lon="5.39495">
        <ele>461.2</ele>
        <time>2022-10-28T08:26:41Z</time>
      </trkpt>
      <trkpt lat="44.69687" lon="5.39493">
        <ele>461.2</ele>
        <time>2022-10-28T08:26:42Z</time>
      </trkpt>
      <trkpt lat="44.69683" lon="5.3949">
        <ele>461.2</ele>
        <time>2022-10-28T08:26:43Z</time>
      </trkpt>
      <trkpt lat="44.6968" lon="5.39487">
        <ele>461.2</ele>
        <time>2022-10-28T08:26:45Z</time>
      </trkpt>
      <trkpt lat="44.69674" lon="5.39483">
        <ele>461.2</ele>
        <time>2022-10-28T08:26:46Z</time>
      </trkpt>
      <trkpt lat="44.6967" lon="5.3948">
        <ele>461.3</ele>
        <time>2022-10-28T08:26:47Z</time>
      </trkpt>
      <trkpt lat="44.69663" lon="5.39477">
        <ele>461.3</ele>
        <time>2022-10-28T08:26:49Z</time>
      </trkpt>
      <trkpt lat="44.69656" lon="5.39472">
        <ele>461.3</ele>
        <time>2022-10-28T08:26:50Z</time>
      </trkpt>
      <trkpt lat="44.69651" lon="5.3947">
        <ele>461.3</ele>
        <time>2022-10-28T08:26:51Z</time>
      </trkpt>
      <trkpt lat="44.69646" lon="5.39466">
        <ele>461.3</ele>
        <time>2022-10-28T08:26:53Z</time>
      </trkpt>
      <trkpt lat="44.69641" lon="5.39463">
        <ele>461.3</ele>
        <time>2022-10-28T08:26:54Z</time>
      </trkpt>
      <trkpt lat="44.69636" lon="5.3946">
        <ele>461.4</ele>
        <time>2022-10-28T08:26:55Z</time>
      </trkpt>
      <trkpt lat="44.69631" lon="5.39457">
        <ele>461.4</ele>
        <time>2022-10-28T08:26:56Z</time>
      </trkpt>
      <trkpt lat="44.69625" lon="5.39454">
        <ele>461.5</ele>
        <time>2022-10-28T08:26:58Z</time>
      </trkpt>
      <trkpt lat="44.69622" lon="5.39451">
        <ele>461.5</ele>
        <time>2022-10-28T08:26:59Z</time>
      </trkpt>
      <trkpt lat="44.69618" lon="5.39449">
        <ele>461.6</ele>
        <time>2022-10-28T08:27:00Z</time>
      </trkpt>
      <trkpt lat="44.69613" lon="5.39446">
        <ele>461.7</ele>
        <time>2022-10-28T08:27:01Z</time>
      </trkpt>
      <trkpt lat="44.69609" lon="5.39443">
        <ele>461.8</ele>
        <time>2022-10-28T08:27:02Z</time>
      </trkpt>
      <trkpt lat="44.69605" lon="5.39441">
        <ele>461.9</ele>
        <time>2022-10-28T08:27:04Z</time>
      </trkpt>
      <trkpt lat="44.696" lon="5.39438">
        <ele>462</ele>
        <time>2022-10-28T08:27:05Z</time>
      </trkpt>
      <trkpt lat="44.69596" lon="5.39435">
        <ele>462.1</ele>
        <time>2022-10-28T08:27:06Z</time>
      </trkpt>
      <trkpt lat="44.69592" lon="5.39432">
        <ele>462.2</ele>
        <time>2022-10-28T08:27:07Z</time>
      </trkpt>
      <trkpt lat="44.69587" lon="5.3943">
        <ele>462.3</ele>
        <time>2022-10-28T08:27:08Z</time>
      </trkpt>
      <trkpt lat="44.69584" lon="5.39428">
        <ele>462.4</ele>
        <time>2022-10-28T08:27:09Z</time>
      </trkpt>
      <trkpt lat="44.69581" lon="5.39425">
        <ele>462.5</ele>
        <time>2022-10-28T08:27:10Z</time>
      </trkpt>
      <trkpt lat="44.69577" lon="5.39423">
        <ele>462.6</ele>
        <time>2022-10-28T08:27:11Z</time>
      </trkpt>
      <trkpt lat="44.69571" lon="5.39418">
        <ele>462.8</ele>
        <time>2022-10-28T08:27:13Z</time>
      </trkpt>
      <trkpt lat="44.69567" lon="5.39416">
        <ele>462.9</ele>
        <time>2022-10-28T08:27:14Z</time>
      </trkpt>
      <trkpt lat="44.69563" lon="5.39413">
        <ele>463</ele>
        <time>2022-10-28T08:27:15Z</time>
      </trkpt>
      <trkpt lat="44.69559" lon="5.39411">
        <ele>463.1</ele>
        <time>2022-10-28T08:27:16Z</time>
      </trkpt>
      <trkpt lat="44.69554" lon="5.39408">
        <ele>463.2</ele>
        <time>2022-10-28T08:27:18Z</time>
      </trkpt>
      <trkpt lat="44.6955" lon="5.39405">
        <ele>463.3</ele>
        <time>2022-10-28T08:27:19Z</time>
      </trkpt>
      <trkpt lat="44.69546" lon="5.39403">
        <ele>463.4</ele>
        <time>2022-10-28T08:27:20Z</time>
      </trkpt>
      <trkpt lat="44.69542" lon="5.394">
        <ele>463.5</ele>
        <time>2022-10-28T08:27:21Z</time>
      </trkpt>
      <trkpt lat="44.69537" lon="5.39398">
        <ele>463.6</ele>
        <time>2022-10-28T08:27:23Z</time>
      </trkpt>
      <trkpt lat="44.69533" lon="5.39395">
        <ele>463.7</ele>
        <time>2022-10-28T08:27:24Z</time>
      </trkpt>
      <trkpt lat="44.69529" lon="5.39393">
        <ele>463.8</ele>
        <time>2022-10-28T08:27:25Z</time>
      </trkpt>
      <trkpt lat="44.69524" lon="5.3939">
        <ele>463.9</ele>
        <time>2022-10-28T08:27:26Z</time>
      </trkpt>
      <trkpt lat="44.6952" lon="5.39388">
        <ele>464</ele>
        <time>2022-10-28T08:27:27Z</time>
      </trkpt>
      <trkpt lat="44.69516" lon="5.39385">
        <ele>464.1</ele>
        <time>2022-10-28T08:27:29Z</time>
      </trkpt>
      <trkpt lat="44.69511" lon="5.39382">
        <ele>464.3</ele>
        <time>2022-10-28T08:27:30Z</time>
      </trkpt>
      <trkpt lat="44.69506" lon="5.39379">
        <ele>464.4</ele>
        <time>2022-10-28T08:27:31Z</time>
      </trkpt>
      <trkpt lat="44.695" lon="5.39375">
        <ele>464.5</ele>
        <time>2022-10-28T08:27:33Z</time>
      </trkpt>
      <trkpt lat="44.69494" lon="5.39371">
        <ele>464.7</ele>
        <time>2022-10-28T08:27:34Z</time>
      </trkpt>
      <trkpt lat="44.6949" lon="5.39369">
        <ele>464.8</ele>
        <time>2022-10-28T08:27:36Z</time>
      </trkpt>
      <trkpt lat="44.69485" lon="5.39366">
        <ele>464.9</ele>
        <time>2022-10-28T08:27:37Z</time>
      </trkpt>
      <trkpt lat="44.69481" lon="5.39364">
        <ele>465</ele>
        <time>2022-10-28T08:27:38Z</time>
      </trkpt>
      <trkpt lat="44.69476" lon="5.39361">
        <ele>465.1</ele>
        <time>2022-10-28T08:27:39Z</time>
      </trkpt>
      <trkpt lat="44.69472" lon="5.39358">
        <ele>465.2</ele>
        <time>2022-10-28T08:27:40Z</time>
      </trkpt>
      <trkpt lat="44.6947" lon="5.39357">
        <ele>465.3</ele>
        <time>2022-10-28T08:27:41Z</time>
      </trkpt>
      <trkpt lat="44.69466" lon="5.39354">
        <ele>465.4</ele>
        <time>2022-10-28T08:27:42Z</time>
      </trkpt>
      <trkpt lat="44.69462" lon="5.39352">
        <ele>465.5</ele>
        <time>2022-10-28T08:27:43Z</time>
      </trkpt>
      <trkpt lat="44.69459" lon="5.3935">
        <ele>465.6</ele>
        <time>2022-10-28T08:27:44Z</time>
      </trkpt>
      <trkpt lat="44.69455" lon="5.39348">
        <ele>465.7</ele>
        <time>2022-10-28T08:27:45Z</time>
      </trkpt>
      <trkpt lat="44.69451" lon="5.39346">
        <ele>465.8</ele>
        <time>2022-10-28T08:27:46Z</time>
      </trkpt>
      <trkpt lat="44.69447" lon="5.39343">
        <ele>465.9</ele>
        <time>2022-10-28T08:27:47Z</time>
      </trkpt>
      <trkpt lat="44.69442" lon="5.39341">
        <ele>466</ele>
        <time>2022-10-28T08:27:49Z</time>
      </trkpt>
      <trkpt lat="44.69438" lon="5.39339">
        <ele>466.1</ele>
        <time>2022-10-28T08:27:50Z</time>
      </trkpt>
      <trkpt lat="44.69433" lon="5.39337">
        <ele>466.2</ele>
        <time>2022-10-28T08:27:51Z</time>
      </trkpt>
      <trkpt lat="44.69428" lon="5.39334">
        <ele>466.3</ele>
        <time>2022-10-28T08:27:52Z</time>
      </trkpt>
      <trkpt lat="44.69423" lon="5.39331">
        <ele>466.4</ele>
        <time>2022-10-28T08:27:54Z</time>
      </trkpt>
      <trkpt lat="44.69418" lon="5.39328">
        <ele>466.5</ele>
        <time>2022-10-28T08:27:55Z</time>
      </trkpt>
      <trkpt lat="44.69412" lon="5.39325">
        <ele>466.5</ele>
        <time>2022-10-28T08:27:57Z</time>
      </trkpt>
      <trkpt lat="44.69407" lon="5.39323">
        <ele>466.6</ele>
        <time>2022-10-28T08:27:58Z</time>
      </trkpt>
      <trkpt lat="44.69403" lon="5.3932">
        <ele>466.6</ele>
        <time>2022-10-28T08:27:59Z</time>
      </trkpt>
      <trkpt lat="44.69398" lon="5.39318">
        <ele>466.7</ele>
        <time>2022-10-28T08:28:00Z</time>
      </trkpt>
      <trkpt lat="44.69393" lon="5.39315">
        <ele>466.7</ele>
        <time>2022-10-28T08:28:02Z</time>
      </trkpt>
      <trkpt lat="44.69386" lon="5.39312">
        <ele>466.7</ele>
        <time>2022-10-28T08:28:03Z</time>
      </trkpt>
      <trkpt lat="44.69381" lon="5.3931">
        <ele>466.7</ele>
        <time>2022-10-28T08:28:05Z</time>
      </trkpt>
      <trkpt lat="44.69376" lon="5.39307">
        <ele>466.8</ele>
        <time>2022-10-28T08:28:06Z</time>
      </trkpt>
      <trkpt lat="44.69371" lon="5.39305">
        <ele>466.8</ele>
        <time>2022-10-28T08:28:07Z</time>
      </trkpt>
      <trkpt lat="44.69366" lon="5.39303">
        <ele>466.8</ele>
        <time>2022-10-28T08:28:08Z</time>
      </trkpt>
      <trkpt lat="44.69362" lon="5.39301">
        <ele>466.8</ele>
        <time>2022-10-28T08:28:09Z</time>
      </trkpt>
      <trkpt lat="44.69353" lon="5.39297">
        <ele>466.8</ele>
        <time>2022-10-28T08:28:11Z</time>
      </trkpt>
      <trkpt lat="44.69348" lon="5.39295">
        <ele>466.8</ele>
        <time>2022-10-28T08:28:12Z</time>
      </trkpt>
      <trkpt lat="44.69344" lon="5.39293">
        <ele>466.8</ele>
        <time>2022-10-28T08:28:13Z</time>
      </trkpt>
      <trkpt lat="44.69339" lon="5.39291">
        <ele>466.8</ele>
        <time>2022-10-28T08:28:14Z</time>
      </trkpt>
      <trkpt lat="44.69335" lon="5.3929">
        <ele>466.8</ele>
        <time>2022-10-28T08:28:15Z</time>
      </trkpt>
      <trkpt lat="44.6933" lon="5.39288">
        <ele>466.8</ele>
        <time>2022-10-28T08:28:16Z</time>
      </trkpt>
      <trkpt lat="44.69326" lon="5.39286">
        <ele>466.8</ele>
        <time>2022-10-28T08:28:17Z</time>
      </trkpt>
      <trkpt lat="44.69321" lon="5.39284">
        <ele>466.7</ele>
        <time>2022-10-28T08:28:18Z</time>
      </trkpt>
      <trkpt lat="44.69317" lon="5.39282">
        <ele>466.7</ele>
        <time>2022-10-28T08:28:19Z</time>
      </trkpt>
      <trkpt lat="44.69313" lon="5.39281">
        <ele>466.7</ele>
        <time>2022-10-28T08:28:20Z</time>
      </trkpt>
      <trkpt lat="44.69308" lon="5.39279">
        <ele>466.7</ele>
        <time>2022-10-28T08:28:21Z</time>
      </trkpt>
      <trkpt lat="44.69304" lon="5.39277">
        <ele>466.6</ele>
        <time>2022-10-28T08:28:22Z</time>
      </trkpt>
      <trkpt lat="44.69299" lon="5.39275">
        <ele>466.6</ele>
        <time>2022-10-28T08:28:23Z</time>
      </trkpt>
      <trkpt lat="44.69294" lon="5.39273">
        <ele>466.6</ele>
        <time>2022-10-28T08:28:24Z</time>
      </trkpt>
      <trkpt lat="44.6929" lon="5.39272">
        <ele>466.5</ele>
        <time>2022-10-28T08:28:25Z</time>
      </trkpt>
      <trkpt lat="44.69285" lon="5.3927">
        <ele>466.5</ele>
        <time>2022-10-28T08:28:26Z</time>
      </trkpt>
      <trkpt lat="44.69281" lon="5.39269">
        <ele>466.4</ele>
        <time>2022-10-28T08:28:27Z</time>
      </trkpt>
      <trkpt lat="44.69276" lon="5.39267">
        <ele>466.3</ele>
        <time>2022-10-28T08:28:28Z</time>
      </trkpt>
      <trkpt lat="44.69271" lon="5.39265">
        <ele>466.3</ele>
        <time>2022-10-28T08:28:29Z</time>
      </trkpt>
      <trkpt lat="44.69266" lon="5.39263">
        <ele>466.2</ele>
        <time>2022-10-28T08:28:30Z</time>
      </trkpt>
      <trkpt lat="44.69261" lon="5.39261">
        <ele>466.1</ele>
        <time>2022-10-28T08:28:31Z</time>
      </trkpt>
      <trkpt lat="44.69256" lon="5.39259">
        <ele>466.1</ele>
        <time>2022-10-28T08:28:32Z</time>
      </trkpt>
      <trkpt lat="44.69251" lon="5.39258">
        <ele>466</ele>
        <time>2022-10-28T08:28:33Z</time>
      </trkpt>
      <trkpt lat="44.69245" lon="5.39255">
        <ele>465.9</ele>
        <time>2022-10-28T08:28:34Z</time>
      </trkpt>
      <trkpt lat="44.6924" lon="5.39253">
        <ele>465.8</ele>
        <time>2022-10-28T08:28:35Z</time>
      </trkpt>
      <trkpt lat="44.69235" lon="5.39251">
        <ele>465.8</ele>
        <time>2022-10-28T08:28:36Z</time>
      </trkpt>
      <trkpt lat="44.69229" lon="5.39249">
        <ele>465.7</ele>
        <time>2022-10-28T08:28:37Z</time>
      </trkpt>
      <trkpt lat="44.69224" lon="5.39247">
        <ele>465.6</ele>
        <time>2022-10-28T08:28:38Z</time>
      </trkpt>
      <trkpt lat="44.69219" lon="5.39245">
        <ele>465.6</ele>
        <time>2022-10-28T08:28:39Z</time>
      </trkpt>
      <trkpt lat="44.69214" lon="5.39243">
        <ele>465.5</ele>
        <time>2022-10-28T08:28:40Z</time>
      </trkpt>
      <trkpt lat="44.69208" lon="5.39241">
        <ele>465.4</ele>
        <time>2022-10-28T08:28:41Z</time>
      </trkpt>
      <trkpt lat="44.69203" lon="5.39239">
        <ele>465.3</ele>
        <time>2022-10-28T08:28:42Z</time>
      </trkpt>
      <trkpt lat="44.69197" lon="5.39237">
        <ele>465.3</ele>
        <time>2022-10-28T08:28:43Z</time>
      </trkpt>
      <trkpt lat="44.69192" lon="5.39235">
        <ele>465.2</ele>
        <time>2022-10-28T08:28:44Z</time>
      </trkpt>
      <trkpt lat="44.69186" lon="5.39232">
        <ele>465.2</ele>
        <time>2022-10-28T08:28:45Z</time>
      </trkpt>
      <trkpt lat="44.6918" lon="5.3923">
        <ele>465.1</ele>
        <time>2022-10-28T08:28:46Z</time>
      </trkpt>
      <trkpt lat="44.69174" lon="5.39228">
        <ele>465</ele>
        <time>2022-10-28T08:28:47Z</time>
      </trkpt>
      <trkpt lat="44.69169" lon="5.39225">
        <ele>464.9</ele>
        <time>2022-10-28T08:28:48Z</time>
      </trkpt>
      <trkpt lat="44.69163" lon="5.39223">
        <ele>464.8</ele>
        <time>2022-10-28T08:28:49Z</time>
      </trkpt>
      <trkpt lat="44.69157" lon="5.3922">
        <ele>464.8</ele>
        <time>2022-10-28T08:28:50Z</time>
      </trkpt>
      <trkpt lat="44.69151" lon="5.39218">
        <ele>464.7</ele>
        <time>2022-10-28T08:28:51Z</time>
      </trkpt>
      <trkpt lat="44.69145" lon="5.39215">
        <ele>464.6</ele>
        <time>2022-10-28T08:28:52Z</time>
      </trkpt>
      <trkpt lat="44.69139" lon="5.39213">
        <ele>464.5</ele>
        <time>2022-10-28T08:28:53Z</time>
      </trkpt>
      <trkpt lat="44.69133" lon="5.3921">
        <ele>464.4</ele>
        <time>2022-10-28T08:28:54Z</time>
      </trkpt>
      <trkpt lat="44.69127" lon="5.39208">
        <ele>464.3</ele>
        <time>2022-10-28T08:28:55Z</time>
      </trkpt>
      <trkpt lat="44.69121" lon="5.39205">
        <ele>464.1</ele>
        <time>2022-10-28T08:28:56Z</time>
      </trkpt>
      <trkpt lat="44.69116" lon="5.39203">
        <ele>464.1</ele>
        <time>2022-10-28T08:28:57Z</time>
      </trkpt>
      <trkpt lat="44.6911" lon="5.39201">
        <ele>464</ele>
        <time>2022-10-28T08:28:58Z</time>
      </trkpt>
      <trkpt lat="44.69104" lon="5.39198">
        <ele>463.9</ele>
        <time>2022-10-28T08:28:59Z</time>
      </trkpt>
      <trkpt lat="44.69098" lon="5.39196">
        <ele>463.9</ele>
        <time>2022-10-28T08:29:00Z</time>
      </trkpt>
      <trkpt lat="44.69092" lon="5.39194">
        <ele>463.8</ele>
        <time>2022-10-28T08:29:01Z</time>
      </trkpt>
      <trkpt lat="44.69086" lon="5.39192">
        <ele>463.8</ele>
        <time>2022-10-28T08:29:02Z</time>
      </trkpt>
      <trkpt lat="44.69081" lon="5.3919">
        <ele>463.7</ele>
        <time>2022-10-28T08:29:03Z</time>
      </trkpt>
      <trkpt lat="44.69075" lon="5.39187">
        <ele>463.7</ele>
        <time>2022-10-28T08:29:04Z</time>
      </trkpt>
      <trkpt lat="44.6907" lon="5.39185">
        <ele>463.6</ele>
        <time>2022-10-28T08:29:05Z</time>
      </trkpt>
      <trkpt lat="44.69064" lon="5.39183">
        <ele>463.6</ele>
        <time>2022-10-28T08:29:06Z</time>
      </trkpt>
      <trkpt lat="44.69059" lon="5.3918">
        <ele>463.5</ele>
        <time>2022-10-28T08:29:07Z</time>
      </trkpt>
      <trkpt lat="44.69053" lon="5.39178">
        <ele>463.5</ele>
        <time>2022-10-28T08:29:08Z</time>
      </trkpt>
      <trkpt lat="44.69048" lon="5.39176">
        <ele>463.4</ele>
        <time>2022-10-28T08:29:09Z</time>
      </trkpt>
      <trkpt lat="44.69042" lon="5.39174">
        <ele>463.3</ele>
        <time>2022-10-28T08:29:10Z</time>
      </trkpt>
      <trkpt lat="44.69037" lon="5.39171">
        <ele>463.3</ele>
        <time>2022-10-28T08:29:11Z</time>
      </trkpt>
      <trkpt lat="44.69031" lon="5.39169">
        <ele>463.3</ele>
        <time>2022-10-28T08:29:12Z</time>
      </trkpt>
      <trkpt lat="44.69025" lon="5.39167">
        <ele>463.2</ele>
        <time>2022-10-28T08:29:13Z</time>
      </trkpt>
      <trkpt lat="44.6902" lon="5.39165">
        <ele>463.2</ele>
        <time>2022-10-28T08:29:14Z</time>
      </trkpt>
      <trkpt lat="44.69015" lon="5.39163">
        <ele>463.2</ele>
        <time>2022-10-28T08:29:15Z</time>
      </trkpt>
      <trkpt lat="44.6901" lon="5.3916">
        <ele>463.2</ele>
        <time>2022-10-28T08:29:16Z</time>
      </trkpt>
      <trkpt lat="44.69004" lon="5.39158">
        <ele>463.2</ele>
        <time>2022-10-28T08:29:17Z</time>
      </trkpt>
      <trkpt lat="44.68999" lon="5.39156">
        <ele>463.2</ele>
        <time>2022-10-28T08:29:18Z</time>
      </trkpt>
      <trkpt lat="44.68994" lon="5.39154">
        <ele>463.2</ele>
        <time>2022-10-28T08:29:19Z</time>
      </trkpt>
      <trkpt lat="44.68989" lon="5.39152">
        <ele>463.2</ele>
        <time>2022-10-28T08:29:20Z</time>
      </trkpt>
      <trkpt lat="44.68983" lon="5.3915">
        <ele>463.2</ele>
        <time>2022-10-28T08:29:21Z</time>
      </trkpt>
      <trkpt lat="44.68978" lon="5.39148">
        <ele>463.2</ele>
        <time>2022-10-28T08:29:22Z</time>
      </trkpt>
      <trkpt lat="44.68973" lon="5.39146">
        <ele>463.2</ele>
        <time>2022-10-28T08:29:23Z</time>
      </trkpt>
      <trkpt lat="44.68968" lon="5.39144">
        <ele>463.2</ele>
        <time>2022-10-28T08:29:24Z</time>
      </trkpt>
      <trkpt lat="44.68963" lon="5.39142">
        <ele>463.2</ele>
        <time>2022-10-28T08:29:25Z</time>
      </trkpt>
      <trkpt lat="44.68958" lon="5.3914">
        <ele>463.2</ele>
        <time>2022-10-28T08:29:26Z</time>
      </trkpt>
      <trkpt lat="44.68952" lon="5.39138">
        <ele>463.3</ele>
        <time>2022-10-28T08:29:27Z</time>
      </trkpt>
      <trkpt lat="44.68947" lon="5.39137">
        <ele>463.3</ele>
        <time>2022-10-28T08:29:28Z</time>
      </trkpt>
      <trkpt lat="44.68942" lon="5.39136">
        <ele>463.3</ele>
        <time>2022-10-28T08:29:29Z</time>
      </trkpt>
      <trkpt lat="44.68937" lon="5.39134">
        <ele>463.3</ele>
        <time>2022-10-28T08:29:30Z</time>
      </trkpt>
      <trkpt lat="44.68932" lon="5.39132">
        <ele>463.3</ele>
        <time>2022-10-28T08:29:31Z</time>
      </trkpt>
      <trkpt lat="44.68926" lon="5.39131">
        <ele>463.4</ele>
        <time>2022-10-28T08:29:32Z</time>
      </trkpt>
      <trkpt lat="44.68921" lon="5.3913">
        <ele>463.4</ele>
        <time>2022-10-28T08:29:33Z</time>
      </trkpt>
      <trkpt lat="44.68916" lon="5.39128">
        <ele>463.4</ele>
        <time>2022-10-28T08:29:34Z</time>
      </trkpt>
      <trkpt lat="44.68911" lon="5.39127">
        <ele>463.4</ele>
        <time>2022-10-28T08:29:35Z</time>
      </trkpt>
      <trkpt lat="44.68906" lon="5.39126">
        <ele>463.4</ele>
        <time>2022-10-28T08:29:36Z</time>
      </trkpt>
      <trkpt lat="44.68901" lon="5.39125">
        <ele>463.4</ele>
        <time>2022-10-28T08:29:37Z</time>
      </trkpt>
      <trkpt lat="44.68896" lon="5.39124">
        <ele>463.4</ele>
        <time>2022-10-28T08:29:38Z</time>
      </trkpt>
      <trkpt lat="44.68892" lon="5.39122">
        <ele>463.4</ele>
        <time>2022-10-28T08:29:39Z</time>
      </trkpt>
      <trkpt lat="44.68886" lon="5.39121">
        <ele>463.4</ele>
        <time>2022-10-28T08:29:40Z</time>
      </trkpt>
      <trkpt lat="44.68882" lon="5.3912">
        <ele>463.4</ele>
        <time>2022-10-28T08:29:41Z</time>
      </trkpt>
      <trkpt lat="44.68876" lon="5.3912">
        <ele>463.4</ele>
        <time>2022-10-28T08:29:42Z</time>
      </trkpt>
      <trkpt lat="44.68871" lon="5.39119">
        <ele>463.4</ele>
        <time>2022-10-28T08:29:43Z</time>
      </trkpt>
      <trkpt lat="44.68866" lon="5.39119">
        <ele>463.4</ele>
        <time>2022-10-28T08:29:44Z</time>
      </trkpt>
      <trkpt lat="44.68862" lon="5.39117">
        <ele>463.4</ele>
        <time>2022-10-28T08:29:45Z</time>
      </trkpt>
      <trkpt lat="44.68857" lon="5.39116">
        <ele>463.4</ele>
        <time>2022-10-28T08:29:46Z</time>
      </trkpt>
      <trkpt lat="44.68851" lon="5.39115">
        <ele>463.5</ele>
        <time>2022-10-28T08:29:47Z</time>
      </trkpt>
      <trkpt lat="44.68846" lon="5.39114">
        <ele>463.5</ele>
        <time>2022-10-28T08:29:48Z</time>
      </trkpt>
      <trkpt lat="44.68841" lon="5.39113">
        <ele>463.5</ele>
        <time>2022-10-28T08:29:49Z</time>
      </trkpt>
      <trkpt lat="44.68836" lon="5.39112">
        <ele>463.5</ele>
        <time>2022-10-28T08:29:50Z</time>
      </trkpt>
      <trkpt lat="44.68831" lon="5.39111">
        <ele>463.6</ele>
        <time>2022-10-28T08:29:51Z</time>
      </trkpt>
      <trkpt lat="44.68826" lon="5.39111">
        <ele>463.6</ele>
        <time>2022-10-28T08:29:52Z</time>
      </trkpt>
      <trkpt lat="44.68822" lon="5.3911">
        <ele>463.6</ele>
        <time>2022-10-28T08:29:53Z</time>
      </trkpt>
      <trkpt lat="44.68817" lon="5.39109">
        <ele>463.6</ele>
        <time>2022-10-28T08:29:54Z</time>
      </trkpt>
      <trkpt lat="44.68812" lon="5.39108">
        <ele>463.6</ele>
        <time>2022-10-28T08:29:55Z</time>
      </trkpt>
      <trkpt lat="44.68807" lon="5.39108">
        <ele>463.7</ele>
        <time>2022-10-28T08:29:56Z</time>
      </trkpt>
      <trkpt lat="44.68802" lon="5.39107">
        <ele>463.7</ele>
        <time>2022-10-28T08:29:57Z</time>
      </trkpt>
      <trkpt lat="44.68798" lon="5.39107">
        <ele>463.7</ele>
        <time>2022-10-28T08:29:58Z</time>
      </trkpt>
      <trkpt lat="44.68793" lon="5.39106">
        <ele>463.7</ele>
        <time>2022-10-28T08:29:59Z</time>
      </trkpt>
      <trkpt lat="44.68788" lon="5.39106">
        <ele>463.8</ele>
        <time>2022-10-28T08:30:00Z</time>
      </trkpt>
      <trkpt lat="44.68784" lon="5.39105">
        <ele>463.8</ele>
        <time>2022-10-28T08:30:01Z</time>
      </trkpt>
      <trkpt lat="44.68779" lon="5.39105">
        <ele>463.8</ele>
        <time>2022-10-28T08:30:02Z</time>
      </trkpt>
      <trkpt lat="44.68774" lon="5.39105">
        <ele>463.9</ele>
        <time>2022-10-28T08:30:03Z</time>
      </trkpt>
      <trkpt lat="44.68769" lon="5.39104">
        <ele>463.9</ele>
        <time>2022-10-28T08:30:04Z</time>
      </trkpt>
      <trkpt lat="44.68765" lon="5.39104">
        <ele>463.9</ele>
        <time>2022-10-28T08:30:05Z</time>
      </trkpt>
      <trkpt lat="44.6876" lon="5.39104">
        <ele>463.9</ele>
        <time>2022-10-28T08:30:06Z</time>
      </trkpt>
      <trkpt lat="44.68755" lon="5.39104">
        <ele>464</ele>
        <time>2022-10-28T08:30:07Z</time>
      </trkpt>
      <trkpt lat="44.6875" lon="5.39104">
        <ele>464</ele>
        <time>2022-10-28T08:30:08Z</time>
      </trkpt>
      <trkpt lat="44.68745" lon="5.39105">
        <ele>464</ele>
        <time>2022-10-28T08:30:09Z</time>
      </trkpt>
      <trkpt lat="44.6874" lon="5.39105">
        <ele>464</ele>
        <time>2022-10-28T08:30:10Z</time>
      </trkpt>
      <trkpt lat="44.68736" lon="5.39106">
        <ele>464.1</ele>
        <time>2022-10-28T08:30:11Z</time>
      </trkpt>
      <trkpt lat="44.68731" lon="5.39106">
        <ele>464.1</ele>
        <time>2022-10-28T08:30:12Z</time>
      </trkpt>
      <trkpt lat="44.68726" lon="5.39107">
        <ele>464.1</ele>
        <time>2022-10-28T08:30:13Z</time>
      </trkpt>
      <trkpt lat="44.68721" lon="5.39108">
        <ele>464.1</ele>
        <time>2022-10-28T08:30:14Z</time>
      </trkpt>
      <trkpt lat="44.68717" lon="5.39108">
        <ele>464.1</ele>
        <time>2022-10-28T08:30:15Z</time>
      </trkpt>
      <trkpt lat="44.68712" lon="5.39109">
        <ele>464.2</ele>
        <time>2022-10-28T08:30:16Z</time>
      </trkpt>
      <trkpt lat="44.68707" lon="5.3911">
        <ele>464.2</ele>
        <time>2022-10-28T08:30:17Z</time>
      </trkpt>
      <trkpt lat="44.68703" lon="5.39111">
        <ele>464.2</ele>
        <time>2022-10-28T08:30:18Z</time>
      </trkpt>
      <trkpt lat="44.68698" lon="5.39111">
        <ele>464.2</ele>
        <time>2022-10-28T08:30:19Z</time>
      </trkpt>
      <trkpt lat="44.68693" lon="5.39111">
        <ele>464.2</ele>
        <time>2022-10-28T08:30:20Z</time>
      </trkpt>
      <trkpt lat="44.68689" lon="5.39112">
        <ele>464.3</ele>
        <time>2022-10-28T08:30:21Z</time>
      </trkpt>
      <trkpt lat="44.68684" lon="5.39113">
        <ele>464.3</ele>
        <time>2022-10-28T08:30:22Z</time>
      </trkpt>
      <trkpt lat="44.6868" lon="5.39113">
        <ele>464.3</ele>
        <time>2022-10-28T08:30:23Z</time>
      </trkpt>
      <trkpt lat="44.68677" lon="5.39114">
        <ele>464.3</ele>
        <time>2022-10-28T08:30:24Z</time>
      </trkpt>
      <trkpt lat="44.68672" lon="5.39115">
        <ele>464.3</ele>
        <time>2022-10-28T08:30:25Z</time>
      </trkpt>
      <trkpt lat="44.68668" lon="5.39116">
        <ele>464.4</ele>
        <time>2022-10-28T08:30:26Z</time>
      </trkpt>
      <trkpt lat="44.68663" lon="5.39116">
        <ele>464.4</ele>
        <time>2022-10-28T08:30:27Z</time>
      </trkpt>
      <trkpt lat="44.68658" lon="5.39117">
        <ele>464.5</ele>
        <time>2022-10-28T08:30:28Z</time>
      </trkpt>
      <trkpt lat="44.68656" lon="5.39118">
        <ele>464.5</ele>
        <time>2022-10-28T08:30:29Z</time>
      </trkpt>
      <trkpt lat="44.68652" lon="5.39119">
        <ele>464.6</ele>
        <time>2022-10-28T08:30:30Z</time>
      </trkpt>
      <trkpt lat="44.6865" lon="5.39119">
        <ele>464.6</ele>
        <time>2022-10-28T08:30:31Z</time>
      </trkpt>
      <trkpt lat="44.68644" lon="5.3912">
        <ele>464.6</ele>
        <time>2022-10-28T08:30:32Z</time>
      </trkpt>
      <trkpt lat="44.68639" lon="5.39122">
        <ele>464.6</ele>
        <time>2022-10-28T08:30:33Z</time>
      </trkpt>
      <trkpt lat="44.68636" lon="5.39122">
        <ele>464.7</ele>
        <time>2022-10-28T08:30:34Z</time>
      </trkpt>
      <trkpt lat="44.68628" lon="5.39123">
        <ele>464.6</ele>
        <time>2022-10-28T08:30:36Z</time>
      </trkpt>
      <trkpt lat="44.6862" lon="5.39124">
        <ele>464.6</ele>
        <time>2022-10-28T08:30:37Z</time>
      </trkpt>
      <trkpt lat="44.68615" lon="5.39125">
        <ele>464.5</ele>
        <time>2022-10-28T08:30:38Z</time>
      </trkpt>
      <trkpt lat="44.6861" lon="5.39126">
        <ele>464.5</ele>
        <time>2022-10-28T08:30:39Z</time>
      </trkpt>
      <trkpt lat="44.68605" lon="5.39126">
        <ele>464.5</ele>
        <time>2022-10-28T08:30:40Z</time>
      </trkpt>
      <trkpt lat="44.686" lon="5.39127">
        <ele>464.5</ele>
        <time>2022-10-28T08:30:41Z</time>
      </trkpt>
      <trkpt lat="44.68595" lon="5.39128">
        <ele>464.4</ele>
        <time>2022-10-28T08:30:42Z</time>
      </trkpt>
      <trkpt lat="44.6859" lon="5.39128">
        <ele>464.4</ele>
        <time>2022-10-28T08:30:43Z</time>
      </trkpt>
      <trkpt lat="44.68585" lon="5.39129">
        <ele>464.4</ele>
        <time>2022-10-28T08:30:44Z</time>
      </trkpt>
      <trkpt lat="44.6858" lon="5.3913">
        <ele>464.4</ele>
        <time>2022-10-28T08:30:45Z</time>
      </trkpt>
      <trkpt lat="44.68575" lon="5.39131">
        <ele>464.4</ele>
        <time>2022-10-28T08:30:46Z</time>
      </trkpt>
      <trkpt lat="44.6857" lon="5.39132">
        <ele>464.3</ele>
        <time>2022-10-28T08:30:47Z</time>
      </trkpt>
      <trkpt lat="44.68565" lon="5.39133">
        <ele>464.3</ele>
        <time>2022-10-28T08:30:48Z</time>
      </trkpt>
      <trkpt lat="44.6856" lon="5.39134">
        <ele>464.3</ele>
        <time>2022-10-28T08:30:49Z</time>
      </trkpt>
      <trkpt lat="44.68555" lon="5.39135">
        <ele>464.3</ele>
        <time>2022-10-28T08:30:50Z</time>
      </trkpt>
      <trkpt lat="44.6855" lon="5.39136">
        <ele>464.3</ele>
        <time>2022-10-28T08:30:51Z</time>
      </trkpt>
      <trkpt lat="44.68545" lon="5.39137">
        <ele>464.3</ele>
        <time>2022-10-28T08:30:52Z</time>
      </trkpt>
      <trkpt lat="44.6854" lon="5.39138">
        <ele>464.3</ele>
        <time>2022-10-28T08:30:53Z</time>
      </trkpt>
      <trkpt lat="44.68535" lon="5.39139">
        <ele>464.3</ele>
        <time>2022-10-28T08:30:54Z</time>
      </trkpt>
      <trkpt lat="44.6853" lon="5.39139">
        <ele>464.3</ele>
        <time>2022-10-28T08:30:55Z</time>
      </trkpt>
      <trkpt lat="44.68525" lon="5.3914">
        <ele>464.3</ele>
        <time>2022-10-28T08:30:56Z</time>
      </trkpt>
      <trkpt lat="44.6852" lon="5.39141">
        <ele>464.3</ele>
        <time>2022-10-28T08:30:57Z</time>
      </trkpt>
      <trkpt lat="44.68515" lon="5.39142">
        <ele>464.3</ele>
        <time>2022-10-28T08:30:58Z</time>
      </trkpt>
      <trkpt lat="44.6851" lon="5.39143">
        <ele>464.3</ele>
        <time>2022-10-28T08:30:59Z</time>
      </trkpt>
      <trkpt lat="44.68505" lon="5.39144">
        <ele>464.3</ele>
        <time>2022-10-28T08:31:00Z</time>
      </trkpt>
      <trkpt lat="44.68501" lon="5.39144">
        <ele>464.3</ele>
        <time>2022-10-28T08:31:01Z</time>
      </trkpt>
      <trkpt lat="44.68496" lon="5.39145">
        <ele>464.2</ele>
        <time>2022-10-28T08:31:02Z</time>
      </trkpt>
      <trkpt lat="44.68491" lon="5.39146">
        <ele>464.2</ele>
        <time>2022-10-28T08:31:03Z</time>
      </trkpt>
      <trkpt lat="44.68486" lon="5.39147">
        <ele>464.2</ele>
        <time>2022-10-28T08:31:04Z</time>
      </trkpt>
      <trkpt lat="44.68481" lon="5.39147">
        <ele>464.2</ele>
        <time>2022-10-28T08:31:05Z</time>
      </trkpt>
      <trkpt lat="44.68476" lon="5.39148">
        <ele>464.2</ele>
        <time>2022-10-28T08:31:06Z</time>
      </trkpt>
      <trkpt lat="44.6847" lon="5.39149">
        <ele>464.2</ele>
        <time>2022-10-28T08:31:07Z</time>
      </trkpt>
      <trkpt lat="44.68465" lon="5.3915">
        <ele>464.2</ele>
        <time>2022-10-28T08:31:08Z</time>
      </trkpt>
      <trkpt lat="44.68461" lon="5.39151">
        <ele>464.1</ele>
        <time>2022-10-28T08:31:09Z</time>
      </trkpt>
      <trkpt lat="44.68456" lon="5.39153">
        <ele>464.1</ele>
        <time>2022-10-28T08:31:10Z</time>
      </trkpt>
      <trkpt lat="44.68451" lon="5.39153">
        <ele>464</ele>
        <time>2022-10-28T08:31:11Z</time>
      </trkpt>
      <trkpt lat="44.68446" lon="5.39154">
        <ele>464</ele>
        <time>2022-10-28T08:31:12Z</time>
      </trkpt>
      <trkpt lat="44.68441" lon="5.39155">
        <ele>463.9</ele>
        <time>2022-10-28T08:31:13Z</time>
      </trkpt>
      <trkpt lat="44.68436" lon="5.39157">
        <ele>463.9</ele>
        <time>2022-10-28T08:31:14Z</time>
      </trkpt>
      <trkpt lat="44.68431" lon="5.39158">
        <ele>463.8</ele>
        <time>2022-10-28T08:31:15Z</time>
      </trkpt>
      <trkpt lat="44.68426" lon="5.39159">
        <ele>463.7</ele>
        <time>2022-10-28T08:31:16Z</time>
      </trkpt>
      <trkpt lat="44.68421" lon="5.3916">
        <ele>463.7</ele>
        <time>2022-10-28T08:31:17Z</time>
      </trkpt>
      <trkpt lat="44.68416" lon="5.39161">
        <ele>463.6</ele>
        <time>2022-10-28T08:31:18Z</time>
      </trkpt>
      <trkpt lat="44.68411" lon="5.39162">
        <ele>463.5</ele>
        <time>2022-10-28T08:31:19Z</time>
      </trkpt>
      <trkpt lat="44.68406" lon="5.39163">
        <ele>463.5</ele>
        <time>2022-10-28T08:31:20Z</time>
      </trkpt>
      <trkpt lat="44.68401" lon="5.39164">
        <ele>463.4</ele>
        <time>2022-10-28T08:31:21Z</time>
      </trkpt>
      <trkpt lat="44.68396" lon="5.39166">
        <ele>463.4</ele>
        <time>2022-10-28T08:31:22Z</time>
      </trkpt>
      <trkpt lat="44.68391" lon="5.39167">
        <ele>463.3</ele>
        <time>2022-10-28T08:31:23Z</time>
      </trkpt>
      <trkpt lat="44.68386" lon="5.39168">
        <ele>463.3</ele>
        <time>2022-10-28T08:31:24Z</time>
      </trkpt>
      <trkpt lat="44.68381" lon="5.39169">
        <ele>463.2</ele>
        <time>2022-10-28T08:31:25Z</time>
      </trkpt>
      <trkpt lat="44.68376" lon="5.3917">
        <ele>463.2</ele>
        <time>2022-10-28T08:31:26Z</time>
      </trkpt>
      <trkpt lat="44.68371" lon="5.39171">
        <ele>463.1</ele>
        <time>2022-10-28T08:31:27Z</time>
      </trkpt>
      <trkpt lat="44.68366" lon="5.39173">
        <ele>463.1</ele>
        <time>2022-10-28T08:31:28Z</time>
      </trkpt>
      <trkpt lat="44.6836" lon="5.39174">
        <ele>463.1</ele>
        <time>2022-10-28T08:31:29Z</time>
      </trkpt>
      <trkpt lat="44.68355" lon="5.39175">
        <ele>463.1</ele>
        <time>2022-10-28T08:31:30Z</time>
      </trkpt>
      <trkpt lat="44.68351" lon="5.39177">
        <ele>463.1</ele>
        <time>2022-10-28T08:31:31Z</time>
      </trkpt>
      <trkpt lat="44.68346" lon="5.39178">
        <ele>463.1</ele>
        <time>2022-10-28T08:31:32Z</time>
      </trkpt>
      <trkpt lat="44.68341" lon="5.39179">
        <ele>463.1</ele>
        <time>2022-10-28T08:31:33Z</time>
      </trkpt>
      <trkpt lat="44.68336" lon="5.3918">
        <ele>463.2</ele>
        <time>2022-10-28T08:31:34Z</time>
      </trkpt>
      <trkpt lat="44.68332" lon="5.39181">
        <ele>463.3</ele>
        <time>2022-10-28T08:31:35Z</time>
      </trkpt>
      <trkpt lat="44.68327" lon="5.39182">
        <ele>463.3</ele>
        <time>2022-10-28T08:31:36Z</time>
      </trkpt>
      <trkpt lat="44.68323" lon="5.39184">
        <ele>463.4</ele>
        <time>2022-10-28T08:31:37Z</time>
      </trkpt>
      <trkpt lat="44.68318" lon="5.39185">
        <ele>463.5</ele>
        <time>2022-10-28T08:31:38Z</time>
      </trkpt>
      <trkpt lat="44.68315" lon="5.39186">
        <ele>463.6</ele>
        <time>2022-10-28T08:31:39Z</time>
      </trkpt>
      <trkpt lat="44.68312" lon="5.39186">
        <ele>463.7</ele>
        <time>2022-10-28T08:31:40Z</time>
      </trkpt>
      <trkpt lat="44.68307" lon="5.39187">
        <ele>463.8</ele>
        <time>2022-10-28T08:31:41Z</time>
      </trkpt>
      <trkpt lat="44.68303" lon="5.39188">
        <ele>463.9</ele>
        <time>2022-10-28T08:31:42Z</time>
      </trkpt>
      <trkpt lat="44.683" lon="5.39189">
        <ele>464</ele>
        <time>2022-10-28T08:31:43Z</time>
      </trkpt>
      <trkpt lat="44.68297" lon="5.39189">
        <ele>464.1</ele>
        <time>2022-10-28T08:31:44Z</time>
      </trkpt>
      <trkpt lat="44.68293" lon="5.3919">
        <ele>464.3</ele>
        <time>2022-10-28T08:31:45Z</time>
      </trkpt>
      <trkpt lat="44.68291" lon="5.3919">
        <ele>464.3</ele>
        <time>2022-10-28T08:31:46Z</time>
      </trkpt>
      <trkpt lat="44.68285" lon="5.39192">
        <ele>464.6</ele>
        <time>2022-10-28T08:31:48Z</time>
      </trkpt>
      <trkpt lat="44.6828" lon="5.39193">
        <ele>464.8</ele>
        <time>2022-10-28T08:31:49Z</time>
      </trkpt>
      <trkpt lat="44.68275" lon="5.39195">
        <ele>464.9</ele>
        <time>2022-10-28T08:31:50Z</time>
      </trkpt>
      <trkpt lat="44.6827" lon="5.39196">
        <ele>465.1</ele>
        <time>2022-10-28T08:31:52Z</time>
      </trkpt>
      <trkpt lat="44.68265" lon="5.39197">
        <ele>465.3</ele>
        <time>2022-10-28T08:31:53Z</time>
      </trkpt>
      <trkpt lat="44.68262" lon="5.39198">
        <ele>465.4</ele>
        <time>2022-10-28T08:31:54Z</time>
      </trkpt>
      <trkpt lat="44.68257" lon="5.39199">
        <ele>465.6</ele>
        <time>2022-10-28T08:31:56Z</time>
      </trkpt>
      <trkpt lat="44.68253" lon="5.392">
        <ele>465.8</ele>
        <time>2022-10-28T08:31:57Z</time>
      </trkpt>
      <trkpt lat="44.68249" lon="5.392">
        <ele>465.9</ele>
        <time>2022-10-28T08:31:58Z</time>
      </trkpt>
      <trkpt lat="44.68245" lon="5.39201">
        <ele>466.1</ele>
        <time>2022-10-28T08:31:59Z</time>
      </trkpt>
      <trkpt lat="44.68241" lon="5.39202">
        <ele>466.2</ele>
        <time>2022-10-28T08:32:00Z</time>
      </trkpt>
      <trkpt lat="44.68238" lon="5.39202">
        <ele>466.3</ele>
        <time>2022-10-28T08:32:01Z</time>
      </trkpt>
      <trkpt lat="44.68233" lon="5.39203">
        <ele>466.5</ele>
        <time>2022-10-28T08:32:03Z</time>
      </trkpt>
      <trkpt lat="44.68229" lon="5.39204">
        <ele>466.7</ele>
        <time>2022-10-28T08:32:04Z</time>
      </trkpt>
      <trkpt lat="44.68225" lon="5.39205">
        <ele>466.8</ele>
        <time>2022-10-28T08:32:05Z</time>
      </trkpt>
      <trkpt lat="44.68222" lon="5.39206">
        <ele>466.9</ele>
        <time>2022-10-28T08:32:06Z</time>
      </trkpt>
      <trkpt lat="44.68219" lon="5.39206">
        <ele>467</ele>
        <time>2022-10-28T08:32:07Z</time>
      </trkpt>
      <trkpt lat="44.68216" lon="5.39206">
        <ele>467.1</ele>
        <time>2022-10-28T08:32:08Z</time>
      </trkpt>
      <trkpt lat="44.68211" lon="5.39207">
        <ele>467.3</ele>
        <time>2022-10-28T08:32:10Z</time>
      </trkpt>
      <trkpt lat="44.68207" lon="5.39208">
        <ele>467.5</ele>
        <time>2022-10-28T08:32:11Z</time>
      </trkpt>
      <trkpt lat="44.68204" lon="5.39208">
        <ele>467.6</ele>
        <time>2022-10-28T08:32:12Z</time>
      </trkpt>
      <trkpt lat="44.68201" lon="5.39209">
        <ele>467.7</ele>
        <time>2022-10-28T08:32:13Z</time>
      </trkpt>
      <trkpt lat="44.68197" lon="5.3921">
        <ele>467.9</ele>
        <time>2022-10-28T08:32:14Z</time>
      </trkpt>
      <trkpt lat="44.68194" lon="5.39211">
        <ele>468</ele>
        <time>2022-10-28T08:32:15Z</time>
      </trkpt>
      <trkpt lat="44.6819" lon="5.39211">
        <ele>468.1</ele>
        <time>2022-10-28T08:32:17Z</time>
      </trkpt>
      <trkpt lat="44.68185" lon="5.39211">
        <ele>468.3</ele>
        <time>2022-10-28T08:32:18Z</time>
      </trkpt>
      <trkpt lat="44.68182" lon="5.39212">
        <ele>468.4</ele>
        <time>2022-10-28T08:32:19Z</time>
      </trkpt>
      <trkpt lat="44.68179" lon="5.39212">
        <ele>468.5</ele>
        <time>2022-10-28T08:32:20Z</time>
      </trkpt>
      <trkpt lat="44.68175" lon="5.39213">
        <ele>468.7</ele>
        <time>2022-10-28T08:32:21Z</time>
      </trkpt>
      <trkpt lat="44.68173" lon="5.39213">
        <ele>468.7</ele>
        <time>2022-10-28T08:32:22Z</time>
      </trkpt>
      <trkpt lat="44.6817" lon="5.39214">
        <ele>468.8</ele>
        <time>2022-10-28T08:32:23Z</time>
      </trkpt>
      <trkpt lat="44.68166" lon="5.39215">
        <ele>468.9</ele>
        <time>2022-10-28T08:32:25Z</time>
      </trkpt>
      <trkpt lat="44.68162" lon="5.39216">
        <ele>469.1</ele>
        <time>2022-10-28T08:32:26Z</time>
      </trkpt>
      <trkpt lat="44.68158" lon="5.39217">
        <ele>469.2</ele>
        <time>2022-10-28T08:32:27Z</time>
      </trkpt>
      <trkpt lat="44.68154" lon="5.39218">
        <ele>469.3</ele>
        <time>2022-10-28T08:32:29Z</time>
      </trkpt>
      <trkpt lat="44.68151" lon="5.39218">
        <ele>469.4</ele>
        <time>2022-10-28T08:32:30Z</time>
      </trkpt>
      <trkpt lat="44.68147" lon="5.39219">
        <ele>469.6</ele>
        <time>2022-10-28T08:32:31Z</time>
      </trkpt>
      <trkpt lat="44.68143" lon="5.3922">
        <ele>469.7</ele>
        <time>2022-10-28T08:32:32Z</time>
      </trkpt>
      <trkpt lat="44.6814" lon="5.39221">
        <ele>469.8</ele>
        <time>2022-10-28T08:32:33Z</time>
      </trkpt>
      <trkpt lat="44.68138" lon="5.39221">
        <ele>469.9</ele>
        <time>2022-10-28T08:32:34Z</time>
      </trkpt>
      <trkpt lat="44.68131" lon="5.39223">
        <ele>470.1</ele>
        <time>2022-10-28T08:32:36Z</time>
      </trkpt>
      <trkpt lat="44.68128" lon="5.39224">
        <ele>470.2</ele>
        <time>2022-10-28T08:32:37Z</time>
      </trkpt>
      <trkpt lat="44.68125" lon="5.39225">
        <ele>470.3</ele>
        <time>2022-10-28T08:32:38Z</time>
      </trkpt>
      <trkpt lat="44.68123" lon="5.39225">
        <ele>470.3</ele>
        <time>2022-10-28T08:32:39Z</time>
      </trkpt>
      <trkpt lat="44.68119" lon="5.39226">
        <ele>470.4</ele>
        <time>2022-10-28T08:32:40Z</time>
      </trkpt>
      <trkpt lat="44.68115" lon="5.39227">
        <ele>470.6</ele>
        <time>2022-10-28T08:32:41Z</time>
      </trkpt>
      <trkpt lat="44.68113" lon="5.39228">
        <ele>470.6</ele>
        <time>2022-10-28T08:32:42Z</time>
      </trkpt>
      <trkpt lat="44.68109" lon="5.39229">
        <ele>470.7</ele>
        <time>2022-10-28T08:32:43Z</time>
      </trkpt>
      <trkpt lat="44.68106" lon="5.3923">
        <ele>470.8</ele>
        <time>2022-10-28T08:32:44Z</time>
      </trkpt>
      <trkpt lat="44.68101" lon="5.39231">
        <ele>470.9</ele>
        <time>2022-10-28T08:32:46Z</time>
      </trkpt>
      <trkpt lat="44.68096" lon="5.39232">
        <ele>471</ele>
        <time>2022-10-28T08:32:47Z</time>
      </trkpt>
      <trkpt lat="44.68093" lon="5.39233">
        <ele>471.1</ele>
        <time>2022-10-28T08:32:48Z</time>
      </trkpt>
      <trkpt lat="44.68089" lon="5.39234">
        <ele>471.2</ele>
        <time>2022-10-28T08:32:49Z</time>
      </trkpt>
      <trkpt lat="44.68082" lon="5.39235">
        <ele>471.4</ele>
        <time>2022-10-28T08:32:51Z</time>
      </trkpt>
      <trkpt lat="44.68079" lon="5.39236">
        <ele>471.4</ele>
        <time>2022-10-28T08:32:52Z</time>
      </trkpt>
      <trkpt lat="44.68075" lon="5.39237">
        <ele>471.5</ele>
        <time>2022-10-28T08:32:53Z</time>
      </trkpt>
      <trkpt lat="44.68071" lon="5.39238">
        <ele>471.6</ele>
        <time>2022-10-28T08:32:54Z</time>
      </trkpt>
      <trkpt lat="44.68067" lon="5.39239">
        <ele>471.7</ele>
        <time>2022-10-28T08:32:55Z</time>
      </trkpt>
      <trkpt lat="44.68062" lon="5.3924">
        <ele>471.7</ele>
        <time>2022-10-28T08:32:57Z</time>
      </trkpt>
      <trkpt lat="44.68058" lon="5.39241">
        <ele>471.8</ele>
        <time>2022-10-28T08:32:58Z</time>
      </trkpt>
      <trkpt lat="44.68052" lon="5.39243">
        <ele>471.9</ele>
        <time>2022-10-28T08:32:59Z</time>
      </trkpt>
      <trkpt lat="44.68046" lon="5.39244">
        <ele>472</ele>
        <time>2022-10-28T08:33:01Z</time>
      </trkpt>
      <trkpt lat="44.68041" lon="5.39245">
        <ele>472.1</ele>
        <time>2022-10-28T08:33:02Z</time>
      </trkpt>
      <trkpt lat="44.68035" lon="5.39246">
        <ele>472.1</ele>
        <time>2022-10-28T08:33:03Z</time>
      </trkpt>
      <trkpt lat="44.68031" lon="5.39247">
        <ele>472.2</ele>
        <time>2022-10-28T08:33:04Z</time>
      </trkpt>
      <trkpt lat="44.68026" lon="5.39248">
        <ele>472.2</ele>
        <time>2022-10-28T08:33:05Z</time>
      </trkpt>
      <trkpt lat="44.68021" lon="5.39249">
        <ele>472.3</ele>
        <time>2022-10-28T08:33:07Z</time>
      </trkpt>
      <trkpt lat="44.68016" lon="5.3925">
        <ele>472.3</ele>
        <time>2022-10-28T08:33:08Z</time>
      </trkpt>
      <trkpt lat="44.68011" lon="5.3925">
        <ele>472.4</ele>
        <time>2022-10-28T08:33:09Z</time>
      </trkpt>
      <trkpt lat="44.68008" lon="5.39251">
        <ele>472.4</ele>
        <time>2022-10-28T08:33:10Z</time>
      </trkpt>
      <trkpt lat="44.68003" lon="5.39252">
        <ele>472.5</ele>
        <time>2022-10-28T08:33:11Z</time>
      </trkpt>
      <trkpt lat="44.67999" lon="5.39253">
        <ele>472.5</ele>
        <time>2022-10-28T08:33:12Z</time>
      </trkpt>
      <trkpt lat="44.67994" lon="5.39254">
        <ele>472.5</ele>
        <time>2022-10-28T08:33:13Z</time>
      </trkpt>
      <trkpt lat="44.67987" lon="5.39255">
        <ele>472.6</ele>
        <time>2022-10-28T08:33:15Z</time>
      </trkpt>
      <trkpt lat="44.67983" lon="5.39256">
        <ele>472.6</ele>
        <time>2022-10-28T08:33:16Z</time>
      </trkpt>
      <trkpt lat="44.67978" lon="5.39257">
        <ele>472.6</ele>
        <time>2022-10-28T08:33:18Z</time>
      </trkpt>
      <trkpt lat="44.67972" lon="5.39259">
        <ele>472.6</ele>
        <time>2022-10-28T08:33:19Z</time>
      </trkpt>
      <trkpt lat="44.67968" lon="5.3926">
        <ele>472.7</ele>
        <time>2022-10-28T08:33:20Z</time>
      </trkpt>
      <trkpt lat="44.67963" lon="5.39261">
        <ele>472.7</ele>
        <time>2022-10-28T08:33:21Z</time>
      </trkpt>
      <trkpt lat="44.67958" lon="5.39262">
        <ele>472.7</ele>
        <time>2022-10-28T08:33:22Z</time>
      </trkpt>
      <trkpt lat="44.67952" lon="5.39264">
        <ele>472.7</ele>
        <time>2022-10-28T08:33:24Z</time>
      </trkpt>
      <trkpt lat="44.67947" lon="5.39265">
        <ele>472.8</ele>
        <time>2022-10-28T08:33:25Z</time>
      </trkpt>
      <trkpt lat="44.67942" lon="5.39266">
        <ele>472.8</ele>
        <time>2022-10-28T08:33:26Z</time>
      </trkpt>
      <trkpt lat="44.67937" lon="5.39267">
        <ele>472.8</ele>
        <time>2022-10-28T08:33:27Z</time>
      </trkpt>
      <trkpt lat="44.67932" lon="5.39269">
        <ele>472.8</ele>
        <time>2022-10-28T08:33:28Z</time>
      </trkpt>
      <trkpt lat="44.67929" lon="5.3927">
        <ele>472.9</ele>
        <time>2022-10-28T08:33:29Z</time>
      </trkpt>
      <trkpt lat="44.67925" lon="5.39271">
        <ele>472.9</ele>
        <time>2022-10-28T08:33:30Z</time>
      </trkpt>
      <trkpt lat="44.6792" lon="5.39273">
        <ele>472.9</ele>
        <time>2022-10-28T08:33:31Z</time>
      </trkpt>
      <trkpt lat="44.67912" lon="5.39276">
        <ele>473</ele>
        <time>2022-10-28T08:33:33Z</time>
      </trkpt>
      <trkpt lat="44.67907" lon="5.39277">
        <ele>473</ele>
        <time>2022-10-28T08:33:34Z</time>
      </trkpt>
      <trkpt lat="44.67903" lon="5.39279">
        <ele>473</ele>
        <time>2022-10-28T08:33:35Z</time>
      </trkpt>
      <trkpt lat="44.67898" lon="5.39281">
        <ele>473.1</ele>
        <time>2022-10-28T08:33:36Z</time>
      </trkpt>
      <trkpt lat="44.67894" lon="5.39283">
        <ele>473.1</ele>
        <time>2022-10-28T08:33:38Z</time>
      </trkpt>
      <trkpt lat="44.67888" lon="5.39285">
        <ele>473.2</ele>
        <time>2022-10-28T08:33:39Z</time>
      </trkpt>
      <trkpt lat="44.67883" lon="5.39288">
        <ele>473.2</ele>
        <time>2022-10-28T08:33:40Z</time>
      </trkpt>
      <trkpt lat="44.67879" lon="5.3929">
        <ele>473.3</ele>
        <time>2022-10-28T08:33:41Z</time>
      </trkpt>
      <trkpt lat="44.67875" lon="5.39292">
        <ele>473.3</ele>
        <time>2022-10-28T08:33:42Z</time>
      </trkpt>
      <trkpt lat="44.67871" lon="5.39294">
        <ele>473.4</ele>
        <time>2022-10-28T08:33:43Z</time>
      </trkpt>
      <trkpt lat="44.67867" lon="5.39296">
        <ele>473.4</ele>
        <time>2022-10-28T08:33:44Z</time>
      </trkpt>
      <trkpt lat="44.67863" lon="5.39298">
        <ele>473.4</ele>
        <time>2022-10-28T08:33:45Z</time>
      </trkpt>
      <trkpt lat="44.67858" lon="5.39301">
        <ele>473.5</ele>
        <time>2022-10-28T08:33:46Z</time>
      </trkpt>
      <trkpt lat="44.67853" lon="5.39303">
        <ele>473.5</ele>
        <time>2022-10-28T08:33:48Z</time>
      </trkpt>
      <trkpt lat="44.67849" lon="5.39306">
        <ele>473.5</ele>
        <time>2022-10-28T08:33:49Z</time>
      </trkpt>
      <trkpt lat="44.67843" lon="5.3931">
        <ele>473.6</ele>
        <time>2022-10-28T08:33:50Z</time>
      </trkpt>
      <trkpt lat="44.67839" lon="5.39311">
        <ele>473.6</ele>
        <time>2022-10-28T08:33:51Z</time>
      </trkpt>
      <trkpt lat="44.67832" lon="5.39315">
        <ele>473.6</ele>
        <time>2022-10-28T08:33:53Z</time>
      </trkpt>
      <trkpt lat="44.67828" lon="5.39317">
        <ele>473.7</ele>
        <time>2022-10-28T08:33:54Z</time>
      </trkpt>
      <trkpt lat="44.67823" lon="5.3932">
        <ele>473.7</ele>
        <time>2022-10-28T08:33:55Z</time>
      </trkpt>
      <trkpt lat="44.67818" lon="5.39323">
        <ele>473.7</ele>
        <time>2022-10-28T08:33:56Z</time>
      </trkpt>
      <trkpt lat="44.67812" lon="5.39327">
        <ele>473.8</ele>
        <time>2022-10-28T08:33:58Z</time>
      </trkpt>
      <trkpt lat="44.67806" lon="5.39329">
        <ele>473.8</ele>
        <time>2022-10-28T08:33:59Z</time>
      </trkpt>
      <trkpt lat="44.67802" lon="5.39332">
        <ele>473.8</ele>
        <time>2022-10-28T08:34:00Z</time>
      </trkpt>
      <trkpt lat="44.67796" lon="5.39335">
        <ele>473.9</ele>
        <time>2022-10-28T08:34:02Z</time>
      </trkpt>
      <trkpt lat="44.67792" lon="5.39338">
        <ele>473.9</ele>
        <time>2022-10-28T08:34:03Z</time>
      </trkpt>
      <trkpt lat="44.67787" lon="5.39341">
        <ele>474</ele>
        <time>2022-10-28T08:34:04Z</time>
      </trkpt>
      <trkpt lat="44.67782" lon="5.39344">
        <ele>474</ele>
        <time>2022-10-28T08:34:05Z</time>
      </trkpt>
      <trkpt lat="44.67778" lon="5.39347">
        <ele>474</ele>
        <time>2022-10-28T08:34:06Z</time>
      </trkpt>
      <trkpt lat="44.67773" lon="5.3935">
        <ele>474</ele>
        <time>2022-10-28T08:34:08Z</time>
      </trkpt>
      <trkpt lat="44.67767" lon="5.39353">
        <ele>474.1</ele>
        <time>2022-10-28T08:34:09Z</time>
      </trkpt>
      <trkpt lat="44.67762" lon="5.39355">
        <ele>474.1</ele>
        <time>2022-10-28T08:34:10Z</time>
      </trkpt>
      <trkpt lat="44.67757" lon="5.39358">
        <ele>474.1</ele>
        <time>2022-10-28T08:34:11Z</time>
      </trkpt>
      <trkpt lat="44.67752" lon="5.39361">
        <ele>474.2</ele>
        <time>2022-10-28T08:34:12Z</time>
      </trkpt>
      <trkpt lat="44.67748" lon="5.39363">
        <ele>474.2</ele>
        <time>2022-10-28T08:34:13Z</time>
      </trkpt>
      <trkpt lat="44.67743" lon="5.39366">
        <ele>474.2</ele>
        <time>2022-10-28T08:34:14Z</time>
      </trkpt>
      <trkpt lat="44.67739" lon="5.39368">
        <ele>474.2</ele>
        <time>2022-10-28T08:34:15Z</time>
      </trkpt>
      <trkpt lat="44.67734" lon="5.39371">
        <ele>474.3</ele>
        <time>2022-10-28T08:34:16Z</time>
      </trkpt>
      <trkpt lat="44.6773" lon="5.39373">
        <ele>474.3</ele>
        <time>2022-10-28T08:34:17Z</time>
      </trkpt>
      <trkpt lat="44.67726" lon="5.39376">
        <ele>474.3</ele>
        <time>2022-10-28T08:34:18Z</time>
      </trkpt>
      <trkpt lat="44.67722" lon="5.39378">
        <ele>474.4</ele>
        <time>2022-10-28T08:34:19Z</time>
      </trkpt>
      <trkpt lat="44.67718" lon="5.39381">
        <ele>474.4</ele>
        <time>2022-10-28T08:34:20Z</time>
      </trkpt>
      <trkpt lat="44.67713" lon="5.39383">
        <ele>474.4</ele>
        <time>2022-10-28T08:34:21Z</time>
      </trkpt>
      <trkpt lat="44.67709" lon="5.39385">
        <ele>474.5</ele>
        <time>2022-10-28T08:34:22Z</time>
      </trkpt>
      <trkpt lat="44.67705" lon="5.39388">
        <ele>474.5</ele>
        <time>2022-10-28T08:34:23Z</time>
      </trkpt>
      <trkpt lat="44.67701" lon="5.3939">
        <ele>474.5</ele>
        <time>2022-10-28T08:34:24Z</time>
      </trkpt>
      <trkpt lat="44.67697" lon="5.39393">
        <ele>474.5</ele>
        <time>2022-10-28T08:34:25Z</time>
      </trkpt>
      <trkpt lat="44.67693" lon="5.39396">
        <ele>474.6</ele>
        <time>2022-10-28T08:34:26Z</time>
      </trkpt>
      <trkpt lat="44.67689" lon="5.39399">
        <ele>474.6</ele>
        <time>2022-10-28T08:34:27Z</time>
      </trkpt>
      <trkpt lat="44.67685" lon="5.39402">
        <ele>474.6</ele>
        <time>2022-10-28T08:34:28Z</time>
      </trkpt>
      <trkpt lat="44.67681" lon="5.39405">
        <ele>474.6</ele>
        <time>2022-10-28T08:34:29Z</time>
      </trkpt>
      <trkpt lat="44.67677" lon="5.39408">
        <ele>474.6</ele>
        <time>2022-10-28T08:34:30Z</time>
      </trkpt>
      <trkpt lat="44.67673" lon="5.39411">
        <ele>474.7</ele>
        <time>2022-10-28T08:34:31Z</time>
      </trkpt>
      <trkpt lat="44.67669" lon="5.39414">
        <ele>474.7</ele>
        <time>2022-10-28T08:34:32Z</time>
      </trkpt>
      <trkpt lat="44.67666" lon="5.39418">
        <ele>474.7</ele>
        <time>2022-10-28T08:34:33Z</time>
      </trkpt>
      <trkpt lat="44.67662" lon="5.39421">
        <ele>474.7</ele>
        <time>2022-10-28T08:34:34Z</time>
      </trkpt>
      <trkpt lat="44.67658" lon="5.39425">
        <ele>474.8</ele>
        <time>2022-10-28T08:34:35Z</time>
      </trkpt>
      <trkpt lat="44.67654" lon="5.39429">
        <ele>474.8</ele>
        <time>2022-10-28T08:34:36Z</time>
      </trkpt>
      <trkpt lat="44.6765" lon="5.39433">
        <ele>474.8</ele>
        <time>2022-10-28T08:34:37Z</time>
      </trkpt>
      <trkpt lat="44.67647" lon="5.39436">
        <ele>474.9</ele>
        <time>2022-10-28T08:34:38Z</time>
      </trkpt>
      <trkpt lat="44.67643" lon="5.3944">
        <ele>474.9</ele>
        <time>2022-10-28T08:34:39Z</time>
      </trkpt>
      <trkpt lat="44.67639" lon="5.39444">
        <ele>474.9</ele>
        <time>2022-10-28T08:34:40Z</time>
      </trkpt>
      <trkpt lat="44.67636" lon="5.39449">
        <ele>474.9</ele>
        <time>2022-10-28T08:34:41Z</time>
      </trkpt>
      <trkpt lat="44.67632" lon="5.39453">
        <ele>474.9</ele>
        <time>2022-10-28T08:34:42Z</time>
      </trkpt>
      <trkpt lat="44.67629" lon="5.39458">
        <ele>474.9</ele>
        <time>2022-10-28T08:34:43Z</time>
      </trkpt>
      <trkpt lat="44.67626" lon="5.39462">
        <ele>474.9</ele>
        <time>2022-10-28T08:34:44Z</time>
      </trkpt>
      <trkpt lat="44.67622" lon="5.39467">
        <ele>474.8</ele>
        <time>2022-10-28T08:34:45Z</time>
      </trkpt>
      <trkpt lat="44.67619" lon="5.39471">
        <ele>474.8</ele>
        <time>2022-10-28T08:34:46Z</time>
      </trkpt>
      <trkpt lat="44.67616" lon="5.39476">
        <ele>474.8</ele>
        <time>2022-10-28T08:34:47Z</time>
      </trkpt>
      <trkpt lat="44.67612" lon="5.39481">
        <ele>474.8</ele>
        <time>2022-10-28T08:34:48Z</time>
      </trkpt>
      <trkpt lat="44.67609" lon="5.39486">
        <ele>474.8</ele>
        <time>2022-10-28T08:34:49Z</time>
      </trkpt>
      <trkpt lat="44.67606" lon="5.39492">
        <ele>474.7</ele>
        <time>2022-10-28T08:34:50Z</time>
      </trkpt>
      <trkpt lat="44.67602" lon="5.39497">
        <ele>474.6</ele>
        <time>2022-10-28T08:34:51Z</time>
      </trkpt>
      <trkpt lat="44.67599" lon="5.39503">
        <ele>474.5</ele>
        <time>2022-10-28T08:34:52Z</time>
      </trkpt>
      <trkpt lat="44.67596" lon="5.39508">
        <ele>474.4</ele>
        <time>2022-10-28T08:34:53Z</time>
      </trkpt>
      <trkpt lat="44.67592" lon="5.39515">
        <ele>474.3</ele>
        <time>2022-10-28T08:34:54Z</time>
      </trkpt>
      <trkpt lat="44.67589" lon="5.39521">
        <ele>474.2</ele>
        <time>2022-10-28T08:34:55Z</time>
      </trkpt>
      <trkpt lat="44.67586" lon="5.39528">
        <ele>474.1</ele>
        <time>2022-10-28T08:34:56Z</time>
      </trkpt>
      <trkpt lat="44.67583" lon="5.39535">
        <ele>473.9</ele>
        <time>2022-10-28T08:34:57Z</time>
      </trkpt>
      <trkpt lat="44.6758" lon="5.39541">
        <ele>473.8</ele>
        <time>2022-10-28T08:34:58Z</time>
      </trkpt>
      <trkpt lat="44.67577" lon="5.39548">
        <ele>473.6</ele>
        <time>2022-10-28T08:34:59Z</time>
      </trkpt>
      <trkpt lat="44.67574" lon="5.39555">
        <ele>473.5</ele>
        <time>2022-10-28T08:35:00Z</time>
      </trkpt>
      <trkpt lat="44.67571" lon="5.39562">
        <ele>473.3</ele>
        <time>2022-10-28T08:35:01Z</time>
      </trkpt>
      <trkpt lat="44.67568" lon="5.3957">
        <ele>473.2</ele>
        <time>2022-10-28T08:35:02Z</time>
      </trkpt>
      <trkpt lat="44.67565" lon="5.39577">
        <ele>473.1</ele>
        <time>2022-10-28T08:35:03Z</time>
      </trkpt>
      <trkpt lat="44.67561" lon="5.39584">
        <ele>472.9</ele>
        <time>2022-10-28T08:35:04Z</time>
      </trkpt>
      <trkpt lat="44.67558" lon="5.39592">
        <ele>472.8</ele>
        <time>2022-10-28T08:35:05Z</time>
      </trkpt>
      <trkpt lat="44.67555" lon="5.39599">
        <ele>472.7</ele>
        <time>2022-10-28T08:35:06Z</time>
      </trkpt>
      <trkpt lat="44.67552" lon="5.39607">
        <ele>472.5</ele>
        <time>2022-10-28T08:35:07Z</time>
      </trkpt>
      <trkpt lat="44.67549" lon="5.39614">
        <ele>472.4</ele>
        <time>2022-10-28T08:35:08Z</time>
      </trkpt>
      <trkpt lat="44.67545" lon="5.39622">
        <ele>472.4</ele>
        <time>2022-10-28T08:35:09Z</time>
      </trkpt>
      <trkpt lat="44.67542" lon="5.39629">
        <ele>472.3</ele>
        <time>2022-10-28T08:35:10Z</time>
      </trkpt>
      <trkpt lat="44.67539" lon="5.39637">
        <ele>472.3</ele>
        <time>2022-10-28T08:35:11Z</time>
      </trkpt>
      <trkpt lat="44.67536" lon="5.39644">
        <ele>472.3</ele>
        <time>2022-10-28T08:35:12Z</time>
      </trkpt>
      <trkpt lat="44.67533" lon="5.39651">
        <ele>472.3</ele>
        <time>2022-10-28T08:35:13Z</time>
      </trkpt>
      <trkpt lat="44.6753" lon="5.39658">
        <ele>472.3</ele>
        <time>2022-10-28T08:35:14Z</time>
      </trkpt>
      <trkpt lat="44.67527" lon="5.39664">
        <ele>472.3</ele>
        <time>2022-10-28T08:35:15Z</time>
      </trkpt>
      <trkpt lat="44.67525" lon="5.39671">
        <ele>472.3</ele>
        <time>2022-10-28T08:35:16Z</time>
      </trkpt>
      <trkpt lat="44.67522" lon="5.39677">
        <ele>472.3</ele>
        <time>2022-10-28T08:35:17Z</time>
      </trkpt>
      <trkpt lat="44.67519" lon="5.39684">
        <ele>472.4</ele>
        <time>2022-10-28T08:35:18Z</time>
      </trkpt>
      <trkpt lat="44.67517" lon="5.3969">
        <ele>472.5</ele>
        <time>2022-10-28T08:35:19Z</time>
      </trkpt>
      <trkpt lat="44.67514" lon="5.39696">
        <ele>472.5</ele>
        <time>2022-10-28T08:35:20Z</time>
      </trkpt>
      <trkpt lat="44.67511" lon="5.39703">
        <ele>472.6</ele>
        <time>2022-10-28T08:35:21Z</time>
      </trkpt>
      <trkpt lat="44.67508" lon="5.39709">
        <ele>472.7</ele>
        <time>2022-10-28T08:35:22Z</time>
      </trkpt>
      <trkpt lat="44.67506" lon="5.39715">
        <ele>472.9</ele>
        <time>2022-10-28T08:35:23Z</time>
      </trkpt>
      <trkpt lat="44.67503" lon="5.3972">
        <ele>473</ele>
        <time>2022-10-28T08:35:24Z</time>
      </trkpt>
      <trkpt lat="44.675" lon="5.39725">
        <ele>473.1</ele>
        <time>2022-10-28T08:35:25Z</time>
      </trkpt>
      <trkpt lat="44.67498" lon="5.39731">
        <ele>473.2</ele>
        <time>2022-10-28T08:35:26Z</time>
      </trkpt>
      <trkpt lat="44.67496" lon="5.39736">
        <ele>473.3</ele>
        <time>2022-10-28T08:35:27Z</time>
      </trkpt>
      <trkpt lat="44.67494" lon="5.3974">
        <ele>473.4</ele>
        <time>2022-10-28T08:35:28Z</time>
      </trkpt>
      <trkpt lat="44.67492" lon="5.39746">
        <ele>473.5</ele>
        <time>2022-10-28T08:35:29Z</time>
      </trkpt>
      <trkpt lat="44.6749" lon="5.39749">
        <ele>473.6</ele>
        <time>2022-10-28T08:35:30Z</time>
      </trkpt>
      <trkpt lat="44.67488" lon="5.39754">
        <ele>473.7</ele>
        <time>2022-10-28T08:35:31Z</time>
      </trkpt>
      <trkpt lat="44.67486" lon="5.39759">
        <ele>473.8</ele>
        <time>2022-10-28T08:35:32Z</time>
      </trkpt>
      <trkpt lat="44.67484" lon="5.39764">
        <ele>473.9</ele>
        <time>2022-10-28T08:35:33Z</time>
      </trkpt>
      <trkpt lat="44.67482" lon="5.39768">
        <ele>474</ele>
        <time>2022-10-28T08:35:34Z</time>
      </trkpt>
      <trkpt lat="44.67481" lon="5.39772">
        <ele>474.1</ele>
        <time>2022-10-28T08:35:35Z</time>
      </trkpt>
      <trkpt lat="44.67478" lon="5.39782">
        <ele>474.2</ele>
        <time>2022-10-28T08:35:37Z</time>
      </trkpt>
      <trkpt lat="44.67475" lon="5.39788">
        <ele>474.4</ele>
        <time>2022-10-28T08:35:38Z</time>
      </trkpt>
      <trkpt lat="44.67472" lon="5.39795">
        <ele>474.5</ele>
        <time>2022-10-28T08:35:39Z</time>
      </trkpt>
      <trkpt lat="44.6747" lon="5.398">
        <ele>474.6</ele>
        <time>2022-10-28T08:35:40Z</time>
      </trkpt>
      <trkpt lat="44.67467" lon="5.39805">
        <ele>474.7</ele>
        <time>2022-10-28T08:35:41Z</time>
      </trkpt>
      <trkpt lat="44.67465" lon="5.3981">
        <ele>474.8</ele>
        <time>2022-10-28T08:35:42Z</time>
      </trkpt>
      <trkpt lat="44.67463" lon="5.39814">
        <ele>474.9</ele>
        <time>2022-10-28T08:35:43Z</time>
      </trkpt>
      <trkpt lat="44.67461" lon="5.39819">
        <ele>475</ele>
        <time>2022-10-28T08:35:44Z</time>
      </trkpt>
      <trkpt lat="44.67458" lon="5.39825">
        <ele>475.1</ele>
        <time>2022-10-28T08:35:45Z</time>
      </trkpt>
      <trkpt lat="44.67457" lon="5.39829">
        <ele>475.2</ele>
        <time>2022-10-28T08:35:46Z</time>
      </trkpt>
      <trkpt lat="44.67455" lon="5.39835">
        <ele>475.3</ele>
        <time>2022-10-28T08:35:47Z</time>
      </trkpt>
      <trkpt lat="44.67452" lon="5.39841">
        <ele>475.4</ele>
        <time>2022-10-28T08:35:48Z</time>
      </trkpt>
      <trkpt lat="44.67451" lon="5.39845">
        <ele>475.5</ele>
        <time>2022-10-28T08:35:49Z</time>
      </trkpt>
      <trkpt lat="44.67448" lon="5.39849">
        <ele>475.6</ele>
        <time>2022-10-28T08:35:50Z</time>
      </trkpt>
      <trkpt lat="44.67446" lon="5.39855">
        <ele>475.7</ele>
        <time>2022-10-28T08:35:51Z</time>
      </trkpt>
      <trkpt lat="44.67444" lon="5.39859">
        <ele>475.8</ele>
        <time>2022-10-28T08:35:52Z</time>
      </trkpt>
      <trkpt lat="44.67443" lon="5.39864">
        <ele>475.9</ele>
        <time>2022-10-28T08:35:53Z</time>
      </trkpt>
      <trkpt lat="44.6744" lon="5.3987">
        <ele>476</ele>
        <time>2022-10-28T08:35:54Z</time>
      </trkpt>
      <trkpt lat="44.67438" lon="5.39873">
        <ele>476.1</ele>
        <time>2022-10-28T08:35:55Z</time>
      </trkpt>
      <trkpt lat="44.67437" lon="5.39878">
        <ele>476.2</ele>
        <time>2022-10-28T08:35:56Z</time>
      </trkpt>
      <trkpt lat="44.67434" lon="5.39883">
        <ele>476.3</ele>
        <time>2022-10-28T08:35:57Z</time>
      </trkpt>
      <trkpt lat="44.67432" lon="5.39889">
        <ele>476.5</ele>
        <time>2022-10-28T08:35:58Z</time>
      </trkpt>
      <trkpt lat="44.6743" lon="5.39894">
        <ele>476.6</ele>
        <time>2022-10-28T08:35:59Z</time>
      </trkpt>
      <trkpt lat="44.67429" lon="5.39896">
        <ele>476.6</ele>
        <time>2022-10-28T08:36:00Z</time>
      </trkpt>
      <trkpt lat="44.67427" lon="5.39901">
        <ele>476.8</ele>
        <time>2022-10-28T08:36:01Z</time>
      </trkpt>
      <trkpt lat="44.67425" lon="5.39906">
        <ele>476.9</ele>
        <time>2022-10-28T08:36:02Z</time>
      </trkpt>
      <trkpt lat="44.67422" lon="5.39911">
        <ele>477</ele>
        <time>2022-10-28T08:36:04Z</time>
      </trkpt>
      <trkpt lat="44.67419" lon="5.39918">
        <ele>477.2</ele>
        <time>2022-10-28T08:36:05Z</time>
      </trkpt>
      <trkpt lat="44.67417" lon="5.39924">
        <ele>477.3</ele>
        <time>2022-10-28T08:36:06Z</time>
      </trkpt>
      <trkpt lat="44.67413" lon="5.39932">
        <ele>477.5</ele>
        <time>2022-10-28T08:36:08Z</time>
      </trkpt>
      <trkpt lat="44.67411" lon="5.39937">
        <ele>477.6</ele>
        <time>2022-10-28T08:36:09Z</time>
      </trkpt>
      <trkpt lat="44.6741" lon="5.3994">
        <ele>477.7</ele>
        <time>2022-10-28T08:36:10Z</time>
      </trkpt>
      <trkpt lat="44.67407" lon="5.39947">
        <ele>477.8</ele>
        <time>2022-10-28T08:36:12Z</time>
      </trkpt>
      <trkpt lat="44.67404" lon="5.39953">
        <ele>478</ele>
        <time>2022-10-28T08:36:13Z</time>
      </trkpt>
      <trkpt lat="44.67402" lon="5.39958">
        <ele>478.1</ele>
        <time>2022-10-28T08:36:14Z</time>
      </trkpt>
      <trkpt lat="44.674" lon="5.39963">
        <ele>478.2</ele>
        <time>2022-10-28T08:36:15Z</time>
      </trkpt>
      <trkpt lat="44.67397" lon="5.39968">
        <ele>478.3</ele>
        <time>2022-10-28T08:36:17Z</time>
      </trkpt>
      <trkpt lat="44.67394" lon="5.39976">
        <ele>478.5</ele>
        <time>2022-10-28T08:36:18Z</time>
      </trkpt>
      <trkpt lat="44.67392" lon="5.39982">
        <ele>478.5</ele>
        <time>2022-10-28T08:36:20Z</time>
      </trkpt>
      <trkpt lat="44.67389" lon="5.39986">
        <ele>478.6</ele>
        <time>2022-10-28T08:36:21Z</time>
      </trkpt>
      <trkpt lat="44.67387" lon="5.39991">
        <ele>478.7</ele>
        <time>2022-10-28T08:36:22Z</time>
      </trkpt>
      <trkpt lat="44.67385" lon="5.39997">
        <ele>478.7</ele>
        <time>2022-10-28T08:36:23Z</time>
      </trkpt>
      <trkpt lat="44.67383" lon="5.40002">
        <ele>478.8</ele>
        <time>2022-10-28T08:36:24Z</time>
      </trkpt>
      <trkpt lat="44.6738" lon="5.4001">
        <ele>478.9</ele>
        <time>2022-10-28T08:36:26Z</time>
      </trkpt>
      <trkpt lat="44.67377" lon="5.40016">
        <ele>479</ele>
        <time>2022-10-28T08:36:27Z</time>
      </trkpt>
      <trkpt lat="44.67375" lon="5.40022">
        <ele>479</ele>
        <time>2022-10-28T08:36:29Z</time>
      </trkpt>
      <trkpt lat="44.67372" lon="5.40027">
        <ele>479.1</ele>
        <time>2022-10-28T08:36:30Z</time>
      </trkpt>
      <trkpt lat="44.6737" lon="5.40033">
        <ele>479.1</ele>
        <time>2022-10-28T08:36:31Z</time>
      </trkpt>
      <trkpt lat="44.67367" lon="5.4004">
        <ele>479.1</ele>
        <time>2022-10-28T08:36:32Z</time>
      </trkpt>
      <trkpt lat="44.67365" lon="5.40045">
        <ele>479.2</ele>
        <time>2022-10-28T08:36:33Z</time>
      </trkpt>
      <trkpt lat="44.67362" lon="5.4005">
        <ele>479.2</ele>
        <time>2022-10-28T08:36:34Z</time>
      </trkpt>
      <trkpt lat="44.6736" lon="5.40055">
        <ele>479.2</ele>
        <time>2022-10-28T08:36:35Z</time>
      </trkpt>
      <trkpt lat="44.67356" lon="5.40062">
        <ele>479.3</ele>
        <time>2022-10-28T08:36:36Z</time>
      </trkpt>
      <trkpt lat="44.67351" lon="5.40072">
        <ele>479.3</ele>
        <time>2022-10-28T08:36:38Z</time>
      </trkpt>
      <trkpt lat="44.67349" lon="5.40078">
        <ele>479.4</ele>
        <time>2022-10-28T08:36:39Z</time>
      </trkpt>
      <trkpt lat="44.67347" lon="5.40083">
        <ele>479.4</ele>
        <time>2022-10-28T08:36:40Z</time>
      </trkpt>
      <trkpt lat="44.67344" lon="5.40089">
        <ele>479.4</ele>
        <time>2022-10-28T08:36:41Z</time>
      </trkpt>
      <trkpt lat="44.67342" lon="5.40095">
        <ele>479.5</ele>
        <time>2022-10-28T08:36:42Z</time>
      </trkpt>
      <trkpt lat="44.67339" lon="5.40101">
        <ele>479.5</ele>
        <time>2022-10-28T08:36:43Z</time>
      </trkpt>
      <trkpt lat="44.67337" lon="5.40107">
        <ele>479.6</ele>
        <time>2022-10-28T08:36:44Z</time>
      </trkpt>
      <trkpt lat="44.67334" lon="5.40113">
        <ele>479.6</ele>
        <time>2022-10-28T08:36:45Z</time>
      </trkpt>
      <trkpt lat="44.67331" lon="5.40118">
        <ele>479.7</ele>
        <time>2022-10-28T08:36:46Z</time>
      </trkpt>
      <trkpt lat="44.67329" lon="5.40124">
        <ele>479.7</ele>
        <time>2022-10-28T08:36:47Z</time>
      </trkpt>
      <trkpt lat="44.67326" lon="5.4013">
        <ele>479.7</ele>
        <time>2022-10-28T08:36:48Z</time>
      </trkpt>
      <trkpt lat="44.67323" lon="5.40135">
        <ele>479.7</ele>
        <time>2022-10-28T08:36:49Z</time>
      </trkpt>
      <trkpt lat="44.67321" lon="5.40142">
        <ele>479.7</ele>
        <time>2022-10-28T08:36:50Z</time>
      </trkpt>
      <trkpt lat="44.67318" lon="5.40148">
        <ele>479.7</ele>
        <time>2022-10-28T08:36:51Z</time>
      </trkpt>
      <trkpt lat="44.67315" lon="5.40153">
        <ele>479.8</ele>
        <time>2022-10-28T08:36:52Z</time>
      </trkpt>
      <trkpt lat="44.67312" lon="5.40159">
        <ele>479.8</ele>
        <time>2022-10-28T08:36:53Z</time>
      </trkpt>
      <trkpt lat="44.67309" lon="5.40164">
        <ele>479.8</ele>
        <time>2022-10-28T08:36:54Z</time>
      </trkpt>
      <trkpt lat="44.67306" lon="5.4017">
        <ele>479.8</ele>
        <time>2022-10-28T08:36:55Z</time>
      </trkpt>
      <trkpt lat="44.67303" lon="5.40175">
        <ele>479.8</ele>
        <time>2022-10-28T08:36:56Z</time>
      </trkpt>
      <trkpt lat="44.673" lon="5.40181">
        <ele>479.8</ele>
        <time>2022-10-28T08:36:57Z</time>
      </trkpt>
      <trkpt lat="44.67296" lon="5.40186">
        <ele>479.9</ele>
        <time>2022-10-28T08:36:58Z</time>
      </trkpt>
      <trkpt lat="44.67293" lon="5.40191">
        <ele>479.9</ele>
        <time>2022-10-28T08:36:59Z</time>
      </trkpt>
      <trkpt lat="44.67289" lon="5.40197">
        <ele>479.9</ele>
        <time>2022-10-28T08:37:00Z</time>
      </trkpt>
      <trkpt lat="44.67286" lon="5.40201">
        <ele>479.9</ele>
        <time>2022-10-28T08:37:01Z</time>
      </trkpt>
      <trkpt lat="44.67282" lon="5.40206">
        <ele>480</ele>
        <time>2022-10-28T08:37:02Z</time>
      </trkpt>
      <trkpt lat="44.67278" lon="5.40211">
        <ele>480</ele>
        <time>2022-10-28T08:37:03Z</time>
      </trkpt>
      <trkpt lat="44.67274" lon="5.40215">
        <ele>480</ele>
        <time>2022-10-28T08:37:04Z</time>
      </trkpt>
      <trkpt lat="44.6727" lon="5.40219">
        <ele>480.1</ele>
        <time>2022-10-28T08:37:05Z</time>
      </trkpt>
      <trkpt lat="44.67265" lon="5.40223">
        <ele>480.1</ele>
        <time>2022-10-28T08:37:06Z</time>
      </trkpt>
      <trkpt lat="44.67261" lon="5.40227">
        <ele>480.1</ele>
        <time>2022-10-28T08:37:07Z</time>
      </trkpt>
      <trkpt lat="44.67257" lon="5.40231">
        <ele>480.2</ele>
        <time>2022-10-28T08:37:08Z</time>
      </trkpt>
      <trkpt lat="44.67253" lon="5.40235">
        <ele>480.2</ele>
        <time>2022-10-28T08:37:09Z</time>
      </trkpt>
      <trkpt lat="44.67249" lon="5.40238">
        <ele>480.2</ele>
        <time>2022-10-28T08:37:10Z</time>
      </trkpt>
      <trkpt lat="44.67245" lon="5.40241">
        <ele>480.3</ele>
        <time>2022-10-28T08:37:11Z</time>
      </trkpt>
      <trkpt lat="44.67241" lon="5.40244">
        <ele>480.3</ele>
        <time>2022-10-28T08:37:12Z</time>
      </trkpt>
      <trkpt lat="44.67236" lon="5.40247">
        <ele>480.3</ele>
        <time>2022-10-28T08:37:13Z</time>
      </trkpt>
      <trkpt lat="44.67232" lon="5.4025">
        <ele>480.3</ele>
        <time>2022-10-28T08:37:14Z</time>
      </trkpt>
      <trkpt lat="44.67228" lon="5.40252">
        <ele>480.3</ele>
        <time>2022-10-28T08:37:15Z</time>
      </trkpt>
      <trkpt lat="44.67224" lon="5.40254">
        <ele>480.3</ele>
        <time>2022-10-28T08:37:16Z</time>
      </trkpt>
      <trkpt lat="44.67219" lon="5.40257">
        <ele>480.3</ele>
        <time>2022-10-28T08:37:17Z</time>
      </trkpt>
      <trkpt lat="44.67214" lon="5.40259">
        <ele>480.3</ele>
        <time>2022-10-28T08:37:18Z</time>
      </trkpt>
      <trkpt lat="44.67209" lon="5.40261">
        <ele>480.3</ele>
        <time>2022-10-28T08:37:19Z</time>
      </trkpt>
      <trkpt lat="44.67204" lon="5.40263">
        <ele>480.3</ele>
        <time>2022-10-28T08:37:20Z</time>
      </trkpt>
      <trkpt lat="44.672" lon="5.40264">
        <ele>480.3</ele>
        <time>2022-10-28T08:37:21Z</time>
      </trkpt>
      <trkpt lat="44.67195" lon="5.40266">
        <ele>480.3</ele>
        <time>2022-10-28T08:37:22Z</time>
      </trkpt>
      <trkpt lat="44.67189" lon="5.40268">
        <ele>480.3</ele>
        <time>2022-10-28T08:37:23Z</time>
      </trkpt>
      <trkpt lat="44.67184" lon="5.40269">
        <ele>480.3</ele>
        <time>2022-10-28T08:37:24Z</time>
      </trkpt>
      <trkpt lat="44.67179" lon="5.40271">
        <ele>480.4</ele>
        <time>2022-10-28T08:37:25Z</time>
      </trkpt>
      <trkpt lat="44.67174" lon="5.40272">
        <ele>480.4</ele>
        <time>2022-10-28T08:37:26Z</time>
      </trkpt>
      <trkpt lat="44.67169" lon="5.40274">
        <ele>480.4</ele>
        <time>2022-10-28T08:37:27Z</time>
      </trkpt>
      <trkpt lat="44.67164" lon="5.40275">
        <ele>480.5</ele>
        <time>2022-10-28T08:37:28Z</time>
      </trkpt>
      <trkpt lat="44.67159" lon="5.40277">
        <ele>480.5</ele>
        <time>2022-10-28T08:37:29Z</time>
      </trkpt>
      <trkpt lat="44.67154" lon="5.40278">
        <ele>480.6</ele>
        <time>2022-10-28T08:37:30Z</time>
      </trkpt>
      <trkpt lat="44.67149" lon="5.4028">
        <ele>480.7</ele>
        <time>2022-10-28T08:37:31Z</time>
      </trkpt>
      <trkpt lat="44.67145" lon="5.40281">
        <ele>480.7</ele>
        <time>2022-10-28T08:37:32Z</time>
      </trkpt>
      <trkpt lat="44.6714" lon="5.40283">
        <ele>480.8</ele>
        <time>2022-10-28T08:37:33Z</time>
      </trkpt>
      <trkpt lat="44.67135" lon="5.40285">
        <ele>480.8</ele>
        <time>2022-10-28T08:37:34Z</time>
      </trkpt>
      <trkpt lat="44.6713" lon="5.40286">
        <ele>480.9</ele>
        <time>2022-10-28T08:37:35Z</time>
      </trkpt>
      <trkpt lat="44.67125" lon="5.40288">
        <ele>480.9</ele>
        <time>2022-10-28T08:37:36Z</time>
      </trkpt>
      <trkpt lat="44.6712" lon="5.40289">
        <ele>480.9</ele>
        <time>2022-10-28T08:37:37Z</time>
      </trkpt>
      <trkpt lat="44.67115" lon="5.40291">
        <ele>480.9</ele>
        <time>2022-10-28T08:37:38Z</time>
      </trkpt>
      <trkpt lat="44.67111" lon="5.40292">
        <ele>481</ele>
        <time>2022-10-28T08:37:39Z</time>
      </trkpt>
      <trkpt lat="44.67106" lon="5.40294">
        <ele>481</ele>
        <time>2022-10-28T08:37:40Z</time>
      </trkpt>
      <trkpt lat="44.67101" lon="5.40295">
        <ele>481</ele>
        <time>2022-10-28T08:37:41Z</time>
      </trkpt>
      <trkpt lat="44.67096" lon="5.40297">
        <ele>481.1</ele>
        <time>2022-10-28T08:37:42Z</time>
      </trkpt>
      <trkpt lat="44.67091" lon="5.40298">
        <ele>481.1</ele>
        <time>2022-10-28T08:37:43Z</time>
      </trkpt>
      <trkpt lat="44.67086" lon="5.403">
        <ele>481.2</ele>
        <time>2022-10-28T08:37:44Z</time>
      </trkpt>
      <trkpt lat="44.67081" lon="5.40301">
        <ele>481.3</ele>
        <time>2022-10-28T08:37:45Z</time>
      </trkpt>
      <trkpt lat="44.67076" lon="5.40303">
        <ele>481.3</ele>
        <time>2022-10-28T08:37:46Z</time>
      </trkpt>
      <trkpt lat="44.67072" lon="5.40304">
        <ele>481.4</ele>
        <time>2022-10-28T08:37:47Z</time>
      </trkpt>
      <trkpt lat="44.67067" lon="5.40306">
        <ele>481.4</ele>
        <time>2022-10-28T08:37:48Z</time>
      </trkpt>
      <trkpt lat="44.67062" lon="5.40307">
        <ele>481.5</ele>
        <time>2022-10-28T08:37:49Z</time>
      </trkpt>
      <trkpt lat="44.67057" lon="5.40308">
        <ele>481.5</ele>
        <time>2022-10-28T08:37:50Z</time>
      </trkpt>
      <trkpt lat="44.67052" lon="5.4031">
        <ele>481.6</ele>
        <time>2022-10-28T08:37:51Z</time>
      </trkpt>
      <trkpt lat="44.67048" lon="5.40311">
        <ele>481.6</ele>
        <time>2022-10-28T08:37:52Z</time>
      </trkpt>
      <trkpt lat="44.67043" lon="5.40313">
        <ele>481.6</ele>
        <time>2022-10-28T08:37:53Z</time>
      </trkpt>
      <trkpt lat="44.67038" lon="5.40315">
        <ele>481.6</ele>
        <time>2022-10-28T08:37:54Z</time>
      </trkpt>
      <trkpt lat="44.67034" lon="5.40316">
        <ele>481.7</ele>
        <time>2022-10-28T08:37:55Z</time>
      </trkpt>
      <trkpt lat="44.67029" lon="5.40318">
        <ele>481.7</ele>
        <time>2022-10-28T08:37:56Z</time>
      </trkpt>
      <trkpt lat="44.67025" lon="5.40319">
        <ele>481.7</ele>
        <time>2022-10-28T08:37:57Z</time>
      </trkpt>
      <trkpt lat="44.6702" lon="5.4032">
        <ele>481.7</ele>
        <time>2022-10-28T08:37:58Z</time>
      </trkpt>
      <trkpt lat="44.67015" lon="5.40322">
        <ele>481.8</ele>
        <time>2022-10-28T08:37:59Z</time>
      </trkpt>
      <trkpt lat="44.67011" lon="5.40323">
        <ele>481.8</ele>
        <time>2022-10-28T08:38:00Z</time>
      </trkpt>
      <trkpt lat="44.67005" lon="5.40325">
        <ele>481.9</ele>
        <time>2022-10-28T08:38:01Z</time>
      </trkpt>
      <trkpt lat="44.67001" lon="5.40326">
        <ele>481.9</ele>
        <time>2022-10-28T08:38:02Z</time>
      </trkpt>
      <trkpt lat="44.66996" lon="5.40328">
        <ele>482</ele>
        <time>2022-10-28T08:38:03Z</time>
      </trkpt>
      <trkpt lat="44.66991" lon="5.4033">
        <ele>482</ele>
        <time>2022-10-28T08:38:04Z</time>
      </trkpt>
      <trkpt lat="44.66987" lon="5.40331">
        <ele>482</ele>
        <time>2022-10-28T08:38:05Z</time>
      </trkpt>
      <trkpt lat="44.66982" lon="5.40332">
        <ele>482.1</ele>
        <time>2022-10-28T08:38:06Z</time>
      </trkpt>
      <trkpt lat="44.66977" lon="5.40334">
        <ele>482.1</ele>
        <time>2022-10-28T08:38:07Z</time>
      </trkpt>
      <trkpt lat="44.66973" lon="5.40335">
        <ele>482.2</ele>
        <time>2022-10-28T08:38:08Z</time>
      </trkpt>
      <trkpt lat="44.66968" lon="5.40336">
        <ele>482.2</ele>
        <time>2022-10-28T08:38:09Z</time>
      </trkpt>
      <trkpt lat="44.66963" lon="5.40338">
        <ele>482.3</ele>
        <time>2022-10-28T08:38:10Z</time>
      </trkpt>
      <trkpt lat="44.66958" lon="5.40339">
        <ele>482.3</ele>
        <time>2022-10-28T08:38:11Z</time>
      </trkpt>
      <trkpt lat="44.66953" lon="5.40341">
        <ele>482.4</ele>
        <time>2022-10-28T08:38:12Z</time>
      </trkpt>
      <trkpt lat="44.66949" lon="5.40342">
        <ele>482.4</ele>
        <time>2022-10-28T08:38:13Z</time>
      </trkpt>
      <trkpt lat="44.66944" lon="5.40344">
        <ele>482.5</ele>
        <time>2022-10-28T08:38:14Z</time>
      </trkpt>
      <trkpt lat="44.66939" lon="5.40346">
        <ele>482.5</ele>
        <time>2022-10-28T08:38:15Z</time>
      </trkpt>
      <trkpt lat="44.66935" lon="5.40347">
        <ele>482.6</ele>
        <time>2022-10-28T08:38:16Z</time>
      </trkpt>
      <trkpt lat="44.6693" lon="5.40349">
        <ele>482.6</ele>
        <time>2022-10-28T08:38:17Z</time>
      </trkpt>
      <trkpt lat="44.66925" lon="5.4035">
        <ele>482.7</ele>
        <time>2022-10-28T08:38:18Z</time>
      </trkpt>
      <trkpt lat="44.6692" lon="5.40352">
        <ele>482.7</ele>
        <time>2022-10-28T08:38:19Z</time>
      </trkpt>
      <trkpt lat="44.66915" lon="5.40354">
        <ele>482.8</ele>
        <time>2022-10-28T08:38:20Z</time>
      </trkpt>
      <trkpt lat="44.66911" lon="5.40355">
        <ele>482.9</ele>
        <time>2022-10-28T08:38:21Z</time>
      </trkpt>
      <trkpt lat="44.66906" lon="5.40356">
        <ele>482.9</ele>
        <time>2022-10-28T08:38:22Z</time>
      </trkpt>
      <trkpt lat="44.66901" lon="5.40358">
        <ele>483</ele>
        <time>2022-10-28T08:38:23Z</time>
      </trkpt>
      <trkpt lat="44.66896" lon="5.40359">
        <ele>483.1</ele>
        <time>2022-10-28T08:38:24Z</time>
      </trkpt>
      <trkpt lat="44.66891" lon="5.4036">
        <ele>483.1</ele>
        <time>2022-10-28T08:38:25Z</time>
      </trkpt>
      <trkpt lat="44.66887" lon="5.40362">
        <ele>483.2</ele>
        <time>2022-10-28T08:38:26Z</time>
      </trkpt>
      <trkpt lat="44.66882" lon="5.40363">
        <ele>483.3</ele>
        <time>2022-10-28T08:38:27Z</time>
      </trkpt>
      <trkpt lat="44.66877" lon="5.40364">
        <ele>483.4</ele>
        <time>2022-10-28T08:38:28Z</time>
      </trkpt>
      <trkpt lat="44.66872" lon="5.40365">
        <ele>483.4</ele>
        <time>2022-10-28T08:38:29Z</time>
      </trkpt>
      <trkpt lat="44.66868" lon="5.40367">
        <ele>483.5</ele>
        <time>2022-10-28T08:38:30Z</time>
      </trkpt>
      <trkpt lat="44.66863" lon="5.40368">
        <ele>483.6</ele>
        <time>2022-10-28T08:38:31Z</time>
      </trkpt>
      <trkpt lat="44.66859" lon="5.4037">
        <ele>483.6</ele>
        <time>2022-10-28T08:38:32Z</time>
      </trkpt>
      <trkpt lat="44.66854" lon="5.40371">
        <ele>483.7</ele>
        <time>2022-10-28T08:38:33Z</time>
      </trkpt>
      <trkpt lat="44.66849" lon="5.40373">
        <ele>483.8</ele>
        <time>2022-10-28T08:38:34Z</time>
      </trkpt>
      <trkpt lat="44.66845" lon="5.40374">
        <ele>483.9</ele>
        <time>2022-10-28T08:38:35Z</time>
      </trkpt>
      <trkpt lat="44.6684" lon="5.40376">
        <ele>484</ele>
        <time>2022-10-28T08:38:36Z</time>
      </trkpt>
      <trkpt lat="44.66836" lon="5.40377">
        <ele>484</ele>
        <time>2022-10-28T08:38:37Z</time>
      </trkpt>
      <trkpt lat="44.66831" lon="5.40379">
        <ele>484.1</ele>
        <time>2022-10-28T08:38:38Z</time>
      </trkpt>
      <trkpt lat="44.66827" lon="5.4038">
        <ele>484.1</ele>
        <time>2022-10-28T08:38:39Z</time>
      </trkpt>
      <trkpt lat="44.66822" lon="5.40382">
        <ele>484.2</ele>
        <time>2022-10-28T08:38:40Z</time>
      </trkpt>
      <trkpt lat="44.66818" lon="5.40383">
        <ele>484.2</ele>
        <time>2022-10-28T08:38:41Z</time>
      </trkpt>
      <trkpt lat="44.66813" lon="5.40384">
        <ele>484.2</ele>
        <time>2022-10-28T08:38:42Z</time>
      </trkpt>
      <trkpt lat="44.66809" lon="5.40386">
        <ele>484.2</ele>
        <time>2022-10-28T08:38:43Z</time>
      </trkpt>
      <trkpt lat="44.66804" lon="5.40387">
        <ele>484.2</ele>
        <time>2022-10-28T08:38:44Z</time>
      </trkpt>
      <trkpt lat="44.66799" lon="5.40389">
        <ele>484.2</ele>
        <time>2022-10-28T08:38:45Z</time>
      </trkpt>
      <trkpt lat="44.66795" lon="5.4039">
        <ele>484.2</ele>
        <time>2022-10-28T08:38:46Z</time>
      </trkpt>
      <trkpt lat="44.6679" lon="5.40392">
        <ele>484.2</ele>
        <time>2022-10-28T08:38:47Z</time>
      </trkpt>
      <trkpt lat="44.66785" lon="5.40394">
        <ele>484.1</ele>
        <time>2022-10-28T08:38:48Z</time>
      </trkpt>
      <trkpt lat="44.6678" lon="5.40395">
        <ele>484.1</ele>
        <time>2022-10-28T08:38:49Z</time>
      </trkpt>
      <trkpt lat="44.66775" lon="5.40397">
        <ele>484</ele>
        <time>2022-10-28T08:38:50Z</time>
      </trkpt>
      <trkpt lat="44.66769" lon="5.40399">
        <ele>484</ele>
        <time>2022-10-28T08:38:51Z</time>
      </trkpt>
      <trkpt lat="44.66764" lon="5.404">
        <ele>483.9</ele>
        <time>2022-10-28T08:38:52Z</time>
      </trkpt>
      <trkpt lat="44.66759" lon="5.40402">
        <ele>483.9</ele>
        <time>2022-10-28T08:38:53Z</time>
      </trkpt>
      <trkpt lat="44.66754" lon="5.40404">
        <ele>483.8</ele>
        <time>2022-10-28T08:38:54Z</time>
      </trkpt>
      <trkpt lat="44.66748" lon="5.40406">
        <ele>483.8</ele>
        <time>2022-10-28T08:38:55Z</time>
      </trkpt>
      <trkpt lat="44.66743" lon="5.40407">
        <ele>483.7</ele>
        <time>2022-10-28T08:38:56Z</time>
      </trkpt>
      <trkpt lat="44.66738" lon="5.40409">
        <ele>483.7</ele>
        <time>2022-10-28T08:38:57Z</time>
      </trkpt>
      <trkpt lat="44.66732" lon="5.4041">
        <ele>483.7</ele>
        <time>2022-10-28T08:38:58Z</time>
      </trkpt>
      <trkpt lat="44.66727" lon="5.40412">
        <ele>483.6</ele>
        <time>2022-10-28T08:38:59Z</time>
      </trkpt>
      <trkpt lat="44.66722" lon="5.40413">
        <ele>483.6</ele>
        <time>2022-10-28T08:39:00Z</time>
      </trkpt>
      <trkpt lat="44.66717" lon="5.40415">
        <ele>483.5</ele>
        <time>2022-10-28T08:39:01Z</time>
      </trkpt>
      <trkpt lat="44.66711" lon="5.40417">
        <ele>483.5</ele>
        <time>2022-10-28T08:39:02Z</time>
      </trkpt>
      <trkpt lat="44.66706" lon="5.40418">
        <ele>483.4</ele>
        <time>2022-10-28T08:39:03Z</time>
      </trkpt>
      <trkpt lat="44.66701" lon="5.4042">
        <ele>483.4</ele>
        <time>2022-10-28T08:39:04Z</time>
      </trkpt>
      <trkpt lat="44.66696" lon="5.40421">
        <ele>483.3</ele>
        <time>2022-10-28T08:39:05Z</time>
      </trkpt>
      <trkpt lat="44.6669" lon="5.40423">
        <ele>483.3</ele>
        <time>2022-10-28T08:39:06Z</time>
      </trkpt>
      <trkpt lat="44.66685" lon="5.40425">
        <ele>483.3</ele>
        <time>2022-10-28T08:39:07Z</time>
      </trkpt>
      <trkpt lat="44.66679" lon="5.40426">
        <ele>483.2</ele>
        <time>2022-10-28T08:39:08Z</time>
      </trkpt>
      <trkpt lat="44.66674" lon="5.40428">
        <ele>483.2</ele>
        <time>2022-10-28T08:39:09Z</time>
      </trkpt>
      <trkpt lat="44.66669" lon="5.40429">
        <ele>483.2</ele>
        <time>2022-10-28T08:39:10Z</time>
      </trkpt>
      <trkpt lat="44.66663" lon="5.40431">
        <ele>483.2</ele>
        <time>2022-10-28T08:39:11Z</time>
      </trkpt>
      <trkpt lat="44.66658" lon="5.40433">
        <ele>483.2</ele>
        <time>2022-10-28T08:39:12Z</time>
      </trkpt>
      <trkpt lat="44.66653" lon="5.40435">
        <ele>483.1</ele>
        <time>2022-10-28T08:39:13Z</time>
      </trkpt>
      <trkpt lat="44.66648" lon="5.40436">
        <ele>483.1</ele>
        <time>2022-10-28T08:39:14Z</time>
      </trkpt>
      <trkpt lat="44.66643" lon="5.40438">
        <ele>483.1</ele>
        <time>2022-10-28T08:39:15Z</time>
      </trkpt>
      <trkpt lat="44.66638" lon="5.4044">
        <ele>483.1</ele>
        <time>2022-10-28T08:39:16Z</time>
      </trkpt>
      <trkpt lat="44.66633" lon="5.40442">
        <ele>483.1</ele>
        <time>2022-10-28T08:39:17Z</time>
      </trkpt>
      <trkpt lat="44.66628" lon="5.40444">
        <ele>483.2</ele>
        <time>2022-10-28T08:39:18Z</time>
      </trkpt>
      <trkpt lat="44.66623" lon="5.40446">
        <ele>483.2</ele>
        <time>2022-10-28T08:39:19Z</time>
      </trkpt>
      <trkpt lat="44.66618" lon="5.40449">
        <ele>483.2</ele>
        <time>2022-10-28T08:39:20Z</time>
      </trkpt>
      <trkpt lat="44.66613" lon="5.40452">
        <ele>483.2</ele>
        <time>2022-10-28T08:39:21Z</time>
      </trkpt>
      <trkpt lat="44.66608" lon="5.40455">
        <ele>483.3</ele>
        <time>2022-10-28T08:39:22Z</time>
      </trkpt>
      <trkpt lat="44.66603" lon="5.40458">
        <ele>483.3</ele>
        <time>2022-10-28T08:39:23Z</time>
      </trkpt>
      <trkpt lat="44.66598" lon="5.40461">
        <ele>483.3</ele>
        <time>2022-10-28T08:39:24Z</time>
      </trkpt>
      <trkpt lat="44.66593" lon="5.40465">
        <ele>483.4</ele>
        <time>2022-10-28T08:39:25Z</time>
      </trkpt>
      <trkpt lat="44.66589" lon="5.40468">
        <ele>483.4</ele>
        <time>2022-10-28T08:39:26Z</time>
      </trkpt>
      <trkpt lat="44.66584" lon="5.40472">
        <ele>483.5</ele>
        <time>2022-10-28T08:39:27Z</time>
      </trkpt>
      <trkpt lat="44.6658" lon="5.40476">
        <ele>483.5</ele>
        <time>2022-10-28T08:39:28Z</time>
      </trkpt>
      <trkpt lat="44.66575" lon="5.40479">
        <ele>483.6</ele>
        <time>2022-10-28T08:39:29Z</time>
      </trkpt>
      <trkpt lat="44.6657" lon="5.40483">
        <ele>483.6</ele>
        <time>2022-10-28T08:39:30Z</time>
      </trkpt>
      <trkpt lat="44.66565" lon="5.40486">
        <ele>483.7</ele>
        <time>2022-10-28T08:39:31Z</time>
      </trkpt>
      <trkpt lat="44.66561" lon="5.4049">
        <ele>483.7</ele>
        <time>2022-10-28T08:39:32Z</time>
      </trkpt>
      <trkpt lat="44.66556" lon="5.40494">
        <ele>483.8</ele>
        <time>2022-10-28T08:39:33Z</time>
      </trkpt>
      <trkpt lat="44.66552" lon="5.40497">
        <ele>483.8</ele>
        <time>2022-10-28T08:39:34Z</time>
      </trkpt>
      <trkpt lat="44.66547" lon="5.405">
        <ele>483.9</ele>
        <time>2022-10-28T08:39:35Z</time>
      </trkpt>
      <trkpt lat="44.66543" lon="5.40504">
        <ele>483.9</ele>
        <time>2022-10-28T08:39:36Z</time>
      </trkpt>
      <trkpt lat="44.66539" lon="5.40507">
        <ele>483.9</ele>
        <time>2022-10-28T08:39:37Z</time>
      </trkpt>
      <trkpt lat="44.66534" lon="5.4051">
        <ele>484</ele>
        <time>2022-10-28T08:39:38Z</time>
      </trkpt>
      <trkpt lat="44.66529" lon="5.40514">
        <ele>484</ele>
        <time>2022-10-28T08:39:39Z</time>
      </trkpt>
      <trkpt lat="44.66525" lon="5.40517">
        <ele>484</ele>
        <time>2022-10-28T08:39:40Z</time>
      </trkpt>
      <trkpt lat="44.6652" lon="5.4052">
        <ele>484.1</ele>
        <time>2022-10-28T08:39:41Z</time>
      </trkpt>
      <trkpt lat="44.66516" lon="5.40524">
        <ele>484.1</ele>
        <time>2022-10-28T08:39:42Z</time>
      </trkpt>
      <trkpt lat="44.66511" lon="5.40527">
        <ele>484.1</ele>
        <time>2022-10-28T08:39:43Z</time>
      </trkpt>
      <trkpt lat="44.66507" lon="5.40531">
        <ele>484.2</ele>
        <time>2022-10-28T08:39:44Z</time>
      </trkpt>
      <trkpt lat="44.66502" lon="5.40534">
        <ele>484.2</ele>
        <time>2022-10-28T08:39:45Z</time>
      </trkpt>
      <trkpt lat="44.66498" lon="5.40537">
        <ele>484.2</ele>
        <time>2022-10-28T08:39:46Z</time>
      </trkpt>
      <trkpt lat="44.66493" lon="5.40541">
        <ele>484.2</ele>
        <time>2022-10-28T08:39:47Z</time>
      </trkpt>
      <trkpt lat="44.66488" lon="5.40544">
        <ele>484.3</ele>
        <time>2022-10-28T08:39:48Z</time>
      </trkpt>
      <trkpt lat="44.66484" lon="5.40548">
        <ele>484.3</ele>
        <time>2022-10-28T08:39:49Z</time>
      </trkpt>
      <trkpt lat="44.66479" lon="5.40551">
        <ele>484.3</ele>
        <time>2022-10-28T08:39:50Z</time>
      </trkpt>
      <trkpt lat="44.66475" lon="5.40555">
        <ele>484.3</ele>
        <time>2022-10-28T08:39:51Z</time>
      </trkpt>
      <trkpt lat="44.6647" lon="5.40558">
        <ele>484.4</ele>
        <time>2022-10-28T08:39:52Z</time>
      </trkpt>
      <trkpt lat="44.66465" lon="5.40561">
        <ele>484.4</ele>
        <time>2022-10-28T08:39:53Z</time>
      </trkpt>
      <trkpt lat="44.66461" lon="5.40565">
        <ele>484.4</ele>
        <time>2022-10-28T08:39:54Z</time>
      </trkpt>
      <trkpt lat="44.66456" lon="5.40568">
        <ele>484.4</ele>
        <time>2022-10-28T08:39:55Z</time>
      </trkpt>
      <trkpt lat="44.66451" lon="5.40572">
        <ele>484.5</ele>
        <time>2022-10-28T08:39:56Z</time>
      </trkpt>
      <trkpt lat="44.66446" lon="5.40575">
        <ele>484.5</ele>
        <time>2022-10-28T08:39:57Z</time>
      </trkpt>
      <trkpt lat="44.66442" lon="5.40579">
        <ele>484.6</ele>
        <time>2022-10-28T08:39:58Z</time>
      </trkpt>
      <trkpt lat="44.66437" lon="5.40583">
        <ele>484.6</ele>
        <time>2022-10-28T08:39:59Z</time>
      </trkpt>
      <trkpt lat="44.66432" lon="5.40586">
        <ele>484.7</ele>
        <time>2022-10-28T08:40:00Z</time>
      </trkpt>
      <trkpt lat="44.66428" lon="5.4059">
        <ele>484.7</ele>
        <time>2022-10-28T08:40:01Z</time>
      </trkpt>
      <trkpt lat="44.66423" lon="5.40593">
        <ele>484.8</ele>
        <time>2022-10-28T08:40:02Z</time>
      </trkpt>
      <trkpt lat="44.66419" lon="5.40597">
        <ele>484.8</ele>
        <time>2022-10-28T08:40:03Z</time>
      </trkpt>
      <trkpt lat="44.66414" lon="5.40601">
        <ele>484.8</ele>
        <time>2022-10-28T08:40:04Z</time>
      </trkpt>
      <trkpt lat="44.6641" lon="5.40604">
        <ele>484.9</ele>
        <time>2022-10-28T08:40:05Z</time>
      </trkpt>
      <trkpt lat="44.66405" lon="5.40607">
        <ele>484.9</ele>
        <time>2022-10-28T08:40:06Z</time>
      </trkpt>
      <trkpt lat="44.66401" lon="5.40611">
        <ele>485</ele>
        <time>2022-10-28T08:40:07Z</time>
      </trkpt>
      <trkpt lat="44.66396" lon="5.40614">
        <ele>485</ele>
        <time>2022-10-28T08:40:08Z</time>
      </trkpt>
      <trkpt lat="44.66392" lon="5.40618">
        <ele>485.1</ele>
        <time>2022-10-28T08:40:09Z</time>
      </trkpt>
      <trkpt lat="44.66387" lon="5.40622">
        <ele>485.2</ele>
        <time>2022-10-28T08:40:10Z</time>
      </trkpt>
      <trkpt lat="44.66383" lon="5.40625">
        <ele>485.3</ele>
        <time>2022-10-28T08:40:11Z</time>
      </trkpt>
      <trkpt lat="44.66378" lon="5.40629">
        <ele>485.4</ele>
        <time>2022-10-28T08:40:12Z</time>
      </trkpt>
      <trkpt lat="44.66374" lon="5.40632">
        <ele>485.4</ele>
        <time>2022-10-28T08:40:13Z</time>
      </trkpt>
      <trkpt lat="44.66369" lon="5.40636">
        <ele>485.5</ele>
        <time>2022-10-28T08:40:14Z</time>
      </trkpt>
      <trkpt lat="44.66364" lon="5.40639">
        <ele>485.5</ele>
        <time>2022-10-28T08:40:15Z</time>
      </trkpt>
      <trkpt lat="44.6636" lon="5.40643">
        <ele>485.5</ele>
        <time>2022-10-28T08:40:16Z</time>
      </trkpt>
      <trkpt lat="44.66356" lon="5.40646">
        <ele>485.5</ele>
        <time>2022-10-28T08:40:17Z</time>
      </trkpt>
      <trkpt lat="44.66351" lon="5.4065">
        <ele>485.6</ele>
        <time>2022-10-28T08:40:18Z</time>
      </trkpt>
      <trkpt lat="44.66347" lon="5.40653">
        <ele>485.6</ele>
        <time>2022-10-28T08:40:19Z</time>
      </trkpt>
      <trkpt lat="44.66342" lon="5.40656">
        <ele>485.6</ele>
        <time>2022-10-28T08:40:20Z</time>
      </trkpt>
      <trkpt lat="44.66338" lon="5.40659">
        <ele>485.7</ele>
        <time>2022-10-28T08:40:21Z</time>
      </trkpt>
      <trkpt lat="44.66334" lon="5.40663">
        <ele>485.7</ele>
        <time>2022-10-28T08:40:22Z</time>
      </trkpt>
      <trkpt lat="44.66329" lon="5.40666">
        <ele>485.7</ele>
        <time>2022-10-28T08:40:23Z</time>
      </trkpt>
      <trkpt lat="44.66325" lon="5.40669">
        <ele>485.8</ele>
        <time>2022-10-28T08:40:24Z</time>
      </trkpt>
      <trkpt lat="44.66321" lon="5.40672">
        <ele>485.8</ele>
        <time>2022-10-28T08:40:25Z</time>
      </trkpt>
      <trkpt lat="44.66317" lon="5.40675">
        <ele>485.9</ele>
        <time>2022-10-28T08:40:26Z</time>
      </trkpt>
      <trkpt lat="44.66312" lon="5.40678">
        <ele>485.9</ele>
        <time>2022-10-28T08:40:27Z</time>
      </trkpt>
      <trkpt lat="44.66308" lon="5.40682">
        <ele>485.9</ele>
        <time>2022-10-28T08:40:28Z</time>
      </trkpt>
      <trkpt lat="44.66304" lon="5.40685">
        <ele>486</ele>
        <time>2022-10-28T08:40:29Z</time>
      </trkpt>
      <trkpt lat="44.663" lon="5.40688">
        <ele>486</ele>
        <time>2022-10-28T08:40:30Z</time>
      </trkpt>
      <trkpt lat="44.66295" lon="5.40692">
        <ele>486</ele>
        <time>2022-10-28T08:40:31Z</time>
      </trkpt>
      <trkpt lat="44.66291" lon="5.40695">
        <ele>486.1</ele>
        <time>2022-10-28T08:40:32Z</time>
      </trkpt>
      <trkpt lat="44.66287" lon="5.40699">
        <ele>486.1</ele>
        <time>2022-10-28T08:40:33Z</time>
      </trkpt>
      <trkpt lat="44.66282" lon="5.40702">
        <ele>486.1</ele>
        <time>2022-10-28T08:40:34Z</time>
      </trkpt>
      <trkpt lat="44.66278" lon="5.40705">
        <ele>486.2</ele>
        <time>2022-10-28T08:40:35Z</time>
      </trkpt>
      <trkpt lat="44.66274" lon="5.40708">
        <ele>486.2</ele>
        <time>2022-10-28T08:40:36Z</time>
      </trkpt>
      <trkpt lat="44.6627" lon="5.40711">
        <ele>486.2</ele>
        <time>2022-10-28T08:40:37Z</time>
      </trkpt>
      <trkpt lat="44.66266" lon="5.40714">
        <ele>486.3</ele>
        <time>2022-10-28T08:40:38Z</time>
      </trkpt>
      <trkpt lat="44.66262" lon="5.40718">
        <ele>486.3</ele>
        <time>2022-10-28T08:40:39Z</time>
      </trkpt>
      <trkpt lat="44.66257" lon="5.40721">
        <ele>486.4</ele>
        <time>2022-10-28T08:40:40Z</time>
      </trkpt>
      <trkpt lat="44.66253" lon="5.40724">
        <ele>486.4</ele>
        <time>2022-10-28T08:40:41Z</time>
      </trkpt>
      <trkpt lat="44.66249" lon="5.40727">
        <ele>486.5</ele>
        <time>2022-10-28T08:40:42Z</time>
      </trkpt>
      <trkpt lat="44.66245" lon="5.4073">
        <ele>486.5</ele>
        <time>2022-10-28T08:40:43Z</time>
      </trkpt>
      <trkpt lat="44.66241" lon="5.40733">
        <ele>486.6</ele>
        <time>2022-10-28T08:40:44Z</time>
      </trkpt>
      <trkpt lat="44.66236" lon="5.40737">
        <ele>486.6</ele>
        <time>2022-10-28T08:40:45Z</time>
      </trkpt>
      <trkpt lat="44.66232" lon="5.4074">
        <ele>486.7</ele>
        <time>2022-10-28T08:40:46Z</time>
      </trkpt>
      <trkpt lat="44.66228" lon="5.40743">
        <ele>486.8</ele>
        <time>2022-10-28T08:40:47Z</time>
      </trkpt>
      <trkpt lat="44.66224" lon="5.40745">
        <ele>486.8</ele>
        <time>2022-10-28T08:40:48Z</time>
      </trkpt>
      <trkpt lat="44.6622" lon="5.40748">
        <ele>486.9</ele>
        <time>2022-10-28T08:40:49Z</time>
      </trkpt>
      <trkpt lat="44.66216" lon="5.40751">
        <ele>487</ele>
        <time>2022-10-28T08:40:50Z</time>
      </trkpt>
      <trkpt lat="44.66212" lon="5.40754">
        <ele>487</ele>
        <time>2022-10-28T08:40:51Z</time>
      </trkpt>
      <trkpt lat="44.66208" lon="5.40758">
        <ele>487.1</ele>
        <time>2022-10-28T08:40:52Z</time>
      </trkpt>
      <trkpt lat="44.66204" lon="5.40761">
        <ele>487.1</ele>
        <time>2022-10-28T08:40:53Z</time>
      </trkpt>
      <trkpt lat="44.662" lon="5.40764">
        <ele>487.2</ele>
        <time>2022-10-28T08:40:54Z</time>
      </trkpt>
      <trkpt lat="44.66196" lon="5.40767">
        <ele>487.2</ele>
        <time>2022-10-28T08:40:55Z</time>
      </trkpt>
      <trkpt lat="44.66192" lon="5.4077">
        <ele>487.3</ele>
        <time>2022-10-28T08:40:56Z</time>
      </trkpt>
      <trkpt lat="44.66189" lon="5.40772">
        <ele>487.3</ele>
        <time>2022-10-28T08:40:57Z</time>
      </trkpt>
      <trkpt lat="44.66186" lon="5.40775">
        <ele>487.4</ele>
        <time>2022-10-28T08:40:58Z</time>
      </trkpt>
      <trkpt lat="44.66181" lon="5.40778">
        <ele>487.5</ele>
        <time>2022-10-28T08:40:59Z</time>
      </trkpt>
      <trkpt lat="44.66178" lon="5.4078">
        <ele>487.5</ele>
        <time>2022-10-28T08:41:00Z</time>
      </trkpt>
      <trkpt lat="44.66173" lon="5.40783">
        <ele>487.6</ele>
        <time>2022-10-28T08:41:01Z</time>
      </trkpt>
      <trkpt lat="44.66171" lon="5.40785">
        <ele>487.6</ele>
        <time>2022-10-28T08:41:02Z</time>
      </trkpt>
      <trkpt lat="44.66165" lon="5.40787">
        <ele>487.7</ele>
        <time>2022-10-28T08:41:04Z</time>
      </trkpt>
      <trkpt lat="44.66157" lon="5.40794">
        <ele>487.9</ele>
        <time>2022-10-28T08:41:05Z</time>
      </trkpt>
      <trkpt lat="44.6615" lon="5.40799">
        <ele>488.1</ele>
        <time>2022-10-28T08:41:07Z</time>
      </trkpt>
      <trkpt lat="44.66147" lon="5.40802">
        <ele>488.2</ele>
        <time>2022-10-28T08:41:08Z</time>
      </trkpt>
      <trkpt lat="44.66143" lon="5.40805">
        <ele>488.3</ele>
        <time>2022-10-28T08:41:09Z</time>
      </trkpt>
      <trkpt lat="44.66139" lon="5.40808">
        <ele>488.4</ele>
        <time>2022-10-28T08:41:10Z</time>
      </trkpt>
      <trkpt lat="44.66134" lon="5.40812">
        <ele>488.5</ele>
        <time>2022-10-28T08:41:11Z</time>
      </trkpt>
      <trkpt lat="44.6613" lon="5.40815">
        <ele>488.6</ele>
        <time>2022-10-28T08:41:13Z</time>
      </trkpt>
      <trkpt lat="44.66123" lon="5.40821">
        <ele>488.7</ele>
        <time>2022-10-28T08:41:14Z</time>
      </trkpt>
      <trkpt lat="44.66119" lon="5.40823">
        <ele>488.8</ele>
        <time>2022-10-28T08:41:15Z</time>
      </trkpt>
      <trkpt lat="44.66115" lon="5.40825">
        <ele>488.9</ele>
        <time>2022-10-28T08:41:16Z</time>
      </trkpt>
      <trkpt lat="44.6611" lon="5.4083">
        <ele>489</ele>
        <time>2022-10-28T08:41:18Z</time>
      </trkpt>
      <trkpt lat="44.66104" lon="5.40835">
        <ele>489.1</ele>
        <time>2022-10-28T08:41:19Z</time>
      </trkpt>
      <trkpt lat="44.661" lon="5.40839">
        <ele>489.2</ele>
        <time>2022-10-28T08:41:20Z</time>
      </trkpt>
      <trkpt lat="44.66095" lon="5.40843">
        <ele>489.3</ele>
        <time>2022-10-28T08:41:22Z</time>
      </trkpt>
      <trkpt lat="44.66088" lon="5.40848">
        <ele>489.4</ele>
        <time>2022-10-28T08:41:23Z</time>
      </trkpt>
      <trkpt lat="44.66086" lon="5.4085">
        <ele>489.4</ele>
        <time>2022-10-28T08:41:24Z</time>
      </trkpt>
      <trkpt lat="44.66082" lon="5.40853">
        <ele>489.5</ele>
        <time>2022-10-28T08:41:25Z</time>
      </trkpt>
      <trkpt lat="44.66078" lon="5.40856">
        <ele>489.5</ele>
        <time>2022-10-28T08:41:26Z</time>
      </trkpt>
      <trkpt lat="44.66074" lon="5.40859">
        <ele>489.6</ele>
        <time>2022-10-28T08:41:27Z</time>
      </trkpt>
      <trkpt lat="44.66069" lon="5.40863">
        <ele>489.7</ele>
        <time>2022-10-28T08:41:29Z</time>
      </trkpt>
      <trkpt lat="44.66065" lon="5.40866">
        <ele>489.7</ele>
        <time>2022-10-28T08:41:30Z</time>
      </trkpt>
      <trkpt lat="44.66062" lon="5.40868">
        <ele>489.8</ele>
        <time>2022-10-28T08:41:31Z</time>
      </trkpt>
      <trkpt lat="44.66056" lon="5.40872">
        <ele>489.9</ele>
        <time>2022-10-28T08:41:32Z</time>
      </trkpt>
      <trkpt lat="44.66052" lon="5.40875">
        <ele>490</ele>
        <time>2022-10-28T08:41:33Z</time>
      </trkpt>
      <trkpt lat="44.66048" lon="5.40878">
        <ele>490</ele>
        <time>2022-10-28T08:41:34Z</time>
      </trkpt>
      <trkpt lat="44.66045" lon="5.4088">
        <ele>490.1</ele>
        <time>2022-10-28T08:41:35Z</time>
      </trkpt>
      <trkpt lat="44.66041" lon="5.40883">
        <ele>490.2</ele>
        <time>2022-10-28T08:41:36Z</time>
      </trkpt>
      <trkpt lat="44.66038" lon="5.40885">
        <ele>490.2</ele>
        <time>2022-10-28T08:41:37Z</time>
      </trkpt>
      <trkpt lat="44.66034" lon="5.40888">
        <ele>490.3</ele>
        <time>2022-10-28T08:41:38Z</time>
      </trkpt>
      <trkpt lat="44.66032" lon="5.4089">
        <ele>490.4</ele>
        <time>2022-10-28T08:41:39Z</time>
      </trkpt>
      <trkpt lat="44.66028" lon="5.40894">
        <ele>490.5</ele>
        <time>2022-10-28T08:41:40Z</time>
      </trkpt>
      <trkpt lat="44.66025" lon="5.40896">
        <ele>490.6</ele>
        <time>2022-10-28T08:41:41Z</time>
      </trkpt>
      <trkpt lat="44.66021" lon="5.40899">
        <ele>490.6</ele>
        <time>2022-10-28T08:41:42Z</time>
      </trkpt>
      <trkpt lat="44.66017" lon="5.40902">
        <ele>490.7</ele>
        <time>2022-10-28T08:41:43Z</time>
      </trkpt>
      <trkpt lat="44.66014" lon="5.40904">
        <ele>490.8</ele>
        <time>2022-10-28T08:41:44Z</time>
      </trkpt>
      <trkpt lat="44.6601" lon="5.40907">
        <ele>490.9</ele>
        <time>2022-10-28T08:41:45Z</time>
      </trkpt>
      <trkpt lat="44.66007" lon="5.40909">
        <ele>490.9</ele>
        <time>2022-10-28T08:41:46Z</time>
      </trkpt>
      <trkpt lat="44.66004" lon="5.40912">
        <ele>491</ele>
        <time>2022-10-28T08:41:47Z</time>
      </trkpt>
      <trkpt lat="44.66" lon="5.40915">
        <ele>491.1</ele>
        <time>2022-10-28T08:41:48Z</time>
      </trkpt>
      <trkpt lat="44.65997" lon="5.40917">
        <ele>491.2</ele>
        <time>2022-10-28T08:41:49Z</time>
      </trkpt>
      <trkpt lat="44.65993" lon="5.4092">
        <ele>491.3</ele>
        <time>2022-10-28T08:41:50Z</time>
      </trkpt>
      <trkpt lat="44.6599" lon="5.40922">
        <ele>491.4</ele>
        <time>2022-10-28T08:41:51Z</time>
      </trkpt>
      <trkpt lat="44.65987" lon="5.40924">
        <ele>491.5</ele>
        <time>2022-10-28T08:41:52Z</time>
      </trkpt>
      <trkpt lat="44.65983" lon="5.40927">
        <ele>491.5</ele>
        <time>2022-10-28T08:41:53Z</time>
      </trkpt>
      <trkpt lat="44.6598" lon="5.40929">
        <ele>491.6</ele>
        <time>2022-10-28T08:41:54Z</time>
      </trkpt>
      <trkpt lat="44.65977" lon="5.40932">
        <ele>491.7</ele>
        <time>2022-10-28T08:41:55Z</time>
      </trkpt>
      <trkpt lat="44.65974" lon="5.40934">
        <ele>491.8</ele>
        <time>2022-10-28T08:41:56Z</time>
      </trkpt>
      <trkpt lat="44.65971" lon="5.40937">
        <ele>491.9</ele>
        <time>2022-10-28T08:41:57Z</time>
      </trkpt>
      <trkpt lat="44.65967" lon="5.40939">
        <ele>492</ele>
        <time>2022-10-28T08:41:58Z</time>
      </trkpt>
      <trkpt lat="44.65965" lon="5.40941">
        <ele>492.1</ele>
        <time>2022-10-28T08:41:59Z</time>
      </trkpt>
      <trkpt lat="44.65961" lon="5.40944">
        <ele>492.2</ele>
        <time>2022-10-28T08:42:00Z</time>
      </trkpt>
      <trkpt lat="44.65957" lon="5.40947">
        <ele>492.3</ele>
        <time>2022-10-28T08:42:01Z</time>
      </trkpt>
      <trkpt lat="44.65954" lon="5.40949">
        <ele>492.4</ele>
        <time>2022-10-28T08:42:02Z</time>
      </trkpt>
      <trkpt lat="44.65951" lon="5.40952">
        <ele>492.5</ele>
        <time>2022-10-28T08:42:03Z</time>
      </trkpt>
      <trkpt lat="44.65948" lon="5.40954">
        <ele>492.6</ele>
        <time>2022-10-28T08:42:04Z</time>
      </trkpt>
      <trkpt lat="44.65944" lon="5.40957">
        <ele>492.7</ele>
        <time>2022-10-28T08:42:05Z</time>
      </trkpt>
      <trkpt lat="44.6594" lon="5.4096">
        <ele>492.9</ele>
        <time>2022-10-28T08:42:07Z</time>
      </trkpt>
      <trkpt lat="44.65935" lon="5.40964">
        <ele>493</ele>
        <time>2022-10-28T08:42:08Z</time>
      </trkpt>
      <trkpt lat="44.65932" lon="5.40967">
        <ele>493.1</ele>
        <time>2022-10-28T08:42:09Z</time>
      </trkpt>
      <trkpt lat="44.65928" lon="5.4097">
        <ele>493.2</ele>
        <time>2022-10-28T08:42:10Z</time>
      </trkpt>
      <trkpt lat="44.65925" lon="5.40973">
        <ele>493.3</ele>
        <time>2022-10-28T08:42:11Z</time>
      </trkpt>
      <trkpt lat="44.65919" lon="5.40977">
        <ele>493.5</ele>
        <time>2022-10-28T08:42:13Z</time>
      </trkpt>
      <trkpt lat="44.65915" lon="5.4098">
        <ele>493.5</ele>
        <time>2022-10-28T08:42:14Z</time>
      </trkpt>
      <trkpt lat="44.65911" lon="5.40984">
        <ele>493.6</ele>
        <time>2022-10-28T08:42:15Z</time>
      </trkpt>
      <trkpt lat="44.65905" lon="5.40988">
        <ele>493.7</ele>
        <time>2022-10-28T08:42:17Z</time>
      </trkpt>
      <trkpt lat="44.659" lon="5.40991">
        <ele>493.9</ele>
        <time>2022-10-28T08:42:18Z</time>
      </trkpt>
      <trkpt lat="44.65894" lon="5.40996">
        <ele>494</ele>
        <time>2022-10-28T08:42:20Z</time>
      </trkpt>
      <trkpt lat="44.6589" lon="5.40999">
        <ele>494.1</ele>
        <time>2022-10-28T08:42:21Z</time>
      </trkpt>
      <trkpt lat="44.65886" lon="5.41002">
        <ele>494.2</ele>
        <time>2022-10-28T08:42:22Z</time>
      </trkpt>
      <trkpt lat="44.65881" lon="5.41005">
        <ele>494.4</ele>
        <time>2022-10-28T08:42:23Z</time>
      </trkpt>
      <trkpt lat="44.65877" lon="5.41008">
        <ele>494.5</ele>
        <time>2022-10-28T08:42:25Z</time>
      </trkpt>
      <trkpt lat="44.65873" lon="5.41011">
        <ele>494.6</ele>
        <time>2022-10-28T08:42:26Z</time>
      </trkpt>
      <trkpt lat="44.65869" lon="5.41014">
        <ele>494.8</ele>
        <time>2022-10-28T08:42:27Z</time>
      </trkpt>
      <trkpt lat="44.65865" lon="5.41018">
        <ele>494.9</ele>
        <time>2022-10-28T08:42:28Z</time>
      </trkpt>
      <trkpt lat="44.65859" lon="5.41022">
        <ele>495.1</ele>
        <time>2022-10-28T08:42:30Z</time>
      </trkpt>
      <trkpt lat="44.65855" lon="5.41025">
        <ele>495.2</ele>
        <time>2022-10-28T08:42:31Z</time>
      </trkpt>
      <trkpt lat="44.65851" lon="5.41028">
        <ele>495.4</ele>
        <time>2022-10-28T08:42:32Z</time>
      </trkpt>
      <trkpt lat="44.65848" lon="5.41031">
        <ele>495.5</ele>
        <time>2022-10-28T08:42:33Z</time>
      </trkpt>
      <trkpt lat="44.65844" lon="5.41033">
        <ele>495.6</ele>
        <time>2022-10-28T08:42:34Z</time>
      </trkpt>
      <trkpt lat="44.6584" lon="5.41037">
        <ele>495.8</ele>
        <time>2022-10-28T08:42:36Z</time>
      </trkpt>
      <trkpt lat="44.65835" lon="5.41041">
        <ele>496</ele>
        <time>2022-10-28T08:42:37Z</time>
      </trkpt>
      <trkpt lat="44.65831" lon="5.41044">
        <ele>496.1</ele>
        <time>2022-10-28T08:42:38Z</time>
      </trkpt>
      <trkpt lat="44.65828" lon="5.41046">
        <ele>496.2</ele>
        <time>2022-10-28T08:42:39Z</time>
      </trkpt>
      <trkpt lat="44.65825" lon="5.41048">
        <ele>496.3</ele>
        <time>2022-10-28T08:42:40Z</time>
      </trkpt>
      <trkpt lat="44.65821" lon="5.4105">
        <ele>496.4</ele>
        <time>2022-10-28T08:42:41Z</time>
      </trkpt>
      <trkpt lat="44.65818" lon="5.41053">
        <ele>496.5</ele>
        <time>2022-10-28T08:42:42Z</time>
      </trkpt>
      <trkpt lat="44.65815" lon="5.41055">
        <ele>496.6</ele>
        <time>2022-10-28T08:42:43Z</time>
      </trkpt>
      <trkpt lat="44.6581" lon="5.4106">
        <ele>496.7</ele>
        <time>2022-10-28T08:42:45Z</time>
      </trkpt>
      <trkpt lat="44.65806" lon="5.41063">
        <ele>496.9</ele>
        <time>2022-10-28T08:42:46Z</time>
      </trkpt>
      <trkpt lat="44.65802" lon="5.41066">
        <ele>497</ele>
        <time>2022-10-28T08:42:47Z</time>
      </trkpt>
      <trkpt lat="44.65799" lon="5.41069">
        <ele>497.1</ele>
        <time>2022-10-28T08:42:48Z</time>
      </trkpt>
      <trkpt lat="44.65795" lon="5.41072">
        <ele>497.2</ele>
        <time>2022-10-28T08:42:49Z</time>
      </trkpt>
      <trkpt lat="44.6579" lon="5.41075">
        <ele>497.4</ele>
        <time>2022-10-28T08:42:51Z</time>
      </trkpt>
      <trkpt lat="44.65787" lon="5.41078">
        <ele>497.5</ele>
        <time>2022-10-28T08:42:52Z</time>
      </trkpt>
      <trkpt lat="44.65783" lon="5.41081">
        <ele>497.6</ele>
        <time>2022-10-28T08:42:53Z</time>
      </trkpt>
      <trkpt lat="44.65779" lon="5.41085">
        <ele>497.6</ele>
        <time>2022-10-28T08:42:54Z</time>
      </trkpt>
      <trkpt lat="44.65775" lon="5.41087">
        <ele>497.7</ele>
        <time>2022-10-28T08:42:55Z</time>
      </trkpt>
      <trkpt lat="44.65773" lon="5.41089">
        <ele>497.7</ele>
        <time>2022-10-28T08:42:56Z</time>
      </trkpt>
      <trkpt lat="44.65768" lon="5.41093">
        <ele>497.8</ele>
        <time>2022-10-28T08:42:58Z</time>
      </trkpt>
      <trkpt lat="44.65763" lon="5.41096">
        <ele>497.9</ele>
        <time>2022-10-28T08:42:59Z</time>
      </trkpt>
      <trkpt lat="44.6576" lon="5.41098">
        <ele>497.9</ele>
        <time>2022-10-28T08:43:00Z</time>
      </trkpt>
      <trkpt lat="44.65756" lon="5.41101">
        <ele>497.9</ele>
        <time>2022-10-28T08:43:01Z</time>
      </trkpt>
      <trkpt lat="44.65752" lon="5.41103">
        <ele>497.9</ele>
        <time>2022-10-28T08:43:02Z</time>
      </trkpt>
      <trkpt lat="44.65747" lon="5.41104">
        <ele>498</ele>
        <time>2022-10-28T08:43:03Z</time>
      </trkpt>
      <trkpt lat="44.65742" lon="5.41106">
        <ele>498</ele>
        <time>2022-10-28T08:43:05Z</time>
      </trkpt>
      <trkpt lat="44.65737" lon="5.41109">
        <ele>498</ele>
        <time>2022-10-28T08:43:06Z</time>
      </trkpt>
      <trkpt lat="44.65732" lon="5.41111">
        <ele>498</ele>
        <time>2022-10-28T08:43:07Z</time>
      </trkpt>
      <trkpt lat="44.65727" lon="5.41113">
        <ele>498</ele>
        <time>2022-10-28T08:43:08Z</time>
      </trkpt>
      <trkpt lat="44.65722" lon="5.41114">
        <ele>498</ele>
        <time>2022-10-28T08:43:09Z</time>
      </trkpt>
      <trkpt lat="44.65718" lon="5.41116">
        <ele>498</ele>
        <time>2022-10-28T08:43:10Z</time>
      </trkpt>
      <trkpt lat="44.65713" lon="5.41118">
        <ele>498</ele>
        <time>2022-10-28T08:43:11Z</time>
      </trkpt>
      <trkpt lat="44.65708" lon="5.4112">
        <ele>498</ele>
        <time>2022-10-28T08:43:12Z</time>
      </trkpt>
      <trkpt lat="44.65704" lon="5.41122">
        <ele>498</ele>
        <time>2022-10-28T08:43:13Z</time>
      </trkpt>
      <trkpt lat="44.65699" lon="5.41125">
        <ele>498.1</ele>
        <time>2022-10-28T08:43:14Z</time>
      </trkpt>
      <trkpt lat="44.65694" lon="5.41127">
        <ele>498.1</ele>
        <time>2022-10-28T08:43:15Z</time>
      </trkpt>
      <trkpt lat="44.6569" lon="5.41129">
        <ele>498.1</ele>
        <time>2022-10-28T08:43:16Z</time>
      </trkpt>
      <trkpt lat="44.65685" lon="5.41131">
        <ele>498.1</ele>
        <time>2022-10-28T08:43:17Z</time>
      </trkpt>
      <trkpt lat="44.6568" lon="5.41133">
        <ele>498.1</ele>
        <time>2022-10-28T08:43:18Z</time>
      </trkpt>
      <trkpt lat="44.65675" lon="5.41135">
        <ele>498.2</ele>
        <time>2022-10-28T08:43:19Z</time>
      </trkpt>
      <trkpt lat="44.6567" lon="5.41138">
        <ele>498.2</ele>
        <time>2022-10-28T08:43:20Z</time>
      </trkpt>
      <trkpt lat="44.65666" lon="5.4114">
        <ele>498.2</ele>
        <time>2022-10-28T08:43:21Z</time>
      </trkpt>
      <trkpt lat="44.65661" lon="5.41142">
        <ele>498.3</ele>
        <time>2022-10-28T08:43:22Z</time>
      </trkpt>
      <trkpt lat="44.65657" lon="5.41144">
        <ele>498.3</ele>
        <time>2022-10-28T08:43:23Z</time>
      </trkpt>
      <trkpt lat="44.65652" lon="5.41146">
        <ele>498.4</ele>
        <time>2022-10-28T08:43:24Z</time>
      </trkpt>
      <trkpt lat="44.65648" lon="5.41147">
        <ele>498.4</ele>
        <time>2022-10-28T08:43:25Z</time>
      </trkpt>
      <trkpt lat="44.65644" lon="5.4115">
        <ele>498.5</ele>
        <time>2022-10-28T08:43:26Z</time>
      </trkpt>
      <trkpt lat="44.65639" lon="5.41152">
        <ele>498.6</ele>
        <time>2022-10-28T08:43:27Z</time>
      </trkpt>
      <trkpt lat="44.65635" lon="5.41154">
        <ele>498.6</ele>
        <time>2022-10-28T08:43:28Z</time>
      </trkpt>
      <trkpt lat="44.6563" lon="5.41157">
        <ele>498.6</ele>
        <time>2022-10-28T08:43:29Z</time>
      </trkpt>
      <trkpt lat="44.65626" lon="5.41159">
        <ele>498.6</ele>
        <time>2022-10-28T08:43:30Z</time>
      </trkpt>
      <trkpt lat="44.65621" lon="5.41161">
        <ele>498.7</ele>
        <time>2022-10-28T08:43:31Z</time>
      </trkpt>
      <trkpt lat="44.65616" lon="5.41163">
        <ele>498.7</ele>
        <time>2022-10-28T08:43:32Z</time>
      </trkpt>
      <trkpt lat="44.65612" lon="5.41165">
        <ele>498.7</ele>
        <time>2022-10-28T08:43:33Z</time>
      </trkpt>
      <trkpt lat="44.65607" lon="5.41168">
        <ele>498.8</ele>
        <time>2022-10-28T08:43:34Z</time>
      </trkpt>
      <trkpt lat="44.65603" lon="5.4117">
        <ele>498.8</ele>
        <time>2022-10-28T08:43:35Z</time>
      </trkpt>
      <trkpt lat="44.65598" lon="5.41172">
        <ele>498.8</ele>
        <time>2022-10-28T08:43:36Z</time>
      </trkpt>
      <trkpt lat="44.65594" lon="5.41174">
        <ele>498.8</ele>
        <time>2022-10-28T08:43:37Z</time>
      </trkpt>
      <trkpt lat="44.6559" lon="5.41176">
        <ele>498.9</ele>
        <time>2022-10-28T08:43:38Z</time>
      </trkpt>
      <trkpt lat="44.65585" lon="5.41178">
        <ele>498.9</ele>
        <time>2022-10-28T08:43:39Z</time>
      </trkpt>
      <trkpt lat="44.6558" lon="5.4118">
        <ele>498.9</ele>
        <time>2022-10-28T08:43:40Z</time>
      </trkpt>
      <trkpt lat="44.65576" lon="5.41182">
        <ele>499</ele>
        <time>2022-10-28T08:43:41Z</time>
      </trkpt>
      <trkpt lat="44.65571" lon="5.41184">
        <ele>499</ele>
        <time>2022-10-28T08:43:42Z</time>
      </trkpt>
      <trkpt lat="44.65567" lon="5.41186">
        <ele>499</ele>
        <time>2022-10-28T08:43:43Z</time>
      </trkpt>
      <trkpt lat="44.65562" lon="5.41188">
        <ele>499.1</ele>
        <time>2022-10-28T08:43:44Z</time>
      </trkpt>
      <trkpt lat="44.65557" lon="5.41189">
        <ele>499.1</ele>
        <time>2022-10-28T08:43:45Z</time>
      </trkpt>
      <trkpt lat="44.65552" lon="5.41191">
        <ele>499.1</ele>
        <time>2022-10-28T08:43:46Z</time>
      </trkpt>
      <trkpt lat="44.65547" lon="5.41192">
        <ele>499.2</ele>
        <time>2022-10-28T08:43:47Z</time>
      </trkpt>
      <trkpt lat="44.65542" lon="5.41191">
        <ele>499.2</ele>
        <time>2022-10-28T08:43:48Z</time>
      </trkpt>
      <trkpt lat="44.65538" lon="5.4119">
        <ele>499.3</ele>
        <time>2022-10-28T08:43:49Z</time>
      </trkpt>
      <trkpt lat="44.65533" lon="5.4119">
        <ele>499.3</ele>
        <time>2022-10-28T08:43:50Z</time>
      </trkpt>
      <trkpt lat="44.65529" lon="5.41192">
        <ele>499.4</ele>
        <time>2022-10-28T08:43:51Z</time>
      </trkpt>
      <trkpt lat="44.65527" lon="5.41194">
        <ele>499.4</ele>
        <time>2022-10-28T08:43:52Z</time>
      </trkpt>
      <trkpt lat="44.65523" lon="5.41198">
        <ele>499.5</ele>
        <time>2022-10-28T08:43:53Z</time>
      </trkpt>
      <trkpt lat="44.65519" lon="5.41203">
        <ele>499.7</ele>
        <time>2022-10-28T08:43:54Z</time>
      </trkpt>
      <trkpt lat="44.65517" lon="5.41206">
        <ele>499.7</ele>
        <time>2022-10-28T08:43:55Z</time>
      </trkpt>
      <trkpt lat="44.65513" lon="5.41209">
        <ele>499.8</ele>
        <time>2022-10-28T08:43:56Z</time>
      </trkpt>
      <trkpt lat="44.6551" lon="5.4121">
        <ele>499.9</ele>
        <time>2022-10-28T08:43:57Z</time>
      </trkpt>
      <trkpt lat="44.65508" lon="5.41211">
        <ele>500</ele>
        <time>2022-10-28T08:43:58Z</time>
      </trkpt>
      <trkpt lat="44.65502" lon="5.41214">
        <ele>500.3</ele>
        <time>2022-10-28T08:44:00Z</time>
      </trkpt>
      <trkpt lat="44.65496" lon="5.41215">
        <ele>500.5</ele>
        <time>2022-10-28T08:44:01Z</time>
      </trkpt>
      <trkpt lat="44.65493" lon="5.41216">
        <ele>500.6</ele>
        <time>2022-10-28T08:44:02Z</time>
      </trkpt>
      <trkpt lat="44.6549" lon="5.41218">
        <ele>500.8</ele>
        <time>2022-10-28T08:44:03Z</time>
      </trkpt>
      <trkpt lat="44.65487" lon="5.41222">
        <ele>500.9</ele>
        <time>2022-10-28T08:44:04Z</time>
      </trkpt>
      <trkpt lat="44.65482" lon="5.41226">
        <ele>501.2</ele>
        <time>2022-10-28T08:44:06Z</time>
      </trkpt>
      <trkpt lat="44.65479" lon="5.41228">
        <ele>501.4</ele>
        <time>2022-10-28T08:44:07Z</time>
      </trkpt>
      <trkpt lat="44.65477" lon="5.4123">
        <ele>501.5</ele>
        <time>2022-10-28T08:44:08Z</time>
      </trkpt>
      <trkpt lat="44.65473" lon="5.41232">
        <ele>501.7</ele>
        <time>2022-10-28T08:44:10Z</time>
      </trkpt>
      <trkpt lat="44.6547" lon="5.41233">
        <ele>501.9</ele>
        <time>2022-10-28T08:44:11Z</time>
      </trkpt>
      <trkpt lat="44.65467" lon="5.41235">
        <ele>502</ele>
        <time>2022-10-28T08:44:12Z</time>
      </trkpt>
      <trkpt lat="44.65462" lon="5.41237">
        <ele>502.3</ele>
        <time>2022-10-28T08:44:13Z</time>
      </trkpt>
      <trkpt lat="44.6546" lon="5.41238">
        <ele>502.4</ele>
        <time>2022-10-28T08:44:14Z</time>
      </trkpt>
      <trkpt lat="44.65456" lon="5.4124">
        <ele>502.6</ele>
        <time>2022-10-28T08:44:16Z</time>
      </trkpt>
      <trkpt lat="44.65452" lon="5.41242">
        <ele>502.8</ele>
        <time>2022-10-28T08:44:17Z</time>
      </trkpt>
      <trkpt lat="44.65449" lon="5.41244">
        <ele>503</ele>
        <time>2022-10-28T08:44:18Z</time>
      </trkpt>
      <trkpt lat="44.65446" lon="5.41246">
        <ele>503.1</ele>
        <time>2022-10-28T08:44:19Z</time>
      </trkpt>
      <trkpt lat="44.65443" lon="5.41247">
        <ele>503.3</ele>
        <time>2022-10-28T08:44:20Z</time>
      </trkpt>
      <trkpt lat="44.6544" lon="5.41249">
        <ele>503.4</ele>
        <time>2022-10-28T08:44:21Z</time>
      </trkpt>
      <trkpt lat="44.65437" lon="5.4125">
        <ele>503.6</ele>
        <time>2022-10-28T08:44:22Z</time>
      </trkpt>
      <trkpt lat="44.65433" lon="5.41252">
        <ele>503.8</ele>
        <time>2022-10-28T08:44:23Z</time>
      </trkpt>
      <trkpt lat="44.65431" lon="5.41253">
        <ele>503.9</ele>
        <time>2022-10-28T08:44:24Z</time>
      </trkpt>
      <trkpt lat="44.65428" lon="5.41255">
        <ele>504.1</ele>
        <time>2022-10-28T08:44:25Z</time>
      </trkpt>
      <trkpt lat="44.65425" lon="5.41256">
        <ele>504.3</ele>
        <time>2022-10-28T08:44:26Z</time>
      </trkpt>
      <trkpt lat="44.65421" lon="5.41258">
        <ele>504.5</ele>
        <time>2022-10-28T08:44:27Z</time>
      </trkpt>
      <trkpt lat="44.6542" lon="5.41258">
        <ele>504.5</ele>
        <time>2022-10-28T08:44:28Z</time>
      </trkpt>
      <trkpt lat="44.65417" lon="5.41259">
        <ele>504.6</ele>
        <time>2022-10-28T08:44:29Z</time>
      </trkpt>
      <trkpt lat="44.65412" lon="5.41261">
        <ele>504.7</ele>
        <time>2022-10-28T08:44:30Z</time>
      </trkpt>
      <trkpt lat="44.6541" lon="5.41262">
        <ele>504.8</ele>
        <time>2022-10-28T08:44:31Z</time>
      </trkpt>
      <trkpt lat="44.65406" lon="5.41264">
        <ele>504.8</ele>
        <time>2022-10-28T08:44:33Z</time>
      </trkpt>
      <trkpt lat="44.65403" lon="5.41265">
        <ele>505</ele>
        <time>2022-10-28T08:44:34Z</time>
      </trkpt>
      <trkpt lat="44.654" lon="5.41267">
        <ele>505.1</ele>
        <time>2022-10-28T08:44:35Z</time>
      </trkpt>
      <trkpt lat="44.65397" lon="5.41268">
        <ele>505.3</ele>
        <time>2022-10-28T08:44:36Z</time>
      </trkpt>
      <trkpt lat="44.65394" lon="5.41269">
        <ele>505.4</ele>
        <time>2022-10-28T08:44:37Z</time>
      </trkpt>
      <trkpt lat="44.65391" lon="5.41271">
        <ele>505.6</ele>
        <time>2022-10-28T08:44:39Z</time>
      </trkpt>
      <trkpt lat="44.65387" lon="5.41272">
        <ele>505.8</ele>
        <time>2022-10-28T08:44:40Z</time>
      </trkpt>
      <trkpt lat="44.65384" lon="5.41273">
        <ele>505.9</ele>
        <time>2022-10-28T08:44:41Z</time>
      </trkpt>
      <trkpt lat="44.65381" lon="5.41274">
        <ele>506.1</ele>
        <time>2022-10-28T08:44:42Z</time>
      </trkpt>
      <trkpt lat="44.65378" lon="5.41275">
        <ele>506.2</ele>
        <time>2022-10-28T08:44:43Z</time>
      </trkpt>
      <trkpt lat="44.65375" lon="5.41276">
        <ele>506.4</ele>
        <time>2022-10-28T08:44:44Z</time>
      </trkpt>
      <trkpt lat="44.65372" lon="5.41278">
        <ele>506.5</ele>
        <time>2022-10-28T08:44:46Z</time>
      </trkpt>
      <trkpt lat="44.65369" lon="5.41279">
        <ele>506.7</ele>
        <time>2022-10-28T08:44:47Z</time>
      </trkpt>
      <trkpt lat="44.65366" lon="5.41281">
        <ele>506.8</ele>
        <time>2022-10-28T08:44:48Z</time>
      </trkpt>
      <trkpt lat="44.6536" lon="5.41284">
        <ele>507.1</ele>
        <time>2022-10-28T08:44:50Z</time>
      </trkpt>
      <trkpt lat="44.65357" lon="5.41286">
        <ele>507.2</ele>
        <time>2022-10-28T08:44:51Z</time>
      </trkpt>
      <trkpt lat="44.65355" lon="5.41287">
        <ele>507.3</ele>
        <time>2022-10-28T08:44:52Z</time>
      </trkpt>
      <trkpt lat="44.6535" lon="5.41288">
        <ele>507.5</ele>
        <time>2022-10-28T08:44:54Z</time>
      </trkpt>
      <trkpt lat="44.65347" lon="5.41289">
        <ele>507.6</ele>
        <time>2022-10-28T08:44:55Z</time>
      </trkpt>
      <trkpt lat="44.65343" lon="5.41291">
        <ele>507.8</ele>
        <time>2022-10-28T08:44:57Z</time>
      </trkpt>
      <trkpt lat="44.6534" lon="5.41292">
        <ele>508</ele>
        <time>2022-10-28T08:44:58Z</time>
      </trkpt>
      <trkpt lat="44.65337" lon="5.41294">
        <ele>508.1</ele>
        <time>2022-10-28T08:44:59Z</time>
      </trkpt>
      <trkpt lat="44.65334" lon="5.41295">
        <ele>508.2</ele>
        <time>2022-10-28T08:45:00Z</time>
      </trkpt>
      <trkpt lat="44.65331" lon="5.41297">
        <ele>508.4</ele>
        <time>2022-10-28T08:45:01Z</time>
      </trkpt>
      <trkpt lat="44.65328" lon="5.41298">
        <ele>508.5</ele>
        <time>2022-10-28T08:45:02Z</time>
      </trkpt>
      <trkpt lat="44.65324" lon="5.413">
        <ele>508.7</ele>
        <time>2022-10-28T08:45:03Z</time>
      </trkpt>
      <trkpt lat="44.65323" lon="5.413">
        <ele>508.7</ele>
        <time>2022-10-28T08:45:04Z</time>
      </trkpt>
      <trkpt lat="44.65318" lon="5.41303">
        <ele>508.9</ele>
        <time>2022-10-28T08:45:06Z</time>
      </trkpt>
      <trkpt lat="44.65315" lon="5.41304">
        <ele>509.1</ele>
        <time>2022-10-28T08:45:07Z</time>
      </trkpt>
      <trkpt lat="44.65312" lon="5.41306">
        <ele>509.2</ele>
        <time>2022-10-28T08:45:08Z</time>
      </trkpt>
      <trkpt lat="44.6531" lon="5.41307">
        <ele>509.3</ele>
        <time>2022-10-28T08:45:09Z</time>
      </trkpt>
      <trkpt lat="44.65305" lon="5.41309">
        <ele>509.5</ele>
        <time>2022-10-28T08:45:11Z</time>
      </trkpt>
      <trkpt lat="44.65302" lon="5.4131">
        <ele>509.6</ele>
        <time>2022-10-28T08:45:12Z</time>
      </trkpt>
      <trkpt lat="44.65298" lon="5.41313">
        <ele>509.8</ele>
        <time>2022-10-28T08:45:13Z</time>
      </trkpt>
      <trkpt lat="44.65297" lon="5.41314">
        <ele>509.9</ele>
        <time>2022-10-28T08:45:14Z</time>
      </trkpt>
      <trkpt lat="44.65294" lon="5.41315">
        <ele>510</ele>
        <time>2022-10-28T08:45:15Z</time>
      </trkpt>
      <trkpt lat="44.65291" lon="5.41316">
        <ele>510.1</ele>
        <time>2022-10-28T08:45:16Z</time>
      </trkpt>
      <trkpt lat="44.65288" lon="5.41318">
        <ele>510.2</ele>
        <time>2022-10-28T08:45:17Z</time>
      </trkpt>
      <trkpt lat="44.65286" lon="5.41319">
        <ele>510.3</ele>
        <time>2022-10-28T08:45:18Z</time>
      </trkpt>
      <trkpt lat="44.65283" lon="5.4132">
        <ele>510.4</ele>
        <time>2022-10-28T08:45:19Z</time>
      </trkpt>
      <trkpt lat="44.6528" lon="5.41322">
        <ele>510.6</ele>
        <time>2022-10-28T08:45:20Z</time>
      </trkpt>
      <trkpt lat="44.65279" lon="5.41322">
        <ele>510.6</ele>
        <time>2022-10-28T08:45:21Z</time>
      </trkpt>
      <trkpt lat="44.65275" lon="5.41324">
        <ele>510.8</ele>
        <time>2022-10-28T08:45:22Z</time>
      </trkpt>
      <trkpt lat="44.65273" lon="5.41325">
        <ele>510.9</ele>
        <time>2022-10-28T08:45:23Z</time>
      </trkpt>
      <trkpt lat="44.6527" lon="5.41326">
        <ele>511</ele>
        <time>2022-10-28T08:45:24Z</time>
      </trkpt>
      <trkpt lat="44.65269" lon="5.41326">
        <ele>511.1</ele>
        <time>2022-10-28T08:45:25Z</time>
      </trkpt>
      <trkpt lat="44.65266" lon="5.41328">
        <ele>511.2</ele>
        <time>2022-10-28T08:45:26Z</time>
      </trkpt>
      <trkpt lat="44.65264" lon="5.41329">
        <ele>511.3</ele>
        <time>2022-10-28T08:45:27Z</time>
      </trkpt>
      <trkpt lat="44.6526" lon="5.4133">
        <ele>511.5</ele>
        <time>2022-10-28T08:45:29Z</time>
      </trkpt>
      <trkpt lat="44.65257" lon="5.41332">
        <ele>511.6</ele>
        <time>2022-10-28T08:45:30Z</time>
      </trkpt>
      <trkpt lat="44.65254" lon="5.41334">
        <ele>511.8</ele>
        <time>2022-10-28T08:45:31Z</time>
      </trkpt>
      <trkpt lat="44.65251" lon="5.41336">
        <ele>511.9</ele>
        <time>2022-10-28T08:45:32Z</time>
      </trkpt>
      <trkpt lat="44.65247" lon="5.41337">
        <ele>512.1</ele>
        <time>2022-10-28T08:45:33Z</time>
      </trkpt>
      <trkpt lat="44.65246" lon="5.41337">
        <ele>512.1</ele>
        <time>2022-10-28T08:45:34Z</time>
      </trkpt>
      <trkpt lat="44.65243" lon="5.41339">
        <ele>512.3</ele>
        <time>2022-10-28T08:45:35Z</time>
      </trkpt>
      <trkpt lat="44.6524" lon="5.41341">
        <ele>512.4</ele>
        <time>2022-10-28T08:45:36Z</time>
      </trkpt>
      <trkpt lat="44.65236" lon="5.41343">
        <ele>512.6</ele>
        <time>2022-10-28T08:45:38Z</time>
      </trkpt>
      <trkpt lat="44.65233" lon="5.41345">
        <ele>512.7</ele>
        <time>2022-10-28T08:45:39Z</time>
      </trkpt>
      <trkpt lat="44.6523" lon="5.41346">
        <ele>512.8</ele>
        <time>2022-10-28T08:45:40Z</time>
      </trkpt>
      <trkpt lat="44.65227" lon="5.41348">
        <ele>513</ele>
        <time>2022-10-28T08:45:42Z</time>
      </trkpt>
      <trkpt lat="44.65223" lon="5.4135">
        <ele>513.1</ele>
        <time>2022-10-28T08:45:43Z</time>
      </trkpt>
      <trkpt lat="44.6522" lon="5.41352">
        <ele>513.2</ele>
        <time>2022-10-28T08:45:44Z</time>
      </trkpt>
      <trkpt lat="44.65217" lon="5.41353">
        <ele>513.4</ele>
        <time>2022-10-28T08:45:45Z</time>
      </trkpt>
      <trkpt lat="44.65214" lon="5.41355">
        <ele>513.5</ele>
        <time>2022-10-28T08:45:46Z</time>
      </trkpt>
      <trkpt lat="44.65211" lon="5.41356">
        <ele>513.6</ele>
        <time>2022-10-28T08:45:47Z</time>
      </trkpt>
      <trkpt lat="44.65207" lon="5.41358">
        <ele>513.7</ele>
        <time>2022-10-28T08:45:49Z</time>
      </trkpt>
      <trkpt lat="44.65203" lon="5.4136">
        <ele>513.9</ele>
        <time>2022-10-28T08:45:50Z</time>
      </trkpt>
      <trkpt lat="44.65201" lon="5.41362">
        <ele>513.9</ele>
        <time>2022-10-28T08:45:51Z</time>
      </trkpt>
      <trkpt lat="44.65198" lon="5.41364">
        <ele>514</ele>
        <time>2022-10-28T08:45:52Z</time>
      </trkpt>
      <trkpt lat="44.65194" lon="5.41366">
        <ele>514.1</ele>
        <time>2022-10-28T08:45:54Z</time>
      </trkpt>
      <trkpt lat="44.65191" lon="5.41369">
        <ele>514.2</ele>
        <time>2022-10-28T08:45:55Z</time>
      </trkpt>
      <trkpt lat="44.65187" lon="5.41371">
        <ele>514.4</ele>
        <time>2022-10-28T08:45:56Z</time>
      </trkpt>
      <trkpt lat="44.65184" lon="5.41374">
        <ele>514.5</ele>
        <time>2022-10-28T08:45:57Z</time>
      </trkpt>
      <trkpt lat="44.65181" lon="5.41376">
        <ele>514.6</ele>
        <time>2022-10-28T08:45:58Z</time>
      </trkpt>
      <trkpt lat="44.65178" lon="5.41379">
        <ele>514.7</ele>
        <time>2022-10-28T08:46:00Z</time>
      </trkpt>
      <trkpt lat="44.65175" lon="5.41381">
        <ele>514.8</ele>
        <time>2022-10-28T08:46:01Z</time>
      </trkpt>
      <trkpt lat="44.65171" lon="5.41384">
        <ele>515</ele>
        <time>2022-10-28T08:46:02Z</time>
      </trkpt>
      <trkpt lat="44.65169" lon="5.41386">
        <ele>515.1</ele>
        <time>2022-10-28T08:46:03Z</time>
      </trkpt>
      <trkpt lat="44.65165" lon="5.41391">
        <ele>515.2</ele>
        <time>2022-10-28T08:46:05Z</time>
      </trkpt>
      <trkpt lat="44.65162" lon="5.41393">
        <ele>515.3</ele>
        <time>2022-10-28T08:46:06Z</time>
      </trkpt>
      <trkpt lat="44.6516" lon="5.41395">
        <ele>515.4</ele>
        <time>2022-10-28T08:46:07Z</time>
      </trkpt>
      <trkpt lat="44.65157" lon="5.41398">
        <ele>515.6</ele>
        <time>2022-10-28T08:46:08Z</time>
      </trkpt>
      <trkpt lat="44.65154" lon="5.414">
        <ele>515.7</ele>
        <time>2022-10-28T08:46:09Z</time>
      </trkpt>
      <trkpt lat="44.65151" lon="5.41404">
        <ele>515.8</ele>
        <time>2022-10-28T08:46:11Z</time>
      </trkpt>
      <trkpt lat="44.65148" lon="5.41407">
        <ele>515.9</ele>
        <time>2022-10-28T08:46:12Z</time>
      </trkpt>
      <trkpt lat="44.65145" lon="5.41411">
        <ele>516.1</ele>
        <time>2022-10-28T08:46:13Z</time>
      </trkpt>
      <trkpt lat="44.65142" lon="5.41414">
        <ele>516.2</ele>
        <time>2022-10-28T08:46:14Z</time>
      </trkpt>
      <trkpt lat="44.65139" lon="5.41417">
        <ele>516.3</ele>
        <time>2022-10-28T08:46:15Z</time>
      </trkpt>
      <trkpt lat="44.65137" lon="5.41421">
        <ele>516.4</ele>
        <time>2022-10-28T08:46:17Z</time>
      </trkpt>
      <trkpt lat="44.65134" lon="5.41425">
        <ele>516.5</ele>
        <time>2022-10-28T08:46:18Z</time>
      </trkpt>
      <trkpt lat="44.6513" lon="5.41429">
        <ele>516.7</ele>
        <time>2022-10-28T08:46:19Z</time>
      </trkpt>
      <trkpt lat="44.65128" lon="5.41433">
        <ele>516.8</ele>
        <time>2022-10-28T08:46:20Z</time>
      </trkpt>
      <trkpt lat="44.65125" lon="5.41436">
        <ele>516.9</ele>
        <time>2022-10-28T08:46:21Z</time>
      </trkpt>
      <trkpt lat="44.65122" lon="5.41441">
        <ele>517</ele>
        <time>2022-10-28T08:46:22Z</time>
      </trkpt>
      <trkpt lat="44.65119" lon="5.41446">
        <ele>517.1</ele>
        <time>2022-10-28T08:46:24Z</time>
      </trkpt>
      <trkpt lat="44.65115" lon="5.4145">
        <ele>517.2</ele>
        <time>2022-10-28T08:46:25Z</time>
      </trkpt>
      <trkpt lat="44.65113" lon="5.41453">
        <ele>517.3</ele>
        <time>2022-10-28T08:46:26Z</time>
      </trkpt>
      <trkpt lat="44.6511" lon="5.41457">
        <ele>517.3</ele>
        <time>2022-10-28T08:46:27Z</time>
      </trkpt>
      <trkpt lat="44.65107" lon="5.4146">
        <ele>517.4</ele>
        <time>2022-10-28T08:46:28Z</time>
      </trkpt>
      <trkpt lat="44.65104" lon="5.41464">
        <ele>517.5</ele>
        <time>2022-10-28T08:46:29Z</time>
      </trkpt>
      <trkpt lat="44.65101" lon="5.41469">
        <ele>517.4</ele>
        <time>2022-10-28T08:46:31Z</time>
      </trkpt>
      <trkpt lat="44.65098" lon="5.41473">
        <ele>517.3</ele>
        <time>2022-10-28T08:46:32Z</time>
      </trkpt>
      <trkpt lat="44.65094" lon="5.41478">
        <ele>517.1</ele>
        <time>2022-10-28T08:46:33Z</time>
      </trkpt>
      <trkpt lat="44.65091" lon="5.41483">
        <ele>517</ele>
        <time>2022-10-28T08:46:34Z</time>
      </trkpt>
      <trkpt lat="44.65088" lon="5.41487">
        <ele>516.9</ele>
        <time>2022-10-28T08:46:35Z</time>
      </trkpt>
      <trkpt lat="44.65085" lon="5.4149">
        <ele>516.8</ele>
        <time>2022-10-28T08:46:36Z</time>
      </trkpt>
      <trkpt lat="44.65082" lon="5.41495">
        <ele>516.6</ele>
        <time>2022-10-28T08:46:37Z</time>
      </trkpt>
      <trkpt lat="44.65077" lon="5.415">
        <ele>516.4</ele>
        <time>2022-10-28T08:46:38Z</time>
      </trkpt>
      <trkpt lat="44.65073" lon="5.41505">
        <ele>516.2</ele>
        <time>2022-10-28T08:46:39Z</time>
      </trkpt>
      <trkpt lat="44.65069" lon="5.4151">
        <ele>516</ele>
        <time>2022-10-28T08:46:40Z</time>
      </trkpt>
      <trkpt lat="44.65065" lon="5.41515">
        <ele>515.8</ele>
        <time>2022-10-28T08:46:41Z</time>
      </trkpt>
      <trkpt lat="44.65061" lon="5.41521">
        <ele>515.6</ele>
        <time>2022-10-28T08:46:42Z</time>
      </trkpt>
      <trkpt lat="44.65057" lon="5.41526">
        <ele>515.4</ele>
        <time>2022-10-28T08:46:43Z</time>
      </trkpt>
      <trkpt lat="44.65053" lon="5.41532">
        <ele>515.2</ele>
        <time>2022-10-28T08:46:44Z</time>
      </trkpt>
      <trkpt lat="44.65049" lon="5.41538">
        <ele>515</ele>
        <time>2022-10-28T08:46:45Z</time>
      </trkpt>
      <trkpt lat="44.65044" lon="5.41544">
        <ele>514.8</ele>
        <time>2022-10-28T08:46:46Z</time>
      </trkpt>
      <trkpt lat="44.6504" lon="5.4155">
        <ele>514.6</ele>
        <time>2022-10-28T08:46:47Z</time>
      </trkpt>
      <trkpt lat="44.65035" lon="5.41556">
        <ele>514.4</ele>
        <time>2022-10-28T08:46:48Z</time>
      </trkpt>
      <trkpt lat="44.6503" lon="5.41562">
        <ele>514.2</ele>
        <time>2022-10-28T08:46:49Z</time>
      </trkpt>
      <trkpt lat="44.65026" lon="5.41568">
        <ele>514</ele>
        <time>2022-10-28T08:46:50Z</time>
      </trkpt>
      <trkpt lat="44.65021" lon="5.41574">
        <ele>513.8</ele>
        <time>2022-10-28T08:46:51Z</time>
      </trkpt>
      <trkpt lat="44.65016" lon="5.41581">
        <ele>513.6</ele>
        <time>2022-10-28T08:46:52Z</time>
      </trkpt>
      <trkpt lat="44.65012" lon="5.41588">
        <ele>513.4</ele>
        <time>2022-10-28T08:46:53Z</time>
      </trkpt>
      <trkpt lat="44.65007" lon="5.41594">
        <ele>513.3</ele>
        <time>2022-10-28T08:46:54Z</time>
      </trkpt>
      <trkpt lat="44.65002" lon="5.416">
        <ele>513.1</ele>
        <time>2022-10-28T08:46:55Z</time>
      </trkpt>
      <trkpt lat="44.64997" lon="5.41606">
        <ele>513.1</ele>
        <time>2022-10-28T08:46:56Z</time>
      </trkpt>
      <trkpt lat="44.64991" lon="5.41611">
        <ele>513</ele>
        <time>2022-10-28T08:46:57Z</time>
      </trkpt>
      <trkpt lat="44.64986" lon="5.41617">
        <ele>512.9</ele>
        <time>2022-10-28T08:46:58Z</time>
      </trkpt>
      <trkpt lat="44.6498" lon="5.41622">
        <ele>512.7</ele>
        <time>2022-10-28T08:46:59Z</time>
      </trkpt>
      <trkpt lat="44.64974" lon="5.41627">
        <ele>512.5</ele>
        <time>2022-10-28T08:47:00Z</time>
      </trkpt>
      <trkpt lat="44.64968" lon="5.41631">
        <ele>512.3</ele>
        <time>2022-10-28T08:47:01Z</time>
      </trkpt>
      <trkpt lat="44.64962" lon="5.41635">
        <ele>512.1</ele>
        <time>2022-10-28T08:47:02Z</time>
      </trkpt>
      <trkpt lat="44.64955" lon="5.41639">
        <ele>511.9</ele>
        <time>2022-10-28T08:47:03Z</time>
      </trkpt>
      <trkpt lat="44.64949" lon="5.41642">
        <ele>511.7</ele>
        <time>2022-10-28T08:47:04Z</time>
      </trkpt>
      <trkpt lat="44.64942" lon="5.41645">
        <ele>511.6</ele>
        <time>2022-10-28T08:47:05Z</time>
      </trkpt>
      <trkpt lat="44.64935" lon="5.41649">
        <ele>511.4</ele>
        <time>2022-10-28T08:47:06Z</time>
      </trkpt>
      <trkpt lat="44.64929" lon="5.41652">
        <ele>511.3</ele>
        <time>2022-10-28T08:47:07Z</time>
      </trkpt>
      <trkpt lat="44.64923" lon="5.41655">
        <ele>511.1</ele>
        <time>2022-10-28T08:47:08Z</time>
      </trkpt>
      <trkpt lat="44.64916" lon="5.41658">
        <ele>511</ele>
        <time>2022-10-28T08:47:09Z</time>
      </trkpt>
      <trkpt lat="44.64909" lon="5.41661">
        <ele>510.9</ele>
        <time>2022-10-28T08:47:10Z</time>
      </trkpt>
      <trkpt lat="44.64903" lon="5.41664">
        <ele>510.9</ele>
        <time>2022-10-28T08:47:11Z</time>
      </trkpt>
      <trkpt lat="44.64897" lon="5.41667">
        <ele>510.8</ele>
        <time>2022-10-28T08:47:12Z</time>
      </trkpt>
      <trkpt lat="44.6489" lon="5.4167">
        <ele>510.8</ele>
        <time>2022-10-28T08:47:13Z</time>
      </trkpt>
      <trkpt lat="44.64884" lon="5.41673">
        <ele>510.7</ele>
        <time>2022-10-28T08:47:14Z</time>
      </trkpt>
      <trkpt lat="44.64878" lon="5.41675">
        <ele>510.7</ele>
        <time>2022-10-28T08:47:15Z</time>
      </trkpt>
      <trkpt lat="44.64872" lon="5.41678">
        <ele>510.7</ele>
        <time>2022-10-28T08:47:16Z</time>
      </trkpt>
      <trkpt lat="44.64866" lon="5.41681">
        <ele>510.7</ele>
        <time>2022-10-28T08:47:17Z</time>
      </trkpt>
      <trkpt lat="44.6486" lon="5.41684">
        <ele>510.7</ele>
        <time>2022-10-28T08:47:18Z</time>
      </trkpt>
      <trkpt lat="44.64854" lon="5.41687">
        <ele>510.7</ele>
        <time>2022-10-28T08:47:19Z</time>
      </trkpt>
      <trkpt lat="44.64849" lon="5.4169">
        <ele>510.7</ele>
        <time>2022-10-28T08:47:20Z</time>
      </trkpt>
      <trkpt lat="44.64844" lon="5.41692">
        <ele>510.7</ele>
        <time>2022-10-28T08:47:21Z</time>
      </trkpt>
      <trkpt lat="44.64839" lon="5.41695">
        <ele>510.7</ele>
        <time>2022-10-28T08:47:22Z</time>
      </trkpt>
      <trkpt lat="44.64833" lon="5.41698">
        <ele>510.7</ele>
        <time>2022-10-28T08:47:23Z</time>
      </trkpt>
      <trkpt lat="44.64828" lon="5.41701">
        <ele>510.7</ele>
        <time>2022-10-28T08:47:24Z</time>
      </trkpt>
      <trkpt lat="44.64823" lon="5.41705">
        <ele>510.8</ele>
        <time>2022-10-28T08:47:25Z</time>
      </trkpt>
      <trkpt lat="44.64818" lon="5.41708">
        <ele>510.8</ele>
        <time>2022-10-28T08:47:26Z</time>
      </trkpt>
      <trkpt lat="44.64813" lon="5.41712">
        <ele>510.8</ele>
        <time>2022-10-28T08:47:27Z</time>
      </trkpt>
      <trkpt lat="44.64808" lon="5.41716">
        <ele>510.9</ele>
        <time>2022-10-28T08:47:28Z</time>
      </trkpt>
      <trkpt lat="44.64803" lon="5.4172">
        <ele>510.9</ele>
        <time>2022-10-28T08:47:29Z</time>
      </trkpt>
      <trkpt lat="44.64798" lon="5.41724">
        <ele>510.9</ele>
        <time>2022-10-28T08:47:30Z</time>
      </trkpt>
      <trkpt lat="44.64792" lon="5.41728">
        <ele>510.9</ele>
        <time>2022-10-28T08:47:31Z</time>
      </trkpt>
      <trkpt lat="44.64787" lon="5.41733">
        <ele>511</ele>
        <time>2022-10-28T08:47:32Z</time>
      </trkpt>
      <trkpt lat="44.64782" lon="5.41737">
        <ele>511</ele>
        <time>2022-10-28T08:47:33Z</time>
      </trkpt>
      <trkpt lat="44.64777" lon="5.4174">
        <ele>511</ele>
        <time>2022-10-28T08:47:34Z</time>
      </trkpt>
      <trkpt lat="44.64772" lon="5.41744">
        <ele>511</ele>
        <time>2022-10-28T08:47:35Z</time>
      </trkpt>
      <trkpt lat="44.64767" lon="5.41748">
        <ele>511</ele>
        <time>2022-10-28T08:47:36Z</time>
      </trkpt>
      <trkpt lat="44.64762" lon="5.41751">
        <ele>511.1</ele>
        <time>2022-10-28T08:47:37Z</time>
      </trkpt>
      <trkpt lat="44.64757" lon="5.41755">
        <ele>511.1</ele>
        <time>2022-10-28T08:47:38Z</time>
      </trkpt>
      <trkpt lat="44.64752" lon="5.41759">
        <ele>511.1</ele>
        <time>2022-10-28T08:47:39Z</time>
      </trkpt>
      <trkpt lat="44.64746" lon="5.41763">
        <ele>511.1</ele>
        <time>2022-10-28T08:47:40Z</time>
      </trkpt>
      <trkpt lat="44.64741" lon="5.41766">
        <ele>511.2</ele>
        <time>2022-10-28T08:47:41Z</time>
      </trkpt>
      <trkpt lat="44.64736" lon="5.41769">
        <ele>511.2</ele>
        <time>2022-10-28T08:47:42Z</time>
      </trkpt>
      <trkpt lat="44.6473" lon="5.41773">
        <ele>511.2</ele>
        <time>2022-10-28T08:47:43Z</time>
      </trkpt>
      <trkpt lat="44.64725" lon="5.41776">
        <ele>511.2</ele>
        <time>2022-10-28T08:47:44Z</time>
      </trkpt>
      <trkpt lat="44.6472" lon="5.41779">
        <ele>511.2</ele>
        <time>2022-10-28T08:47:45Z</time>
      </trkpt>
      <trkpt lat="44.64715" lon="5.41782">
        <ele>511.2</ele>
        <time>2022-10-28T08:47:46Z</time>
      </trkpt>
      <trkpt lat="44.64709" lon="5.41786">
        <ele>511.3</ele>
        <time>2022-10-28T08:47:47Z</time>
      </trkpt>
      <trkpt lat="44.64704" lon="5.41789">
        <ele>511.3</ele>
        <time>2022-10-28T08:47:48Z</time>
      </trkpt>
      <trkpt lat="44.64698" lon="5.41791">
        <ele>511.3</ele>
        <time>2022-10-28T08:47:49Z</time>
      </trkpt>
      <trkpt lat="44.64692" lon="5.41794">
        <ele>511.3</ele>
        <time>2022-10-28T08:47:50Z</time>
      </trkpt>
      <trkpt lat="44.64687" lon="5.41797">
        <ele>511.3</ele>
        <time>2022-10-28T08:47:51Z</time>
      </trkpt>
      <trkpt lat="44.64681" lon="5.418">
        <ele>511.3</ele>
        <time>2022-10-28T08:47:52Z</time>
      </trkpt>
      <trkpt lat="44.64675" lon="5.41803">
        <ele>511.3</ele>
        <time>2022-10-28T08:47:53Z</time>
      </trkpt>
      <trkpt lat="44.64669" lon="5.41807">
        <ele>511.4</ele>
        <time>2022-10-28T08:47:54Z</time>
      </trkpt>
      <trkpt lat="44.64663" lon="5.4181">
        <ele>511.4</ele>
        <time>2022-10-28T08:47:55Z</time>
      </trkpt>
      <trkpt lat="44.64657" lon="5.41813">
        <ele>511.4</ele>
        <time>2022-10-28T08:47:56Z</time>
      </trkpt>
      <trkpt lat="44.64652" lon="5.41816">
        <ele>511.5</ele>
        <time>2022-10-28T08:47:57Z</time>
      </trkpt>
      <trkpt lat="44.64647" lon="5.4182">
        <ele>511.5</ele>
        <time>2022-10-28T08:47:58Z</time>
      </trkpt>
      <trkpt lat="44.64642" lon="5.41823">
        <ele>511.6</ele>
        <time>2022-10-28T08:47:59Z</time>
      </trkpt>
      <trkpt lat="44.64637" lon="5.41827">
        <ele>511.6</ele>
        <time>2022-10-28T08:48:00Z</time>
      </trkpt>
      <trkpt lat="44.64633" lon="5.41831">
        <ele>511.6</ele>
        <time>2022-10-28T08:48:01Z</time>
      </trkpt>
      <trkpt lat="44.64628" lon="5.41834">
        <ele>511.7</ele>
        <time>2022-10-28T08:48:02Z</time>
      </trkpt>
      <trkpt lat="44.64624" lon="5.41838">
        <ele>511.7</ele>
        <time>2022-10-28T08:48:03Z</time>
      </trkpt>
      <trkpt lat="44.64619" lon="5.41842">
        <ele>511.8</ele>
        <time>2022-10-28T08:48:04Z</time>
      </trkpt>
      <trkpt lat="44.64615" lon="5.41846">
        <ele>511.8</ele>
        <time>2022-10-28T08:48:05Z</time>
      </trkpt>
      <trkpt lat="44.6461" lon="5.41849">
        <ele>511.9</ele>
        <time>2022-10-28T08:48:06Z</time>
      </trkpt>
      <trkpt lat="44.64605" lon="5.41853">
        <ele>511.9</ele>
        <time>2022-10-28T08:48:07Z</time>
      </trkpt>
      <trkpt lat="44.64601" lon="5.41856">
        <ele>512</ele>
        <time>2022-10-28T08:48:08Z</time>
      </trkpt>
      <trkpt lat="44.64596" lon="5.4186">
        <ele>512</ele>
        <time>2022-10-28T08:48:09Z</time>
      </trkpt>
      <trkpt lat="44.64592" lon="5.41864">
        <ele>512.1</ele>
        <time>2022-10-28T08:48:10Z</time>
      </trkpt>
      <trkpt lat="44.64588" lon="5.41867">
        <ele>512.1</ele>
        <time>2022-10-28T08:48:11Z</time>
      </trkpt>
      <trkpt lat="44.64583" lon="5.41871">
        <ele>512.2</ele>
        <time>2022-10-28T08:48:12Z</time>
      </trkpt>
      <trkpt lat="44.64579" lon="5.41874">
        <ele>512.2</ele>
        <time>2022-10-28T08:48:13Z</time>
      </trkpt>
      <trkpt lat="44.64575" lon="5.41878">
        <ele>512.3</ele>
        <time>2022-10-28T08:48:14Z</time>
      </trkpt>
      <trkpt lat="44.6457" lon="5.41881">
        <ele>512.4</ele>
        <time>2022-10-28T08:48:15Z</time>
      </trkpt>
      <trkpt lat="44.64566" lon="5.41885">
        <ele>512.4</ele>
        <time>2022-10-28T08:48:16Z</time>
      </trkpt>
      <trkpt lat="44.64561" lon="5.41889">
        <ele>512.5</ele>
        <time>2022-10-28T08:48:17Z</time>
      </trkpt>
      <trkpt lat="44.64557" lon="5.41892">
        <ele>512.5</ele>
        <time>2022-10-28T08:48:18Z</time>
      </trkpt>
      <trkpt lat="44.64553" lon="5.41895">
        <ele>512.6</ele>
        <time>2022-10-28T08:48:19Z</time>
      </trkpt>
      <trkpt lat="44.64548" lon="5.41898">
        <ele>512.6</ele>
        <time>2022-10-28T08:48:20Z</time>
      </trkpt>
      <trkpt lat="44.64544" lon="5.41902">
        <ele>512.7</ele>
        <time>2022-10-28T08:48:21Z</time>
      </trkpt>
      <trkpt lat="44.6454" lon="5.41905">
        <ele>512.7</ele>
        <time>2022-10-28T08:48:22Z</time>
      </trkpt>
      <trkpt lat="44.64535" lon="5.41908">
        <ele>512.8</ele>
        <time>2022-10-28T08:48:23Z</time>
      </trkpt>
      <trkpt lat="44.64531" lon="5.41911">
        <ele>512.9</ele>
        <time>2022-10-28T08:48:24Z</time>
      </trkpt>
      <trkpt lat="44.64526" lon="5.41915">
        <ele>512.9</ele>
        <time>2022-10-28T08:48:25Z</time>
      </trkpt>
      <trkpt lat="44.64522" lon="5.41919">
        <ele>513</ele>
        <time>2022-10-28T08:48:26Z</time>
      </trkpt>
      <trkpt lat="44.64518" lon="5.41922">
        <ele>513.1</ele>
        <time>2022-10-28T08:48:27Z</time>
      </trkpt>
      <trkpt lat="44.64514" lon="5.41925">
        <ele>513.1</ele>
        <time>2022-10-28T08:48:28Z</time>
      </trkpt>
      <trkpt lat="44.64509" lon="5.41929">
        <ele>513.2</ele>
        <time>2022-10-28T08:48:29Z</time>
      </trkpt>
      <trkpt lat="44.64505" lon="5.41932">
        <ele>513.3</ele>
        <time>2022-10-28T08:48:30Z</time>
      </trkpt>
      <trkpt lat="44.64501" lon="5.41935">
        <ele>513.3</ele>
        <time>2022-10-28T08:48:31Z</time>
      </trkpt>
      <trkpt lat="44.64496" lon="5.41938">
        <ele>513.4</ele>
        <time>2022-10-28T08:48:32Z</time>
      </trkpt>
      <trkpt lat="44.64492" lon="5.41941">
        <ele>513.4</ele>
        <time>2022-10-28T08:48:33Z</time>
      </trkpt>
      <trkpt lat="44.64488" lon="5.41944">
        <ele>513.5</ele>
        <time>2022-10-28T08:48:34Z</time>
      </trkpt>
      <trkpt lat="44.64483" lon="5.41947">
        <ele>513.5</ele>
        <time>2022-10-28T08:48:35Z</time>
      </trkpt>
      <trkpt lat="44.64479" lon="5.4195">
        <ele>513.6</ele>
        <time>2022-10-28T08:48:36Z</time>
      </trkpt>
      <trkpt lat="44.64474" lon="5.41953">
        <ele>513.6</ele>
        <time>2022-10-28T08:48:37Z</time>
      </trkpt>
      <trkpt lat="44.64469" lon="5.41956">
        <ele>513.7</ele>
        <time>2022-10-28T08:48:38Z</time>
      </trkpt>
      <trkpt lat="44.64465" lon="5.4196">
        <ele>513.7</ele>
        <time>2022-10-28T08:48:39Z</time>
      </trkpt>
      <trkpt lat="44.6446" lon="5.41964">
        <ele>513.8</ele>
        <time>2022-10-28T08:48:40Z</time>
      </trkpt>
      <trkpt lat="44.64456" lon="5.41967">
        <ele>513.8</ele>
        <time>2022-10-28T08:48:41Z</time>
      </trkpt>
      <trkpt lat="44.64451" lon="5.4197">
        <ele>513.9</ele>
        <time>2022-10-28T08:48:42Z</time>
      </trkpt>
      <trkpt lat="44.64447" lon="5.41973">
        <ele>513.9</ele>
        <time>2022-10-28T08:48:43Z</time>
      </trkpt>
      <trkpt lat="44.64442" lon="5.41976">
        <ele>514</ele>
        <time>2022-10-28T08:48:44Z</time>
      </trkpt>
      <trkpt lat="44.64438" lon="5.41979">
        <ele>514.1</ele>
        <time>2022-10-28T08:48:45Z</time>
      </trkpt>
      <trkpt lat="44.64434" lon="5.41981">
        <ele>514.2</ele>
        <time>2022-10-28T08:48:46Z</time>
      </trkpt>
      <trkpt lat="44.64429" lon="5.41985">
        <ele>514.3</ele>
        <time>2022-10-28T08:48:47Z</time>
      </trkpt>
      <trkpt lat="44.64425" lon="5.41988">
        <ele>514.3</ele>
        <time>2022-10-28T08:48:48Z</time>
      </trkpt>
      <trkpt lat="44.64421" lon="5.41991">
        <ele>514.3</ele>
        <time>2022-10-28T08:48:49Z</time>
      </trkpt>
      <trkpt lat="44.64416" lon="5.41994">
        <ele>514.4</ele>
        <time>2022-10-28T08:48:50Z</time>
      </trkpt>
      <trkpt lat="44.64411" lon="5.41997">
        <ele>514.4</ele>
        <time>2022-10-28T08:48:51Z</time>
      </trkpt>
      <trkpt lat="44.64407" lon="5.42">
        <ele>514.4</ele>
        <time>2022-10-28T08:48:52Z</time>
      </trkpt>
      <trkpt lat="44.64402" lon="5.42003">
        <ele>514.4</ele>
        <time>2022-10-28T08:48:53Z</time>
      </trkpt>
      <trkpt lat="44.64398" lon="5.42006">
        <ele>514.4</ele>
        <time>2022-10-28T08:48:54Z</time>
      </trkpt>
      <trkpt lat="44.64393" lon="5.42009">
        <ele>514.4</ele>
        <time>2022-10-28T08:48:55Z</time>
      </trkpt>
      <trkpt lat="44.64389" lon="5.42013">
        <ele>514.4</ele>
        <time>2022-10-28T08:48:56Z</time>
      </trkpt>
      <trkpt lat="44.64384" lon="5.42016">
        <ele>514.4</ele>
        <time>2022-10-28T08:48:57Z</time>
      </trkpt>
      <trkpt lat="44.64379" lon="5.42019">
        <ele>514.4</ele>
        <time>2022-10-28T08:48:58Z</time>
      </trkpt>
      <trkpt lat="44.64375" lon="5.42021">
        <ele>514.4</ele>
        <time>2022-10-28T08:48:59Z</time>
      </trkpt>
      <trkpt lat="44.6437" lon="5.42024">
        <ele>514.4</ele>
        <time>2022-10-28T08:49:00Z</time>
      </trkpt>
      <trkpt lat="44.64365" lon="5.42028">
        <ele>514.3</ele>
        <time>2022-10-28T08:49:01Z</time>
      </trkpt>
      <trkpt lat="44.64361" lon="5.42032">
        <ele>514.3</ele>
        <time>2022-10-28T08:49:02Z</time>
      </trkpt>
      <trkpt lat="44.64356" lon="5.42035">
        <ele>514.3</ele>
        <time>2022-10-28T08:49:03Z</time>
      </trkpt>
      <trkpt lat="44.64351" lon="5.42038">
        <ele>514.3</ele>
        <time>2022-10-28T08:49:04Z</time>
      </trkpt>
      <trkpt lat="44.64347" lon="5.42041">
        <ele>514.3</ele>
        <time>2022-10-28T08:49:05Z</time>
      </trkpt>
      <trkpt lat="44.64342" lon="5.42045">
        <ele>514.3</ele>
        <time>2022-10-28T08:49:06Z</time>
      </trkpt>
      <trkpt lat="44.64337" lon="5.42048">
        <ele>514.3</ele>
        <time>2022-10-28T08:49:07Z</time>
      </trkpt>
      <trkpt lat="44.64333" lon="5.42051">
        <ele>514.2</ele>
        <time>2022-10-28T08:49:08Z</time>
      </trkpt>
      <trkpt lat="44.64328" lon="5.42054">
        <ele>514.2</ele>
        <time>2022-10-28T08:49:09Z</time>
      </trkpt>
      <trkpt lat="44.64323" lon="5.42058">
        <ele>514.2</ele>
        <time>2022-10-28T08:49:10Z</time>
      </trkpt>
      <trkpt lat="44.64319" lon="5.42061">
        <ele>514.2</ele>
        <time>2022-10-28T08:49:11Z</time>
      </trkpt>
      <trkpt lat="44.64314" lon="5.42065">
        <ele>514.2</ele>
        <time>2022-10-28T08:49:12Z</time>
      </trkpt>
      <trkpt lat="44.6431" lon="5.42068">
        <ele>514.2</ele>
        <time>2022-10-28T08:49:13Z</time>
      </trkpt>
      <trkpt lat="44.64305" lon="5.42071">
        <ele>514.2</ele>
        <time>2022-10-28T08:49:14Z</time>
      </trkpt>
      <trkpt lat="44.643" lon="5.42075">
        <ele>514.2</ele>
        <time>2022-10-28T08:49:15Z</time>
      </trkpt>
      <trkpt lat="44.64296" lon="5.42078">
        <ele>514.2</ele>
        <time>2022-10-28T08:49:16Z</time>
      </trkpt>
      <trkpt lat="44.64291" lon="5.42081">
        <ele>514.2</ele>
        <time>2022-10-28T08:49:17Z</time>
      </trkpt>
      <trkpt lat="44.64286" lon="5.42085">
        <ele>514.2</ele>
        <time>2022-10-28T08:49:18Z</time>
      </trkpt>
      <trkpt lat="44.64281" lon="5.42088">
        <ele>514.1</ele>
        <time>2022-10-28T08:49:19Z</time>
      </trkpt>
      <trkpt lat="44.64276" lon="5.42091">
        <ele>514.1</ele>
        <time>2022-10-28T08:49:20Z</time>
      </trkpt>
      <trkpt lat="44.64272" lon="5.42095">
        <ele>514.1</ele>
        <time>2022-10-28T08:49:21Z</time>
      </trkpt>
      <trkpt lat="44.64267" lon="5.42098">
        <ele>514.1</ele>
        <time>2022-10-28T08:49:22Z</time>
      </trkpt>
      <trkpt lat="44.64262" lon="5.42101">
        <ele>514.1</ele>
        <time>2022-10-28T08:49:23Z</time>
      </trkpt>
      <trkpt lat="44.64257" lon="5.42105">
        <ele>514.1</ele>
        <time>2022-10-28T08:49:24Z</time>
      </trkpt>
      <trkpt lat="44.64252" lon="5.42108">
        <ele>514.1</ele>
        <time>2022-10-28T08:49:25Z</time>
      </trkpt>
      <trkpt lat="44.64248" lon="5.42111">
        <ele>514.1</ele>
        <time>2022-10-28T08:49:26Z</time>
      </trkpt>
      <trkpt lat="44.64243" lon="5.42114">
        <ele>514.1</ele>
        <time>2022-10-28T08:49:27Z</time>
      </trkpt>
      <trkpt lat="44.64238" lon="5.42117">
        <ele>514.1</ele>
        <time>2022-10-28T08:49:28Z</time>
      </trkpt>
      <trkpt lat="44.64233" lon="5.4212">
        <ele>514.1</ele>
        <time>2022-10-28T08:49:29Z</time>
      </trkpt>
      <trkpt lat="44.64229" lon="5.42124">
        <ele>514.1</ele>
        <time>2022-10-28T08:49:30Z</time>
      </trkpt>
      <trkpt lat="44.64224" lon="5.42127">
        <ele>514.1</ele>
        <time>2022-10-28T08:49:31Z</time>
      </trkpt>
      <trkpt lat="44.64219" lon="5.4213">
        <ele>514.1</ele>
        <time>2022-10-28T08:49:32Z</time>
      </trkpt>
      <trkpt lat="44.64215" lon="5.42134">
        <ele>514.1</ele>
        <time>2022-10-28T08:49:33Z</time>
      </trkpt>
      <trkpt lat="44.6421" lon="5.42137">
        <ele>514.1</ele>
        <time>2022-10-28T08:49:34Z</time>
      </trkpt>
      <trkpt lat="44.64205" lon="5.42141">
        <ele>514.1</ele>
        <time>2022-10-28T08:49:35Z</time>
      </trkpt>
      <trkpt lat="44.642" lon="5.42144">
        <ele>514.1</ele>
        <time>2022-10-28T08:49:36Z</time>
      </trkpt>
      <trkpt lat="44.64196" lon="5.42147">
        <ele>514.1</ele>
        <time>2022-10-28T08:49:37Z</time>
      </trkpt>
      <trkpt lat="44.64191" lon="5.42151">
        <ele>514.1</ele>
        <time>2022-10-28T08:49:38Z</time>
      </trkpt>
      <trkpt lat="44.64186" lon="5.42154">
        <ele>514.1</ele>
        <time>2022-10-28T08:49:39Z</time>
      </trkpt>
      <trkpt lat="44.64182" lon="5.42157">
        <ele>514.1</ele>
        <time>2022-10-28T08:49:40Z</time>
      </trkpt>
      <trkpt lat="44.64177" lon="5.42161">
        <ele>514.1</ele>
        <time>2022-10-28T08:49:41Z</time>
      </trkpt>
      <trkpt lat="44.64172" lon="5.42164">
        <ele>514.1</ele>
        <time>2022-10-28T08:49:42Z</time>
      </trkpt>
      <trkpt lat="44.64167" lon="5.42167">
        <ele>514.1</ele>
        <time>2022-10-28T08:49:43Z</time>
      </trkpt>
      <trkpt lat="44.64163" lon="5.4217">
        <ele>514.2</ele>
        <time>2022-10-28T08:49:44Z</time>
      </trkpt>
      <trkpt lat="44.64158" lon="5.42174">
        <ele>514.2</ele>
        <time>2022-10-28T08:49:45Z</time>
      </trkpt>
      <trkpt lat="44.64153" lon="5.42177">
        <ele>514.3</ele>
        <time>2022-10-28T08:49:46Z</time>
      </trkpt>
      <trkpt lat="44.64149" lon="5.4218">
        <ele>514.4</ele>
        <time>2022-10-28T08:49:47Z</time>
      </trkpt>
      <trkpt lat="44.64144" lon="5.42183">
        <ele>514.4</ele>
        <time>2022-10-28T08:49:48Z</time>
      </trkpt>
      <trkpt lat="44.6414" lon="5.42186">
        <ele>514.4</ele>
        <time>2022-10-28T08:49:49Z</time>
      </trkpt>
      <trkpt lat="44.64135" lon="5.42189">
        <ele>514.4</ele>
        <time>2022-10-28T08:49:50Z</time>
      </trkpt>
      <trkpt lat="44.64131" lon="5.42192">
        <ele>514.5</ele>
        <time>2022-10-28T08:49:51Z</time>
      </trkpt>
      <trkpt lat="44.64127" lon="5.42196">
        <ele>514.5</ele>
        <time>2022-10-28T08:49:52Z</time>
      </trkpt>
      <trkpt lat="44.64122" lon="5.422">
        <ele>514.5</ele>
        <time>2022-10-28T08:49:53Z</time>
      </trkpt>
      <trkpt lat="44.64118" lon="5.42204">
        <ele>514.6</ele>
        <time>2022-10-28T08:49:54Z</time>
      </trkpt>
      <trkpt lat="44.64114" lon="5.42207">
        <ele>514.6</ele>
        <time>2022-10-28T08:49:55Z</time>
      </trkpt>
      <trkpt lat="44.6411" lon="5.42212">
        <ele>514.7</ele>
        <time>2022-10-28T08:49:56Z</time>
      </trkpt>
      <trkpt lat="44.64106" lon="5.42216">
        <ele>514.7</ele>
        <time>2022-10-28T08:49:57Z</time>
      </trkpt>
      <trkpt lat="44.64102" lon="5.4222">
        <ele>514.8</ele>
        <time>2022-10-28T08:49:58Z</time>
      </trkpt>
      <trkpt lat="44.64098" lon="5.42225">
        <ele>514.8</ele>
        <time>2022-10-28T08:49:59Z</time>
      </trkpt>
      <trkpt lat="44.64094" lon="5.42229">
        <ele>514.9</ele>
        <time>2022-10-28T08:50:00Z</time>
      </trkpt>
      <trkpt lat="44.6409" lon="5.42234">
        <ele>514.9</ele>
        <time>2022-10-28T08:50:01Z</time>
      </trkpt>
      <trkpt lat="44.64086" lon="5.42238">
        <ele>515</ele>
        <time>2022-10-28T08:50:02Z</time>
      </trkpt>
      <trkpt lat="44.64082" lon="5.42243">
        <ele>515</ele>
        <time>2022-10-28T08:50:03Z</time>
      </trkpt>
      <trkpt lat="44.64078" lon="5.42247">
        <ele>515.1</ele>
        <time>2022-10-28T08:50:04Z</time>
      </trkpt>
      <trkpt lat="44.64074" lon="5.42252">
        <ele>515.1</ele>
        <time>2022-10-28T08:50:05Z</time>
      </trkpt>
      <trkpt lat="44.64071" lon="5.42256">
        <ele>515.2</ele>
        <time>2022-10-28T08:50:06Z</time>
      </trkpt>
      <trkpt lat="44.64067" lon="5.4226">
        <ele>515.2</ele>
        <time>2022-10-28T08:50:07Z</time>
      </trkpt>
      <trkpt lat="44.64063" lon="5.42265">
        <ele>515.3</ele>
        <time>2022-10-28T08:50:08Z</time>
      </trkpt>
      <trkpt lat="44.64059" lon="5.42269">
        <ele>515.3</ele>
        <time>2022-10-28T08:50:09Z</time>
      </trkpt>
      <trkpt lat="44.64055" lon="5.42274">
        <ele>515.3</ele>
        <time>2022-10-28T08:50:10Z</time>
      </trkpt>
      <trkpt lat="44.64051" lon="5.42278">
        <ele>515.3</ele>
        <time>2022-10-28T08:50:11Z</time>
      </trkpt>
      <trkpt lat="44.64047" lon="5.42282">
        <ele>515.4</ele>
        <time>2022-10-28T08:50:12Z</time>
      </trkpt>
      <trkpt lat="44.64043" lon="5.42287">
        <ele>515.4</ele>
        <time>2022-10-28T08:50:13Z</time>
      </trkpt>
      <trkpt lat="44.6404" lon="5.42291">
        <ele>515.4</ele>
        <time>2022-10-28T08:50:14Z</time>
      </trkpt>
      <trkpt lat="44.64036" lon="5.42295">
        <ele>515.4</ele>
        <time>2022-10-28T08:50:15Z</time>
      </trkpt>
      <trkpt lat="44.64032" lon="5.423">
        <ele>515.4</ele>
        <time>2022-10-28T08:50:16Z</time>
      </trkpt>
      <trkpt lat="44.64028" lon="5.42304">
        <ele>515.4</ele>
        <time>2022-10-28T08:50:17Z</time>
      </trkpt>
      <trkpt lat="44.64024" lon="5.42308">
        <ele>515.5</ele>
        <time>2022-10-28T08:50:18Z</time>
      </trkpt>
      <trkpt lat="44.64021" lon="5.42312">
        <ele>515.5</ele>
        <time>2022-10-28T08:50:19Z</time>
      </trkpt>
      <trkpt lat="44.64017" lon="5.42317">
        <ele>515.5</ele>
        <time>2022-10-28T08:50:20Z</time>
      </trkpt>
      <trkpt lat="44.64013" lon="5.42322">
        <ele>515.6</ele>
        <time>2022-10-28T08:50:21Z</time>
      </trkpt>
      <trkpt lat="44.64009" lon="5.42327">
        <ele>515.6</ele>
        <time>2022-10-28T08:50:22Z</time>
      </trkpt>
      <trkpt lat="44.64005" lon="5.42331">
        <ele>515.6</ele>
        <time>2022-10-28T08:50:23Z</time>
      </trkpt>
      <trkpt lat="44.64" lon="5.42336">
        <ele>515.7</ele>
        <time>2022-10-28T08:50:24Z</time>
      </trkpt>
      <trkpt lat="44.63996" lon="5.42341">
        <ele>515.7</ele>
        <time>2022-10-28T08:50:25Z</time>
      </trkpt>
      <trkpt lat="44.63992" lon="5.42345">
        <ele>515.7</ele>
        <time>2022-10-28T08:50:26Z</time>
      </trkpt>
      <trkpt lat="44.63988" lon="5.4235">
        <ele>515.8</ele>
        <time>2022-10-28T08:50:27Z</time>
      </trkpt>
      <trkpt lat="44.63984" lon="5.42355">
        <ele>515.8</ele>
        <time>2022-10-28T08:50:28Z</time>
      </trkpt>
      <trkpt lat="44.6398" lon="5.42359">
        <ele>515.8</ele>
        <time>2022-10-28T08:50:29Z</time>
      </trkpt>
      <trkpt lat="44.63976" lon="5.42364">
        <ele>515.8</ele>
        <time>2022-10-28T08:50:30Z</time>
      </trkpt>
      <trkpt lat="44.63972" lon="5.42368">
        <ele>515.8</ele>
        <time>2022-10-28T08:50:31Z</time>
      </trkpt>
      <trkpt lat="44.63968" lon="5.42373">
        <ele>515.9</ele>
        <time>2022-10-28T08:50:32Z</time>
      </trkpt>
      <trkpt lat="44.63964" lon="5.42377">
        <ele>515.9</ele>
        <time>2022-10-28T08:50:33Z</time>
      </trkpt>
      <trkpt lat="44.6396" lon="5.42382">
        <ele>515.9</ele>
        <time>2022-10-28T08:50:34Z</time>
      </trkpt>
      <trkpt lat="44.63956" lon="5.42386">
        <ele>516</ele>
        <time>2022-10-28T08:50:35Z</time>
      </trkpt>
      <trkpt lat="44.63952" lon="5.42391">
        <ele>516</ele>
        <time>2022-10-28T08:50:36Z</time>
      </trkpt>
      <trkpt lat="44.63948" lon="5.42396">
        <ele>516.1</ele>
        <time>2022-10-28T08:50:37Z</time>
      </trkpt>
      <trkpt lat="44.63944" lon="5.424">
        <ele>516.2</ele>
        <time>2022-10-28T08:50:38Z</time>
      </trkpt>
      <trkpt lat="44.6394" lon="5.42405">
        <ele>516.2</ele>
        <time>2022-10-28T08:50:39Z</time>
      </trkpt>
      <trkpt lat="44.63936" lon="5.4241">
        <ele>516.3</ele>
        <time>2022-10-28T08:50:40Z</time>
      </trkpt>
      <trkpt lat="44.63932" lon="5.42414">
        <ele>516.4</ele>
        <time>2022-10-28T08:50:41Z</time>
      </trkpt>
      <trkpt lat="44.63928" lon="5.42418">
        <ele>516.4</ele>
        <time>2022-10-28T08:50:42Z</time>
      </trkpt>
      <trkpt lat="44.63923" lon="5.42422">
        <ele>516.5</ele>
        <time>2022-10-28T08:50:43Z</time>
      </trkpt>
      <trkpt lat="44.63919" lon="5.42426">
        <ele>516.6</ele>
        <time>2022-10-28T08:50:44Z</time>
      </trkpt>
      <trkpt lat="44.63915" lon="5.4243">
        <ele>516.7</ele>
        <time>2022-10-28T08:50:45Z</time>
      </trkpt>
      <trkpt lat="44.63911" lon="5.42434">
        <ele>516.7</ele>
        <time>2022-10-28T08:50:46Z</time>
      </trkpt>
      <trkpt lat="44.63907" lon="5.42438">
        <ele>516.8</ele>
        <time>2022-10-28T08:50:47Z</time>
      </trkpt>
      <trkpt lat="44.63903" lon="5.42442">
        <ele>516.9</ele>
        <time>2022-10-28T08:50:48Z</time>
      </trkpt>
      <trkpt lat="44.63899" lon="5.42445">
        <ele>516.9</ele>
        <time>2022-10-28T08:50:49Z</time>
      </trkpt>
      <trkpt lat="44.63895" lon="5.42449">
        <ele>517</ele>
        <time>2022-10-28T08:50:50Z</time>
      </trkpt>
      <trkpt lat="44.63891" lon="5.42453">
        <ele>517.1</ele>
        <time>2022-10-28T08:50:51Z</time>
      </trkpt>
      <trkpt lat="44.63887" lon="5.42457">
        <ele>517.1</ele>
        <time>2022-10-28T08:50:52Z</time>
      </trkpt>
      <trkpt lat="44.63883" lon="5.4246">
        <ele>517.2</ele>
        <time>2022-10-28T08:50:53Z</time>
      </trkpt>
      <trkpt lat="44.63879" lon="5.42464">
        <ele>517.3</ele>
        <time>2022-10-28T08:50:54Z</time>
      </trkpt>
      <trkpt lat="44.63875" lon="5.42468">
        <ele>517.3</ele>
        <time>2022-10-28T08:50:55Z</time>
      </trkpt>
      <trkpt lat="44.6387" lon="5.42471">
        <ele>517.4</ele>
        <time>2022-10-28T08:50:56Z</time>
      </trkpt>
      <trkpt lat="44.63866" lon="5.42475">
        <ele>517.5</ele>
        <time>2022-10-28T08:50:57Z</time>
      </trkpt>
      <trkpt lat="44.63862" lon="5.42478">
        <ele>517.5</ele>
        <time>2022-10-28T08:50:58Z</time>
      </trkpt>
      <trkpt lat="44.63858" lon="5.42481">
        <ele>517.6</ele>
        <time>2022-10-28T08:50:59Z</time>
      </trkpt>
      <trkpt lat="44.63854" lon="5.42485">
        <ele>517.6</ele>
        <time>2022-10-28T08:51:00Z</time>
      </trkpt>
      <trkpt lat="44.63849" lon="5.42488">
        <ele>517.7</ele>
        <time>2022-10-28T08:51:01Z</time>
      </trkpt>
      <trkpt lat="44.63845" lon="5.42491">
        <ele>517.8</ele>
        <time>2022-10-28T08:51:02Z</time>
      </trkpt>
      <trkpt lat="44.63841" lon="5.42494">
        <ele>517.9</ele>
        <time>2022-10-28T08:51:03Z</time>
      </trkpt>
      <trkpt lat="44.63837" lon="5.42498">
        <ele>518</ele>
        <time>2022-10-28T08:51:04Z</time>
      </trkpt>
      <trkpt lat="44.63832" lon="5.42501">
        <ele>518</ele>
        <time>2022-10-28T08:51:05Z</time>
      </trkpt>
      <trkpt lat="44.63828" lon="5.42504">
        <ele>518.1</ele>
        <time>2022-10-28T08:51:06Z</time>
      </trkpt>
      <trkpt lat="44.63824" lon="5.42507">
        <ele>518.2</ele>
        <time>2022-10-28T08:51:07Z</time>
      </trkpt>
      <trkpt lat="44.6382" lon="5.4251">
        <ele>518.3</ele>
        <time>2022-10-28T08:51:08Z</time>
      </trkpt>
      <trkpt lat="44.63816" lon="5.42513">
        <ele>518.3</ele>
        <time>2022-10-28T08:51:09Z</time>
      </trkpt>
      <trkpt lat="44.63811" lon="5.42516">
        <ele>518.4</ele>
        <time>2022-10-28T08:51:10Z</time>
      </trkpt>
      <trkpt lat="44.63807" lon="5.42519">
        <ele>518.5</ele>
        <time>2022-10-28T08:51:11Z</time>
      </trkpt>
      <trkpt lat="44.63803" lon="5.42522">
        <ele>518.6</ele>
        <time>2022-10-28T08:51:12Z</time>
      </trkpt>
      <trkpt lat="44.63799" lon="5.42525">
        <ele>518.6</ele>
        <time>2022-10-28T08:51:13Z</time>
      </trkpt>
      <trkpt lat="44.63795" lon="5.42528">
        <ele>518.7</ele>
        <time>2022-10-28T08:51:14Z</time>
      </trkpt>
      <trkpt lat="44.6379" lon="5.42531">
        <ele>518.7</ele>
        <time>2022-10-28T08:51:15Z</time>
      </trkpt>
      <trkpt lat="44.63786" lon="5.42534">
        <ele>518.8</ele>
        <time>2022-10-28T08:51:16Z</time>
      </trkpt>
      <trkpt lat="44.63782" lon="5.42537">
        <ele>518.9</ele>
        <time>2022-10-28T08:51:17Z</time>
      </trkpt>
      <trkpt lat="44.63778" lon="5.42541">
        <ele>519</ele>
        <time>2022-10-28T08:51:18Z</time>
      </trkpt>
      <trkpt lat="44.63774" lon="5.42544">
        <ele>519</ele>
        <time>2022-10-28T08:51:19Z</time>
      </trkpt>
      <trkpt lat="44.6377" lon="5.42547">
        <ele>519.1</ele>
        <time>2022-10-28T08:51:20Z</time>
      </trkpt>
      <trkpt lat="44.63766" lon="5.4255">
        <ele>519.1</ele>
        <time>2022-10-28T08:51:21Z</time>
      </trkpt>
      <trkpt lat="44.63762" lon="5.42553">
        <ele>519.2</ele>
        <time>2022-10-28T08:51:22Z</time>
      </trkpt>
      <trkpt lat="44.63757" lon="5.42556">
        <ele>519.3</ele>
        <time>2022-10-28T08:51:23Z</time>
      </trkpt>
      <trkpt lat="44.63753" lon="5.42559">
        <ele>519.3</ele>
        <time>2022-10-28T08:51:24Z</time>
      </trkpt>
      <trkpt lat="44.63749" lon="5.42562">
        <ele>519.4</ele>
        <time>2022-10-28T08:51:25Z</time>
      </trkpt>
      <trkpt lat="44.63745" lon="5.42565">
        <ele>519.4</ele>
        <time>2022-10-28T08:51:26Z</time>
      </trkpt>
      <trkpt lat="44.63741" lon="5.42568">
        <ele>519.5</ele>
        <time>2022-10-28T08:51:27Z</time>
      </trkpt>
      <trkpt lat="44.63737" lon="5.42571">
        <ele>519.6</ele>
        <time>2022-10-28T08:51:28Z</time>
      </trkpt>
      <trkpt lat="44.63733" lon="5.42574">
        <ele>519.6</ele>
        <time>2022-10-28T08:51:29Z</time>
      </trkpt>
      <trkpt lat="44.63728" lon="5.42577">
        <ele>519.7</ele>
        <time>2022-10-28T08:51:30Z</time>
      </trkpt>
      <trkpt lat="44.63724" lon="5.4258">
        <ele>519.7</ele>
        <time>2022-10-28T08:51:31Z</time>
      </trkpt>
      <trkpt lat="44.6372" lon="5.42583">
        <ele>519.8</ele>
        <time>2022-10-28T08:51:32Z</time>
      </trkpt>
      <trkpt lat="44.63715" lon="5.42586">
        <ele>519.9</ele>
        <time>2022-10-28T08:51:33Z</time>
      </trkpt>
      <trkpt lat="44.63711" lon="5.42589">
        <ele>519.9</ele>
        <time>2022-10-28T08:51:34Z</time>
      </trkpt>
      <trkpt lat="44.63706" lon="5.42593">
        <ele>519.9</ele>
        <time>2022-10-28T08:51:35Z</time>
      </trkpt>
      <trkpt lat="44.63702" lon="5.42596">
        <ele>520</ele>
        <time>2022-10-28T08:51:36Z</time>
      </trkpt>
      <trkpt lat="44.63697" lon="5.42599">
        <ele>520</ele>
        <time>2022-10-28T08:51:37Z</time>
      </trkpt>
      <trkpt lat="44.63693" lon="5.42602">
        <ele>520.1</ele>
        <time>2022-10-28T08:51:38Z</time>
      </trkpt>
      <trkpt lat="44.63688" lon="5.42605">
        <ele>520.1</ele>
        <time>2022-10-28T08:51:39Z</time>
      </trkpt>
      <trkpt lat="44.63684" lon="5.42608">
        <ele>520.2</ele>
        <time>2022-10-28T08:51:40Z</time>
      </trkpt>
      <trkpt lat="44.63679" lon="5.42611">
        <ele>520.3</ele>
        <time>2022-10-28T08:51:41Z</time>
      </trkpt>
      <trkpt lat="44.63675" lon="5.42613">
        <ele>520.3</ele>
        <time>2022-10-28T08:51:42Z</time>
      </trkpt>
      <trkpt lat="44.6367" lon="5.42616">
        <ele>520.4</ele>
        <time>2022-10-28T08:51:43Z</time>
      </trkpt>
      <trkpt lat="44.63666" lon="5.42619">
        <ele>520.4</ele>
        <time>2022-10-28T08:51:44Z</time>
      </trkpt>
      <trkpt lat="44.63661" lon="5.42621">
        <ele>520.5</ele>
        <time>2022-10-28T08:51:45Z</time>
      </trkpt>
      <trkpt lat="44.63657" lon="5.42624">
        <ele>520.5</ele>
        <time>2022-10-28T08:51:46Z</time>
      </trkpt>
      <trkpt lat="44.63652" lon="5.42627">
        <ele>520.6</ele>
        <time>2022-10-28T08:51:47Z</time>
      </trkpt>
      <trkpt lat="44.63648" lon="5.42629">
        <ele>520.7</ele>
        <time>2022-10-28T08:51:48Z</time>
      </trkpt>
      <trkpt lat="44.63643" lon="5.42632">
        <ele>520.7</ele>
        <time>2022-10-28T08:51:49Z</time>
      </trkpt>
      <trkpt lat="44.63639" lon="5.42635">
        <ele>520.8</ele>
        <time>2022-10-28T08:51:50Z</time>
      </trkpt>
      <trkpt lat="44.63634" lon="5.42638">
        <ele>520.9</ele>
        <time>2022-10-28T08:51:51Z</time>
      </trkpt>
      <trkpt lat="44.63629" lon="5.4264">
        <ele>521</ele>
        <time>2022-10-28T08:51:52Z</time>
      </trkpt>
      <trkpt lat="44.63625" lon="5.42643">
        <ele>521</ele>
        <time>2022-10-28T08:51:53Z</time>
      </trkpt>
      <trkpt lat="44.6362" lon="5.42646">
        <ele>521.1</ele>
        <time>2022-10-28T08:51:54Z</time>
      </trkpt>
      <trkpt lat="44.63616" lon="5.42648">
        <ele>521.2</ele>
        <time>2022-10-28T08:51:55Z</time>
      </trkpt>
      <trkpt lat="44.63611" lon="5.4265">
        <ele>521.3</ele>
        <time>2022-10-28T08:51:56Z</time>
      </trkpt>
      <trkpt lat="44.63606" lon="5.42653">
        <ele>521.3</ele>
        <time>2022-10-28T08:51:57Z</time>
      </trkpt>
      <trkpt lat="44.63602" lon="5.42655">
        <ele>521.4</ele>
        <time>2022-10-28T08:51:58Z</time>
      </trkpt>
      <trkpt lat="44.63597" lon="5.42658">
        <ele>521.4</ele>
        <time>2022-10-28T08:51:59Z</time>
      </trkpt>
      <trkpt lat="44.63593" lon="5.4266">
        <ele>521.5</ele>
        <time>2022-10-28T08:52:00Z</time>
      </trkpt>
      <trkpt lat="44.63588" lon="5.42663">
        <ele>521.5</ele>
        <time>2022-10-28T08:52:01Z</time>
      </trkpt>
      <trkpt lat="44.63584" lon="5.42665">
        <ele>521.6</ele>
        <time>2022-10-28T08:52:02Z</time>
      </trkpt>
      <trkpt lat="44.63579" lon="5.42668">
        <ele>521.7</ele>
        <time>2022-10-28T08:52:03Z</time>
      </trkpt>
      <trkpt lat="44.63575" lon="5.42671">
        <ele>521.7</ele>
        <time>2022-10-28T08:52:04Z</time>
      </trkpt>
      <trkpt lat="44.63571" lon="5.42673">
        <ele>521.8</ele>
        <time>2022-10-28T08:52:05Z</time>
      </trkpt>
      <trkpt lat="44.63566" lon="5.42675">
        <ele>521.8</ele>
        <time>2022-10-28T08:52:06Z</time>
      </trkpt>
      <trkpt lat="44.63562" lon="5.42678">
        <ele>521.9</ele>
        <time>2022-10-28T08:52:07Z</time>
      </trkpt>
      <trkpt lat="44.63557" lon="5.42681">
        <ele>522</ele>
        <time>2022-10-28T08:52:08Z</time>
      </trkpt>
      <trkpt lat="44.63553" lon="5.42684">
        <ele>522.1</ele>
        <time>2022-10-28T08:52:09Z</time>
      </trkpt>
      <trkpt lat="44.63549" lon="5.42687">
        <ele>522.2</ele>
        <time>2022-10-28T08:52:10Z</time>
      </trkpt>
      <trkpt lat="44.63545" lon="5.42689">
        <ele>522.2</ele>
        <time>2022-10-28T08:52:11Z</time>
      </trkpt>
      <trkpt lat="44.63541" lon="5.42693">
        <ele>522.3</ele>
        <time>2022-10-28T08:52:12Z</time>
      </trkpt>
      <trkpt lat="44.63537" lon="5.42696">
        <ele>522.4</ele>
        <time>2022-10-28T08:52:13Z</time>
      </trkpt>
      <trkpt lat="44.63532" lon="5.42699">
        <ele>522.5</ele>
        <time>2022-10-28T08:52:14Z</time>
      </trkpt>
      <trkpt lat="44.63528" lon="5.42702">
        <ele>522.6</ele>
        <time>2022-10-28T08:52:15Z</time>
      </trkpt>
      <trkpt lat="44.63524" lon="5.42706">
        <ele>522.6</ele>
        <time>2022-10-28T08:52:16Z</time>
      </trkpt>
      <trkpt lat="44.6352" lon="5.42709">
        <ele>522.7</ele>
        <time>2022-10-28T08:52:17Z</time>
      </trkpt>
      <trkpt lat="44.63516" lon="5.42712">
        <ele>522.8</ele>
        <time>2022-10-28T08:52:18Z</time>
      </trkpt>
      <trkpt lat="44.63512" lon="5.42715">
        <ele>522.9</ele>
        <time>2022-10-28T08:52:19Z</time>
      </trkpt>
      <trkpt lat="44.63508" lon="5.42717">
        <ele>523</ele>
        <time>2022-10-28T08:52:20Z</time>
      </trkpt>
      <trkpt lat="44.63504" lon="5.4272">
        <ele>523.1</ele>
        <time>2022-10-28T08:52:21Z</time>
      </trkpt>
      <trkpt lat="44.63499" lon="5.42723">
        <ele>523.2</ele>
        <time>2022-10-28T08:52:22Z</time>
      </trkpt>
      <trkpt lat="44.63495" lon="5.42726">
        <ele>523.3</ele>
        <time>2022-10-28T08:52:23Z</time>
      </trkpt>
      <trkpt lat="44.6349" lon="5.42729">
        <ele>523.4</ele>
        <time>2022-10-28T08:52:24Z</time>
      </trkpt>
      <trkpt lat="44.63486" lon="5.42732">
        <ele>523.5</ele>
        <time>2022-10-28T08:52:25Z</time>
      </trkpt>
      <trkpt lat="44.63482" lon="5.42736">
        <ele>523.6</ele>
        <time>2022-10-28T08:52:26Z</time>
      </trkpt>
      <trkpt lat="44.63478" lon="5.42739">
        <ele>523.7</ele>
        <time>2022-10-28T08:52:27Z</time>
      </trkpt>
      <trkpt lat="44.63473" lon="5.42742">
        <ele>523.8</ele>
        <time>2022-10-28T08:52:28Z</time>
      </trkpt>
      <trkpt lat="44.63469" lon="5.42745">
        <ele>523.8</ele>
        <time>2022-10-28T08:52:29Z</time>
      </trkpt>
      <trkpt lat="44.63465" lon="5.42748">
        <ele>523.9</ele>
        <time>2022-10-28T08:52:30Z</time>
      </trkpt>
      <trkpt lat="44.63461" lon="5.42751">
        <ele>524</ele>
        <time>2022-10-28T08:52:31Z</time>
      </trkpt>
      <trkpt lat="44.63457" lon="5.42754">
        <ele>524.1</ele>
        <time>2022-10-28T08:52:32Z</time>
      </trkpt>
      <trkpt lat="44.63453" lon="5.42756">
        <ele>524.2</ele>
        <time>2022-10-28T08:52:33Z</time>
      </trkpt>
      <trkpt lat="44.63449" lon="5.4276">
        <ele>524.2</ele>
        <time>2022-10-28T08:52:34Z</time>
      </trkpt>
      <trkpt lat="44.63445" lon="5.42762">
        <ele>524.3</ele>
        <time>2022-10-28T08:52:35Z</time>
      </trkpt>
      <trkpt lat="44.63441" lon="5.42765">
        <ele>524.4</ele>
        <time>2022-10-28T08:52:36Z</time>
      </trkpt>
      <trkpt lat="44.63437" lon="5.42768">
        <ele>524.5</ele>
        <time>2022-10-28T08:52:37Z</time>
      </trkpt>
      <trkpt lat="44.63433" lon="5.42771">
        <ele>524.6</ele>
        <time>2022-10-28T08:52:38Z</time>
      </trkpt>
      <trkpt lat="44.6343" lon="5.42772">
        <ele>524.6</ele>
        <time>2022-10-28T08:52:39Z</time>
      </trkpt>
      <trkpt lat="44.63427" lon="5.42774">
        <ele>524.7</ele>
        <time>2022-10-28T08:52:40Z</time>
      </trkpt>
      <trkpt lat="44.63423" lon="5.42777">
        <ele>524.8</ele>
        <time>2022-10-28T08:52:41Z</time>
      </trkpt>
      <trkpt lat="44.63419" lon="5.4278">
        <ele>524.8</ele>
        <time>2022-10-28T08:52:42Z</time>
      </trkpt>
      <trkpt lat="44.63415" lon="5.42784">
        <ele>524.9</ele>
        <time>2022-10-28T08:52:43Z</time>
      </trkpt>
      <trkpt lat="44.6341" lon="5.42787">
        <ele>525</ele>
        <time>2022-10-28T08:52:44Z</time>
      </trkpt>
      <trkpt lat="44.63407" lon="5.4279">
        <ele>525.1</ele>
        <time>2022-10-28T08:52:45Z</time>
      </trkpt>
      <trkpt lat="44.63404" lon="5.42791">
        <ele>525.1</ele>
        <time>2022-10-28T08:52:46Z</time>
      </trkpt>
      <trkpt lat="44.63401" lon="5.42792">
        <ele>525.2</ele>
        <time>2022-10-28T08:52:47Z</time>
      </trkpt>
      <trkpt lat="44.63396" lon="5.42796">
        <ele>525.3</ele>
        <time>2022-10-28T08:52:48Z</time>
      </trkpt>
      <trkpt lat="44.6339" lon="5.428">
        <ele>525.4</ele>
        <time>2022-10-28T08:52:50Z</time>
      </trkpt>
      <trkpt lat="44.63385" lon="5.42805">
        <ele>525.5</ele>
        <time>2022-10-28T08:52:51Z</time>
      </trkpt>
      <trkpt lat="44.63379" lon="5.42808">
        <ele>525.5</ele>
        <time>2022-10-28T08:52:52Z</time>
      </trkpt>
      <trkpt lat="44.63375" lon="5.42811">
        <ele>525.6</ele>
        <time>2022-10-28T08:52:53Z</time>
      </trkpt>
      <trkpt lat="44.63372" lon="5.42815">
        <ele>525.7</ele>
        <time>2022-10-28T08:52:54Z</time>
      </trkpt>
      <trkpt lat="44.63367" lon="5.42818">
        <ele>525.7</ele>
        <time>2022-10-28T08:52:55Z</time>
      </trkpt>
      <trkpt lat="44.63363" lon="5.42821">
        <ele>525.8</ele>
        <time>2022-10-28T08:52:56Z</time>
      </trkpt>
      <trkpt lat="44.63359" lon="5.42824">
        <ele>525.9</ele>
        <time>2022-10-28T08:52:57Z</time>
      </trkpt>
      <trkpt lat="44.63355" lon="5.42827">
        <ele>526</ele>
        <time>2022-10-28T08:52:58Z</time>
      </trkpt>
      <trkpt lat="44.63353" lon="5.42829">
        <ele>526</ele>
        <time>2022-10-28T08:52:59Z</time>
      </trkpt>
      <trkpt lat="44.63348" lon="5.42834">
        <ele>526.1</ele>
        <time>2022-10-28T08:53:00Z</time>
      </trkpt>
      <trkpt lat="44.63345" lon="5.42837">
        <ele>526.2</ele>
        <time>2022-10-28T08:53:01Z</time>
      </trkpt>
      <trkpt lat="44.63341" lon="5.4284">
        <ele>526.3</ele>
        <time>2022-10-28T08:53:02Z</time>
      </trkpt>
      <trkpt lat="44.63336" lon="5.42844">
        <ele>526.4</ele>
        <time>2022-10-28T08:53:03Z</time>
      </trkpt>
      <trkpt lat="44.63333" lon="5.42846">
        <ele>526.4</ele>
        <time>2022-10-28T08:53:04Z</time>
      </trkpt>
      <trkpt lat="44.63329" lon="5.4285">
        <ele>526.5</ele>
        <time>2022-10-28T08:53:05Z</time>
      </trkpt>
      <trkpt lat="44.63325" lon="5.42854">
        <ele>526.6</ele>
        <time>2022-10-28T08:53:06Z</time>
      </trkpt>
      <trkpt lat="44.6332" lon="5.42858">
        <ele>526.7</ele>
        <time>2022-10-28T08:53:08Z</time>
      </trkpt>
      <trkpt lat="44.63315" lon="5.42861">
        <ele>526.8</ele>
        <time>2022-10-28T08:53:09Z</time>
      </trkpt>
      <trkpt lat="44.63311" lon="5.42864">
        <ele>526.9</ele>
        <time>2022-10-28T08:53:10Z</time>
      </trkpt>
      <trkpt lat="44.63307" lon="5.42868">
        <ele>527</ele>
        <time>2022-10-28T08:53:11Z</time>
      </trkpt>
      <trkpt lat="44.63302" lon="5.42872">
        <ele>527.1</ele>
        <time>2022-10-28T08:53:12Z</time>
      </trkpt>
      <trkpt lat="44.63298" lon="5.42875">
        <ele>527.2</ele>
        <time>2022-10-28T08:53:13Z</time>
      </trkpt>
      <trkpt lat="44.63294" lon="5.42878">
        <ele>527.3</ele>
        <time>2022-10-28T08:53:14Z</time>
      </trkpt>
      <trkpt lat="44.63289" lon="5.42882">
        <ele>527.4</ele>
        <time>2022-10-28T08:53:16Z</time>
      </trkpt>
      <trkpt lat="44.63284" lon="5.42887">
        <ele>527.5</ele>
        <time>2022-10-28T08:53:17Z</time>
      </trkpt>
      <trkpt lat="44.6328" lon="5.4289">
        <ele>527.6</ele>
        <time>2022-10-28T08:53:18Z</time>
      </trkpt>
      <trkpt lat="44.63276" lon="5.42893">
        <ele>527.7</ele>
        <time>2022-10-28T08:53:19Z</time>
      </trkpt>
      <trkpt lat="44.63271" lon="5.42896">
        <ele>527.8</ele>
        <time>2022-10-28T08:53:20Z</time>
      </trkpt>
      <trkpt lat="44.63266" lon="5.429">
        <ele>527.8</ele>
        <time>2022-10-28T08:53:22Z</time>
      </trkpt>
      <trkpt lat="44.63262" lon="5.42904">
        <ele>527.9</ele>
        <time>2022-10-28T08:53:23Z</time>
      </trkpt>
      <trkpt lat="44.63258" lon="5.42907">
        <ele>528</ele>
        <time>2022-10-28T08:53:24Z</time>
      </trkpt>
      <trkpt lat="44.63253" lon="5.42911">
        <ele>528.1</ele>
        <time>2022-10-28T08:53:25Z</time>
      </trkpt>
      <trkpt lat="44.63249" lon="5.42914">
        <ele>528.2</ele>
        <time>2022-10-28T08:53:26Z</time>
      </trkpt>
      <trkpt lat="44.63245" lon="5.42918">
        <ele>528.3</ele>
        <time>2022-10-28T08:53:28Z</time>
      </trkpt>
      <trkpt lat="44.63241" lon="5.42922">
        <ele>528.4</ele>
        <time>2022-10-28T08:53:29Z</time>
      </trkpt>
      <trkpt lat="44.63236" lon="5.42926">
        <ele>528.5</ele>
        <time>2022-10-28T08:53:30Z</time>
      </trkpt>
      <trkpt lat="44.63231" lon="5.4293">
        <ele>528.5</ele>
        <time>2022-10-28T08:53:31Z</time>
      </trkpt>
      <trkpt lat="44.63226" lon="5.42934">
        <ele>528.6</ele>
        <time>2022-10-28T08:53:33Z</time>
      </trkpt>
      <trkpt lat="44.6322" lon="5.42939">
        <ele>528.7</ele>
        <time>2022-10-28T08:53:34Z</time>
      </trkpt>
      <trkpt lat="44.63215" lon="5.42944">
        <ele>528.8</ele>
        <time>2022-10-28T08:53:36Z</time>
      </trkpt>
      <trkpt lat="44.63209" lon="5.42949">
        <ele>528.9</ele>
        <time>2022-10-28T08:53:37Z</time>
      </trkpt>
      <trkpt lat="44.63206" lon="5.42952">
        <ele>529</ele>
        <time>2022-10-28T08:53:38Z</time>
      </trkpt>
      <trkpt lat="44.63203" lon="5.42955">
        <ele>529.1</ele>
        <time>2022-10-28T08:53:39Z</time>
      </trkpt>
      <trkpt lat="44.63199" lon="5.42959">
        <ele>529.1</ele>
        <time>2022-10-28T08:53:40Z</time>
      </trkpt>
      <trkpt lat="44.63192" lon="5.42965">
        <ele>529.3</ele>
        <time>2022-10-28T08:53:42Z</time>
      </trkpt>
      <trkpt lat="44.63188" lon="5.4297">
        <ele>529.3</ele>
        <time>2022-10-28T08:53:43Z</time>
      </trkpt>
      <trkpt lat="44.63185" lon="5.42974">
        <ele>529.4</ele>
        <time>2022-10-28T08:53:44Z</time>
      </trkpt>
      <trkpt lat="44.63181" lon="5.42978">
        <ele>529.5</ele>
        <time>2022-10-28T08:53:45Z</time>
      </trkpt>
      <trkpt lat="44.63178" lon="5.42982">
        <ele>529.5</ele>
        <time>2022-10-28T08:53:46Z</time>
      </trkpt>
      <trkpt lat="44.63174" lon="5.42986">
        <ele>529.6</ele>
        <time>2022-10-28T08:53:48Z</time>
      </trkpt>
      <trkpt lat="44.6317" lon="5.42991">
        <ele>529.7</ele>
        <time>2022-10-28T08:53:49Z</time>
      </trkpt>
      <trkpt lat="44.63166" lon="5.42995">
        <ele>529.7</ele>
        <time>2022-10-28T08:53:50Z</time>
      </trkpt>
      <trkpt lat="44.63162" lon="5.43">
        <ele>529.8</ele>
        <time>2022-10-28T08:53:51Z</time>
      </trkpt>
      <trkpt lat="44.63159" lon="5.43003">
        <ele>529.9</ele>
        <time>2022-10-28T08:53:52Z</time>
      </trkpt>
      <trkpt lat="44.63156" lon="5.43005">
        <ele>529.9</ele>
        <time>2022-10-28T08:53:53Z</time>
      </trkpt>
      <trkpt lat="44.6315" lon="5.4301">
        <ele>530</ele>
        <time>2022-10-28T08:53:54Z</time>
      </trkpt>
      <trkpt lat="44.63145" lon="5.43014">
        <ele>530.1</ele>
        <time>2022-10-28T08:53:56Z</time>
      </trkpt>
      <trkpt lat="44.63141" lon="5.43018">
        <ele>530.1</ele>
        <time>2022-10-28T08:53:57Z</time>
      </trkpt>
      <trkpt lat="44.63136" lon="5.43024">
        <ele>530.2</ele>
        <time>2022-10-28T08:53:58Z</time>
      </trkpt>
      <trkpt lat="44.63132" lon="5.43028">
        <ele>530.3</ele>
        <time>2022-10-28T08:53:59Z</time>
      </trkpt>
      <trkpt lat="44.63129" lon="5.43031">
        <ele>530.3</ele>
        <time>2022-10-28T08:54:00Z</time>
      </trkpt>
      <trkpt lat="44.63126" lon="5.43035">
        <ele>530.4</ele>
        <time>2022-10-28T08:54:01Z</time>
      </trkpt>
      <trkpt lat="44.63122" lon="5.43038">
        <ele>530.4</ele>
        <time>2022-10-28T08:54:02Z</time>
      </trkpt>
      <trkpt lat="44.63119" lon="5.43043">
        <ele>530.4</ele>
        <time>2022-10-28T08:54:03Z</time>
      </trkpt>
      <trkpt lat="44.63115" lon="5.43046">
        <ele>530.5</ele>
        <time>2022-10-28T08:54:04Z</time>
      </trkpt>
      <trkpt lat="44.6311" lon="5.43052">
        <ele>530.5</ele>
        <time>2022-10-28T08:54:06Z</time>
      </trkpt>
      <trkpt lat="44.63105" lon="5.43057">
        <ele>530.6</ele>
        <time>2022-10-28T08:54:07Z</time>
      </trkpt>
      <trkpt lat="44.63102" lon="5.4306">
        <ele>530.7</ele>
        <time>2022-10-28T08:54:08Z</time>
      </trkpt>
      <trkpt lat="44.63097" lon="5.43067">
        <ele>530.8</ele>
        <time>2022-10-28T08:54:10Z</time>
      </trkpt>
      <trkpt lat="44.63093" lon="5.43071">
        <ele>530.8</ele>
        <time>2022-10-28T08:54:11Z</time>
      </trkpt>
      <trkpt lat="44.63089" lon="5.43076">
        <ele>530.9</ele>
        <time>2022-10-28T08:54:12Z</time>
      </trkpt>
      <trkpt lat="44.63085" lon="5.43081">
        <ele>531</ele>
        <time>2022-10-28T08:54:13Z</time>
      </trkpt>
      <trkpt lat="44.63079" lon="5.43087">
        <ele>531.1</ele>
        <time>2022-10-28T08:54:15Z</time>
      </trkpt>
      <trkpt lat="44.63075" lon="5.43091">
        <ele>531.1</ele>
        <time>2022-10-28T08:54:16Z</time>
      </trkpt>
      <trkpt lat="44.63071" lon="5.43095">
        <ele>531.2</ele>
        <time>2022-10-28T08:54:18Z</time>
      </trkpt>
      <trkpt lat="44.63067" lon="5.43099">
        <ele>531.2</ele>
        <time>2022-10-28T08:54:19Z</time>
      </trkpt>
      <trkpt lat="44.63062" lon="5.43105">
        <ele>531.3</ele>
        <time>2022-10-28T08:54:20Z</time>
      </trkpt>
      <trkpt lat="44.63058" lon="5.43109">
        <ele>531.2</ele>
        <time>2022-10-28T08:54:22Z</time>
      </trkpt>
      <trkpt lat="44.63054" lon="5.43114">
        <ele>531.2</ele>
        <time>2022-10-28T08:54:23Z</time>
      </trkpt>
      <trkpt lat="44.63048" lon="5.4312">
        <ele>531.1</ele>
        <time>2022-10-28T08:54:24Z</time>
      </trkpt>
      <trkpt lat="44.63044" lon="5.43125">
        <ele>531.1</ele>
        <time>2022-10-28T08:54:25Z</time>
      </trkpt>
      <trkpt lat="44.63039" lon="5.43129">
        <ele>531</ele>
        <time>2022-10-28T08:54:26Z</time>
      </trkpt>
      <trkpt lat="44.63035" lon="5.43134">
        <ele>531</ele>
        <time>2022-10-28T08:54:27Z</time>
      </trkpt>
      <trkpt lat="44.63031" lon="5.43138">
        <ele>530.9</ele>
        <time>2022-10-28T08:54:28Z</time>
      </trkpt>
      <trkpt lat="44.63027" lon="5.43142">
        <ele>530.9</ele>
        <time>2022-10-28T08:54:29Z</time>
      </trkpt>
      <trkpt lat="44.63022" lon="5.43147">
        <ele>530.9</ele>
        <time>2022-10-28T08:54:30Z</time>
      </trkpt>
      <trkpt lat="44.63018" lon="5.43152">
        <ele>530.9</ele>
        <time>2022-10-28T08:54:31Z</time>
      </trkpt>
      <trkpt lat="44.63014" lon="5.43156">
        <ele>530.9</ele>
        <time>2022-10-28T08:54:32Z</time>
      </trkpt>
      <trkpt lat="44.63009" lon="5.43161">
        <ele>530.9</ele>
        <time>2022-10-28T08:54:33Z</time>
      </trkpt>
      <trkpt lat="44.63006" lon="5.43166">
        <ele>530.9</ele>
        <time>2022-10-28T08:54:34Z</time>
      </trkpt>
      <trkpt lat="44.63001" lon="5.4317">
        <ele>530.9</ele>
        <time>2022-10-28T08:54:35Z</time>
      </trkpt>
      <trkpt lat="44.62997" lon="5.43175">
        <ele>530.9</ele>
        <time>2022-10-28T08:54:36Z</time>
      </trkpt>
      <trkpt lat="44.62993" lon="5.43179">
        <ele>530.9</ele>
        <time>2022-10-28T08:54:37Z</time>
      </trkpt>
      <trkpt lat="44.62989" lon="5.43183">
        <ele>531</ele>
        <time>2022-10-28T08:54:38Z</time>
      </trkpt>
      <trkpt lat="44.62985" lon="5.43188">
        <ele>531</ele>
        <time>2022-10-28T08:54:39Z</time>
      </trkpt>
      <trkpt lat="44.6298" lon="5.43192">
        <ele>531</ele>
        <time>2022-10-28T08:54:40Z</time>
      </trkpt>
      <trkpt lat="44.62976" lon="5.43196">
        <ele>531</ele>
        <time>2022-10-28T08:54:41Z</time>
      </trkpt>
      <trkpt lat="44.62972" lon="5.43201">
        <ele>531.1</ele>
        <time>2022-10-28T08:54:42Z</time>
      </trkpt>
      <trkpt lat="44.62968" lon="5.43205">
        <ele>531.1</ele>
        <time>2022-10-28T08:54:43Z</time>
      </trkpt>
      <trkpt lat="44.62964" lon="5.43209">
        <ele>531.1</ele>
        <time>2022-10-28T08:54:44Z</time>
      </trkpt>
      <trkpt lat="44.6296" lon="5.43214">
        <ele>531.1</ele>
        <time>2022-10-28T08:54:45Z</time>
      </trkpt>
      <trkpt lat="44.62956" lon="5.43218">
        <ele>531.1</ele>
        <time>2022-10-28T08:54:46Z</time>
      </trkpt>
      <trkpt lat="44.62952" lon="5.43223">
        <ele>531.2</ele>
        <time>2022-10-28T08:54:47Z</time>
      </trkpt>
      <trkpt lat="44.62948" lon="5.43227">
        <ele>531.2</ele>
        <time>2022-10-28T08:54:48Z</time>
      </trkpt>
      <trkpt lat="44.62943" lon="5.43231">
        <ele>531.2</ele>
        <time>2022-10-28T08:54:49Z</time>
      </trkpt>
      <trkpt lat="44.62939" lon="5.43236">
        <ele>531.2</ele>
        <time>2022-10-28T08:54:50Z</time>
      </trkpt>
      <trkpt lat="44.62935" lon="5.4324">
        <ele>531.2</ele>
        <time>2022-10-28T08:54:51Z</time>
      </trkpt>
      <trkpt lat="44.62931" lon="5.43245">
        <ele>531.2</ele>
        <time>2022-10-28T08:54:52Z</time>
      </trkpt>
      <trkpt lat="44.62927" lon="5.43249">
        <ele>531.2</ele>
        <time>2022-10-28T08:54:53Z</time>
      </trkpt>
      <trkpt lat="44.62923" lon="5.43253">
        <ele>531.2</ele>
        <time>2022-10-28T08:54:54Z</time>
      </trkpt>
      <trkpt lat="44.62918" lon="5.43258">
        <ele>531.2</ele>
        <time>2022-10-28T08:54:55Z</time>
      </trkpt>
      <trkpt lat="44.62914" lon="5.43262">
        <ele>531.2</ele>
        <time>2022-10-28T08:54:56Z</time>
      </trkpt>
      <trkpt lat="44.6291" lon="5.43267">
        <ele>531.3</ele>
        <time>2022-10-28T08:54:57Z</time>
      </trkpt>
      <trkpt lat="44.62906" lon="5.43271">
        <ele>531.3</ele>
        <time>2022-10-28T08:54:58Z</time>
      </trkpt>
      <trkpt lat="44.62902" lon="5.43275">
        <ele>531.3</ele>
        <time>2022-10-28T08:54:59Z</time>
      </trkpt>
      <trkpt lat="44.62898" lon="5.4328">
        <ele>531.3</ele>
        <time>2022-10-28T08:55:00Z</time>
      </trkpt>
      <trkpt lat="44.62894" lon="5.43284">
        <ele>531.3</ele>
        <time>2022-10-28T08:55:01Z</time>
      </trkpt>
      <trkpt lat="44.6289" lon="5.43289">
        <ele>531.3</ele>
        <time>2022-10-28T08:55:02Z</time>
      </trkpt>
      <trkpt lat="44.62886" lon="5.43292">
        <ele>531.4</ele>
        <time>2022-10-28T08:55:03Z</time>
      </trkpt>
      <trkpt lat="44.62881" lon="5.43297">
        <ele>531.4</ele>
        <time>2022-10-28T08:55:04Z</time>
      </trkpt>
      <trkpt lat="44.62877" lon="5.43301">
        <ele>531.4</ele>
        <time>2022-10-28T08:55:05Z</time>
      </trkpt>
      <trkpt lat="44.62873" lon="5.43306">
        <ele>531.5</ele>
        <time>2022-10-28T08:55:06Z</time>
      </trkpt>
      <trkpt lat="44.62869" lon="5.4331">
        <ele>531.6</ele>
        <time>2022-10-28T08:55:07Z</time>
      </trkpt>
      <trkpt lat="44.62864" lon="5.43315">
        <ele>531.6</ele>
        <time>2022-10-28T08:55:08Z</time>
      </trkpt>
      <trkpt lat="44.6286" lon="5.43319">
        <ele>531.7</ele>
        <time>2022-10-28T08:55:09Z</time>
      </trkpt>
      <trkpt lat="44.62856" lon="5.43324">
        <ele>531.7</ele>
        <time>2022-10-28T08:55:10Z</time>
      </trkpt>
      <trkpt lat="44.62852" lon="5.43329">
        <ele>531.8</ele>
        <time>2022-10-28T08:55:11Z</time>
      </trkpt>
      <trkpt lat="44.62848" lon="5.43333">
        <ele>531.8</ele>
        <time>2022-10-28T08:55:12Z</time>
      </trkpt>
      <trkpt lat="44.62844" lon="5.43337">
        <ele>531.9</ele>
        <time>2022-10-28T08:55:13Z</time>
      </trkpt>
      <trkpt lat="44.6284" lon="5.43342">
        <ele>532</ele>
        <time>2022-10-28T08:55:14Z</time>
      </trkpt>
      <trkpt lat="44.62836" lon="5.43346">
        <ele>532</ele>
        <time>2022-10-28T08:55:15Z</time>
      </trkpt>
      <trkpt lat="44.62832" lon="5.43351">
        <ele>532.1</ele>
        <time>2022-10-28T08:55:16Z</time>
      </trkpt>
      <trkpt lat="44.62828" lon="5.43355">
        <ele>532.1</ele>
        <time>2022-10-28T08:55:17Z</time>
      </trkpt>
      <trkpt lat="44.62824" lon="5.43359">
        <ele>532.2</ele>
        <time>2022-10-28T08:55:18Z</time>
      </trkpt>
      <trkpt lat="44.6282" lon="5.43363">
        <ele>532.2</ele>
        <time>2022-10-28T08:55:19Z</time>
      </trkpt>
      <trkpt lat="44.62816" lon="5.43367">
        <ele>532.3</ele>
        <time>2022-10-28T08:55:20Z</time>
      </trkpt>
      <trkpt lat="44.62813" lon="5.43371">
        <ele>532.3</ele>
        <time>2022-10-28T08:55:21Z</time>
      </trkpt>
      <trkpt lat="44.62809" lon="5.43375">
        <ele>532.4</ele>
        <time>2022-10-28T08:55:22Z</time>
      </trkpt>
      <trkpt lat="44.62805" lon="5.43379">
        <ele>532.5</ele>
        <time>2022-10-28T08:55:23Z</time>
      </trkpt>
      <trkpt lat="44.62802" lon="5.43383">
        <ele>532.5</ele>
        <time>2022-10-28T08:55:24Z</time>
      </trkpt>
      <trkpt lat="44.62798" lon="5.43387">
        <ele>532.6</ele>
        <time>2022-10-28T08:55:25Z</time>
      </trkpt>
      <trkpt lat="44.62794" lon="5.43391">
        <ele>532.6</ele>
        <time>2022-10-28T08:55:26Z</time>
      </trkpt>
      <trkpt lat="44.62791" lon="5.43395">
        <ele>532.7</ele>
        <time>2022-10-28T08:55:27Z</time>
      </trkpt>
      <trkpt lat="44.62787" lon="5.43399">
        <ele>532.7</ele>
        <time>2022-10-28T08:55:28Z</time>
      </trkpt>
      <trkpt lat="44.62783" lon="5.43403">
        <ele>532.8</ele>
        <time>2022-10-28T08:55:29Z</time>
      </trkpt>
      <trkpt lat="44.6278" lon="5.43407">
        <ele>532.8</ele>
        <time>2022-10-28T08:55:30Z</time>
      </trkpt>
      <trkpt lat="44.62776" lon="5.43411">
        <ele>532.9</ele>
        <time>2022-10-28T08:55:31Z</time>
      </trkpt>
      <trkpt lat="44.62772" lon="5.43415">
        <ele>533</ele>
        <time>2022-10-28T08:55:32Z</time>
      </trkpt>
      <trkpt lat="44.6277" lon="5.43418">
        <ele>533</ele>
        <time>2022-10-28T08:55:33Z</time>
      </trkpt>
      <trkpt lat="44.62766" lon="5.43421">
        <ele>533.1</ele>
        <time>2022-10-28T08:55:34Z</time>
      </trkpt>
      <trkpt lat="44.62762" lon="5.43426">
        <ele>533.1</ele>
        <time>2022-10-28T08:55:35Z</time>
      </trkpt>
      <trkpt lat="44.62758" lon="5.4343">
        <ele>533.1</ele>
        <time>2022-10-28T08:55:36Z</time>
      </trkpt>
      <trkpt lat="44.62754" lon="5.43434">
        <ele>533.2</ele>
        <time>2022-10-28T08:55:37Z</time>
      </trkpt>
      <trkpt lat="44.6275" lon="5.43438">
        <ele>533.2</ele>
        <time>2022-10-28T08:55:38Z</time>
      </trkpt>
      <trkpt lat="44.62747" lon="5.43442">
        <ele>533.3</ele>
        <time>2022-10-28T08:55:39Z</time>
      </trkpt>
      <trkpt lat="44.62743" lon="5.43446">
        <ele>533.3</ele>
        <time>2022-10-28T08:55:40Z</time>
      </trkpt>
      <trkpt lat="44.62739" lon="5.43449">
        <ele>533.4</ele>
        <time>2022-10-28T08:55:41Z</time>
      </trkpt>
      <trkpt lat="44.62736" lon="5.43453">
        <ele>533.4</ele>
        <time>2022-10-28T08:55:42Z</time>
      </trkpt>
      <trkpt lat="44.62732" lon="5.43457">
        <ele>533.5</ele>
        <time>2022-10-28T08:55:43Z</time>
      </trkpt>
      <trkpt lat="44.6273" lon="5.43459">
        <ele>533.5</ele>
        <time>2022-10-28T08:55:44Z</time>
      </trkpt>
      <trkpt lat="44.62725" lon="5.43464">
        <ele>533.5</ele>
        <time>2022-10-28T08:55:45Z</time>
      </trkpt>
      <trkpt lat="44.62722" lon="5.43469">
        <ele>533.6</ele>
        <time>2022-10-28T08:55:46Z</time>
      </trkpt>
      <trkpt lat="44.62719" lon="5.43472">
        <ele>533.6</ele>
        <time>2022-10-28T08:55:47Z</time>
      </trkpt>
      <trkpt lat="44.62716" lon="5.43475">
        <ele>533.7</ele>
        <time>2022-10-28T08:55:48Z</time>
      </trkpt>
      <trkpt lat="44.62712" lon="5.43478">
        <ele>533.7</ele>
        <time>2022-10-28T08:55:49Z</time>
      </trkpt>
      <trkpt lat="44.62708" lon="5.43481">
        <ele>533.8</ele>
        <time>2022-10-28T08:55:50Z</time>
      </trkpt>
      <trkpt lat="44.62706" lon="5.43483">
        <ele>533.8</ele>
        <time>2022-10-28T08:55:51Z</time>
      </trkpt>
      <trkpt lat="44.62701" lon="5.4349">
        <ele>533.8</ele>
        <time>2022-10-28T08:55:52Z</time>
      </trkpt>
      <trkpt lat="44.62698" lon="5.43494">
        <ele>533.9</ele>
        <time>2022-10-28T08:55:53Z</time>
      </trkpt>
      <trkpt lat="44.62693" lon="5.435">
        <ele>533.9</ele>
        <time>2022-10-28T08:55:55Z</time>
      </trkpt>
      <trkpt lat="44.62688" lon="5.43504">
        <ele>534</ele>
        <time>2022-10-28T08:55:56Z</time>
      </trkpt>
      <trkpt lat="44.62683" lon="5.43511">
        <ele>534.1</ele>
        <time>2022-10-28T08:55:57Z</time>
      </trkpt>
      <trkpt lat="44.62678" lon="5.43515">
        <ele>534.1</ele>
        <time>2022-10-28T08:55:59Z</time>
      </trkpt>
      <trkpt lat="44.62672" lon="5.4352">
        <ele>534.2</ele>
        <time>2022-10-28T08:56:00Z</time>
      </trkpt>
      <trkpt lat="44.62669" lon="5.43525">
        <ele>534.3</ele>
        <time>2022-10-28T08:56:01Z</time>
      </trkpt>
      <trkpt lat="44.62667" lon="5.43527">
        <ele>534.3</ele>
        <time>2022-10-28T08:56:02Z</time>
      </trkpt>
      <trkpt lat="44.62663" lon="5.43532">
        <ele>534.4</ele>
        <time>2022-10-28T08:56:03Z</time>
      </trkpt>
      <trkpt lat="44.62658" lon="5.43536">
        <ele>534.5</ele>
        <time>2022-10-28T08:56:04Z</time>
      </trkpt>
      <trkpt lat="44.62655" lon="5.43539">
        <ele>534.6</ele>
        <time>2022-10-28T08:56:05Z</time>
      </trkpt>
      <trkpt lat="44.62651" lon="5.43543">
        <ele>534.6</ele>
        <time>2022-10-28T08:56:06Z</time>
      </trkpt>
      <trkpt lat="44.62647" lon="5.43547">
        <ele>534.7</ele>
        <time>2022-10-28T08:56:07Z</time>
      </trkpt>
      <trkpt lat="44.62644" lon="5.43551">
        <ele>534.8</ele>
        <time>2022-10-28T08:56:08Z</time>
      </trkpt>
      <trkpt lat="44.6264" lon="5.43555">
        <ele>534.9</ele>
        <time>2022-10-28T08:56:09Z</time>
      </trkpt>
      <trkpt lat="44.62638" lon="5.43557">
        <ele>534.9</ele>
        <time>2022-10-28T08:56:10Z</time>
      </trkpt>
      <trkpt lat="44.62635" lon="5.43561">
        <ele>535</ele>
        <time>2022-10-28T08:56:11Z</time>
      </trkpt>
      <trkpt lat="44.6263" lon="5.43566">
        <ele>535.1</ele>
        <time>2022-10-28T08:56:12Z</time>
      </trkpt>
      <trkpt lat="44.62627" lon="5.4357">
        <ele>535.2</ele>
        <time>2022-10-28T08:56:13Z</time>
      </trkpt>
      <trkpt lat="44.62624" lon="5.43573">
        <ele>535.3</ele>
        <time>2022-10-28T08:56:14Z</time>
      </trkpt>
      <trkpt lat="44.6262" lon="5.43577">
        <ele>535.3</ele>
        <time>2022-10-28T08:56:15Z</time>
      </trkpt>
      <trkpt lat="44.62617" lon="5.43581">
        <ele>535.4</ele>
        <time>2022-10-28T08:56:16Z</time>
      </trkpt>
      <trkpt lat="44.62614" lon="5.43584">
        <ele>535.5</ele>
        <time>2022-10-28T08:56:17Z</time>
      </trkpt>
      <trkpt lat="44.6261" lon="5.43588">
        <ele>535.6</ele>
        <time>2022-10-28T08:56:18Z</time>
      </trkpt>
      <trkpt lat="44.62607" lon="5.43591">
        <ele>535.7</ele>
        <time>2022-10-28T08:56:19Z</time>
      </trkpt>
      <trkpt lat="44.62602" lon="5.43596">
        <ele>535.8</ele>
        <time>2022-10-28T08:56:20Z</time>
      </trkpt>
      <trkpt lat="44.62598" lon="5.436">
        <ele>535.9</ele>
        <time>2022-10-28T08:56:22Z</time>
      </trkpt>
      <trkpt lat="44.62595" lon="5.43604">
        <ele>536</ele>
        <time>2022-10-28T08:56:23Z</time>
      </trkpt>
      <trkpt lat="44.62591" lon="5.43609">
        <ele>536.2</ele>
        <time>2022-10-28T08:56:24Z</time>
      </trkpt>
      <trkpt lat="44.62587" lon="5.43612">
        <ele>536.3</ele>
        <time>2022-10-28T08:56:25Z</time>
      </trkpt>
      <trkpt lat="44.62583" lon="5.43616">
        <ele>536.4</ele>
        <time>2022-10-28T08:56:26Z</time>
      </trkpt>
      <trkpt lat="44.62579" lon="5.43621">
        <ele>536.5</ele>
        <time>2022-10-28T08:56:27Z</time>
      </trkpt>
      <trkpt lat="44.62575" lon="5.43625">
        <ele>536.6</ele>
        <time>2022-10-28T08:56:29Z</time>
      </trkpt>
      <trkpt lat="44.62571" lon="5.43629">
        <ele>536.7</ele>
        <time>2022-10-28T08:56:30Z</time>
      </trkpt>
      <trkpt lat="44.62566" lon="5.43635">
        <ele>536.9</ele>
        <time>2022-10-28T08:56:31Z</time>
      </trkpt>
      <trkpt lat="44.62563" lon="5.43638">
        <ele>536.9</ele>
        <time>2022-10-28T08:56:32Z</time>
      </trkpt>
      <trkpt lat="44.62559" lon="5.43641">
        <ele>537</ele>
        <time>2022-10-28T08:56:33Z</time>
      </trkpt>
      <trkpt lat="44.62556" lon="5.43645">
        <ele>537.2</ele>
        <time>2022-10-28T08:56:34Z</time>
      </trkpt>
      <trkpt lat="44.62552" lon="5.43649">
        <ele>537.2</ele>
        <time>2022-10-28T08:56:35Z</time>
      </trkpt>
      <trkpt lat="44.62548" lon="5.43653">
        <ele>537.3</ele>
        <time>2022-10-28T08:56:37Z</time>
      </trkpt>
      <trkpt lat="44.62544" lon="5.43657">
        <ele>537.5</ele>
        <time>2022-10-28T08:56:38Z</time>
      </trkpt>
      <trkpt lat="44.62539" lon="5.43662">
        <ele>537.6</ele>
        <time>2022-10-28T08:56:39Z</time>
      </trkpt>
      <trkpt lat="44.62537" lon="5.43665">
        <ele>537.7</ele>
        <time>2022-10-28T08:56:40Z</time>
      </trkpt>
      <trkpt lat="44.6253" lon="5.43671">
        <ele>537.8</ele>
        <time>2022-10-28T08:56:42Z</time>
      </trkpt>
      <trkpt lat="44.62527" lon="5.43675">
        <ele>538</ele>
        <time>2022-10-28T08:56:43Z</time>
      </trkpt>
      <trkpt lat="44.62524" lon="5.43678">
        <ele>538</ele>
        <time>2022-10-28T08:56:44Z</time>
      </trkpt>
      <trkpt lat="44.62521" lon="5.43683">
        <ele>538.1</ele>
        <time>2022-10-28T08:56:46Z</time>
      </trkpt>
      <trkpt lat="44.62517" lon="5.43686">
        <ele>538.2</ele>
        <time>2022-10-28T08:56:47Z</time>
      </trkpt>
      <trkpt lat="44.62514" lon="5.4369">
        <ele>538.4</ele>
        <time>2022-10-28T08:56:48Z</time>
      </trkpt>
      <trkpt lat="44.62511" lon="5.43694">
        <ele>538.4</ele>
        <time>2022-10-28T08:56:49Z</time>
      </trkpt>
      <trkpt lat="44.62506" lon="5.43699">
        <ele>538.6</ele>
        <time>2022-10-28T08:56:51Z</time>
      </trkpt>
      <trkpt lat="44.62502" lon="5.43703">
        <ele>538.7</ele>
        <time>2022-10-28T08:56:52Z</time>
      </trkpt>
      <trkpt lat="44.62499" lon="5.43706">
        <ele>538.8</ele>
        <time>2022-10-28T08:56:53Z</time>
      </trkpt>
      <trkpt lat="44.62496" lon="5.4371">
        <ele>538.9</ele>
        <time>2022-10-28T08:56:54Z</time>
      </trkpt>
      <trkpt lat="44.62491" lon="5.43715">
        <ele>539.1</ele>
        <time>2022-10-28T08:56:56Z</time>
      </trkpt>
      <trkpt lat="44.62487" lon="5.43719">
        <ele>539.2</ele>
        <time>2022-10-28T08:56:57Z</time>
      </trkpt>
      <trkpt lat="44.62484" lon="5.43722">
        <ele>539.3</ele>
        <time>2022-10-28T08:56:58Z</time>
      </trkpt>
      <trkpt lat="44.62481" lon="5.43726">
        <ele>539.4</ele>
        <time>2022-10-28T08:56:59Z</time>
      </trkpt>
      <trkpt lat="44.62478" lon="5.43729">
        <ele>539.5</ele>
        <time>2022-10-28T08:57:00Z</time>
      </trkpt>
      <trkpt lat="44.62474" lon="5.43733">
        <ele>539.6</ele>
        <time>2022-10-28T08:57:02Z</time>
      </trkpt>
      <trkpt lat="44.6247" lon="5.43737">
        <ele>539.8</ele>
        <time>2022-10-28T08:57:03Z</time>
      </trkpt>
      <trkpt lat="44.62467" lon="5.43741">
        <ele>539.9</ele>
        <time>2022-10-28T08:57:04Z</time>
      </trkpt>
      <trkpt lat="44.62464" lon="5.43744">
        <ele>540</ele>
        <time>2022-10-28T08:57:05Z</time>
      </trkpt>
      <trkpt lat="44.6246" lon="5.43748">
        <ele>540.2</ele>
        <time>2022-10-28T08:57:06Z</time>
      </trkpt>
      <trkpt lat="44.62457" lon="5.43751">
        <ele>540.3</ele>
        <time>2022-10-28T08:57:08Z</time>
      </trkpt>
      <trkpt lat="44.62454" lon="5.43755">
        <ele>540.4</ele>
        <time>2022-10-28T08:57:09Z</time>
      </trkpt>
      <trkpt lat="44.62451" lon="5.43759">
        <ele>540.5</ele>
        <time>2022-10-28T08:57:10Z</time>
      </trkpt>
      <trkpt lat="44.62448" lon="5.43762">
        <ele>540.7</ele>
        <time>2022-10-28T08:57:11Z</time>
      </trkpt>
      <trkpt lat="44.62444" lon="5.43765">
        <ele>540.8</ele>
        <time>2022-10-28T08:57:12Z</time>
      </trkpt>
      <trkpt lat="44.6244" lon="5.4377">
        <ele>540.9</ele>
        <time>2022-10-28T08:57:14Z</time>
      </trkpt>
      <trkpt lat="44.62437" lon="5.43773">
        <ele>541</ele>
        <time>2022-10-28T08:57:15Z</time>
      </trkpt>
      <trkpt lat="44.62434" lon="5.43777">
        <ele>541.1</ele>
        <time>2022-10-28T08:57:16Z</time>
      </trkpt>
      <trkpt lat="44.62431" lon="5.43781">
        <ele>541.2</ele>
        <time>2022-10-28T08:57:17Z</time>
      </trkpt>
      <trkpt lat="44.62428" lon="5.43784">
        <ele>541.2</ele>
        <time>2022-10-28T08:57:18Z</time>
      </trkpt>
      <trkpt lat="44.62424" lon="5.43787">
        <ele>541.3</ele>
        <time>2022-10-28T08:57:19Z</time>
      </trkpt>
      <trkpt lat="44.62421" lon="5.43791">
        <ele>541.3</ele>
        <time>2022-10-28T08:57:20Z</time>
      </trkpt>
      <trkpt lat="44.62418" lon="5.43794">
        <ele>541.3</ele>
        <time>2022-10-28T08:57:21Z</time>
      </trkpt>
      <trkpt lat="44.62415" lon="5.43797">
        <ele>541.3</ele>
        <time>2022-10-28T08:57:22Z</time>
      </trkpt>
      <trkpt lat="44.62412" lon="5.43801">
        <ele>541.4</ele>
        <time>2022-10-28T08:57:23Z</time>
      </trkpt>
      <trkpt lat="44.62408" lon="5.43805">
        <ele>541.4</ele>
        <time>2022-10-28T08:57:24Z</time>
      </trkpt>
      <trkpt lat="44.62405" lon="5.43808">
        <ele>541.4</ele>
        <time>2022-10-28T08:57:25Z</time>
      </trkpt>
      <trkpt lat="44.62402" lon="5.43812">
        <ele>541.4</ele>
        <time>2022-10-28T08:57:26Z</time>
      </trkpt>
      <trkpt lat="44.62398" lon="5.43816">
        <ele>541.5</ele>
        <time>2022-10-28T08:57:27Z</time>
      </trkpt>
      <trkpt lat="44.62395" lon="5.43819">
        <ele>541.5</ele>
        <time>2022-10-28T08:57:28Z</time>
      </trkpt>
      <trkpt lat="44.62391" lon="5.43824">
        <ele>541.5</ele>
        <time>2022-10-28T08:57:29Z</time>
      </trkpt>
      <trkpt lat="44.62388" lon="5.43827">
        <ele>541.5</ele>
        <time>2022-10-28T08:57:30Z</time>
      </trkpt>
      <trkpt lat="44.62383" lon="5.43832">
        <ele>541.5</ele>
        <time>2022-10-28T08:57:31Z</time>
      </trkpt>
      <trkpt lat="44.62379" lon="5.43836">
        <ele>541.6</ele>
        <time>2022-10-28T08:57:32Z</time>
      </trkpt>
      <trkpt lat="44.62376" lon="5.4384">
        <ele>541.6</ele>
        <time>2022-10-28T08:57:33Z</time>
      </trkpt>
      <trkpt lat="44.62372" lon="5.43844">
        <ele>541.6</ele>
        <time>2022-10-28T08:57:34Z</time>
      </trkpt>
      <trkpt lat="44.62368" lon="5.43848">
        <ele>541.6</ele>
        <time>2022-10-28T08:57:35Z</time>
      </trkpt>
      <trkpt lat="44.62365" lon="5.43852">
        <ele>541.7</ele>
        <time>2022-10-28T08:57:36Z</time>
      </trkpt>
      <trkpt lat="44.62361" lon="5.43856">
        <ele>541.7</ele>
        <time>2022-10-28T08:57:37Z</time>
      </trkpt>
      <trkpt lat="44.62358" lon="5.4386">
        <ele>541.7</ele>
        <time>2022-10-28T08:57:38Z</time>
      </trkpt>
      <trkpt lat="44.62354" lon="5.43864">
        <ele>541.7</ele>
        <time>2022-10-28T08:57:39Z</time>
      </trkpt>
      <trkpt lat="44.6235" lon="5.43868">
        <ele>541.8</ele>
        <time>2022-10-28T08:57:40Z</time>
      </trkpt>
      <trkpt lat="44.62347" lon="5.43872">
        <ele>541.8</ele>
        <time>2022-10-28T08:57:41Z</time>
      </trkpt>
      <trkpt lat="44.62343" lon="5.43877">
        <ele>541.8</ele>
        <time>2022-10-28T08:57:42Z</time>
      </trkpt>
      <trkpt lat="44.62339" lon="5.4388">
        <ele>541.8</ele>
        <time>2022-10-28T08:57:43Z</time>
      </trkpt>
      <trkpt lat="44.62335" lon="5.43884">
        <ele>541.8</ele>
        <time>2022-10-28T08:57:44Z</time>
      </trkpt>
      <trkpt lat="44.62332" lon="5.43888">
        <ele>541.8</ele>
        <time>2022-10-28T08:57:45Z</time>
      </trkpt>
      <trkpt lat="44.62328" lon="5.43892">
        <ele>541.8</ele>
        <time>2022-10-28T08:57:46Z</time>
      </trkpt>
      <trkpt lat="44.62324" lon="5.43895">
        <ele>541.9</ele>
        <time>2022-10-28T08:57:47Z</time>
      </trkpt>
      <trkpt lat="44.62322" lon="5.43898">
        <ele>541.9</ele>
        <time>2022-10-28T08:57:48Z</time>
      </trkpt>
      <trkpt lat="44.62318" lon="5.43901">
        <ele>541.9</ele>
        <time>2022-10-28T08:57:49Z</time>
      </trkpt>
      <trkpt lat="44.62316" lon="5.43904">
        <ele>541.9</ele>
        <time>2022-10-28T08:57:50Z</time>
      </trkpt>
      <trkpt lat="44.62312" lon="5.43907">
        <ele>541.9</ele>
        <time>2022-10-28T08:57:51Z</time>
      </trkpt>
      <trkpt lat="44.62309" lon="5.43909">
        <ele>541.9</ele>
        <time>2022-10-28T08:57:52Z</time>
      </trkpt>
      <trkpt lat="44.62306" lon="5.43912">
        <ele>541.9</ele>
        <time>2022-10-28T08:57:53Z</time>
      </trkpt>
      <trkpt lat="44.62304" lon="5.43913">
        <ele>541.9</ele>
        <time>2022-10-28T08:57:54Z</time>
      </trkpt>
      <trkpt lat="44.62298" lon="5.43918">
        <ele>542</ele>
        <time>2022-10-28T08:57:56Z</time>
      </trkpt>
      <trkpt lat="44.62294" lon="5.4392">
        <ele>542</ele>
        <time>2022-10-28T08:57:57Z</time>
      </trkpt>
      <trkpt lat="44.62292" lon="5.43923">
        <ele>542</ele>
        <time>2022-10-28T08:57:58Z</time>
      </trkpt>
      <trkpt lat="44.6229" lon="5.43924">
        <ele>542</ele>
        <time>2022-10-28T08:57:59Z</time>
      </trkpt>
      <trkpt lat="44.62289" lon="5.43924">
        <ele>542</ele>
        <time>2022-10-28T08:58:00Z</time>
      </trkpt>
      <trkpt lat="44.62289" lon="5.43925">
        <ele>542</ele>
        <time>2022-10-28T08:58:01Z</time>
      </trkpt>
      <trkpt lat="44.62289" lon="5.43925">
        <ele>542</ele>
        <time>2022-10-28T08:58:02Z</time>
      </trkpt>
      <trkpt lat="44.62289" lon="5.43925">
        <ele>542</ele>
        <time>2022-10-28T08:58:03Z</time>
      </trkpt>
      <trkpt lat="44.6229" lon="5.43925">
        <ele>542.1</ele>
        <time>2022-10-28T08:58:04Z</time>
      </trkpt>
      <trkpt lat="44.6229" lon="5.43925">
        <ele>542.1</ele>
        <time>2022-10-28T08:58:05Z</time>
      </trkpt>
      <trkpt lat="44.6229" lon="5.43924">
        <ele>542.1</ele>
        <time>2022-10-28T08:58:06Z</time>
      </trkpt>
      <trkpt lat="44.6229" lon="5.43924">
        <ele>542.1</ele>
        <time>2022-10-28T08:58:07Z</time>
      </trkpt>
      <trkpt lat="44.6229" lon="5.43924">
        <ele>542.1</ele>
        <time>2022-10-28T08:58:08Z</time>
      </trkpt>
      <trkpt lat="44.6229" lon="5.43924">
        <ele>542.1</ele>
        <time>2022-10-28T08:58:10Z</time>
      </trkpt>
      <trkpt lat="44.6229" lon="5.43924">
        <ele>542.1</ele>
        <time>2022-10-28T08:58:11Z</time>
      </trkpt>
      <trkpt lat="44.6229" lon="5.43924">
        <ele>542.1</ele>
        <time>2022-10-28T08:58:12Z</time>
      </trkpt>
      <trkpt lat="44.62289" lon="5.43929">
        <ele>542.1</ele>
        <time>2022-10-28T09:00:36Z</time>
      </trkpt>
      <trkpt lat="44.62288" lon="5.43931">
        <ele>542.1</ele>
        <time>2022-10-28T09:00:37Z</time>
      </trkpt>
      <trkpt lat="44.62285" lon="5.43936">
        <ele>542.2</ele>
        <time>2022-10-28T09:00:39Z</time>
      </trkpt>
      <trkpt lat="44.62282" lon="5.4394">
        <ele>542.2</ele>
        <time>2022-10-28T09:00:40Z</time>
      </trkpt>
      <trkpt lat="44.62279" lon="5.43943">
        <ele>542.2</ele>
        <time>2022-10-28T09:00:41Z</time>
      </trkpt>
      <trkpt lat="44.62277" lon="5.43945">
        <ele>542.2</ele>
        <time>2022-10-28T09:00:42Z</time>
      </trkpt>
      <trkpt lat="44.62274" lon="5.43949">
        <ele>542.2</ele>
        <time>2022-10-28T09:00:43Z</time>
      </trkpt>
      <trkpt lat="44.62271" lon="5.43953">
        <ele>542.1</ele>
        <time>2022-10-28T09:00:44Z</time>
      </trkpt>
      <trkpt lat="44.62268" lon="5.43956">
        <ele>542.1</ele>
        <time>2022-10-28T09:00:45Z</time>
      </trkpt>
      <trkpt lat="44.62264" lon="5.4396">
        <ele>542</ele>
        <time>2022-10-28T09:00:46Z</time>
      </trkpt>
      <trkpt lat="44.62263" lon="5.43962">
        <ele>542</ele>
        <time>2022-10-28T09:00:47Z</time>
      </trkpt>
      <trkpt lat="44.62259" lon="5.43967">
        <ele>542</ele>
        <time>2022-10-28T09:00:48Z</time>
      </trkpt>
      <trkpt lat="44.62254" lon="5.43972">
        <ele>541.9</ele>
        <time>2022-10-28T09:00:50Z</time>
      </trkpt>
      <trkpt lat="44.62248" lon="5.43978">
        <ele>541.9</ele>
        <time>2022-10-28T09:00:51Z</time>
      </trkpt>
      <trkpt lat="44.62244" lon="5.43982">
        <ele>541.9</ele>
        <time>2022-10-28T09:00:52Z</time>
      </trkpt>
      <trkpt lat="44.62239" lon="5.43987">
        <ele>541.9</ele>
        <time>2022-10-28T09:00:54Z</time>
      </trkpt>
      <trkpt lat="44.62235" lon="5.43992">
        <ele>542</ele>
        <time>2022-10-28T09:00:55Z</time>
      </trkpt>
      <trkpt lat="44.62231" lon="5.43996">
        <ele>542</ele>
        <time>2022-10-28T09:00:56Z</time>
      </trkpt>
      <trkpt lat="44.62228" lon="5.43999">
        <ele>542.1</ele>
        <time>2022-10-28T09:00:57Z</time>
      </trkpt>
      <trkpt lat="44.62223" lon="5.44003">
        <ele>542.2</ele>
        <time>2022-10-28T09:00:59Z</time>
      </trkpt>
      <trkpt lat="44.6222" lon="5.44007">
        <ele>542.2</ele>
        <time>2022-10-28T09:01:00Z</time>
      </trkpt>
      <trkpt lat="44.62216" lon="5.44011">
        <ele>542.3</ele>
        <time>2022-10-28T09:01:01Z</time>
      </trkpt>
      <trkpt lat="44.62213" lon="5.44014">
        <ele>542.4</ele>
        <time>2022-10-28T09:01:02Z</time>
      </trkpt>
      <trkpt lat="44.62209" lon="5.44018">
        <ele>542.5</ele>
        <time>2022-10-28T09:01:03Z</time>
      </trkpt>
      <trkpt lat="44.62205" lon="5.44022">
        <ele>542.6</ele>
        <time>2022-10-28T09:01:05Z</time>
      </trkpt>
      <trkpt lat="44.622" lon="5.44028">
        <ele>542.8</ele>
        <time>2022-10-28T09:01:06Z</time>
      </trkpt>
      <trkpt lat="44.62198" lon="5.4403">
        <ele>542.9</ele>
        <time>2022-10-28T09:01:07Z</time>
      </trkpt>
      <trkpt lat="44.62195" lon="5.44033">
        <ele>543</ele>
        <time>2022-10-28T09:01:08Z</time>
      </trkpt>
      <trkpt lat="44.62191" lon="5.44037">
        <ele>543.1</ele>
        <time>2022-10-28T09:01:09Z</time>
      </trkpt>
      <trkpt lat="44.62188" lon="5.44041">
        <ele>543.2</ele>
        <time>2022-10-28T09:01:11Z</time>
      </trkpt>
      <trkpt lat="44.62183" lon="5.44046">
        <ele>543.4</ele>
        <time>2022-10-28T09:01:12Z</time>
      </trkpt>
      <trkpt lat="44.6218" lon="5.44049">
        <ele>543.5</ele>
        <time>2022-10-28T09:01:13Z</time>
      </trkpt>
      <trkpt lat="44.62176" lon="5.44054">
        <ele>543.7</ele>
        <time>2022-10-28T09:01:15Z</time>
      </trkpt>
      <trkpt lat="44.62172" lon="5.44058">
        <ele>543.9</ele>
        <time>2022-10-28T09:01:16Z</time>
      </trkpt>
      <trkpt lat="44.62169" lon="5.44061">
        <ele>544</ele>
        <time>2022-10-28T09:01:18Z</time>
      </trkpt>
      <trkpt lat="44.62165" lon="5.44064">
        <ele>544.1</ele>
        <time>2022-10-28T09:01:19Z</time>
      </trkpt>
      <trkpt lat="44.62162" lon="5.44068">
        <ele>544.3</ele>
        <time>2022-10-28T09:01:20Z</time>
      </trkpt>
      <trkpt lat="44.62159" lon="5.44071">
        <ele>544.4</ele>
        <time>2022-10-28T09:01:21Z</time>
      </trkpt>
      <trkpt lat="44.62156" lon="5.44074">
        <ele>544.5</ele>
        <time>2022-10-28T09:01:22Z</time>
      </trkpt>
      <trkpt lat="44.62153" lon="5.44078">
        <ele>544.6</ele>
        <time>2022-10-28T09:01:24Z</time>
      </trkpt>
      <trkpt lat="44.62148" lon="5.44084">
        <ele>544.7</ele>
        <time>2022-10-28T09:01:25Z</time>
      </trkpt>
      <trkpt lat="44.62145" lon="5.44087">
        <ele>544.7</ele>
        <time>2022-10-28T09:01:26Z</time>
      </trkpt>
      <trkpt lat="44.62144" lon="5.44088">
        <ele>544.7</ele>
        <time>2022-10-28T09:01:27Z</time>
      </trkpt>
      <trkpt lat="44.6214" lon="5.44092">
        <ele>544.7</ele>
        <time>2022-10-28T09:01:28Z</time>
      </trkpt>
      <trkpt lat="44.62137" lon="5.44095">
        <ele>544.8</ele>
        <time>2022-10-28T09:01:29Z</time>
      </trkpt>
      <trkpt lat="44.62134" lon="5.44098">
        <ele>544.8</ele>
        <time>2022-10-28T09:01:30Z</time>
      </trkpt>
      <trkpt lat="44.6213" lon="5.44102">
        <ele>544.8</ele>
        <time>2022-10-28T09:01:32Z</time>
      </trkpt>
      <trkpt lat="44.62126" lon="5.44106">
        <ele>544.8</ele>
        <time>2022-10-28T09:01:33Z</time>
      </trkpt>
      <trkpt lat="44.62123" lon="5.4411">
        <ele>544.7</ele>
        <time>2022-10-28T09:01:34Z</time>
      </trkpt>
      <trkpt lat="44.62119" lon="5.44114">
        <ele>544.7</ele>
        <time>2022-10-28T09:01:35Z</time>
      </trkpt>
      <trkpt lat="44.62116" lon="5.44118">
        <ele>544.6</ele>
        <time>2022-10-28T09:01:36Z</time>
      </trkpt>
      <trkpt lat="44.62111" lon="5.44123">
        <ele>544.6</ele>
        <time>2022-10-28T09:01:37Z</time>
      </trkpt>
      <trkpt lat="44.62107" lon="5.44128">
        <ele>544.5</ele>
        <time>2022-10-28T09:01:38Z</time>
      </trkpt>
      <trkpt lat="44.62103" lon="5.44132">
        <ele>544.5</ele>
        <time>2022-10-28T09:01:39Z</time>
      </trkpt>
      <trkpt lat="44.62099" lon="5.44136">
        <ele>544.5</ele>
        <time>2022-10-28T09:01:40Z</time>
      </trkpt>
      <trkpt lat="44.62095" lon="5.4414">
        <ele>544.5</ele>
        <time>2022-10-28T09:01:41Z</time>
      </trkpt>
      <trkpt lat="44.62091" lon="5.44145">
        <ele>544.4</ele>
        <time>2022-10-28T09:01:42Z</time>
      </trkpt>
      <trkpt lat="44.62087" lon="5.44149">
        <ele>544.4</ele>
        <time>2022-10-28T09:01:43Z</time>
      </trkpt>
      <trkpt lat="44.62083" lon="5.44154">
        <ele>544.4</ele>
        <time>2022-10-28T09:01:44Z</time>
      </trkpt>
      <trkpt lat="44.6208" lon="5.44158">
        <ele>544.4</ele>
        <time>2022-10-28T09:01:45Z</time>
      </trkpt>
      <trkpt lat="44.62076" lon="5.44162">
        <ele>544.4</ele>
        <time>2022-10-28T09:01:46Z</time>
      </trkpt>
      <trkpt lat="44.62072" lon="5.44167">
        <ele>544.4</ele>
        <time>2022-10-28T09:01:47Z</time>
      </trkpt>
      <trkpt lat="44.62068" lon="5.44171">
        <ele>544.5</ele>
        <time>2022-10-28T09:01:48Z</time>
      </trkpt>
      <trkpt lat="44.62064" lon="5.44176">
        <ele>544.5</ele>
        <time>2022-10-28T09:01:49Z</time>
      </trkpt>
      <trkpt lat="44.62059" lon="5.4418">
        <ele>544.5</ele>
        <time>2022-10-28T09:01:50Z</time>
      </trkpt>
      <trkpt lat="44.62055" lon="5.44184">
        <ele>544.6</ele>
        <time>2022-10-28T09:01:51Z</time>
      </trkpt>
      <trkpt lat="44.62052" lon="5.44189">
        <ele>544.6</ele>
        <time>2022-10-28T09:01:52Z</time>
      </trkpt>
      <trkpt lat="44.62048" lon="5.44193">
        <ele>544.6</ele>
        <time>2022-10-28T09:01:53Z</time>
      </trkpt>
      <trkpt lat="44.62044" lon="5.44197">
        <ele>544.7</ele>
        <time>2022-10-28T09:01:54Z</time>
      </trkpt>
      <trkpt lat="44.6204" lon="5.44201">
        <ele>544.7</ele>
        <time>2022-10-28T09:01:55Z</time>
      </trkpt>
      <trkpt lat="44.62036" lon="5.44205">
        <ele>544.7</ele>
        <time>2022-10-28T09:01:56Z</time>
      </trkpt>
      <trkpt lat="44.62032" lon="5.44208">
        <ele>544.8</ele>
        <time>2022-10-28T09:01:57Z</time>
      </trkpt>
      <trkpt lat="44.62028" lon="5.4421">
        <ele>544.8</ele>
        <time>2022-10-28T09:01:58Z</time>
      </trkpt>
      <trkpt lat="44.62024" lon="5.44211">
        <ele>544.8</ele>
        <time>2022-10-28T09:01:59Z</time>
      </trkpt>
      <trkpt lat="44.62019" lon="5.44212">
        <ele>545</ele>
        <time>2022-10-28T09:02:00Z</time>
      </trkpt>
      <trkpt lat="44.62015" lon="5.44213">
        <ele>545.1</ele>
        <time>2022-10-28T09:02:01Z</time>
      </trkpt>
      <trkpt lat="44.6201" lon="5.44213">
        <ele>545.1</ele>
        <time>2022-10-28T09:02:02Z</time>
      </trkpt>
      <trkpt lat="44.62006" lon="5.44213">
        <ele>545.2</ele>
        <time>2022-10-28T09:02:03Z</time>
      </trkpt>
      <trkpt lat="44.62001" lon="5.44214">
        <ele>545.3</ele>
        <time>2022-10-28T09:02:04Z</time>
      </trkpt>
      <trkpt lat="44.61999" lon="5.44214">
        <ele>545.3</ele>
        <time>2022-10-28T09:02:05Z</time>
      </trkpt>
      <trkpt lat="44.61995" lon="5.44215">
        <ele>545.4</ele>
        <time>2022-10-28T09:02:06Z</time>
      </trkpt>
      <trkpt lat="44.61991" lon="5.44216">
        <ele>545.5</ele>
        <time>2022-10-28T09:02:07Z</time>
      </trkpt>
      <trkpt lat="44.61988" lon="5.44217">
        <ele>545.5</ele>
        <time>2022-10-28T09:02:08Z</time>
      </trkpt>
      <trkpt lat="44.61984" lon="5.4422">
        <ele>545.6</ele>
        <time>2022-10-28T09:02:09Z</time>
      </trkpt>
      <trkpt lat="44.6198" lon="5.44221">
        <ele>545.6</ele>
        <time>2022-10-28T09:02:10Z</time>
      </trkpt>
      <trkpt lat="44.61979" lon="5.44221">
        <ele>545.6</ele>
        <time>2022-10-28T09:02:11Z</time>
      </trkpt>
      <trkpt lat="44.61973" lon="5.44226">
        <ele>545.7</ele>
        <time>2022-10-28T09:02:12Z</time>
      </trkpt>
      <trkpt lat="44.61968" lon="5.4423">
        <ele>545.8</ele>
        <time>2022-10-28T09:02:13Z</time>
      </trkpt>
      <trkpt lat="44.61965" lon="5.44232">
        <ele>545.8</ele>
        <time>2022-10-28T09:02:14Z</time>
      </trkpt>
      <trkpt lat="44.61959" lon="5.44235">
        <ele>545.8</ele>
        <time>2022-10-28T09:02:16Z</time>
      </trkpt>
      <trkpt lat="44.61955" lon="5.44239">
        <ele>545.9</ele>
        <time>2022-10-28T09:02:17Z</time>
      </trkpt>
      <trkpt lat="44.6195" lon="5.44243">
        <ele>545.9</ele>
        <time>2022-10-28T09:02:18Z</time>
      </trkpt>
      <trkpt lat="44.61946" lon="5.44246">
        <ele>545.9</ele>
        <time>2022-10-28T09:02:19Z</time>
      </trkpt>
      <trkpt lat="44.61942" lon="5.44249">
        <ele>545.9</ele>
        <time>2022-10-28T09:02:20Z</time>
      </trkpt>
      <trkpt lat="44.61937" lon="5.44252">
        <ele>545.9</ele>
        <time>2022-10-28T09:02:21Z</time>
      </trkpt>
      <trkpt lat="44.61934" lon="5.44254">
        <ele>545.9</ele>
        <time>2022-10-28T09:02:22Z</time>
      </trkpt>
      <trkpt lat="44.6193" lon="5.44257">
        <ele>545.9</ele>
        <time>2022-10-28T09:02:23Z</time>
      </trkpt>
      <trkpt lat="44.61923" lon="5.44263">
        <ele>546</ele>
        <time>2022-10-28T09:02:25Z</time>
      </trkpt>
      <trkpt lat="44.61919" lon="5.44265">
        <ele>546</ele>
        <time>2022-10-28T09:02:26Z</time>
      </trkpt>
      <trkpt lat="44.61917" lon="5.44265">
        <ele>546</ele>
        <time>2022-10-28T09:02:27Z</time>
      </trkpt>
      <trkpt lat="44.61917" lon="5.44266">
        <ele>546</ele>
        <time>2022-10-28T09:02:28Z</time>
      </trkpt>
      <trkpt lat="44.61917" lon="5.44265">
        <ele>546</ele>
        <time>2022-10-28T09:02:29Z</time>
      </trkpt>
      <trkpt lat="44.61916" lon="5.44266">
        <ele>546</ele>
        <time>2022-10-28T09:02:30Z</time>
      </trkpt>
      <trkpt lat="44.61916" lon="5.44265">
        <ele>546</ele>
        <time>2022-10-28T09:02:31Z</time>
      </trkpt>
      <trkpt lat="44.61917" lon="5.44265">
        <ele>546</ele>
        <time>2022-10-28T09:02:32Z</time>
      </trkpt>
      <trkpt lat="44.61917" lon="5.44265">
        <ele>546</ele>
        <time>2022-10-28T09:02:33Z</time>
      </trkpt>
      <trkpt lat="44.61917" lon="5.44265">
        <ele>546</ele>
        <time>2022-10-28T09:02:35Z</time>
      </trkpt>
      <trkpt lat="44.61917" lon="5.44265">
        <ele>546</ele>
        <time>2022-10-28T09:02:36Z</time>
      </trkpt>
      <trkpt lat="44.61917" lon="5.44265">
        <ele>546</ele>
        <time>2022-10-28T09:02:37Z</time>
      </trkpt>
      <trkpt lat="44.61918" lon="5.44265">
        <ele>546</ele>
        <time>2022-10-28T09:02:38Z</time>
      </trkpt>
      <trkpt lat="44.61918" lon="5.44265">
        <ele>546</ele>
        <time>2022-10-28T09:02:39Z</time>
      </trkpt>
      <trkpt lat="44.61918" lon="5.44265">
        <ele>546</ele>
        <time>2022-10-28T09:02:40Z</time>
      </trkpt>
      <trkpt lat="44.61917" lon="5.4427">
        <ele>546</ele>
        <time>2022-10-28T09:04:27Z</time>
      </trkpt>
      <trkpt lat="44.61916" lon="5.44272">
        <ele>546</ele>
        <time>2022-10-28T09:04:28Z</time>
      </trkpt>
      <trkpt lat="44.61914" lon="5.44275">
        <ele>546</ele>
        <time>2022-10-28T09:04:30Z</time>
      </trkpt>
      <trkpt lat="44.61912" lon="5.44279">
        <ele>545.9</ele>
        <time>2022-10-28T09:04:31Z</time>
      </trkpt>
      <trkpt lat="44.61912" lon="5.44281">
        <ele>545.9</ele>
        <time>2022-10-28T09:04:32Z</time>
      </trkpt>
      <trkpt lat="44.61912" lon="5.44283">
        <ele>545.8</ele>
        <time>2022-10-28T09:04:33Z</time>
      </trkpt>
      <trkpt lat="44.61913" lon="5.44284">
        <ele>545.8</ele>
        <time>2022-10-28T09:04:34Z</time>
      </trkpt>
      <trkpt lat="44.61917" lon="5.44287">
        <ele>545.6</ele>
        <time>2022-10-28T09:04:36Z</time>
      </trkpt>
      <trkpt lat="44.6192" lon="5.44289">
        <ele>545.5</ele>
        <time>2022-10-28T09:04:37Z</time>
      </trkpt>
      <trkpt lat="44.61923" lon="5.44293">
        <ele>545.4</ele>
        <time>2022-10-28T09:04:38Z</time>
      </trkpt>
      <trkpt lat="44.61926" lon="5.44296">
        <ele>545.3</ele>
        <time>2022-10-28T09:04:39Z</time>
      </trkpt>
      <trkpt lat="44.61928" lon="5.44299">
        <ele>545.2</ele>
        <time>2022-10-28T09:04:40Z</time>
      </trkpt>
      <trkpt lat="44.61931" lon="5.44305">
        <ele>545.1</ele>
        <time>2022-10-28T09:04:42Z</time>
      </trkpt>
      <trkpt lat="44.61934" lon="5.4431">
        <ele>544.9</ele>
        <time>2022-10-28T09:04:43Z</time>
      </trkpt>
      <trkpt lat="44.61934" lon="5.44316">
        <ele>544.8</ele>
        <time>2022-10-28T09:04:44Z</time>
      </trkpt>
      <trkpt lat="44.61933" lon="5.44324">
        <ele>544.8</ele>
        <time>2022-10-28T09:04:46Z</time>
      </trkpt>
      <trkpt lat="44.61928" lon="5.44329">
        <ele>544.8</ele>
        <time>2022-10-28T09:04:48Z</time>
      </trkpt>
      <trkpt lat="44.61924" lon="5.44331">
        <ele>544.8</ele>
        <time>2022-10-28T09:04:49Z</time>
      </trkpt>
      <trkpt lat="44.6192" lon="5.44335">
        <ele>544.8</ele>
        <time>2022-10-28T09:04:50Z</time>
      </trkpt>
      <trkpt lat="44.61917" lon="5.44338">
        <ele>544.8</ele>
        <time>2022-10-28T09:04:51Z</time>
      </trkpt>
      <trkpt lat="44.61914" lon="5.44343">
        <ele>544.8</ele>
        <time>2022-10-28T09:04:52Z</time>
      </trkpt>
      <trkpt lat="44.61911" lon="5.44347">
        <ele>544.8</ele>
        <time>2022-10-28T09:04:53Z</time>
      </trkpt>
      <trkpt lat="44.61909" lon="5.4435">
        <ele>544.8</ele>
        <time>2022-10-28T09:04:54Z</time>
      </trkpt>
      <trkpt lat="44.61905" lon="5.44354">
        <ele>544.8</ele>
        <time>2022-10-28T09:04:55Z</time>
      </trkpt>
      <trkpt lat="44.61902" lon="5.44359">
        <ele>544.8</ele>
        <time>2022-10-28T09:04:56Z</time>
      </trkpt>
      <trkpt lat="44.61899" lon="5.44363">
        <ele>544.8</ele>
        <time>2022-10-28T09:04:57Z</time>
      </trkpt>
      <trkpt lat="44.61895" lon="5.44368">
        <ele>544.8</ele>
        <time>2022-10-28T09:04:58Z</time>
      </trkpt>
      <trkpt lat="44.6189" lon="5.44377">
        <ele>544.8</ele>
        <time>2022-10-28T09:05:00Z</time>
      </trkpt>
      <trkpt lat="44.61887" lon="5.44383">
        <ele>544.8</ele>
        <time>2022-10-28T09:05:01Z</time>
      </trkpt>
      <trkpt lat="44.61886" lon="5.44387">
        <ele>544.8</ele>
        <time>2022-10-28T09:05:02Z</time>
      </trkpt>
      <trkpt lat="44.61884" lon="5.44394">
        <ele>544.8</ele>
        <time>2022-10-28T09:05:03Z</time>
      </trkpt>
      <trkpt lat="44.61882" lon="5.44401">
        <ele>544.8</ele>
        <time>2022-10-28T09:05:04Z</time>
      </trkpt>
      <trkpt lat="44.61881" lon="5.44408">
        <ele>544.8</ele>
        <time>2022-10-28T09:05:05Z</time>
      </trkpt>
      <trkpt lat="44.61879" lon="5.44414">
        <ele>544.8</ele>
        <time>2022-10-28T09:05:06Z</time>
      </trkpt>
      <trkpt lat="44.61878" lon="5.44421">
        <ele>544.8</ele>
        <time>2022-10-28T09:05:07Z</time>
      </trkpt>
      <trkpt lat="44.61878" lon="5.44428">
        <ele>544.8</ele>
        <time>2022-10-28T09:05:08Z</time>
      </trkpt>
      <trkpt lat="44.61877" lon="5.44435">
        <ele>544.8</ele>
        <time>2022-10-28T09:05:09Z</time>
      </trkpt>
      <trkpt lat="44.61876" lon="5.44442">
        <ele>544.8</ele>
        <time>2022-10-28T09:05:10Z</time>
      </trkpt>
      <trkpt lat="44.61875" lon="5.44448">
        <ele>544.8</ele>
        <time>2022-10-28T09:05:11Z</time>
      </trkpt>
      <trkpt lat="44.61874" lon="5.44455">
        <ele>544.8</ele>
        <time>2022-10-28T09:05:12Z</time>
      </trkpt>
      <trkpt lat="44.61873" lon="5.44462">
        <ele>544.8</ele>
        <time>2022-10-28T09:05:13Z</time>
      </trkpt>
      <trkpt lat="44.61872" lon="5.44469">
        <ele>544.7</ele>
        <time>2022-10-28T09:05:14Z</time>
      </trkpt>
      <trkpt lat="44.61871" lon="5.44476">
        <ele>544.6</ele>
        <time>2022-10-28T09:05:15Z</time>
      </trkpt>
      <trkpt lat="44.61869" lon="5.44483">
        <ele>544.6</ele>
        <time>2022-10-28T09:05:16Z</time>
      </trkpt>
      <trkpt lat="44.61868" lon="5.4449">
        <ele>544.5</ele>
        <time>2022-10-28T09:05:17Z</time>
      </trkpt>
      <trkpt lat="44.61866" lon="5.44496">
        <ele>544.4</ele>
        <time>2022-10-28T09:05:18Z</time>
      </trkpt>
      <trkpt lat="44.61864" lon="5.44503">
        <ele>544.4</ele>
        <time>2022-10-28T09:05:19Z</time>
      </trkpt>
      <trkpt lat="44.61862" lon="5.44509">
        <ele>544.4</ele>
        <time>2022-10-28T09:05:20Z</time>
      </trkpt>
      <trkpt lat="44.6186" lon="5.44516">
        <ele>544.3</ele>
        <time>2022-10-28T09:05:21Z</time>
      </trkpt>
      <trkpt lat="44.61858" lon="5.44522">
        <ele>544.3</ele>
        <time>2022-10-28T09:05:22Z</time>
      </trkpt>
      <trkpt lat="44.61855" lon="5.44527">
        <ele>544.3</ele>
        <time>2022-10-28T09:05:23Z</time>
      </trkpt>
      <trkpt lat="44.61853" lon="5.44533">
        <ele>544.2</ele>
        <time>2022-10-28T09:05:24Z</time>
      </trkpt>
      <trkpt lat="44.61851" lon="5.4454">
        <ele>544.2</ele>
        <time>2022-10-28T09:05:25Z</time>
      </trkpt>
      <trkpt lat="44.61848" lon="5.44546">
        <ele>544.2</ele>
        <time>2022-10-28T09:05:26Z</time>
      </trkpt>
      <trkpt lat="44.61845" lon="5.44552">
        <ele>544.2</ele>
        <time>2022-10-28T09:05:27Z</time>
      </trkpt>
      <trkpt lat="44.61843" lon="5.44557">
        <ele>544.2</ele>
        <time>2022-10-28T09:05:28Z</time>
      </trkpt>
      <trkpt lat="44.6184" lon="5.44563">
        <ele>544.2</ele>
        <time>2022-10-28T09:05:29Z</time>
      </trkpt>
      <trkpt lat="44.61838" lon="5.44569">
        <ele>544.2</ele>
        <time>2022-10-28T09:05:30Z</time>
      </trkpt>
      <trkpt lat="44.61835" lon="5.44575">
        <ele>544.2</ele>
        <time>2022-10-28T09:05:31Z</time>
      </trkpt>
      <trkpt lat="44.61833" lon="5.44581">
        <ele>544.3</ele>
        <time>2022-10-28T09:05:32Z</time>
      </trkpt>
      <trkpt lat="44.6183" lon="5.44587">
        <ele>544.3</ele>
        <time>2022-10-28T09:05:33Z</time>
      </trkpt>
      <trkpt lat="44.61828" lon="5.44593">
        <ele>544.3</ele>
        <time>2022-10-28T09:05:34Z</time>
      </trkpt>
      <trkpt lat="44.61825" lon="5.44598">
        <ele>544.4</ele>
        <time>2022-10-28T09:05:35Z</time>
      </trkpt>
      <trkpt lat="44.61823" lon="5.44603">
        <ele>544.5</ele>
        <time>2022-10-28T09:05:36Z</time>
      </trkpt>
      <trkpt lat="44.61821" lon="5.44608">
        <ele>544.5</ele>
        <time>2022-10-28T09:05:37Z</time>
      </trkpt>
      <trkpt lat="44.61819" lon="5.44612">
        <ele>544.6</ele>
        <time>2022-10-28T09:05:38Z</time>
      </trkpt>
      <trkpt lat="44.61817" lon="5.44618">
        <ele>544.6</ele>
        <time>2022-10-28T09:05:39Z</time>
      </trkpt>
      <trkpt lat="44.61815" lon="5.44623">
        <ele>544.7</ele>
        <time>2022-10-28T09:05:40Z</time>
      </trkpt>
      <trkpt lat="44.61813" lon="5.44627">
        <ele>544.8</ele>
        <time>2022-10-28T09:05:41Z</time>
      </trkpt>
      <trkpt lat="44.61811" lon="5.44633">
        <ele>544.9</ele>
        <time>2022-10-28T09:05:42Z</time>
      </trkpt>
      <trkpt lat="44.61809" lon="5.44639">
        <ele>545</ele>
        <time>2022-10-28T09:05:43Z</time>
      </trkpt>
      <trkpt lat="44.61808" lon="5.44641">
        <ele>545</ele>
        <time>2022-10-28T09:05:44Z</time>
      </trkpt>
      <trkpt lat="44.61805" lon="5.44648">
        <ele>545.2</ele>
        <time>2022-10-28T09:05:46Z</time>
      </trkpt>
      <trkpt lat="44.61803" lon="5.44656">
        <ele>545.4</ele>
        <time>2022-10-28T09:05:47Z</time>
      </trkpt>
      <trkpt lat="44.618" lon="5.44662">
        <ele>545.6</ele>
        <time>2022-10-28T09:05:48Z</time>
      </trkpt>
      <trkpt lat="44.61798" lon="5.44667">
        <ele>545.7</ele>
        <time>2022-10-28T09:05:49Z</time>
      </trkpt>
      <trkpt lat="44.61797" lon="5.44669">
        <ele>545.8</ele>
        <time>2022-10-28T09:05:50Z</time>
      </trkpt>
      <trkpt lat="44.61796" lon="5.44673">
        <ele>545.9</ele>
        <time>2022-10-28T09:05:51Z</time>
      </trkpt>
      <trkpt lat="44.61794" lon="5.44677">
        <ele>546</ele>
        <time>2022-10-28T09:05:52Z</time>
      </trkpt>
      <trkpt lat="44.61792" lon="5.44681">
        <ele>546.1</ele>
        <time>2022-10-28T09:05:53Z</time>
      </trkpt>
      <trkpt lat="44.61789" lon="5.44688">
        <ele>546.3</ele>
        <time>2022-10-28T09:05:55Z</time>
      </trkpt>
      <trkpt lat="44.61787" lon="5.44692">
        <ele>546.5</ele>
        <time>2022-10-28T09:05:56Z</time>
      </trkpt>
      <trkpt lat="44.61786" lon="5.44697">
        <ele>546.6</ele>
        <time>2022-10-28T09:05:58Z</time>
      </trkpt>
      <trkpt lat="44.61784" lon="5.44702">
        <ele>546.8</ele>
        <time>2022-10-28T09:05:59Z</time>
      </trkpt>
      <trkpt lat="44.61782" lon="5.44706">
        <ele>546.9</ele>
        <time>2022-10-28T09:06:00Z</time>
      </trkpt>
      <trkpt lat="44.6178" lon="5.4471">
        <ele>547.1</ele>
        <time>2022-10-28T09:06:01Z</time>
      </trkpt>
      <trkpt lat="44.61778" lon="5.44715">
        <ele>547.2</ele>
        <time>2022-10-28T09:06:02Z</time>
      </trkpt>
      <trkpt lat="44.61776" lon="5.44722">
        <ele>547.5</ele>
        <time>2022-10-28T09:06:04Z</time>
      </trkpt>
      <trkpt lat="44.61773" lon="5.44725">
        <ele>547.6</ele>
        <time>2022-10-28T09:06:06Z</time>
      </trkpt>
      <trkpt lat="44.61771" lon="5.44731">
        <ele>547.8</ele>
        <time>2022-10-28T09:06:07Z</time>
      </trkpt>
      <trkpt lat="44.61769" lon="5.44735">
        <ele>547.9</ele>
        <time>2022-10-28T09:06:08Z</time>
      </trkpt>
      <trkpt lat="44.61769" lon="5.44736">
        <ele>548</ele>
        <time>2022-10-28T09:06:09Z</time>
      </trkpt>
      <trkpt lat="44.61767" lon="5.4474">
        <ele>548.1</ele>
        <time>2022-10-28T09:06:10Z</time>
      </trkpt>
      <trkpt lat="44.61766" lon="5.44744">
        <ele>548.2</ele>
        <time>2022-10-28T09:06:11Z</time>
      </trkpt>
      <trkpt lat="44.61765" lon="5.44745">
        <ele>548.3</ele>
        <time>2022-10-28T09:06:12Z</time>
      </trkpt>
      <trkpt lat="44.61764" lon="5.4475">
        <ele>548.4</ele>
        <time>2022-10-28T09:06:13Z</time>
      </trkpt>
      <trkpt lat="44.61763" lon="5.44751">
        <ele>548.5</ele>
        <time>2022-10-28T09:06:14Z</time>
      </trkpt>
      <trkpt lat="44.61762" lon="5.44754">
        <ele>548.6</ele>
        <time>2022-10-28T09:06:15Z</time>
      </trkpt>
      <trkpt lat="44.6176" lon="5.44758">
        <ele>548.8</ele>
        <time>2022-10-28T09:06:16Z</time>
      </trkpt>
      <trkpt lat="44.61759" lon="5.44761">
        <ele>548.9</ele>
        <time>2022-10-28T09:06:17Z</time>
      </trkpt>
      <trkpt lat="44.61757" lon="5.44766">
        <ele>549.1</ele>
        <time>2022-10-28T09:06:19Z</time>
      </trkpt>
      <trkpt lat="44.61755" lon="5.4477">
        <ele>549.2</ele>
        <time>2022-10-28T09:06:20Z</time>
      </trkpt>
      <trkpt lat="44.61754" lon="5.44773">
        <ele>549.4</ele>
        <time>2022-10-28T09:06:21Z</time>
      </trkpt>
      <trkpt lat="44.61752" lon="5.44776">
        <ele>549.5</ele>
        <time>2022-10-28T09:06:22Z</time>
      </trkpt>
      <trkpt lat="44.61751" lon="5.4478">
        <ele>549.7</ele>
        <time>2022-10-28T09:06:23Z</time>
      </trkpt>
      <trkpt lat="44.61749" lon="5.44783">
        <ele>549.8</ele>
        <time>2022-10-28T09:06:24Z</time>
      </trkpt>
      <trkpt lat="44.61748" lon="5.44785">
        <ele>549.9</ele>
        <time>2022-10-28T09:06:25Z</time>
      </trkpt>
      <trkpt lat="44.61746" lon="5.44789">
        <ele>550.1</ele>
        <time>2022-10-28T09:06:26Z</time>
      </trkpt>
      <trkpt lat="44.61746" lon="5.4479">
        <ele>550.1</ele>
        <time>2022-10-28T09:06:27Z</time>
      </trkpt>
      <trkpt lat="44.61744" lon="5.44794">
        <ele>550.3</ele>
        <time>2022-10-28T09:06:28Z</time>
      </trkpt>
      <trkpt lat="44.61743" lon="5.44797">
        <ele>550.4</ele>
        <time>2022-10-28T09:06:29Z</time>
      </trkpt>
      <trkpt lat="44.61741" lon="5.44802">
        <ele>550.6</ele>
        <time>2022-10-28T09:06:31Z</time>
      </trkpt>
      <trkpt lat="44.6174" lon="5.44806">
        <ele>550.8</ele>
        <time>2022-10-28T09:06:32Z</time>
      </trkpt>
      <trkpt lat="44.61737" lon="5.44813">
        <ele>551.1</ele>
        <time>2022-10-28T09:06:34Z</time>
      </trkpt>
      <trkpt lat="44.61736" lon="5.44816">
        <ele>551.2</ele>
        <time>2022-10-28T09:06:35Z</time>
      </trkpt>
      <trkpt lat="44.61735" lon="5.4482">
        <ele>551.4</ele>
        <time>2022-10-28T09:06:36Z</time>
      </trkpt>
      <trkpt lat="44.61734" lon="5.44822">
        <ele>551.4</ele>
        <time>2022-10-28T09:06:37Z</time>
      </trkpt>
      <trkpt lat="44.61731" lon="5.44829">
        <ele>551.7</ele>
        <time>2022-10-28T09:06:39Z</time>
      </trkpt>
      <trkpt lat="44.6173" lon="5.44831">
        <ele>551.8</ele>
        <time>2022-10-28T09:06:40Z</time>
      </trkpt>
      <trkpt lat="44.61727" lon="5.44838">
        <ele>552.1</ele>
        <time>2022-10-28T09:06:42Z</time>
      </trkpt>
      <trkpt lat="44.61725" lon="5.44843">
        <ele>552.3</ele>
        <time>2022-10-28T09:06:44Z</time>
      </trkpt>
      <trkpt lat="44.61723" lon="5.44846">
        <ele>552.4</ele>
        <time>2022-10-28T09:06:45Z</time>
      </trkpt>
      <trkpt lat="44.61722" lon="5.4485">
        <ele>552.6</ele>
        <time>2022-10-28T09:06:47Z</time>
      </trkpt>
      <trkpt lat="44.6172" lon="5.44855">
        <ele>552.8</ele>
        <time>2022-10-28T09:06:48Z</time>
      </trkpt>
      <trkpt lat="44.61718" lon="5.44858">
        <ele>552.9</ele>
        <time>2022-10-28T09:06:49Z</time>
      </trkpt>
      <trkpt lat="44.61717" lon="5.44862">
        <ele>553.1</ele>
        <time>2022-10-28T09:06:51Z</time>
      </trkpt>
      <trkpt lat="44.61714" lon="5.44868">
        <ele>553.3</ele>
        <time>2022-10-28T09:06:52Z</time>
      </trkpt>
      <trkpt lat="44.61712" lon="5.44871">
        <ele>553.5</ele>
        <time>2022-10-28T09:06:53Z</time>
      </trkpt>
      <trkpt lat="44.61711" lon="5.44873">
        <ele>553.5</ele>
        <time>2022-10-28T09:06:54Z</time>
      </trkpt>
      <trkpt lat="44.6171" lon="5.44876">
        <ele>553.7</ele>
        <time>2022-10-28T09:06:55Z</time>
      </trkpt>
      <trkpt lat="44.61708" lon="5.44881">
        <ele>553.9</ele>
        <time>2022-10-28T09:06:56Z</time>
      </trkpt>
      <trkpt lat="44.61708" lon="5.44883">
        <ele>553.9</ele>
        <time>2022-10-28T09:06:57Z</time>
      </trkpt>
      <trkpt lat="44.61706" lon="5.44886">
        <ele>554.1</ele>
        <time>2022-10-28T09:06:58Z</time>
      </trkpt>
      <trkpt lat="44.61704" lon="5.44891">
        <ele>554.3</ele>
        <time>2022-10-28T09:06:59Z</time>
      </trkpt>
      <trkpt lat="44.61703" lon="5.44892">
        <ele>554.3</ele>
        <time>2022-10-28T09:07:00Z</time>
      </trkpt>
      <trkpt lat="44.61702" lon="5.44896">
        <ele>554.5</ele>
        <time>2022-10-28T09:07:01Z</time>
      </trkpt>
      <trkpt lat="44.617" lon="5.44899">
        <ele>554.6</ele>
        <time>2022-10-28T09:07:03Z</time>
      </trkpt>
      <trkpt lat="44.61699" lon="5.44903">
        <ele>554.7</ele>
        <time>2022-10-28T09:07:04Z</time>
      </trkpt>
      <trkpt lat="44.61696" lon="5.44906">
        <ele>554.9</ele>
        <time>2022-10-28T09:07:05Z</time>
      </trkpt>
      <trkpt lat="44.61695" lon="5.4491">
        <ele>555</ele>
        <time>2022-10-28T09:07:06Z</time>
      </trkpt>
      <trkpt lat="44.61694" lon="5.44913">
        <ele>555.2</ele>
        <time>2022-10-28T09:07:07Z</time>
      </trkpt>
      <trkpt lat="44.61692" lon="5.44917">
        <ele>555.3</ele>
        <time>2022-10-28T09:07:08Z</time>
      </trkpt>
      <trkpt lat="44.61691" lon="5.44919">
        <ele>555.4</ele>
        <time>2022-10-28T09:07:09Z</time>
      </trkpt>
      <trkpt lat="44.61689" lon="5.44923">
        <ele>555.5</ele>
        <time>2022-10-28T09:07:10Z</time>
      </trkpt>
      <trkpt lat="44.61688" lon="5.44926">
        <ele>555.6</ele>
        <time>2022-10-28T09:07:11Z</time>
      </trkpt>
      <trkpt lat="44.61688" lon="5.44927">
        <ele>555.7</ele>
        <time>2022-10-28T09:07:12Z</time>
      </trkpt>
      <trkpt lat="44.61685" lon="5.44933">
        <ele>555.9</ele>
        <time>2022-10-28T09:07:14Z</time>
      </trkpt>
      <trkpt lat="44.61683" lon="5.44937">
        <ele>556</ele>
        <time>2022-10-28T09:07:15Z</time>
      </trkpt>
      <trkpt lat="44.61682" lon="5.44941">
        <ele>556</ele>
        <time>2022-10-28T09:07:16Z</time>
      </trkpt>
      <trkpt lat="44.6168" lon="5.44945">
        <ele>556.1</ele>
        <time>2022-10-28T09:07:17Z</time>
      </trkpt>
      <trkpt lat="44.61679" lon="5.44949">
        <ele>556.2</ele>
        <time>2022-10-28T09:07:18Z</time>
      </trkpt>
      <trkpt lat="44.61678" lon="5.4495">
        <ele>556.3</ele>
        <time>2022-10-28T09:07:19Z</time>
      </trkpt>
      <trkpt lat="44.61676" lon="5.44954">
        <ele>556.4</ele>
        <time>2022-10-28T09:07:20Z</time>
      </trkpt>
      <trkpt lat="44.61675" lon="5.44958">
        <ele>556.6</ele>
        <time>2022-10-28T09:07:21Z</time>
      </trkpt>
      <trkpt lat="44.61673" lon="5.44962">
        <ele>556.8</ele>
        <time>2022-10-28T09:07:22Z</time>
      </trkpt>
      <trkpt lat="44.61673" lon="5.44964">
        <ele>556.8</ele>
        <time>2022-10-28T09:07:23Z</time>
      </trkpt>
      <trkpt lat="44.6167" lon="5.44968">
        <ele>557</ele>
        <time>2022-10-28T09:07:24Z</time>
      </trkpt>
      <trkpt lat="44.6167" lon="5.4497">
        <ele>557.1</ele>
        <time>2022-10-28T09:07:25Z</time>
      </trkpt>
      <trkpt lat="44.61668" lon="5.44974">
        <ele>557.3</ele>
        <time>2022-10-28T09:07:26Z</time>
      </trkpt>
      <trkpt lat="44.61667" lon="5.44976">
        <ele>557.3</ele>
        <time>2022-10-28T09:07:27Z</time>
      </trkpt>
      <trkpt lat="44.61665" lon="5.4498">
        <ele>557.5</ele>
        <time>2022-10-28T09:07:28Z</time>
      </trkpt>
      <trkpt lat="44.61664" lon="5.44984">
        <ele>557.6</ele>
        <time>2022-10-28T09:07:30Z</time>
      </trkpt>
      <trkpt lat="44.61662" lon="5.44988">
        <ele>557.8</ele>
        <time>2022-10-28T09:07:31Z</time>
      </trkpt>
      <trkpt lat="44.6166" lon="5.44992">
        <ele>558</ele>
        <time>2022-10-28T09:07:32Z</time>
      </trkpt>
      <trkpt lat="44.61659" lon="5.44995">
        <ele>558.1</ele>
        <time>2022-10-28T09:07:33Z</time>
      </trkpt>
      <trkpt lat="44.61657" lon="5.45001">
        <ele>558.3</ele>
        <time>2022-10-28T09:07:35Z</time>
      </trkpt>
      <trkpt lat="44.61655" lon="5.45005">
        <ele>558.5</ele>
        <time>2022-10-28T09:07:36Z</time>
      </trkpt>
      <trkpt lat="44.61654" lon="5.45008">
        <ele>558.6</ele>
        <time>2022-10-28T09:07:37Z</time>
      </trkpt>
      <trkpt lat="44.61652" lon="5.45011">
        <ele>558.8</ele>
        <time>2022-10-28T09:07:39Z</time>
      </trkpt>
      <trkpt lat="44.6165" lon="5.45016">
        <ele>559</ele>
        <time>2022-10-28T09:07:40Z</time>
      </trkpt>
      <trkpt lat="44.61649" lon="5.45018">
        <ele>559.1</ele>
        <time>2022-10-28T09:07:41Z</time>
      </trkpt>
      <trkpt lat="44.61646" lon="5.45025">
        <ele>559.4</ele>
        <time>2022-10-28T09:07:43Z</time>
      </trkpt>
      <trkpt lat="44.61644" lon="5.45029">
        <ele>559.6</ele>
        <time>2022-10-28T09:07:44Z</time>
      </trkpt>
      <trkpt lat="44.61642" lon="5.45031">
        <ele>559.7</ele>
        <time>2022-10-28T09:07:45Z</time>
      </trkpt>
      <trkpt lat="44.6164" lon="5.45037">
        <ele>559.9</ele>
        <time>2022-10-28T09:07:47Z</time>
      </trkpt>
      <trkpt lat="44.61639" lon="5.45041">
        <ele>560.1</ele>
        <time>2022-10-28T09:07:48Z</time>
      </trkpt>
      <trkpt lat="44.61637" lon="5.45045">
        <ele>560.3</ele>
        <time>2022-10-28T09:07:49Z</time>
      </trkpt>
      <trkpt lat="44.61636" lon="5.45047">
        <ele>560.4</ele>
        <time>2022-10-28T09:07:50Z</time>
      </trkpt>
      <trkpt lat="44.61635" lon="5.45051">
        <ele>560.5</ele>
        <time>2022-10-28T09:07:51Z</time>
      </trkpt>
      <trkpt lat="44.61634" lon="5.45053">
        <ele>560.6</ele>
        <time>2022-10-28T09:07:52Z</time>
      </trkpt>
      <trkpt lat="44.61632" lon="5.45057">
        <ele>560.8</ele>
        <time>2022-10-28T09:07:54Z</time>
      </trkpt>
      <trkpt lat="44.61631" lon="5.45061">
        <ele>561</ele>
        <time>2022-10-28T09:07:55Z</time>
      </trkpt>
      <trkpt lat="44.61629" lon="5.45067">
        <ele>561.2</ele>
        <time>2022-10-28T09:07:56Z</time>
      </trkpt>
      <trkpt lat="44.61627" lon="5.45071">
        <ele>561.4</ele>
        <time>2022-10-28T09:07:57Z</time>
      </trkpt>
      <trkpt lat="44.61627" lon="5.45072">
        <ele>561.5</ele>
        <time>2022-10-28T09:07:58Z</time>
      </trkpt>
      <trkpt lat="44.61625" lon="5.45076">
        <ele>561.6</ele>
        <time>2022-10-28T09:07:59Z</time>
      </trkpt>
      <trkpt lat="44.61623" lon="5.45081">
        <ele>561.8</ele>
        <time>2022-10-28T09:08:00Z</time>
      </trkpt>
      <trkpt lat="44.61622" lon="5.45083">
        <ele>561.9</ele>
        <time>2022-10-28T09:08:01Z</time>
      </trkpt>
      <trkpt lat="44.61621" lon="5.45087">
        <ele>562</ele>
        <time>2022-10-28T09:08:02Z</time>
      </trkpt>
      <trkpt lat="44.61619" lon="5.45091">
        <ele>562.2</ele>
        <time>2022-10-28T09:08:03Z</time>
      </trkpt>
      <trkpt lat="44.61618" lon="5.45095">
        <ele>562.4</ele>
        <time>2022-10-28T09:08:04Z</time>
      </trkpt>
      <trkpt lat="44.61617" lon="5.45096">
        <ele>562.4</ele>
        <time>2022-10-28T09:08:05Z</time>
      </trkpt>
      <trkpt lat="44.61616" lon="5.451">
        <ele>562.5</ele>
        <time>2022-10-28T09:08:06Z</time>
      </trkpt>
      <trkpt lat="44.61614" lon="5.45105">
        <ele>562.6</ele>
        <time>2022-10-28T09:08:08Z</time>
      </trkpt>
      <trkpt lat="44.61612" lon="5.4511">
        <ele>562.7</ele>
        <time>2022-10-28T09:08:09Z</time>
      </trkpt>
      <trkpt lat="44.61609" lon="5.45114">
        <ele>562.8</ele>
        <time>2022-10-28T09:08:10Z</time>
      </trkpt>
      <trkpt lat="44.61606" lon="5.4512">
        <ele>562.9</ele>
        <time>2022-10-28T09:08:12Z</time>
      </trkpt>
      <trkpt lat="44.61604" lon="5.45123">
        <ele>563</ele>
        <time>2022-10-28T09:08:13Z</time>
      </trkpt>
      <trkpt lat="44.61602" lon="5.45126">
        <ele>563.1</ele>
        <time>2022-10-28T09:08:14Z</time>
      </trkpt>
      <trkpt lat="44.616" lon="5.45129">
        <ele>563.1</ele>
        <time>2022-10-28T09:08:15Z</time>
      </trkpt>
      <trkpt lat="44.61597" lon="5.45133">
        <ele>563.2</ele>
        <time>2022-10-28T09:08:16Z</time>
      </trkpt>
      <trkpt lat="44.61594" lon="5.45138">
        <ele>563.3</ele>
        <time>2022-10-28T09:08:17Z</time>
      </trkpt>
      <trkpt lat="44.61593" lon="5.45139">
        <ele>563.4</ele>
        <time>2022-10-28T09:08:18Z</time>
      </trkpt>
      <trkpt lat="44.6159" lon="5.45143">
        <ele>563.5</ele>
        <time>2022-10-28T09:08:19Z</time>
      </trkpt>
      <trkpt lat="44.61587" lon="5.45147">
        <ele>563.6</ele>
        <time>2022-10-28T09:08:20Z</time>
      </trkpt>
      <trkpt lat="44.61584" lon="5.45151">
        <ele>563.7</ele>
        <time>2022-10-28T09:08:21Z</time>
      </trkpt>
      <trkpt lat="44.61583" lon="5.45152">
        <ele>563.8</ele>
        <time>2022-10-28T09:08:22Z</time>
      </trkpt>
      <trkpt lat="44.61582" lon="5.45154">
        <ele>563.8</ele>
        <time>2022-10-28T09:08:23Z</time>
      </trkpt>
      <trkpt lat="44.61581" lon="5.45155">
        <ele>563.9</ele>
        <time>2022-10-28T09:08:24Z</time>
      </trkpt>
      <trkpt lat="44.61578" lon="5.45158">
        <ele>564</ele>
        <time>2022-10-28T09:08:25Z</time>
      </trkpt>
      <trkpt lat="44.61575" lon="5.45161">
        <ele>564</ele>
        <time>2022-10-28T09:08:26Z</time>
      </trkpt>
      <trkpt lat="44.61572" lon="5.45164">
        <ele>564.2</ele>
        <time>2022-10-28T09:08:27Z</time>
      </trkpt>
      <trkpt lat="44.61568" lon="5.45169">
        <ele>564.3</ele>
        <time>2022-10-28T09:08:29Z</time>
      </trkpt>
      <trkpt lat="44.61565" lon="5.45172">
        <ele>564.4</ele>
        <time>2022-10-28T09:08:30Z</time>
      </trkpt>
      <trkpt lat="44.61562" lon="5.45175">
        <ele>564.5</ele>
        <time>2022-10-28T09:08:31Z</time>
      </trkpt>
      <trkpt lat="44.6156" lon="5.45179">
        <ele>564.6</ele>
        <time>2022-10-28T09:08:33Z</time>
      </trkpt>
      <trkpt lat="44.61556" lon="5.45184">
        <ele>564.8</ele>
        <time>2022-10-28T09:08:34Z</time>
      </trkpt>
      <trkpt lat="44.61553" lon="5.45186">
        <ele>564.9</ele>
        <time>2022-10-28T09:08:35Z</time>
      </trkpt>
      <trkpt lat="44.6155" lon="5.45189">
        <ele>565</ele>
        <time>2022-10-28T09:08:36Z</time>
      </trkpt>
      <trkpt lat="44.61549" lon="5.45191">
        <ele>565.1</ele>
        <time>2022-10-28T09:08:37Z</time>
      </trkpt>
      <trkpt lat="44.61545" lon="5.45196">
        <ele>565.2</ele>
        <time>2022-10-28T09:08:39Z</time>
      </trkpt>
      <trkpt lat="44.61542" lon="5.452">
        <ele>565.4</ele>
        <time>2022-10-28T09:08:40Z</time>
      </trkpt>
      <trkpt lat="44.61539" lon="5.45203">
        <ele>565.6</ele>
        <time>2022-10-28T09:08:41Z</time>
      </trkpt>
      <trkpt lat="44.61537" lon="5.45206">
        <ele>565.8</ele>
        <time>2022-10-28T09:08:42Z</time>
      </trkpt>
      <trkpt lat="44.61535" lon="5.4521">
        <ele>566</ele>
        <time>2022-10-28T09:08:43Z</time>
      </trkpt>
      <trkpt lat="44.61534" lon="5.45211">
        <ele>566</ele>
        <time>2022-10-28T09:08:44Z</time>
      </trkpt>
      <trkpt lat="44.61532" lon="5.45213">
        <ele>566.2</ele>
        <time>2022-10-28T09:08:45Z</time>
      </trkpt>
      <trkpt lat="44.61529" lon="5.45217">
        <ele>566.4</ele>
        <time>2022-10-28T09:08:46Z</time>
      </trkpt>
      <trkpt lat="44.61526" lon="5.4522">
        <ele>566.6</ele>
        <time>2022-10-28T09:08:47Z</time>
      </trkpt>
      <trkpt lat="44.61523" lon="5.45222">
        <ele>566.7</ele>
        <time>2022-10-28T09:08:48Z</time>
      </trkpt>
      <trkpt lat="44.6152" lon="5.45225">
        <ele>566.8</ele>
        <time>2022-10-28T09:08:49Z</time>
      </trkpt>
      <trkpt lat="44.61519" lon="5.45226">
        <ele>566.8</ele>
        <time>2022-10-28T09:08:50Z</time>
      </trkpt>
      <trkpt lat="44.61518" lon="5.45227">
        <ele>566.9</ele>
        <time>2022-10-28T09:08:51Z</time>
      </trkpt>
      <trkpt lat="44.61517" lon="5.45228">
        <ele>566.9</ele>
        <time>2022-10-28T09:08:52Z</time>
      </trkpt>
      <trkpt lat="44.61516" lon="5.4523">
        <ele>566.9</ele>
        <time>2022-10-28T09:08:53Z</time>
      </trkpt>
      <trkpt lat="44.61517" lon="5.4523">
        <ele>566.9</ele>
        <time>2022-10-28T09:08:54Z</time>
      </trkpt>
      <trkpt lat="44.61517" lon="5.45229">
        <ele>567</ele>
        <time>2022-10-28T09:08:55Z</time>
      </trkpt>
      <trkpt lat="44.61517" lon="5.45229">
        <ele>567</ele>
        <time>2022-10-28T09:08:56Z</time>
      </trkpt>
      <trkpt lat="44.61517" lon="5.45229">
        <ele>567</ele>
        <time>2022-10-28T09:08:57Z</time>
      </trkpt>
      <trkpt lat="44.61517" lon="5.4523">
        <ele>567</ele>
        <time>2022-10-28T09:08:58Z</time>
      </trkpt>
      <trkpt lat="44.61517" lon="5.4523">
        <ele>567</ele>
        <time>2022-10-28T09:08:59Z</time>
      </trkpt>
      <trkpt lat="44.61516" lon="5.4523">
        <ele>567</ele>
        <time>2022-10-28T09:09:00Z</time>
      </trkpt>
      <trkpt lat="44.61516" lon="5.45231">
        <ele>567</ele>
        <time>2022-10-28T09:09:01Z</time>
      </trkpt>
      <trkpt lat="44.61516" lon="5.45232">
        <ele>567</ele>
        <time>2022-10-28T09:09:02Z</time>
      </trkpt>
      <trkpt lat="44.61516" lon="5.45233">
        <ele>567</ele>
        <time>2022-10-28T09:09:03Z</time>
      </trkpt>
      <trkpt lat="44.61515" lon="5.45234">
        <ele>567.1</ele>
        <time>2022-10-28T09:09:04Z</time>
      </trkpt>
      <trkpt lat="44.61514" lon="5.45235">
        <ele>567.1</ele>
        <time>2022-10-28T09:09:05Z</time>
      </trkpt>
      <trkpt lat="44.61512" lon="5.45236">
        <ele>567.2</ele>
        <time>2022-10-28T09:09:06Z</time>
      </trkpt>
      <trkpt lat="44.6151" lon="5.4524">
        <ele>567.2</ele>
        <time>2022-10-28T09:09:08Z</time>
      </trkpt>
      <trkpt lat="44.61508" lon="5.45242">
        <ele>567.3</ele>
        <time>2022-10-28T09:09:09Z</time>
      </trkpt>
      <trkpt lat="44.61506" lon="5.45246">
        <ele>567.4</ele>
        <time>2022-10-28T09:09:11Z</time>
      </trkpt>
      <trkpt lat="44.61504" lon="5.45249">
        <ele>567.4</ele>
        <time>2022-10-28T09:09:12Z</time>
      </trkpt>
      <trkpt lat="44.61503" lon="5.45249">
        <ele>567.4</ele>
        <time>2022-10-28T09:09:13Z</time>
      </trkpt>
      <trkpt lat="44.61501" lon="5.45252">
        <ele>567.5</ele>
        <time>2022-10-28T09:09:14Z</time>
      </trkpt>
      <trkpt lat="44.615" lon="5.45253">
        <ele>567.5</ele>
        <time>2022-10-28T09:09:15Z</time>
      </trkpt>
      <trkpt lat="44.61499" lon="5.45255">
        <ele>567.6</ele>
        <time>2022-10-28T09:09:16Z</time>
      </trkpt>
      <trkpt lat="44.61497" lon="5.45256">
        <ele>567.6</ele>
        <time>2022-10-28T09:09:17Z</time>
      </trkpt>
      <trkpt lat="44.61496" lon="5.45256">
        <ele>567.6</ele>
        <time>2022-10-28T09:09:18Z</time>
      </trkpt>
      <trkpt lat="44.61493" lon="5.45259">
        <ele>567.6</ele>
        <time>2022-10-28T09:09:20Z</time>
      </trkpt>
      <trkpt lat="44.6149" lon="5.4526">
        <ele>567.6</ele>
        <time>2022-10-28T09:09:21Z</time>
      </trkpt>
      <trkpt lat="44.61487" lon="5.45261">
        <ele>567.7</ele>
        <time>2022-10-28T09:09:22Z</time>
      </trkpt>
      <trkpt lat="44.61486" lon="5.45261">
        <ele>567.7</ele>
        <time>2022-10-28T09:09:23Z</time>
      </trkpt>
      <trkpt lat="44.61486" lon="5.45261">
        <ele>567.7</ele>
        <time>2022-10-28T09:09:24Z</time>
      </trkpt>
      <trkpt lat="44.61484" lon="5.45261">
        <ele>567.7</ele>
        <time>2022-10-28T09:09:25Z</time>
      </trkpt>
      <trkpt lat="44.61482" lon="5.45262">
        <ele>567.7</ele>
        <time>2022-10-28T09:09:26Z</time>
      </trkpt>
      <trkpt lat="44.61482" lon="5.45263">
        <ele>567.7</ele>
        <time>2022-10-28T09:09:27Z</time>
      </trkpt>
      <trkpt lat="44.61483" lon="5.45263">
        <ele>567.7</ele>
        <time>2022-10-28T09:09:29Z</time>
      </trkpt>
      <trkpt lat="44.61484" lon="5.45263">
        <ele>567.7</ele>
        <time>2022-10-28T09:09:30Z</time>
      </trkpt>
      <trkpt lat="44.61484" lon="5.45264">
        <ele>567.7</ele>
        <time>2022-10-28T09:09:31Z</time>
      </trkpt>
      <trkpt lat="44.61486" lon="5.45266">
        <ele>567.7</ele>
        <time>2022-10-28T09:09:33Z</time>
      </trkpt>
      <trkpt lat="44.61487" lon="5.45265">
        <ele>567.7</ele>
        <time>2022-10-28T09:09:34Z</time>
      </trkpt>
      <trkpt lat="44.61487" lon="5.45264">
        <ele>567.7</ele>
        <time>2022-10-28T09:09:35Z</time>
      </trkpt>
      <trkpt lat="44.61489" lon="5.45264">
        <ele>567.7</ele>
        <time>2022-10-28T09:09:36Z</time>
      </trkpt>
      <trkpt lat="44.6149" lon="5.45265">
        <ele>567.7</ele>
        <time>2022-10-28T09:09:37Z</time>
      </trkpt>
      <trkpt lat="44.6149" lon="5.45266">
        <ele>567.7</ele>
        <time>2022-10-28T09:09:39Z</time>
      </trkpt>
      <trkpt lat="44.6149" lon="5.45265">
        <ele>567.7</ele>
        <time>2022-10-28T09:09:40Z</time>
      </trkpt>
      <trkpt lat="44.6149" lon="5.45264">
        <ele>567.7</ele>
        <time>2022-10-28T09:09:41Z</time>
      </trkpt>
      <trkpt lat="44.61491" lon="5.45264">
        <ele>567.7</ele>
        <time>2022-10-28T09:09:42Z</time>
      </trkpt>
      <trkpt lat="44.61492" lon="5.45264">
        <ele>567.7</ele>
        <time>2022-10-28T09:09:43Z</time>
      </trkpt>
      <trkpt lat="44.61493" lon="5.45264">
        <ele>567.7</ele>
        <time>2022-10-28T09:09:44Z</time>
      </trkpt>
      <trkpt lat="44.61493" lon="5.45264">
        <ele>567.7</ele>
        <time>2022-10-28T09:09:45Z</time>
      </trkpt>
      <trkpt lat="44.61493" lon="5.45264">
        <ele>567.7</ele>
        <time>2022-10-28T09:09:46Z</time>
      </trkpt>
      <trkpt lat="44.61494" lon="5.45264">
        <ele>567.7</ele>
        <time>2022-10-28T09:09:47Z</time>
      </trkpt>
      <trkpt lat="44.61494" lon="5.45264">
        <ele>567.7</ele>
        <time>2022-10-28T09:09:48Z</time>
      </trkpt>
      <trkpt lat="44.61494" lon="5.45264">
        <ele>567.7</ele>
        <time>2022-10-28T09:09:49Z</time>
      </trkpt>
      <trkpt lat="44.61494" lon="5.45264">
        <ele>567.7</ele>
        <time>2022-10-28T09:09:50Z</time>
      </trkpt>
      <trkpt lat="44.61495" lon="5.45264">
        <ele>567.7</ele>
        <time>2022-10-28T09:09:51Z</time>
      </trkpt>
      <trkpt lat="44.61496" lon="5.45264">
        <ele>567.7</ele>
        <time>2022-10-28T09:09:52Z</time>
      </trkpt>
      <trkpt lat="44.61497" lon="5.45265">
        <ele>567.7</ele>
        <time>2022-10-28T09:09:53Z</time>
      </trkpt>
      <trkpt lat="44.61497" lon="5.45265">
        <ele>567.7</ele>
        <time>2022-10-28T09:09:54Z</time>
      </trkpt>
      <trkpt lat="44.61498" lon="5.45265">
        <ele>567.7</ele>
        <time>2022-10-28T09:09:55Z</time>
      </trkpt>
      <trkpt lat="44.61499" lon="5.45262">
        <ele>567.7</ele>
        <time>2022-10-28T09:09:56Z</time>
      </trkpt>
      <trkpt lat="44.61499" lon="5.45261">
        <ele>567.7</ele>
        <time>2022-10-28T09:09:57Z</time>
      </trkpt>
      <trkpt lat="44.61499" lon="5.45259">
        <ele>567.7</ele>
        <time>2022-10-28T09:09:58Z</time>
      </trkpt>
      <trkpt lat="44.61497" lon="5.45257">
        <ele>567.7</ele>
        <time>2022-10-28T09:09:59Z</time>
      </trkpt>
      <trkpt lat="44.61494" lon="5.45256">
        <ele>567.7</ele>
        <time>2022-10-28T09:10:01Z</time>
      </trkpt>
      <trkpt lat="44.61492" lon="5.45255">
        <ele>567.7</ele>
        <time>2022-10-28T09:10:02Z</time>
      </trkpt>
      <trkpt lat="44.61487" lon="5.45255">
        <ele>567.7</ele>
        <time>2022-10-28T09:10:03Z</time>
      </trkpt>
      <trkpt lat="44.61482" lon="5.45256">
        <ele>567.7</ele>
        <time>2022-10-28T09:10:05Z</time>
      </trkpt>
      <trkpt lat="44.61479" lon="5.45257">
        <ele>567.7</ele>
        <time>2022-10-28T09:10:06Z</time>
      </trkpt>
      <trkpt lat="44.61473" lon="5.4526">
        <ele>567.7</ele>
        <time>2022-10-28T09:10:08Z</time>
      </trkpt>
      <trkpt lat="44.61468" lon="5.45263">
        <ele>567.6</ele>
        <time>2022-10-28T09:10:09Z</time>
      </trkpt>
      <trkpt lat="44.61464" lon="5.45265">
        <ele>567.6</ele>
        <time>2022-10-28T09:10:10Z</time>
      </trkpt>
      <trkpt lat="44.6146" lon="5.45267">
        <ele>567.6</ele>
        <time>2022-10-28T09:10:11Z</time>
      </trkpt>
      <trkpt lat="44.61457" lon="5.45269">
        <ele>567.5</ele>
        <time>2022-10-28T09:10:13Z</time>
      </trkpt>
      <trkpt lat="44.61451" lon="5.45272">
        <ele>567.5</ele>
        <time>2022-10-28T09:10:14Z</time>
      </trkpt>
      <trkpt lat="44.61448" lon="5.45273">
        <ele>567.4</ele>
        <time>2022-10-28T09:10:15Z</time>
      </trkpt>
      <trkpt lat="44.61443" lon="5.45275">
        <ele>567.3</ele>
        <time>2022-10-28T09:10:17Z</time>
      </trkpt>
      <trkpt lat="44.61438" lon="5.45277">
        <ele>567.3</ele>
        <time>2022-10-28T09:10:18Z</time>
      </trkpt>
      <trkpt lat="44.61433" lon="5.45278">
        <ele>567.2</ele>
        <time>2022-10-28T09:10:20Z</time>
      </trkpt>
      <trkpt lat="44.61427" lon="5.45281">
        <ele>567.1</ele>
        <time>2022-10-28T09:10:21Z</time>
      </trkpt>
      <trkpt lat="44.61422" lon="5.45283">
        <ele>567.1</ele>
        <time>2022-10-28T09:10:22Z</time>
      </trkpt>
      <trkpt lat="44.61419" lon="5.45284">
        <ele>567</ele>
        <time>2022-10-28T09:10:23Z</time>
      </trkpt>
      <trkpt lat="44.61415" lon="5.45287">
        <ele>567</ele>
        <time>2022-10-28T09:10:24Z</time>
      </trkpt>
      <trkpt lat="44.61411" lon="5.4529">
        <ele>566.9</ele>
        <time>2022-10-28T09:10:25Z</time>
      </trkpt>
      <trkpt lat="44.61408" lon="5.45292">
        <ele>566.8</ele>
        <time>2022-10-28T09:10:26Z</time>
      </trkpt>
      <trkpt lat="44.61403" lon="5.45293">
        <ele>566.7</ele>
        <time>2022-10-28T09:10:27Z</time>
      </trkpt>
      <trkpt lat="44.61398" lon="5.45294">
        <ele>566.6</ele>
        <time>2022-10-28T09:10:28Z</time>
      </trkpt>
      <trkpt lat="44.61395" lon="5.45294">
        <ele>566.6</ele>
        <time>2022-10-28T09:10:29Z</time>
      </trkpt>
      <trkpt lat="44.61393" lon="5.45294">
        <ele>566.5</ele>
        <time>2022-10-28T09:10:30Z</time>
      </trkpt>
      <trkpt lat="44.61389" lon="5.45294">
        <ele>566.5</ele>
        <time>2022-10-28T09:10:31Z</time>
      </trkpt>
      <trkpt lat="44.61387" lon="5.45294">
        <ele>566.4</ele>
        <time>2022-10-28T09:10:32Z</time>
      </trkpt>
      <trkpt lat="44.61384" lon="5.45296">
        <ele>566.4</ele>
        <time>2022-10-28T09:10:34Z</time>
      </trkpt>
      <trkpt lat="44.61381" lon="5.45297">
        <ele>566.4</ele>
        <time>2022-10-28T09:10:35Z</time>
      </trkpt>
      <trkpt lat="44.61378" lon="5.45301">
        <ele>566.3</ele>
        <time>2022-10-28T09:10:36Z</time>
      </trkpt>
      <trkpt lat="44.61378" lon="5.45303">
        <ele>566.3</ele>
        <time>2022-10-28T09:10:37Z</time>
      </trkpt>
      <trkpt lat="44.61378" lon="5.45305">
        <ele>566.3</ele>
        <time>2022-10-28T09:10:38Z</time>
      </trkpt>
      <trkpt lat="44.61378" lon="5.45305">
        <ele>566.3</ele>
        <time>2022-10-28T09:10:39Z</time>
      </trkpt>
      <trkpt lat="44.61379" lon="5.45305">
        <ele>566.3</ele>
        <time>2022-10-28T09:10:40Z</time>
      </trkpt>
      <trkpt lat="44.61379" lon="5.45304">
        <ele>566.3</ele>
        <time>2022-10-28T09:10:41Z</time>
      </trkpt>
      <trkpt lat="44.61379" lon="5.45304">
        <ele>566.3</ele>
        <time>2022-10-28T09:10:42Z</time>
      </trkpt>
      <trkpt lat="44.61379" lon="5.45304">
        <ele>566.3</ele>
        <time>2022-10-28T09:10:43Z</time>
      </trkpt>
      <trkpt lat="44.6138" lon="5.45305">
        <ele>566.3</ele>
        <time>2022-10-28T09:10:44Z</time>
      </trkpt>
      <trkpt lat="44.61381" lon="5.45307">
        <ele>566.3</ele>
        <time>2022-10-28T09:10:46Z</time>
      </trkpt>
      <trkpt lat="44.61382" lon="5.45307">
        <ele>566.3</ele>
        <time>2022-10-28T09:10:47Z</time>
      </trkpt>
      <trkpt lat="44.61383" lon="5.45307">
        <ele>566.3</ele>
        <time>2022-10-28T09:10:48Z</time>
      </trkpt>
      <trkpt lat="44.61383" lon="5.45306">
        <ele>566.3</ele>
        <time>2022-10-28T09:10:49Z</time>
      </trkpt>
      <trkpt lat="44.61383" lon="5.45306">
        <ele>566.3</ele>
        <time>2022-10-28T09:10:50Z</time>
      </trkpt>
      <trkpt lat="44.61383" lon="5.45305">
        <ele>566.3</ele>
        <time>2022-10-28T09:10:51Z</time>
      </trkpt>
      <trkpt lat="44.61383" lon="5.45305">
        <ele>566.3</ele>
        <time>2022-10-28T09:10:52Z</time>
      </trkpt>
      <trkpt lat="44.61384" lon="5.45305">
        <ele>566.3</ele>
        <time>2022-10-28T09:10:53Z</time>
      </trkpt>
      <trkpt lat="44.61384" lon="5.45305">
        <ele>566.3</ele>
        <time>2022-10-28T09:10:54Z</time>
      </trkpt>
      <trkpt lat="44.61384" lon="5.45305">
        <ele>566.3</ele>
        <time>2022-10-28T09:10:55Z</time>
      </trkpt>
      <trkpt lat="44.61384" lon="5.45304">
        <ele>566.3</ele>
        <time>2022-10-28T09:10:56Z</time>
      </trkpt>
      <trkpt lat="44.61387" lon="5.45306">
        <ele>566.3</ele>
        <time>2022-10-28T09:11:28Z</time>
      </trkpt>
      <trkpt lat="44.61387" lon="5.45306">
        <ele>566.3</ele>
        <time>2022-10-28T09:11:29Z</time>
      </trkpt>
      <trkpt lat="44.61388" lon="5.45307">
        <ele>566.3</ele>
        <time>2022-10-28T09:11:30Z</time>
      </trkpt>
      <trkpt lat="44.61388" lon="5.45307">
        <ele>566.3</ele>
        <time>2022-10-28T09:11:31Z</time>
      </trkpt>
      <trkpt lat="44.61388" lon="5.45307">
        <ele>566.3</ele>
        <time>2022-10-28T09:11:32Z</time>
      </trkpt>
      <trkpt lat="44.61389" lon="5.45306">
        <ele>566.3</ele>
        <time>2022-10-28T09:11:33Z</time>
      </trkpt>
      <trkpt lat="44.61389" lon="5.45306">
        <ele>566.3</ele>
        <time>2022-10-28T09:11:34Z</time>
      </trkpt>
      <trkpt lat="44.61389" lon="5.45306">
        <ele>566.3</ele>
        <time>2022-10-28T09:11:35Z</time>
      </trkpt>
      <trkpt lat="44.61389" lon="5.45306">
        <ele>566.3</ele>
        <time>2022-10-28T09:11:36Z</time>
      </trkpt>
      <trkpt lat="44.61389" lon="5.45306">
        <ele>566.3</ele>
        <time>2022-10-28T09:11:37Z</time>
      </trkpt>
      <trkpt lat="44.61389" lon="5.45306">
        <ele>566.3</ele>
        <time>2022-10-28T09:11:38Z</time>
      </trkpt>
      <trkpt lat="44.61389" lon="5.45306">
        <ele>566.3</ele>
        <time>2022-10-28T09:11:39Z</time>
      </trkpt>
      <trkpt lat="44.61389" lon="5.45306">
        <ele>566.3</ele>
        <time>2022-10-28T09:11:40Z</time>
      </trkpt>
      <trkpt lat="44.61388" lon="5.45302">
        <ele>566.3</ele>
        <time>2022-10-28T09:16:29Z</time>
      </trkpt>
      <trkpt lat="44.61388" lon="5.45302">
        <ele>566.3</ele>
        <time>2022-10-28T09:16:30Z</time>
      </trkpt>
      <trkpt lat="44.61388" lon="5.45302">
        <ele>566.3</ele>
        <time>2022-10-28T09:16:31Z</time>
      </trkpt>
      <trkpt lat="44.61387" lon="5.45302">
        <ele>566.3</ele>
        <time>2022-10-28T09:16:32Z</time>
      </trkpt>
      <trkpt lat="44.61387" lon="5.45302">
        <ele>566.3</ele>
        <time>2022-10-28T09:16:33Z</time>
      </trkpt>
      <trkpt lat="44.61387" lon="5.45302">
        <ele>566.3</ele>
        <time>2022-10-28T09:16:34Z</time>
      </trkpt>
      <trkpt lat="44.61387" lon="5.45302">
        <ele>566.3</ele>
        <time>2022-10-28T09:16:35Z</time>
      </trkpt>
      <trkpt lat="44.61387" lon="5.45302">
        <ele>566.3</ele>
        <time>2022-10-28T09:16:36Z</time>
      </trkpt>
      <trkpt lat="44.61387" lon="5.45302">
        <ele>566.3</ele>
        <time>2022-10-28T09:16:37Z</time>
      </trkpt>
      <trkpt lat="44.61387" lon="5.45302">
        <ele>566.3</ele>
        <time>2022-10-28T09:16:38Z</time>
      </trkpt>
      <trkpt lat="44.61386" lon="5.45302">
        <ele>566.3</ele>
        <time>2022-10-28T09:16:39Z</time>
      </trkpt>
      <trkpt lat="44.61386" lon="5.45302">
        <ele>566.3</ele>
        <time>2022-10-28T09:16:40Z</time>
      </trkpt>
      <trkpt lat="44.61386" lon="5.45302">
        <ele>566.3</ele>
        <time>2022-10-28T09:16:41Z</time>
      </trkpt>
      <trkpt lat="44.61386" lon="5.45302">
        <ele>566.3</ele>
        <time>2022-10-28T09:16:42Z</time>
      </trkpt>
      <trkpt lat="44.61386" lon="5.45302">
        <ele>566.3</ele>
        <time>2022-10-28T09:16:43Z</time>
      </trkpt>
      <trkpt lat="44.61386" lon="5.45302">
        <ele>566.3</ele>
        <time>2022-10-28T09:16:44Z</time>
      </trkpt>
      <trkpt lat="44.61386" lon="5.45302">
        <ele>566.3</ele>
        <time>2022-10-28T09:16:45Z</time>
      </trkpt>
      <trkpt lat="44.61385" lon="5.45302">
        <ele>566.3</ele>
        <time>2022-10-28T09:17:23Z</time>
      </trkpt>
      <trkpt lat="44.61385" lon="5.45302">
        <ele>566.3</ele>
        <time>2022-10-28T09:17:24Z</time>
      </trkpt>
      <trkpt lat="44.61385" lon="5.45302">
        <ele>566.3</ele>
        <time>2022-10-28T09:17:25Z</time>
      </trkpt>
      <trkpt lat="44.61385" lon="5.45302">
        <ele>566.3</ele>
        <time>2022-10-28T09:17:26Z</time>
      </trkpt>
      <trkpt lat="44.61385" lon="5.45302">
        <ele>566.3</ele>
        <time>2022-10-28T09:17:27Z</time>
      </trkpt>
      <trkpt lat="44.61385" lon="5.45302">
        <ele>566.3</ele>
        <time>2022-10-28T09:17:28Z</time>
      </trkpt>
      <trkpt lat="44.61385" lon="5.45302">
        <ele>566.3</ele>
        <time>2022-10-28T09:17:29Z</time>
      </trkpt>
      <trkpt lat="44.61384" lon="5.45302">
        <ele>566.3</ele>
        <time>2022-10-28T09:17:30Z</time>
      </trkpt>
      <trkpt lat="44.61384" lon="5.45302">
        <ele>566.3</ele>
        <time>2022-10-28T09:17:31Z</time>
      </trkpt>
      <trkpt lat="44.61384" lon="5.45301">
        <ele>566.3</ele>
        <time>2022-10-28T09:17:32Z</time>
      </trkpt>
      <trkpt lat="44.61384" lon="5.45301">
        <ele>566.3</ele>
        <time>2022-10-28T09:17:33Z</time>
      </trkpt>
      <trkpt lat="44.61384" lon="5.45301">
        <ele>566.3</ele>
        <time>2022-10-28T09:17:34Z</time>
      </trkpt>
      <trkpt lat="44.61384" lon="5.45301">
        <ele>566.3</ele>
        <time>2022-10-28T09:17:35Z</time>
      </trkpt>
      <trkpt lat="44.61384" lon="5.45301">
        <ele>566.3</ele>
        <time>2022-10-28T09:17:36Z</time>
      </trkpt>
      <trkpt lat="44.61383" lon="5.45301">
        <ele>566.3</ele>
        <time>2022-10-28T09:17:37Z</time>
      </trkpt>
      <trkpt lat="44.61383" lon="5.45301">
        <ele>566.3</ele>
        <time>2022-10-28T09:17:38Z</time>
      </trkpt>
      <trkpt lat="44.61383" lon="5.45301">
        <ele>566.3</ele>
        <time>2022-10-28T09:17:39Z</time>
      </trkpt>
      <trkpt lat="44.61383" lon="5.45301">
        <ele>566.3</ele>
        <time>2022-10-28T09:17:40Z</time>
      </trkpt>
      <trkpt lat="44.61383" lon="5.45301">
        <ele>566.3</ele>
        <time>2022-10-28T09:17:41Z</time>
      </trkpt>
      <trkpt lat="44.61383" lon="5.45301">
        <ele>566.3</ele>
        <time>2022-10-28T09:17:42Z</time>
      </trkpt>
      <trkpt lat="44.61383" lon="5.45301">
        <ele>566.3</ele>
        <time>2022-10-28T09:17:43Z</time>
      </trkpt>
      <trkpt lat="44.61382" lon="5.45301">
        <ele>566.3</ele>
        <time>2022-10-28T09:17:44Z</time>
      </trkpt>
      <trkpt lat="44.61382" lon="5.45301">
        <ele>566.3</ele>
        <time>2022-10-28T09:17:45Z</time>
      </trkpt>
      <trkpt lat="44.61382" lon="5.45301">
        <ele>566.3</ele>
        <time>2022-10-28T09:20:25Z</time>
      </trkpt>
      <trkpt lat="44.61382" lon="5.45301">
        <ele>566.3</ele>
        <time>2022-10-28T09:20:26Z</time>
      </trkpt>
      <trkpt lat="44.61382" lon="5.45301">
        <ele>566.3</ele>
        <time>2022-10-28T09:20:27Z</time>
      </trkpt>
      <trkpt lat="44.61382" lon="5.45301">
        <ele>566.3</ele>
        <time>2022-10-28T09:20:28Z</time>
      </trkpt>
      <trkpt lat="44.61382" lon="5.45301">
        <ele>566.3</ele>
        <time>2022-10-28T09:20:29Z</time>
      </trkpt>
      <trkpt lat="44.61381" lon="5.45301">
        <ele>566.3</ele>
        <time>2022-10-28T09:20:30Z</time>
      </trkpt>
      <trkpt lat="44.61381" lon="5.45301">
        <ele>566.3</ele>
        <time>2022-10-28T09:20:31Z</time>
      </trkpt>
      <trkpt lat="44.61381" lon="5.45301">
        <ele>566.3</ele>
        <time>2022-10-28T09:20:32Z</time>
      </trkpt>
      <trkpt lat="44.61381" lon="5.45301">
        <ele>566.3</ele>
        <time>2022-10-28T09:20:33Z</time>
      </trkpt>
      <trkpt lat="44.61381" lon="5.45301">
        <ele>566.3</ele>
        <time>2022-10-28T09:20:34Z</time>
      </trkpt>
      <trkpt lat="44.61381" lon="5.45301">
        <ele>566.2</ele>
        <time>2022-10-28T09:20:35Z</time>
      </trkpt>
      <trkpt lat="44.61381" lon="5.45301">
        <ele>566.2</ele>
        <time>2022-10-28T09:20:36Z</time>
      </trkpt>
      <trkpt lat="44.6138" lon="5.45301">
        <ele>566.2</ele>
        <time>2022-10-28T09:20:37Z</time>
      </trkpt>
      <trkpt lat="44.6138" lon="5.45301">
        <ele>566.2</ele>
        <time>2022-10-28T09:20:38Z</time>
      </trkpt>
      <trkpt lat="44.6138" lon="5.45301">
        <ele>566.2</ele>
        <time>2022-10-28T09:29:37Z</time>
      </trkpt>
      <trkpt lat="44.6138" lon="5.45301">
        <ele>566.2</ele>
        <time>2022-10-28T09:29:38Z</time>
      </trkpt>
      <trkpt lat="44.6138" lon="5.453">
        <ele>566.2</ele>
        <time>2022-10-28T09:29:39Z</time>
      </trkpt>
      <trkpt lat="44.6138" lon="5.453">
        <ele>566.2</ele>
        <time>2022-10-28T09:29:40Z</time>
      </trkpt>
      <trkpt lat="44.6138" lon="5.453">
        <ele>566.2</ele>
        <time>2022-10-28T09:29:41Z</time>
      </trkpt>
      <trkpt lat="44.61379" lon="5.453">
        <ele>566.2</ele>
        <time>2022-10-28T09:29:42Z</time>
      </trkpt>
      <trkpt lat="44.61379" lon="5.453">
        <ele>566.2</ele>
        <time>2022-10-28T09:29:43Z</time>
      </trkpt>
      <trkpt lat="44.61379" lon="5.453">
        <ele>566.2</ele>
        <time>2022-10-28T09:29:44Z</time>
      </trkpt>
      <trkpt lat="44.61379" lon="5.453">
        <ele>566.2</ele>
        <time>2022-10-28T09:29:45Z</time>
      </trkpt>
      <trkpt lat="44.61379" lon="5.453">
        <ele>566.2</ele>
        <time>2022-10-28T09:29:46Z</time>
      </trkpt>
      <trkpt lat="44.61379" lon="5.453">
        <ele>566.2</ele>
        <time>2022-10-28T09:29:47Z</time>
      </trkpt>
      <trkpt lat="44.61379" lon="5.453">
        <ele>566.2</ele>
        <time>2022-10-28T09:29:48Z</time>
      </trkpt>
      <trkpt lat="44.61379" lon="5.453">
        <ele>566.2</ele>
        <time>2022-10-28T09:29:49Z</time>
      </trkpt>
      <trkpt lat="44.61378" lon="5.453">
        <ele>566.2</ele>
        <time>2022-10-28T09:30:41Z</time>
      </trkpt>
      <trkpt lat="44.61378" lon="5.453">
        <ele>566.2</ele>
        <time>2022-10-28T09:30:42Z</time>
      </trkpt>
      <trkpt lat="44.61378" lon="5.453">
        <ele>566.2</ele>
        <time>2022-10-28T09:30:43Z</time>
      </trkpt>
      <trkpt lat="44.61378" lon="5.453">
        <ele>566.2</ele>
        <time>2022-10-28T09:30:44Z</time>
      </trkpt>
      <trkpt lat="44.61378" lon="5.453">
        <ele>566.2</ele>
        <time>2022-10-28T09:30:45Z</time>
      </trkpt>
      <trkpt lat="44.61378" lon="5.453">
        <ele>566.2</ele>
        <time>2022-10-28T09:30:46Z</time>
      </trkpt>
      <trkpt lat="44.61378" lon="5.453">
        <ele>566.2</ele>
        <time>2022-10-28T09:30:47Z</time>
      </trkpt>
      <trkpt lat="44.61374" lon="5.453">
        <ele>566.1</ele>
        <time>2022-10-28T09:30:48Z</time>
      </trkpt>
      <trkpt lat="44.61367" lon="5.453">
        <ele>565.9</ele>
        <time>2022-10-28T09:30:50Z</time>
      </trkpt>
      <trkpt lat="44.6136" lon="5.453">
        <ele>565.8</ele>
        <time>2022-10-28T09:30:51Z</time>
      </trkpt>
      <trkpt lat="44.61355" lon="5.453">
        <ele>565.7</ele>
        <time>2022-10-28T09:30:53Z</time>
      </trkpt>
      <trkpt lat="44.61349" lon="5.45301">
        <ele>565.5</ele>
        <time>2022-10-28T09:30:54Z</time>
      </trkpt>
      <trkpt lat="44.61345" lon="5.45301">
        <ele>565.4</ele>
        <time>2022-10-28T09:30:55Z</time>
      </trkpt>
      <trkpt lat="44.61339" lon="5.453">
        <ele>565.3</ele>
        <time>2022-10-28T09:30:56Z</time>
      </trkpt>
      <trkpt lat="44.61334" lon="5.453">
        <ele>565.2</ele>
        <time>2022-10-28T09:30:57Z</time>
      </trkpt>
      <trkpt lat="44.61331" lon="5.45301">
        <ele>565.1</ele>
        <time>2022-10-28T09:30:58Z</time>
      </trkpt>
      <trkpt lat="44.61326" lon="5.45301">
        <ele>564.9</ele>
        <time>2022-10-28T09:30:59Z</time>
      </trkpt>
      <trkpt lat="44.61321" lon="5.45301">
        <ele>564.8</ele>
        <time>2022-10-28T09:31:00Z</time>
      </trkpt>
      <trkpt lat="44.61315" lon="5.45301">
        <ele>564.6</ele>
        <time>2022-10-28T09:31:01Z</time>
      </trkpt>
      <trkpt lat="44.6131" lon="5.45301">
        <ele>564.5</ele>
        <time>2022-10-28T09:31:02Z</time>
      </trkpt>
      <trkpt lat="44.61305" lon="5.45301">
        <ele>564.4</ele>
        <time>2022-10-28T09:31:03Z</time>
      </trkpt>
      <trkpt lat="44.613" lon="5.45301">
        <ele>564.3</ele>
        <time>2022-10-28T09:31:04Z</time>
      </trkpt>
      <trkpt lat="44.61294" lon="5.453">
        <ele>564.2</ele>
        <time>2022-10-28T09:31:05Z</time>
      </trkpt>
      <trkpt lat="44.61289" lon="5.453">
        <ele>564.1</ele>
        <time>2022-10-28T09:31:06Z</time>
      </trkpt>
      <trkpt lat="44.61283" lon="5.45299">
        <ele>564</ele>
        <time>2022-10-28T09:31:07Z</time>
      </trkpt>
      <trkpt lat="44.61277" lon="5.45299">
        <ele>563.9</ele>
        <time>2022-10-28T09:31:08Z</time>
      </trkpt>
      <trkpt lat="44.61271" lon="5.45298">
        <ele>563.8</ele>
        <time>2022-10-28T09:31:09Z</time>
      </trkpt>
      <trkpt lat="44.61265" lon="5.45298">
        <ele>563.8</ele>
        <time>2022-10-28T09:31:10Z</time>
      </trkpt>
      <trkpt lat="44.61259" lon="5.45296">
        <ele>563.7</ele>
        <time>2022-10-28T09:31:11Z</time>
      </trkpt>
      <trkpt lat="44.61253" lon="5.45295">
        <ele>563.6</ele>
        <time>2022-10-28T09:31:12Z</time>
      </trkpt>
      <trkpt lat="44.61247" lon="5.45294">
        <ele>563.5</ele>
        <time>2022-10-28T09:31:13Z</time>
      </trkpt>
      <trkpt lat="44.61242" lon="5.45292">
        <ele>563.5</ele>
        <time>2022-10-28T09:31:14Z</time>
      </trkpt>
      <trkpt lat="44.61236" lon="5.4529">
        <ele>563.4</ele>
        <time>2022-10-28T09:31:15Z</time>
      </trkpt>
      <trkpt lat="44.61231" lon="5.45289">
        <ele>563.3</ele>
        <time>2022-10-28T09:31:16Z</time>
      </trkpt>
      <trkpt lat="44.61225" lon="5.45287">
        <ele>563.2</ele>
        <time>2022-10-28T09:31:17Z</time>
      </trkpt>
      <trkpt lat="44.61219" lon="5.45286">
        <ele>563.2</ele>
        <time>2022-10-28T09:31:18Z</time>
      </trkpt>
      <trkpt lat="44.61214" lon="5.45284">
        <ele>563.1</ele>
        <time>2022-10-28T09:31:19Z</time>
      </trkpt>
      <trkpt lat="44.61208" lon="5.45282">
        <ele>563</ele>
        <time>2022-10-28T09:31:20Z</time>
      </trkpt>
      <trkpt lat="44.61203" lon="5.45281">
        <ele>563</ele>
        <time>2022-10-28T09:31:21Z</time>
      </trkpt>
      <trkpt lat="44.61197" lon="5.45279">
        <ele>562.9</ele>
        <time>2022-10-28T09:31:22Z</time>
      </trkpt>
      <trkpt lat="44.61192" lon="5.45277">
        <ele>562.8</ele>
        <time>2022-10-28T09:31:23Z</time>
      </trkpt>
      <trkpt lat="44.61186" lon="5.45276">
        <ele>562.7</ele>
        <time>2022-10-28T09:31:24Z</time>
      </trkpt>
      <trkpt lat="44.6118" lon="5.45274">
        <ele>562.6</ele>
        <time>2022-10-28T09:31:25Z</time>
      </trkpt>
      <trkpt lat="44.61174" lon="5.45272">
        <ele>562.5</ele>
        <time>2022-10-28T09:31:26Z</time>
      </trkpt>
      <trkpt lat="44.61169" lon="5.4527">
        <ele>562.4</ele>
        <time>2022-10-28T09:31:27Z</time>
      </trkpt>
      <trkpt lat="44.61164" lon="5.45268">
        <ele>562.4</ele>
        <time>2022-10-28T09:31:28Z</time>
      </trkpt>
      <trkpt lat="44.61158" lon="5.45266">
        <ele>562.3</ele>
        <time>2022-10-28T09:31:29Z</time>
      </trkpt>
      <trkpt lat="44.61153" lon="5.45264">
        <ele>562.3</ele>
        <time>2022-10-28T09:31:30Z</time>
      </trkpt>
      <trkpt lat="44.61147" lon="5.45262">
        <ele>562.2</ele>
        <time>2022-10-28T09:31:31Z</time>
      </trkpt>
      <trkpt lat="44.61141" lon="5.45258">
        <ele>562.2</ele>
        <time>2022-10-28T09:31:32Z</time>
      </trkpt>
      <trkpt lat="44.61137" lon="5.45256">
        <ele>562.1</ele>
        <time>2022-10-28T09:31:33Z</time>
      </trkpt>
      <trkpt lat="44.61132" lon="5.45253">
        <ele>562.1</ele>
        <time>2022-10-28T09:31:34Z</time>
      </trkpt>
      <trkpt lat="44.61127" lon="5.4525">
        <ele>562.1</ele>
        <time>2022-10-28T09:31:35Z</time>
      </trkpt>
      <trkpt lat="44.61122" lon="5.45246">
        <ele>562.1</ele>
        <time>2022-10-28T09:31:36Z</time>
      </trkpt>
      <trkpt lat="44.61117" lon="5.45243">
        <ele>562.1</ele>
        <time>2022-10-28T09:31:37Z</time>
      </trkpt>
      <trkpt lat="44.61112" lon="5.45239">
        <ele>562.1</ele>
        <time>2022-10-28T09:31:38Z</time>
      </trkpt>
      <trkpt lat="44.61107" lon="5.45236">
        <ele>562.1</ele>
        <time>2022-10-28T09:31:39Z</time>
      </trkpt>
      <trkpt lat="44.61102" lon="5.45233">
        <ele>562.1</ele>
        <time>2022-10-28T09:31:40Z</time>
      </trkpt>
      <trkpt lat="44.61097" lon="5.45231">
        <ele>562.1</ele>
        <time>2022-10-28T09:31:41Z</time>
      </trkpt>
      <trkpt lat="44.61092" lon="5.45228">
        <ele>562.1</ele>
        <time>2022-10-28T09:31:42Z</time>
      </trkpt>
      <trkpt lat="44.61087" lon="5.45225">
        <ele>562.1</ele>
        <time>2022-10-28T09:31:43Z</time>
      </trkpt>
      <trkpt lat="44.61082" lon="5.45223">
        <ele>562.1</ele>
        <time>2022-10-28T09:31:44Z</time>
      </trkpt>
      <trkpt lat="44.61077" lon="5.45222">
        <ele>562.1</ele>
        <time>2022-10-28T09:31:45Z</time>
      </trkpt>
      <trkpt lat="44.61072" lon="5.45222">
        <ele>562.2</ele>
        <time>2022-10-28T09:31:46Z</time>
      </trkpt>
      <trkpt lat="44.61067" lon="5.45221">
        <ele>562.2</ele>
        <time>2022-10-28T09:31:47Z</time>
      </trkpt>
      <trkpt lat="44.61062" lon="5.4522">
        <ele>562.2</ele>
        <time>2022-10-28T09:31:48Z</time>
      </trkpt>
      <trkpt lat="44.61057" lon="5.45219">
        <ele>562.2</ele>
        <time>2022-10-28T09:31:49Z</time>
      </trkpt>
      <trkpt lat="44.61052" lon="5.45219">
        <ele>562.2</ele>
        <time>2022-10-28T09:31:50Z</time>
      </trkpt>
      <trkpt lat="44.61047" lon="5.45218">
        <ele>562.2</ele>
        <time>2022-10-28T09:31:51Z</time>
      </trkpt>
      <trkpt lat="44.61042" lon="5.45218">
        <ele>562.3</ele>
        <time>2022-10-28T09:31:52Z</time>
      </trkpt>
      <trkpt lat="44.61037" lon="5.45218">
        <ele>562.3</ele>
        <time>2022-10-28T09:31:53Z</time>
      </trkpt>
      <trkpt lat="44.61032" lon="5.45219">
        <ele>562.3</ele>
        <time>2022-10-28T09:31:54Z</time>
      </trkpt>
      <trkpt lat="44.61027" lon="5.4522">
        <ele>562.3</ele>
        <time>2022-10-28T09:31:55Z</time>
      </trkpt>
      <trkpt lat="44.61023" lon="5.45221">
        <ele>562.4</ele>
        <time>2022-10-28T09:31:56Z</time>
      </trkpt>
      <trkpt lat="44.61018" lon="5.45224">
        <ele>562.4</ele>
        <time>2022-10-28T09:31:57Z</time>
      </trkpt>
      <trkpt lat="44.61013" lon="5.45226">
        <ele>562.5</ele>
        <time>2022-10-28T09:31:58Z</time>
      </trkpt>
      <trkpt lat="44.61008" lon="5.45229">
        <ele>562.5</ele>
        <time>2022-10-28T09:31:59Z</time>
      </trkpt>
      <trkpt lat="44.61004" lon="5.45232">
        <ele>562.5</ele>
        <time>2022-10-28T09:32:00Z</time>
      </trkpt>
      <trkpt lat="44.61001" lon="5.45235">
        <ele>562.5</ele>
        <time>2022-10-28T09:32:01Z</time>
      </trkpt>
      <trkpt lat="44.60999" lon="5.45238">
        <ele>562.6</ele>
        <time>2022-10-28T09:32:02Z</time>
      </trkpt>
      <trkpt lat="44.60994" lon="5.45243">
        <ele>562.6</ele>
        <time>2022-10-28T09:32:03Z</time>
      </trkpt>
      <trkpt lat="44.6099" lon="5.45248">
        <ele>562.6</ele>
        <time>2022-10-28T09:32:04Z</time>
      </trkpt>
      <trkpt lat="44.60988" lon="5.45253">
        <ele>562.6</ele>
        <time>2022-10-28T09:32:05Z</time>
      </trkpt>
      <trkpt lat="44.60985" lon="5.45258">
        <ele>562.6</ele>
        <time>2022-10-28T09:32:06Z</time>
      </trkpt>
      <trkpt lat="44.60983" lon="5.45264">
        <ele>562.7</ele>
        <time>2022-10-28T09:32:07Z</time>
      </trkpt>
      <trkpt lat="44.6098" lon="5.45269">
        <ele>562.7</ele>
        <time>2022-10-28T09:32:08Z</time>
      </trkpt>
      <trkpt lat="44.60978" lon="5.45272">
        <ele>562.7</ele>
        <time>2022-10-28T09:32:09Z</time>
      </trkpt>
      <trkpt lat="44.60975" lon="5.4528">
        <ele>562.7</ele>
        <time>2022-10-28T09:32:10Z</time>
      </trkpt>
      <trkpt lat="44.60972" lon="5.45288">
        <ele>562.7</ele>
        <time>2022-10-28T09:32:12Z</time>
      </trkpt>
      <trkpt lat="44.60968" lon="5.45301">
        <ele>562.8</ele>
        <time>2022-10-28T09:32:13Z</time>
      </trkpt>
      <trkpt lat="44.60966" lon="5.45307">
        <ele>562.8</ele>
        <time>2022-10-28T09:32:14Z</time>
      </trkpt>
      <trkpt lat="44.60963" lon="5.45312">
        <ele>562.9</ele>
        <time>2022-10-28T09:32:15Z</time>
      </trkpt>
      <trkpt lat="44.6096" lon="5.45318">
        <ele>562.9</ele>
        <time>2022-10-28T09:32:16Z</time>
      </trkpt>
      <trkpt lat="44.60957" lon="5.45323">
        <ele>563</ele>
        <time>2022-10-28T09:32:17Z</time>
      </trkpt>
      <trkpt lat="44.60954" lon="5.45327">
        <ele>563</ele>
        <time>2022-10-28T09:32:18Z</time>
      </trkpt>
      <trkpt lat="44.60951" lon="5.45332">
        <ele>563.1</ele>
        <time>2022-10-28T09:32:19Z</time>
      </trkpt>
      <trkpt lat="44.60948" lon="5.45337">
        <ele>563.1</ele>
        <time>2022-10-28T09:32:20Z</time>
      </trkpt>
      <trkpt lat="44.60944" lon="5.45341">
        <ele>563.2</ele>
        <time>2022-10-28T09:32:21Z</time>
      </trkpt>
      <trkpt lat="44.6094" lon="5.45345">
        <ele>563.2</ele>
        <time>2022-10-28T09:32:22Z</time>
      </trkpt>
      <trkpt lat="44.60936" lon="5.45349">
        <ele>563.3</ele>
        <time>2022-10-28T09:32:23Z</time>
      </trkpt>
      <trkpt lat="44.60932" lon="5.45352">
        <ele>563.4</ele>
        <time>2022-10-28T09:32:24Z</time>
      </trkpt>
      <trkpt lat="44.60929" lon="5.45353">
        <ele>563.4</ele>
        <time>2022-10-28T09:32:25Z</time>
      </trkpt>
      <trkpt lat="44.60925" lon="5.45356">
        <ele>563.5</ele>
        <time>2022-10-28T09:32:26Z</time>
      </trkpt>
      <trkpt lat="44.60921" lon="5.45358">
        <ele>563.6</ele>
        <time>2022-10-28T09:32:27Z</time>
      </trkpt>
      <trkpt lat="44.60919" lon="5.4536">
        <ele>563.6</ele>
        <time>2022-10-28T09:32:28Z</time>
      </trkpt>
      <trkpt lat="44.60915" lon="5.45362">
        <ele>563.7</ele>
        <time>2022-10-28T09:32:29Z</time>
      </trkpt>
      <trkpt lat="44.60911" lon="5.45365">
        <ele>563.8</ele>
        <time>2022-10-28T09:32:30Z</time>
      </trkpt>
      <trkpt lat="44.60908" lon="5.45365">
        <ele>563.8</ele>
        <time>2022-10-28T09:32:31Z</time>
      </trkpt>
      <trkpt lat="44.60902" lon="5.45371">
        <ele>564</ele>
        <time>2022-10-28T09:32:33Z</time>
      </trkpt>
      <trkpt lat="44.60897" lon="5.45375">
        <ele>564.1</ele>
        <time>2022-10-28T09:32:34Z</time>
      </trkpt>
      <trkpt lat="44.60893" lon="5.45377">
        <ele>564.2</ele>
        <time>2022-10-28T09:32:35Z</time>
      </trkpt>
      <trkpt lat="44.60889" lon="5.4538">
        <ele>564.3</ele>
        <time>2022-10-28T09:32:36Z</time>
      </trkpt>
      <trkpt lat="44.60884" lon="5.4538">
        <ele>564.5</ele>
        <time>2022-10-28T09:32:37Z</time>
      </trkpt>
      <trkpt lat="44.60879" lon="5.45382">
        <ele>564.6</ele>
        <time>2022-10-28T09:32:39Z</time>
      </trkpt>
      <trkpt lat="44.60874" lon="5.45384">
        <ele>564.7</ele>
        <time>2022-10-28T09:32:40Z</time>
      </trkpt>
      <trkpt lat="44.60868" lon="5.45382">
        <ele>564.9</ele>
        <time>2022-10-28T09:32:41Z</time>
      </trkpt>
      <trkpt lat="44.60863" lon="5.45383">
        <ele>565</ele>
        <time>2022-10-28T09:32:43Z</time>
      </trkpt>
      <trkpt lat="44.60857" lon="5.45383">
        <ele>565.2</ele>
        <time>2022-10-28T09:32:44Z</time>
      </trkpt>
      <trkpt lat="44.60853" lon="5.45382">
        <ele>565.3</ele>
        <time>2022-10-28T09:32:45Z</time>
      </trkpt>
      <trkpt lat="44.60847" lon="5.4538">
        <ele>565.5</ele>
        <time>2022-10-28T09:32:47Z</time>
      </trkpt>
      <trkpt lat="44.60842" lon="5.45378">
        <ele>565.7</ele>
        <time>2022-10-28T09:32:48Z</time>
      </trkpt>
      <trkpt lat="44.60838" lon="5.45377">
        <ele>565.8</ele>
        <time>2022-10-28T09:32:49Z</time>
      </trkpt>
      <trkpt lat="44.60833" lon="5.45373">
        <ele>566</ele>
        <time>2022-10-28T09:32:51Z</time>
      </trkpt>
      <trkpt lat="44.60829" lon="5.45371">
        <ele>566.1</ele>
        <time>2022-10-28T09:32:52Z</time>
      </trkpt>
      <trkpt lat="44.60824" lon="5.45368">
        <ele>566.3</ele>
        <time>2022-10-28T09:32:53Z</time>
      </trkpt>
      <trkpt lat="44.60822" lon="5.45366">
        <ele>566.4</ele>
        <time>2022-10-28T09:32:54Z</time>
      </trkpt>
      <trkpt lat="44.60816" lon="5.45365">
        <ele>566.6</ele>
        <time>2022-10-28T09:32:56Z</time>
      </trkpt>
      <trkpt lat="44.60813" lon="5.45364">
        <ele>566.8</ele>
        <time>2022-10-28T09:32:57Z</time>
      </trkpt>
      <trkpt lat="44.6081" lon="5.45364">
        <ele>566.9</ele>
        <time>2022-10-28T09:32:58Z</time>
      </trkpt>
      <trkpt lat="44.60806" lon="5.45364">
        <ele>567.1</ele>
        <time>2022-10-28T09:32:59Z</time>
      </trkpt>
      <trkpt lat="44.60802" lon="5.45364">
        <ele>567.2</ele>
        <time>2022-10-28T09:33:00Z</time>
      </trkpt>
      <trkpt lat="44.60799" lon="5.45363">
        <ele>567.3</ele>
        <time>2022-10-28T09:33:02Z</time>
      </trkpt>
      <trkpt lat="44.60795" lon="5.45363">
        <ele>567.5</ele>
        <time>2022-10-28T09:33:03Z</time>
      </trkpt>
      <trkpt lat="44.60791" lon="5.45364">
        <ele>567.7</ele>
        <time>2022-10-28T09:33:04Z</time>
      </trkpt>
      <trkpt lat="44.60788" lon="5.45364">
        <ele>567.8</ele>
        <time>2022-10-28T09:33:05Z</time>
      </trkpt>
      <trkpt lat="44.60785" lon="5.45365">
        <ele>567.9</ele>
        <time>2022-10-28T09:33:06Z</time>
      </trkpt>
      <trkpt lat="44.60783" lon="5.45365">
        <ele>568</ele>
        <time>2022-10-28T09:33:07Z</time>
      </trkpt>
      <trkpt lat="44.60777" lon="5.45366">
        <ele>568.2</ele>
        <time>2022-10-28T09:33:09Z</time>
      </trkpt>
      <trkpt lat="44.60774" lon="5.45368">
        <ele>568.4</ele>
        <time>2022-10-28T09:33:10Z</time>
      </trkpt>
      <trkpt lat="44.60771" lon="5.45369">
        <ele>568.5</ele>
        <time>2022-10-28T09:33:11Z</time>
      </trkpt>
      <trkpt lat="44.60768" lon="5.4537">
        <ele>568.7</ele>
        <time>2022-10-28T09:33:13Z</time>
      </trkpt>
      <trkpt lat="44.60765" lon="5.4537">
        <ele>568.8</ele>
        <time>2022-10-28T09:33:14Z</time>
      </trkpt>
      <trkpt lat="44.60761" lon="5.45371">
        <ele>569</ele>
        <time>2022-10-28T09:33:15Z</time>
      </trkpt>
      <trkpt lat="44.60758" lon="5.45372">
        <ele>569.2</ele>
        <time>2022-10-28T09:33:16Z</time>
      </trkpt>
      <trkpt lat="44.60755" lon="5.45374">
        <ele>569.3</ele>
        <time>2022-10-28T09:33:17Z</time>
      </trkpt>
      <trkpt lat="44.60751" lon="5.45376">
        <ele>569.5</ele>
        <time>2022-10-28T09:33:19Z</time>
      </trkpt>
      <trkpt lat="44.60748" lon="5.45377">
        <ele>569.6</ele>
        <time>2022-10-28T09:33:20Z</time>
      </trkpt>
      <trkpt lat="44.60744" lon="5.45379">
        <ele>569.8</ele>
        <time>2022-10-28T09:33:21Z</time>
      </trkpt>
      <trkpt lat="44.60741" lon="5.45381">
        <ele>570</ele>
        <time>2022-10-28T09:33:22Z</time>
      </trkpt>
      <trkpt lat="44.60738" lon="5.45382">
        <ele>570.1</ele>
        <time>2022-10-28T09:33:23Z</time>
      </trkpt>
      <trkpt lat="44.60736" lon="5.45383">
        <ele>570.2</ele>
        <time>2022-10-28T09:33:24Z</time>
      </trkpt>
      <trkpt lat="44.60732" lon="5.45385">
        <ele>570.4</ele>
        <time>2022-10-28T09:33:26Z</time>
      </trkpt>
      <trkpt lat="44.60727" lon="5.45387">
        <ele>570.6</ele>
        <time>2022-10-28T09:33:27Z</time>
      </trkpt>
      <trkpt lat="44.60724" lon="5.4539">
        <ele>570.7</ele>
        <time>2022-10-28T09:33:29Z</time>
      </trkpt>
      <trkpt lat="44.60721" lon="5.45393">
        <ele>570.9</ele>
        <time>2022-10-28T09:33:30Z</time>
      </trkpt>
      <trkpt lat="44.60719" lon="5.45394">
        <ele>571</ele>
        <time>2022-10-28T09:33:31Z</time>
      </trkpt>
      <trkpt lat="44.60716" lon="5.45396">
        <ele>571.1</ele>
        <time>2022-10-28T09:33:33Z</time>
      </trkpt>
      <trkpt lat="44.60713" lon="5.45398">
        <ele>571.3</ele>
        <time>2022-10-28T09:33:34Z</time>
      </trkpt>
      <trkpt lat="44.60709" lon="5.45401">
        <ele>571.4</ele>
        <time>2022-10-28T09:33:35Z</time>
      </trkpt>
      <trkpt lat="44.60708" lon="5.45403">
        <ele>571.5</ele>
        <time>2022-10-28T09:33:36Z</time>
      </trkpt>
      <trkpt lat="44.60705" lon="5.45405">
        <ele>571.7</ele>
        <time>2022-10-28T09:33:38Z</time>
      </trkpt>
      <trkpt lat="44.60702" lon="5.45407">
        <ele>571.8</ele>
        <time>2022-10-28T09:33:39Z</time>
      </trkpt>
      <trkpt lat="44.607" lon="5.4541">
        <ele>571.9</ele>
        <time>2022-10-28T09:33:40Z</time>
      </trkpt>
      <trkpt lat="44.60697" lon="5.45413">
        <ele>572</ele>
        <time>2022-10-28T09:33:41Z</time>
      </trkpt>
      <trkpt lat="44.60693" lon="5.45417">
        <ele>572.2</ele>
        <time>2022-10-28T09:33:43Z</time>
      </trkpt>
      <trkpt lat="44.6069" lon="5.4542">
        <ele>572.4</ele>
        <time>2022-10-28T09:33:44Z</time>
      </trkpt>
      <trkpt lat="44.60688" lon="5.45423">
        <ele>572.5</ele>
        <time>2022-10-28T09:33:45Z</time>
      </trkpt>
      <trkpt lat="44.60684" lon="5.45426">
        <ele>572.7</ele>
        <time>2022-10-28T09:33:47Z</time>
      </trkpt>
      <trkpt lat="44.60682" lon="5.45429">
        <ele>572.9</ele>
        <time>2022-10-28T09:33:48Z</time>
      </trkpt>
      <trkpt lat="44.60679" lon="5.45433">
        <ele>573</ele>
        <time>2022-10-28T09:33:49Z</time>
      </trkpt>
      <trkpt lat="44.60677" lon="5.45436">
        <ele>573.1</ele>
        <time>2022-10-28T09:33:50Z</time>
      </trkpt>
      <trkpt lat="44.60674" lon="5.45439">
        <ele>573.3</ele>
        <time>2022-10-28T09:33:51Z</time>
      </trkpt>
      <trkpt lat="44.60671" lon="5.45442">
        <ele>573.4</ele>
        <time>2022-10-28T09:33:52Z</time>
      </trkpt>
      <trkpt lat="44.6067" lon="5.45443">
        <ele>573.5</ele>
        <time>2022-10-28T09:33:53Z</time>
      </trkpt>
      <trkpt lat="44.60668" lon="5.45446">
        <ele>573.6</ele>
        <time>2022-10-28T09:33:54Z</time>
      </trkpt>
      <trkpt lat="44.60666" lon="5.45449">
        <ele>573.8</ele>
        <time>2022-10-28T09:33:55Z</time>
      </trkpt>
      <trkpt lat="44.60663" lon="5.45452">
        <ele>573.9</ele>
        <time>2022-10-28T09:33:57Z</time>
      </trkpt>
      <trkpt lat="44.6066" lon="5.45456">
        <ele>574.1</ele>
        <time>2022-10-28T09:33:58Z</time>
      </trkpt>
      <trkpt lat="44.60656" lon="5.45459">
        <ele>574.3</ele>
        <time>2022-10-28T09:34:00Z</time>
      </trkpt>
      <trkpt lat="44.60654" lon="5.45462">
        <ele>574.4</ele>
        <time>2022-10-28T09:34:01Z</time>
      </trkpt>
      <trkpt lat="44.6065" lon="5.45466">
        <ele>574.6</ele>
        <time>2022-10-28T09:34:02Z</time>
      </trkpt>
      <trkpt lat="44.60648" lon="5.45468">
        <ele>574.7</ele>
        <time>2022-10-28T09:34:04Z</time>
      </trkpt>
      <trkpt lat="44.60645" lon="5.45471">
        <ele>574.9</ele>
        <time>2022-10-28T09:34:05Z</time>
      </trkpt>
      <trkpt lat="44.60642" lon="5.45475">
        <ele>575</ele>
        <time>2022-10-28T09:34:06Z</time>
      </trkpt>
      <trkpt lat="44.60639" lon="5.45478">
        <ele>575.2</ele>
        <time>2022-10-28T09:34:08Z</time>
      </trkpt>
      <trkpt lat="44.60636" lon="5.45483">
        <ele>575.4</ele>
        <time>2022-10-28T09:34:09Z</time>
      </trkpt>
      <trkpt lat="44.60633" lon="5.45486">
        <ele>575.5</ele>
        <time>2022-10-28T09:34:10Z</time>
      </trkpt>
      <trkpt lat="44.60632" lon="5.45487">
        <ele>575.6</ele>
        <time>2022-10-28T09:34:11Z</time>
      </trkpt>
      <trkpt lat="44.60629" lon="5.4549">
        <ele>575.7</ele>
        <time>2022-10-28T09:34:12Z</time>
      </trkpt>
      <trkpt lat="44.60626" lon="5.45491">
        <ele>575.8</ele>
        <time>2022-10-28T09:34:14Z</time>
      </trkpt>
      <trkpt lat="44.60622" lon="5.45495">
        <ele>576</ele>
        <time>2022-10-28T09:34:15Z</time>
      </trkpt>
      <trkpt lat="44.60619" lon="5.45497">
        <ele>576.2</ele>
        <time>2022-10-28T09:34:16Z</time>
      </trkpt>
      <trkpt lat="44.60617" lon="5.45498">
        <ele>576.3</ele>
        <time>2022-10-28T09:34:18Z</time>
      </trkpt>
      <trkpt lat="44.60613" lon="5.45501">
        <ele>576.5</ele>
        <time>2022-10-28T09:34:19Z</time>
      </trkpt>
      <trkpt lat="44.60609" lon="5.45502">
        <ele>576.6</ele>
        <time>2022-10-28T09:34:20Z</time>
      </trkpt>
      <trkpt lat="44.60606" lon="5.45503">
        <ele>576.7</ele>
        <time>2022-10-28T09:34:22Z</time>
      </trkpt>
      <trkpt lat="44.60602" lon="5.45505">
        <ele>576.9</ele>
        <time>2022-10-28T09:34:23Z</time>
      </trkpt>
      <trkpt lat="44.60599" lon="5.45506">
        <ele>577</ele>
        <time>2022-10-28T09:34:24Z</time>
      </trkpt>
      <trkpt lat="44.60596" lon="5.45507">
        <ele>577.1</ele>
        <time>2022-10-28T09:34:25Z</time>
      </trkpt>
      <trkpt lat="44.60593" lon="5.45508">
        <ele>577.3</ele>
        <time>2022-10-28T09:34:26Z</time>
      </trkpt>
      <trkpt lat="44.6059" lon="5.45509">
        <ele>577.4</ele>
        <time>2022-10-28T09:34:28Z</time>
      </trkpt>
      <trkpt lat="44.60587" lon="5.45511">
        <ele>577.5</ele>
        <time>2022-10-28T09:34:29Z</time>
      </trkpt>
      <trkpt lat="44.60583" lon="5.45512">
        <ele>577.7</ele>
        <time>2022-10-28T09:34:30Z</time>
      </trkpt>
      <trkpt lat="44.60581" lon="5.45514">
        <ele>577.8</ele>
        <time>2022-10-28T09:34:31Z</time>
      </trkpt>
      <trkpt lat="44.60578" lon="5.45515">
        <ele>578</ele>
        <time>2022-10-28T09:34:32Z</time>
      </trkpt>
      <trkpt lat="44.60574" lon="5.45516">
        <ele>578.1</ele>
        <time>2022-10-28T09:34:34Z</time>
      </trkpt>
      <trkpt lat="44.6057" lon="5.45518">
        <ele>578.3</ele>
        <time>2022-10-28T09:34:35Z</time>
      </trkpt>
      <trkpt lat="44.60565" lon="5.4552">
        <ele>578.5</ele>
        <time>2022-10-28T09:34:37Z</time>
      </trkpt>
      <trkpt lat="44.60562" lon="5.45521">
        <ele>578.6</ele>
        <time>2022-10-28T09:34:38Z</time>
      </trkpt>
      <trkpt lat="44.60559" lon="5.45523">
        <ele>578.8</ele>
        <time>2022-10-28T09:34:39Z</time>
      </trkpt>
      <trkpt lat="44.60555" lon="5.45524">
        <ele>579</ele>
        <time>2022-10-28T09:34:41Z</time>
      </trkpt>
      <trkpt lat="44.60552" lon="5.45525">
        <ele>579.1</ele>
        <time>2022-10-28T09:34:42Z</time>
      </trkpt>
      <trkpt lat="44.60548" lon="5.45527">
        <ele>579.3</ele>
        <time>2022-10-28T09:34:44Z</time>
      </trkpt>
      <trkpt lat="44.60546" lon="5.45527">
        <ele>579.3</ele>
        <time>2022-10-28T09:34:45Z</time>
      </trkpt>
      <trkpt lat="44.60542" lon="5.45529">
        <ele>579.5</ele>
        <time>2022-10-28T09:34:47Z</time>
      </trkpt>
      <trkpt lat="44.60539" lon="5.45531">
        <ele>579.6</ele>
        <time>2022-10-28T09:34:48Z</time>
      </trkpt>
      <trkpt lat="44.60536" lon="5.45532">
        <ele>579.8</ele>
        <time>2022-10-28T09:34:49Z</time>
      </trkpt>
      <trkpt lat="44.60532" lon="5.45534">
        <ele>579.9</ele>
        <time>2022-10-28T09:34:50Z</time>
      </trkpt>
      <trkpt lat="44.60531" lon="5.45535">
        <ele>580</ele>
        <time>2022-10-28T09:34:51Z</time>
      </trkpt>
      <trkpt lat="44.60529" lon="5.45535">
        <ele>580.1</ele>
        <time>2022-10-28T09:34:52Z</time>
      </trkpt>
      <trkpt lat="44.60526" lon="5.45537">
        <ele>580.2</ele>
        <time>2022-10-28T09:34:54Z</time>
      </trkpt>
      <trkpt lat="44.60523" lon="5.45538">
        <ele>580.4</ele>
        <time>2022-10-28T09:34:55Z</time>
      </trkpt>
      <trkpt lat="44.60519" lon="5.45539">
        <ele>580.5</ele>
        <time>2022-10-28T09:34:56Z</time>
      </trkpt>
      <trkpt lat="44.60516" lon="5.45541">
        <ele>580.7</ele>
        <time>2022-10-28T09:34:57Z</time>
      </trkpt>
      <trkpt lat="44.60515" lon="5.45542">
        <ele>580.7</ele>
        <time>2022-10-28T09:34:58Z</time>
      </trkpt>
      <trkpt lat="44.60511" lon="5.45544">
        <ele>580.9</ele>
        <time>2022-10-28T09:34:59Z</time>
      </trkpt>
      <trkpt lat="44.6051" lon="5.45544">
        <ele>580.9</ele>
        <time>2022-10-28T09:35:00Z</time>
      </trkpt>
      <trkpt lat="44.60507" lon="5.45546">
        <ele>581.1</ele>
        <time>2022-10-28T09:35:01Z</time>
      </trkpt>
      <trkpt lat="44.60505" lon="5.45548">
        <ele>581.2</ele>
        <time>2022-10-28T09:35:02Z</time>
      </trkpt>
      <trkpt lat="44.60502" lon="5.4555">
        <ele>581.3</ele>
        <time>2022-10-28T09:35:03Z</time>
      </trkpt>
      <trkpt lat="44.60501" lon="5.45551">
        <ele>581.4</ele>
        <time>2022-10-28T09:35:04Z</time>
      </trkpt>
      <trkpt lat="44.60498" lon="5.45553">
        <ele>581.5</ele>
        <time>2022-10-28T09:35:05Z</time>
      </trkpt>
      <trkpt lat="44.60497" lon="5.45554">
        <ele>581.6</ele>
        <time>2022-10-28T09:35:06Z</time>
      </trkpt>
      <trkpt lat="44.60494" lon="5.45556">
        <ele>581.7</ele>
        <time>2022-10-28T09:35:07Z</time>
      </trkpt>
      <trkpt lat="44.60491" lon="5.45558">
        <ele>581.8</ele>
        <time>2022-10-28T09:35:08Z</time>
      </trkpt>
      <trkpt lat="44.60487" lon="5.45562">
        <ele>582.1</ele>
        <time>2022-10-28T09:35:10Z</time>
      </trkpt>
      <trkpt lat="44.60484" lon="5.45564">
        <ele>582.2</ele>
        <time>2022-10-28T09:35:11Z</time>
      </trkpt>
      <trkpt lat="44.60483" lon="5.45566">
        <ele>582.3</ele>
        <time>2022-10-28T09:35:12Z</time>
      </trkpt>
      <trkpt lat="44.60479" lon="5.45569">
        <ele>582.5</ele>
        <time>2022-10-28T09:35:14Z</time>
      </trkpt>
      <trkpt lat="44.60477" lon="5.45572">
        <ele>582.6</ele>
        <time>2022-10-28T09:35:15Z</time>
      </trkpt>
      <trkpt lat="44.60475" lon="5.45575">
        <ele>582.7</ele>
        <time>2022-10-28T09:35:16Z</time>
      </trkpt>
      <trkpt lat="44.60472" lon="5.45578">
        <ele>582.9</ele>
        <time>2022-10-28T09:35:17Z</time>
      </trkpt>
      <trkpt lat="44.60471" lon="5.45579">
        <ele>582.9</ele>
        <time>2022-10-28T09:35:18Z</time>
      </trkpt>
      <trkpt lat="44.60469" lon="5.45582">
        <ele>583.1</ele>
        <time>2022-10-28T09:35:20Z</time>
      </trkpt>
      <trkpt lat="44.60466" lon="5.45586">
        <ele>583.3</ele>
        <time>2022-10-28T09:35:21Z</time>
      </trkpt>
      <trkpt lat="44.60465" lon="5.45587">
        <ele>583.3</ele>
        <time>2022-10-28T09:35:22Z</time>
      </trkpt>
      <trkpt lat="44.60462" lon="5.4559">
        <ele>583.5</ele>
        <time>2022-10-28T09:35:23Z</time>
      </trkpt>
      <trkpt lat="44.6046" lon="5.45592">
        <ele>583.6</ele>
        <time>2022-10-28T09:35:24Z</time>
      </trkpt>
      <trkpt lat="44.60457" lon="5.45595">
        <ele>583.8</ele>
        <time>2022-10-28T09:35:26Z</time>
      </trkpt>
      <trkpt lat="44.60454" lon="5.45598">
        <ele>583.9</ele>
        <time>2022-10-28T09:35:27Z</time>
      </trkpt>
      <trkpt lat="44.60452" lon="5.45601">
        <ele>584.1</ele>
        <time>2022-10-28T09:35:28Z</time>
      </trkpt>
      <trkpt lat="44.6045" lon="5.45604">
        <ele>584.2</ele>
        <time>2022-10-28T09:35:29Z</time>
      </trkpt>
      <trkpt lat="44.60447" lon="5.45606">
        <ele>584.4</ele>
        <time>2022-10-28T09:35:30Z</time>
      </trkpt>
      <trkpt lat="44.60445" lon="5.45609">
        <ele>584.5</ele>
        <time>2022-10-28T09:35:31Z</time>
      </trkpt>
      <trkpt lat="44.60442" lon="5.45613">
        <ele>584.7</ele>
        <time>2022-10-28T09:35:33Z</time>
      </trkpt>
      <trkpt lat="44.60438" lon="5.45617">
        <ele>584.9</ele>
        <time>2022-10-28T09:35:35Z</time>
      </trkpt>
      <trkpt lat="44.60435" lon="5.4562">
        <ele>585.1</ele>
        <time>2022-10-28T09:35:36Z</time>
      </trkpt>
      <trkpt lat="44.60434" lon="5.45622">
        <ele>585.2</ele>
        <time>2022-10-28T09:35:37Z</time>
      </trkpt>
      <trkpt lat="44.60432" lon="5.45625">
        <ele>585.4</ele>
        <time>2022-10-28T09:35:38Z</time>
      </trkpt>
      <trkpt lat="44.6043" lon="5.45628">
        <ele>585.5</ele>
        <time>2022-10-28T09:35:39Z</time>
      </trkpt>
      <trkpt lat="44.60428" lon="5.45631">
        <ele>585.6</ele>
        <time>2022-10-28T09:35:40Z</time>
      </trkpt>
      <trkpt lat="44.60426" lon="5.45633">
        <ele>585.8</ele>
        <time>2022-10-28T09:35:41Z</time>
      </trkpt>
      <trkpt lat="44.60424" lon="5.45636">
        <ele>585.9</ele>
        <time>2022-10-28T09:35:43Z</time>
      </trkpt>
      <trkpt lat="44.60422" lon="5.4564">
        <ele>586.1</ele>
        <time>2022-10-28T09:35:44Z</time>
      </trkpt>
      <trkpt lat="44.6042" lon="5.45643">
        <ele>586.2</ele>
        <time>2022-10-28T09:35:45Z</time>
      </trkpt>
      <trkpt lat="44.60419" lon="5.45644">
        <ele>586.3</ele>
        <time>2022-10-28T09:35:46Z</time>
      </trkpt>
      <trkpt lat="44.60417" lon="5.45646">
        <ele>586.4</ele>
        <time>2022-10-28T09:35:47Z</time>
      </trkpt>
      <trkpt lat="44.60414" lon="5.4565">
        <ele>586.6</ele>
        <time>2022-10-28T09:35:49Z</time>
      </trkpt>
      <trkpt lat="44.60411" lon="5.45653">
        <ele>586.7</ele>
        <time>2022-10-28T09:35:50Z</time>
      </trkpt>
      <trkpt lat="44.6041" lon="5.45655">
        <ele>586.8</ele>
        <time>2022-10-28T09:35:51Z</time>
      </trkpt>
      <trkpt lat="44.60407" lon="5.45658">
        <ele>586.9</ele>
        <time>2022-10-28T09:35:52Z</time>
      </trkpt>
      <trkpt lat="44.60406" lon="5.45659">
        <ele>587</ele>
        <time>2022-10-28T09:35:53Z</time>
      </trkpt>
      <trkpt lat="44.60404" lon="5.45663">
        <ele>587.1</ele>
        <time>2022-10-28T09:35:54Z</time>
      </trkpt>
      <trkpt lat="44.60403" lon="5.45664">
        <ele>587.2</ele>
        <time>2022-10-28T09:35:55Z</time>
      </trkpt>
      <trkpt lat="44.604" lon="5.45668">
        <ele>587.3</ele>
        <time>2022-10-28T09:35:56Z</time>
      </trkpt>
      <trkpt lat="44.60399" lon="5.45669">
        <ele>587.4</ele>
        <time>2022-10-28T09:35:57Z</time>
      </trkpt>
      <trkpt lat="44.60397" lon="5.45673">
        <ele>587.5</ele>
        <time>2022-10-28T09:35:58Z</time>
      </trkpt>
      <trkpt lat="44.60396" lon="5.45675">
        <ele>587.6</ele>
        <time>2022-10-28T09:35:59Z</time>
      </trkpt>
      <trkpt lat="44.60392" lon="5.4568">
        <ele>587.8</ele>
        <time>2022-10-28T09:36:01Z</time>
      </trkpt>
      <trkpt lat="44.6039" lon="5.45683">
        <ele>587.9</ele>
        <time>2022-10-28T09:36:02Z</time>
      </trkpt>
      <trkpt lat="44.60388" lon="5.45685">
        <ele>588</ele>
        <time>2022-10-28T09:36:03Z</time>
      </trkpt>
      <trkpt lat="44.60385" lon="5.45689">
        <ele>588.1</ele>
        <time>2022-10-28T09:36:04Z</time>
      </trkpt>
      <trkpt lat="44.60383" lon="5.4569">
        <ele>588.2</ele>
        <time>2022-10-28T09:36:05Z</time>
      </trkpt>
      <trkpt lat="44.6038" lon="5.45694">
        <ele>588.4</ele>
        <time>2022-10-28T09:36:07Z</time>
      </trkpt>
      <trkpt lat="44.60378" lon="5.45697">
        <ele>588.5</ele>
        <time>2022-10-28T09:36:08Z</time>
      </trkpt>
      <trkpt lat="44.60375" lon="5.45699">
        <ele>588.6</ele>
        <time>2022-10-28T09:36:09Z</time>
      </trkpt>
      <trkpt lat="44.60373" lon="5.45703">
        <ele>588.8</ele>
        <time>2022-10-28T09:36:11Z</time>
      </trkpt>
      <trkpt lat="44.60371" lon="5.45706">
        <ele>588.9</ele>
        <time>2022-10-28T09:36:12Z</time>
      </trkpt>
      <trkpt lat="44.60368" lon="5.45709">
        <ele>589</ele>
        <time>2022-10-28T09:36:13Z</time>
      </trkpt>
      <trkpt lat="44.60367" lon="5.4571">
        <ele>589.1</ele>
        <time>2022-10-28T09:36:14Z</time>
      </trkpt>
      <trkpt lat="44.60366" lon="5.45711">
        <ele>589.1</ele>
        <time>2022-10-28T09:36:15Z</time>
      </trkpt>
      <trkpt lat="44.60366" lon="5.45712">
        <ele>589.1</ele>
        <time>2022-10-28T09:36:16Z</time>
      </trkpt>
      <trkpt lat="44.60366" lon="5.45713">
        <ele>589.2</ele>
        <time>2022-10-28T09:36:17Z</time>
      </trkpt>
      <trkpt lat="44.60366" lon="5.45713">
        <ele>589.2</ele>
        <time>2022-10-28T09:36:18Z</time>
      </trkpt>
      <trkpt lat="44.60366" lon="5.45713">
        <ele>589.2</ele>
        <time>2022-10-28T09:36:19Z</time>
      </trkpt>
      <trkpt lat="44.60366" lon="5.45713">
        <ele>589.2</ele>
        <time>2022-10-28T09:36:20Z</time>
      </trkpt>
      <trkpt lat="44.60367" lon="5.45713">
        <ele>589.2</ele>
        <time>2022-10-28T09:36:21Z</time>
      </trkpt>
      <trkpt lat="44.60367" lon="5.45713">
        <ele>589.2</ele>
        <time>2022-10-28T09:36:22Z</time>
      </trkpt>
      <trkpt lat="44.60367" lon="5.45712">
        <ele>589.2</ele>
        <time>2022-10-28T09:36:23Z</time>
      </trkpt>
      <trkpt lat="44.60367" lon="5.45711">
        <ele>589.3</ele>
        <time>2022-10-28T09:36:24Z</time>
      </trkpt>
      <trkpt lat="44.60368" lon="5.4571">
        <ele>589.3</ele>
        <time>2022-10-28T09:36:25Z</time>
      </trkpt>
      <trkpt lat="44.60368" lon="5.45709">
        <ele>589.3</ele>
        <time>2022-10-28T09:36:26Z</time>
      </trkpt>
      <trkpt lat="44.60369" lon="5.45709">
        <ele>589.4</ele>
        <time>2022-10-28T09:36:27Z</time>
      </trkpt>
      <trkpt lat="44.60369" lon="5.45709">
        <ele>589.4</ele>
        <time>2022-10-28T09:36:28Z</time>
      </trkpt>
      <trkpt lat="44.60369" lon="5.45708">
        <ele>589.4</ele>
        <time>2022-10-28T09:36:29Z</time>
      </trkpt>
      <trkpt lat="44.60369" lon="5.45708">
        <ele>589.4</ele>
        <time>2022-10-28T09:36:30Z</time>
      </trkpt>
      <trkpt lat="44.60369" lon="5.45708">
        <ele>589.4</ele>
        <time>2022-10-28T09:36:31Z</time>
      </trkpt>
      <trkpt lat="44.60369" lon="5.45708">
        <ele>589.4</ele>
        <time>2022-10-28T09:36:32Z</time>
      </trkpt>
      <trkpt lat="44.60369" lon="5.45708">
        <ele>589.4</ele>
        <time>2022-10-28T09:36:33Z</time>
      </trkpt>
      <trkpt lat="44.60369" lon="5.45708">
        <ele>589.4</ele>
        <time>2022-10-28T09:36:34Z</time>
      </trkpt>
      <trkpt lat="44.60369" lon="5.45708">
        <ele>589.4</ele>
        <time>2022-10-28T09:36:35Z</time>
      </trkpt>
      <trkpt lat="44.60369" lon="5.45708">
        <ele>589.4</ele>
        <time>2022-10-28T09:36:36Z</time>
      </trkpt>
      <trkpt lat="44.60369" lon="5.45708">
        <ele>589.4</ele>
        <time>2022-10-28T09:36:37Z</time>
      </trkpt>
      <trkpt lat="44.60369" lon="5.45708">
        <ele>589.4</ele>
        <time>2022-10-28T09:36:38Z</time>
      </trkpt>
      <trkpt lat="44.60369" lon="5.45708">
        <ele>589.4</ele>
        <time>2022-10-28T09:36:39Z</time>
      </trkpt>
      <trkpt lat="44.60369" lon="5.45708">
        <ele>589.4</ele>
        <time>2022-10-28T09:36:40Z</time>
      </trkpt>
      <trkpt lat="44.60369" lon="5.45708">
        <ele>589.4</ele>
        <time>2022-10-28T09:36:41Z</time>
      </trkpt>
      <trkpt lat="44.60369" lon="5.45708">
        <ele>589.4</ele>
        <time>2022-10-28T09:36:42Z</time>
      </trkpt>
      <trkpt lat="44.60369" lon="5.45716">
        <ele>589.7</ele>
        <time>2022-10-28T09:40:09Z</time>
      </trkpt>
      <trkpt lat="44.60366" lon="5.45719">
        <ele>589.8</ele>
        <time>2022-10-28T09:40:10Z</time>
      </trkpt>
      <trkpt lat="44.60363" lon="5.45721">
        <ele>590</ele>
        <time>2022-10-28T09:40:11Z</time>
      </trkpt>
      <trkpt lat="44.60361" lon="5.45724">
        <ele>590.1</ele>
        <time>2022-10-28T09:40:12Z</time>
      </trkpt>
      <trkpt lat="44.60358" lon="5.45727">
        <ele>590.3</ele>
        <time>2022-10-28T09:40:14Z</time>
      </trkpt>
      <trkpt lat="44.60355" lon="5.45729">
        <ele>590.4</ele>
        <time>2022-10-28T09:40:15Z</time>
      </trkpt>
      <trkpt lat="44.60352" lon="5.45731">
        <ele>590.5</ele>
        <time>2022-10-28T09:40:16Z</time>
      </trkpt>
      <trkpt lat="44.60349" lon="5.45734">
        <ele>590.7</ele>
        <time>2022-10-28T09:40:17Z</time>
      </trkpt>
      <trkpt lat="44.60348" lon="5.45735">
        <ele>590.8</ele>
        <time>2022-10-28T09:40:18Z</time>
      </trkpt>
      <trkpt lat="44.60345" lon="5.45737">
        <ele>590.9</ele>
        <time>2022-10-28T09:40:19Z</time>
      </trkpt>
      <trkpt lat="44.60342" lon="5.4574">
        <ele>591</ele>
        <time>2022-10-28T09:40:20Z</time>
      </trkpt>
      <trkpt lat="44.60342" lon="5.4574">
        <ele>591.1</ele>
        <time>2022-10-28T09:40:21Z</time>
      </trkpt>
      <trkpt lat="44.60339" lon="5.45743">
        <ele>591.2</ele>
        <time>2022-10-28T09:40:22Z</time>
      </trkpt>
      <trkpt lat="44.60338" lon="5.45744">
        <ele>591.3</ele>
        <time>2022-10-28T09:40:23Z</time>
      </trkpt>
      <trkpt lat="44.60334" lon="5.45747">
        <ele>591.5</ele>
        <time>2022-10-28T09:40:24Z</time>
      </trkpt>
      <trkpt lat="44.60333" lon="5.45748">
        <ele>591.5</ele>
        <time>2022-10-28T09:40:25Z</time>
      </trkpt>
      <trkpt lat="44.60331" lon="5.45751">
        <ele>591.7</ele>
        <time>2022-10-28T09:40:26Z</time>
      </trkpt>
      <trkpt lat="44.60329" lon="5.45754">
        <ele>591.8</ele>
        <time>2022-10-28T09:40:28Z</time>
      </trkpt>
      <trkpt lat="44.60326" lon="5.45757">
        <ele>592</ele>
        <time>2022-10-28T09:40:29Z</time>
      </trkpt>
      <trkpt lat="44.60323" lon="5.45761">
        <ele>592.2</ele>
        <time>2022-10-28T09:40:30Z</time>
      </trkpt>
      <trkpt lat="44.60322" lon="5.45762">
        <ele>592.2</ele>
        <time>2022-10-28T09:40:31Z</time>
      </trkpt>
      <trkpt lat="44.6032" lon="5.45764">
        <ele>592.4</ele>
        <time>2022-10-28T09:40:32Z</time>
      </trkpt>
      <trkpt lat="44.60316" lon="5.45768">
        <ele>592.6</ele>
        <time>2022-10-28T09:40:34Z</time>
      </trkpt>
      <trkpt lat="44.60314" lon="5.45769">
        <ele>592.7</ele>
        <time>2022-10-28T09:40:35Z</time>
      </trkpt>
      <trkpt lat="44.6031" lon="5.45773">
        <ele>592.9</ele>
        <time>2022-10-28T09:40:37Z</time>
      </trkpt>
      <trkpt lat="44.60308" lon="5.45775">
        <ele>593</ele>
        <time>2022-10-28T09:40:38Z</time>
      </trkpt>
      <trkpt lat="44.60307" lon="5.45776">
        <ele>593.1</ele>
        <time>2022-10-28T09:40:39Z</time>
      </trkpt>
      <trkpt lat="44.60304" lon="5.4578">
        <ele>593.3</ele>
        <time>2022-10-28T09:40:41Z</time>
      </trkpt>
      <trkpt lat="44.60302" lon="5.4578">
        <ele>593.4</ele>
        <time>2022-10-28T09:40:42Z</time>
      </trkpt>
      <trkpt lat="44.60302" lon="5.4578">
        <ele>593.4</ele>
        <time>2022-10-28T09:40:43Z</time>
      </trkpt>
      <trkpt lat="44.60303" lon="5.4578">
        <ele>593.4</ele>
        <time>2022-10-28T09:40:44Z</time>
      </trkpt>
      <trkpt lat="44.60304" lon="5.45779">
        <ele>593.4</ele>
        <time>2022-10-28T09:40:45Z</time>
      </trkpt>
      <trkpt lat="44.60304" lon="5.45779">
        <ele>593.5</ele>
        <time>2022-10-28T09:40:46Z</time>
      </trkpt>
      <trkpt lat="44.60304" lon="5.45778">
        <ele>593.5</ele>
        <time>2022-10-28T09:40:48Z</time>
      </trkpt>
      <trkpt lat="44.60304" lon="5.45778">
        <ele>593.5</ele>
        <time>2022-10-28T09:40:49Z</time>
      </trkpt>
      <trkpt lat="44.60304" lon="5.45778">
        <ele>593.5</ele>
        <time>2022-10-28T09:40:50Z</time>
      </trkpt>
      <trkpt lat="44.60304" lon="5.45778">
        <ele>593.5</ele>
        <time>2022-10-28T09:40:51Z</time>
      </trkpt>
      <trkpt lat="44.60304" lon="5.45778">
        <ele>593.5</ele>
        <time>2022-10-28T09:40:52Z</time>
      </trkpt>
      <trkpt lat="44.60304" lon="5.45778">
        <ele>593.5</ele>
        <time>2022-10-28T09:40:53Z</time>
      </trkpt>
      <trkpt lat="44.603" lon="5.45785">
        <ele>593.9</ele>
        <time>2022-10-28T09:41:22Z</time>
      </trkpt>
      <trkpt lat="44.60298" lon="5.45789">
        <ele>594</ele>
        <time>2022-10-28T09:41:23Z</time>
      </trkpt>
      <trkpt lat="44.60296" lon="5.45791">
        <ele>594.2</ele>
        <time>2022-10-28T09:41:24Z</time>
      </trkpt>
      <trkpt lat="44.60292" lon="5.45794">
        <ele>594.4</ele>
        <time>2022-10-28T09:41:25Z</time>
      </trkpt>
      <trkpt lat="44.60291" lon="5.45795">
        <ele>594.5</ele>
        <time>2022-10-28T09:41:26Z</time>
      </trkpt>
      <trkpt lat="44.60288" lon="5.45798">
        <ele>594.7</ele>
        <time>2022-10-28T09:41:27Z</time>
      </trkpt>
      <trkpt lat="44.60287" lon="5.45799">
        <ele>594.8</ele>
        <time>2022-10-28T09:41:28Z</time>
      </trkpt>
      <trkpt lat="44.60285" lon="5.45801">
        <ele>595</ele>
        <time>2022-10-28T09:41:29Z</time>
      </trkpt>
      <trkpt lat="44.60281" lon="5.45803">
        <ele>595.2</ele>
        <time>2022-10-28T09:41:30Z</time>
      </trkpt>
      <trkpt lat="44.6028" lon="5.45804">
        <ele>595.3</ele>
        <time>2022-10-28T09:41:31Z</time>
      </trkpt>
      <trkpt lat="44.60278" lon="5.45806">
        <ele>595.5</ele>
        <time>2022-10-28T09:41:32Z</time>
      </trkpt>
      <trkpt lat="44.60277" lon="5.45807">
        <ele>595.5</ele>
        <time>2022-10-28T09:41:33Z</time>
      </trkpt>
      <trkpt lat="44.60274" lon="5.45809">
        <ele>595.7</ele>
        <time>2022-10-28T09:41:34Z</time>
      </trkpt>
      <trkpt lat="44.60274" lon="5.45809">
        <ele>595.8</ele>
        <time>2022-10-28T09:41:35Z</time>
      </trkpt>
      <trkpt lat="44.60271" lon="5.45812">
        <ele>596</ele>
        <time>2022-10-28T09:41:37Z</time>
      </trkpt>
      <trkpt lat="44.60268" lon="5.45814">
        <ele>596.2</ele>
        <time>2022-10-28T09:41:38Z</time>
      </trkpt>
      <trkpt lat="44.60266" lon="5.45815">
        <ele>596.3</ele>
        <time>2022-10-28T09:41:39Z</time>
      </trkpt>
      <trkpt lat="44.60263" lon="5.45816">
        <ele>596.5</ele>
        <time>2022-10-28T09:41:40Z</time>
      </trkpt>
      <trkpt lat="44.6026" lon="5.45818">
        <ele>596.7</ele>
        <time>2022-10-28T09:41:41Z</time>
      </trkpt>
      <trkpt lat="44.60259" lon="5.45819">
        <ele>596.8</ele>
        <time>2022-10-28T09:41:42Z</time>
      </trkpt>
      <trkpt lat="44.60257" lon="5.45822">
        <ele>597</ele>
        <time>2022-10-28T09:41:43Z</time>
      </trkpt>
      <trkpt lat="44.60254" lon="5.45825">
        <ele>597.2</ele>
        <time>2022-10-28T09:41:45Z</time>
      </trkpt>
      <trkpt lat="44.60252" lon="5.45826">
        <ele>597.3</ele>
        <time>2022-10-28T09:41:46Z</time>
      </trkpt>
      <trkpt lat="44.6025" lon="5.45829">
        <ele>597.5</ele>
        <time>2022-10-28T09:41:47Z</time>
      </trkpt>
      <trkpt lat="44.60248" lon="5.45832">
        <ele>597.6</ele>
        <time>2022-10-28T09:41:48Z</time>
      </trkpt>
      <trkpt lat="44.60246" lon="5.45835">
        <ele>597.8</ele>
        <time>2022-10-28T09:41:49Z</time>
      </trkpt>
      <trkpt lat="44.60244" lon="5.45838">
        <ele>598</ele>
        <time>2022-10-28T09:41:50Z</time>
      </trkpt>
      <trkpt lat="44.60242" lon="5.45843">
        <ele>598.2</ele>
        <time>2022-10-28T09:41:52Z</time>
      </trkpt>
      <trkpt lat="44.60241" lon="5.45845">
        <ele>598.3</ele>
        <time>2022-10-28T09:41:53Z</time>
      </trkpt>
      <trkpt lat="44.60239" lon="5.45848">
        <ele>598.5</ele>
        <time>2022-10-28T09:41:54Z</time>
      </trkpt>
      <trkpt lat="44.60238" lon="5.45851">
        <ele>598.6</ele>
        <time>2022-10-28T09:41:55Z</time>
      </trkpt>
      <trkpt lat="44.60238" lon="5.45852">
        <ele>598.6</ele>
        <time>2022-10-28T09:41:56Z</time>
      </trkpt>
      <trkpt lat="44.60239" lon="5.45855">
        <ele>598.7</ele>
        <time>2022-10-28T09:41:57Z</time>
      </trkpt>
      <trkpt lat="44.60239" lon="5.45857">
        <ele>598.8</ele>
        <time>2022-10-28T09:41:58Z</time>
      </trkpt>
      <trkpt lat="44.60238" lon="5.4586">
        <ele>598.9</ele>
        <time>2022-10-28T09:41:59Z</time>
      </trkpt>
      <trkpt lat="44.60237" lon="5.45861">
        <ele>598.9</ele>
        <time>2022-10-28T09:42:00Z</time>
      </trkpt>
      <trkpt lat="44.60234" lon="5.45865">
        <ele>599</ele>
        <time>2022-10-28T09:42:01Z</time>
      </trkpt>
      <trkpt lat="44.6023" lon="5.4587">
        <ele>599.1</ele>
        <time>2022-10-28T09:42:02Z</time>
      </trkpt>
      <trkpt lat="44.60226" lon="5.45873">
        <ele>599.2</ele>
        <time>2022-10-28T09:42:03Z</time>
      </trkpt>
      <trkpt lat="44.60223" lon="5.45874">
        <ele>599.2</ele>
        <time>2022-10-28T09:42:05Z</time>
      </trkpt>
      <trkpt lat="44.60219" lon="5.45876">
        <ele>599.3</ele>
        <time>2022-10-28T09:42:06Z</time>
      </trkpt>
      <trkpt lat="44.60213" lon="5.45879">
        <ele>599.3</ele>
        <time>2022-10-28T09:42:07Z</time>
      </trkpt>
      <trkpt lat="44.60208" lon="5.45882">
        <ele>599.2</ele>
        <time>2022-10-28T09:42:08Z</time>
      </trkpt>
      <trkpt lat="44.60203" lon="5.45886">
        <ele>599.2</ele>
        <time>2022-10-28T09:42:10Z</time>
      </trkpt>
      <trkpt lat="44.60198" lon="5.45889">
        <ele>599.1</ele>
        <time>2022-10-28T09:42:11Z</time>
      </trkpt>
      <trkpt lat="44.60191" lon="5.45893">
        <ele>599.1</ele>
        <time>2022-10-28T09:42:12Z</time>
      </trkpt>
      <trkpt lat="44.60188" lon="5.45895">
        <ele>599.1</ele>
        <time>2022-10-28T09:42:13Z</time>
      </trkpt>
      <trkpt lat="44.60181" lon="5.45894">
        <ele>599</ele>
        <time>2022-10-28T09:42:14Z</time>
      </trkpt>
      <trkpt lat="44.60175" lon="5.45894">
        <ele>599</ele>
        <time>2022-10-28T09:42:15Z</time>
      </trkpt>
      <trkpt lat="44.6017" lon="5.45893">
        <ele>598.9</ele>
        <time>2022-10-28T09:42:16Z</time>
      </trkpt>
      <trkpt lat="44.60165" lon="5.45893">
        <ele>598.9</ele>
        <time>2022-10-28T09:42:17Z</time>
      </trkpt>
      <trkpt lat="44.60161" lon="5.45892">
        <ele>598.9</ele>
        <time>2022-10-28T09:42:18Z</time>
      </trkpt>
      <trkpt lat="44.60158" lon="5.45889">
        <ele>598.9</ele>
        <time>2022-10-28T09:42:19Z</time>
      </trkpt>
      <trkpt lat="44.60158" lon="5.45888">
        <ele>598.9</ele>
        <time>2022-10-28T09:42:20Z</time>
      </trkpt>
      <trkpt lat="44.60156" lon="5.45885">
        <ele>598.9</ele>
        <time>2022-10-28T09:42:21Z</time>
      </trkpt>
      <trkpt lat="44.60155" lon="5.45884">
        <ele>598.9</ele>
        <time>2022-10-28T09:42:22Z</time>
      </trkpt>
      <trkpt lat="44.60152" lon="5.45882">
        <ele>598.9</ele>
        <time>2022-10-28T09:42:24Z</time>
      </trkpt>
      <trkpt lat="44.60151" lon="5.45882">
        <ele>598.9</ele>
        <time>2022-10-28T09:42:25Z</time>
      </trkpt>
      <trkpt lat="44.60149" lon="5.45881">
        <ele>598.9</ele>
        <time>2022-10-28T09:42:26Z</time>
      </trkpt>
      <trkpt lat="44.6015" lon="5.45881">
        <ele>598.9</ele>
        <time>2022-10-28T09:42:27Z</time>
      </trkpt>
      <trkpt lat="44.6015" lon="5.45881">
        <ele>598.9</ele>
        <time>2022-10-28T09:42:28Z</time>
      </trkpt>
      <trkpt lat="44.60151" lon="5.45881">
        <ele>598.9</ele>
        <time>2022-10-28T09:42:29Z</time>
      </trkpt>
      <trkpt lat="44.60151" lon="5.45881">
        <ele>598.9</ele>
        <time>2022-10-28T09:42:30Z</time>
      </trkpt>
      <trkpt lat="44.60152" lon="5.45881">
        <ele>598.9</ele>
        <time>2022-10-28T09:42:31Z</time>
      </trkpt>
      <trkpt lat="44.60152" lon="5.45881">
        <ele>598.9</ele>
        <time>2022-10-28T09:42:32Z</time>
      </trkpt>
      <trkpt lat="44.60153" lon="5.45882">
        <ele>598.9</ele>
        <time>2022-10-28T09:42:33Z</time>
      </trkpt>
      <trkpt lat="44.60153" lon="5.45882">
        <ele>598.9</ele>
        <time>2022-10-28T09:42:34Z</time>
      </trkpt>
      <trkpt lat="44.60153" lon="5.45882">
        <ele>598.9</ele>
        <time>2022-10-28T09:42:35Z</time>
      </trkpt>
      <trkpt lat="44.60153" lon="5.45882">
        <ele>598.9</ele>
        <time>2022-10-28T09:42:36Z</time>
      </trkpt>
      <trkpt lat="44.60148" lon="5.45877">
        <ele>598.8</ele>
        <time>2022-10-28T09:43:55Z</time>
      </trkpt>
      <trkpt lat="44.60146" lon="5.45874">
        <ele>598.8</ele>
        <time>2022-10-28T09:43:56Z</time>
      </trkpt>
      <trkpt lat="44.60144" lon="5.45871">
        <ele>598.8</ele>
        <time>2022-10-28T09:43:57Z</time>
      </trkpt>
      <trkpt lat="44.60141" lon="5.45867">
        <ele>598.8</ele>
        <time>2022-10-28T09:43:58Z</time>
      </trkpt>
      <trkpt lat="44.60138" lon="5.45864">
        <ele>598.8</ele>
        <time>2022-10-28T09:43:59Z</time>
      </trkpt>
      <trkpt lat="44.60138" lon="5.45863">
        <ele>598.8</ele>
        <time>2022-10-28T09:44:00Z</time>
      </trkpt>
      <trkpt lat="44.60137" lon="5.45861">
        <ele>598.8</ele>
        <time>2022-10-28T09:44:01Z</time>
      </trkpt>
      <trkpt lat="44.60131" lon="5.45855">
        <ele>598.8</ele>
        <time>2022-10-28T09:44:03Z</time>
      </trkpt>
      <trkpt lat="44.60127" lon="5.4585">
        <ele>598.7</ele>
        <time>2022-10-28T09:44:04Z</time>
      </trkpt>
      <trkpt lat="44.60124" lon="5.45846">
        <ele>598.7</ele>
        <time>2022-10-28T09:44:05Z</time>
      </trkpt>
      <trkpt lat="44.6012" lon="5.45842">
        <ele>598.6</ele>
        <time>2022-10-28T09:44:06Z</time>
      </trkpt>
      <trkpt lat="44.60117" lon="5.45839">
        <ele>598.5</ele>
        <time>2022-10-28T09:44:07Z</time>
      </trkpt>
      <trkpt lat="44.60112" lon="5.45836">
        <ele>598.4</ele>
        <time>2022-10-28T09:44:09Z</time>
      </trkpt>
      <trkpt lat="44.60104" lon="5.45833">
        <ele>598.3</ele>
        <time>2022-10-28T09:44:10Z</time>
      </trkpt>
      <trkpt lat="44.60098" lon="5.45833">
        <ele>598.2</ele>
        <time>2022-10-28T09:44:11Z</time>
      </trkpt>
      <trkpt lat="44.60091" lon="5.45834">
        <ele>598.1</ele>
        <time>2022-10-28T09:44:12Z</time>
      </trkpt>
      <trkpt lat="44.60086" lon="5.45834">
        <ele>598</ele>
        <time>2022-10-28T09:44:13Z</time>
      </trkpt>
      <trkpt lat="44.60081" lon="5.45834">
        <ele>598</ele>
        <time>2022-10-28T09:44:14Z</time>
      </trkpt>
      <trkpt lat="44.60075" lon="5.45835">
        <ele>597.9</ele>
        <time>2022-10-28T09:44:15Z</time>
      </trkpt>
      <trkpt lat="44.6007" lon="5.45836">
        <ele>597.9</ele>
        <time>2022-10-28T09:44:16Z</time>
      </trkpt>
      <trkpt lat="44.60064" lon="5.45837">
        <ele>597.8</ele>
        <time>2022-10-28T09:44:17Z</time>
      </trkpt>
      <trkpt lat="44.60059" lon="5.45839">
        <ele>597.8</ele>
        <time>2022-10-28T09:44:18Z</time>
      </trkpt>
      <trkpt lat="44.60054" lon="5.4584">
        <ele>597.8</ele>
        <time>2022-10-28T09:44:19Z</time>
      </trkpt>
      <trkpt lat="44.60049" lon="5.45842">
        <ele>597.8</ele>
        <time>2022-10-28T09:44:20Z</time>
      </trkpt>
      <trkpt lat="44.60044" lon="5.45843">
        <ele>597.8</ele>
        <time>2022-10-28T09:44:21Z</time>
      </trkpt>
      <trkpt lat="44.60039" lon="5.45845">
        <ele>597.8</ele>
        <time>2022-10-28T09:44:22Z</time>
      </trkpt>
      <trkpt lat="44.60036" lon="5.45845">
        <ele>597.8</ele>
        <time>2022-10-28T09:44:23Z</time>
      </trkpt>
      <trkpt lat="44.6003" lon="5.45852">
        <ele>597.8</ele>
        <time>2022-10-28T09:44:24Z</time>
      </trkpt>
      <trkpt lat="44.60025" lon="5.45857">
        <ele>597.8</ele>
        <time>2022-10-28T09:44:25Z</time>
      </trkpt>
      <trkpt lat="44.6002" lon="5.45861">
        <ele>597.8</ele>
        <time>2022-10-28T09:44:26Z</time>
      </trkpt>
      <trkpt lat="44.60016" lon="5.45866">
        <ele>597.8</ele>
        <time>2022-10-28T09:44:27Z</time>
      </trkpt>
      <trkpt lat="44.60012" lon="5.4587">
        <ele>597.8</ele>
        <time>2022-10-28T09:44:28Z</time>
      </trkpt>
      <trkpt lat="44.60008" lon="5.45874">
        <ele>597.8</ele>
        <time>2022-10-28T09:44:29Z</time>
      </trkpt>
      <trkpt lat="44.60005" lon="5.45878">
        <ele>597.8</ele>
        <time>2022-10-28T09:44:30Z</time>
      </trkpt>
      <trkpt lat="44.6" lon="5.45883">
        <ele>597.8</ele>
        <time>2022-10-28T09:44:32Z</time>
      </trkpt>
      <trkpt lat="44.59998" lon="5.45885">
        <ele>597.8</ele>
        <time>2022-10-28T09:44:33Z</time>
      </trkpt>
      <trkpt lat="44.59988" lon="5.4589">
        <ele>597.9</ele>
        <time>2022-10-28T09:44:34Z</time>
      </trkpt>
      <trkpt lat="44.59984" lon="5.45893">
        <ele>597.9</ele>
        <time>2022-10-28T09:44:35Z</time>
      </trkpt>
      <trkpt lat="44.59979" lon="5.45893">
        <ele>598</ele>
        <time>2022-10-28T09:44:37Z</time>
      </trkpt>
      <trkpt lat="44.59973" lon="5.45894">
        <ele>598.1</ele>
        <time>2022-10-28T09:44:38Z</time>
      </trkpt>
      <trkpt lat="44.59969" lon="5.45895">
        <ele>598.1</ele>
        <time>2022-10-28T09:44:39Z</time>
      </trkpt>
      <trkpt lat="44.59962" lon="5.45897">
        <ele>598.2</ele>
        <time>2022-10-28T09:44:40Z</time>
      </trkpt>
      <trkpt lat="44.59959" lon="5.45898">
        <ele>598.3</ele>
        <time>2022-10-28T09:44:41Z</time>
      </trkpt>
      <trkpt lat="44.59955" lon="5.459">
        <ele>598.4</ele>
        <time>2022-10-28T09:44:42Z</time>
      </trkpt>
      <trkpt lat="44.59951" lon="5.45901">
        <ele>598.4</ele>
        <time>2022-10-28T09:44:43Z</time>
      </trkpt>
      <trkpt lat="44.59947" lon="5.45902">
        <ele>598.5</ele>
        <time>2022-10-28T09:44:44Z</time>
      </trkpt>
      <trkpt lat="44.59943" lon="5.45903">
        <ele>598.6</ele>
        <time>2022-10-28T09:44:45Z</time>
      </trkpt>
      <trkpt lat="44.59937" lon="5.45903">
        <ele>598.7</ele>
        <time>2022-10-28T09:44:47Z</time>
      </trkpt>
      <trkpt lat="44.59931" lon="5.45904">
        <ele>598.9</ele>
        <time>2022-10-28T09:44:48Z</time>
      </trkpt>
      <trkpt lat="44.59927" lon="5.45903">
        <ele>598.9</ele>
        <time>2022-10-28T09:44:49Z</time>
      </trkpt>
      <trkpt lat="44.59923" lon="5.45903">
        <ele>599</ele>
        <time>2022-10-28T09:44:50Z</time>
      </trkpt>
      <trkpt lat="44.59918" lon="5.45902">
        <ele>599.2</ele>
        <time>2022-10-28T09:44:51Z</time>
      </trkpt>
      <trkpt lat="44.59914" lon="5.45901">
        <ele>599.3</ele>
        <time>2022-10-28T09:44:53Z</time>
      </trkpt>
      <trkpt lat="44.59908" lon="5.459">
        <ele>599.4</ele>
        <time>2022-10-28T09:44:54Z</time>
      </trkpt>
      <trkpt lat="44.59905" lon="5.45898">
        <ele>599.5</ele>
        <time>2022-10-28T09:44:55Z</time>
      </trkpt>
      <trkpt lat="44.59901" lon="5.45898">
        <ele>599.5</ele>
        <time>2022-10-28T09:44:56Z</time>
      </trkpt>
      <trkpt lat="44.59897" lon="5.45896">
        <ele>599.5</ele>
        <time>2022-10-28T09:44:57Z</time>
      </trkpt>
      <trkpt lat="44.59892" lon="5.45895">
        <ele>599.5</ele>
        <time>2022-10-28T09:44:59Z</time>
      </trkpt>
      <trkpt lat="44.59887" lon="5.45894">
        <ele>599.4</ele>
        <time>2022-10-28T09:45:00Z</time>
      </trkpt>
      <trkpt lat="44.59883" lon="5.45894">
        <ele>599.4</ele>
        <time>2022-10-28T09:45:01Z</time>
      </trkpt>
      <trkpt lat="44.59878" lon="5.45894">
        <ele>599.4</ele>
        <time>2022-10-28T09:45:03Z</time>
      </trkpt>
      <trkpt lat="44.59874" lon="5.45894">
        <ele>599.6</ele>
        <time>2022-10-28T09:45:04Z</time>
      </trkpt>
      <trkpt lat="44.5987" lon="5.45893">
        <ele>599.7</ele>
        <time>2022-10-28T09:45:05Z</time>
      </trkpt>
      <trkpt lat="44.59867" lon="5.45893">
        <ele>599.8</ele>
        <time>2022-10-28T09:45:06Z</time>
      </trkpt>
      <trkpt lat="44.59862" lon="5.45892">
        <ele>600</ele>
        <time>2022-10-28T09:45:08Z</time>
      </trkpt>
      <trkpt lat="44.59858" lon="5.45892">
        <ele>600.2</ele>
        <time>2022-10-28T09:45:09Z</time>
      </trkpt>
      <trkpt lat="44.59855" lon="5.45892">
        <ele>600.3</ele>
        <time>2022-10-28T09:45:10Z</time>
      </trkpt>
      <trkpt lat="44.59851" lon="5.45891">
        <ele>600.5</ele>
        <time>2022-10-28T09:45:12Z</time>
      </trkpt>
      <trkpt lat="44.59848" lon="5.45892">
        <ele>600.7</ele>
        <time>2022-10-28T09:45:13Z</time>
      </trkpt>
      <trkpt lat="44.59844" lon="5.45894">
        <ele>600.8</ele>
        <time>2022-10-28T09:45:14Z</time>
      </trkpt>
      <trkpt lat="44.5984" lon="5.45896">
        <ele>601</ele>
        <time>2022-10-28T09:45:16Z</time>
      </trkpt>
      <trkpt lat="44.59836" lon="5.45897">
        <ele>601.2</ele>
        <time>2022-10-28T09:45:17Z</time>
      </trkpt>
      <trkpt lat="44.59833" lon="5.45899">
        <ele>601.4</ele>
        <time>2022-10-28T09:45:18Z</time>
      </trkpt>
      <trkpt lat="44.5983" lon="5.45901">
        <ele>601.5</ele>
        <time>2022-10-28T09:45:19Z</time>
      </trkpt>
      <trkpt lat="44.59827" lon="5.45903">
        <ele>601.7</ele>
        <time>2022-10-28T09:45:21Z</time>
      </trkpt>
      <trkpt lat="44.59824" lon="5.45905">
        <ele>601.9</ele>
        <time>2022-10-28T09:45:22Z</time>
      </trkpt>
      <trkpt lat="44.59821" lon="5.45907">
        <ele>602</ele>
        <time>2022-10-28T09:45:23Z</time>
      </trkpt>
      <trkpt lat="44.59817" lon="5.4591">
        <ele>602.2</ele>
        <time>2022-10-28T09:45:24Z</time>
      </trkpt>
      <trkpt lat="44.59814" lon="5.45912">
        <ele>602.4</ele>
        <time>2022-10-28T09:45:25Z</time>
      </trkpt>
      <trkpt lat="44.59809" lon="5.45917">
        <ele>602.7</ele>
        <time>2022-10-28T09:45:27Z</time>
      </trkpt>
      <trkpt lat="44.59806" lon="5.45921">
        <ele>602.9</ele>
        <time>2022-10-28T09:45:28Z</time>
      </trkpt>
      <trkpt lat="44.59803" lon="5.45925">
        <ele>603.1</ele>
        <time>2022-10-28T09:45:29Z</time>
      </trkpt>
      <trkpt lat="44.598" lon="5.45928">
        <ele>603.3</ele>
        <time>2022-10-28T09:45:30Z</time>
      </trkpt>
      <trkpt lat="44.59797" lon="5.45932">
        <ele>603.5</ele>
        <time>2022-10-28T09:45:31Z</time>
      </trkpt>
      <trkpt lat="44.59795" lon="5.45937">
        <ele>603.7</ele>
        <time>2022-10-28T09:45:32Z</time>
      </trkpt>
      <trkpt lat="44.59794" lon="5.45939">
        <ele>603.8</ele>
        <time>2022-10-28T09:45:33Z</time>
      </trkpt>
      <trkpt lat="44.59793" lon="5.45943">
        <ele>603.9</ele>
        <time>2022-10-28T09:45:34Z</time>
      </trkpt>
      <trkpt lat="44.59792" lon="5.45946">
        <ele>604</ele>
        <time>2022-10-28T09:45:35Z</time>
      </trkpt>
      <trkpt lat="44.59791" lon="5.45949">
        <ele>604.2</ele>
        <time>2022-10-28T09:45:36Z</time>
      </trkpt>
      <trkpt lat="44.59789" lon="5.45953">
        <ele>604.3</ele>
        <time>2022-10-28T09:45:37Z</time>
      </trkpt>
      <trkpt lat="44.59787" lon="5.4596">
        <ele>604.6</ele>
        <time>2022-10-28T09:45:39Z</time>
      </trkpt>
      <trkpt lat="44.59787" lon="5.45965">
        <ele>604.8</ele>
        <time>2022-10-28T09:45:40Z</time>
      </trkpt>
      <trkpt lat="44.59785" lon="5.4597">
        <ele>605</ele>
        <time>2022-10-28T09:45:42Z</time>
      </trkpt>
      <trkpt lat="44.59785" lon="5.45972">
        <ele>605</ele>
        <time>2022-10-28T09:45:43Z</time>
      </trkpt>
      <trkpt lat="44.59784" lon="5.45976">
        <ele>605.2</ele>
        <time>2022-10-28T09:45:44Z</time>
      </trkpt>
      <trkpt lat="44.59783" lon="5.4598">
        <ele>605.4</ele>
        <time>2022-10-28T09:45:45Z</time>
      </trkpt>
      <trkpt lat="44.59782" lon="5.45981">
        <ele>605.4</ele>
        <time>2022-10-28T09:45:46Z</time>
      </trkpt>
      <trkpt lat="44.59782" lon="5.45987">
        <ele>605.6</ele>
        <time>2022-10-28T09:45:47Z</time>
      </trkpt>
      <trkpt lat="44.59781" lon="5.45988">
        <ele>605.7</ele>
        <time>2022-10-28T09:45:48Z</time>
      </trkpt>
      <trkpt lat="44.59781" lon="5.45993">
        <ele>605.8</ele>
        <time>2022-10-28T09:45:49Z</time>
      </trkpt>
      <trkpt lat="44.59781" lon="5.45995">
        <ele>605.9</ele>
        <time>2022-10-28T09:45:50Z</time>
      </trkpt>
      <trkpt lat="44.59781" lon="5.45998">
        <ele>606</ele>
        <time>2022-10-28T09:45:51Z</time>
      </trkpt>
      <trkpt lat="44.5978" lon="5.46003">
        <ele>606.1</ele>
        <time>2022-10-28T09:45:53Z</time>
      </trkpt>
      <trkpt lat="44.5978" lon="5.46009">
        <ele>606.4</ele>
        <time>2022-10-28T09:45:54Z</time>
      </trkpt>
      <trkpt lat="44.5978" lon="5.46012">
        <ele>606.5</ele>
        <time>2022-10-28T09:45:55Z</time>
      </trkpt>
      <trkpt lat="44.5978" lon="5.46017">
        <ele>606.6</ele>
        <time>2022-10-28T09:45:56Z</time>
      </trkpt>
      <trkpt lat="44.59781" lon="5.46021">
        <ele>606.8</ele>
        <time>2022-10-28T09:45:57Z</time>
      </trkpt>
      <trkpt lat="44.59781" lon="5.46026">
        <ele>606.9</ele>
        <time>2022-10-28T09:45:58Z</time>
      </trkpt>
      <trkpt lat="44.59781" lon="5.46033">
        <ele>607.1</ele>
        <time>2022-10-28T09:46:00Z</time>
      </trkpt>
      <trkpt lat="44.59781" lon="5.46038">
        <ele>607.3</ele>
        <time>2022-10-28T09:46:01Z</time>
      </trkpt>
      <trkpt lat="44.59781" lon="5.46043">
        <ele>607.5</ele>
        <time>2022-10-28T09:46:02Z</time>
      </trkpt>
      <trkpt lat="44.59782" lon="5.46045">
        <ele>607.5</ele>
        <time>2022-10-28T09:46:03Z</time>
      </trkpt>
      <trkpt lat="44.59782" lon="5.46051">
        <ele>607.7</ele>
        <time>2022-10-28T09:46:05Z</time>
      </trkpt>
      <trkpt lat="44.59782" lon="5.46057">
        <ele>607.9</ele>
        <time>2022-10-28T09:46:06Z</time>
      </trkpt>
      <trkpt lat="44.59782" lon="5.46061">
        <ele>608</ele>
        <time>2022-10-28T09:46:07Z</time>
      </trkpt>
      <trkpt lat="44.59782" lon="5.46065">
        <ele>608.1</ele>
        <time>2022-10-28T09:46:08Z</time>
      </trkpt>
      <trkpt lat="44.59782" lon="5.46069">
        <ele>608.3</ele>
        <time>2022-10-28T09:46:09Z</time>
      </trkpt>
      <trkpt lat="44.59783" lon="5.46075">
        <ele>608.5</ele>
        <time>2022-10-28T09:46:10Z</time>
      </trkpt>
      <trkpt lat="44.59783" lon="5.46077">
        <ele>608.5</ele>
        <time>2022-10-28T09:46:11Z</time>
      </trkpt>
      <trkpt lat="44.59783" lon="5.46083">
        <ele>608.7</ele>
        <time>2022-10-28T09:46:12Z</time>
      </trkpt>
      <trkpt lat="44.59783" lon="5.46085">
        <ele>608.8</ele>
        <time>2022-10-28T09:46:13Z</time>
      </trkpt>
      <trkpt lat="44.59784" lon="5.46089">
        <ele>608.9</ele>
        <time>2022-10-28T09:46:14Z</time>
      </trkpt>
      <trkpt lat="44.59784" lon="5.46094">
        <ele>609.1</ele>
        <time>2022-10-28T09:46:16Z</time>
      </trkpt>
      <trkpt lat="44.59784" lon="5.461">
        <ele>609.3</ele>
        <time>2022-10-28T09:46:17Z</time>
      </trkpt>
      <trkpt lat="44.59785" lon="5.46105">
        <ele>609.5</ele>
        <time>2022-10-28T09:46:18Z</time>
      </trkpt>
      <trkpt lat="44.59785" lon="5.46107">
        <ele>609.6</ele>
        <time>2022-10-28T09:46:19Z</time>
      </trkpt>
      <trkpt lat="44.59785" lon="5.46112">
        <ele>609.7</ele>
        <time>2022-10-28T09:46:21Z</time>
      </trkpt>
      <trkpt lat="44.59785" lon="5.46116">
        <ele>609.9</ele>
        <time>2022-10-28T09:46:22Z</time>
      </trkpt>
      <trkpt lat="44.59785" lon="5.46121">
        <ele>610</ele>
        <time>2022-10-28T09:46:23Z</time>
      </trkpt>
      <trkpt lat="44.59785" lon="5.46123">
        <ele>610.1</ele>
        <time>2022-10-28T09:46:24Z</time>
      </trkpt>
      <trkpt lat="44.59786" lon="5.46127">
        <ele>610.2</ele>
        <time>2022-10-28T09:46:25Z</time>
      </trkpt>
      <trkpt lat="44.59786" lon="5.4613">
        <ele>610.3</ele>
        <time>2022-10-28T09:46:26Z</time>
      </trkpt>
      <trkpt lat="44.59786" lon="5.46134">
        <ele>610.4</ele>
        <time>2022-10-28T09:46:28Z</time>
      </trkpt>
      <trkpt lat="44.59787" lon="5.46139">
        <ele>610.6</ele>
        <time>2022-10-28T09:46:29Z</time>
      </trkpt>
      <trkpt lat="44.59787" lon="5.46142">
        <ele>610.7</ele>
        <time>2022-10-28T09:46:30Z</time>
      </trkpt>
      <trkpt lat="44.59788" lon="5.46147">
        <ele>610.9</ele>
        <time>2022-10-28T09:46:31Z</time>
      </trkpt>
      <trkpt lat="44.59788" lon="5.46148">
        <ele>611</ele>
        <time>2022-10-28T09:46:32Z</time>
      </trkpt>
      <trkpt lat="44.59788" lon="5.46153">
        <ele>611.1</ele>
        <time>2022-10-28T09:46:34Z</time>
      </trkpt>
      <trkpt lat="44.59789" lon="5.46158">
        <ele>611.3</ele>
        <time>2022-10-28T09:46:35Z</time>
      </trkpt>
      <trkpt lat="44.59789" lon="5.46163">
        <ele>611.5</ele>
        <time>2022-10-28T09:46:37Z</time>
      </trkpt>
      <trkpt lat="44.5979" lon="5.46168">
        <ele>611.7</ele>
        <time>2022-10-28T09:46:38Z</time>
      </trkpt>
      <trkpt lat="44.5979" lon="5.4617">
        <ele>611.8</ele>
        <time>2022-10-28T09:46:39Z</time>
      </trkpt>
      <trkpt lat="44.5979" lon="5.46174">
        <ele>611.9</ele>
        <time>2022-10-28T09:46:40Z</time>
      </trkpt>
      <trkpt lat="44.5979" lon="5.46179">
        <ele>612.1</ele>
        <time>2022-10-28T09:46:41Z</time>
      </trkpt>
      <trkpt lat="44.5979" lon="5.46181">
        <ele>612.1</ele>
        <time>2022-10-28T09:46:42Z</time>
      </trkpt>
      <trkpt lat="44.59791" lon="5.46185">
        <ele>612.3</ele>
        <time>2022-10-28T09:46:43Z</time>
      </trkpt>
      <trkpt lat="44.59791" lon="5.46187">
        <ele>612.3</ele>
        <time>2022-10-28T09:46:44Z</time>
      </trkpt>
      <trkpt lat="44.59792" lon="5.46192">
        <ele>612.5</ele>
        <time>2022-10-28T09:46:46Z</time>
      </trkpt>
      <trkpt lat="44.59792" lon="5.46196">
        <ele>612.6</ele>
        <time>2022-10-28T09:46:47Z</time>
      </trkpt>
      <trkpt lat="44.59793" lon="5.46202">
        <ele>612.9</ele>
        <time>2022-10-28T09:46:48Z</time>
      </trkpt>
      <trkpt lat="44.59793" lon="5.46205">
        <ele>612.9</ele>
        <time>2022-10-28T09:46:49Z</time>
      </trkpt>
      <trkpt lat="44.59794" lon="5.46208">
        <ele>613</ele>
        <time>2022-10-28T09:46:50Z</time>
      </trkpt>
      <trkpt lat="44.59794" lon="5.46213">
        <ele>613.2</ele>
        <time>2022-10-28T09:46:52Z</time>
      </trkpt>
      <trkpt lat="44.59795" lon="5.46218">
        <ele>613.4</ele>
        <time>2022-10-28T09:46:53Z</time>
      </trkpt>
      <trkpt lat="44.59796" lon="5.46221">
        <ele>613.5</ele>
        <time>2022-10-28T09:46:54Z</time>
      </trkpt>
      <trkpt lat="44.59797" lon="5.46225">
        <ele>613.6</ele>
        <time>2022-10-28T09:46:55Z</time>
      </trkpt>
      <trkpt lat="44.598" lon="5.46231">
        <ele>613.9</ele>
        <time>2022-10-28T09:46:57Z</time>
      </trkpt>
      <trkpt lat="44.59802" lon="5.46235">
        <ele>614</ele>
        <time>2022-10-28T09:46:58Z</time>
      </trkpt>
      <trkpt lat="44.59803" lon="5.46238">
        <ele>614.1</ele>
        <time>2022-10-28T09:46:59Z</time>
      </trkpt>
      <trkpt lat="44.59805" lon="5.46241">
        <ele>614.2</ele>
        <time>2022-10-28T09:47:01Z</time>
      </trkpt>
      <trkpt lat="44.59807" lon="5.46246">
        <ele>614.4</ele>
        <time>2022-10-28T09:47:02Z</time>
      </trkpt>
      <trkpt lat="44.59809" lon="5.4625">
        <ele>614.6</ele>
        <time>2022-10-28T09:47:03Z</time>
      </trkpt>
      <trkpt lat="44.5981" lon="5.46251">
        <ele>614.6</ele>
        <time>2022-10-28T09:47:04Z</time>
      </trkpt>
      <trkpt lat="44.59812" lon="5.46254">
        <ele>614.7</ele>
        <time>2022-10-28T09:47:05Z</time>
      </trkpt>
      <trkpt lat="44.59815" lon="5.46257">
        <ele>614.9</ele>
        <time>2022-10-28T09:47:06Z</time>
      </trkpt>
      <trkpt lat="44.59815" lon="5.46259">
        <ele>615</ele>
        <time>2022-10-28T09:47:07Z</time>
      </trkpt>
      <trkpt lat="44.59818" lon="5.46263">
        <ele>615.1</ele>
        <time>2022-10-28T09:47:08Z</time>
      </trkpt>
      <trkpt lat="44.59818" lon="5.46264">
        <ele>615.2</ele>
        <time>2022-10-28T09:47:09Z</time>
      </trkpt>
      <trkpt lat="44.59821" lon="5.46268">
        <ele>615.4</ele>
        <time>2022-10-28T09:47:10Z</time>
      </trkpt>
      <trkpt lat="44.59823" lon="5.46271">
        <ele>615.5</ele>
        <time>2022-10-28T09:47:11Z</time>
      </trkpt>
      <trkpt lat="44.59826" lon="5.46276">
        <ele>615.7</ele>
        <time>2022-10-28T09:47:13Z</time>
      </trkpt>
      <trkpt lat="44.59828" lon="5.46279">
        <ele>615.9</ele>
        <time>2022-10-28T09:47:15Z</time>
      </trkpt>
      <trkpt lat="44.5983" lon="5.46283">
        <ele>616.1</ele>
        <time>2022-10-28T09:47:16Z</time>
      </trkpt>
      <trkpt lat="44.59832" lon="5.46285">
        <ele>616.2</ele>
        <time>2022-10-28T09:47:17Z</time>
      </trkpt>
      <trkpt lat="44.59835" lon="5.46289">
        <ele>616.4</ele>
        <time>2022-10-28T09:47:18Z</time>
      </trkpt>
      <trkpt lat="44.59836" lon="5.4629">
        <ele>616.5</ele>
        <time>2022-10-28T09:47:19Z</time>
      </trkpt>
      <trkpt lat="44.59839" lon="5.46294">
        <ele>616.7</ele>
        <time>2022-10-28T09:47:20Z</time>
      </trkpt>
      <trkpt lat="44.5984" lon="5.46295">
        <ele>616.8</ele>
        <time>2022-10-28T09:47:21Z</time>
      </trkpt>
      <trkpt lat="44.59842" lon="5.46297">
        <ele>616.9</ele>
        <time>2022-10-28T09:47:22Z</time>
      </trkpt>
      <trkpt lat="44.59845" lon="5.46302">
        <ele>617.1</ele>
        <time>2022-10-28T09:47:24Z</time>
      </trkpt>
      <trkpt lat="44.59849" lon="5.46305">
        <ele>617.3</ele>
        <time>2022-10-28T09:47:25Z</time>
      </trkpt>
      <trkpt lat="44.5985" lon="5.46307">
        <ele>617.4</ele>
        <time>2022-10-28T09:47:26Z</time>
      </trkpt>
      <trkpt lat="44.59852" lon="5.46311">
        <ele>617.6</ele>
        <time>2022-10-28T09:47:28Z</time>
      </trkpt>
      <trkpt lat="44.59855" lon="5.46314">
        <ele>617.7</ele>
        <time>2022-10-28T09:47:29Z</time>
      </trkpt>
      <trkpt lat="44.59857" lon="5.46317">
        <ele>617.9</ele>
        <time>2022-10-28T09:47:31Z</time>
      </trkpt>
      <trkpt lat="44.5986" lon="5.4632">
        <ele>618</ele>
        <time>2022-10-28T09:47:32Z</time>
      </trkpt>
      <trkpt lat="44.59862" lon="5.46322">
        <ele>618.2</ele>
        <time>2022-10-28T09:47:33Z</time>
      </trkpt>
      <trkpt lat="44.59865" lon="5.46325">
        <ele>618.3</ele>
        <time>2022-10-28T09:47:34Z</time>
      </trkpt>
      <trkpt lat="44.59868" lon="5.46328">
        <ele>618.5</ele>
        <time>2022-10-28T09:47:35Z</time>
      </trkpt>
      <trkpt lat="44.5987" lon="5.46331">
        <ele>618.6</ele>
        <time>2022-10-28T09:47:36Z</time>
      </trkpt>
      <trkpt lat="44.59872" lon="5.46333">
        <ele>618.7</ele>
        <time>2022-10-28T09:47:37Z</time>
      </trkpt>
      <trkpt lat="44.59874" lon="5.46336">
        <ele>618.9</ele>
        <time>2022-10-28T09:47:38Z</time>
      </trkpt>
      <trkpt lat="44.59878" lon="5.4634">
        <ele>619.1</ele>
        <time>2022-10-28T09:47:39Z</time>
      </trkpt>
      <trkpt lat="44.59879" lon="5.46341">
        <ele>619.1</ele>
        <time>2022-10-28T09:47:40Z</time>
      </trkpt>
      <trkpt lat="44.59882" lon="5.46344">
        <ele>619.3</ele>
        <time>2022-10-28T09:47:41Z</time>
      </trkpt>
      <trkpt lat="44.59883" lon="5.46344">
        <ele>619.4</ele>
        <time>2022-10-28T09:47:42Z</time>
      </trkpt>
      <trkpt lat="44.59886" lon="5.46346">
        <ele>619.5</ele>
        <time>2022-10-28T09:47:43Z</time>
      </trkpt>
      <trkpt lat="44.5989" lon="5.46349">
        <ele>619.7</ele>
        <time>2022-10-28T09:47:45Z</time>
      </trkpt>
      <trkpt lat="44.59894" lon="5.46351">
        <ele>619.9</ele>
        <time>2022-10-28T09:47:46Z</time>
      </trkpt>
      <trkpt lat="44.59896" lon="5.46352">
        <ele>620</ele>
        <time>2022-10-28T09:47:47Z</time>
      </trkpt>
      <trkpt lat="44.59899" lon="5.46353">
        <ele>620.1</ele>
        <time>2022-10-28T09:47:48Z</time>
      </trkpt>
      <trkpt lat="44.59903" lon="5.46355">
        <ele>620.4</ele>
        <time>2022-10-28T09:47:49Z</time>
      </trkpt>
      <trkpt lat="44.59904" lon="5.46356">
        <ele>620.4</ele>
        <time>2022-10-28T09:47:50Z</time>
      </trkpt>
      <trkpt lat="44.59907" lon="5.46357">
        <ele>620.6</ele>
        <time>2022-10-28T09:47:51Z</time>
      </trkpt>
      <trkpt lat="44.5991" lon="5.46359">
        <ele>620.7</ele>
        <time>2022-10-28T09:47:52Z</time>
      </trkpt>
      <trkpt lat="44.59912" lon="5.4636">
        <ele>620.9</ele>
        <time>2022-10-28T09:47:53Z</time>
      </trkpt>
      <trkpt lat="44.59915" lon="5.46361">
        <ele>621</ele>
        <time>2022-10-28T09:47:54Z</time>
      </trkpt>
      <trkpt lat="44.59921" lon="5.46361">
        <ele>621.2</ele>
        <time>2022-10-28T09:47:56Z</time>
      </trkpt>
      <trkpt lat="44.59923" lon="5.46361">
        <ele>621.4</ele>
        <time>2022-10-28T09:47:57Z</time>
      </trkpt>
      <trkpt lat="44.59927" lon="5.46362">
        <ele>621.5</ele>
        <time>2022-10-28T09:47:58Z</time>
      </trkpt>
      <trkpt lat="44.59929" lon="5.46362">
        <ele>621.7</ele>
        <time>2022-10-28T09:47:59Z</time>
      </trkpt>
      <trkpt lat="44.59935" lon="5.46362">
        <ele>622</ele>
        <time>2022-10-28T09:48:01Z</time>
      </trkpt>
      <trkpt lat="44.59938" lon="5.46361">
        <ele>622.1</ele>
        <time>2022-10-28T09:48:02Z</time>
      </trkpt>
      <trkpt lat="44.59942" lon="5.46361">
        <ele>622.3</ele>
        <time>2022-10-28T09:48:04Z</time>
      </trkpt>
      <trkpt lat="44.59947" lon="5.4636">
        <ele>622.6</ele>
        <time>2022-10-28T09:48:05Z</time>
      </trkpt>
      <trkpt lat="44.5995" lon="5.46359">
        <ele>622.8</ele>
        <time>2022-10-28T09:48:06Z</time>
      </trkpt>
      <trkpt lat="44.59953" lon="5.46358">
        <ele>622.9</ele>
        <time>2022-10-28T09:48:07Z</time>
      </trkpt>
      <trkpt lat="44.59957" lon="5.46357">
        <ele>623.1</ele>
        <time>2022-10-28T09:48:08Z</time>
      </trkpt>
      <trkpt lat="44.59958" lon="5.46357">
        <ele>623.2</ele>
        <time>2022-10-28T09:48:09Z</time>
      </trkpt>
      <trkpt lat="44.59961" lon="5.46356">
        <ele>623.3</ele>
        <time>2022-10-28T09:48:10Z</time>
      </trkpt>
      <trkpt lat="44.59964" lon="5.46354">
        <ele>623.5</ele>
        <time>2022-10-28T09:48:11Z</time>
      </trkpt>
      <trkpt lat="44.59967" lon="5.46352">
        <ele>623.7</ele>
        <time>2022-10-28T09:48:13Z</time>
      </trkpt>
      <trkpt lat="44.59971" lon="5.46351">
        <ele>623.8</ele>
        <time>2022-10-28T09:48:14Z</time>
      </trkpt>
      <trkpt lat="44.59973" lon="5.4635">
        <ele>624</ele>
        <time>2022-10-28T09:48:15Z</time>
      </trkpt>
      <trkpt lat="44.59976" lon="5.46349">
        <ele>624.1</ele>
        <time>2022-10-28T09:48:16Z</time>
      </trkpt>
      <trkpt lat="44.59979" lon="5.46347">
        <ele>624.3</ele>
        <time>2022-10-28T09:48:17Z</time>
      </trkpt>
      <trkpt lat="44.59984" lon="5.46346">
        <ele>624.5</ele>
        <time>2022-10-28T09:48:19Z</time>
      </trkpt>
      <trkpt lat="44.59987" lon="5.46344">
        <ele>624.7</ele>
        <time>2022-10-28T09:48:20Z</time>
      </trkpt>
      <trkpt lat="44.59989" lon="5.46343">
        <ele>624.8</ele>
        <time>2022-10-28T09:48:21Z</time>
      </trkpt>
      <trkpt lat="44.59991" lon="5.46342">
        <ele>624.9</ele>
        <time>2022-10-28T09:48:22Z</time>
      </trkpt>
      <trkpt lat="44.59994" lon="5.4634">
        <ele>625</ele>
        <time>2022-10-28T09:48:23Z</time>
      </trkpt>
      <trkpt lat="44.59995" lon="5.46339">
        <ele>625.1</ele>
        <time>2022-10-28T09:48:24Z</time>
      </trkpt>
      <trkpt lat="44.59998" lon="5.46338">
        <ele>625.2</ele>
        <time>2022-10-28T09:48:25Z</time>
      </trkpt>
      <trkpt lat="44.60001" lon="5.46336">
        <ele>625.4</ele>
        <time>2022-10-28T09:48:27Z</time>
      </trkpt>
      <trkpt lat="44.60005" lon="5.46335">
        <ele>625.6</ele>
        <time>2022-10-28T09:48:28Z</time>
      </trkpt>
      <trkpt lat="44.60008" lon="5.46333">
        <ele>625.7</ele>
        <time>2022-10-28T09:48:29Z</time>
      </trkpt>
      <trkpt lat="44.60012" lon="5.4633">
        <ele>626</ele>
        <time>2022-10-28T09:48:31Z</time>
      </trkpt>
      <trkpt lat="44.60015" lon="5.46329">
        <ele>626.1</ele>
        <time>2022-10-28T09:48:32Z</time>
      </trkpt>
      <trkpt lat="44.60018" lon="5.46327">
        <ele>626.3</ele>
        <time>2022-10-28T09:48:33Z</time>
      </trkpt>
      <trkpt lat="44.60019" lon="5.46326">
        <ele>626.3</ele>
        <time>2022-10-28T09:48:34Z</time>
      </trkpt>
      <trkpt lat="44.60022" lon="5.46324">
        <ele>626.5</ele>
        <time>2022-10-28T09:48:36Z</time>
      </trkpt>
      <trkpt lat="44.60026" lon="5.46321">
        <ele>626.7</ele>
        <time>2022-10-28T09:48:37Z</time>
      </trkpt>
      <trkpt lat="44.60029" lon="5.46319">
        <ele>626.9</ele>
        <time>2022-10-28T09:48:38Z</time>
      </trkpt>
      <trkpt lat="44.6003" lon="5.46318">
        <ele>626.9</ele>
        <time>2022-10-28T09:48:39Z</time>
      </trkpt>
      <trkpt lat="44.60033" lon="5.46316">
        <ele>627.1</ele>
        <time>2022-10-28T09:48:40Z</time>
      </trkpt>
      <trkpt lat="44.60036" lon="5.46314">
        <ele>627.2</ele>
        <time>2022-10-28T09:48:41Z</time>
      </trkpt>
      <trkpt lat="44.6004" lon="5.4631">
        <ele>627.5</ele>
        <time>2022-10-28T09:48:43Z</time>
      </trkpt>
      <trkpt lat="44.60043" lon="5.46306">
        <ele>627.7</ele>
        <time>2022-10-28T09:48:45Z</time>
      </trkpt>
      <trkpt lat="44.60046" lon="5.46304">
        <ele>627.9</ele>
        <time>2022-10-28T09:48:46Z</time>
      </trkpt>
      <trkpt lat="44.60049" lon="5.46301">
        <ele>628</ele>
        <time>2022-10-28T09:48:47Z</time>
      </trkpt>
      <trkpt lat="44.60051" lon="5.46298">
        <ele>628.1</ele>
        <time>2022-10-28T09:48:48Z</time>
      </trkpt>
      <trkpt lat="44.60053" lon="5.46295">
        <ele>628.3</ele>
        <time>2022-10-28T09:48:49Z</time>
      </trkpt>
      <trkpt lat="44.60055" lon="5.46291">
        <ele>628.4</ele>
        <time>2022-10-28T09:48:51Z</time>
      </trkpt>
      <trkpt lat="44.60057" lon="5.46288">
        <ele>628.6</ele>
        <time>2022-10-28T09:48:52Z</time>
      </trkpt>
      <trkpt lat="44.60059" lon="5.46284">
        <ele>628.7</ele>
        <time>2022-10-28T09:48:53Z</time>
      </trkpt>
      <trkpt lat="44.60061" lon="5.4628">
        <ele>628.9</ele>
        <time>2022-10-28T09:48:54Z</time>
      </trkpt>
      <trkpt lat="44.60063" lon="5.46277">
        <ele>629.1</ele>
        <time>2022-10-28T09:48:55Z</time>
      </trkpt>
      <trkpt lat="44.60065" lon="5.46273">
        <ele>629.2</ele>
        <time>2022-10-28T09:48:56Z</time>
      </trkpt>
      <trkpt lat="44.60067" lon="5.4627">
        <ele>629.4</ele>
        <time>2022-10-28T09:48:57Z</time>
      </trkpt>
      <trkpt lat="44.6007" lon="5.46266">
        <ele>629.6</ele>
        <time>2022-10-28T09:48:59Z</time>
      </trkpt>
      <trkpt lat="44.60072" lon="5.46262">
        <ele>629.8</ele>
        <time>2022-10-28T09:49:00Z</time>
      </trkpt>
      <trkpt lat="44.60075" lon="5.4626">
        <ele>630</ele>
        <time>2022-10-28T09:49:01Z</time>
      </trkpt>
      <trkpt lat="44.60077" lon="5.46257">
        <ele>630.1</ele>
        <time>2022-10-28T09:49:02Z</time>
      </trkpt>
      <trkpt lat="44.60081" lon="5.46254">
        <ele>630.3</ele>
        <time>2022-10-28T09:49:04Z</time>
      </trkpt>
      <trkpt lat="44.60083" lon="5.46252">
        <ele>630.5</ele>
        <time>2022-10-28T09:49:05Z</time>
      </trkpt>
      <trkpt lat="44.60087" lon="5.4625">
        <ele>630.7</ele>
        <time>2022-10-28T09:49:06Z</time>
      </trkpt>
      <trkpt lat="44.60088" lon="5.46249">
        <ele>630.7</ele>
        <time>2022-10-28T09:49:07Z</time>
      </trkpt>
      <trkpt lat="44.6009" lon="5.46248">
        <ele>630.9</ele>
        <time>2022-10-28T09:49:08Z</time>
      </trkpt>
      <trkpt lat="44.60093" lon="5.46246">
        <ele>631.1</ele>
        <time>2022-10-28T09:49:09Z</time>
      </trkpt>
      <trkpt lat="44.60094" lon="5.46245">
        <ele>631.1</ele>
        <time>2022-10-28T09:49:10Z</time>
      </trkpt>
      <trkpt lat="44.60097" lon="5.46243">
        <ele>631.3</ele>
        <time>2022-10-28T09:49:11Z</time>
      </trkpt>
      <trkpt lat="44.60101" lon="5.46241">
        <ele>631.5</ele>
        <time>2022-10-28T09:49:12Z</time>
      </trkpt>
      <trkpt lat="44.60103" lon="5.4624">
        <ele>631.6</ele>
        <time>2022-10-28T09:49:13Z</time>
      </trkpt>
      <trkpt lat="44.60107" lon="5.46238">
        <ele>631.8</ele>
        <time>2022-10-28T09:49:15Z</time>
      </trkpt>
      <trkpt lat="44.6011" lon="5.46235">
        <ele>632</ele>
        <time>2022-10-28T09:49:16Z</time>
      </trkpt>
      <trkpt lat="44.60111" lon="5.46235">
        <ele>632.1</ele>
        <time>2022-10-28T09:49:17Z</time>
      </trkpt>
      <trkpt lat="44.60114" lon="5.46232">
        <ele>632.3</ele>
        <time>2022-10-28T09:49:18Z</time>
      </trkpt>
      <trkpt lat="44.60115" lon="5.46231">
        <ele>632.3</ele>
        <time>2022-10-28T09:49:19Z</time>
      </trkpt>
      <trkpt lat="44.60118" lon="5.46229">
        <ele>632.5</ele>
        <time>2022-10-28T09:49:20Z</time>
      </trkpt>
      <trkpt lat="44.60119" lon="5.46228">
        <ele>632.6</ele>
        <time>2022-10-28T09:49:21Z</time>
      </trkpt>
      <trkpt lat="44.60123" lon="5.46225">
        <ele>632.8</ele>
        <time>2022-10-28T09:49:22Z</time>
      </trkpt>
      <trkpt lat="44.60124" lon="5.46224">
        <ele>632.9</ele>
        <time>2022-10-28T09:49:23Z</time>
      </trkpt>
      <trkpt lat="44.60126" lon="5.46223">
        <ele>633.1</ele>
        <time>2022-10-28T09:49:24Z</time>
      </trkpt>
      <trkpt lat="44.60129" lon="5.46221">
        <ele>633.2</ele>
        <time>2022-10-28T09:49:26Z</time>
      </trkpt>
      <trkpt lat="44.60132" lon="5.46219">
        <ele>633.4</ele>
        <time>2022-10-28T09:49:27Z</time>
      </trkpt>
      <trkpt lat="44.60134" lon="5.46218">
        <ele>633.6</ele>
        <time>2022-10-28T09:49:28Z</time>
      </trkpt>
      <trkpt lat="44.60137" lon="5.46217">
        <ele>633.7</ele>
        <time>2022-10-28T09:49:29Z</time>
      </trkpt>
      <trkpt lat="44.60141" lon="5.46217">
        <ele>634</ele>
        <time>2022-10-28T09:49:31Z</time>
      </trkpt>
      <trkpt lat="44.60143" lon="5.46217">
        <ele>634.1</ele>
        <time>2022-10-28T09:49:32Z</time>
      </trkpt>
      <trkpt lat="44.60144" lon="5.46217">
        <ele>634.2</ele>
        <time>2022-10-28T09:49:33Z</time>
      </trkpt>
      <trkpt lat="44.60148" lon="5.46217">
        <ele>634.4</ele>
        <time>2022-10-28T09:49:34Z</time>
      </trkpt>
      <trkpt lat="44.60149" lon="5.46216">
        <ele>634.4</ele>
        <time>2022-10-28T09:49:35Z</time>
      </trkpt>
      <trkpt lat="44.60152" lon="5.46216">
        <ele>634.6</ele>
        <time>2022-10-28T09:49:36Z</time>
      </trkpt>
      <trkpt lat="44.60153" lon="5.46216">
        <ele>634.7</ele>
        <time>2022-10-28T09:49:37Z</time>
      </trkpt>
      <trkpt lat="44.60158" lon="5.46218">
        <ele>634.9</ele>
        <time>2022-10-28T09:49:39Z</time>
      </trkpt>
      <trkpt lat="44.60161" lon="5.46219">
        <ele>635</ele>
        <time>2022-10-28T09:49:40Z</time>
      </trkpt>
      <trkpt lat="44.60164" lon="5.4622">
        <ele>635.2</ele>
        <time>2022-10-28T09:49:41Z</time>
      </trkpt>
      <trkpt lat="44.60165" lon="5.4622">
        <ele>635.3</ele>
        <time>2022-10-28T09:49:42Z</time>
      </trkpt>
      <trkpt lat="44.60169" lon="5.46221">
        <ele>635.4</ele>
        <time>2022-10-28T09:49:44Z</time>
      </trkpt>
      <trkpt lat="44.60172" lon="5.46222">
        <ele>635.6</ele>
        <time>2022-10-28T09:49:45Z</time>
      </trkpt>
      <trkpt lat="44.60175" lon="5.46224">
        <ele>635.8</ele>
        <time>2022-10-28T09:49:46Z</time>
      </trkpt>
      <trkpt lat="44.60179" lon="5.46225">
        <ele>635.9</ele>
        <time>2022-10-28T09:49:47Z</time>
      </trkpt>
      <trkpt lat="44.6018" lon="5.46226">
        <ele>636</ele>
        <time>2022-10-28T09:49:48Z</time>
      </trkpt>
      <trkpt lat="44.60184" lon="5.46227">
        <ele>636.2</ele>
        <time>2022-10-28T09:49:49Z</time>
      </trkpt>
      <trkpt lat="44.60185" lon="5.46228">
        <ele>636.3</ele>
        <time>2022-10-28T09:49:50Z</time>
      </trkpt>
      <trkpt lat="44.60187" lon="5.46229">
        <ele>636.4</ele>
        <time>2022-10-28T09:49:51Z</time>
      </trkpt>
      <trkpt lat="44.6019" lon="5.46231">
        <ele>636.5</ele>
        <time>2022-10-28T09:49:53Z</time>
      </trkpt>
      <trkpt lat="44.60194" lon="5.46232">
        <ele>636.7</ele>
        <time>2022-10-28T09:49:54Z</time>
      </trkpt>
      <trkpt lat="44.60198" lon="5.46233">
        <ele>636.9</ele>
        <time>2022-10-28T09:49:55Z</time>
      </trkpt>
      <trkpt lat="44.60201" lon="5.46235">
        <ele>637</ele>
        <time>2022-10-28T09:49:56Z</time>
      </trkpt>
      <trkpt lat="44.60204" lon="5.46236">
        <ele>637.1</ele>
        <time>2022-10-28T09:49:58Z</time>
      </trkpt>
      <trkpt lat="44.60207" lon="5.46237">
        <ele>637.2</ele>
        <time>2022-10-28T09:49:59Z</time>
      </trkpt>
      <trkpt lat="44.60211" lon="5.46238">
        <ele>637.3</ele>
        <time>2022-10-28T09:50:00Z</time>
      </trkpt>
      <trkpt lat="44.60214" lon="5.4624">
        <ele>637.4</ele>
        <time>2022-10-28T09:50:01Z</time>
      </trkpt>
      <trkpt lat="44.60217" lon="5.46242">
        <ele>637.4</ele>
        <time>2022-10-28T09:50:02Z</time>
      </trkpt>
      <trkpt lat="44.6022" lon="5.46243">
        <ele>637.5</ele>
        <time>2022-10-28T09:50:03Z</time>
      </trkpt>
      <trkpt lat="44.60223" lon="5.46245">
        <ele>637.5</ele>
        <time>2022-10-28T09:50:04Z</time>
      </trkpt>
      <trkpt lat="44.60228" lon="5.46247">
        <ele>637.6</ele>
        <time>2022-10-28T09:50:06Z</time>
      </trkpt>
      <trkpt lat="44.60234" lon="5.4625">
        <ele>637.7</ele>
        <time>2022-10-28T09:50:07Z</time>
      </trkpt>
      <trkpt lat="44.60239" lon="5.46253">
        <ele>637.7</ele>
        <time>2022-10-28T09:50:08Z</time>
      </trkpt>
      <trkpt lat="44.60243" lon="5.46257">
        <ele>637.8</ele>
        <time>2022-10-28T09:50:09Z</time>
      </trkpt>
      <trkpt lat="44.60247" lon="5.46261">
        <ele>637.8</ele>
        <time>2022-10-28T09:50:11Z</time>
      </trkpt>
      <trkpt lat="44.60251" lon="5.46265">
        <ele>637.8</ele>
        <time>2022-10-28T09:50:12Z</time>
      </trkpt>
      <trkpt lat="44.60255" lon="5.46269">
        <ele>637.9</ele>
        <time>2022-10-28T09:50:13Z</time>
      </trkpt>
      <trkpt lat="44.60258" lon="5.46274">
        <ele>637.9</ele>
        <time>2022-10-28T09:50:14Z</time>
      </trkpt>
      <trkpt lat="44.60262" lon="5.46278">
        <ele>637.9</ele>
        <time>2022-10-28T09:50:15Z</time>
      </trkpt>
      <trkpt lat="44.60264" lon="5.46282">
        <ele>638</ele>
        <time>2022-10-28T09:50:16Z</time>
      </trkpt>
      <trkpt lat="44.60267" lon="5.46286">
        <ele>638</ele>
        <time>2022-10-28T09:50:17Z</time>
      </trkpt>
      <trkpt lat="44.6027" lon="5.46292">
        <ele>638.1</ele>
        <time>2022-10-28T09:50:18Z</time>
      </trkpt>
      <trkpt lat="44.60273" lon="5.46298">
        <ele>638.1</ele>
        <time>2022-10-28T09:50:20Z</time>
      </trkpt>
      <trkpt lat="44.60276" lon="5.46304">
        <ele>638.2</ele>
        <time>2022-10-28T09:50:21Z</time>
      </trkpt>
      <trkpt lat="44.60278" lon="5.4631">
        <ele>638.2</ele>
        <time>2022-10-28T09:50:22Z</time>
      </trkpt>
      <trkpt lat="44.60281" lon="5.46319">
        <ele>638.3</ele>
        <time>2022-10-28T09:50:24Z</time>
      </trkpt>
      <trkpt lat="44.60282" lon="5.46326">
        <ele>638.3</ele>
        <time>2022-10-28T09:50:25Z</time>
      </trkpt>
      <trkpt lat="44.60284" lon="5.46332">
        <ele>638.3</ele>
        <time>2022-10-28T09:50:26Z</time>
      </trkpt>
      <trkpt lat="44.60285" lon="5.46339">
        <ele>638.3</ele>
        <time>2022-10-28T09:50:27Z</time>
      </trkpt>
      <trkpt lat="44.60286" lon="5.46345">
        <ele>638.3</ele>
        <time>2022-10-28T09:50:28Z</time>
      </trkpt>
      <trkpt lat="44.60286" lon="5.46351">
        <ele>638.4</ele>
        <time>2022-10-28T09:50:29Z</time>
      </trkpt>
      <trkpt lat="44.60286" lon="5.4636">
        <ele>638.4</ele>
        <time>2022-10-28T09:50:31Z</time>
      </trkpt>
      <trkpt lat="44.60286" lon="5.46367">
        <ele>638.4</ele>
        <time>2022-10-28T09:50:32Z</time>
      </trkpt>
      <trkpt lat="44.60287" lon="5.46376">
        <ele>638.5</ele>
        <time>2022-10-28T09:50:33Z</time>
      </trkpt>
      <trkpt lat="44.60286" lon="5.46382">
        <ele>638.5</ele>
        <time>2022-10-28T09:50:34Z</time>
      </trkpt>
      <trkpt lat="44.60286" lon="5.46389">
        <ele>638.5</ele>
        <time>2022-10-28T09:50:35Z</time>
      </trkpt>
      <trkpt lat="44.60284" lon="5.46397">
        <ele>638.6</ele>
        <time>2022-10-28T09:50:36Z</time>
      </trkpt>
      <trkpt lat="44.60282" lon="5.46405">
        <ele>638.6</ele>
        <time>2022-10-28T09:50:38Z</time>
      </trkpt>
      <trkpt lat="44.60281" lon="5.46412">
        <ele>638.7</ele>
        <time>2022-10-28T09:50:39Z</time>
      </trkpt>
      <trkpt lat="44.60279" lon="5.46421">
        <ele>638.9</ele>
        <time>2022-10-28T09:50:41Z</time>
      </trkpt>
      <trkpt lat="44.60276" lon="5.46431">
        <ele>639</ele>
        <time>2022-10-28T09:50:42Z</time>
      </trkpt>
      <trkpt lat="44.60275" lon="5.46437">
        <ele>639.1</ele>
        <time>2022-10-28T09:50:43Z</time>
      </trkpt>
      <trkpt lat="44.60273" lon="5.46443">
        <ele>639.2</ele>
        <time>2022-10-28T09:50:44Z</time>
      </trkpt>
      <trkpt lat="44.6027" lon="5.46448">
        <ele>639.3</ele>
        <time>2022-10-28T09:50:45Z</time>
      </trkpt>
      <trkpt lat="44.60267" lon="5.46453">
        <ele>639.4</ele>
        <time>2022-10-28T09:50:47Z</time>
      </trkpt>
      <trkpt lat="44.60264" lon="5.46458">
        <ele>639.5</ele>
        <time>2022-10-28T09:50:48Z</time>
      </trkpt>
      <trkpt lat="44.60261" lon="5.46461">
        <ele>639.6</ele>
        <time>2022-10-28T09:50:49Z</time>
      </trkpt>
      <trkpt lat="44.60259" lon="5.46463">
        <ele>639.7</ele>
        <time>2022-10-28T09:50:50Z</time>
      </trkpt>
      <trkpt lat="44.60257" lon="5.46462">
        <ele>639.7</ele>
        <time>2022-10-28T09:50:51Z</time>
      </trkpt>
      <trkpt lat="44.60256" lon="5.46461">
        <ele>639.7</ele>
        <time>2022-10-28T09:50:52Z</time>
      </trkpt>
      <trkpt lat="44.60256" lon="5.4646">
        <ele>639.7</ele>
        <time>2022-10-28T09:50:53Z</time>
      </trkpt>
      <trkpt lat="44.60256" lon="5.46461">
        <ele>639.7</ele>
        <time>2022-10-28T09:50:54Z</time>
      </trkpt>
      <trkpt lat="44.60255" lon="5.46461">
        <ele>639.8</ele>
        <time>2022-10-28T09:50:55Z</time>
      </trkpt>
      <trkpt lat="44.60255" lon="5.46462">
        <ele>639.8</ele>
        <time>2022-10-28T09:50:56Z</time>
      </trkpt>
      <trkpt lat="44.60255" lon="5.46462">
        <ele>639.8</ele>
        <time>2022-10-28T09:50:57Z</time>
      </trkpt>
      <trkpt lat="44.60254" lon="5.46462">
        <ele>639.8</ele>
        <time>2022-10-28T09:50:58Z</time>
      </trkpt>
      <trkpt lat="44.60254" lon="5.46463">
        <ele>639.8</ele>
        <time>2022-10-28T09:50:59Z</time>
      </trkpt>
      <trkpt lat="44.60254" lon="5.46463">
        <ele>639.8</ele>
        <time>2022-10-28T09:51:00Z</time>
      </trkpt>
      <trkpt lat="44.60253" lon="5.46463">
        <ele>639.8</ele>
        <time>2022-10-28T09:51:01Z</time>
      </trkpt>
      <trkpt lat="44.60253" lon="5.46464">
        <ele>639.8</ele>
        <time>2022-10-28T09:52:00Z</time>
      </trkpt>
      <trkpt lat="44.60253" lon="5.46464">
        <ele>639.8</ele>
        <time>2022-10-28T09:52:01Z</time>
      </trkpt>
      <trkpt lat="44.60252" lon="5.46465">
        <ele>639.8</ele>
        <time>2022-10-28T09:52:02Z</time>
      </trkpt>
      <trkpt lat="44.60251" lon="5.46468">
        <ele>639.9</ele>
        <time>2022-10-28T09:52:03Z</time>
      </trkpt>
      <trkpt lat="44.60248" lon="5.46472">
        <ele>640</ele>
        <time>2022-10-28T09:52:04Z</time>
      </trkpt>
      <trkpt lat="44.60247" lon="5.46474">
        <ele>640</ele>
        <time>2022-10-28T09:52:05Z</time>
      </trkpt>
      <trkpt lat="44.60245" lon="5.46477">
        <ele>640.1</ele>
        <time>2022-10-28T09:52:06Z</time>
      </trkpt>
      <trkpt lat="44.60245" lon="5.46478">
        <ele>640.1</ele>
        <time>2022-10-28T09:52:07Z</time>
      </trkpt>
      <trkpt lat="44.60243" lon="5.4648">
        <ele>640.1</ele>
        <time>2022-10-28T09:52:08Z</time>
      </trkpt>
      <trkpt lat="44.60238" lon="5.46487">
        <ele>640.2</ele>
        <time>2022-10-28T09:52:09Z</time>
      </trkpt>
      <trkpt lat="44.60235" lon="5.46492">
        <ele>640.3</ele>
        <time>2022-10-28T09:52:10Z</time>
      </trkpt>
      <trkpt lat="44.60231" lon="5.46497">
        <ele>640.3</ele>
        <time>2022-10-28T09:52:12Z</time>
      </trkpt>
      <trkpt lat="44.60227" lon="5.46502">
        <ele>640.4</ele>
        <time>2022-10-28T09:52:14Z</time>
      </trkpt>
      <trkpt lat="44.60222" lon="5.46509">
        <ele>640.4</ele>
        <time>2022-10-28T09:52:15Z</time>
      </trkpt>
      <trkpt lat="44.6022" lon="5.46512">
        <ele>640.4</ele>
        <time>2022-10-28T09:52:16Z</time>
      </trkpt>
      <trkpt lat="44.60215" lon="5.46518">
        <ele>640.4</ele>
        <time>2022-10-28T09:52:18Z</time>
      </trkpt>
      <trkpt lat="44.60211" lon="5.46523">
        <ele>640.4</ele>
        <time>2022-10-28T09:52:19Z</time>
      </trkpt>
      <trkpt lat="44.60207" lon="5.46529">
        <ele>640.4</ele>
        <time>2022-10-28T09:52:20Z</time>
      </trkpt>
      <trkpt lat="44.60202" lon="5.46533">
        <ele>640.4</ele>
        <time>2022-10-28T09:52:22Z</time>
      </trkpt>
      <trkpt lat="44.60199" lon="5.46537">
        <ele>640.4</ele>
        <time>2022-10-28T09:52:23Z</time>
      </trkpt>
      <trkpt lat="44.60194" lon="5.46542">
        <ele>640.4</ele>
        <time>2022-10-28T09:52:24Z</time>
      </trkpt>
      <trkpt lat="44.6019" lon="5.46545">
        <ele>640.4</ele>
        <time>2022-10-28T09:52:25Z</time>
      </trkpt>
      <trkpt lat="44.60186" lon="5.46548">
        <ele>640.3</ele>
        <time>2022-10-28T09:52:26Z</time>
      </trkpt>
      <trkpt lat="44.60183" lon="5.46551">
        <ele>640.3</ele>
        <time>2022-10-28T09:52:27Z</time>
      </trkpt>
      <trkpt lat="44.60179" lon="5.46555">
        <ele>640.2</ele>
        <time>2022-10-28T09:52:28Z</time>
      </trkpt>
      <trkpt lat="44.60172" lon="5.46558">
        <ele>640.2</ele>
        <time>2022-10-28T09:52:29Z</time>
      </trkpt>
      <trkpt lat="44.60168" lon="5.46561">
        <ele>640.2</ele>
        <time>2022-10-28T09:52:30Z</time>
      </trkpt>
      <trkpt lat="44.60163" lon="5.46565">
        <ele>640.1</ele>
        <time>2022-10-28T09:52:31Z</time>
      </trkpt>
      <trkpt lat="44.60159" lon="5.46568">
        <ele>640.1</ele>
        <time>2022-10-28T09:52:32Z</time>
      </trkpt>
      <trkpt lat="44.60154" lon="5.46572">
        <ele>640</ele>
        <time>2022-10-28T09:52:33Z</time>
      </trkpt>
      <trkpt lat="44.6015" lon="5.46575">
        <ele>639.9</ele>
        <time>2022-10-28T09:52:34Z</time>
      </trkpt>
      <trkpt lat="44.60145" lon="5.46579">
        <ele>639.9</ele>
        <time>2022-10-28T09:52:35Z</time>
      </trkpt>
      <trkpt lat="44.60141" lon="5.46582">
        <ele>639.8</ele>
        <time>2022-10-28T09:52:36Z</time>
      </trkpt>
      <trkpt lat="44.60137" lon="5.46586">
        <ele>639.8</ele>
        <time>2022-10-28T09:52:37Z</time>
      </trkpt>
      <trkpt lat="44.60132" lon="5.4659">
        <ele>639.7</ele>
        <time>2022-10-28T09:52:38Z</time>
      </trkpt>
      <trkpt lat="44.60128" lon="5.46594">
        <ele>639.6</ele>
        <time>2022-10-28T09:52:39Z</time>
      </trkpt>
      <trkpt lat="44.60124" lon="5.46599">
        <ele>639.6</ele>
        <time>2022-10-28T09:52:40Z</time>
      </trkpt>
      <trkpt lat="44.60119" lon="5.46603">
        <ele>639.5</ele>
        <time>2022-10-28T09:52:41Z</time>
      </trkpt>
      <trkpt lat="44.60116" lon="5.46606">
        <ele>639.5</ele>
        <time>2022-10-28T09:52:42Z</time>
      </trkpt>
      <trkpt lat="44.60111" lon="5.4661">
        <ele>639.4</ele>
        <time>2022-10-28T09:52:43Z</time>
      </trkpt>
      <trkpt lat="44.60107" lon="5.46615">
        <ele>639.3</ele>
        <time>2022-10-28T09:52:44Z</time>
      </trkpt>
      <trkpt lat="44.60102" lon="5.46619">
        <ele>639.3</ele>
        <time>2022-10-28T09:52:45Z</time>
      </trkpt>
      <trkpt lat="44.60097" lon="5.46622">
        <ele>639.2</ele>
        <time>2022-10-28T09:52:46Z</time>
      </trkpt>
      <trkpt lat="44.60093" lon="5.46626">
        <ele>639.2</ele>
        <time>2022-10-28T09:52:47Z</time>
      </trkpt>
      <trkpt lat="44.60088" lon="5.46631">
        <ele>639.1</ele>
        <time>2022-10-28T09:52:48Z</time>
      </trkpt>
      <trkpt lat="44.60083" lon="5.46635">
        <ele>639.1</ele>
        <time>2022-10-28T09:52:49Z</time>
      </trkpt>
      <trkpt lat="44.60078" lon="5.4664">
        <ele>639</ele>
        <time>2022-10-28T09:52:50Z</time>
      </trkpt>
      <trkpt lat="44.60073" lon="5.46644">
        <ele>638.9</ele>
        <time>2022-10-28T09:52:51Z</time>
      </trkpt>
      <trkpt lat="44.60068" lon="5.46648">
        <ele>638.9</ele>
        <time>2022-10-28T09:52:52Z</time>
      </trkpt>
      <trkpt lat="44.60063" lon="5.46652">
        <ele>638.8</ele>
        <time>2022-10-28T09:52:53Z</time>
      </trkpt>
      <trkpt lat="44.60058" lon="5.46656">
        <ele>638.8</ele>
        <time>2022-10-28T09:52:54Z</time>
      </trkpt>
      <trkpt lat="44.60053" lon="5.4666">
        <ele>638.8</ele>
        <time>2022-10-28T09:52:55Z</time>
      </trkpt>
      <trkpt lat="44.60048" lon="5.46664">
        <ele>638.7</ele>
        <time>2022-10-28T09:52:56Z</time>
      </trkpt>
      <trkpt lat="44.60043" lon="5.46668">
        <ele>638.7</ele>
        <time>2022-10-28T09:52:57Z</time>
      </trkpt>
      <trkpt lat="44.60038" lon="5.46672">
        <ele>638.7</ele>
        <time>2022-10-28T09:52:58Z</time>
      </trkpt>
      <trkpt lat="44.60034" lon="5.46676">
        <ele>638.6</ele>
        <time>2022-10-28T09:52:59Z</time>
      </trkpt>
      <trkpt lat="44.60028" lon="5.46681">
        <ele>638.6</ele>
        <time>2022-10-28T09:53:00Z</time>
      </trkpt>
      <trkpt lat="44.60023" lon="5.46685">
        <ele>638.5</ele>
        <time>2022-10-28T09:53:01Z</time>
      </trkpt>
      <trkpt lat="44.60019" lon="5.4669">
        <ele>638.5</ele>
        <time>2022-10-28T09:53:02Z</time>
      </trkpt>
      <trkpt lat="44.60014" lon="5.46694">
        <ele>638.5</ele>
        <time>2022-10-28T09:53:03Z</time>
      </trkpt>
      <trkpt lat="44.60009" lon="5.46699">
        <ele>638.4</ele>
        <time>2022-10-28T09:53:04Z</time>
      </trkpt>
      <trkpt lat="44.60004" lon="5.46704">
        <ele>638.4</ele>
        <time>2022-10-28T09:53:05Z</time>
      </trkpt>
      <trkpt lat="44.59999" lon="5.46708">
        <ele>638.3</ele>
        <time>2022-10-28T09:53:06Z</time>
      </trkpt>
      <trkpt lat="44.59994" lon="5.46712">
        <ele>638.3</ele>
        <time>2022-10-28T09:53:07Z</time>
      </trkpt>
      <trkpt lat="44.59989" lon="5.46716">
        <ele>638.2</ele>
        <time>2022-10-28T09:53:08Z</time>
      </trkpt>
      <trkpt lat="44.59984" lon="5.4672">
        <ele>638.2</ele>
        <time>2022-10-28T09:53:09Z</time>
      </trkpt>
      <trkpt lat="44.5998" lon="5.46724">
        <ele>638.1</ele>
        <time>2022-10-28T09:53:10Z</time>
      </trkpt>
      <trkpt lat="44.59975" lon="5.46728">
        <ele>638.1</ele>
        <time>2022-10-28T09:53:11Z</time>
      </trkpt>
      <trkpt lat="44.5997" lon="5.46732">
        <ele>638.1</ele>
        <time>2022-10-28T09:53:12Z</time>
      </trkpt>
      <trkpt lat="44.59965" lon="5.46736">
        <ele>638.1</ele>
        <time>2022-10-28T09:53:13Z</time>
      </trkpt>
      <trkpt lat="44.5996" lon="5.4674">
        <ele>638.1</ele>
        <time>2022-10-28T09:53:14Z</time>
      </trkpt>
      <trkpt lat="44.59955" lon="5.46744">
        <ele>638.1</ele>
        <time>2022-10-28T09:53:15Z</time>
      </trkpt>
      <trkpt lat="44.5995" lon="5.46748">
        <ele>638.1</ele>
        <time>2022-10-28T09:53:16Z</time>
      </trkpt>
      <trkpt lat="44.59945" lon="5.46752">
        <ele>638.1</ele>
        <time>2022-10-28T09:53:17Z</time>
      </trkpt>
      <trkpt lat="44.5994" lon="5.46756">
        <ele>638</ele>
        <time>2022-10-28T09:53:18Z</time>
      </trkpt>
      <trkpt lat="44.59936" lon="5.4676">
        <ele>638</ele>
        <time>2022-10-28T09:53:19Z</time>
      </trkpt>
      <trkpt lat="44.59931" lon="5.46764">
        <ele>638</ele>
        <time>2022-10-28T09:53:20Z</time>
      </trkpt>
      <trkpt lat="44.59926" lon="5.46769">
        <ele>638</ele>
        <time>2022-10-28T09:53:21Z</time>
      </trkpt>
      <trkpt lat="44.59921" lon="5.46773">
        <ele>638</ele>
        <time>2022-10-28T09:53:22Z</time>
      </trkpt>
      <trkpt lat="44.59917" lon="5.46778">
        <ele>638</ele>
        <time>2022-10-28T09:53:23Z</time>
      </trkpt>
      <trkpt lat="44.59912" lon="5.46782">
        <ele>638</ele>
        <time>2022-10-28T09:53:24Z</time>
      </trkpt>
      <trkpt lat="44.59907" lon="5.46786">
        <ele>638</ele>
        <time>2022-10-28T09:53:25Z</time>
      </trkpt>
      <trkpt lat="44.59902" lon="5.46791">
        <ele>638</ele>
        <time>2022-10-28T09:53:26Z</time>
      </trkpt>
      <trkpt lat="44.59897" lon="5.46796">
        <ele>637.9</ele>
        <time>2022-10-28T09:53:27Z</time>
      </trkpt>
      <trkpt lat="44.59893" lon="5.468">
        <ele>637.9</ele>
        <time>2022-10-28T09:53:28Z</time>
      </trkpt>
      <trkpt lat="44.59888" lon="5.46805">
        <ele>637.9</ele>
        <time>2022-10-28T09:53:29Z</time>
      </trkpt>
      <trkpt lat="44.59883" lon="5.46808">
        <ele>637.9</ele>
        <time>2022-10-28T09:53:30Z</time>
      </trkpt>
      <trkpt lat="44.59878" lon="5.46812">
        <ele>637.9</ele>
        <time>2022-10-28T09:53:31Z</time>
      </trkpt>
      <trkpt lat="44.59874" lon="5.46816">
        <ele>637.9</ele>
        <time>2022-10-28T09:53:32Z</time>
      </trkpt>
      <trkpt lat="44.59869" lon="5.46822">
        <ele>637.8</ele>
        <time>2022-10-28T09:53:33Z</time>
      </trkpt>
      <trkpt lat="44.59864" lon="5.46827">
        <ele>637.8</ele>
        <time>2022-10-28T09:53:34Z</time>
      </trkpt>
      <trkpt lat="44.59859" lon="5.46832">
        <ele>637.8</ele>
        <time>2022-10-28T09:53:35Z</time>
      </trkpt>
      <trkpt lat="44.59855" lon="5.46836">
        <ele>637.7</ele>
        <time>2022-10-28T09:53:36Z</time>
      </trkpt>
      <trkpt lat="44.5985" lon="5.4684">
        <ele>637.7</ele>
        <time>2022-10-28T09:53:37Z</time>
      </trkpt>
      <trkpt lat="44.59845" lon="5.46844">
        <ele>637.7</ele>
        <time>2022-10-28T09:53:38Z</time>
      </trkpt>
      <trkpt lat="44.5984" lon="5.46848">
        <ele>637.7</ele>
        <time>2022-10-28T09:53:39Z</time>
      </trkpt>
      <trkpt lat="44.59836" lon="5.46852">
        <ele>637.7</ele>
        <time>2022-10-28T09:53:40Z</time>
      </trkpt>
      <trkpt lat="44.59831" lon="5.46856">
        <ele>637.7</ele>
        <time>2022-10-28T09:53:41Z</time>
      </trkpt>
      <trkpt lat="44.59826" lon="5.46861">
        <ele>637.7</ele>
        <time>2022-10-28T09:53:42Z</time>
      </trkpt>
      <trkpt lat="44.59821" lon="5.46865">
        <ele>637.6</ele>
        <time>2022-10-28T09:53:43Z</time>
      </trkpt>
      <trkpt lat="44.59816" lon="5.46869">
        <ele>637.6</ele>
        <time>2022-10-28T09:53:44Z</time>
      </trkpt>
      <trkpt lat="44.59811" lon="5.46873">
        <ele>637.5</ele>
        <time>2022-10-28T09:53:45Z</time>
      </trkpt>
      <trkpt lat="44.59806" lon="5.46877">
        <ele>637.5</ele>
        <time>2022-10-28T09:53:46Z</time>
      </trkpt>
      <trkpt lat="44.59801" lon="5.46883">
        <ele>637.5</ele>
        <time>2022-10-28T09:53:47Z</time>
      </trkpt>
      <trkpt lat="44.59796" lon="5.46887">
        <ele>637.4</ele>
        <time>2022-10-28T09:53:48Z</time>
      </trkpt>
      <trkpt lat="44.59791" lon="5.46892">
        <ele>637.4</ele>
        <time>2022-10-28T09:53:49Z</time>
      </trkpt>
      <trkpt lat="44.59786" lon="5.46897">
        <ele>637.4</ele>
        <time>2022-10-28T09:53:50Z</time>
      </trkpt>
      <trkpt lat="44.59781" lon="5.46901">
        <ele>637.3</ele>
        <time>2022-10-28T09:53:51Z</time>
      </trkpt>
      <trkpt lat="44.59776" lon="5.46906">
        <ele>637.3</ele>
        <time>2022-10-28T09:53:52Z</time>
      </trkpt>
      <trkpt lat="44.59771" lon="5.4691">
        <ele>637.3</ele>
        <time>2022-10-28T09:53:53Z</time>
      </trkpt>
      <trkpt lat="44.59766" lon="5.46915">
        <ele>637.3</ele>
        <time>2022-10-28T09:53:54Z</time>
      </trkpt>
      <trkpt lat="44.59761" lon="5.4692">
        <ele>637.4</ele>
        <time>2022-10-28T09:53:55Z</time>
      </trkpt>
      <trkpt lat="44.59757" lon="5.46924">
        <ele>637.4</ele>
        <time>2022-10-28T09:53:56Z</time>
      </trkpt>
      <trkpt lat="44.59752" lon="5.46928">
        <ele>637.4</ele>
        <time>2022-10-28T09:53:57Z</time>
      </trkpt>
      <trkpt lat="44.59747" lon="5.46933">
        <ele>637.3</ele>
        <time>2022-10-28T09:53:58Z</time>
      </trkpt>
      <trkpt lat="44.59742" lon="5.46937">
        <ele>637.3</ele>
        <time>2022-10-28T09:53:59Z</time>
      </trkpt>
      <trkpt lat="44.59738" lon="5.46942">
        <ele>637.2</ele>
        <time>2022-10-28T09:54:00Z</time>
      </trkpt>
      <trkpt lat="44.59733" lon="5.46946">
        <ele>637.1</ele>
        <time>2022-10-28T09:54:01Z</time>
      </trkpt>
      <trkpt lat="44.59727" lon="5.46951">
        <ele>637.1</ele>
        <time>2022-10-28T09:54:02Z</time>
      </trkpt>
      <trkpt lat="44.59722" lon="5.46955">
        <ele>637</ele>
        <time>2022-10-28T09:54:03Z</time>
      </trkpt>
      <trkpt lat="44.59717" lon="5.46959">
        <ele>637</ele>
        <time>2022-10-28T09:54:04Z</time>
      </trkpt>
      <trkpt lat="44.59712" lon="5.46963">
        <ele>637</ele>
        <time>2022-10-28T09:54:05Z</time>
      </trkpt>
      <trkpt lat="44.59706" lon="5.46968">
        <ele>637</ele>
        <time>2022-10-28T09:54:06Z</time>
      </trkpt>
      <trkpt lat="44.59701" lon="5.46972">
        <ele>637</ele>
        <time>2022-10-28T09:54:07Z</time>
      </trkpt>
      <trkpt lat="44.59696" lon="5.46977">
        <ele>637</ele>
        <time>2022-10-28T09:54:08Z</time>
      </trkpt>
      <trkpt lat="44.59691" lon="5.46981">
        <ele>636.9</ele>
        <time>2022-10-28T09:54:09Z</time>
      </trkpt>
      <trkpt lat="44.59686" lon="5.46986">
        <ele>636.8</ele>
        <time>2022-10-28T09:54:10Z</time>
      </trkpt>
      <trkpt lat="44.59681" lon="5.46991">
        <ele>636.8</ele>
        <time>2022-10-28T09:54:11Z</time>
      </trkpt>
      <trkpt lat="44.59676" lon="5.46996">
        <ele>636.8</ele>
        <time>2022-10-28T09:54:12Z</time>
      </trkpt>
      <trkpt lat="44.59671" lon="5.47">
        <ele>636.8</ele>
        <time>2022-10-28T09:54:13Z</time>
      </trkpt>
      <trkpt lat="44.59666" lon="5.47005">
        <ele>636.7</ele>
        <time>2022-10-28T09:54:14Z</time>
      </trkpt>
      <trkpt lat="44.59661" lon="5.47009">
        <ele>636.7</ele>
        <time>2022-10-28T09:54:15Z</time>
      </trkpt>
      <trkpt lat="44.59656" lon="5.47013">
        <ele>636.6</ele>
        <time>2022-10-28T09:54:16Z</time>
      </trkpt>
      <trkpt lat="44.59652" lon="5.47017">
        <ele>636.6</ele>
        <time>2022-10-28T09:54:17Z</time>
      </trkpt>
      <trkpt lat="44.59647" lon="5.47022">
        <ele>636.6</ele>
        <time>2022-10-28T09:54:18Z</time>
      </trkpt>
      <trkpt lat="44.59642" lon="5.47026">
        <ele>636.6</ele>
        <time>2022-10-28T09:54:19Z</time>
      </trkpt>
      <trkpt lat="44.59638" lon="5.4703">
        <ele>636.5</ele>
        <time>2022-10-28T09:54:20Z</time>
      </trkpt>
      <trkpt lat="44.59633" lon="5.47035">
        <ele>636.5</ele>
        <time>2022-10-28T09:54:21Z</time>
      </trkpt>
      <trkpt lat="44.59628" lon="5.47039">
        <ele>636.5</ele>
        <time>2022-10-28T09:54:22Z</time>
      </trkpt>
      <trkpt lat="44.59624" lon="5.47043">
        <ele>636.5</ele>
        <time>2022-10-28T09:54:23Z</time>
      </trkpt>
      <trkpt lat="44.59619" lon="5.47047">
        <ele>636.5</ele>
        <time>2022-10-28T09:54:24Z</time>
      </trkpt>
      <trkpt lat="44.59614" lon="5.47051">
        <ele>636.5</ele>
        <time>2022-10-28T09:54:25Z</time>
      </trkpt>
      <trkpt lat="44.59609" lon="5.47055">
        <ele>636.6</ele>
        <time>2022-10-28T09:54:26Z</time>
      </trkpt>
      <trkpt lat="44.59605" lon="5.4706">
        <ele>636.6</ele>
        <time>2022-10-28T09:54:27Z</time>
      </trkpt>
      <trkpt lat="44.596" lon="5.47064">
        <ele>636.6</ele>
        <time>2022-10-28T09:54:28Z</time>
      </trkpt>
      <trkpt lat="44.59596" lon="5.47067">
        <ele>636.7</ele>
        <time>2022-10-28T09:54:29Z</time>
      </trkpt>
      <trkpt lat="44.59592" lon="5.47071">
        <ele>636.7</ele>
        <time>2022-10-28T09:54:30Z</time>
      </trkpt>
      <trkpt lat="44.59587" lon="5.47075">
        <ele>636.8</ele>
        <time>2022-10-28T09:54:31Z</time>
      </trkpt>
      <trkpt lat="44.59583" lon="5.47079">
        <ele>636.9</ele>
        <time>2022-10-28T09:54:32Z</time>
      </trkpt>
      <trkpt lat="44.59578" lon="5.47082">
        <ele>636.9</ele>
        <time>2022-10-28T09:54:33Z</time>
      </trkpt>
      <trkpt lat="44.59574" lon="5.47086">
        <ele>637</ele>
        <time>2022-10-28T09:54:34Z</time>
      </trkpt>
      <trkpt lat="44.5957" lon="5.47089">
        <ele>637.1</ele>
        <time>2022-10-28T09:54:35Z</time>
      </trkpt>
      <trkpt lat="44.59566" lon="5.47093">
        <ele>637.2</ele>
        <time>2022-10-28T09:54:36Z</time>
      </trkpt>
      <trkpt lat="44.59562" lon="5.47096">
        <ele>637.2</ele>
        <time>2022-10-28T09:54:37Z</time>
      </trkpt>
      <trkpt lat="44.59559" lon="5.47099">
        <ele>637.3</ele>
        <time>2022-10-28T09:54:38Z</time>
      </trkpt>
      <trkpt lat="44.59556" lon="5.47101">
        <ele>637.4</ele>
        <time>2022-10-28T09:54:39Z</time>
      </trkpt>
      <trkpt lat="44.59552" lon="5.47104">
        <ele>637.4</ele>
        <time>2022-10-28T09:54:40Z</time>
      </trkpt>
      <trkpt lat="44.59548" lon="5.47107">
        <ele>637.5</ele>
        <time>2022-10-28T09:54:41Z</time>
      </trkpt>
      <trkpt lat="44.59545" lon="5.47111">
        <ele>637.6</ele>
        <time>2022-10-28T09:54:42Z</time>
      </trkpt>
      <trkpt lat="44.59541" lon="5.47114">
        <ele>637.7</ele>
        <time>2022-10-28T09:54:43Z</time>
      </trkpt>
      <trkpt lat="44.59537" lon="5.47117">
        <ele>637.7</ele>
        <time>2022-10-28T09:54:44Z</time>
      </trkpt>
      <trkpt lat="44.59534" lon="5.4712">
        <ele>637.8</ele>
        <time>2022-10-28T09:54:45Z</time>
      </trkpt>
      <trkpt lat="44.59533" lon="5.47116">
        <ele>637.9</ele>
        <time>2022-10-28T09:54:46Z</time>
      </trkpt>
      <trkpt lat="44.59527" lon="5.47123">
        <ele>638</ele>
        <time>2022-10-28T09:54:48Z</time>
      </trkpt>
      <trkpt lat="44.59521" lon="5.47128">
        <ele>638</ele>
        <time>2022-10-28T09:54:49Z</time>
      </trkpt>
      <trkpt lat="44.59517" lon="5.47133">
        <ele>638.1</ele>
        <time>2022-10-28T09:54:50Z</time>
      </trkpt>
      <trkpt lat="44.59513" lon="5.47136">
        <ele>638.1</ele>
        <time>2022-10-28T09:54:51Z</time>
      </trkpt>
      <trkpt lat="44.59509" lon="5.47137">
        <ele>638.1</ele>
        <time>2022-10-28T09:54:53Z</time>
      </trkpt>
      <trkpt lat="44.59505" lon="5.47139">
        <ele>638.1</ele>
        <time>2022-10-28T09:54:54Z</time>
      </trkpt>
      <trkpt lat="44.59502" lon="5.4714">
        <ele>638.1</ele>
        <time>2022-10-28T09:54:55Z</time>
      </trkpt>
      <trkpt lat="44.59497" lon="5.47142">
        <ele>638.1</ele>
        <time>2022-10-28T09:54:56Z</time>
      </trkpt>
      <trkpt lat="44.59492" lon="5.47144">
        <ele>638.1</ele>
        <time>2022-10-28T09:54:58Z</time>
      </trkpt>
      <trkpt lat="44.59487" lon="5.47147">
        <ele>638.1</ele>
        <time>2022-10-28T09:54:59Z</time>
      </trkpt>
      <trkpt lat="44.59484" lon="5.47149">
        <ele>638.1</ele>
        <time>2022-10-28T09:55:00Z</time>
      </trkpt>
      <trkpt lat="44.5948" lon="5.47151">
        <ele>638</ele>
        <time>2022-10-28T09:55:01Z</time>
      </trkpt>
      <trkpt lat="44.59476" lon="5.47153">
        <ele>638</ele>
        <time>2022-10-28T09:55:02Z</time>
      </trkpt>
      <trkpt lat="44.59471" lon="5.47157">
        <ele>638</ele>
        <time>2022-10-28T09:55:03Z</time>
      </trkpt>
      <trkpt lat="44.59467" lon="5.4716">
        <ele>638</ele>
        <time>2022-10-28T09:55:04Z</time>
      </trkpt>
      <trkpt lat="44.59463" lon="5.47163">
        <ele>637.9</ele>
        <time>2022-10-28T09:55:05Z</time>
      </trkpt>
      <trkpt lat="44.59459" lon="5.47167">
        <ele>637.9</ele>
        <time>2022-10-28T09:55:06Z</time>
      </trkpt>
      <trkpt lat="44.59455" lon="5.4717">
        <ele>637.9</ele>
        <time>2022-10-28T09:55:07Z</time>
      </trkpt>
      <trkpt lat="44.5945" lon="5.47174">
        <ele>637.8</ele>
        <time>2022-10-28T09:55:08Z</time>
      </trkpt>
      <trkpt lat="44.59446" lon="5.47178">
        <ele>637.8</ele>
        <time>2022-10-28T09:55:09Z</time>
      </trkpt>
      <trkpt lat="44.59442" lon="5.47183">
        <ele>637.8</ele>
        <time>2022-10-28T09:55:10Z</time>
      </trkpt>
      <trkpt lat="44.59437" lon="5.47188">
        <ele>637.8</ele>
        <time>2022-10-28T09:55:11Z</time>
      </trkpt>
      <trkpt lat="44.59433" lon="5.47193">
        <ele>637.7</ele>
        <time>2022-10-28T09:55:12Z</time>
      </trkpt>
      <trkpt lat="44.59429" lon="5.47198">
        <ele>637.7</ele>
        <time>2022-10-28T09:55:13Z</time>
      </trkpt>
      <trkpt lat="44.59424" lon="5.47204">
        <ele>637.7</ele>
        <time>2022-10-28T09:55:14Z</time>
      </trkpt>
      <trkpt lat="44.5942" lon="5.47209">
        <ele>637.7</ele>
        <time>2022-10-28T09:55:15Z</time>
      </trkpt>
      <trkpt lat="44.59416" lon="5.47214">
        <ele>637.8</ele>
        <time>2022-10-28T09:55:16Z</time>
      </trkpt>
      <trkpt lat="44.59411" lon="5.4722">
        <ele>637.8</ele>
        <time>2022-10-28T09:55:17Z</time>
      </trkpt>
      <trkpt lat="44.59407" lon="5.47225">
        <ele>637.8</ele>
        <time>2022-10-28T09:55:18Z</time>
      </trkpt>
      <trkpt lat="44.59403" lon="5.47231">
        <ele>637.8</ele>
        <time>2022-10-28T09:55:19Z</time>
      </trkpt>
      <trkpt lat="44.59399" lon="5.47236">
        <ele>637.9</ele>
        <time>2022-10-28T09:55:20Z</time>
      </trkpt>
      <trkpt lat="44.59395" lon="5.47241">
        <ele>637.9</ele>
        <time>2022-10-28T09:55:21Z</time>
      </trkpt>
      <trkpt lat="44.59391" lon="5.47246">
        <ele>638</ele>
        <time>2022-10-28T09:55:22Z</time>
      </trkpt>
      <trkpt lat="44.59387" lon="5.47251">
        <ele>638.1</ele>
        <time>2022-10-28T09:55:23Z</time>
      </trkpt>
      <trkpt lat="44.59383" lon="5.47256">
        <ele>638.1</ele>
        <time>2022-10-28T09:55:24Z</time>
      </trkpt>
      <trkpt lat="44.59379" lon="5.47261">
        <ele>638.1</ele>
        <time>2022-10-28T09:55:25Z</time>
      </trkpt>
      <trkpt lat="44.59374" lon="5.47266">
        <ele>638.1</ele>
        <time>2022-10-28T09:55:26Z</time>
      </trkpt>
      <trkpt lat="44.5937" lon="5.4727">
        <ele>638.1</ele>
        <time>2022-10-28T09:55:27Z</time>
      </trkpt>
      <trkpt lat="44.59366" lon="5.47275">
        <ele>638.1</ele>
        <time>2022-10-28T09:55:28Z</time>
      </trkpt>
      <trkpt lat="44.59362" lon="5.47279">
        <ele>638.1</ele>
        <time>2022-10-28T09:55:29Z</time>
      </trkpt>
      <trkpt lat="44.59357" lon="5.47284">
        <ele>638.1</ele>
        <time>2022-10-28T09:55:30Z</time>
      </trkpt>
      <trkpt lat="44.59352" lon="5.47288">
        <ele>638.1</ele>
        <time>2022-10-28T09:55:31Z</time>
      </trkpt>
      <trkpt lat="44.59348" lon="5.47292">
        <ele>638</ele>
        <time>2022-10-28T09:55:32Z</time>
      </trkpt>
      <trkpt lat="44.59343" lon="5.47296">
        <ele>638</ele>
        <time>2022-10-28T09:55:33Z</time>
      </trkpt>
      <trkpt lat="44.59339" lon="5.47301">
        <ele>638</ele>
        <time>2022-10-28T09:55:34Z</time>
      </trkpt>
      <trkpt lat="44.59335" lon="5.47304">
        <ele>638</ele>
        <time>2022-10-28T09:55:35Z</time>
      </trkpt>
      <trkpt lat="44.5933" lon="5.47308">
        <ele>638</ele>
        <time>2022-10-28T09:55:36Z</time>
      </trkpt>
      <trkpt lat="44.59326" lon="5.47312">
        <ele>638</ele>
        <time>2022-10-28T09:55:37Z</time>
      </trkpt>
      <trkpt lat="44.59322" lon="5.47316">
        <ele>638</ele>
        <time>2022-10-28T09:55:38Z</time>
      </trkpt>
      <trkpt lat="44.59317" lon="5.4732">
        <ele>638</ele>
        <time>2022-10-28T09:55:39Z</time>
      </trkpt>
      <trkpt lat="44.59312" lon="5.47324">
        <ele>638</ele>
        <time>2022-10-28T09:55:40Z</time>
      </trkpt>
      <trkpt lat="44.59308" lon="5.47328">
        <ele>638</ele>
        <time>2022-10-28T09:55:41Z</time>
      </trkpt>
      <trkpt lat="44.59303" lon="5.47332">
        <ele>638</ele>
        <time>2022-10-28T09:55:42Z</time>
      </trkpt>
      <trkpt lat="44.59298" lon="5.47337">
        <ele>638</ele>
        <time>2022-10-28T09:55:43Z</time>
      </trkpt>
      <trkpt lat="44.59294" lon="5.47341">
        <ele>638</ele>
        <time>2022-10-28T09:55:44Z</time>
      </trkpt>
      <trkpt lat="44.5929" lon="5.47345">
        <ele>638</ele>
        <time>2022-10-28T09:55:45Z</time>
      </trkpt>
      <trkpt lat="44.59285" lon="5.47349">
        <ele>638</ele>
        <time>2022-10-28T09:55:46Z</time>
      </trkpt>
      <trkpt lat="44.5928" lon="5.47354">
        <ele>638</ele>
        <time>2022-10-28T09:55:47Z</time>
      </trkpt>
      <trkpt lat="44.59275" lon="5.47358">
        <ele>638</ele>
        <time>2022-10-28T09:55:48Z</time>
      </trkpt>
      <trkpt lat="44.59271" lon="5.47363">
        <ele>638</ele>
        <time>2022-10-28T09:55:49Z</time>
      </trkpt>
      <trkpt lat="44.59266" lon="5.47367">
        <ele>638</ele>
        <time>2022-10-28T09:55:50Z</time>
      </trkpt>
      <trkpt lat="44.59262" lon="5.47371">
        <ele>637.9</ele>
        <time>2022-10-28T09:55:51Z</time>
      </trkpt>
      <trkpt lat="44.59257" lon="5.47376">
        <ele>637.9</ele>
        <time>2022-10-28T09:55:52Z</time>
      </trkpt>
      <trkpt lat="44.59253" lon="5.4738">
        <ele>637.9</ele>
        <time>2022-10-28T09:55:53Z</time>
      </trkpt>
      <trkpt lat="44.59248" lon="5.47384">
        <ele>637.9</ele>
        <time>2022-10-28T09:55:54Z</time>
      </trkpt>
      <trkpt lat="44.59243" lon="5.47388">
        <ele>637.9</ele>
        <time>2022-10-28T09:55:55Z</time>
      </trkpt>
      <trkpt lat="44.59239" lon="5.47392">
        <ele>637.9</ele>
        <time>2022-10-28T09:55:56Z</time>
      </trkpt>
      <trkpt lat="44.59234" lon="5.47396">
        <ele>637.9</ele>
        <time>2022-10-28T09:55:57Z</time>
      </trkpt>
      <trkpt lat="44.5923" lon="5.474">
        <ele>637.9</ele>
        <time>2022-10-28T09:55:58Z</time>
      </trkpt>
      <trkpt lat="44.59226" lon="5.47403">
        <ele>638</ele>
        <time>2022-10-28T09:55:59Z</time>
      </trkpt>
      <trkpt lat="44.59221" lon="5.47408">
        <ele>638</ele>
        <time>2022-10-28T09:56:00Z</time>
      </trkpt>
      <trkpt lat="44.59217" lon="5.47412">
        <ele>638</ele>
        <time>2022-10-28T09:56:01Z</time>
      </trkpt>
      <trkpt lat="44.59212" lon="5.47416">
        <ele>638</ele>
        <time>2022-10-28T09:56:02Z</time>
      </trkpt>
      <trkpt lat="44.59208" lon="5.47421">
        <ele>638</ele>
        <time>2022-10-28T09:56:03Z</time>
      </trkpt>
      <trkpt lat="44.59204" lon="5.47424">
        <ele>638</ele>
        <time>2022-10-28T09:56:04Z</time>
      </trkpt>
      <trkpt lat="44.59199" lon="5.47428">
        <ele>638.1</ele>
        <time>2022-10-28T09:56:05Z</time>
      </trkpt>
      <trkpt lat="44.59195" lon="5.47432">
        <ele>638.1</ele>
        <time>2022-10-28T09:56:06Z</time>
      </trkpt>
      <trkpt lat="44.59191" lon="5.47436">
        <ele>638.1</ele>
        <time>2022-10-28T09:56:07Z</time>
      </trkpt>
      <trkpt lat="44.59186" lon="5.4744">
        <ele>638.1</ele>
        <time>2022-10-28T09:56:08Z</time>
      </trkpt>
      <trkpt lat="44.59182" lon="5.47443">
        <ele>638.1</ele>
        <time>2022-10-28T09:56:09Z</time>
      </trkpt>
      <trkpt lat="44.59177" lon="5.47447">
        <ele>638.1</ele>
        <time>2022-10-28T09:56:10Z</time>
      </trkpt>
      <trkpt lat="44.59173" lon="5.47451">
        <ele>638.1</ele>
        <time>2022-10-28T09:56:11Z</time>
      </trkpt>
      <trkpt lat="44.59168" lon="5.47455">
        <ele>638.1</ele>
        <time>2022-10-28T09:56:12Z</time>
      </trkpt>
      <trkpt lat="44.59164" lon="5.47458">
        <ele>638.2</ele>
        <time>2022-10-28T09:56:13Z</time>
      </trkpt>
      <trkpt lat="44.5916" lon="5.47462">
        <ele>638.2</ele>
        <time>2022-10-28T09:56:14Z</time>
      </trkpt>
      <trkpt lat="44.59155" lon="5.47466">
        <ele>638.2</ele>
        <time>2022-10-28T09:56:15Z</time>
      </trkpt>
      <trkpt lat="44.59151" lon="5.4747">
        <ele>638.3</ele>
        <time>2022-10-28T09:56:16Z</time>
      </trkpt>
      <trkpt lat="44.59147" lon="5.47474">
        <ele>638.3</ele>
        <time>2022-10-28T09:56:17Z</time>
      </trkpt>
      <trkpt lat="44.59142" lon="5.47478">
        <ele>638.3</ele>
        <time>2022-10-28T09:56:18Z</time>
      </trkpt>
      <trkpt lat="44.59138" lon="5.47481">
        <ele>638.3</ele>
        <time>2022-10-28T09:56:19Z</time>
      </trkpt>
      <trkpt lat="44.59133" lon="5.47485">
        <ele>638.3</ele>
        <time>2022-10-28T09:56:20Z</time>
      </trkpt>
      <trkpt lat="44.59129" lon="5.47489">
        <ele>638.3</ele>
        <time>2022-10-28T09:56:21Z</time>
      </trkpt>
      <trkpt lat="44.59124" lon="5.47493">
        <ele>638.3</ele>
        <time>2022-10-28T09:56:22Z</time>
      </trkpt>
      <trkpt lat="44.59119" lon="5.47497">
        <ele>638.3</ele>
        <time>2022-10-28T09:56:23Z</time>
      </trkpt>
      <trkpt lat="44.59115" lon="5.47502">
        <ele>638.3</ele>
        <time>2022-10-28T09:56:24Z</time>
      </trkpt>
      <trkpt lat="44.5911" lon="5.47505">
        <ele>638.3</ele>
        <time>2022-10-28T09:56:25Z</time>
      </trkpt>
      <trkpt lat="44.59105" lon="5.4751">
        <ele>638.3</ele>
        <time>2022-10-28T09:56:26Z</time>
      </trkpt>
      <trkpt lat="44.59101" lon="5.47514">
        <ele>638.3</ele>
        <time>2022-10-28T09:56:27Z</time>
      </trkpt>
      <trkpt lat="44.59097" lon="5.47517">
        <ele>638.3</ele>
        <time>2022-10-28T09:56:28Z</time>
      </trkpt>
      <trkpt lat="44.59092" lon="5.47521">
        <ele>638.4</ele>
        <time>2022-10-28T09:56:29Z</time>
      </trkpt>
      <trkpt lat="44.59088" lon="5.47525">
        <ele>638.4</ele>
        <time>2022-10-28T09:56:30Z</time>
      </trkpt>
      <trkpt lat="44.59083" lon="5.47529">
        <ele>638.4</ele>
        <time>2022-10-28T09:56:31Z</time>
      </trkpt>
      <trkpt lat="44.59079" lon="5.47533">
        <ele>638.4</ele>
        <time>2022-10-28T09:56:32Z</time>
      </trkpt>
      <trkpt lat="44.59075" lon="5.47537">
        <ele>638.4</ele>
        <time>2022-10-28T09:56:33Z</time>
      </trkpt>
      <trkpt lat="44.5907" lon="5.47541">
        <ele>638.4</ele>
        <time>2022-10-28T09:56:34Z</time>
      </trkpt>
      <trkpt lat="44.59066" lon="5.47545">
        <ele>638.4</ele>
        <time>2022-10-28T09:56:35Z</time>
      </trkpt>
      <trkpt lat="44.59062" lon="5.47549">
        <ele>638.4</ele>
        <time>2022-10-28T09:56:36Z</time>
      </trkpt>
      <trkpt lat="44.59057" lon="5.47553">
        <ele>638.4</ele>
        <time>2022-10-28T09:56:37Z</time>
      </trkpt>
      <trkpt lat="44.59053" lon="5.47557">
        <ele>638.4</ele>
        <time>2022-10-28T09:56:38Z</time>
      </trkpt>
      <trkpt lat="44.59049" lon="5.47561">
        <ele>638.4</ele>
        <time>2022-10-28T09:56:39Z</time>
      </trkpt>
      <trkpt lat="44.59044" lon="5.47565">
        <ele>638.4</ele>
        <time>2022-10-28T09:56:40Z</time>
      </trkpt>
      <trkpt lat="44.59039" lon="5.47569">
        <ele>638.5</ele>
        <time>2022-10-28T09:56:41Z</time>
      </trkpt>
      <trkpt lat="44.59035" lon="5.47573">
        <ele>638.5</ele>
        <time>2022-10-28T09:56:42Z</time>
      </trkpt>
      <trkpt lat="44.5903" lon="5.47577">
        <ele>638.5</ele>
        <time>2022-10-28T09:56:43Z</time>
      </trkpt>
      <trkpt lat="44.59026" lon="5.47581">
        <ele>638.5</ele>
        <time>2022-10-28T09:56:44Z</time>
      </trkpt>
      <trkpt lat="44.59021" lon="5.47585">
        <ele>638.6</ele>
        <time>2022-10-28T09:56:45Z</time>
      </trkpt>
      <trkpt lat="44.59017" lon="5.47589">
        <ele>638.6</ele>
        <time>2022-10-28T09:56:46Z</time>
      </trkpt>
      <trkpt lat="44.59013" lon="5.47592">
        <ele>638.6</ele>
        <time>2022-10-28T09:56:47Z</time>
      </trkpt>
      <trkpt lat="44.59008" lon="5.47596">
        <ele>638.7</ele>
        <time>2022-10-28T09:56:48Z</time>
      </trkpt>
      <trkpt lat="44.59004" lon="5.476">
        <ele>638.7</ele>
        <time>2022-10-28T09:56:49Z</time>
      </trkpt>
      <trkpt lat="44.58999" lon="5.47604">
        <ele>638.7</ele>
        <time>2022-10-28T09:56:50Z</time>
      </trkpt>
      <trkpt lat="44.58995" lon="5.47608">
        <ele>638.7</ele>
        <time>2022-10-28T09:56:51Z</time>
      </trkpt>
      <trkpt lat="44.5899" lon="5.47612">
        <ele>638.8</ele>
        <time>2022-10-28T09:56:52Z</time>
      </trkpt>
      <trkpt lat="44.58986" lon="5.47616">
        <ele>638.8</ele>
        <time>2022-10-28T09:56:53Z</time>
      </trkpt>
      <trkpt lat="44.58982" lon="5.4762">
        <ele>638.9</ele>
        <time>2022-10-28T09:56:54Z</time>
      </trkpt>
      <trkpt lat="44.58977" lon="5.47624">
        <ele>638.9</ele>
        <time>2022-10-28T09:56:55Z</time>
      </trkpt>
      <trkpt lat="44.58973" lon="5.47628">
        <ele>638.9</ele>
        <time>2022-10-28T09:56:56Z</time>
      </trkpt>
      <trkpt lat="44.58969" lon="5.47631">
        <ele>639</ele>
        <time>2022-10-28T09:56:57Z</time>
      </trkpt>
      <trkpt lat="44.58964" lon="5.47635">
        <ele>639</ele>
        <time>2022-10-28T09:56:58Z</time>
      </trkpt>
      <trkpt lat="44.5896" lon="5.47639">
        <ele>639</ele>
        <time>2022-10-28T09:56:59Z</time>
      </trkpt>
      <trkpt lat="44.58956" lon="5.47642">
        <ele>639.1</ele>
        <time>2022-10-28T09:57:00Z</time>
      </trkpt>
      <trkpt lat="44.58952" lon="5.47646">
        <ele>639.1</ele>
        <time>2022-10-28T09:57:01Z</time>
      </trkpt>
      <trkpt lat="44.58947" lon="5.4765">
        <ele>639.1</ele>
        <time>2022-10-28T09:57:02Z</time>
      </trkpt>
      <trkpt lat="44.58943" lon="5.47654">
        <ele>639.2</ele>
        <time>2022-10-28T09:57:03Z</time>
      </trkpt>
      <trkpt lat="44.58939" lon="5.47658">
        <ele>639.2</ele>
        <time>2022-10-28T09:57:04Z</time>
      </trkpt>
      <trkpt lat="44.58934" lon="5.47662">
        <ele>639.2</ele>
        <time>2022-10-28T09:57:05Z</time>
      </trkpt>
      <trkpt lat="44.5893" lon="5.47666">
        <ele>639.2</ele>
        <time>2022-10-28T09:57:06Z</time>
      </trkpt>
      <trkpt lat="44.58925" lon="5.4767">
        <ele>639.3</ele>
        <time>2022-10-28T09:57:07Z</time>
      </trkpt>
      <trkpt lat="44.58921" lon="5.47674">
        <ele>639.3</ele>
        <time>2022-10-28T09:57:08Z</time>
      </trkpt>
      <trkpt lat="44.58917" lon="5.47678">
        <ele>639.3</ele>
        <time>2022-10-28T09:57:09Z</time>
      </trkpt>
      <trkpt lat="44.58912" lon="5.47682">
        <ele>639.3</ele>
        <time>2022-10-28T09:57:10Z</time>
      </trkpt>
      <trkpt lat="44.58908" lon="5.47686">
        <ele>639.3</ele>
        <time>2022-10-28T09:57:11Z</time>
      </trkpt>
      <trkpt lat="44.58904" lon="5.4769">
        <ele>639.3</ele>
        <time>2022-10-28T09:57:12Z</time>
      </trkpt>
      <trkpt lat="44.589" lon="5.47693">
        <ele>639.3</ele>
        <time>2022-10-28T09:57:13Z</time>
      </trkpt>
      <trkpt lat="44.58895" lon="5.47697">
        <ele>639.3</ele>
        <time>2022-10-28T09:57:14Z</time>
      </trkpt>
      <trkpt lat="44.58891" lon="5.477">
        <ele>639.3</ele>
        <time>2022-10-28T09:57:15Z</time>
      </trkpt>
      <trkpt lat="44.58887" lon="5.47704">
        <ele>639.3</ele>
        <time>2022-10-28T09:57:16Z</time>
      </trkpt>
      <trkpt lat="44.58883" lon="5.47707">
        <ele>639.3</ele>
        <time>2022-10-28T09:57:17Z</time>
      </trkpt>
      <trkpt lat="44.58879" lon="5.4771">
        <ele>639.3</ele>
        <time>2022-10-28T09:57:18Z</time>
      </trkpt>
      <trkpt lat="44.58874" lon="5.47714">
        <ele>639.3</ele>
        <time>2022-10-28T09:57:19Z</time>
      </trkpt>
      <trkpt lat="44.5887" lon="5.47718">
        <ele>639.3</ele>
        <time>2022-10-28T09:57:20Z</time>
      </trkpt>
      <trkpt lat="44.58866" lon="5.47722">
        <ele>639.3</ele>
        <time>2022-10-28T09:57:21Z</time>
      </trkpt>
      <trkpt lat="44.58861" lon="5.47726">
        <ele>639.3</ele>
        <time>2022-10-28T09:57:22Z</time>
      </trkpt>
      <trkpt lat="44.58857" lon="5.4773">
        <ele>639.3</ele>
        <time>2022-10-28T09:57:23Z</time>
      </trkpt>
      <trkpt lat="44.58852" lon="5.47734">
        <ele>639.3</ele>
        <time>2022-10-28T09:57:24Z</time>
      </trkpt>
      <trkpt lat="44.58847" lon="5.47738">
        <ele>639.3</ele>
        <time>2022-10-28T09:57:25Z</time>
      </trkpt>
      <trkpt lat="44.58843" lon="5.47741">
        <ele>639.3</ele>
        <time>2022-10-28T09:57:26Z</time>
      </trkpt>
      <trkpt lat="44.58838" lon="5.47745">
        <ele>639.3</ele>
        <time>2022-10-28T09:57:27Z</time>
      </trkpt>
      <trkpt lat="44.58833" lon="5.47749">
        <ele>639.3</ele>
        <time>2022-10-28T09:57:28Z</time>
      </trkpt>
      <trkpt lat="44.58828" lon="5.47753">
        <ele>639.3</ele>
        <time>2022-10-28T09:57:29Z</time>
      </trkpt>
      <trkpt lat="44.58824" lon="5.47756">
        <ele>639.3</ele>
        <time>2022-10-28T09:57:30Z</time>
      </trkpt>
      <trkpt lat="44.58819" lon="5.4776">
        <ele>639.3</ele>
        <time>2022-10-28T09:57:31Z</time>
      </trkpt>
      <trkpt lat="44.58815" lon="5.47764">
        <ele>639.3</ele>
        <time>2022-10-28T09:57:32Z</time>
      </trkpt>
      <trkpt lat="44.5881" lon="5.47768">
        <ele>639.3</ele>
        <time>2022-10-28T09:57:33Z</time>
      </trkpt>
      <trkpt lat="44.58805" lon="5.47772">
        <ele>639.3</ele>
        <time>2022-10-28T09:57:34Z</time>
      </trkpt>
      <trkpt lat="44.588" lon="5.47776">
        <ele>639.3</ele>
        <time>2022-10-28T09:57:35Z</time>
      </trkpt>
      <trkpt lat="44.58795" lon="5.47779">
        <ele>639.3</ele>
        <time>2022-10-28T09:57:36Z</time>
      </trkpt>
      <trkpt lat="44.58789" lon="5.47783">
        <ele>639.3</ele>
        <time>2022-10-28T09:57:37Z</time>
      </trkpt>
      <trkpt lat="44.58784" lon="5.47787">
        <ele>639.2</ele>
        <time>2022-10-28T09:57:38Z</time>
      </trkpt>
      <trkpt lat="44.58779" lon="5.47791">
        <ele>639.2</ele>
        <time>2022-10-28T09:57:39Z</time>
      </trkpt>
      <trkpt lat="44.58774" lon="5.47795">
        <ele>639.2</ele>
        <time>2022-10-28T09:57:40Z</time>
      </trkpt>
      <trkpt lat="44.58769" lon="5.47799">
        <ele>639.2</ele>
        <time>2022-10-28T09:57:41Z</time>
      </trkpt>
      <trkpt lat="44.58763" lon="5.47803">
        <ele>639.2</ele>
        <time>2022-10-28T09:57:42Z</time>
      </trkpt>
      <trkpt lat="44.58758" lon="5.47807">
        <ele>639.2</ele>
        <time>2022-10-28T09:57:43Z</time>
      </trkpt>
      <trkpt lat="44.58753" lon="5.47811">
        <ele>639.2</ele>
        <time>2022-10-28T09:57:44Z</time>
      </trkpt>
      <trkpt lat="44.58748" lon="5.47815">
        <ele>639.2</ele>
        <time>2022-10-28T09:57:45Z</time>
      </trkpt>
      <trkpt lat="44.58743" lon="5.47819">
        <ele>639.2</ele>
        <time>2022-10-28T09:57:46Z</time>
      </trkpt>
      <trkpt lat="44.58738" lon="5.47823">
        <ele>639.2</ele>
        <time>2022-10-28T09:57:47Z</time>
      </trkpt>
      <trkpt lat="44.58733" lon="5.47827">
        <ele>639.3</ele>
        <time>2022-10-28T09:57:48Z</time>
      </trkpt>
      <trkpt lat="44.58728" lon="5.47831">
        <ele>639.3</ele>
        <time>2022-10-28T09:57:49Z</time>
      </trkpt>
      <trkpt lat="44.58723" lon="5.47835">
        <ele>639.3</ele>
        <time>2022-10-28T09:57:50Z</time>
      </trkpt>
      <trkpt lat="44.58718" lon="5.47839">
        <ele>639.3</ele>
        <time>2022-10-28T09:57:51Z</time>
      </trkpt>
      <trkpt lat="44.58713" lon="5.47843">
        <ele>639.3</ele>
        <time>2022-10-28T09:57:52Z</time>
      </trkpt>
      <trkpt lat="44.58708" lon="5.47846">
        <ele>639.4</ele>
        <time>2022-10-28T09:57:53Z</time>
      </trkpt>
      <trkpt lat="44.58704" lon="5.4785">
        <ele>639.4</ele>
        <time>2022-10-28T09:57:54Z</time>
      </trkpt>
      <trkpt lat="44.58699" lon="5.47853">
        <ele>639.4</ele>
        <time>2022-10-28T09:57:55Z</time>
      </trkpt>
      <trkpt lat="44.58693" lon="5.47857">
        <ele>639.4</ele>
        <time>2022-10-28T09:57:56Z</time>
      </trkpt>
      <trkpt lat="44.58688" lon="5.47861">
        <ele>639.4</ele>
        <time>2022-10-28T09:57:57Z</time>
      </trkpt>
      <trkpt lat="44.58683" lon="5.47865">
        <ele>639.4</ele>
        <time>2022-10-28T09:57:58Z</time>
      </trkpt>
      <trkpt lat="44.58678" lon="5.47869">
        <ele>639.4</ele>
        <time>2022-10-28T09:57:59Z</time>
      </trkpt>
      <trkpt lat="44.58673" lon="5.47872">
        <ele>639.4</ele>
        <time>2022-10-28T09:58:00Z</time>
      </trkpt>
      <trkpt lat="44.58668" lon="5.47876">
        <ele>639.4</ele>
        <time>2022-10-28T09:58:01Z</time>
      </trkpt>
      <trkpt lat="44.58663" lon="5.4788">
        <ele>639.4</ele>
        <time>2022-10-28T09:58:02Z</time>
      </trkpt>
      <trkpt lat="44.58658" lon="5.47884">
        <ele>639.4</ele>
        <time>2022-10-28T09:58:03Z</time>
      </trkpt>
      <trkpt lat="44.58653" lon="5.47888">
        <ele>639.4</ele>
        <time>2022-10-28T09:58:04Z</time>
      </trkpt>
      <trkpt lat="44.58649" lon="5.47892">
        <ele>639.4</ele>
        <time>2022-10-28T09:58:05Z</time>
      </trkpt>
      <trkpt lat="44.58643" lon="5.47895">
        <ele>639.4</ele>
        <time>2022-10-28T09:58:06Z</time>
      </trkpt>
      <trkpt lat="44.58638" lon="5.479">
        <ele>639.4</ele>
        <time>2022-10-28T09:58:07Z</time>
      </trkpt>
      <trkpt lat="44.58633" lon="5.47903">
        <ele>639.5</ele>
        <time>2022-10-28T09:58:08Z</time>
      </trkpt>
      <trkpt lat="44.58628" lon="5.47907">
        <ele>639.5</ele>
        <time>2022-10-28T09:58:09Z</time>
      </trkpt>
      <trkpt lat="44.58623" lon="5.47911">
        <ele>639.5</ele>
        <time>2022-10-28T09:58:10Z</time>
      </trkpt>
      <trkpt lat="44.58618" lon="5.47915">
        <ele>639.5</ele>
        <time>2022-10-28T09:58:11Z</time>
      </trkpt>
      <trkpt lat="44.58613" lon="5.47919">
        <ele>639.5</ele>
        <time>2022-10-28T09:58:12Z</time>
      </trkpt>
      <trkpt lat="44.58609" lon="5.47923">
        <ele>639.5</ele>
        <time>2022-10-28T09:58:13Z</time>
      </trkpt>
      <trkpt lat="44.58604" lon="5.47927">
        <ele>639.4</ele>
        <time>2022-10-28T09:58:14Z</time>
      </trkpt>
      <trkpt lat="44.586" lon="5.47931">
        <ele>639.4</ele>
        <time>2022-10-28T09:58:15Z</time>
      </trkpt>
      <trkpt lat="44.58595" lon="5.47935">
        <ele>639.4</ele>
        <time>2022-10-28T09:58:16Z</time>
      </trkpt>
      <trkpt lat="44.5859" lon="5.47938">
        <ele>639.4</ele>
        <time>2022-10-28T09:58:17Z</time>
      </trkpt>
      <trkpt lat="44.58585" lon="5.47942">
        <ele>639.4</ele>
        <time>2022-10-28T09:58:18Z</time>
      </trkpt>
      <trkpt lat="44.58579" lon="5.47947">
        <ele>639.4</ele>
        <time>2022-10-28T09:58:19Z</time>
      </trkpt>
      <trkpt lat="44.58574" lon="5.47951">
        <ele>639.4</ele>
        <time>2022-10-28T09:58:20Z</time>
      </trkpt>
      <trkpt lat="44.58568" lon="5.47955">
        <ele>639.5</ele>
        <time>2022-10-28T09:58:21Z</time>
      </trkpt>
      <trkpt lat="44.58563" lon="5.47959">
        <ele>639.5</ele>
        <time>2022-10-28T09:58:22Z</time>
      </trkpt>
      <trkpt lat="44.58558" lon="5.47964">
        <ele>639.5</ele>
        <time>2022-10-28T09:58:23Z</time>
      </trkpt>
      <trkpt lat="44.58553" lon="5.47969">
        <ele>639.5</ele>
        <time>2022-10-28T09:58:24Z</time>
      </trkpt>
      <trkpt lat="44.58548" lon="5.47973">
        <ele>639.5</ele>
        <time>2022-10-28T09:58:25Z</time>
      </trkpt>
      <trkpt lat="44.58543" lon="5.47977">
        <ele>639.5</ele>
        <time>2022-10-28T09:58:26Z</time>
      </trkpt>
      <trkpt lat="44.58538" lon="5.47981">
        <ele>639.5</ele>
        <time>2022-10-28T09:58:27Z</time>
      </trkpt>
      <trkpt lat="44.58533" lon="5.47984">
        <ele>639.5</ele>
        <time>2022-10-28T09:58:28Z</time>
      </trkpt>
      <trkpt lat="44.58528" lon="5.47988">
        <ele>639.5</ele>
        <time>2022-10-28T09:58:29Z</time>
      </trkpt>
      <trkpt lat="44.58524" lon="5.47992">
        <ele>639.5</ele>
        <time>2022-10-28T09:58:30Z</time>
      </trkpt>
      <trkpt lat="44.58519" lon="5.47996">
        <ele>639.5</ele>
        <time>2022-10-28T09:58:31Z</time>
      </trkpt>
      <trkpt lat="44.58514" lon="5.48">
        <ele>639.5</ele>
        <time>2022-10-28T09:58:32Z</time>
      </trkpt>
      <trkpt lat="44.58509" lon="5.48004">
        <ele>639.5</ele>
        <time>2022-10-28T09:58:33Z</time>
      </trkpt>
      <trkpt lat="44.58504" lon="5.48008">
        <ele>639.5</ele>
        <time>2022-10-28T09:58:34Z</time>
      </trkpt>
      <trkpt lat="44.58499" lon="5.48012">
        <ele>639.5</ele>
        <time>2022-10-28T09:58:35Z</time>
      </trkpt>
      <trkpt lat="44.58494" lon="5.48016">
        <ele>639.5</ele>
        <time>2022-10-28T09:58:36Z</time>
      </trkpt>
      <trkpt lat="44.58489" lon="5.4802">
        <ele>639.5</ele>
        <time>2022-10-28T09:58:37Z</time>
      </trkpt>
      <trkpt lat="44.58484" lon="5.48023">
        <ele>639.5</ele>
        <time>2022-10-28T09:58:38Z</time>
      </trkpt>
      <trkpt lat="44.58479" lon="5.48027">
        <ele>639.5</ele>
        <time>2022-10-28T09:58:39Z</time>
      </trkpt>
      <trkpt lat="44.58474" lon="5.48031">
        <ele>639.5</ele>
        <time>2022-10-28T09:58:40Z</time>
      </trkpt>
      <trkpt lat="44.58469" lon="5.48034">
        <ele>639.5</ele>
        <time>2022-10-28T09:58:41Z</time>
      </trkpt>
      <trkpt lat="44.58464" lon="5.48037">
        <ele>639.5</ele>
        <time>2022-10-28T09:58:42Z</time>
      </trkpt>
      <trkpt lat="44.5846" lon="5.48041">
        <ele>639.5</ele>
        <time>2022-10-28T09:58:43Z</time>
      </trkpt>
      <trkpt lat="44.58455" lon="5.48044">
        <ele>639.5</ele>
        <time>2022-10-28T09:58:44Z</time>
      </trkpt>
      <trkpt lat="44.5845" lon="5.48048">
        <ele>639.5</ele>
        <time>2022-10-28T09:58:45Z</time>
      </trkpt>
      <trkpt lat="44.58446" lon="5.48052">
        <ele>639.5</ele>
        <time>2022-10-28T09:58:46Z</time>
      </trkpt>
      <trkpt lat="44.58441" lon="5.48056">
        <ele>639.4</ele>
        <time>2022-10-28T09:58:47Z</time>
      </trkpt>
      <trkpt lat="44.58436" lon="5.4806">
        <ele>639.4</ele>
        <time>2022-10-28T09:58:48Z</time>
      </trkpt>
      <trkpt lat="44.58431" lon="5.48064">
        <ele>639.4</ele>
        <time>2022-10-28T09:58:49Z</time>
      </trkpt>
      <trkpt lat="44.58426" lon="5.48068">
        <ele>639.4</ele>
        <time>2022-10-28T09:58:50Z</time>
      </trkpt>
      <trkpt lat="44.58421" lon="5.48072">
        <ele>639.4</ele>
        <time>2022-10-28T09:58:51Z</time>
      </trkpt>
      <trkpt lat="44.58416" lon="5.48076">
        <ele>639.4</ele>
        <time>2022-10-28T09:58:52Z</time>
      </trkpt>
      <trkpt lat="44.58411" lon="5.4808">
        <ele>639.4</ele>
        <time>2022-10-28T09:58:53Z</time>
      </trkpt>
      <trkpt lat="44.58406" lon="5.48083">
        <ele>639.4</ele>
        <time>2022-10-28T09:58:54Z</time>
      </trkpt>
      <trkpt lat="44.58401" lon="5.48087">
        <ele>639.4</ele>
        <time>2022-10-28T09:58:55Z</time>
      </trkpt>
      <trkpt lat="44.58396" lon="5.48091">
        <ele>639.4</ele>
        <time>2022-10-28T09:58:56Z</time>
      </trkpt>
      <trkpt lat="44.58391" lon="5.48095">
        <ele>639.5</ele>
        <time>2022-10-28T09:58:57Z</time>
      </trkpt>
      <trkpt lat="44.58387" lon="5.48099">
        <ele>639.5</ele>
        <time>2022-10-28T09:58:58Z</time>
      </trkpt>
      <trkpt lat="44.58382" lon="5.48102">
        <ele>639.5</ele>
        <time>2022-10-28T09:58:59Z</time>
      </trkpt>
      <trkpt lat="44.58377" lon="5.48106">
        <ele>639.5</ele>
        <time>2022-10-28T09:59:00Z</time>
      </trkpt>
      <trkpt lat="44.58373" lon="5.4811">
        <ele>639.5</ele>
        <time>2022-10-28T09:59:01Z</time>
      </trkpt>
      <trkpt lat="44.58368" lon="5.48113">
        <ele>639.5</ele>
        <time>2022-10-28T09:59:02Z</time>
      </trkpt>
      <trkpt lat="44.58363" lon="5.48117">
        <ele>639.5</ele>
        <time>2022-10-28T09:59:03Z</time>
      </trkpt>
      <trkpt lat="44.58358" lon="5.4812">
        <ele>639.6</ele>
        <time>2022-10-28T09:59:04Z</time>
      </trkpt>
      <trkpt lat="44.58354" lon="5.48123">
        <ele>639.6</ele>
        <time>2022-10-28T09:59:05Z</time>
      </trkpt>
      <trkpt lat="44.58349" lon="5.48126">
        <ele>639.6</ele>
        <time>2022-10-28T09:59:06Z</time>
      </trkpt>
      <trkpt lat="44.58345" lon="5.4813">
        <ele>639.6</ele>
        <time>2022-10-28T09:59:07Z</time>
      </trkpt>
      <trkpt lat="44.5834" lon="5.48133">
        <ele>639.7</ele>
        <time>2022-10-28T09:59:08Z</time>
      </trkpt>
      <trkpt lat="44.58336" lon="5.48136">
        <ele>639.7</ele>
        <time>2022-10-28T09:59:09Z</time>
      </trkpt>
      <trkpt lat="44.58331" lon="5.48139">
        <ele>639.7</ele>
        <time>2022-10-28T09:59:10Z</time>
      </trkpt>
      <trkpt lat="44.58326" lon="5.48143">
        <ele>639.7</ele>
        <time>2022-10-28T09:59:11Z</time>
      </trkpt>
      <trkpt lat="44.58321" lon="5.48146">
        <ele>639.7</ele>
        <time>2022-10-28T09:59:12Z</time>
      </trkpt>
      <trkpt lat="44.58316" lon="5.48148">
        <ele>639.7</ele>
        <time>2022-10-28T09:59:13Z</time>
      </trkpt>
      <trkpt lat="44.58311" lon="5.48151">
        <ele>639.7</ele>
        <time>2022-10-28T09:59:14Z</time>
      </trkpt>
      <trkpt lat="44.58306" lon="5.48154">
        <ele>639.7</ele>
        <time>2022-10-28T09:59:15Z</time>
      </trkpt>
      <trkpt lat="44.58301" lon="5.48157">
        <ele>639.7</ele>
        <time>2022-10-28T09:59:16Z</time>
      </trkpt>
      <trkpt lat="44.58296" lon="5.48159">
        <ele>639.7</ele>
        <time>2022-10-28T09:59:17Z</time>
      </trkpt>
      <trkpt lat="44.58291" lon="5.48161">
        <ele>639.7</ele>
        <time>2022-10-28T09:59:18Z</time>
      </trkpt>
      <trkpt lat="44.58285" lon="5.48164">
        <ele>639.7</ele>
        <time>2022-10-28T09:59:19Z</time>
      </trkpt>
      <trkpt lat="44.5828" lon="5.48166">
        <ele>639.8</ele>
        <time>2022-10-28T09:59:20Z</time>
      </trkpt>
      <trkpt lat="44.58275" lon="5.48168">
        <ele>639.8</ele>
        <time>2022-10-28T09:59:21Z</time>
      </trkpt>
      <trkpt lat="44.5827" lon="5.48169">
        <ele>639.8</ele>
        <time>2022-10-28T09:59:22Z</time>
      </trkpt>
      <trkpt lat="44.58265" lon="5.48171">
        <ele>639.9</ele>
        <time>2022-10-28T09:59:23Z</time>
      </trkpt>
      <trkpt lat="44.5826" lon="5.48173">
        <ele>639.9</ele>
        <time>2022-10-28T09:59:24Z</time>
      </trkpt>
      <trkpt lat="44.58255" lon="5.48175">
        <ele>639.9</ele>
        <time>2022-10-28T09:59:25Z</time>
      </trkpt>
      <trkpt lat="44.5825" lon="5.48176">
        <ele>639.9</ele>
        <time>2022-10-28T09:59:26Z</time>
      </trkpt>
      <trkpt lat="44.58244" lon="5.48178">
        <ele>640</ele>
        <time>2022-10-28T09:59:27Z</time>
      </trkpt>
      <trkpt lat="44.58239" lon="5.4818">
        <ele>640</ele>
        <time>2022-10-28T09:59:28Z</time>
      </trkpt>
      <trkpt lat="44.58234" lon="5.48182">
        <ele>640</ele>
        <time>2022-10-28T09:59:29Z</time>
      </trkpt>
      <trkpt lat="44.58229" lon="5.48184">
        <ele>640.1</ele>
        <time>2022-10-28T09:59:30Z</time>
      </trkpt>
      <trkpt lat="44.58224" lon="5.48186">
        <ele>640.1</ele>
        <time>2022-10-28T09:59:31Z</time>
      </trkpt>
      <trkpt lat="44.58219" lon="5.48188">
        <ele>640.2</ele>
        <time>2022-10-28T09:59:32Z</time>
      </trkpt>
      <trkpt lat="44.58214" lon="5.48191">
        <ele>640.2</ele>
        <time>2022-10-28T09:59:33Z</time>
      </trkpt>
      <trkpt lat="44.58209" lon="5.48195">
        <ele>640.3</ele>
        <time>2022-10-28T09:59:34Z</time>
      </trkpt>
      <trkpt lat="44.58204" lon="5.48198">
        <ele>640.3</ele>
        <time>2022-10-28T09:59:35Z</time>
      </trkpt>
      <trkpt lat="44.58199" lon="5.48201">
        <ele>640.3</ele>
        <time>2022-10-28T09:59:36Z</time>
      </trkpt>
      <trkpt lat="44.58195" lon="5.48205">
        <ele>640.4</ele>
        <time>2022-10-28T09:59:37Z</time>
      </trkpt>
      <trkpt lat="44.5819" lon="5.48208">
        <ele>640.4</ele>
        <time>2022-10-28T09:59:38Z</time>
      </trkpt>
      <trkpt lat="44.58185" lon="5.48212">
        <ele>640.4</ele>
        <time>2022-10-28T09:59:39Z</time>
      </trkpt>
      <trkpt lat="44.5818" lon="5.48216">
        <ele>640.5</ele>
        <time>2022-10-28T09:59:40Z</time>
      </trkpt>
      <trkpt lat="44.58175" lon="5.4822">
        <ele>640.5</ele>
        <time>2022-10-28T09:59:41Z</time>
      </trkpt>
      <trkpt lat="44.58171" lon="5.48224">
        <ele>640.5</ele>
        <time>2022-10-28T09:59:42Z</time>
      </trkpt>
      <trkpt lat="44.58166" lon="5.48228">
        <ele>640.6</ele>
        <time>2022-10-28T09:59:43Z</time>
      </trkpt>
      <trkpt lat="44.58161" lon="5.48232">
        <ele>640.6</ele>
        <time>2022-10-28T09:59:44Z</time>
      </trkpt>
      <trkpt lat="44.58156" lon="5.48235">
        <ele>640.7</ele>
        <time>2022-10-28T09:59:45Z</time>
      </trkpt>
      <trkpt lat="44.58152" lon="5.4824">
        <ele>640.7</ele>
        <time>2022-10-28T09:59:46Z</time>
      </trkpt>
      <trkpt lat="44.58147" lon="5.48244">
        <ele>640.8</ele>
        <time>2022-10-28T09:59:47Z</time>
      </trkpt>
      <trkpt lat="44.58142" lon="5.48247">
        <ele>640.8</ele>
        <time>2022-10-28T09:59:48Z</time>
      </trkpt>
      <trkpt lat="44.58138" lon="5.4825">
        <ele>640.8</ele>
        <time>2022-10-28T09:59:49Z</time>
      </trkpt>
      <trkpt lat="44.58133" lon="5.48254">
        <ele>640.9</ele>
        <time>2022-10-28T09:59:50Z</time>
      </trkpt>
      <trkpt lat="44.58128" lon="5.48258">
        <ele>640.9</ele>
        <time>2022-10-28T09:59:51Z</time>
      </trkpt>
      <trkpt lat="44.58124" lon="5.48262">
        <ele>640.9</ele>
        <time>2022-10-28T09:59:52Z</time>
      </trkpt>
      <trkpt lat="44.58119" lon="5.48266">
        <ele>641</ele>
        <time>2022-10-28T09:59:53Z</time>
      </trkpt>
      <trkpt lat="44.58115" lon="5.4827">
        <ele>641.1</ele>
        <time>2022-10-28T09:59:54Z</time>
      </trkpt>
      <trkpt lat="44.58111" lon="5.48274">
        <ele>641.2</ele>
        <time>2022-10-28T09:59:55Z</time>
      </trkpt>
      <trkpt lat="44.58106" lon="5.48279">
        <ele>641.2</ele>
        <time>2022-10-28T09:59:56Z</time>
      </trkpt>
      <trkpt lat="44.58102" lon="5.48283">
        <ele>641.3</ele>
        <time>2022-10-28T09:59:57Z</time>
      </trkpt>
      <trkpt lat="44.58098" lon="5.48286">
        <ele>641.4</ele>
        <time>2022-10-28T09:59:58Z</time>
      </trkpt>
      <trkpt lat="44.58094" lon="5.4829">
        <ele>641.5</ele>
        <time>2022-10-28T09:59:59Z</time>
      </trkpt>
      <trkpt lat="44.5809" lon="5.48294">
        <ele>641.6</ele>
        <time>2022-10-28T10:00:00Z</time>
      </trkpt>
      <trkpt lat="44.58086" lon="5.48298">
        <ele>641.7</ele>
        <time>2022-10-28T10:00:01Z</time>
      </trkpt>
      <trkpt lat="44.58082" lon="5.48301">
        <ele>641.8</ele>
        <time>2022-10-28T10:00:02Z</time>
      </trkpt>
      <trkpt lat="44.58079" lon="5.48305">
        <ele>641.9</ele>
        <time>2022-10-28T10:00:03Z</time>
      </trkpt>
      <trkpt lat="44.58075" lon="5.48309">
        <ele>642</ele>
        <time>2022-10-28T10:00:04Z</time>
      </trkpt>
      <trkpt lat="44.58072" lon="5.48313">
        <ele>642.1</ele>
        <time>2022-10-28T10:00:05Z</time>
      </trkpt>
      <trkpt lat="44.58068" lon="5.48317">
        <ele>642.2</ele>
        <time>2022-10-28T10:00:06Z</time>
      </trkpt>
      <trkpt lat="44.58066" lon="5.4832">
        <ele>642.3</ele>
        <time>2022-10-28T10:00:07Z</time>
      </trkpt>
      <trkpt lat="44.58062" lon="5.48324">
        <ele>642.4</ele>
        <time>2022-10-28T10:00:08Z</time>
      </trkpt>
      <trkpt lat="44.58058" lon="5.48329">
        <ele>642.6</ele>
        <time>2022-10-28T10:00:09Z</time>
      </trkpt>
      <trkpt lat="44.58055" lon="5.48333">
        <ele>642.7</ele>
        <time>2022-10-28T10:00:10Z</time>
      </trkpt>
      <trkpt lat="44.58052" lon="5.48336">
        <ele>642.8</ele>
        <time>2022-10-28T10:00:11Z</time>
      </trkpt>
      <trkpt lat="44.58049" lon="5.48339">
        <ele>642.9</ele>
        <time>2022-10-28T10:00:12Z</time>
      </trkpt>
      <trkpt lat="44.58046" lon="5.48342">
        <ele>643</ele>
        <time>2022-10-28T10:00:13Z</time>
      </trkpt>
      <trkpt lat="44.58043" lon="5.48343">
        <ele>643.1</ele>
        <time>2022-10-28T10:00:14Z</time>
      </trkpt>
      <trkpt lat="44.58038" lon="5.4835">
        <ele>643.3</ele>
        <time>2022-10-28T10:00:16Z</time>
      </trkpt>
      <trkpt lat="44.58034" lon="5.48355">
        <ele>643.4</ele>
        <time>2022-10-28T10:00:17Z</time>
      </trkpt>
      <trkpt lat="44.58031" lon="5.4836">
        <ele>643.5</ele>
        <time>2022-10-28T10:00:18Z</time>
      </trkpt>
      <trkpt lat="44.58028" lon="5.48365">
        <ele>643.6</ele>
        <time>2022-10-28T10:00:19Z</time>
      </trkpt>
      <trkpt lat="44.58025" lon="5.48368">
        <ele>643.7</ele>
        <time>2022-10-28T10:00:20Z</time>
      </trkpt>
      <trkpt lat="44.58022" lon="5.48373">
        <ele>643.7</ele>
        <time>2022-10-28T10:00:22Z</time>
      </trkpt>
      <trkpt lat="44.58018" lon="5.48377">
        <ele>643.8</ele>
        <time>2022-10-28T10:00:23Z</time>
      </trkpt>
      <trkpt lat="44.58014" lon="5.48381">
        <ele>643.9</ele>
        <time>2022-10-28T10:00:24Z</time>
      </trkpt>
      <trkpt lat="44.58011" lon="5.48385">
        <ele>644</ele>
        <time>2022-10-28T10:00:25Z</time>
      </trkpt>
      <trkpt lat="44.58008" lon="5.48389">
        <ele>644</ele>
        <time>2022-10-28T10:00:26Z</time>
      </trkpt>
      <trkpt lat="44.58004" lon="5.48393">
        <ele>644.1</ele>
        <time>2022-10-28T10:00:27Z</time>
      </trkpt>
      <trkpt lat="44.58" lon="5.48398">
        <ele>644.2</ele>
        <time>2022-10-28T10:00:29Z</time>
      </trkpt>
      <trkpt lat="44.57996" lon="5.48403">
        <ele>644.3</ele>
        <time>2022-10-28T10:00:30Z</time>
      </trkpt>
      <trkpt lat="44.57992" lon="5.48408">
        <ele>644.4</ele>
        <time>2022-10-28T10:00:31Z</time>
      </trkpt>
      <trkpt lat="44.57989" lon="5.48412">
        <ele>644.4</ele>
        <time>2022-10-28T10:00:32Z</time>
      </trkpt>
      <trkpt lat="44.57985" lon="5.48416">
        <ele>644.5</ele>
        <time>2022-10-28T10:00:33Z</time>
      </trkpt>
      <trkpt lat="44.57981" lon="5.48421">
        <ele>644.6</ele>
        <time>2022-10-28T10:00:34Z</time>
      </trkpt>
      <trkpt lat="44.57977" lon="5.48425">
        <ele>644.6</ele>
        <time>2022-10-28T10:00:35Z</time>
      </trkpt>
      <trkpt lat="44.57973" lon="5.4843">
        <ele>644.7</ele>
        <time>2022-10-28T10:00:36Z</time>
      </trkpt>
      <trkpt lat="44.57969" lon="5.48434">
        <ele>644.8</ele>
        <time>2022-10-28T10:00:37Z</time>
      </trkpt>
      <trkpt lat="44.57966" lon="5.48439">
        <ele>644.8</ele>
        <time>2022-10-28T10:00:38Z</time>
      </trkpt>
      <trkpt lat="44.57962" lon="5.48444">
        <ele>644.9</ele>
        <time>2022-10-28T10:00:39Z</time>
      </trkpt>
      <trkpt lat="44.57959" lon="5.48448">
        <ele>644.9</ele>
        <time>2022-10-28T10:00:40Z</time>
      </trkpt>
      <trkpt lat="44.57955" lon="5.48453">
        <ele>644.9</ele>
        <time>2022-10-28T10:00:41Z</time>
      </trkpt>
      <trkpt lat="44.57952" lon="5.48458">
        <ele>644.9</ele>
        <time>2022-10-28T10:00:42Z</time>
      </trkpt>
      <trkpt lat="44.57948" lon="5.48463">
        <ele>644.9</ele>
        <time>2022-10-28T10:00:43Z</time>
      </trkpt>
      <trkpt lat="44.57945" lon="5.48469">
        <ele>645</ele>
        <time>2022-10-28T10:00:44Z</time>
      </trkpt>
      <trkpt lat="44.57941" lon="5.48474">
        <ele>645</ele>
        <time>2022-10-28T10:00:45Z</time>
      </trkpt>
      <trkpt lat="44.57938" lon="5.4848">
        <ele>645</ele>
        <time>2022-10-28T10:00:46Z</time>
      </trkpt>
      <trkpt lat="44.57935" lon="5.48485">
        <ele>645</ele>
        <time>2022-10-28T10:00:47Z</time>
      </trkpt>
      <trkpt lat="44.57933" lon="5.48491">
        <ele>645.1</ele>
        <time>2022-10-28T10:00:48Z</time>
      </trkpt>
      <trkpt lat="44.5793" lon="5.48496">
        <ele>645.1</ele>
        <time>2022-10-28T10:00:49Z</time>
      </trkpt>
      <trkpt lat="44.57927" lon="5.48502">
        <ele>645.1</ele>
        <time>2022-10-28T10:00:50Z</time>
      </trkpt>
      <trkpt lat="44.57924" lon="5.48507">
        <ele>645.1</ele>
        <time>2022-10-28T10:00:51Z</time>
      </trkpt>
      <trkpt lat="44.57921" lon="5.48513">
        <ele>645.1</ele>
        <time>2022-10-28T10:00:52Z</time>
      </trkpt>
      <trkpt lat="44.57919" lon="5.48519">
        <ele>645.2</ele>
        <time>2022-10-28T10:00:53Z</time>
      </trkpt>
      <trkpt lat="44.57916" lon="5.48525">
        <ele>645.2</ele>
        <time>2022-10-28T10:00:54Z</time>
      </trkpt>
      <trkpt lat="44.57913" lon="5.48531">
        <ele>645.2</ele>
        <time>2022-10-28T10:00:55Z</time>
      </trkpt>
      <trkpt lat="44.57911" lon="5.48536">
        <ele>645.3</ele>
        <time>2022-10-28T10:00:56Z</time>
      </trkpt>
      <trkpt lat="44.57909" lon="5.48542">
        <ele>645.3</ele>
        <time>2022-10-28T10:00:57Z</time>
      </trkpt>
      <trkpt lat="44.57906" lon="5.48548">
        <ele>645.3</ele>
        <time>2022-10-28T10:00:58Z</time>
      </trkpt>
      <trkpt lat="44.57905" lon="5.48552">
        <ele>645.3</ele>
        <time>2022-10-28T10:00:59Z</time>
      </trkpt>
      <trkpt lat="44.57903" lon="5.48558">
        <ele>645.4</ele>
        <time>2022-10-28T10:01:00Z</time>
      </trkpt>
      <trkpt lat="44.57901" lon="5.48563">
        <ele>645.4</ele>
        <time>2022-10-28T10:01:01Z</time>
      </trkpt>
      <trkpt lat="44.57899" lon="5.48569">
        <ele>645.4</ele>
        <time>2022-10-28T10:01:02Z</time>
      </trkpt>
      <trkpt lat="44.57897" lon="5.48574">
        <ele>645.4</ele>
        <time>2022-10-28T10:01:03Z</time>
      </trkpt>
      <trkpt lat="44.57895" lon="5.4858">
        <ele>645.5</ele>
        <time>2022-10-28T10:01:04Z</time>
      </trkpt>
      <trkpt lat="44.57892" lon="5.48587">
        <ele>645.5</ele>
        <time>2022-10-28T10:01:05Z</time>
      </trkpt>
      <trkpt lat="44.5789" lon="5.48591">
        <ele>645.5</ele>
        <time>2022-10-28T10:01:06Z</time>
      </trkpt>
      <trkpt lat="44.57888" lon="5.48598">
        <ele>645.5</ele>
        <time>2022-10-28T10:01:07Z</time>
      </trkpt>
      <trkpt lat="44.57885" lon="5.48604">
        <ele>645.4</ele>
        <time>2022-10-28T10:01:08Z</time>
      </trkpt>
      <trkpt lat="44.57883" lon="5.4861">
        <ele>645.3</ele>
        <time>2022-10-28T10:01:09Z</time>
      </trkpt>
      <trkpt lat="44.57881" lon="5.48615">
        <ele>645.2</ele>
        <time>2022-10-28T10:01:10Z</time>
      </trkpt>
      <trkpt lat="44.57878" lon="5.48622">
        <ele>645.1</ele>
        <time>2022-10-28T10:01:11Z</time>
      </trkpt>
      <trkpt lat="44.57876" lon="5.48628">
        <ele>645</ele>
        <time>2022-10-28T10:01:12Z</time>
      </trkpt>
      <trkpt lat="44.57874" lon="5.48634">
        <ele>644.8</ele>
        <time>2022-10-28T10:01:13Z</time>
      </trkpt>
      <trkpt lat="44.57871" lon="5.48641">
        <ele>644.6</ele>
        <time>2022-10-28T10:01:14Z</time>
      </trkpt>
      <trkpt lat="44.57869" lon="5.48648">
        <ele>644.4</ele>
        <time>2022-10-28T10:01:15Z</time>
      </trkpt>
      <trkpt lat="44.57866" lon="5.48655">
        <ele>644.2</ele>
        <time>2022-10-28T10:01:16Z</time>
      </trkpt>
      <trkpt lat="44.57863" lon="5.48662">
        <ele>643.9</ele>
        <time>2022-10-28T10:01:17Z</time>
      </trkpt>
      <trkpt lat="44.5786" lon="5.4867">
        <ele>643.7</ele>
        <time>2022-10-28T10:01:18Z</time>
      </trkpt>
      <trkpt lat="44.57857" lon="5.48677">
        <ele>643.4</ele>
        <time>2022-10-28T10:01:19Z</time>
      </trkpt>
      <trkpt lat="44.57854" lon="5.48685">
        <ele>643.2</ele>
        <time>2022-10-28T10:01:20Z</time>
      </trkpt>
      <trkpt lat="44.57851" lon="5.48692">
        <ele>643</ele>
        <time>2022-10-28T10:01:21Z</time>
      </trkpt>
      <trkpt lat="44.57848" lon="5.48699">
        <ele>642.8</ele>
        <time>2022-10-28T10:01:22Z</time>
      </trkpt>
      <trkpt lat="44.57845" lon="5.48707">
        <ele>642.6</ele>
        <time>2022-10-28T10:01:23Z</time>
      </trkpt>
      <trkpt lat="44.57841" lon="5.48715">
        <ele>642.4</ele>
        <time>2022-10-28T10:01:24Z</time>
      </trkpt>
      <trkpt lat="44.57838" lon="5.48723">
        <ele>642.3</ele>
        <time>2022-10-28T10:01:25Z</time>
      </trkpt>
      <trkpt lat="44.57835" lon="5.48731">
        <ele>642.2</ele>
        <time>2022-10-28T10:01:26Z</time>
      </trkpt>
      <trkpt lat="44.57832" lon="5.48739">
        <ele>642.2</ele>
        <time>2022-10-28T10:01:27Z</time>
      </trkpt>
      <trkpt lat="44.57828" lon="5.48746">
        <ele>642.1</ele>
        <time>2022-10-28T10:01:28Z</time>
      </trkpt>
      <trkpt lat="44.57825" lon="5.48754">
        <ele>642.1</ele>
        <time>2022-10-28T10:01:29Z</time>
      </trkpt>
      <trkpt lat="44.57823" lon="5.48762">
        <ele>642.1</ele>
        <time>2022-10-28T10:01:30Z</time>
      </trkpt>
      <trkpt lat="44.5782" lon="5.48769">
        <ele>642.1</ele>
        <time>2022-10-28T10:01:31Z</time>
      </trkpt>
      <trkpt lat="44.57817" lon="5.48775">
        <ele>642.1</ele>
        <time>2022-10-28T10:01:32Z</time>
      </trkpt>
      <trkpt lat="44.57815" lon="5.48781">
        <ele>642.2</ele>
        <time>2022-10-28T10:01:33Z</time>
      </trkpt>
      <trkpt lat="44.57812" lon="5.48786">
        <ele>642.2</ele>
        <time>2022-10-28T10:01:34Z</time>
      </trkpt>
      <trkpt lat="44.57811" lon="5.4879">
        <ele>642.2</ele>
        <time>2022-10-28T10:01:35Z</time>
      </trkpt>
      <trkpt lat="44.57809" lon="5.48793">
        <ele>642.2</ele>
        <time>2022-10-28T10:01:36Z</time>
      </trkpt>
      <trkpt lat="44.57809" lon="5.48794">
        <ele>642.2</ele>
        <time>2022-10-28T10:01:37Z</time>
      </trkpt>
      <trkpt lat="44.57808" lon="5.48795">
        <ele>642.2</ele>
        <time>2022-10-28T10:01:38Z</time>
      </trkpt>
      <trkpt lat="44.57808" lon="5.48796">
        <ele>642.2</ele>
        <time>2022-10-28T10:01:39Z</time>
      </trkpt>
      <trkpt lat="44.57808" lon="5.48797">
        <ele>642.2</ele>
        <time>2022-10-28T10:01:40Z</time>
      </trkpt>
      <trkpt lat="44.57808" lon="5.48797">
        <ele>642.2</ele>
        <time>2022-10-28T10:01:41Z</time>
      </trkpt>
      <trkpt lat="44.57808" lon="5.48798">
        <ele>642.2</ele>
        <time>2022-10-28T10:01:42Z</time>
      </trkpt>
      <trkpt lat="44.57808" lon="5.48798">
        <ele>642.2</ele>
        <time>2022-10-28T10:01:43Z</time>
      </trkpt>
      <trkpt lat="44.57807" lon="5.48799">
        <ele>642.2</ele>
        <time>2022-10-28T10:01:44Z</time>
      </trkpt>
      <trkpt lat="44.57807" lon="5.48799">
        <ele>642.2</ele>
        <time>2022-10-28T10:01:45Z</time>
      </trkpt>
      <trkpt lat="44.57807" lon="5.488">
        <ele>642.2</ele>
        <time>2022-10-28T10:01:46Z</time>
      </trkpt>
      <trkpt lat="44.57807" lon="5.488">
        <ele>642.2</ele>
        <time>2022-10-28T10:01:47Z</time>
      </trkpt>
      <trkpt lat="44.57807" lon="5.48801">
        <ele>642.2</ele>
        <time>2022-10-28T10:01:48Z</time>
      </trkpt>
      <trkpt lat="44.57807" lon="5.48801">
        <ele>642.2</ele>
        <time>2022-10-28T10:01:49Z</time>
      </trkpt>
      <trkpt lat="44.57806" lon="5.48802">
        <ele>642.2</ele>
        <time>2022-10-28T10:01:50Z</time>
      </trkpt>
      <trkpt lat="44.57806" lon="5.48803">
        <ele>642.2</ele>
        <time>2022-10-28T10:02:16Z</time>
      </trkpt>
      <trkpt lat="44.57806" lon="5.48803">
        <ele>642.2</ele>
        <time>2022-10-28T10:02:17Z</time>
      </trkpt>
      <trkpt lat="44.57806" lon="5.48804">
        <ele>642.2</ele>
        <time>2022-10-28T10:02:18Z</time>
      </trkpt>
      <trkpt lat="44.57804" lon="5.48807">
        <ele>642.2</ele>
        <time>2022-10-28T10:02:19Z</time>
      </trkpt>
      <trkpt lat="44.57802" lon="5.48811">
        <ele>642.2</ele>
        <time>2022-10-28T10:02:20Z</time>
      </trkpt>
      <trkpt lat="44.578" lon="5.48816">
        <ele>642.2</ele>
        <time>2022-10-28T10:02:21Z</time>
      </trkpt>
      <trkpt lat="44.57798" lon="5.4882">
        <ele>642.2</ele>
        <time>2022-10-28T10:02:22Z</time>
      </trkpt>
      <trkpt lat="44.57796" lon="5.48825">
        <ele>642.2</ele>
        <time>2022-10-28T10:02:23Z</time>
      </trkpt>
      <trkpt lat="44.57793" lon="5.4883">
        <ele>642.2</ele>
        <time>2022-10-28T10:02:24Z</time>
      </trkpt>
      <trkpt lat="44.57791" lon="5.48835">
        <ele>642.3</ele>
        <time>2022-10-28T10:02:25Z</time>
      </trkpt>
      <trkpt lat="44.57789" lon="5.48839">
        <ele>642.3</ele>
        <time>2022-10-28T10:02:26Z</time>
      </trkpt>
      <trkpt lat="44.57787" lon="5.48844">
        <ele>642.3</ele>
        <time>2022-10-28T10:02:27Z</time>
      </trkpt>
      <trkpt lat="44.57785" lon="5.4885">
        <ele>642.3</ele>
        <time>2022-10-28T10:02:28Z</time>
      </trkpt>
      <trkpt lat="44.57783" lon="5.48857">
        <ele>642.4</ele>
        <time>2022-10-28T10:02:29Z</time>
      </trkpt>
      <trkpt lat="44.57781" lon="5.48864">
        <ele>642.4</ele>
        <time>2022-10-28T10:02:30Z</time>
      </trkpt>
      <trkpt lat="44.57779" lon="5.4887">
        <ele>642.4</ele>
        <time>2022-10-28T10:02:31Z</time>
      </trkpt>
      <trkpt lat="44.57777" lon="5.48876">
        <ele>642.4</ele>
        <time>2022-10-28T10:02:32Z</time>
      </trkpt>
      <trkpt lat="44.57774" lon="5.48883">
        <ele>642.4</ele>
        <time>2022-10-28T10:02:33Z</time>
      </trkpt>
      <trkpt lat="44.57772" lon="5.48889">
        <ele>642.5</ele>
        <time>2022-10-28T10:02:34Z</time>
      </trkpt>
      <trkpt lat="44.5777" lon="5.48895">
        <ele>642.5</ele>
        <time>2022-10-28T10:02:35Z</time>
      </trkpt>
      <trkpt lat="44.57768" lon="5.48901">
        <ele>642.5</ele>
        <time>2022-10-28T10:02:36Z</time>
      </trkpt>
      <trkpt lat="44.57766" lon="5.48908">
        <ele>642.5</ele>
        <time>2022-10-28T10:02:37Z</time>
      </trkpt>
      <trkpt lat="44.57763" lon="5.48914">
        <ele>642.5</ele>
        <time>2022-10-28T10:02:38Z</time>
      </trkpt>
      <trkpt lat="44.5776" lon="5.4892">
        <ele>642.5</ele>
        <time>2022-10-28T10:02:39Z</time>
      </trkpt>
      <trkpt lat="44.57758" lon="5.48927">
        <ele>642.5</ele>
        <time>2022-10-28T10:02:40Z</time>
      </trkpt>
      <trkpt lat="44.57756" lon="5.48933">
        <ele>642.5</ele>
        <time>2022-10-28T10:02:41Z</time>
      </trkpt>
      <trkpt lat="44.57753" lon="5.4894">
        <ele>642.5</ele>
        <time>2022-10-28T10:02:42Z</time>
      </trkpt>
      <trkpt lat="44.57751" lon="5.48946">
        <ele>642.6</ele>
        <time>2022-10-28T10:02:43Z</time>
      </trkpt>
      <trkpt lat="44.57748" lon="5.48952">
        <ele>642.6</ele>
        <time>2022-10-28T10:02:44Z</time>
      </trkpt>
      <trkpt lat="44.57746" lon="5.48958">
        <ele>642.6</ele>
        <time>2022-10-28T10:02:45Z</time>
      </trkpt>
      <trkpt lat="44.57743" lon="5.48964">
        <ele>642.6</ele>
        <time>2022-10-28T10:02:46Z</time>
      </trkpt>
      <trkpt lat="44.57741" lon="5.48971">
        <ele>642.7</ele>
        <time>2022-10-28T10:02:47Z</time>
      </trkpt>
      <trkpt lat="44.57738" lon="5.48977">
        <ele>642.7</ele>
        <time>2022-10-28T10:02:48Z</time>
      </trkpt>
      <trkpt lat="44.57736" lon="5.48984">
        <ele>642.7</ele>
        <time>2022-10-28T10:02:49Z</time>
      </trkpt>
      <trkpt lat="44.57734" lon="5.4899">
        <ele>642.8</ele>
        <time>2022-10-28T10:02:50Z</time>
      </trkpt>
      <trkpt lat="44.57731" lon="5.48997">
        <ele>642.8</ele>
        <time>2022-10-28T10:02:51Z</time>
      </trkpt>
      <trkpt lat="44.57729" lon="5.49003">
        <ele>642.8</ele>
        <time>2022-10-28T10:02:52Z</time>
      </trkpt>
      <trkpt lat="44.57726" lon="5.4901">
        <ele>642.8</ele>
        <time>2022-10-28T10:02:53Z</time>
      </trkpt>
      <trkpt lat="44.57723" lon="5.49016">
        <ele>642.8</ele>
        <time>2022-10-28T10:02:54Z</time>
      </trkpt>
      <trkpt lat="44.57721" lon="5.49023">
        <ele>642.9</ele>
        <time>2022-10-28T10:02:55Z</time>
      </trkpt>
      <trkpt lat="44.57718" lon="5.49029">
        <ele>642.9</ele>
        <time>2022-10-28T10:02:56Z</time>
      </trkpt>
      <trkpt lat="44.57716" lon="5.49036">
        <ele>642.9</ele>
        <time>2022-10-28T10:02:57Z</time>
      </trkpt>
      <trkpt lat="44.57713" lon="5.49042">
        <ele>642.9</ele>
        <time>2022-10-28T10:02:58Z</time>
      </trkpt>
      <trkpt lat="44.57711" lon="5.49048">
        <ele>642.9</ele>
        <time>2022-10-28T10:02:59Z</time>
      </trkpt>
      <trkpt lat="44.57708" lon="5.49054">
        <ele>642.9</ele>
        <time>2022-10-28T10:03:00Z</time>
      </trkpt>
      <trkpt lat="44.57705" lon="5.49061">
        <ele>642.9</ele>
        <time>2022-10-28T10:03:01Z</time>
      </trkpt>
      <trkpt lat="44.57703" lon="5.49067">
        <ele>642.9</ele>
        <time>2022-10-28T10:03:02Z</time>
      </trkpt>
      <trkpt lat="44.57701" lon="5.49074">
        <ele>643</ele>
        <time>2022-10-28T10:03:03Z</time>
      </trkpt>
      <trkpt lat="44.57698" lon="5.49081">
        <ele>643</ele>
        <time>2022-10-28T10:03:04Z</time>
      </trkpt>
      <trkpt lat="44.57696" lon="5.49087">
        <ele>643</ele>
        <time>2022-10-28T10:03:05Z</time>
      </trkpt>
      <trkpt lat="44.57693" lon="5.49094">
        <ele>643.1</ele>
        <time>2022-10-28T10:03:06Z</time>
      </trkpt>
      <trkpt lat="44.57691" lon="5.49101">
        <ele>643.1</ele>
        <time>2022-10-28T10:03:07Z</time>
      </trkpt>
      <trkpt lat="44.57688" lon="5.49107">
        <ele>643.1</ele>
        <time>2022-10-28T10:03:08Z</time>
      </trkpt>
      <trkpt lat="44.57685" lon="5.49114">
        <ele>643.1</ele>
        <time>2022-10-28T10:03:09Z</time>
      </trkpt>
      <trkpt lat="44.57683" lon="5.4912">
        <ele>643.1</ele>
        <time>2022-10-28T10:03:10Z</time>
      </trkpt>
      <trkpt lat="44.5768" lon="5.49127">
        <ele>643.1</ele>
        <time>2022-10-28T10:03:11Z</time>
      </trkpt>
      <trkpt lat="44.57678" lon="5.49133">
        <ele>643.1</ele>
        <time>2022-10-28T10:03:12Z</time>
      </trkpt>
      <trkpt lat="44.57676" lon="5.4914">
        <ele>643.2</ele>
        <time>2022-10-28T10:03:13Z</time>
      </trkpt>
      <trkpt lat="44.57673" lon="5.49146">
        <ele>643.2</ele>
        <time>2022-10-28T10:03:14Z</time>
      </trkpt>
      <trkpt lat="44.57671" lon="5.49153">
        <ele>643.2</ele>
        <time>2022-10-28T10:03:15Z</time>
      </trkpt>
      <trkpt lat="44.57668" lon="5.49159">
        <ele>643.3</ele>
        <time>2022-10-28T10:03:16Z</time>
      </trkpt>
      <trkpt lat="44.57665" lon="5.49166">
        <ele>643.3</ele>
        <time>2022-10-28T10:03:17Z</time>
      </trkpt>
      <trkpt lat="44.57663" lon="5.49172">
        <ele>643.3</ele>
        <time>2022-10-28T10:03:18Z</time>
      </trkpt>
      <trkpt lat="44.5766" lon="5.49179">
        <ele>643.4</ele>
        <time>2022-10-28T10:03:19Z</time>
      </trkpt>
      <trkpt lat="44.57658" lon="5.49185">
        <ele>643.4</ele>
        <time>2022-10-28T10:03:20Z</time>
      </trkpt>
      <trkpt lat="44.57655" lon="5.49192">
        <ele>643.4</ele>
        <time>2022-10-28T10:03:21Z</time>
      </trkpt>
      <trkpt lat="44.57653" lon="5.49198">
        <ele>643.4</ele>
        <time>2022-10-28T10:03:22Z</time>
      </trkpt>
      <trkpt lat="44.5765" lon="5.49204">
        <ele>643.5</ele>
        <time>2022-10-28T10:03:23Z</time>
      </trkpt>
      <trkpt lat="44.57648" lon="5.49211">
        <ele>643.5</ele>
        <time>2022-10-28T10:03:24Z</time>
      </trkpt>
      <trkpt lat="44.57645" lon="5.49217">
        <ele>643.5</ele>
        <time>2022-10-28T10:03:25Z</time>
      </trkpt>
      <trkpt lat="44.57643" lon="5.49223">
        <ele>643.6</ele>
        <time>2022-10-28T10:03:26Z</time>
      </trkpt>
      <trkpt lat="44.5764" lon="5.49229">
        <ele>643.6</ele>
        <time>2022-10-28T10:03:27Z</time>
      </trkpt>
      <trkpt lat="44.57638" lon="5.49235">
        <ele>643.6</ele>
        <time>2022-10-28T10:03:28Z</time>
      </trkpt>
      <trkpt lat="44.57635" lon="5.49241">
        <ele>643.6</ele>
        <time>2022-10-28T10:03:29Z</time>
      </trkpt>
      <trkpt lat="44.57633" lon="5.49247">
        <ele>643.6</ele>
        <time>2022-10-28T10:03:30Z</time>
      </trkpt>
      <trkpt lat="44.5763" lon="5.49254">
        <ele>643.6</ele>
        <time>2022-10-28T10:03:31Z</time>
      </trkpt>
      <trkpt lat="44.57628" lon="5.4926">
        <ele>643.7</ele>
        <time>2022-10-28T10:03:32Z</time>
      </trkpt>
      <trkpt lat="44.57625" lon="5.49266">
        <ele>643.7</ele>
        <time>2022-10-28T10:03:33Z</time>
      </trkpt>
      <trkpt lat="44.57623" lon="5.49272">
        <ele>643.7</ele>
        <time>2022-10-28T10:03:34Z</time>
      </trkpt>
      <trkpt lat="44.57621" lon="5.49278">
        <ele>643.7</ele>
        <time>2022-10-28T10:03:35Z</time>
      </trkpt>
      <trkpt lat="44.57619" lon="5.49285">
        <ele>643.7</ele>
        <time>2022-10-28T10:03:36Z</time>
      </trkpt>
      <trkpt lat="44.57617" lon="5.49291">
        <ele>643.8</ele>
        <time>2022-10-28T10:03:37Z</time>
      </trkpt>
      <trkpt lat="44.57614" lon="5.49297">
        <ele>643.8</ele>
        <time>2022-10-28T10:03:38Z</time>
      </trkpt>
      <trkpt lat="44.57612" lon="5.49303">
        <ele>643.8</ele>
        <time>2022-10-28T10:03:39Z</time>
      </trkpt>
      <trkpt lat="44.57609" lon="5.49309">
        <ele>643.8</ele>
        <time>2022-10-28T10:03:40Z</time>
      </trkpt>
      <trkpt lat="44.57607" lon="5.49315">
        <ele>643.9</ele>
        <time>2022-10-28T10:03:41Z</time>
      </trkpt>
      <trkpt lat="44.57605" lon="5.49321">
        <ele>643.9</ele>
        <time>2022-10-28T10:03:42Z</time>
      </trkpt>
      <trkpt lat="44.57602" lon="5.49327">
        <ele>643.9</ele>
        <time>2022-10-28T10:03:43Z</time>
      </trkpt>
      <trkpt lat="44.576" lon="5.49334">
        <ele>643.9</ele>
        <time>2022-10-28T10:03:44Z</time>
      </trkpt>
      <trkpt lat="44.57597" lon="5.4934">
        <ele>643.9</ele>
        <time>2022-10-28T10:03:45Z</time>
      </trkpt>
      <trkpt lat="44.57595" lon="5.49346">
        <ele>644</ele>
        <time>2022-10-28T10:03:46Z</time>
      </trkpt>
      <trkpt lat="44.57592" lon="5.49352">
        <ele>644</ele>
        <time>2022-10-28T10:03:47Z</time>
      </trkpt>
      <trkpt lat="44.5759" lon="5.49358">
        <ele>644</ele>
        <time>2022-10-28T10:03:48Z</time>
      </trkpt>
      <trkpt lat="44.57587" lon="5.49365">
        <ele>644</ele>
        <time>2022-10-28T10:03:49Z</time>
      </trkpt>
      <trkpt lat="44.57585" lon="5.49371">
        <ele>644</ele>
        <time>2022-10-28T10:03:50Z</time>
      </trkpt>
      <trkpt lat="44.57583" lon="5.49377">
        <ele>644</ele>
        <time>2022-10-28T10:03:51Z</time>
      </trkpt>
      <trkpt lat="44.5758" lon="5.49383">
        <ele>644.1</ele>
        <time>2022-10-28T10:03:52Z</time>
      </trkpt>
      <trkpt lat="44.57578" lon="5.49389">
        <ele>644.1</ele>
        <time>2022-10-28T10:03:53Z</time>
      </trkpt>
      <trkpt lat="44.57576" lon="5.49395">
        <ele>644.1</ele>
        <time>2022-10-28T10:03:54Z</time>
      </trkpt>
      <trkpt lat="44.57573" lon="5.49401">
        <ele>644.2</ele>
        <time>2022-10-28T10:03:55Z</time>
      </trkpt>
      <trkpt lat="44.57571" lon="5.49407">
        <ele>644.2</ele>
        <time>2022-10-28T10:03:56Z</time>
      </trkpt>
      <trkpt lat="44.57569" lon="5.49413">
        <ele>644.2</ele>
        <time>2022-10-28T10:03:57Z</time>
      </trkpt>
      <trkpt lat="44.57566" lon="5.49419">
        <ele>644.2</ele>
        <time>2022-10-28T10:03:58Z</time>
      </trkpt>
      <trkpt lat="44.57564" lon="5.49425">
        <ele>644.3</ele>
        <time>2022-10-28T10:03:59Z</time>
      </trkpt>
      <trkpt lat="44.57562" lon="5.49432">
        <ele>644.3</ele>
        <time>2022-10-28T10:04:00Z</time>
      </trkpt>
      <trkpt lat="44.5756" lon="5.49438">
        <ele>644.3</ele>
        <time>2022-10-28T10:04:01Z</time>
      </trkpt>
      <trkpt lat="44.57557" lon="5.49444">
        <ele>644.3</ele>
        <time>2022-10-28T10:04:02Z</time>
      </trkpt>
      <trkpt lat="44.57555" lon="5.4945">
        <ele>644.4</ele>
        <time>2022-10-28T10:04:03Z</time>
      </trkpt>
      <trkpt lat="44.57552" lon="5.49457">
        <ele>644.4</ele>
        <time>2022-10-28T10:04:04Z</time>
      </trkpt>
      <trkpt lat="44.57549" lon="5.49463">
        <ele>644.4</ele>
        <time>2022-10-28T10:04:05Z</time>
      </trkpt>
      <trkpt lat="44.57547" lon="5.49469">
        <ele>644.4</ele>
        <time>2022-10-28T10:04:06Z</time>
      </trkpt>
      <trkpt lat="44.57544" lon="5.49475">
        <ele>644.4</ele>
        <time>2022-10-28T10:04:07Z</time>
      </trkpt>
      <trkpt lat="44.57542" lon="5.49482">
        <ele>644.5</ele>
        <time>2022-10-28T10:04:08Z</time>
      </trkpt>
      <trkpt lat="44.57539" lon="5.49488">
        <ele>644.5</ele>
        <time>2022-10-28T10:04:09Z</time>
      </trkpt>
      <trkpt lat="44.57537" lon="5.49494">
        <ele>644.5</ele>
        <time>2022-10-28T10:04:10Z</time>
      </trkpt>
      <trkpt lat="44.57535" lon="5.49501">
        <ele>644.5</ele>
        <time>2022-10-28T10:04:11Z</time>
      </trkpt>
      <trkpt lat="44.57532" lon="5.49507">
        <ele>644.5</ele>
        <time>2022-10-28T10:04:12Z</time>
      </trkpt>
      <trkpt lat="44.5753" lon="5.49513">
        <ele>644.6</ele>
        <time>2022-10-28T10:04:13Z</time>
      </trkpt>
      <trkpt lat="44.57527" lon="5.49519">
        <ele>644.6</ele>
        <time>2022-10-28T10:04:14Z</time>
      </trkpt>
      <trkpt lat="44.57525" lon="5.49526">
        <ele>644.6</ele>
        <time>2022-10-28T10:04:15Z</time>
      </trkpt>
      <trkpt lat="44.57522" lon="5.49532">
        <ele>644.7</ele>
        <time>2022-10-28T10:04:16Z</time>
      </trkpt>
      <trkpt lat="44.5752" lon="5.49538">
        <ele>644.7</ele>
        <time>2022-10-28T10:04:17Z</time>
      </trkpt>
      <trkpt lat="44.57517" lon="5.49544">
        <ele>644.8</ele>
        <time>2022-10-28T10:04:18Z</time>
      </trkpt>
      <trkpt lat="44.57515" lon="5.4955">
        <ele>644.8</ele>
        <time>2022-10-28T10:04:19Z</time>
      </trkpt>
      <trkpt lat="44.57513" lon="5.49556">
        <ele>644.8</ele>
        <time>2022-10-28T10:04:20Z</time>
      </trkpt>
      <trkpt lat="44.5751" lon="5.49562">
        <ele>644.8</ele>
        <time>2022-10-28T10:04:21Z</time>
      </trkpt>
      <trkpt lat="44.57508" lon="5.49569">
        <ele>644.8</ele>
        <time>2022-10-28T10:04:22Z</time>
      </trkpt>
      <trkpt lat="44.57506" lon="5.49575">
        <ele>644.9</ele>
        <time>2022-10-28T10:04:23Z</time>
      </trkpt>
      <trkpt lat="44.57503" lon="5.49581">
        <ele>644.9</ele>
        <time>2022-10-28T10:04:24Z</time>
      </trkpt>
      <trkpt lat="44.57501" lon="5.49587">
        <ele>644.9</ele>
        <time>2022-10-28T10:04:25Z</time>
      </trkpt>
      <trkpt lat="44.57498" lon="5.49593">
        <ele>644.9</ele>
        <time>2022-10-28T10:04:26Z</time>
      </trkpt>
      <trkpt lat="44.57496" lon="5.49599">
        <ele>644.9</ele>
        <time>2022-10-28T10:04:27Z</time>
      </trkpt>
      <trkpt lat="44.57494" lon="5.49606">
        <ele>645</ele>
        <time>2022-10-28T10:04:28Z</time>
      </trkpt>
      <trkpt lat="44.57491" lon="5.49612">
        <ele>645</ele>
        <time>2022-10-28T10:04:29Z</time>
      </trkpt>
      <trkpt lat="44.57489" lon="5.49618">
        <ele>645</ele>
        <time>2022-10-28T10:04:30Z</time>
      </trkpt>
      <trkpt lat="44.57486" lon="5.49624">
        <ele>645.1</ele>
        <time>2022-10-28T10:04:31Z</time>
      </trkpt>
      <trkpt lat="44.57484" lon="5.49631">
        <ele>645.1</ele>
        <time>2022-10-28T10:04:32Z</time>
      </trkpt>
      <trkpt lat="44.57482" lon="5.49637">
        <ele>645.2</ele>
        <time>2022-10-28T10:04:33Z</time>
      </trkpt>
      <trkpt lat="44.57479" lon="5.49643">
        <ele>645.2</ele>
        <time>2022-10-28T10:04:34Z</time>
      </trkpt>
      <trkpt lat="44.57477" lon="5.49649">
        <ele>645.2</ele>
        <time>2022-10-28T10:04:35Z</time>
      </trkpt>
      <trkpt lat="44.57475" lon="5.49655">
        <ele>645.3</ele>
        <time>2022-10-28T10:04:36Z</time>
      </trkpt>
      <trkpt lat="44.57473" lon="5.49662">
        <ele>645.3</ele>
        <time>2022-10-28T10:04:37Z</time>
      </trkpt>
      <trkpt lat="44.5747" lon="5.49668">
        <ele>645.3</ele>
        <time>2022-10-28T10:04:38Z</time>
      </trkpt>
      <trkpt lat="44.57468" lon="5.49674">
        <ele>645.2</ele>
        <time>2022-10-28T10:04:39Z</time>
      </trkpt>
      <trkpt lat="44.57465" lon="5.4968">
        <ele>645.2</ele>
        <time>2022-10-28T10:04:40Z</time>
      </trkpt>
      <trkpt lat="44.57463" lon="5.49686">
        <ele>645.2</ele>
        <time>2022-10-28T10:04:41Z</time>
      </trkpt>
      <trkpt lat="44.5746" lon="5.49693">
        <ele>645.2</ele>
        <time>2022-10-28T10:04:42Z</time>
      </trkpt>
      <trkpt lat="44.57458" lon="5.49699">
        <ele>645.2</ele>
        <time>2022-10-28T10:04:43Z</time>
      </trkpt>
      <trkpt lat="44.57456" lon="5.49706">
        <ele>645.2</ele>
        <time>2022-10-28T10:04:44Z</time>
      </trkpt>
      <trkpt lat="44.57453" lon="5.49712">
        <ele>645.2</ele>
        <time>2022-10-28T10:04:45Z</time>
      </trkpt>
      <trkpt lat="44.57451" lon="5.49719">
        <ele>645.2</ele>
        <time>2022-10-28T10:04:46Z</time>
      </trkpt>
      <trkpt lat="44.57449" lon="5.49725">
        <ele>645.2</ele>
        <time>2022-10-28T10:04:47Z</time>
      </trkpt>
      <trkpt lat="44.57446" lon="5.49731">
        <ele>645.2</ele>
        <time>2022-10-28T10:04:48Z</time>
      </trkpt>
      <trkpt lat="44.57443" lon="5.49737">
        <ele>645.2</ele>
        <time>2022-10-28T10:04:49Z</time>
      </trkpt>
      <trkpt lat="44.57441" lon="5.49742">
        <ele>645.2</ele>
        <time>2022-10-28T10:04:50Z</time>
      </trkpt>
      <trkpt lat="44.57438" lon="5.49748">
        <ele>645.2</ele>
        <time>2022-10-28T10:04:51Z</time>
      </trkpt>
      <trkpt lat="44.57436" lon="5.49754">
        <ele>645.2</ele>
        <time>2022-10-28T10:04:52Z</time>
      </trkpt>
      <trkpt lat="44.57433" lon="5.49761">
        <ele>645.2</ele>
        <time>2022-10-28T10:04:53Z</time>
      </trkpt>
      <trkpt lat="44.57431" lon="5.49767">
        <ele>645.2</ele>
        <time>2022-10-28T10:04:54Z</time>
      </trkpt>
      <trkpt lat="44.57429" lon="5.49773">
        <ele>645.2</ele>
        <time>2022-10-28T10:04:55Z</time>
      </trkpt>
      <trkpt lat="44.57426" lon="5.49779">
        <ele>645.3</ele>
        <time>2022-10-28T10:04:56Z</time>
      </trkpt>
      <trkpt lat="44.57424" lon="5.49785">
        <ele>645.3</ele>
        <time>2022-10-28T10:04:57Z</time>
      </trkpt>
      <trkpt lat="44.57421" lon="5.49791">
        <ele>645.3</ele>
        <time>2022-10-28T10:04:58Z</time>
      </trkpt>
      <trkpt lat="44.57419" lon="5.49797">
        <ele>645.3</ele>
        <time>2022-10-28T10:04:59Z</time>
      </trkpt>
      <trkpt lat="44.57416" lon="5.49803">
        <ele>645.3</ele>
        <time>2022-10-28T10:05:00Z</time>
      </trkpt>
      <trkpt lat="44.57414" lon="5.49809">
        <ele>645.3</ele>
        <time>2022-10-28T10:05:01Z</time>
      </trkpt>
      <trkpt lat="44.57412" lon="5.49815">
        <ele>645.4</ele>
        <time>2022-10-28T10:05:02Z</time>
      </trkpt>
      <trkpt lat="44.57409" lon="5.49821">
        <ele>645.4</ele>
        <time>2022-10-28T10:05:03Z</time>
      </trkpt>
      <trkpt lat="44.57407" lon="5.49827">
        <ele>645.4</ele>
        <time>2022-10-28T10:05:04Z</time>
      </trkpt>
      <trkpt lat="44.57405" lon="5.49833">
        <ele>645.4</ele>
        <time>2022-10-28T10:05:05Z</time>
      </trkpt>
      <trkpt lat="44.57402" lon="5.49839">
        <ele>645.4</ele>
        <time>2022-10-28T10:05:06Z</time>
      </trkpt>
      <trkpt lat="44.574" lon="5.49845">
        <ele>645.4</ele>
        <time>2022-10-28T10:05:07Z</time>
      </trkpt>
      <trkpt lat="44.57398" lon="5.49851">
        <ele>645.4</ele>
        <time>2022-10-28T10:05:08Z</time>
      </trkpt>
      <trkpt lat="44.57395" lon="5.49858">
        <ele>645.4</ele>
        <time>2022-10-28T10:05:09Z</time>
      </trkpt>
      <trkpt lat="44.57393" lon="5.49864">
        <ele>645.4</ele>
        <time>2022-10-28T10:05:10Z</time>
      </trkpt>
      <trkpt lat="44.5739" lon="5.4987">
        <ele>645.4</ele>
        <time>2022-10-28T10:05:11Z</time>
      </trkpt>
      <trkpt lat="44.57388" lon="5.49877">
        <ele>645.4</ele>
        <time>2022-10-28T10:05:12Z</time>
      </trkpt>
      <trkpt lat="44.57385" lon="5.49884">
        <ele>645.4</ele>
        <time>2022-10-28T10:05:13Z</time>
      </trkpt>
      <trkpt lat="44.57383" lon="5.4989">
        <ele>645.4</ele>
        <time>2022-10-28T10:05:14Z</time>
      </trkpt>
      <trkpt lat="44.5738" lon="5.49897">
        <ele>645.4</ele>
        <time>2022-10-28T10:05:15Z</time>
      </trkpt>
      <trkpt lat="44.57378" lon="5.49903">
        <ele>645.5</ele>
        <time>2022-10-28T10:05:16Z</time>
      </trkpt>
      <trkpt lat="44.57375" lon="5.4991">
        <ele>645.5</ele>
        <time>2022-10-28T10:05:17Z</time>
      </trkpt>
      <trkpt lat="44.57373" lon="5.49917">
        <ele>645.5</ele>
        <time>2022-10-28T10:05:18Z</time>
      </trkpt>
      <trkpt lat="44.5737" lon="5.49923">
        <ele>645.5</ele>
        <time>2022-10-28T10:05:19Z</time>
      </trkpt>
      <trkpt lat="44.57367" lon="5.49929">
        <ele>645.6</ele>
        <time>2022-10-28T10:05:20Z</time>
      </trkpt>
      <trkpt lat="44.57365" lon="5.49935">
        <ele>645.6</ele>
        <time>2022-10-28T10:05:21Z</time>
      </trkpt>
      <trkpt lat="44.57362" lon="5.49942">
        <ele>645.7</ele>
        <time>2022-10-28T10:05:22Z</time>
      </trkpt>
      <trkpt lat="44.57359" lon="5.49948">
        <ele>645.7</ele>
        <time>2022-10-28T10:05:23Z</time>
      </trkpt>
      <trkpt lat="44.57356" lon="5.49953">
        <ele>645.8</ele>
        <time>2022-10-28T10:05:24Z</time>
      </trkpt>
      <trkpt lat="44.57354" lon="5.49959">
        <ele>645.9</ele>
        <time>2022-10-28T10:05:25Z</time>
      </trkpt>
      <trkpt lat="44.57351" lon="5.49965">
        <ele>645.9</ele>
        <time>2022-10-28T10:05:26Z</time>
      </trkpt>
      <trkpt lat="44.57348" lon="5.4997">
        <ele>646</ele>
        <time>2022-10-28T10:05:27Z</time>
      </trkpt>
      <trkpt lat="44.57346" lon="5.49976">
        <ele>646.1</ele>
        <time>2022-10-28T10:05:28Z</time>
      </trkpt>
      <trkpt lat="44.57343" lon="5.49981">
        <ele>646.2</ele>
        <time>2022-10-28T10:05:29Z</time>
      </trkpt>
      <trkpt lat="44.57341" lon="5.49987">
        <ele>646.3</ele>
        <time>2022-10-28T10:05:30Z</time>
      </trkpt>
      <trkpt lat="44.57338" lon="5.49991">
        <ele>646.4</ele>
        <time>2022-10-28T10:05:31Z</time>
      </trkpt>
      <trkpt lat="44.57335" lon="5.49996">
        <ele>646.5</ele>
        <time>2022-10-28T10:05:32Z</time>
      </trkpt>
      <trkpt lat="44.57333" lon="5.5">
        <ele>646.6</ele>
        <time>2022-10-28T10:05:33Z</time>
      </trkpt>
      <trkpt lat="44.57331" lon="5.50004">
        <ele>646.7</ele>
        <time>2022-10-28T10:05:34Z</time>
      </trkpt>
      <trkpt lat="44.57328" lon="5.5001">
        <ele>646.9</ele>
        <time>2022-10-28T10:05:35Z</time>
      </trkpt>
      <trkpt lat="44.57325" lon="5.50014">
        <ele>647</ele>
        <time>2022-10-28T10:05:36Z</time>
      </trkpt>
      <trkpt lat="44.57323" lon="5.50018">
        <ele>647.1</ele>
        <time>2022-10-28T10:05:37Z</time>
      </trkpt>
      <trkpt lat="44.57321" lon="5.50022">
        <ele>647.2</ele>
        <time>2022-10-28T10:05:38Z</time>
      </trkpt>
      <trkpt lat="44.57318" lon="5.50027">
        <ele>647.3</ele>
        <time>2022-10-28T10:05:39Z</time>
      </trkpt>
      <trkpt lat="44.57317" lon="5.50029">
        <ele>647.3</ele>
        <time>2022-10-28T10:05:40Z</time>
      </trkpt>
      <trkpt lat="44.57311" lon="5.50037">
        <ele>647.6</ele>
        <time>2022-10-28T10:05:42Z</time>
      </trkpt>
      <trkpt lat="44.57308" lon="5.50043">
        <ele>647.7</ele>
        <time>2022-10-28T10:05:43Z</time>
      </trkpt>
      <trkpt lat="44.57305" lon="5.50048">
        <ele>647.9</ele>
        <time>2022-10-28T10:05:44Z</time>
      </trkpt>
      <trkpt lat="44.57303" lon="5.50052">
        <ele>648</ele>
        <time>2022-10-28T10:05:45Z</time>
      </trkpt>
      <trkpt lat="44.573" lon="5.50056">
        <ele>648.1</ele>
        <time>2022-10-28T10:05:47Z</time>
      </trkpt>
      <trkpt lat="44.57297" lon="5.5006">
        <ele>648.2</ele>
        <time>2022-10-28T10:05:48Z</time>
      </trkpt>
      <trkpt lat="44.57294" lon="5.50065">
        <ele>648.3</ele>
        <time>2022-10-28T10:05:49Z</time>
      </trkpt>
      <trkpt lat="44.57291" lon="5.50069">
        <ele>648.4</ele>
        <time>2022-10-28T10:05:50Z</time>
      </trkpt>
      <trkpt lat="44.57287" lon="5.50074">
        <ele>648.5</ele>
        <time>2022-10-28T10:05:51Z</time>
      </trkpt>
      <trkpt lat="44.57284" lon="5.50078">
        <ele>648.5</ele>
        <time>2022-10-28T10:05:52Z</time>
      </trkpt>
      <trkpt lat="44.5728" lon="5.50083">
        <ele>648.5</ele>
        <time>2022-10-28T10:05:54Z</time>
      </trkpt>
      <trkpt lat="44.57276" lon="5.50088">
        <ele>648.5</ele>
        <time>2022-10-28T10:05:55Z</time>
      </trkpt>
      <trkpt lat="44.57272" lon="5.50093">
        <ele>648.6</ele>
        <time>2022-10-28T10:05:56Z</time>
      </trkpt>
      <trkpt lat="44.57268" lon="5.50097">
        <ele>648.5</ele>
        <time>2022-10-28T10:05:57Z</time>
      </trkpt>
      <trkpt lat="44.57264" lon="5.50101">
        <ele>648.5</ele>
        <time>2022-10-28T10:05:58Z</time>
      </trkpt>
      <trkpt lat="44.5726" lon="5.50105">
        <ele>648.5</ele>
        <time>2022-10-28T10:05:59Z</time>
      </trkpt>
      <trkpt lat="44.57256" lon="5.50109">
        <ele>648.5</ele>
        <time>2022-10-28T10:06:00Z</time>
      </trkpt>
      <trkpt lat="44.57253" lon="5.50113">
        <ele>648.5</ele>
        <time>2022-10-28T10:06:01Z</time>
      </trkpt>
      <trkpt lat="44.57249" lon="5.50116">
        <ele>648.5</ele>
        <time>2022-10-28T10:06:02Z</time>
      </trkpt>
      <trkpt lat="44.57245" lon="5.5012">
        <ele>648.5</ele>
        <time>2022-10-28T10:06:03Z</time>
      </trkpt>
      <trkpt lat="44.57241" lon="5.50124">
        <ele>648.4</ele>
        <time>2022-10-28T10:06:04Z</time>
      </trkpt>
      <trkpt lat="44.57237" lon="5.50128">
        <ele>648.4</ele>
        <time>2022-10-28T10:06:05Z</time>
      </trkpt>
      <trkpt lat="44.57233" lon="5.50132">
        <ele>648.4</ele>
        <time>2022-10-28T10:06:06Z</time>
      </trkpt>
      <trkpt lat="44.57229" lon="5.50136">
        <ele>648.4</ele>
        <time>2022-10-28T10:06:07Z</time>
      </trkpt>
      <trkpt lat="44.57225" lon="5.5014">
        <ele>648.4</ele>
        <time>2022-10-28T10:06:08Z</time>
      </trkpt>
      <trkpt lat="44.57221" lon="5.50144">
        <ele>648.4</ele>
        <time>2022-10-28T10:06:09Z</time>
      </trkpt>
      <trkpt lat="44.57217" lon="5.50147">
        <ele>648.4</ele>
        <time>2022-10-28T10:06:10Z</time>
      </trkpt>
      <trkpt lat="44.57213" lon="5.50151">
        <ele>648.3</ele>
        <time>2022-10-28T10:06:11Z</time>
      </trkpt>
      <trkpt lat="44.57208" lon="5.50155">
        <ele>648.3</ele>
        <time>2022-10-28T10:06:12Z</time>
      </trkpt>
      <trkpt lat="44.57203" lon="5.50159">
        <ele>648.3</ele>
        <time>2022-10-28T10:06:13Z</time>
      </trkpt>
      <trkpt lat="44.57199" lon="5.50163">
        <ele>648.3</ele>
        <time>2022-10-28T10:06:14Z</time>
      </trkpt>
      <trkpt lat="44.57194" lon="5.50166">
        <ele>648.2</ele>
        <time>2022-10-28T10:06:15Z</time>
      </trkpt>
      <trkpt lat="44.57189" lon="5.50169">
        <ele>648.1</ele>
        <time>2022-10-28T10:06:16Z</time>
      </trkpt>
      <trkpt lat="44.57185" lon="5.50173">
        <ele>648.1</ele>
        <time>2022-10-28T10:06:17Z</time>
      </trkpt>
      <trkpt lat="44.5718" lon="5.50177">
        <ele>648</ele>
        <time>2022-10-28T10:06:18Z</time>
      </trkpt>
      <trkpt lat="44.57175" lon="5.50181">
        <ele>648</ele>
        <time>2022-10-28T10:06:19Z</time>
      </trkpt>
      <trkpt lat="44.5717" lon="5.50184">
        <ele>647.9</ele>
        <time>2022-10-28T10:06:20Z</time>
      </trkpt>
      <trkpt lat="44.57165" lon="5.50188">
        <ele>647.9</ele>
        <time>2022-10-28T10:06:21Z</time>
      </trkpt>
      <trkpt lat="44.5716" lon="5.50192">
        <ele>647.8</ele>
        <time>2022-10-28T10:06:22Z</time>
      </trkpt>
      <trkpt lat="44.57155" lon="5.50195">
        <ele>647.8</ele>
        <time>2022-10-28T10:06:23Z</time>
      </trkpt>
      <trkpt lat="44.57149" lon="5.50199">
        <ele>647.7</ele>
        <time>2022-10-28T10:06:24Z</time>
      </trkpt>
      <trkpt lat="44.57144" lon="5.50202">
        <ele>647.7</ele>
        <time>2022-10-28T10:06:25Z</time>
      </trkpt>
      <trkpt lat="44.57139" lon="5.50205">
        <ele>647.7</ele>
        <time>2022-10-28T10:06:26Z</time>
      </trkpt>
      <trkpt lat="44.57134" lon="5.50209">
        <ele>647.7</ele>
        <time>2022-10-28T10:06:27Z</time>
      </trkpt>
      <trkpt lat="44.57129" lon="5.50212">
        <ele>647.7</ele>
        <time>2022-10-28T10:06:28Z</time>
      </trkpt>
      <trkpt lat="44.57124" lon="5.50215">
        <ele>647.7</ele>
        <time>2022-10-28T10:06:29Z</time>
      </trkpt>
      <trkpt lat="44.57119" lon="5.50218">
        <ele>647.8</ele>
        <time>2022-10-28T10:06:30Z</time>
      </trkpt>
      <trkpt lat="44.57114" lon="5.50221">
        <ele>647.8</ele>
        <time>2022-10-28T10:06:31Z</time>
      </trkpt>
      <trkpt lat="44.57108" lon="5.50224">
        <ele>647.8</ele>
        <time>2022-10-28T10:06:32Z</time>
      </trkpt>
      <trkpt lat="44.57103" lon="5.50227">
        <ele>647.8</ele>
        <time>2022-10-28T10:06:33Z</time>
      </trkpt>
      <trkpt lat="44.57098" lon="5.50229">
        <ele>647.8</ele>
        <time>2022-10-28T10:06:34Z</time>
      </trkpt>
      <trkpt lat="44.57092" lon="5.50233">
        <ele>647.9</ele>
        <time>2022-10-28T10:06:35Z</time>
      </trkpt>
      <trkpt lat="44.57087" lon="5.50235">
        <ele>647.9</ele>
        <time>2022-10-28T10:06:36Z</time>
      </trkpt>
      <trkpt lat="44.57082" lon="5.50237">
        <ele>647.9</ele>
        <time>2022-10-28T10:06:37Z</time>
      </trkpt>
      <trkpt lat="44.57077" lon="5.5024">
        <ele>647.9</ele>
        <time>2022-10-28T10:06:38Z</time>
      </trkpt>
      <trkpt lat="44.57072" lon="5.50242">
        <ele>648</ele>
        <time>2022-10-28T10:06:39Z</time>
      </trkpt>
      <trkpt lat="44.57067" lon="5.50244">
        <ele>648</ele>
        <time>2022-10-28T10:06:40Z</time>
      </trkpt>
      <trkpt lat="44.57062" lon="5.50246">
        <ele>648.1</ele>
        <time>2022-10-28T10:06:41Z</time>
      </trkpt>
      <trkpt lat="44.57057" lon="5.50247">
        <ele>648.1</ele>
        <time>2022-10-28T10:06:42Z</time>
      </trkpt>
      <trkpt lat="44.57052" lon="5.50249">
        <ele>648.2</ele>
        <time>2022-10-28T10:06:43Z</time>
      </trkpt>
      <trkpt lat="44.57047" lon="5.50251">
        <ele>648.2</ele>
        <time>2022-10-28T10:06:44Z</time>
      </trkpt>
      <trkpt lat="44.57042" lon="5.50252">
        <ele>648.2</ele>
        <time>2022-10-28T10:06:45Z</time>
      </trkpt>
      <trkpt lat="44.57037" lon="5.50254">
        <ele>648.3</ele>
        <time>2022-10-28T10:06:46Z</time>
      </trkpt>
      <trkpt lat="44.57032" lon="5.50255">
        <ele>648.3</ele>
        <time>2022-10-28T10:06:47Z</time>
      </trkpt>
      <trkpt lat="44.57027" lon="5.50256">
        <ele>648.3</ele>
        <time>2022-10-28T10:06:48Z</time>
      </trkpt>
      <trkpt lat="44.57022" lon="5.50257">
        <ele>648.4</ele>
        <time>2022-10-28T10:06:49Z</time>
      </trkpt>
      <trkpt lat="44.57017" lon="5.50258">
        <ele>648.4</ele>
        <time>2022-10-28T10:06:50Z</time>
      </trkpt>
      <trkpt lat="44.57012" lon="5.50259">
        <ele>648.5</ele>
        <time>2022-10-28T10:06:51Z</time>
      </trkpt>
      <trkpt lat="44.57008" lon="5.5026">
        <ele>648.5</ele>
        <time>2022-10-28T10:06:52Z</time>
      </trkpt>
      <trkpt lat="44.57003" lon="5.50261">
        <ele>648.5</ele>
        <time>2022-10-28T10:06:53Z</time>
      </trkpt>
      <trkpt lat="44.56998" lon="5.50261">
        <ele>648.5</ele>
        <time>2022-10-28T10:06:54Z</time>
      </trkpt>
      <trkpt lat="44.56993" lon="5.50262">
        <ele>648.6</ele>
        <time>2022-10-28T10:06:55Z</time>
      </trkpt>
      <trkpt lat="44.56988" lon="5.50263">
        <ele>648.6</ele>
        <time>2022-10-28T10:06:56Z</time>
      </trkpt>
      <trkpt lat="44.56983" lon="5.50264">
        <ele>648.6</ele>
        <time>2022-10-28T10:06:57Z</time>
      </trkpt>
      <trkpt lat="44.56979" lon="5.50264">
        <ele>648.7</ele>
        <time>2022-10-28T10:06:58Z</time>
      </trkpt>
      <trkpt lat="44.56974" lon="5.50265">
        <ele>648.7</ele>
        <time>2022-10-28T10:06:59Z</time>
      </trkpt>
      <trkpt lat="44.56969" lon="5.50266">
        <ele>648.7</ele>
        <time>2022-10-28T10:07:00Z</time>
      </trkpt>
      <trkpt lat="44.56964" lon="5.50266">
        <ele>648.8</ele>
        <time>2022-10-28T10:07:01Z</time>
      </trkpt>
      <trkpt lat="44.56959" lon="5.50267">
        <ele>648.8</ele>
        <time>2022-10-28T10:07:02Z</time>
      </trkpt>
      <trkpt lat="44.56954" lon="5.50267">
        <ele>648.8</ele>
        <time>2022-10-28T10:07:03Z</time>
      </trkpt>
      <trkpt lat="44.56949" lon="5.50267">
        <ele>648.9</ele>
        <time>2022-10-28T10:07:04Z</time>
      </trkpt>
      <trkpt lat="44.56944" lon="5.50267">
        <ele>648.9</ele>
        <time>2022-10-28T10:07:05Z</time>
      </trkpt>
      <trkpt lat="44.56939" lon="5.50268">
        <ele>649</ele>
        <time>2022-10-28T10:07:06Z</time>
      </trkpt>
      <trkpt lat="44.56934" lon="5.50268">
        <ele>649</ele>
        <time>2022-10-28T10:07:07Z</time>
      </trkpt>
      <trkpt lat="44.5693" lon="5.50269">
        <ele>649.1</ele>
        <time>2022-10-28T10:07:08Z</time>
      </trkpt>
      <trkpt lat="44.56925" lon="5.50269">
        <ele>649.1</ele>
        <time>2022-10-28T10:07:09Z</time>
      </trkpt>
      <trkpt lat="44.5692" lon="5.5027">
        <ele>649.2</ele>
        <time>2022-10-28T10:07:10Z</time>
      </trkpt>
      <trkpt lat="44.56915" lon="5.50271">
        <ele>649.2</ele>
        <time>2022-10-28T10:07:11Z</time>
      </trkpt>
      <trkpt lat="44.5691" lon="5.50271">
        <ele>649.2</ele>
        <time>2022-10-28T10:07:12Z</time>
      </trkpt>
      <trkpt lat="44.56905" lon="5.50272">
        <ele>649.2</ele>
        <time>2022-10-28T10:07:13Z</time>
      </trkpt>
      <trkpt lat="44.569" lon="5.50273">
        <ele>649.3</ele>
        <time>2022-10-28T10:07:14Z</time>
      </trkpt>
      <trkpt lat="44.56895" lon="5.50273">
        <ele>649.3</ele>
        <time>2022-10-28T10:07:15Z</time>
      </trkpt>
      <trkpt lat="44.56891" lon="5.50274">
        <ele>649.3</ele>
        <time>2022-10-28T10:07:16Z</time>
      </trkpt>
      <trkpt lat="44.56886" lon="5.50275">
        <ele>649.4</ele>
        <time>2022-10-28T10:07:17Z</time>
      </trkpt>
      <trkpt lat="44.56881" lon="5.50275">
        <ele>649.4</ele>
        <time>2022-10-28T10:07:18Z</time>
      </trkpt>
      <trkpt lat="44.56876" lon="5.50276">
        <ele>649.5</ele>
        <time>2022-10-28T10:07:19Z</time>
      </trkpt>
      <trkpt lat="44.56871" lon="5.50276">
        <ele>649.6</ele>
        <time>2022-10-28T10:07:20Z</time>
      </trkpt>
      <trkpt lat="44.56866" lon="5.50277">
        <ele>649.6</ele>
        <time>2022-10-28T10:07:21Z</time>
      </trkpt>
      <trkpt lat="44.56861" lon="5.50278">
        <ele>649.7</ele>
        <time>2022-10-28T10:07:22Z</time>
      </trkpt>
      <trkpt lat="44.56856" lon="5.50279">
        <ele>649.8</ele>
        <time>2022-10-28T10:07:23Z</time>
      </trkpt>
      <trkpt lat="44.56851" lon="5.50279">
        <ele>649.9</ele>
        <time>2022-10-28T10:07:24Z</time>
      </trkpt>
      <trkpt lat="44.56847" lon="5.5028">
        <ele>650</ele>
        <time>2022-10-28T10:07:25Z</time>
      </trkpt>
      <trkpt lat="44.56842" lon="5.5028">
        <ele>650.1</ele>
        <time>2022-10-28T10:07:26Z</time>
      </trkpt>
      <trkpt lat="44.56837" lon="5.50281">
        <ele>650.2</ele>
        <time>2022-10-28T10:07:27Z</time>
      </trkpt>
      <trkpt lat="44.56833" lon="5.50282">
        <ele>650.3</ele>
        <time>2022-10-28T10:07:28Z</time>
      </trkpt>
      <trkpt lat="44.56828" lon="5.50283">
        <ele>650.4</ele>
        <time>2022-10-28T10:07:29Z</time>
      </trkpt>
      <trkpt lat="44.56824" lon="5.50285">
        <ele>650.6</ele>
        <time>2022-10-28T10:07:30Z</time>
      </trkpt>
      <trkpt lat="44.56819" lon="5.50286">
        <ele>650.7</ele>
        <time>2022-10-28T10:07:31Z</time>
      </trkpt>
      <trkpt lat="44.56815" lon="5.50288">
        <ele>650.8</ele>
        <time>2022-10-28T10:07:32Z</time>
      </trkpt>
      <trkpt lat="44.56811" lon="5.5029">
        <ele>650.9</ele>
        <time>2022-10-28T10:07:33Z</time>
      </trkpt>
      <trkpt lat="44.56808" lon="5.50292">
        <ele>651</ele>
        <time>2022-10-28T10:07:34Z</time>
      </trkpt>
      <trkpt lat="44.56805" lon="5.50294">
        <ele>651.1</ele>
        <time>2022-10-28T10:07:35Z</time>
      </trkpt>
      <trkpt lat="44.568" lon="5.50298">
        <ele>651.2</ele>
        <time>2022-10-28T10:07:36Z</time>
      </trkpt>
      <trkpt lat="44.56798" lon="5.50301">
        <ele>651.3</ele>
        <time>2022-10-28T10:07:37Z</time>
      </trkpt>
      <trkpt lat="44.56794" lon="5.50306">
        <ele>651.3</ele>
        <time>2022-10-28T10:07:38Z</time>
      </trkpt>
      <trkpt lat="44.5679" lon="5.5031">
        <ele>651.4</ele>
        <time>2022-10-28T10:07:39Z</time>
      </trkpt>
      <trkpt lat="44.56787" lon="5.50313">
        <ele>651.5</ele>
        <time>2022-10-28T10:07:40Z</time>
      </trkpt>
      <trkpt lat="44.56786" lon="5.50315">
        <ele>651.5</ele>
        <time>2022-10-28T10:07:41Z</time>
      </trkpt>
      <trkpt lat="44.56779" lon="5.50325">
        <ele>651.6</ele>
        <time>2022-10-28T10:07:43Z</time>
      </trkpt>
      <trkpt lat="44.56776" lon="5.50332">
        <ele>651.7</ele>
        <time>2022-10-28T10:07:44Z</time>
      </trkpt>
      <trkpt lat="44.56774" lon="5.50338">
        <ele>651.8</ele>
        <time>2022-10-28T10:07:45Z</time>
      </trkpt>
      <trkpt lat="44.56773" lon="5.50347">
        <ele>651.9</ele>
        <time>2022-10-28T10:07:46Z</time>
      </trkpt>
      <trkpt lat="44.56772" lon="5.50352">
        <ele>651.9</ele>
        <time>2022-10-28T10:07:47Z</time>
      </trkpt>
      <trkpt lat="44.56771" lon="5.50359">
        <ele>652</ele>
        <time>2022-10-28T10:07:48Z</time>
      </trkpt>
      <trkpt lat="44.56769" lon="5.50366">
        <ele>652.1</ele>
        <time>2022-10-28T10:07:49Z</time>
      </trkpt>
      <trkpt lat="44.56767" lon="5.50375">
        <ele>652.2</ele>
        <time>2022-10-28T10:07:51Z</time>
      </trkpt>
      <trkpt lat="44.56766" lon="5.50386">
        <ele>652.3</ele>
        <time>2022-10-28T10:07:52Z</time>
      </trkpt>
      <trkpt lat="44.56765" lon="5.50394">
        <ele>652.3</ele>
        <time>2022-10-28T10:07:53Z</time>
      </trkpt>
      <trkpt lat="44.56764" lon="5.504">
        <ele>652.4</ele>
        <time>2022-10-28T10:07:54Z</time>
      </trkpt>
      <trkpt lat="44.56763" lon="5.50406">
        <ele>652.4</ele>
        <time>2022-10-28T10:07:55Z</time>
      </trkpt>
      <trkpt lat="44.56762" lon="5.50413">
        <ele>652.5</ele>
        <time>2022-10-28T10:07:56Z</time>
      </trkpt>
      <trkpt lat="44.56762" lon="5.50419">
        <ele>652.5</ele>
        <time>2022-10-28T10:07:57Z</time>
      </trkpt>
      <trkpt lat="44.5676" lon="5.50426">
        <ele>652.6</ele>
        <time>2022-10-28T10:07:58Z</time>
      </trkpt>
      <trkpt lat="44.56759" lon="5.50432">
        <ele>652.6</ele>
        <time>2022-10-28T10:07:59Z</time>
      </trkpt>
      <trkpt lat="44.56758" lon="5.50438">
        <ele>652.6</ele>
        <time>2022-10-28T10:08:00Z</time>
      </trkpt>
      <trkpt lat="44.56757" lon="5.50445">
        <ele>652.6</ele>
        <time>2022-10-28T10:08:01Z</time>
      </trkpt>
      <trkpt lat="44.56755" lon="5.50451">
        <ele>652.6</ele>
        <time>2022-10-28T10:08:02Z</time>
      </trkpt>
      <trkpt lat="44.56754" lon="5.50458">
        <ele>652.6</ele>
        <time>2022-10-28T10:08:03Z</time>
      </trkpt>
      <trkpt lat="44.56753" lon="5.50464">
        <ele>652.6</ele>
        <time>2022-10-28T10:08:04Z</time>
      </trkpt>
      <trkpt lat="44.56751" lon="5.50471">
        <ele>652.7</ele>
        <time>2022-10-28T10:08:05Z</time>
      </trkpt>
      <trkpt lat="44.5675" lon="5.50477">
        <ele>652.7</ele>
        <time>2022-10-28T10:08:06Z</time>
      </trkpt>
      <trkpt lat="44.56749" lon="5.50484">
        <ele>652.7</ele>
        <time>2022-10-28T10:08:07Z</time>
      </trkpt>
      <trkpt lat="44.56747" lon="5.5049">
        <ele>652.8</ele>
        <time>2022-10-28T10:08:08Z</time>
      </trkpt>
      <trkpt lat="44.56746" lon="5.50497">
        <ele>652.8</ele>
        <time>2022-10-28T10:08:09Z</time>
      </trkpt>
      <trkpt lat="44.56745" lon="5.50503">
        <ele>652.9</ele>
        <time>2022-10-28T10:08:10Z</time>
      </trkpt>
      <trkpt lat="44.56743" lon="5.5051">
        <ele>652.9</ele>
        <time>2022-10-28T10:08:11Z</time>
      </trkpt>
      <trkpt lat="44.56742" lon="5.50517">
        <ele>653</ele>
        <time>2022-10-28T10:08:12Z</time>
      </trkpt>
      <trkpt lat="44.5674" lon="5.50523">
        <ele>653</ele>
        <time>2022-10-28T10:08:13Z</time>
      </trkpt>
      <trkpt lat="44.56738" lon="5.5053">
        <ele>653.1</ele>
        <time>2022-10-28T10:08:14Z</time>
      </trkpt>
      <trkpt lat="44.56737" lon="5.50536">
        <ele>653.1</ele>
        <time>2022-10-28T10:08:15Z</time>
      </trkpt>
      <trkpt lat="44.56735" lon="5.50543">
        <ele>653.2</ele>
        <time>2022-10-28T10:08:16Z</time>
      </trkpt>
      <trkpt lat="44.56733" lon="5.50549">
        <ele>653.2</ele>
        <time>2022-10-28T10:08:17Z</time>
      </trkpt>
      <trkpt lat="44.56731" lon="5.50556">
        <ele>653.2</ele>
        <time>2022-10-28T10:08:18Z</time>
      </trkpt>
      <trkpt lat="44.5673" lon="5.50562">
        <ele>653.2</ele>
        <time>2022-10-28T10:08:19Z</time>
      </trkpt>
      <trkpt lat="44.56728" lon="5.50568">
        <ele>653.3</ele>
        <time>2022-10-28T10:08:20Z</time>
      </trkpt>
      <trkpt lat="44.56726" lon="5.50574">
        <ele>653.3</ele>
        <time>2022-10-28T10:08:21Z</time>
      </trkpt>
      <trkpt lat="44.56724" lon="5.5058">
        <ele>653.3</ele>
        <time>2022-10-28T10:08:22Z</time>
      </trkpt>
      <trkpt lat="44.56722" lon="5.50586">
        <ele>653.3</ele>
        <time>2022-10-28T10:08:23Z</time>
      </trkpt>
      <trkpt lat="44.5672" lon="5.50592">
        <ele>653.3</ele>
        <time>2022-10-28T10:08:24Z</time>
      </trkpt>
      <trkpt lat="44.56718" lon="5.50599">
        <ele>653.4</ele>
        <time>2022-10-28T10:08:25Z</time>
      </trkpt>
      <trkpt lat="44.56716" lon="5.50605">
        <ele>653.4</ele>
        <time>2022-10-28T10:08:26Z</time>
      </trkpt>
      <trkpt lat="44.56714" lon="5.50612">
        <ele>653.4</ele>
        <time>2022-10-28T10:08:27Z</time>
      </trkpt>
      <trkpt lat="44.56712" lon="5.50619">
        <ele>653.4</ele>
        <time>2022-10-28T10:08:28Z</time>
      </trkpt>
      <trkpt lat="44.5671" lon="5.50625">
        <ele>653.4</ele>
        <time>2022-10-28T10:08:29Z</time>
      </trkpt>
      <trkpt lat="44.56708" lon="5.50632">
        <ele>653.5</ele>
        <time>2022-10-28T10:08:30Z</time>
      </trkpt>
      <trkpt lat="44.56706" lon="5.50638">
        <ele>653.5</ele>
        <time>2022-10-28T10:08:31Z</time>
      </trkpt>
      <trkpt lat="44.56703" lon="5.50645">
        <ele>653.5</ele>
        <time>2022-10-28T10:08:32Z</time>
      </trkpt>
      <trkpt lat="44.56701" lon="5.50652">
        <ele>653.5</ele>
        <time>2022-10-28T10:08:33Z</time>
      </trkpt>
      <trkpt lat="44.56699" lon="5.50658">
        <ele>653.5</ele>
        <time>2022-10-28T10:08:34Z</time>
      </trkpt>
      <trkpt lat="44.56697" lon="5.50665">
        <ele>653.5</ele>
        <time>2022-10-28T10:08:35Z</time>
      </trkpt>
      <trkpt lat="44.56695" lon="5.50671">
        <ele>653.5</ele>
        <time>2022-10-28T10:08:36Z</time>
      </trkpt>
      <trkpt lat="44.56692" lon="5.50678">
        <ele>653.5</ele>
        <time>2022-10-28T10:08:37Z</time>
      </trkpt>
      <trkpt lat="44.5669" lon="5.50684">
        <ele>653.5</ele>
        <time>2022-10-28T10:08:38Z</time>
      </trkpt>
      <trkpt lat="44.56687" lon="5.50691">
        <ele>653.5</ele>
        <time>2022-10-28T10:08:39Z</time>
      </trkpt>
      <trkpt lat="44.56685" lon="5.50697">
        <ele>653.5</ele>
        <time>2022-10-28T10:08:40Z</time>
      </trkpt>
      <trkpt lat="44.56683" lon="5.50704">
        <ele>653.5</ele>
        <time>2022-10-28T10:08:41Z</time>
      </trkpt>
      <trkpt lat="44.5668" lon="5.50711">
        <ele>653.5</ele>
        <time>2022-10-28T10:08:42Z</time>
      </trkpt>
      <trkpt lat="44.56677" lon="5.50717">
        <ele>653.6</ele>
        <time>2022-10-28T10:08:43Z</time>
      </trkpt>
      <trkpt lat="44.56675" lon="5.50723">
        <ele>653.6</ele>
        <time>2022-10-28T10:08:44Z</time>
      </trkpt>
      <trkpt lat="44.56672" lon="5.50729">
        <ele>653.6</ele>
        <time>2022-10-28T10:08:45Z</time>
      </trkpt>
      <trkpt lat="44.56669" lon="5.50735">
        <ele>653.6</ele>
        <time>2022-10-28T10:08:46Z</time>
      </trkpt>
      <trkpt lat="44.56666" lon="5.50742">
        <ele>653.7</ele>
        <time>2022-10-28T10:08:47Z</time>
      </trkpt>
      <trkpt lat="44.56664" lon="5.50747">
        <ele>653.7</ele>
        <time>2022-10-28T10:08:48Z</time>
      </trkpt>
      <trkpt lat="44.56661" lon="5.50753">
        <ele>653.7</ele>
        <time>2022-10-28T10:08:49Z</time>
      </trkpt>
      <trkpt lat="44.56658" lon="5.50759">
        <ele>653.8</ele>
        <time>2022-10-28T10:08:50Z</time>
      </trkpt>
      <trkpt lat="44.56655" lon="5.50765">
        <ele>653.8</ele>
        <time>2022-10-28T10:08:51Z</time>
      </trkpt>
      <trkpt lat="44.56653" lon="5.50771">
        <ele>653.8</ele>
        <time>2022-10-28T10:08:52Z</time>
      </trkpt>
      <trkpt lat="44.5665" lon="5.50777">
        <ele>653.9</ele>
        <time>2022-10-28T10:08:53Z</time>
      </trkpt>
      <trkpt lat="44.56647" lon="5.50783">
        <ele>653.9</ele>
        <time>2022-10-28T10:08:54Z</time>
      </trkpt>
      <trkpt lat="44.56644" lon="5.50789">
        <ele>653.9</ele>
        <time>2022-10-28T10:08:55Z</time>
      </trkpt>
      <trkpt lat="44.5664" lon="5.50794">
        <ele>654</ele>
        <time>2022-10-28T10:08:56Z</time>
      </trkpt>
      <trkpt lat="44.56638" lon="5.508">
        <ele>654</ele>
        <time>2022-10-28T10:08:57Z</time>
      </trkpt>
      <trkpt lat="44.56635" lon="5.50806">
        <ele>654</ele>
        <time>2022-10-28T10:08:58Z</time>
      </trkpt>
      <trkpt lat="44.56631" lon="5.50812">
        <ele>654.1</ele>
        <time>2022-10-28T10:08:59Z</time>
      </trkpt>
      <trkpt lat="44.56628" lon="5.50817">
        <ele>654.1</ele>
        <time>2022-10-28T10:09:00Z</time>
      </trkpt>
      <trkpt lat="44.56624" lon="5.50822">
        <ele>654.2</ele>
        <time>2022-10-28T10:09:01Z</time>
      </trkpt>
      <trkpt lat="44.56621" lon="5.50828">
        <ele>654.2</ele>
        <time>2022-10-28T10:09:02Z</time>
      </trkpt>
      <trkpt lat="44.56618" lon="5.50833">
        <ele>654.3</ele>
        <time>2022-10-28T10:09:03Z</time>
      </trkpt>
      <trkpt lat="44.56615" lon="5.50839">
        <ele>654.3</ele>
        <time>2022-10-28T10:09:04Z</time>
      </trkpt>
      <trkpt lat="44.56611" lon="5.50844">
        <ele>654.4</ele>
        <time>2022-10-28T10:09:05Z</time>
      </trkpt>
      <trkpt lat="44.56608" lon="5.5085">
        <ele>654.4</ele>
        <time>2022-10-28T10:09:06Z</time>
      </trkpt>
      <trkpt lat="44.56605" lon="5.50855">
        <ele>654.5</ele>
        <time>2022-10-28T10:09:07Z</time>
      </trkpt>
      <trkpt lat="44.56602" lon="5.50861">
        <ele>654.5</ele>
        <time>2022-10-28T10:09:08Z</time>
      </trkpt>
      <trkpt lat="44.56599" lon="5.50866">
        <ele>654.6</ele>
        <time>2022-10-28T10:09:09Z</time>
      </trkpt>
      <trkpt lat="44.56595" lon="5.50872">
        <ele>654.6</ele>
        <time>2022-10-28T10:09:10Z</time>
      </trkpt>
      <trkpt lat="44.56592" lon="5.50877">
        <ele>654.7</ele>
        <time>2022-10-28T10:09:11Z</time>
      </trkpt>
      <trkpt lat="44.56589" lon="5.50882">
        <ele>654.7</ele>
        <time>2022-10-28T10:09:12Z</time>
      </trkpt>
      <trkpt lat="44.56585" lon="5.50888">
        <ele>654.8</ele>
        <time>2022-10-28T10:09:13Z</time>
      </trkpt>
      <trkpt lat="44.56582" lon="5.50893">
        <ele>654.8</ele>
        <time>2022-10-28T10:09:14Z</time>
      </trkpt>
      <trkpt lat="44.56579" lon="5.50898">
        <ele>654.8</ele>
        <time>2022-10-28T10:09:15Z</time>
      </trkpt>
      <trkpt lat="44.56576" lon="5.50903">
        <ele>654.9</ele>
        <time>2022-10-28T10:09:16Z</time>
      </trkpt>
      <trkpt lat="44.56573" lon="5.50908">
        <ele>654.9</ele>
        <time>2022-10-28T10:09:17Z</time>
      </trkpt>
      <trkpt lat="44.5657" lon="5.50913">
        <ele>655</ele>
        <time>2022-10-28T10:09:18Z</time>
      </trkpt>
      <trkpt lat="44.56567" lon="5.50918">
        <ele>655</ele>
        <time>2022-10-28T10:09:19Z</time>
      </trkpt>
      <trkpt lat="44.56563" lon="5.50924">
        <ele>655</ele>
        <time>2022-10-28T10:09:20Z</time>
      </trkpt>
      <trkpt lat="44.5656" lon="5.50929">
        <ele>655</ele>
        <time>2022-10-28T10:09:21Z</time>
      </trkpt>
      <trkpt lat="44.56557" lon="5.50934">
        <ele>655.1</ele>
        <time>2022-10-28T10:09:22Z</time>
      </trkpt>
      <trkpt lat="44.56554" lon="5.50939">
        <ele>655.1</ele>
        <time>2022-10-28T10:09:23Z</time>
      </trkpt>
      <trkpt lat="44.56551" lon="5.50944">
        <ele>655.1</ele>
        <time>2022-10-28T10:09:24Z</time>
      </trkpt>
      <trkpt lat="44.56548" lon="5.5095">
        <ele>655.2</ele>
        <time>2022-10-28T10:09:25Z</time>
      </trkpt>
      <trkpt lat="44.56545" lon="5.50955">
        <ele>655.2</ele>
        <time>2022-10-28T10:09:26Z</time>
      </trkpt>
      <trkpt lat="44.56542" lon="5.5096">
        <ele>655.2</ele>
        <time>2022-10-28T10:09:27Z</time>
      </trkpt>
      <trkpt lat="44.56539" lon="5.50965">
        <ele>655.3</ele>
        <time>2022-10-28T10:09:28Z</time>
      </trkpt>
      <trkpt lat="44.56536" lon="5.5097">
        <ele>655.3</ele>
        <time>2022-10-28T10:09:29Z</time>
      </trkpt>
      <trkpt lat="44.56533" lon="5.50974">
        <ele>655.4</ele>
        <time>2022-10-28T10:09:30Z</time>
      </trkpt>
      <trkpt lat="44.56529" lon="5.50979">
        <ele>655.4</ele>
        <time>2022-10-28T10:09:31Z</time>
      </trkpt>
      <trkpt lat="44.56526" lon="5.50984">
        <ele>655.5</ele>
        <time>2022-10-28T10:09:32Z</time>
      </trkpt>
      <trkpt lat="44.56523" lon="5.50989">
        <ele>655.5</ele>
        <time>2022-10-28T10:09:33Z</time>
      </trkpt>
      <trkpt lat="44.5652" lon="5.50994">
        <ele>655.6</ele>
        <time>2022-10-28T10:09:34Z</time>
      </trkpt>
      <trkpt lat="44.56517" lon="5.50999">
        <ele>655.6</ele>
        <time>2022-10-28T10:09:35Z</time>
      </trkpt>
      <trkpt lat="44.56514" lon="5.51004">
        <ele>655.7</ele>
        <time>2022-10-28T10:09:36Z</time>
      </trkpt>
      <trkpt lat="44.56511" lon="5.5101">
        <ele>655.7</ele>
        <time>2022-10-28T10:09:37Z</time>
      </trkpt>
      <trkpt lat="44.56508" lon="5.51015">
        <ele>655.8</ele>
        <time>2022-10-28T10:09:38Z</time>
      </trkpt>
      <trkpt lat="44.56505" lon="5.5102">
        <ele>655.8</ele>
        <time>2022-10-28T10:09:39Z</time>
      </trkpt>
      <trkpt lat="44.56502" lon="5.51025">
        <ele>655.9</ele>
        <time>2022-10-28T10:09:40Z</time>
      </trkpt>
      <trkpt lat="44.56499" lon="5.5103">
        <ele>655.9</ele>
        <time>2022-10-28T10:09:41Z</time>
      </trkpt>
      <trkpt lat="44.56496" lon="5.51035">
        <ele>656</ele>
        <time>2022-10-28T10:09:42Z</time>
      </trkpt>
      <trkpt lat="44.56493" lon="5.5104">
        <ele>656.1</ele>
        <time>2022-10-28T10:09:43Z</time>
      </trkpt>
      <trkpt lat="44.5649" lon="5.51045">
        <ele>656.1</ele>
        <time>2022-10-28T10:09:44Z</time>
      </trkpt>
      <trkpt lat="44.56487" lon="5.5105">
        <ele>656.2</ele>
        <time>2022-10-28T10:09:45Z</time>
      </trkpt>
      <trkpt lat="44.56484" lon="5.51055">
        <ele>656.3</ele>
        <time>2022-10-28T10:09:46Z</time>
      </trkpt>
      <trkpt lat="44.56481" lon="5.51059">
        <ele>656.3</ele>
        <time>2022-10-28T10:09:47Z</time>
      </trkpt>
      <trkpt lat="44.56478" lon="5.51064">
        <ele>656.4</ele>
        <time>2022-10-28T10:09:48Z</time>
      </trkpt>
      <trkpt lat="44.56475" lon="5.51069">
        <ele>656.5</ele>
        <time>2022-10-28T10:09:49Z</time>
      </trkpt>
      <trkpt lat="44.56472" lon="5.51074">
        <ele>656.5</ele>
        <time>2022-10-28T10:09:50Z</time>
      </trkpt>
      <trkpt lat="44.56469" lon="5.51078">
        <ele>656.6</ele>
        <time>2022-10-28T10:09:51Z</time>
      </trkpt>
      <trkpt lat="44.56466" lon="5.51083">
        <ele>656.7</ele>
        <time>2022-10-28T10:09:52Z</time>
      </trkpt>
      <trkpt lat="44.56464" lon="5.51086">
        <ele>656.7</ele>
        <time>2022-10-28T10:09:53Z</time>
      </trkpt>
      <trkpt lat="44.56461" lon="5.51092">
        <ele>656.8</ele>
        <time>2022-10-28T10:09:54Z</time>
      </trkpt>
      <trkpt lat="44.56458" lon="5.51096">
        <ele>656.8</ele>
        <time>2022-10-28T10:09:55Z</time>
      </trkpt>
      <trkpt lat="44.56455" lon="5.51102">
        <ele>656.9</ele>
        <time>2022-10-28T10:09:56Z</time>
      </trkpt>
      <trkpt lat="44.56453" lon="5.51106">
        <ele>656.9</ele>
        <time>2022-10-28T10:09:57Z</time>
      </trkpt>
      <trkpt lat="44.5645" lon="5.5111">
        <ele>657</ele>
        <time>2022-10-28T10:09:58Z</time>
      </trkpt>
      <trkpt lat="44.56447" lon="5.51116">
        <ele>657</ele>
        <time>2022-10-28T10:09:59Z</time>
      </trkpt>
      <trkpt lat="44.56444" lon="5.51122">
        <ele>657.1</ele>
        <time>2022-10-28T10:10:00Z</time>
      </trkpt>
      <trkpt lat="44.56441" lon="5.51127">
        <ele>657.2</ele>
        <time>2022-10-28T10:10:01Z</time>
      </trkpt>
      <trkpt lat="44.56438" lon="5.51132">
        <ele>657.2</ele>
        <time>2022-10-28T10:10:02Z</time>
      </trkpt>
      <trkpt lat="44.56436" lon="5.51135">
        <ele>657.3</ele>
        <time>2022-10-28T10:10:03Z</time>
      </trkpt>
      <trkpt lat="44.56435" lon="5.51136">
        <ele>657.3</ele>
        <time>2022-10-28T10:10:04Z</time>
      </trkpt>
      <trkpt lat="44.5643" lon="5.51143">
        <ele>657.4</ele>
        <time>2022-10-28T10:10:05Z</time>
      </trkpt>
      <trkpt lat="44.56426" lon="5.51151">
        <ele>657.5</ele>
        <time>2022-10-28T10:10:07Z</time>
      </trkpt>
      <trkpt lat="44.56423" lon="5.51158">
        <ele>657.5</ele>
        <time>2022-10-28T10:10:08Z</time>
      </trkpt>
      <trkpt lat="44.5642" lon="5.51164">
        <ele>657.6</ele>
        <time>2022-10-28T10:10:09Z</time>
      </trkpt>
      <trkpt lat="44.56417" lon="5.51169">
        <ele>657.7</ele>
        <time>2022-10-28T10:10:10Z</time>
      </trkpt>
      <trkpt lat="44.56413" lon="5.51174">
        <ele>657.7</ele>
        <time>2022-10-28T10:10:11Z</time>
      </trkpt>
      <trkpt lat="44.56411" lon="5.51178">
        <ele>657.8</ele>
        <time>2022-10-28T10:10:12Z</time>
      </trkpt>
      <trkpt lat="44.56408" lon="5.51183">
        <ele>657.8</ele>
        <time>2022-10-28T10:10:13Z</time>
      </trkpt>
      <trkpt lat="44.56405" lon="5.51188">
        <ele>657.9</ele>
        <time>2022-10-28T10:10:14Z</time>
      </trkpt>
      <trkpt lat="44.56402" lon="5.51193">
        <ele>657.9</ele>
        <time>2022-10-28T10:10:15Z</time>
      </trkpt>
      <trkpt lat="44.564" lon="5.51197">
        <ele>658</ele>
        <time>2022-10-28T10:10:16Z</time>
      </trkpt>
      <trkpt lat="44.56397" lon="5.51202">
        <ele>658</ele>
        <time>2022-10-28T10:10:17Z</time>
      </trkpt>
      <trkpt lat="44.56393" lon="5.51207">
        <ele>658.1</ele>
        <time>2022-10-28T10:10:18Z</time>
      </trkpt>
      <trkpt lat="44.5639" lon="5.51212">
        <ele>658.1</ele>
        <time>2022-10-28T10:10:19Z</time>
      </trkpt>
      <trkpt lat="44.56386" lon="5.51218">
        <ele>658.2</ele>
        <time>2022-10-28T10:10:21Z</time>
      </trkpt>
      <trkpt lat="44.56383" lon="5.51225">
        <ele>658.2</ele>
        <time>2022-10-28T10:10:22Z</time>
      </trkpt>
      <trkpt lat="44.56379" lon="5.51232">
        <ele>658.3</ele>
        <time>2022-10-28T10:10:23Z</time>
      </trkpt>
      <trkpt lat="44.56375" lon="5.51238">
        <ele>658.3</ele>
        <time>2022-10-28T10:10:25Z</time>
      </trkpt>
      <trkpt lat="44.5637" lon="5.51246">
        <ele>658.4</ele>
        <time>2022-10-28T10:10:26Z</time>
      </trkpt>
      <trkpt lat="44.56367" lon="5.51252">
        <ele>658.4</ele>
        <time>2022-10-28T10:10:27Z</time>
      </trkpt>
      <trkpt lat="44.56364" lon="5.51257">
        <ele>658.5</ele>
        <time>2022-10-28T10:10:28Z</time>
      </trkpt>
      <trkpt lat="44.56361" lon="5.51261">
        <ele>658.5</ele>
        <time>2022-10-28T10:10:29Z</time>
      </trkpt>
      <trkpt lat="44.56358" lon="5.51266">
        <ele>658.5</ele>
        <time>2022-10-28T10:10:30Z</time>
      </trkpt>
      <trkpt lat="44.56355" lon="5.51271">
        <ele>658.5</ele>
        <time>2022-10-28T10:10:31Z</time>
      </trkpt>
      <trkpt lat="44.56353" lon="5.51276">
        <ele>658.5</ele>
        <time>2022-10-28T10:10:32Z</time>
      </trkpt>
      <trkpt lat="44.56349" lon="5.51281">
        <ele>658.5</ele>
        <time>2022-10-28T10:10:33Z</time>
      </trkpt>
      <trkpt lat="44.56346" lon="5.51286">
        <ele>658.5</ele>
        <time>2022-10-28T10:10:34Z</time>
      </trkpt>
      <trkpt lat="44.56343" lon="5.51291">
        <ele>658.6</ele>
        <time>2022-10-28T10:10:35Z</time>
      </trkpt>
      <trkpt lat="44.5634" lon="5.51296">
        <ele>658.6</ele>
        <time>2022-10-28T10:10:36Z</time>
      </trkpt>
      <trkpt lat="44.56336" lon="5.51301">
        <ele>658.6</ele>
        <time>2022-10-28T10:10:37Z</time>
      </trkpt>
      <trkpt lat="44.56333" lon="5.51306">
        <ele>658.6</ele>
        <time>2022-10-28T10:10:38Z</time>
      </trkpt>
      <trkpt lat="44.5633" lon="5.51311">
        <ele>658.6</ele>
        <time>2022-10-28T10:10:39Z</time>
      </trkpt>
      <trkpt lat="44.56327" lon="5.51316">
        <ele>658.6</ele>
        <time>2022-10-28T10:10:40Z</time>
      </trkpt>
      <trkpt lat="44.56324" lon="5.51321">
        <ele>658.7</ele>
        <time>2022-10-28T10:10:41Z</time>
      </trkpt>
      <trkpt lat="44.5632" lon="5.51326">
        <ele>658.7</ele>
        <time>2022-10-28T10:10:42Z</time>
      </trkpt>
      <trkpt lat="44.56317" lon="5.51331">
        <ele>658.7</ele>
        <time>2022-10-28T10:10:43Z</time>
      </trkpt>
      <trkpt lat="44.56314" lon="5.51336">
        <ele>658.7</ele>
        <time>2022-10-28T10:10:44Z</time>
      </trkpt>
      <trkpt lat="44.56311" lon="5.51341">
        <ele>658.7</ele>
        <time>2022-10-28T10:10:45Z</time>
      </trkpt>
      <trkpt lat="44.56308" lon="5.51346">
        <ele>658.7</ele>
        <time>2022-10-28T10:10:46Z</time>
      </trkpt>
      <trkpt lat="44.56305" lon="5.51351">
        <ele>658.7</ele>
        <time>2022-10-28T10:10:47Z</time>
      </trkpt>
      <trkpt lat="44.56302" lon="5.51357">
        <ele>658.7</ele>
        <time>2022-10-28T10:10:48Z</time>
      </trkpt>
      <trkpt lat="44.56299" lon="5.51362">
        <ele>658.7</ele>
        <time>2022-10-28T10:10:49Z</time>
      </trkpt>
      <trkpt lat="44.56296" lon="5.51367">
        <ele>658.7</ele>
        <time>2022-10-28T10:10:50Z</time>
      </trkpt>
      <trkpt lat="44.56292" lon="5.51372">
        <ele>658.8</ele>
        <time>2022-10-28T10:10:51Z</time>
      </trkpt>
      <trkpt lat="44.56289" lon="5.51378">
        <ele>658.8</ele>
        <time>2022-10-28T10:10:52Z</time>
      </trkpt>
      <trkpt lat="44.56286" lon="5.51383">
        <ele>658.8</ele>
        <time>2022-10-28T10:10:53Z</time>
      </trkpt>
      <trkpt lat="44.56282" lon="5.51388">
        <ele>658.9</ele>
        <time>2022-10-28T10:10:54Z</time>
      </trkpt>
      <trkpt lat="44.56279" lon="5.51394">
        <ele>658.9</ele>
        <time>2022-10-28T10:10:55Z</time>
      </trkpt>
      <trkpt lat="44.56276" lon="5.51399">
        <ele>658.9</ele>
        <time>2022-10-28T10:10:56Z</time>
      </trkpt>
      <trkpt lat="44.56273" lon="5.51404">
        <ele>659</ele>
        <time>2022-10-28T10:10:57Z</time>
      </trkpt>
      <trkpt lat="44.56269" lon="5.5141">
        <ele>659</ele>
        <time>2022-10-28T10:10:58Z</time>
      </trkpt>
      <trkpt lat="44.56266" lon="5.51415">
        <ele>659.1</ele>
        <time>2022-10-28T10:10:59Z</time>
      </trkpt>
      <trkpt lat="44.56263" lon="5.5142">
        <ele>659.1</ele>
        <time>2022-10-28T10:11:00Z</time>
      </trkpt>
      <trkpt lat="44.5626" lon="5.51426">
        <ele>659.1</ele>
        <time>2022-10-28T10:11:01Z</time>
      </trkpt>
      <trkpt lat="44.56256" lon="5.51431">
        <ele>659.1</ele>
        <time>2022-10-28T10:11:02Z</time>
      </trkpt>
      <trkpt lat="44.56253" lon="5.51435">
        <ele>659.2</ele>
        <time>2022-10-28T10:11:03Z</time>
      </trkpt>
      <trkpt lat="44.5625" lon="5.51441">
        <ele>659.2</ele>
        <time>2022-10-28T10:11:04Z</time>
      </trkpt>
      <trkpt lat="44.56246" lon="5.51445">
        <ele>659.2</ele>
        <time>2022-10-28T10:11:05Z</time>
      </trkpt>
      <trkpt lat="44.56243" lon="5.5145">
        <ele>659.2</ele>
        <time>2022-10-28T10:11:06Z</time>
      </trkpt>
      <trkpt lat="44.5624" lon="5.51455">
        <ele>659.3</ele>
        <time>2022-10-28T10:11:07Z</time>
      </trkpt>
      <trkpt lat="44.56236" lon="5.5146">
        <ele>659.3</ele>
        <time>2022-10-28T10:11:08Z</time>
      </trkpt>
      <trkpt lat="44.56233" lon="5.51465">
        <ele>659.3</ele>
        <time>2022-10-28T10:11:09Z</time>
      </trkpt>
      <trkpt lat="44.56229" lon="5.5147">
        <ele>659.4</ele>
        <time>2022-10-28T10:11:10Z</time>
      </trkpt>
      <trkpt lat="44.56226" lon="5.51475">
        <ele>659.4</ele>
        <time>2022-10-28T10:11:11Z</time>
      </trkpt>
      <trkpt lat="44.56222" lon="5.51479">
        <ele>659.4</ele>
        <time>2022-10-28T10:11:12Z</time>
      </trkpt>
      <trkpt lat="44.56218" lon="5.51484">
        <ele>659.5</ele>
        <time>2022-10-28T10:11:13Z</time>
      </trkpt>
      <trkpt lat="44.56215" lon="5.51489">
        <ele>659.5</ele>
        <time>2022-10-28T10:11:14Z</time>
      </trkpt>
      <trkpt lat="44.56211" lon="5.51493">
        <ele>659.6</ele>
        <time>2022-10-28T10:11:15Z</time>
      </trkpt>
      <trkpt lat="44.56208" lon="5.51498">
        <ele>659.7</ele>
        <time>2022-10-28T10:11:16Z</time>
      </trkpt>
      <trkpt lat="44.56204" lon="5.51503">
        <ele>659.7</ele>
        <time>2022-10-28T10:11:17Z</time>
      </trkpt>
      <trkpt lat="44.562" lon="5.51507">
        <ele>659.8</ele>
        <time>2022-10-28T10:11:18Z</time>
      </trkpt>
      <trkpt lat="44.56197" lon="5.51512">
        <ele>659.8</ele>
        <time>2022-10-28T10:11:19Z</time>
      </trkpt>
      <trkpt lat="44.56194" lon="5.51516">
        <ele>659.8</ele>
        <time>2022-10-28T10:11:20Z</time>
      </trkpt>
      <trkpt lat="44.5619" lon="5.51521">
        <ele>659.9</ele>
        <time>2022-10-28T10:11:21Z</time>
      </trkpt>
      <trkpt lat="44.56186" lon="5.51525">
        <ele>659.9</ele>
        <time>2022-10-28T10:11:22Z</time>
      </trkpt>
      <trkpt lat="44.56182" lon="5.51529">
        <ele>659.9</ele>
        <time>2022-10-28T10:11:23Z</time>
      </trkpt>
      <trkpt lat="44.56179" lon="5.51534">
        <ele>660</ele>
        <time>2022-10-28T10:11:24Z</time>
      </trkpt>
      <trkpt lat="44.56175" lon="5.51539">
        <ele>660</ele>
        <time>2022-10-28T10:11:25Z</time>
      </trkpt>
      <trkpt lat="44.56172" lon="5.51543">
        <ele>660</ele>
        <time>2022-10-28T10:11:26Z</time>
      </trkpt>
      <trkpt lat="44.56168" lon="5.51548">
        <ele>660</ele>
        <time>2022-10-28T10:11:27Z</time>
      </trkpt>
      <trkpt lat="44.56165" lon="5.51552">
        <ele>660.1</ele>
        <time>2022-10-28T10:11:28Z</time>
      </trkpt>
      <trkpt lat="44.56161" lon="5.51557">
        <ele>660.1</ele>
        <time>2022-10-28T10:11:29Z</time>
      </trkpt>
      <trkpt lat="44.56157" lon="5.51561">
        <ele>660.1</ele>
        <time>2022-10-28T10:11:30Z</time>
      </trkpt>
      <trkpt lat="44.56153" lon="5.51565">
        <ele>660.1</ele>
        <time>2022-10-28T10:11:31Z</time>
      </trkpt>
      <trkpt lat="44.5615" lon="5.51571">
        <ele>660.1</ele>
        <time>2022-10-28T10:11:32Z</time>
      </trkpt>
      <trkpt lat="44.56146" lon="5.51575">
        <ele>660.2</ele>
        <time>2022-10-28T10:11:33Z</time>
      </trkpt>
      <trkpt lat="44.56142" lon="5.5158">
        <ele>660.2</ele>
        <time>2022-10-28T10:11:34Z</time>
      </trkpt>
      <trkpt lat="44.56138" lon="5.51585">
        <ele>660.2</ele>
        <time>2022-10-28T10:11:35Z</time>
      </trkpt>
      <trkpt lat="44.56134" lon="5.5159">
        <ele>660.2</ele>
        <time>2022-10-28T10:11:36Z</time>
      </trkpt>
      <trkpt lat="44.5613" lon="5.51595">
        <ele>660.2</ele>
        <time>2022-10-28T10:11:37Z</time>
      </trkpt>
      <trkpt lat="44.56127" lon="5.51599">
        <ele>660.3</ele>
        <time>2022-10-28T10:11:38Z</time>
      </trkpt>
      <trkpt lat="44.56123" lon="5.51604">
        <ele>660.3</ele>
        <time>2022-10-28T10:11:39Z</time>
      </trkpt>
      <trkpt lat="44.56119" lon="5.51609">
        <ele>660.3</ele>
        <time>2022-10-28T10:11:40Z</time>
      </trkpt>
      <trkpt lat="44.56115" lon="5.51614">
        <ele>660.3</ele>
        <time>2022-10-28T10:11:41Z</time>
      </trkpt>
      <trkpt lat="44.56112" lon="5.51619">
        <ele>660.3</ele>
        <time>2022-10-28T10:11:42Z</time>
      </trkpt>
      <trkpt lat="44.56107" lon="5.51624">
        <ele>660.3</ele>
        <time>2022-10-28T10:11:43Z</time>
      </trkpt>
      <trkpt lat="44.56103" lon="5.51629">
        <ele>660.4</ele>
        <time>2022-10-28T10:11:44Z</time>
      </trkpt>
      <trkpt lat="44.561" lon="5.51634">
        <ele>660.4</ele>
        <time>2022-10-28T10:11:45Z</time>
      </trkpt>
      <trkpt lat="44.56096" lon="5.51638">
        <ele>660.4</ele>
        <time>2022-10-28T10:11:46Z</time>
      </trkpt>
      <trkpt lat="44.56092" lon="5.51643">
        <ele>660.5</ele>
        <time>2022-10-28T10:11:47Z</time>
      </trkpt>
      <trkpt lat="44.56088" lon="5.51648">
        <ele>660.5</ele>
        <time>2022-10-28T10:11:48Z</time>
      </trkpt>
      <trkpt lat="44.56084" lon="5.51652">
        <ele>660.6</ele>
        <time>2022-10-28T10:11:49Z</time>
      </trkpt>
      <trkpt lat="44.56081" lon="5.51657">
        <ele>660.6</ele>
        <time>2022-10-28T10:11:50Z</time>
      </trkpt>
      <trkpt lat="44.56077" lon="5.51661">
        <ele>660.7</ele>
        <time>2022-10-28T10:11:51Z</time>
      </trkpt>
      <trkpt lat="44.56073" lon="5.51666">
        <ele>660.7</ele>
        <time>2022-10-28T10:11:52Z</time>
      </trkpt>
      <trkpt lat="44.5607" lon="5.5167">
        <ele>660.8</ele>
        <time>2022-10-28T10:11:53Z</time>
      </trkpt>
      <trkpt lat="44.56066" lon="5.51675">
        <ele>660.9</ele>
        <time>2022-10-28T10:11:54Z</time>
      </trkpt>
      <trkpt lat="44.56062" lon="5.5168">
        <ele>660.9</ele>
        <time>2022-10-28T10:11:55Z</time>
      </trkpt>
      <trkpt lat="44.56059" lon="5.51684">
        <ele>661</ele>
        <time>2022-10-28T10:11:56Z</time>
      </trkpt>
      <trkpt lat="44.56055" lon="5.51689">
        <ele>661</ele>
        <time>2022-10-28T10:11:57Z</time>
      </trkpt>
      <trkpt lat="44.56051" lon="5.51694">
        <ele>661.1</ele>
        <time>2022-10-28T10:11:58Z</time>
      </trkpt>
      <trkpt lat="44.56047" lon="5.51698">
        <ele>661.2</ele>
        <time>2022-10-28T10:11:59Z</time>
      </trkpt>
      <trkpt lat="44.56043" lon="5.51703">
        <ele>661.2</ele>
        <time>2022-10-28T10:12:00Z</time>
      </trkpt>
      <trkpt lat="44.56039" lon="5.51707">
        <ele>661.3</ele>
        <time>2022-10-28T10:12:01Z</time>
      </trkpt>
      <trkpt lat="44.56036" lon="5.51712">
        <ele>661.3</ele>
        <time>2022-10-28T10:12:02Z</time>
      </trkpt>
      <trkpt lat="44.56032" lon="5.51716">
        <ele>661.4</ele>
        <time>2022-10-28T10:12:03Z</time>
      </trkpt>
      <trkpt lat="44.56029" lon="5.51721">
        <ele>661.4</ele>
        <time>2022-10-28T10:12:04Z</time>
      </trkpt>
      <trkpt lat="44.56025" lon="5.51725">
        <ele>661.5</ele>
        <time>2022-10-28T10:12:05Z</time>
      </trkpt>
      <trkpt lat="44.56021" lon="5.5173">
        <ele>661.5</ele>
        <time>2022-10-28T10:12:06Z</time>
      </trkpt>
      <trkpt lat="44.56018" lon="5.51734">
        <ele>661.6</ele>
        <time>2022-10-28T10:12:07Z</time>
      </trkpt>
      <trkpt lat="44.56014" lon="5.51739">
        <ele>661.6</ele>
        <time>2022-10-28T10:12:08Z</time>
      </trkpt>
      <trkpt lat="44.5601" lon="5.51744">
        <ele>661.7</ele>
        <time>2022-10-28T10:12:09Z</time>
      </trkpt>
      <trkpt lat="44.56007" lon="5.51748">
        <ele>661.7</ele>
        <time>2022-10-28T10:12:10Z</time>
      </trkpt>
      <trkpt lat="44.56003" lon="5.51752">
        <ele>661.8</ele>
        <time>2022-10-28T10:12:11Z</time>
      </trkpt>
      <trkpt lat="44.55999" lon="5.51757">
        <ele>661.8</ele>
        <time>2022-10-28T10:12:12Z</time>
      </trkpt>
      <trkpt lat="44.55996" lon="5.51761">
        <ele>661.9</ele>
        <time>2022-10-28T10:12:13Z</time>
      </trkpt>
      <trkpt lat="44.55993" lon="5.51766">
        <ele>662</ele>
        <time>2022-10-28T10:12:14Z</time>
      </trkpt>
      <trkpt lat="44.55989" lon="5.5177">
        <ele>662</ele>
        <time>2022-10-28T10:12:15Z</time>
      </trkpt>
      <trkpt lat="44.55986" lon="5.51775">
        <ele>662.1</ele>
        <time>2022-10-28T10:12:16Z</time>
      </trkpt>
      <trkpt lat="44.55983" lon="5.51779">
        <ele>662.2</ele>
        <time>2022-10-28T10:12:17Z</time>
      </trkpt>
      <trkpt lat="44.55979" lon="5.51783">
        <ele>662.2</ele>
        <time>2022-10-28T10:12:18Z</time>
      </trkpt>
      <trkpt lat="44.55976" lon="5.51788">
        <ele>662.3</ele>
        <time>2022-10-28T10:12:19Z</time>
      </trkpt>
      <trkpt lat="44.55972" lon="5.51792">
        <ele>662.3</ele>
        <time>2022-10-28T10:12:20Z</time>
      </trkpt>
      <trkpt lat="44.55969" lon="5.51797">
        <ele>662.4</ele>
        <time>2022-10-28T10:12:21Z</time>
      </trkpt>
      <trkpt lat="44.55966" lon="5.51801">
        <ele>662.4</ele>
        <time>2022-10-28T10:12:22Z</time>
      </trkpt>
      <trkpt lat="44.55962" lon="5.51806">
        <ele>662.5</ele>
        <time>2022-10-28T10:12:23Z</time>
      </trkpt>
      <trkpt lat="44.55959" lon="5.5181">
        <ele>662.5</ele>
        <time>2022-10-28T10:12:24Z</time>
      </trkpt>
      <trkpt lat="44.55955" lon="5.51815">
        <ele>662.6</ele>
        <time>2022-10-28T10:12:25Z</time>
      </trkpt>
      <trkpt lat="44.55951" lon="5.51818">
        <ele>662.6</ele>
        <time>2022-10-28T10:12:26Z</time>
      </trkpt>
      <trkpt lat="44.55948" lon="5.51822">
        <ele>662.6</ele>
        <time>2022-10-28T10:12:27Z</time>
      </trkpt>
      <trkpt lat="44.55944" lon="5.51826">
        <ele>662.7</ele>
        <time>2022-10-28T10:12:28Z</time>
      </trkpt>
      <trkpt lat="44.55941" lon="5.51831">
        <ele>662.7</ele>
        <time>2022-10-28T10:12:29Z</time>
      </trkpt>
      <trkpt lat="44.55938" lon="5.51835">
        <ele>662.8</ele>
        <time>2022-10-28T10:12:30Z</time>
      </trkpt>
      <trkpt lat="44.55934" lon="5.51839">
        <ele>662.8</ele>
        <time>2022-10-28T10:12:31Z</time>
      </trkpt>
      <trkpt lat="44.55931" lon="5.51843">
        <ele>662.9</ele>
        <time>2022-10-28T10:12:32Z</time>
      </trkpt>
      <trkpt lat="44.55928" lon="5.51848">
        <ele>662.9</ele>
        <time>2022-10-28T10:12:33Z</time>
      </trkpt>
      <trkpt lat="44.55924" lon="5.51852">
        <ele>663</ele>
        <time>2022-10-28T10:12:34Z</time>
      </trkpt>
      <trkpt lat="44.55921" lon="5.51856">
        <ele>663</ele>
        <time>2022-10-28T10:12:35Z</time>
      </trkpt>
      <trkpt lat="44.55917" lon="5.5186">
        <ele>663.1</ele>
        <time>2022-10-28T10:12:36Z</time>
      </trkpt>
      <trkpt lat="44.55914" lon="5.51864">
        <ele>663.1</ele>
        <time>2022-10-28T10:12:37Z</time>
      </trkpt>
      <trkpt lat="44.5591" lon="5.51869">
        <ele>663.2</ele>
        <time>2022-10-28T10:12:38Z</time>
      </trkpt>
      <trkpt lat="44.55907" lon="5.51873">
        <ele>663.3</ele>
        <time>2022-10-28T10:12:39Z</time>
      </trkpt>
      <trkpt lat="44.55903" lon="5.51878">
        <ele>663.3</ele>
        <time>2022-10-28T10:12:40Z</time>
      </trkpt>
      <trkpt lat="44.559" lon="5.51882">
        <ele>663.3</ele>
        <time>2022-10-28T10:12:41Z</time>
      </trkpt>
      <trkpt lat="44.55896" lon="5.51887">
        <ele>663.4</ele>
        <time>2022-10-28T10:12:42Z</time>
      </trkpt>
      <trkpt lat="44.55892" lon="5.51891">
        <ele>663.4</ele>
        <time>2022-10-28T10:12:43Z</time>
      </trkpt>
      <trkpt lat="44.55888" lon="5.51895">
        <ele>663.5</ele>
        <time>2022-10-28T10:12:44Z</time>
      </trkpt>
      <trkpt lat="44.55885" lon="5.519">
        <ele>663.6</ele>
        <time>2022-10-28T10:12:45Z</time>
      </trkpt>
      <trkpt lat="44.55882" lon="5.51904">
        <ele>663.6</ele>
        <time>2022-10-28T10:12:46Z</time>
      </trkpt>
      <trkpt lat="44.55878" lon="5.51908">
        <ele>663.7</ele>
        <time>2022-10-28T10:12:47Z</time>
      </trkpt>
      <trkpt lat="44.55875" lon="5.51912">
        <ele>663.7</ele>
        <time>2022-10-28T10:12:48Z</time>
      </trkpt>
      <trkpt lat="44.55872" lon="5.51916">
        <ele>663.8</ele>
        <time>2022-10-28T10:12:49Z</time>
      </trkpt>
      <trkpt lat="44.55869" lon="5.5192">
        <ele>663.8</ele>
        <time>2022-10-28T10:12:50Z</time>
      </trkpt>
      <trkpt lat="44.55866" lon="5.51923">
        <ele>663.9</ele>
        <time>2022-10-28T10:12:51Z</time>
      </trkpt>
      <trkpt lat="44.55863" lon="5.51927">
        <ele>663.9</ele>
        <time>2022-10-28T10:12:52Z</time>
      </trkpt>
      <trkpt lat="44.5586" lon="5.51931">
        <ele>664</ele>
        <time>2022-10-28T10:12:53Z</time>
      </trkpt>
      <trkpt lat="44.55857" lon="5.51935">
        <ele>664</ele>
        <time>2022-10-28T10:12:54Z</time>
      </trkpt>
      <trkpt lat="44.55853" lon="5.51939">
        <ele>664.1</ele>
        <time>2022-10-28T10:12:55Z</time>
      </trkpt>
      <trkpt lat="44.5585" lon="5.51943">
        <ele>664.1</ele>
        <time>2022-10-28T10:12:56Z</time>
      </trkpt>
      <trkpt lat="44.55846" lon="5.51948">
        <ele>664.2</ele>
        <time>2022-10-28T10:12:58Z</time>
      </trkpt>
      <trkpt lat="44.5584" lon="5.51956">
        <ele>664.3</ele>
        <time>2022-10-28T10:12:59Z</time>
      </trkpt>
      <trkpt lat="44.55836" lon="5.51961">
        <ele>664.3</ele>
        <time>2022-10-28T10:13:01Z</time>
      </trkpt>
      <trkpt lat="44.55832" lon="5.51966">
        <ele>664.4</ele>
        <time>2022-10-28T10:13:02Z</time>
      </trkpt>
      <trkpt lat="44.55828" lon="5.51971">
        <ele>664.5</ele>
        <time>2022-10-28T10:13:03Z</time>
      </trkpt>
      <trkpt lat="44.55824" lon="5.51976">
        <ele>664.5</ele>
        <time>2022-10-28T10:13:04Z</time>
      </trkpt>
      <trkpt lat="44.55821" lon="5.51981">
        <ele>664.6</ele>
        <time>2022-10-28T10:13:05Z</time>
      </trkpt>
      <trkpt lat="44.55818" lon="5.51985">
        <ele>664.6</ele>
        <time>2022-10-28T10:13:06Z</time>
      </trkpt>
      <trkpt lat="44.55814" lon="5.5199">
        <ele>664.7</ele>
        <time>2022-10-28T10:13:07Z</time>
      </trkpt>
      <trkpt lat="44.55809" lon="5.51997">
        <ele>664.8</ele>
        <time>2022-10-28T10:13:09Z</time>
      </trkpt>
      <trkpt lat="44.55805" lon="5.52002">
        <ele>664.9</ele>
        <time>2022-10-28T10:13:10Z</time>
      </trkpt>
      <trkpt lat="44.55801" lon="5.52006">
        <ele>665</ele>
        <time>2022-10-28T10:13:12Z</time>
      </trkpt>
      <trkpt lat="44.55798" lon="5.52011">
        <ele>665</ele>
        <time>2022-10-28T10:13:13Z</time>
      </trkpt>
      <trkpt lat="44.55794" lon="5.52015">
        <ele>665.1</ele>
        <time>2022-10-28T10:13:14Z</time>
      </trkpt>
      <trkpt lat="44.55789" lon="5.52021">
        <ele>665.2</ele>
        <time>2022-10-28T10:13:15Z</time>
      </trkpt>
      <trkpt lat="44.55786" lon="5.52025">
        <ele>665.2</ele>
        <time>2022-10-28T10:13:16Z</time>
      </trkpt>
      <trkpt lat="44.55783" lon="5.5203">
        <ele>665.3</ele>
        <time>2022-10-28T10:13:17Z</time>
      </trkpt>
      <trkpt lat="44.55779" lon="5.52035">
        <ele>665.3</ele>
        <time>2022-10-28T10:13:19Z</time>
      </trkpt>
      <trkpt lat="44.55773" lon="5.52043">
        <ele>665.4</ele>
        <time>2022-10-28T10:13:20Z</time>
      </trkpt>
      <trkpt lat="44.5577" lon="5.52047">
        <ele>665.5</ele>
        <time>2022-10-28T10:13:21Z</time>
      </trkpt>
      <trkpt lat="44.55765" lon="5.52052">
        <ele>665.6</ele>
        <time>2022-10-28T10:13:23Z</time>
      </trkpt>
      <trkpt lat="44.5576" lon="5.52058">
        <ele>665.7</ele>
        <time>2022-10-28T10:13:24Z</time>
      </trkpt>
      <trkpt lat="44.55757" lon="5.52063">
        <ele>665.8</ele>
        <time>2022-10-28T10:13:25Z</time>
      </trkpt>
      <trkpt lat="44.55753" lon="5.52067">
        <ele>665.9</ele>
        <time>2022-10-28T10:13:27Z</time>
      </trkpt>
      <trkpt lat="44.5575" lon="5.52072">
        <ele>665.9</ele>
        <time>2022-10-28T10:13:28Z</time>
      </trkpt>
      <trkpt lat="44.55746" lon="5.52077">
        <ele>666</ele>
        <time>2022-10-28T10:13:29Z</time>
      </trkpt>
      <trkpt lat="44.55743" lon="5.52082">
        <ele>666.1</ele>
        <time>2022-10-28T10:13:30Z</time>
      </trkpt>
      <trkpt lat="44.5574" lon="5.52086">
        <ele>666.2</ele>
        <time>2022-10-28T10:13:31Z</time>
      </trkpt>
      <trkpt lat="44.55736" lon="5.52091">
        <ele>666.2</ele>
        <time>2022-10-28T10:13:33Z</time>
      </trkpt>
      <trkpt lat="44.55732" lon="5.52096">
        <ele>666.3</ele>
        <time>2022-10-28T10:13:34Z</time>
      </trkpt>
      <trkpt lat="44.55728" lon="5.52101">
        <ele>666.4</ele>
        <time>2022-10-28T10:13:35Z</time>
      </trkpt>
      <trkpt lat="44.55724" lon="5.52105">
        <ele>666.4</ele>
        <time>2022-10-28T10:13:36Z</time>
      </trkpt>
      <trkpt lat="44.55721" lon="5.5211">
        <ele>666.5</ele>
        <time>2022-10-28T10:13:37Z</time>
      </trkpt>
      <trkpt lat="44.55714" lon="5.52119">
        <ele>666.6</ele>
        <time>2022-10-28T10:13:39Z</time>
      </trkpt>
      <trkpt lat="44.55709" lon="5.52124">
        <ele>666.6</ele>
        <time>2022-10-28T10:13:41Z</time>
      </trkpt>
      <trkpt lat="44.55705" lon="5.52128">
        <ele>666.7</ele>
        <time>2022-10-28T10:13:42Z</time>
      </trkpt>
      <trkpt lat="44.55701" lon="5.52133">
        <ele>666.8</ele>
        <time>2022-10-28T10:13:43Z</time>
      </trkpt>
      <trkpt lat="44.55698" lon="5.52137">
        <ele>666.8</ele>
        <time>2022-10-28T10:13:44Z</time>
      </trkpt>
      <trkpt lat="44.55696" lon="5.52141">
        <ele>666.9</ele>
        <time>2022-10-28T10:13:45Z</time>
      </trkpt>
      <trkpt lat="44.55693" lon="5.52144">
        <ele>666.9</ele>
        <time>2022-10-28T10:13:46Z</time>
      </trkpt>
      <trkpt lat="44.5569" lon="5.52148">
        <ele>667</ele>
        <time>2022-10-28T10:13:47Z</time>
      </trkpt>
      <trkpt lat="44.55687" lon="5.52153">
        <ele>667</ele>
        <time>2022-10-28T10:13:48Z</time>
      </trkpt>
      <trkpt lat="44.55684" lon="5.52157">
        <ele>667.1</ele>
        <time>2022-10-28T10:13:49Z</time>
      </trkpt>
      <trkpt lat="44.55678" lon="5.52163">
        <ele>667.1</ele>
        <time>2022-10-28T10:13:51Z</time>
      </trkpt>
      <trkpt lat="44.55674" lon="5.52168">
        <ele>667.2</ele>
        <time>2022-10-28T10:13:52Z</time>
      </trkpt>
      <trkpt lat="44.55671" lon="5.52172">
        <ele>667.2</ele>
        <time>2022-10-28T10:13:53Z</time>
      </trkpt>
      <trkpt lat="44.55667" lon="5.52177">
        <ele>667.3</ele>
        <time>2022-10-28T10:13:54Z</time>
      </trkpt>
      <trkpt lat="44.55664" lon="5.52181">
        <ele>667.3</ele>
        <time>2022-10-28T10:13:55Z</time>
      </trkpt>
      <trkpt lat="44.5566" lon="5.52186">
        <ele>667.4</ele>
        <time>2022-10-28T10:13:57Z</time>
      </trkpt>
      <trkpt lat="44.55655" lon="5.52191">
        <ele>667.5</ele>
        <time>2022-10-28T10:13:58Z</time>
      </trkpt>
      <trkpt lat="44.55651" lon="5.52196">
        <ele>667.5</ele>
        <time>2022-10-28T10:13:59Z</time>
      </trkpt>
      <trkpt lat="44.55648" lon="5.52201">
        <ele>667.6</ele>
        <time>2022-10-28T10:14:01Z</time>
      </trkpt>
      <trkpt lat="44.55643" lon="5.52206">
        <ele>667.7</ele>
        <time>2022-10-28T10:14:02Z</time>
      </trkpt>
      <trkpt lat="44.5564" lon="5.5221">
        <ele>667.7</ele>
        <time>2022-10-28T10:14:03Z</time>
      </trkpt>
      <trkpt lat="44.55637" lon="5.52215">
        <ele>667.8</ele>
        <time>2022-10-28T10:14:04Z</time>
      </trkpt>
      <trkpt lat="44.55632" lon="5.5222">
        <ele>667.8</ele>
        <time>2022-10-28T10:14:05Z</time>
      </trkpt>
      <trkpt lat="44.55629" lon="5.52223">
        <ele>667.9</ele>
        <time>2022-10-28T10:14:06Z</time>
      </trkpt>
      <trkpt lat="44.55624" lon="5.52232">
        <ele>668</ele>
        <time>2022-10-28T10:14:08Z</time>
      </trkpt>
      <trkpt lat="44.5562" lon="5.52237">
        <ele>668</ele>
        <time>2022-10-28T10:14:09Z</time>
      </trkpt>
      <trkpt lat="44.55616" lon="5.52242">
        <ele>668.1</ele>
        <time>2022-10-28T10:14:10Z</time>
      </trkpt>
      <trkpt lat="44.55611" lon="5.52245">
        <ele>668.2</ele>
        <time>2022-10-28T10:14:12Z</time>
      </trkpt>
      <trkpt lat="44.55607" lon="5.52251">
        <ele>668.3</ele>
        <time>2022-10-28T10:14:13Z</time>
      </trkpt>
      <trkpt lat="44.55604" lon="5.52256">
        <ele>668.3</ele>
        <time>2022-10-28T10:14:14Z</time>
      </trkpt>
      <trkpt lat="44.556" lon="5.5226">
        <ele>668.4</ele>
        <time>2022-10-28T10:14:15Z</time>
      </trkpt>
      <trkpt lat="44.55597" lon="5.52265">
        <ele>668.5</ele>
        <time>2022-10-28T10:14:16Z</time>
      </trkpt>
      <trkpt lat="44.55593" lon="5.52269">
        <ele>668.5</ele>
        <time>2022-10-28T10:14:17Z</time>
      </trkpt>
      <trkpt lat="44.55589" lon="5.52274">
        <ele>668.6</ele>
        <time>2022-10-28T10:14:19Z</time>
      </trkpt>
      <trkpt lat="44.55585" lon="5.52279">
        <ele>668.7</ele>
        <time>2022-10-28T10:14:20Z</time>
      </trkpt>
      <trkpt lat="44.55581" lon="5.52283">
        <ele>668.7</ele>
        <time>2022-10-28T10:14:21Z</time>
      </trkpt>
      <trkpt lat="44.55577" lon="5.52287">
        <ele>668.8</ele>
        <time>2022-10-28T10:14:22Z</time>
      </trkpt>
      <trkpt lat="44.55571" lon="5.52292">
        <ele>668.8</ele>
        <time>2022-10-28T10:14:24Z</time>
      </trkpt>
      <trkpt lat="44.55567" lon="5.52297">
        <ele>668.9</ele>
        <time>2022-10-28T10:14:25Z</time>
      </trkpt>
      <trkpt lat="44.55562" lon="5.52302">
        <ele>668.9</ele>
        <time>2022-10-28T10:14:26Z</time>
      </trkpt>
      <trkpt lat="44.55558" lon="5.52306">
        <ele>669</ele>
        <time>2022-10-28T10:14:27Z</time>
      </trkpt>
      <trkpt lat="44.55554" lon="5.5231">
        <ele>669</ele>
        <time>2022-10-28T10:14:28Z</time>
      </trkpt>
      <trkpt lat="44.5555" lon="5.52315">
        <ele>669.1</ele>
        <time>2022-10-28T10:14:29Z</time>
      </trkpt>
      <trkpt lat="44.55546" lon="5.52319">
        <ele>669.1</ele>
        <time>2022-10-28T10:14:30Z</time>
      </trkpt>
      <trkpt lat="44.55543" lon="5.52322">
        <ele>669.2</ele>
        <time>2022-10-28T10:14:31Z</time>
      </trkpt>
      <trkpt lat="44.55539" lon="5.52325">
        <ele>669.2</ele>
        <time>2022-10-28T10:14:33Z</time>
      </trkpt>
      <trkpt lat="44.55534" lon="5.5233">
        <ele>669.3</ele>
        <time>2022-10-28T10:14:34Z</time>
      </trkpt>
      <trkpt lat="44.55527" lon="5.52335">
        <ele>669.4</ele>
        <time>2022-10-28T10:14:35Z</time>
      </trkpt>
      <trkpt lat="44.55523" lon="5.52338">
        <ele>669.4</ele>
        <time>2022-10-28T10:14:36Z</time>
      </trkpt>
      <trkpt lat="44.55518" lon="5.52342">
        <ele>669.5</ele>
        <time>2022-10-28T10:14:37Z</time>
      </trkpt>
      <trkpt lat="44.55514" lon="5.52345">
        <ele>669.5</ele>
        <time>2022-10-28T10:14:38Z</time>
      </trkpt>
      <trkpt lat="44.5551" lon="5.52348">
        <ele>669.6</ele>
        <time>2022-10-28T10:14:39Z</time>
      </trkpt>
      <trkpt lat="44.55508" lon="5.52349">
        <ele>669.6</ele>
        <time>2022-10-28T10:14:40Z</time>
      </trkpt>
      <trkpt lat="44.55504" lon="5.52353">
        <ele>669.7</ele>
        <time>2022-10-28T10:14:41Z</time>
      </trkpt>
      <trkpt lat="44.555" lon="5.52357">
        <ele>669.7</ele>
        <time>2022-10-28T10:14:42Z</time>
      </trkpt>
      <trkpt lat="44.55495" lon="5.52361">
        <ele>669.8</ele>
        <time>2022-10-28T10:14:43Z</time>
      </trkpt>
      <trkpt lat="44.55491" lon="5.52365">
        <ele>669.9</ele>
        <time>2022-10-28T10:14:44Z</time>
      </trkpt>
      <trkpt lat="44.55486" lon="5.52368">
        <ele>669.9</ele>
        <time>2022-10-28T10:14:46Z</time>
      </trkpt>
      <trkpt lat="44.55481" lon="5.52373">
        <ele>670</ele>
        <time>2022-10-28T10:14:47Z</time>
      </trkpt>
      <trkpt lat="44.55476" lon="5.52376">
        <ele>670.1</ele>
        <time>2022-10-28T10:14:48Z</time>
      </trkpt>
      <trkpt lat="44.5547" lon="5.5238">
        <ele>670.1</ele>
        <time>2022-10-28T10:14:50Z</time>
      </trkpt>
      <trkpt lat="44.55465" lon="5.52384">
        <ele>670.2</ele>
        <time>2022-10-28T10:14:51Z</time>
      </trkpt>
      <trkpt lat="44.5546" lon="5.52388">
        <ele>670.3</ele>
        <time>2022-10-28T10:14:52Z</time>
      </trkpt>
      <trkpt lat="44.55456" lon="5.52391">
        <ele>670.3</ele>
        <time>2022-10-28T10:14:53Z</time>
      </trkpt>
      <trkpt lat="44.55451" lon="5.52395">
        <ele>670.4</ele>
        <time>2022-10-28T10:14:54Z</time>
      </trkpt>
      <trkpt lat="44.55447" lon="5.52398">
        <ele>670.5</ele>
        <time>2022-10-28T10:14:56Z</time>
      </trkpt>
      <trkpt lat="44.55442" lon="5.52402">
        <ele>670.5</ele>
        <time>2022-10-28T10:14:57Z</time>
      </trkpt>
      <trkpt lat="44.55437" lon="5.52406">
        <ele>670.6</ele>
        <time>2022-10-28T10:14:58Z</time>
      </trkpt>
      <trkpt lat="44.55432" lon="5.5241">
        <ele>670.7</ele>
        <time>2022-10-28T10:14:59Z</time>
      </trkpt>
      <trkpt lat="44.55428" lon="5.52412">
        <ele>670.7</ele>
        <time>2022-10-28T10:15:00Z</time>
      </trkpt>
      <trkpt lat="44.55423" lon="5.52416">
        <ele>670.8</ele>
        <time>2022-10-28T10:15:01Z</time>
      </trkpt>
      <trkpt lat="44.55418" lon="5.5242">
        <ele>670.9</ele>
        <time>2022-10-28T10:15:03Z</time>
      </trkpt>
      <trkpt lat="44.55413" lon="5.52424">
        <ele>670.9</ele>
        <time>2022-10-28T10:15:04Z</time>
      </trkpt>
      <trkpt lat="44.55409" lon="5.52427">
        <ele>671</ele>
        <time>2022-10-28T10:15:05Z</time>
      </trkpt>
      <trkpt lat="44.55405" lon="5.52431">
        <ele>671</ele>
        <time>2022-10-28T10:15:06Z</time>
      </trkpt>
      <trkpt lat="44.554" lon="5.52434">
        <ele>671.1</ele>
        <time>2022-10-28T10:15:07Z</time>
      </trkpt>
      <trkpt lat="44.55397" lon="5.52436">
        <ele>671.1</ele>
        <time>2022-10-28T10:15:08Z</time>
      </trkpt>
      <trkpt lat="44.5539" lon="5.52442">
        <ele>671.2</ele>
        <time>2022-10-28T10:15:10Z</time>
      </trkpt>
      <trkpt lat="44.55385" lon="5.52447">
        <ele>671.2</ele>
        <time>2022-10-28T10:15:12Z</time>
      </trkpt>
      <trkpt lat="44.55381" lon="5.52451">
        <ele>671.3</ele>
        <time>2022-10-28T10:15:13Z</time>
      </trkpt>
      <trkpt lat="44.55376" lon="5.52454">
        <ele>671.3</ele>
        <time>2022-10-28T10:15:14Z</time>
      </trkpt>
      <trkpt lat="44.55372" lon="5.52457">
        <ele>671.4</ele>
        <time>2022-10-28T10:15:15Z</time>
      </trkpt>
      <trkpt lat="44.55367" lon="5.52461">
        <ele>671.5</ele>
        <time>2022-10-28T10:15:16Z</time>
      </trkpt>
      <trkpt lat="44.55363" lon="5.52464">
        <ele>671.5</ele>
        <time>2022-10-28T10:15:17Z</time>
      </trkpt>
      <trkpt lat="44.55358" lon="5.52469">
        <ele>671.6</ele>
        <time>2022-10-28T10:15:19Z</time>
      </trkpt>
      <trkpt lat="44.55354" lon="5.52472">
        <ele>671.7</ele>
        <time>2022-10-28T10:15:20Z</time>
      </trkpt>
      <trkpt lat="44.55349" lon="5.52478">
        <ele>671.8</ele>
        <time>2022-10-28T10:15:21Z</time>
      </trkpt>
      <trkpt lat="44.55346" lon="5.5248">
        <ele>671.9</ele>
        <time>2022-10-28T10:15:22Z</time>
      </trkpt>
      <trkpt lat="44.55342" lon="5.52484">
        <ele>671.9</ele>
        <time>2022-10-28T10:15:23Z</time>
      </trkpt>
      <trkpt lat="44.55338" lon="5.52487">
        <ele>672</ele>
        <time>2022-10-28T10:15:25Z</time>
      </trkpt>
      <trkpt lat="44.55334" lon="5.52491">
        <ele>672</ele>
        <time>2022-10-28T10:15:26Z</time>
      </trkpt>
      <trkpt lat="44.5533" lon="5.52495">
        <ele>672.1</ele>
        <time>2022-10-28T10:15:27Z</time>
      </trkpt>
      <trkpt lat="44.55326" lon="5.52499">
        <ele>672.2</ele>
        <time>2022-10-28T10:15:28Z</time>
      </trkpt>
      <trkpt lat="44.55322" lon="5.52503">
        <ele>672.3</ele>
        <time>2022-10-28T10:15:29Z</time>
      </trkpt>
      <trkpt lat="44.55317" lon="5.52506">
        <ele>672.4</ele>
        <time>2022-10-28T10:15:30Z</time>
      </trkpt>
      <trkpt lat="44.55313" lon="5.5251">
        <ele>672.5</ele>
        <time>2022-10-28T10:15:31Z</time>
      </trkpt>
      <trkpt lat="44.55308" lon="5.52514">
        <ele>672.5</ele>
        <time>2022-10-28T10:15:33Z</time>
      </trkpt>
      <trkpt lat="44.55303" lon="5.5252">
        <ele>672.6</ele>
        <time>2022-10-28T10:15:34Z</time>
      </trkpt>
      <trkpt lat="44.55298" lon="5.52525">
        <ele>672.7</ele>
        <time>2022-10-28T10:15:35Z</time>
      </trkpt>
      <trkpt lat="44.55295" lon="5.52528">
        <ele>672.8</ele>
        <time>2022-10-28T10:15:36Z</time>
      </trkpt>
      <trkpt lat="44.5529" lon="5.52535">
        <ele>672.9</ele>
        <time>2022-10-28T10:15:38Z</time>
      </trkpt>
      <trkpt lat="44.55284" lon="5.52543">
        <ele>673</ele>
        <time>2022-10-28T10:15:39Z</time>
      </trkpt>
      <trkpt lat="44.55281" lon="5.52549">
        <ele>673.1</ele>
        <time>2022-10-28T10:15:40Z</time>
      </trkpt>
      <trkpt lat="44.55278" lon="5.52554">
        <ele>673.1</ele>
        <time>2022-10-28T10:15:41Z</time>
      </trkpt>
      <trkpt lat="44.55275" lon="5.52559">
        <ele>673.2</ele>
        <time>2022-10-28T10:15:42Z</time>
      </trkpt>
      <trkpt lat="44.55273" lon="5.52564">
        <ele>673.3</ele>
        <time>2022-10-28T10:15:43Z</time>
      </trkpt>
      <trkpt lat="44.5527" lon="5.5257">
        <ele>673.4</ele>
        <time>2022-10-28T10:15:44Z</time>
      </trkpt>
      <trkpt lat="44.55268" lon="5.52575">
        <ele>673.5</ele>
        <time>2022-10-28T10:15:45Z</time>
      </trkpt>
      <trkpt lat="44.55267" lon="5.52578">
        <ele>673.5</ele>
        <time>2022-10-28T10:15:46Z</time>
      </trkpt>
      <trkpt lat="44.55264" lon="5.52588">
        <ele>673.7</ele>
        <time>2022-10-28T10:15:48Z</time>
      </trkpt>
      <trkpt lat="44.55261" lon="5.52595">
        <ele>673.8</ele>
        <time>2022-10-28T10:15:49Z</time>
      </trkpt>
      <trkpt lat="44.55259" lon="5.52604">
        <ele>673.9</ele>
        <time>2022-10-28T10:15:50Z</time>
      </trkpt>
      <trkpt lat="44.55259" lon="5.52607">
        <ele>673.9</ele>
        <time>2022-10-28T10:15:51Z</time>
      </trkpt>
      <trkpt lat="44.55256" lon="5.52619">
        <ele>674.1</ele>
        <time>2022-10-28T10:15:53Z</time>
      </trkpt>
      <trkpt lat="44.55254" lon="5.52627">
        <ele>674.2</ele>
        <time>2022-10-28T10:15:54Z</time>
      </trkpt>
      <trkpt lat="44.55254" lon="5.52636">
        <ele>674.2</ele>
        <time>2022-10-28T10:15:55Z</time>
      </trkpt>
      <trkpt lat="44.55253" lon="5.52643">
        <ele>674.3</ele>
        <time>2022-10-28T10:15:56Z</time>
      </trkpt>
      <trkpt lat="44.55252" lon="5.5265">
        <ele>674.3</ele>
        <time>2022-10-28T10:15:57Z</time>
      </trkpt>
      <trkpt lat="44.55251" lon="5.52657">
        <ele>674.4</ele>
        <time>2022-10-28T10:15:58Z</time>
      </trkpt>
      <trkpt lat="44.55251" lon="5.52664">
        <ele>674.4</ele>
        <time>2022-10-28T10:15:59Z</time>
      </trkpt>
      <trkpt lat="44.5525" lon="5.5267">
        <ele>674.5</ele>
        <time>2022-10-28T10:16:00Z</time>
      </trkpt>
      <trkpt lat="44.5525" lon="5.52677">
        <ele>674.5</ele>
        <time>2022-10-28T10:16:01Z</time>
      </trkpt>
      <trkpt lat="44.55249" lon="5.52684">
        <ele>674.6</ele>
        <time>2022-10-28T10:16:02Z</time>
      </trkpt>
      <trkpt lat="44.55249" lon="5.52691">
        <ele>674.6</ele>
        <time>2022-10-28T10:16:03Z</time>
      </trkpt>
      <trkpt lat="44.55249" lon="5.52698">
        <ele>674.7</ele>
        <time>2022-10-28T10:16:04Z</time>
      </trkpt>
      <trkpt lat="44.55248" lon="5.52706">
        <ele>674.8</ele>
        <time>2022-10-28T10:16:05Z</time>
      </trkpt>
      <trkpt lat="44.55248" lon="5.52712">
        <ele>674.9</ele>
        <time>2022-10-28T10:16:06Z</time>
      </trkpt>
      <trkpt lat="44.55249" lon="5.52719">
        <ele>674.9</ele>
        <time>2022-10-28T10:16:07Z</time>
      </trkpt>
      <trkpt lat="44.55249" lon="5.52726">
        <ele>675</ele>
        <time>2022-10-28T10:16:08Z</time>
      </trkpt>
      <trkpt lat="44.55249" lon="5.52733">
        <ele>675.1</ele>
        <time>2022-10-28T10:16:09Z</time>
      </trkpt>
      <trkpt lat="44.55249" lon="5.52739">
        <ele>675.1</ele>
        <time>2022-10-28T10:16:10Z</time>
      </trkpt>
      <trkpt lat="44.55249" lon="5.52746">
        <ele>675.2</ele>
        <time>2022-10-28T10:16:11Z</time>
      </trkpt>
      <trkpt lat="44.55249" lon="5.52752">
        <ele>675.2</ele>
        <time>2022-10-28T10:16:12Z</time>
      </trkpt>
      <trkpt lat="44.55249" lon="5.52759">
        <ele>675.3</ele>
        <time>2022-10-28T10:16:13Z</time>
      </trkpt>
      <trkpt lat="44.55249" lon="5.52765">
        <ele>675.3</ele>
        <time>2022-10-28T10:16:14Z</time>
      </trkpt>
      <trkpt lat="44.5525" lon="5.52772">
        <ele>675.4</ele>
        <time>2022-10-28T10:16:15Z</time>
      </trkpt>
      <trkpt lat="44.5525" lon="5.52779">
        <ele>675.4</ele>
        <time>2022-10-28T10:16:16Z</time>
      </trkpt>
      <trkpt lat="44.5525" lon="5.52786">
        <ele>675.5</ele>
        <time>2022-10-28T10:16:17Z</time>
      </trkpt>
      <trkpt lat="44.5525" lon="5.52793">
        <ele>675.5</ele>
        <time>2022-10-28T10:16:18Z</time>
      </trkpt>
      <trkpt lat="44.5525" lon="5.52799">
        <ele>675.5</ele>
        <time>2022-10-28T10:16:19Z</time>
      </trkpt>
      <trkpt lat="44.5525" lon="5.52806">
        <ele>675.6</ele>
        <time>2022-10-28T10:16:20Z</time>
      </trkpt>
      <trkpt lat="44.5525" lon="5.52813">
        <ele>675.6</ele>
        <time>2022-10-28T10:16:21Z</time>
      </trkpt>
      <trkpt lat="44.5525" lon="5.5282">
        <ele>675.7</ele>
        <time>2022-10-28T10:16:22Z</time>
      </trkpt>
      <trkpt lat="44.5525" lon="5.52826">
        <ele>675.7</ele>
        <time>2022-10-28T10:16:23Z</time>
      </trkpt>
      <trkpt lat="44.5525" lon="5.52833">
        <ele>675.7</ele>
        <time>2022-10-28T10:16:24Z</time>
      </trkpt>
      <trkpt lat="44.5525" lon="5.5284">
        <ele>675.8</ele>
        <time>2022-10-28T10:16:25Z</time>
      </trkpt>
      <trkpt lat="44.5525" lon="5.52847">
        <ele>675.8</ele>
        <time>2022-10-28T10:16:26Z</time>
      </trkpt>
      <trkpt lat="44.5525" lon="5.52854">
        <ele>675.9</ele>
        <time>2022-10-28T10:16:27Z</time>
      </trkpt>
      <trkpt lat="44.5525" lon="5.52861">
        <ele>675.9</ele>
        <time>2022-10-28T10:16:28Z</time>
      </trkpt>
      <trkpt lat="44.55249" lon="5.52867">
        <ele>676</ele>
        <time>2022-10-28T10:16:29Z</time>
      </trkpt>
      <trkpt lat="44.55249" lon="5.52874">
        <ele>676.1</ele>
        <time>2022-10-28T10:16:30Z</time>
      </trkpt>
      <trkpt lat="44.5525" lon="5.52881">
        <ele>676.1</ele>
        <time>2022-10-28T10:16:31Z</time>
      </trkpt>
      <trkpt lat="44.5525" lon="5.52888">
        <ele>676.2</ele>
        <time>2022-10-28T10:16:32Z</time>
      </trkpt>
      <trkpt lat="44.5525" lon="5.52895">
        <ele>676.3</ele>
        <time>2022-10-28T10:16:33Z</time>
      </trkpt>
      <trkpt lat="44.5525" lon="5.52902">
        <ele>676.3</ele>
        <time>2022-10-28T10:16:34Z</time>
      </trkpt>
      <trkpt lat="44.55249" lon="5.5291">
        <ele>676.4</ele>
        <time>2022-10-28T10:16:35Z</time>
      </trkpt>
      <trkpt lat="44.55249" lon="5.52917">
        <ele>676.5</ele>
        <time>2022-10-28T10:16:36Z</time>
      </trkpt>
      <trkpt lat="44.55249" lon="5.52924">
        <ele>676.5</ele>
        <time>2022-10-28T10:16:37Z</time>
      </trkpt>
      <trkpt lat="44.55249" lon="5.52931">
        <ele>676.6</ele>
        <time>2022-10-28T10:16:38Z</time>
      </trkpt>
      <trkpt lat="44.5525" lon="5.52938">
        <ele>676.7</ele>
        <time>2022-10-28T10:16:39Z</time>
      </trkpt>
      <trkpt lat="44.55249" lon="5.52945">
        <ele>676.8</ele>
        <time>2022-10-28T10:16:40Z</time>
      </trkpt>
      <trkpt lat="44.55249" lon="5.52951">
        <ele>676.8</ele>
        <time>2022-10-28T10:16:41Z</time>
      </trkpt>
      <trkpt lat="44.55249" lon="5.52958">
        <ele>676.9</ele>
        <time>2022-10-28T10:16:42Z</time>
      </trkpt>
      <trkpt lat="44.55248" lon="5.52965">
        <ele>676.9</ele>
        <time>2022-10-28T10:16:43Z</time>
      </trkpt>
      <trkpt lat="44.55248" lon="5.52972">
        <ele>677</ele>
        <time>2022-10-28T10:16:44Z</time>
      </trkpt>
      <trkpt lat="44.55247" lon="5.52978">
        <ele>677</ele>
        <time>2022-10-28T10:16:45Z</time>
      </trkpt>
      <trkpt lat="44.55247" lon="5.52985">
        <ele>677.1</ele>
        <time>2022-10-28T10:16:46Z</time>
      </trkpt>
      <trkpt lat="44.55246" lon="5.52992">
        <ele>677.1</ele>
        <time>2022-10-28T10:16:47Z</time>
      </trkpt>
      <trkpt lat="44.55245" lon="5.52998">
        <ele>677.1</ele>
        <time>2022-10-28T10:16:48Z</time>
      </trkpt>
      <trkpt lat="44.55245" lon="5.53005">
        <ele>677.2</ele>
        <time>2022-10-28T10:16:49Z</time>
      </trkpt>
      <trkpt lat="44.55244" lon="5.53011">
        <ele>677.2</ele>
        <time>2022-10-28T10:16:50Z</time>
      </trkpt>
      <trkpt lat="44.55243" lon="5.53018">
        <ele>677.3</ele>
        <time>2022-10-28T10:16:51Z</time>
      </trkpt>
      <trkpt lat="44.55241" lon="5.53024">
        <ele>677.3</ele>
        <time>2022-10-28T10:16:52Z</time>
      </trkpt>
      <trkpt lat="44.5524" lon="5.53031">
        <ele>677.4</ele>
        <time>2022-10-28T10:16:53Z</time>
      </trkpt>
      <trkpt lat="44.55239" lon="5.53037">
        <ele>677.4</ele>
        <time>2022-10-28T10:16:54Z</time>
      </trkpt>
      <trkpt lat="44.55237" lon="5.53043">
        <ele>677.5</ele>
        <time>2022-10-28T10:16:55Z</time>
      </trkpt>
      <trkpt lat="44.55236" lon="5.53049">
        <ele>677.5</ele>
        <time>2022-10-28T10:16:56Z</time>
      </trkpt>
      <trkpt lat="44.55235" lon="5.53054">
        <ele>677.6</ele>
        <time>2022-10-28T10:16:57Z</time>
      </trkpt>
      <trkpt lat="44.55235" lon="5.53058">
        <ele>677.6</ele>
        <time>2022-10-28T10:16:58Z</time>
      </trkpt>
      <trkpt lat="44.55235" lon="5.53063">
        <ele>677.6</ele>
        <time>2022-10-28T10:16:59Z</time>
      </trkpt>
      <trkpt lat="44.55234" lon="5.5307">
        <ele>677.7</ele>
        <time>2022-10-28T10:17:00Z</time>
      </trkpt>
      <trkpt lat="44.55233" lon="5.53075">
        <ele>677.7</ele>
        <time>2022-10-28T10:17:01Z</time>
      </trkpt>
      <trkpt lat="44.55232" lon="5.53079">
        <ele>677.7</ele>
        <time>2022-10-28T10:17:02Z</time>
      </trkpt>
      <trkpt lat="44.55231" lon="5.53085">
        <ele>677.8</ele>
        <time>2022-10-28T10:17:03Z</time>
      </trkpt>
      <trkpt lat="44.5523" lon="5.53088">
        <ele>677.8</ele>
        <time>2022-10-28T10:17:04Z</time>
      </trkpt>
      <trkpt lat="44.55228" lon="5.53095">
        <ele>677.8</ele>
        <time>2022-10-28T10:17:06Z</time>
      </trkpt>
      <trkpt lat="44.55226" lon="5.53102">
        <ele>677.9</ele>
        <time>2022-10-28T10:17:07Z</time>
      </trkpt>
      <trkpt lat="44.55225" lon="5.53109">
        <ele>677.9</ele>
        <time>2022-10-28T10:17:08Z</time>
      </trkpt>
      <trkpt lat="44.55224" lon="5.53113">
        <ele>678</ele>
        <time>2022-10-28T10:17:09Z</time>
      </trkpt>
      <trkpt lat="44.55224" lon="5.53114">
        <ele>678</ele>
        <time>2022-10-28T10:17:10Z</time>
      </trkpt>
      <trkpt lat="44.55223" lon="5.53116">
        <ele>678</ele>
        <time>2022-10-28T10:17:11Z</time>
      </trkpt>
      <trkpt lat="44.55222" lon="5.53116">
        <ele>678</ele>
        <time>2022-10-28T10:17:12Z</time>
      </trkpt>
      <trkpt lat="44.55222" lon="5.53116">
        <ele>678</ele>
        <time>2022-10-28T10:17:13Z</time>
      </trkpt>
      <trkpt lat="44.55221" lon="5.53116">
        <ele>678</ele>
        <time>2022-10-28T10:17:14Z</time>
      </trkpt>
      <trkpt lat="44.5522" lon="5.53116">
        <ele>678</ele>
        <time>2022-10-28T10:17:15Z</time>
      </trkpt>
      <trkpt lat="44.5522" lon="5.53116">
        <ele>678</ele>
        <time>2022-10-28T10:17:16Z</time>
      </trkpt>
      <trkpt lat="44.55219" lon="5.53116">
        <ele>678</ele>
        <time>2022-10-28T10:17:17Z</time>
      </trkpt>
      <trkpt lat="44.55219" lon="5.53117">
        <ele>678.1</ele>
        <time>2022-10-28T10:17:18Z</time>
      </trkpt>
      <trkpt lat="44.55218" lon="5.53117">
        <ele>678.1</ele>
        <time>2022-10-28T10:17:19Z</time>
      </trkpt>
      <trkpt lat="44.55217" lon="5.53117">
        <ele>678.1</ele>
        <time>2022-10-28T10:17:20Z</time>
      </trkpt>
      <trkpt lat="44.55217" lon="5.53117">
        <ele>678.1</ele>
        <time>2022-10-28T10:17:21Z</time>
      </trkpt>
      <trkpt lat="44.55216" lon="5.53117">
        <ele>678.1</ele>
        <time>2022-10-28T10:17:22Z</time>
      </trkpt>
      <trkpt lat="44.55216" lon="5.53117">
        <ele>678.1</ele>
        <time>2022-10-28T10:28:42Z</time>
      </trkpt>
      <trkpt lat="44.55215" lon="5.53117">
        <ele>678.1</ele>
        <time>2022-10-28T10:28:43Z</time>
      </trkpt>
      <trkpt lat="44.55212" lon="5.5312">
        <ele>678.1</ele>
        <time>2022-10-28T10:28:44Z</time>
      </trkpt>
      <trkpt lat="44.5521" lon="5.53124">
        <ele>678.2</ele>
        <time>2022-10-28T10:28:45Z</time>
      </trkpt>
      <trkpt lat="44.55207" lon="5.53129">
        <ele>678.2</ele>
        <time>2022-10-28T10:28:47Z</time>
      </trkpt>
      <trkpt lat="44.55204" lon="5.53134">
        <ele>678.3</ele>
        <time>2022-10-28T10:28:48Z</time>
      </trkpt>
      <trkpt lat="44.55202" lon="5.53139">
        <ele>678.3</ele>
        <time>2022-10-28T10:28:49Z</time>
      </trkpt>
      <trkpt lat="44.55201" lon="5.53144">
        <ele>678.4</ele>
        <time>2022-10-28T10:28:50Z</time>
      </trkpt>
      <trkpt lat="44.55198" lon="5.53149">
        <ele>678.4</ele>
        <time>2022-10-28T10:28:51Z</time>
      </trkpt>
      <trkpt lat="44.55197" lon="5.53154">
        <ele>678.5</ele>
        <time>2022-10-28T10:28:52Z</time>
      </trkpt>
      <trkpt lat="44.55196" lon="5.53159">
        <ele>678.5</ele>
        <time>2022-10-28T10:28:53Z</time>
      </trkpt>
      <trkpt lat="44.55194" lon="5.53163">
        <ele>678.6</ele>
        <time>2022-10-28T10:28:54Z</time>
      </trkpt>
      <trkpt lat="44.55192" lon="5.53169">
        <ele>678.6</ele>
        <time>2022-10-28T10:28:55Z</time>
      </trkpt>
      <trkpt lat="44.55191" lon="5.53176">
        <ele>678.7</ele>
        <time>2022-10-28T10:28:57Z</time>
      </trkpt>
      <trkpt lat="44.55189" lon="5.53181">
        <ele>678.8</ele>
        <time>2022-10-28T10:28:58Z</time>
      </trkpt>
      <trkpt lat="44.55187" lon="5.53189">
        <ele>678.8</ele>
        <time>2022-10-28T10:28:59Z</time>
      </trkpt>
      <trkpt lat="44.55186" lon="5.53195">
        <ele>678.9</ele>
        <time>2022-10-28T10:29:00Z</time>
      </trkpt>
      <trkpt lat="44.55183" lon="5.53201">
        <ele>678.9</ele>
        <time>2022-10-28T10:29:02Z</time>
      </trkpt>
      <trkpt lat="44.55181" lon="5.53207">
        <ele>679</ele>
        <time>2022-10-28T10:29:03Z</time>
      </trkpt>
      <trkpt lat="44.5518" lon="5.53213">
        <ele>679</ele>
        <time>2022-10-28T10:29:04Z</time>
      </trkpt>
      <trkpt lat="44.5518" lon="5.5322">
        <ele>679.1</ele>
        <time>2022-10-28T10:29:05Z</time>
      </trkpt>
      <trkpt lat="44.55179" lon="5.53228">
        <ele>679.2</ele>
        <time>2022-10-28T10:29:06Z</time>
      </trkpt>
      <trkpt lat="44.55178" lon="5.53234">
        <ele>679.2</ele>
        <time>2022-10-28T10:29:08Z</time>
      </trkpt>
      <trkpt lat="44.55176" lon="5.53241">
        <ele>679.2</ele>
        <time>2022-10-28T10:29:09Z</time>
      </trkpt>
      <trkpt lat="44.55174" lon="5.53247">
        <ele>679.3</ele>
        <time>2022-10-28T10:29:10Z</time>
      </trkpt>
      <trkpt lat="44.55172" lon="5.53252">
        <ele>679.3</ele>
        <time>2022-10-28T10:29:11Z</time>
      </trkpt>
      <trkpt lat="44.5517" lon="5.53258">
        <ele>679.4</ele>
        <time>2022-10-28T10:29:12Z</time>
      </trkpt>
      <trkpt lat="44.55168" lon="5.53263">
        <ele>679.5</ele>
        <time>2022-10-28T10:29:13Z</time>
      </trkpt>
      <trkpt lat="44.55166" lon="5.5327">
        <ele>679.5</ele>
        <time>2022-10-28T10:29:15Z</time>
      </trkpt>
      <trkpt lat="44.55163" lon="5.53276">
        <ele>679.6</ele>
        <time>2022-10-28T10:29:16Z</time>
      </trkpt>
      <trkpt lat="44.55161" lon="5.53282">
        <ele>679.7</ele>
        <time>2022-10-28T10:29:17Z</time>
      </trkpt>
      <trkpt lat="44.55159" lon="5.53288">
        <ele>679.8</ele>
        <time>2022-10-28T10:29:18Z</time>
      </trkpt>
      <trkpt lat="44.55156" lon="5.53293">
        <ele>679.8</ele>
        <time>2022-10-28T10:29:19Z</time>
      </trkpt>
      <trkpt lat="44.55154" lon="5.53299">
        <ele>679.9</ele>
        <time>2022-10-28T10:29:21Z</time>
      </trkpt>
      <trkpt lat="44.55152" lon="5.53305">
        <ele>679.9</ele>
        <time>2022-10-28T10:29:22Z</time>
      </trkpt>
      <trkpt lat="44.55149" lon="5.53312">
        <ele>680</ele>
        <time>2022-10-28T10:29:23Z</time>
      </trkpt>
      <trkpt lat="44.55147" lon="5.53317">
        <ele>680.1</ele>
        <time>2022-10-28T10:29:24Z</time>
      </trkpt>
      <trkpt lat="44.55145" lon="5.53322">
        <ele>680.1</ele>
        <time>2022-10-28T10:29:25Z</time>
      </trkpt>
      <trkpt lat="44.55142" lon="5.53328">
        <ele>680.2</ele>
        <time>2022-10-28T10:29:27Z</time>
      </trkpt>
      <trkpt lat="44.5514" lon="5.53334">
        <ele>680.2</ele>
        <time>2022-10-28T10:29:28Z</time>
      </trkpt>
      <trkpt lat="44.55137" lon="5.5334">
        <ele>680.3</ele>
        <time>2022-10-28T10:29:29Z</time>
      </trkpt>
      <trkpt lat="44.55134" lon="5.53345">
        <ele>680.3</ele>
        <time>2022-10-28T10:29:30Z</time>
      </trkpt>
      <trkpt lat="44.55132" lon="5.5335">
        <ele>680.4</ele>
        <time>2022-10-28T10:29:31Z</time>
      </trkpt>
      <trkpt lat="44.55128" lon="5.53356">
        <ele>680.4</ele>
        <time>2022-10-28T10:29:33Z</time>
      </trkpt>
      <trkpt lat="44.55124" lon="5.53365">
        <ele>680.5</ele>
        <time>2022-10-28T10:29:34Z</time>
      </trkpt>
      <trkpt lat="44.55121" lon="5.53371">
        <ele>680.5</ele>
        <time>2022-10-28T10:29:36Z</time>
      </trkpt>
      <trkpt lat="44.55117" lon="5.5338">
        <ele>680.6</ele>
        <time>2022-10-28T10:29:37Z</time>
      </trkpt>
      <trkpt lat="44.55114" lon="5.53385">
        <ele>680.6</ele>
        <time>2022-10-28T10:29:39Z</time>
      </trkpt>
      <trkpt lat="44.5511" lon="5.53391">
        <ele>680.7</ele>
        <time>2022-10-28T10:29:40Z</time>
      </trkpt>
      <trkpt lat="44.55107" lon="5.53397">
        <ele>680.7</ele>
        <time>2022-10-28T10:29:41Z</time>
      </trkpt>
      <trkpt lat="44.55104" lon="5.53402">
        <ele>680.7</ele>
        <time>2022-10-28T10:29:42Z</time>
      </trkpt>
      <trkpt lat="44.55101" lon="5.53407">
        <ele>680.8</ele>
        <time>2022-10-28T10:29:43Z</time>
      </trkpt>
      <trkpt lat="44.55098" lon="5.53412">
        <ele>680.8</ele>
        <time>2022-10-28T10:29:45Z</time>
      </trkpt>
      <trkpt lat="44.55094" lon="5.53418">
        <ele>680.8</ele>
        <time>2022-10-28T10:29:46Z</time>
      </trkpt>
      <trkpt lat="44.55091" lon="5.53423">
        <ele>680.9</ele>
        <time>2022-10-28T10:29:47Z</time>
      </trkpt>
      <trkpt lat="44.55089" lon="5.53426">
        <ele>680.9</ele>
        <time>2022-10-28T10:29:48Z</time>
      </trkpt>
      <trkpt lat="44.55085" lon="5.53433">
        <ele>680.9</ele>
        <time>2022-10-28T10:29:49Z</time>
      </trkpt>
      <trkpt lat="44.55082" lon="5.53438">
        <ele>681</ele>
        <time>2022-10-28T10:29:51Z</time>
      </trkpt>
      <trkpt lat="44.55078" lon="5.53444">
        <ele>681</ele>
        <time>2022-10-28T10:29:52Z</time>
      </trkpt>
      <trkpt lat="44.55073" lon="5.53451">
        <ele>681.1</ele>
        <time>2022-10-28T10:29:53Z</time>
      </trkpt>
      <trkpt lat="44.55071" lon="5.53455">
        <ele>681.1</ele>
        <time>2022-10-28T10:29:54Z</time>
      </trkpt>
      <trkpt lat="44.55067" lon="5.5346">
        <ele>681.2</ele>
        <time>2022-10-28T10:29:56Z</time>
      </trkpt>
      <trkpt lat="44.55064" lon="5.53465">
        <ele>681.3</ele>
        <time>2022-10-28T10:29:57Z</time>
      </trkpt>
      <trkpt lat="44.55061" lon="5.53469">
        <ele>681.3</ele>
        <time>2022-10-28T10:29:58Z</time>
      </trkpt>
      <trkpt lat="44.55057" lon="5.53474">
        <ele>681.4</ele>
        <time>2022-10-28T10:29:59Z</time>
      </trkpt>
      <trkpt lat="44.55054" lon="5.53479">
        <ele>681.4</ele>
        <time>2022-10-28T10:30:00Z</time>
      </trkpt>
      <trkpt lat="44.55051" lon="5.53483">
        <ele>681.4</ele>
        <time>2022-10-28T10:30:01Z</time>
      </trkpt>
      <trkpt lat="44.55049" lon="5.53486">
        <ele>681.5</ele>
        <time>2022-10-28T10:30:02Z</time>
      </trkpt>
      <trkpt lat="44.55044" lon="5.53493">
        <ele>681.5</ele>
        <time>2022-10-28T10:30:04Z</time>
      </trkpt>
      <trkpt lat="44.55041" lon="5.53498">
        <ele>681.6</ele>
        <time>2022-10-28T10:30:05Z</time>
      </trkpt>
      <trkpt lat="44.55038" lon="5.53503">
        <ele>681.6</ele>
        <time>2022-10-28T10:30:06Z</time>
      </trkpt>
      <trkpt lat="44.55035" lon="5.53508">
        <ele>681.6</ele>
        <time>2022-10-28T10:30:07Z</time>
      </trkpt>
      <trkpt lat="44.55031" lon="5.53511">
        <ele>681.7</ele>
        <time>2022-10-28T10:30:08Z</time>
      </trkpt>
      <trkpt lat="44.55027" lon="5.53518">
        <ele>681.7</ele>
        <time>2022-10-28T10:30:10Z</time>
      </trkpt>
      <trkpt lat="44.55024" lon="5.53523">
        <ele>681.8</ele>
        <time>2022-10-28T10:30:11Z</time>
      </trkpt>
      <trkpt lat="44.55021" lon="5.53529">
        <ele>681.8</ele>
        <time>2022-10-28T10:30:12Z</time>
      </trkpt>
      <trkpt lat="44.55018" lon="5.53534">
        <ele>681.9</ele>
        <time>2022-10-28T10:30:13Z</time>
      </trkpt>
      <trkpt lat="44.55014" lon="5.53539">
        <ele>682</ele>
        <time>2022-10-28T10:30:14Z</time>
      </trkpt>
      <trkpt lat="44.55012" lon="5.53542">
        <ele>682.1</ele>
        <time>2022-10-28T10:30:15Z</time>
      </trkpt>
      <trkpt lat="44.55009" lon="5.53547">
        <ele>682.2</ele>
        <time>2022-10-28T10:30:16Z</time>
      </trkpt>
      <trkpt lat="44.55006" lon="5.53552">
        <ele>682.3</ele>
        <time>2022-10-28T10:30:17Z</time>
      </trkpt>
      <trkpt lat="44.55002" lon="5.53557">
        <ele>682.4</ele>
        <time>2022-10-28T10:30:18Z</time>
      </trkpt>
      <trkpt lat="44.55" lon="5.5356">
        <ele>682.5</ele>
        <time>2022-10-28T10:30:19Z</time>
      </trkpt>
      <trkpt lat="44.54998" lon="5.53563">
        <ele>682.5</ele>
        <time>2022-10-28T10:30:20Z</time>
      </trkpt>
      <trkpt lat="44.54993" lon="5.53569">
        <ele>682.6</ele>
        <time>2022-10-28T10:30:22Z</time>
      </trkpt>
      <trkpt lat="44.5499" lon="5.53574">
        <ele>682.7</ele>
        <time>2022-10-28T10:30:23Z</time>
      </trkpt>
      <trkpt lat="44.54987" lon="5.53579">
        <ele>682.8</ele>
        <time>2022-10-28T10:30:24Z</time>
      </trkpt>
      <trkpt lat="44.54984" lon="5.53583">
        <ele>682.9</ele>
        <time>2022-10-28T10:30:25Z</time>
      </trkpt>
      <trkpt lat="44.5498" lon="5.53589">
        <ele>683</ele>
        <time>2022-10-28T10:30:27Z</time>
      </trkpt>
      <trkpt lat="44.54976" lon="5.53593">
        <ele>683.1</ele>
        <time>2022-10-28T10:30:28Z</time>
      </trkpt>
      <trkpt lat="44.54973" lon="5.53597">
        <ele>683.2</ele>
        <time>2022-10-28T10:30:29Z</time>
      </trkpt>
      <trkpt lat="44.5497" lon="5.53601">
        <ele>683.3</ele>
        <time>2022-10-28T10:30:30Z</time>
      </trkpt>
      <trkpt lat="44.54967" lon="5.53606">
        <ele>683.4</ele>
        <time>2022-10-28T10:30:31Z</time>
      </trkpt>
      <trkpt lat="44.54965" lon="5.53609">
        <ele>683.5</ele>
        <time>2022-10-28T10:30:32Z</time>
      </trkpt>
      <trkpt lat="44.54961" lon="5.53614">
        <ele>683.6</ele>
        <time>2022-10-28T10:30:34Z</time>
      </trkpt>
      <trkpt lat="44.54958" lon="5.53618">
        <ele>683.7</ele>
        <time>2022-10-28T10:30:35Z</time>
      </trkpt>
      <trkpt lat="44.54955" lon="5.53624">
        <ele>683.8</ele>
        <time>2022-10-28T10:30:36Z</time>
      </trkpt>
      <trkpt lat="44.54953" lon="5.53629">
        <ele>683.9</ele>
        <time>2022-10-28T10:30:37Z</time>
      </trkpt>
      <trkpt lat="44.5495" lon="5.53634">
        <ele>684</ele>
        <time>2022-10-28T10:30:38Z</time>
      </trkpt>
      <trkpt lat="44.54948" lon="5.5364">
        <ele>684.2</ele>
        <time>2022-10-28T10:30:40Z</time>
      </trkpt>
      <trkpt lat="44.54943" lon="5.53647">
        <ele>684.4</ele>
        <time>2022-10-28T10:30:41Z</time>
      </trkpt>
      <trkpt lat="44.54939" lon="5.5365">
        <ele>684.5</ele>
        <time>2022-10-28T10:30:43Z</time>
      </trkpt>
      <trkpt lat="44.54935" lon="5.53654">
        <ele>684.9</ele>
        <time>2022-10-28T10:30:44Z</time>
      </trkpt>
      <trkpt lat="44.54932" lon="5.53658">
        <ele>685</ele>
        <time>2022-10-28T10:30:45Z</time>
      </trkpt>
      <trkpt lat="44.54929" lon="5.53663">
        <ele>685</ele>
        <time>2022-10-28T10:30:46Z</time>
      </trkpt>
      <trkpt lat="44.54927" lon="5.53667">
        <ele>685</ele>
        <time>2022-10-28T10:30:47Z</time>
      </trkpt>
      <trkpt lat="44.54925" lon="5.53671">
        <ele>685.1</ele>
        <time>2022-10-28T10:30:48Z</time>
      </trkpt>
      <trkpt lat="44.54924" lon="5.53678">
        <ele>685.1</ele>
        <time>2022-10-28T10:30:49Z</time>
      </trkpt>
      <trkpt lat="44.54924" lon="5.53685">
        <ele>685.2</ele>
        <time>2022-10-28T10:30:51Z</time>
      </trkpt>
      <trkpt lat="44.54922" lon="5.53694">
        <ele>685.2</ele>
        <time>2022-10-28T10:30:52Z</time>
      </trkpt>
      <trkpt lat="44.54922" lon="5.537">
        <ele>685.2</ele>
        <time>2022-10-28T10:30:53Z</time>
      </trkpt>
      <trkpt lat="44.54921" lon="5.53706">
        <ele>685.3</ele>
        <time>2022-10-28T10:30:55Z</time>
      </trkpt>
      <trkpt lat="44.54921" lon="5.53713">
        <ele>685.3</ele>
        <time>2022-10-28T10:30:56Z</time>
      </trkpt>
      <trkpt lat="44.54919" lon="5.53719">
        <ele>685.4</ele>
        <time>2022-10-28T10:30:57Z</time>
      </trkpt>
      <trkpt lat="44.54918" lon="5.53727">
        <ele>685.5</ele>
        <time>2022-10-28T10:30:59Z</time>
      </trkpt>
      <trkpt lat="44.54916" lon="5.53733">
        <ele>685.5</ele>
        <time>2022-10-28T10:31:00Z</time>
      </trkpt>
      <trkpt lat="44.54915" lon="5.53739">
        <ele>685.5</ele>
        <time>2022-10-28T10:31:01Z</time>
      </trkpt>
      <trkpt lat="44.54913" lon="5.53744">
        <ele>685.6</ele>
        <time>2022-10-28T10:31:02Z</time>
      </trkpt>
      <trkpt lat="44.54912" lon="5.53749">
        <ele>685.6</ele>
        <time>2022-10-28T10:31:03Z</time>
      </trkpt>
      <trkpt lat="44.5491" lon="5.53756">
        <ele>685.6</ele>
        <time>2022-10-28T10:31:05Z</time>
      </trkpt>
      <trkpt lat="44.54908" lon="5.53763">
        <ele>685.7</ele>
        <time>2022-10-28T10:31:06Z</time>
      </trkpt>
      <trkpt lat="44.54906" lon="5.5377">
        <ele>685.6</ele>
        <time>2022-10-28T10:31:07Z</time>
      </trkpt>
      <trkpt lat="44.54904" lon="5.53777">
        <ele>685.6</ele>
        <time>2022-10-28T10:31:09Z</time>
      </trkpt>
      <trkpt lat="44.54903" lon="5.53784">
        <ele>685.5</ele>
        <time>2022-10-28T10:31:10Z</time>
      </trkpt>
      <trkpt lat="44.54901" lon="5.53791">
        <ele>685.5</ele>
        <time>2022-10-28T10:31:11Z</time>
      </trkpt>
      <trkpt lat="44.54899" lon="5.53797">
        <ele>685.6</ele>
        <time>2022-10-28T10:31:12Z</time>
      </trkpt>
      <trkpt lat="44.54897" lon="5.53804">
        <ele>685.6</ele>
        <time>2022-10-28T10:31:13Z</time>
      </trkpt>
      <trkpt lat="44.54895" lon="5.53813">
        <ele>685.7</ele>
        <time>2022-10-28T10:31:15Z</time>
      </trkpt>
      <trkpt lat="44.54892" lon="5.5382">
        <ele>685.8</ele>
        <time>2022-10-28T10:31:16Z</time>
      </trkpt>
      <trkpt lat="44.5489" lon="5.53827">
        <ele>685.9</ele>
        <time>2022-10-28T10:31:17Z</time>
      </trkpt>
      <trkpt lat="44.54889" lon="5.53834">
        <ele>686</ele>
        <time>2022-10-28T10:31:19Z</time>
      </trkpt>
      <trkpt lat="44.54887" lon="5.53842">
        <ele>686.1</ele>
        <time>2022-10-28T10:31:20Z</time>
      </trkpt>
      <trkpt lat="44.54885" lon="5.53848">
        <ele>686.2</ele>
        <time>2022-10-28T10:31:21Z</time>
      </trkpt>
      <trkpt lat="44.54884" lon="5.53853">
        <ele>686.3</ele>
        <time>2022-10-28T10:31:22Z</time>
      </trkpt>
      <trkpt lat="44.54883" lon="5.53859">
        <ele>686.4</ele>
        <time>2022-10-28T10:31:23Z</time>
      </trkpt>
      <trkpt lat="44.54882" lon="5.53864">
        <ele>686.4</ele>
        <time>2022-10-28T10:31:24Z</time>
      </trkpt>
      <trkpt lat="44.54879" lon="5.53873">
        <ele>686.6</ele>
        <time>2022-10-28T10:31:26Z</time>
      </trkpt>
      <trkpt lat="44.54878" lon="5.5388">
        <ele>686.7</ele>
        <time>2022-10-28T10:31:27Z</time>
      </trkpt>
      <trkpt lat="44.54876" lon="5.53885">
        <ele>686.8</ele>
        <time>2022-10-28T10:31:28Z</time>
      </trkpt>
      <trkpt lat="44.54875" lon="5.53891">
        <ele>686.9</ele>
        <time>2022-10-28T10:31:29Z</time>
      </trkpt>
      <trkpt lat="44.54873" lon="5.53896">
        <ele>687</ele>
        <time>2022-10-28T10:31:30Z</time>
      </trkpt>
      <trkpt lat="44.54871" lon="5.53902">
        <ele>687.2</ele>
        <time>2022-10-28T10:31:31Z</time>
      </trkpt>
      <trkpt lat="44.54869" lon="5.53906">
        <ele>687.3</ele>
        <time>2022-10-28T10:31:32Z</time>
      </trkpt>
      <trkpt lat="44.54867" lon="5.53911">
        <ele>687.4</ele>
        <time>2022-10-28T10:31:34Z</time>
      </trkpt>
      <trkpt lat="44.54863" lon="5.53918">
        <ele>687.6</ele>
        <time>2022-10-28T10:31:35Z</time>
      </trkpt>
      <trkpt lat="44.54861" lon="5.53922">
        <ele>687.8</ele>
        <time>2022-10-28T10:31:36Z</time>
      </trkpt>
      <trkpt lat="44.54859" lon="5.53927">
        <ele>687.9</ele>
        <time>2022-10-28T10:31:38Z</time>
      </trkpt>
      <trkpt lat="44.54856" lon="5.53931">
        <ele>688.1</ele>
        <time>2022-10-28T10:31:39Z</time>
      </trkpt>
      <trkpt lat="44.54854" lon="5.53935">
        <ele>688.2</ele>
        <time>2022-10-28T10:31:40Z</time>
      </trkpt>
      <trkpt lat="44.54851" lon="5.53939">
        <ele>688.3</ele>
        <time>2022-10-28T10:31:41Z</time>
      </trkpt>
      <trkpt lat="44.54849" lon="5.53942">
        <ele>688.5</ele>
        <time>2022-10-28T10:31:42Z</time>
      </trkpt>
      <trkpt lat="44.54845" lon="5.53946">
        <ele>688.6</ele>
        <time>2022-10-28T10:31:44Z</time>
      </trkpt>
      <trkpt lat="44.54842" lon="5.53952">
        <ele>688.8</ele>
        <time>2022-10-28T10:31:45Z</time>
      </trkpt>
      <trkpt lat="44.54839" lon="5.53956">
        <ele>688.9</ele>
        <time>2022-10-28T10:31:46Z</time>
      </trkpt>
      <trkpt lat="44.54837" lon="5.5396">
        <ele>689.1</ele>
        <time>2022-10-28T10:31:47Z</time>
      </trkpt>
      <trkpt lat="44.54835" lon="5.53962">
        <ele>689.1</ele>
        <time>2022-10-28T10:31:48Z</time>
      </trkpt>
      <trkpt lat="44.54833" lon="5.53967">
        <ele>689.3</ele>
        <time>2022-10-28T10:31:49Z</time>
      </trkpt>
      <trkpt lat="44.54831" lon="5.5397">
        <ele>689.4</ele>
        <time>2022-10-28T10:31:50Z</time>
      </trkpt>
      <trkpt lat="44.54829" lon="5.53974">
        <ele>689.6</ele>
        <time>2022-10-28T10:31:51Z</time>
      </trkpt>
      <trkpt lat="44.54827" lon="5.53979">
        <ele>689.7</ele>
        <time>2022-10-28T10:31:53Z</time>
      </trkpt>
      <trkpt lat="44.54824" lon="5.53983">
        <ele>689.9</ele>
        <time>2022-10-28T10:31:54Z</time>
      </trkpt>
      <trkpt lat="44.54822" lon="5.53987">
        <ele>690</ele>
        <time>2022-10-28T10:31:55Z</time>
      </trkpt>
      <trkpt lat="44.5482" lon="5.53991">
        <ele>690.2</ele>
        <time>2022-10-28T10:31:56Z</time>
      </trkpt>
      <trkpt lat="44.54818" lon="5.53994">
        <ele>690.3</ele>
        <time>2022-10-28T10:31:57Z</time>
      </trkpt>
      <trkpt lat="44.54815" lon="5.53999">
        <ele>690.4</ele>
        <time>2022-10-28T10:31:59Z</time>
      </trkpt>
      <trkpt lat="44.54813" lon="5.54003">
        <ele>690.6</ele>
        <time>2022-10-28T10:32:00Z</time>
      </trkpt>
      <trkpt lat="44.54809" lon="5.54008">
        <ele>690.7</ele>
        <time>2022-10-28T10:32:01Z</time>
      </trkpt>
      <trkpt lat="44.54807" lon="5.54012">
        <ele>690.9</ele>
        <time>2022-10-28T10:32:03Z</time>
      </trkpt>
      <trkpt lat="44.54805" lon="5.54016">
        <ele>691</ele>
        <time>2022-10-28T10:32:04Z</time>
      </trkpt>
      <trkpt lat="44.54802" lon="5.54021">
        <ele>691.1</ele>
        <time>2022-10-28T10:32:05Z</time>
      </trkpt>
      <trkpt lat="44.548" lon="5.54025">
        <ele>691.2</ele>
        <time>2022-10-28T10:32:06Z</time>
      </trkpt>
      <trkpt lat="44.54798" lon="5.5403">
        <ele>691.4</ele>
        <time>2022-10-28T10:32:07Z</time>
      </trkpt>
      <trkpt lat="44.54796" lon="5.54033">
        <ele>691.5</ele>
        <time>2022-10-28T10:32:08Z</time>
      </trkpt>
      <trkpt lat="44.54793" lon="5.54038">
        <ele>691.6</ele>
        <time>2022-10-28T10:32:10Z</time>
      </trkpt>
      <trkpt lat="44.5479" lon="5.54045">
        <ele>691.8</ele>
        <time>2022-10-28T10:32:11Z</time>
      </trkpt>
      <trkpt lat="44.54787" lon="5.54049">
        <ele>691.9</ele>
        <time>2022-10-28T10:32:13Z</time>
      </trkpt>
      <trkpt lat="44.54784" lon="5.54053">
        <ele>692</ele>
        <time>2022-10-28T10:32:14Z</time>
      </trkpt>
      <trkpt lat="44.54782" lon="5.54057">
        <ele>692.1</ele>
        <time>2022-10-28T10:32:15Z</time>
      </trkpt>
      <trkpt lat="44.54779" lon="5.54063">
        <ele>692.3</ele>
        <time>2022-10-28T10:32:16Z</time>
      </trkpt>
      <trkpt lat="44.54777" lon="5.54066">
        <ele>692.4</ele>
        <time>2022-10-28T10:32:17Z</time>
      </trkpt>
      <trkpt lat="44.54774" lon="5.54069">
        <ele>692.5</ele>
        <time>2022-10-28T10:32:18Z</time>
      </trkpt>
      <trkpt lat="44.54772" lon="5.54073">
        <ele>692.6</ele>
        <time>2022-10-28T10:32:19Z</time>
      </trkpt>
      <trkpt lat="44.5477" lon="5.54076">
        <ele>692.7</ele>
        <time>2022-10-28T10:32:20Z</time>
      </trkpt>
      <trkpt lat="44.54767" lon="5.5408">
        <ele>692.8</ele>
        <time>2022-10-28T10:32:21Z</time>
      </trkpt>
      <trkpt lat="44.54764" lon="5.54085">
        <ele>692.9</ele>
        <time>2022-10-28T10:32:23Z</time>
      </trkpt>
      <trkpt lat="44.54761" lon="5.5409">
        <ele>693.1</ele>
        <time>2022-10-28T10:32:24Z</time>
      </trkpt>
      <trkpt lat="44.54758" lon="5.54093">
        <ele>693.2</ele>
        <time>2022-10-28T10:32:25Z</time>
      </trkpt>
      <trkpt lat="44.54756" lon="5.54097">
        <ele>693.3</ele>
        <time>2022-10-28T10:32:26Z</time>
      </trkpt>
      <trkpt lat="44.54751" lon="5.54104">
        <ele>693.5</ele>
        <time>2022-10-28T10:32:28Z</time>
      </trkpt>
      <trkpt lat="44.54749" lon="5.54107">
        <ele>693.5</ele>
        <time>2022-10-28T10:32:29Z</time>
      </trkpt>
      <trkpt lat="44.54747" lon="5.54111">
        <ele>693.6</ele>
        <time>2022-10-28T10:32:30Z</time>
      </trkpt>
      <trkpt lat="44.54745" lon="5.54113">
        <ele>693.7</ele>
        <time>2022-10-28T10:32:31Z</time>
      </trkpt>
      <trkpt lat="44.54743" lon="5.54118">
        <ele>693.8</ele>
        <time>2022-10-28T10:32:32Z</time>
      </trkpt>
      <trkpt lat="44.5474" lon="5.54121">
        <ele>693.9</ele>
        <time>2022-10-28T10:32:34Z</time>
      </trkpt>
      <trkpt lat="44.54737" lon="5.54127">
        <ele>694</ele>
        <time>2022-10-28T10:32:35Z</time>
      </trkpt>
      <trkpt lat="44.54734" lon="5.54131">
        <ele>694.1</ele>
        <time>2022-10-28T10:32:36Z</time>
      </trkpt>
      <trkpt lat="44.54732" lon="5.54134">
        <ele>694.2</ele>
        <time>2022-10-28T10:32:37Z</time>
      </trkpt>
      <trkpt lat="44.54729" lon="5.54139">
        <ele>694.4</ele>
        <time>2022-10-28T10:32:38Z</time>
      </trkpt>
      <trkpt lat="44.54728" lon="5.54142">
        <ele>694.4</ele>
        <time>2022-10-28T10:32:39Z</time>
      </trkpt>
      <trkpt lat="44.54726" lon="5.54145">
        <ele>694.5</ele>
        <time>2022-10-28T10:32:40Z</time>
      </trkpt>
      <trkpt lat="44.54723" lon="5.54148">
        <ele>694.6</ele>
        <time>2022-10-28T10:32:41Z</time>
      </trkpt>
      <trkpt lat="44.5472" lon="5.54152">
        <ele>694.8</ele>
        <time>2022-10-28T10:32:42Z</time>
      </trkpt>
      <trkpt lat="44.54718" lon="5.54156">
        <ele>694.9</ele>
        <time>2022-10-28T10:32:44Z</time>
      </trkpt>
      <trkpt lat="44.54715" lon="5.5416">
        <ele>695</ele>
        <time>2022-10-28T10:32:45Z</time>
      </trkpt>
      <trkpt lat="44.54712" lon="5.54165">
        <ele>695.2</ele>
        <time>2022-10-28T10:32:46Z</time>
      </trkpt>
      <trkpt lat="44.54709" lon="5.54169">
        <ele>695.3</ele>
        <time>2022-10-28T10:32:48Z</time>
      </trkpt>
      <trkpt lat="44.54707" lon="5.54174">
        <ele>695.5</ele>
        <time>2022-10-28T10:32:49Z</time>
      </trkpt>
      <trkpt lat="44.54704" lon="5.54177">
        <ele>695.6</ele>
        <time>2022-10-28T10:32:50Z</time>
      </trkpt>
      <trkpt lat="44.54701" lon="5.54181">
        <ele>695.8</ele>
        <time>2022-10-28T10:32:52Z</time>
      </trkpt>
      <trkpt lat="44.54699" lon="5.54186">
        <ele>695.9</ele>
        <time>2022-10-28T10:32:53Z</time>
      </trkpt>
      <trkpt lat="44.54697" lon="5.54189">
        <ele>696</ele>
        <time>2022-10-28T10:32:54Z</time>
      </trkpt>
      <trkpt lat="44.54694" lon="5.54192">
        <ele>696.1</ele>
        <time>2022-10-28T10:32:55Z</time>
      </trkpt>
      <trkpt lat="44.54693" lon="5.54196">
        <ele>696.3</ele>
        <time>2022-10-28T10:32:56Z</time>
      </trkpt>
      <trkpt lat="44.54691" lon="5.54199">
        <ele>696.3</ele>
        <time>2022-10-28T10:32:57Z</time>
      </trkpt>
      <trkpt lat="44.54689" lon="5.54203">
        <ele>696.5</ele>
        <time>2022-10-28T10:32:59Z</time>
      </trkpt>
      <trkpt lat="44.54686" lon="5.54208">
        <ele>696.6</ele>
        <time>2022-10-28T10:33:00Z</time>
      </trkpt>
      <trkpt lat="44.54683" lon="5.54211">
        <ele>696.7</ele>
        <time>2022-10-28T10:33:01Z</time>
      </trkpt>
      <trkpt lat="44.54681" lon="5.54215">
        <ele>696.8</ele>
        <time>2022-10-28T10:33:02Z</time>
      </trkpt>
      <trkpt lat="44.54678" lon="5.54219">
        <ele>696.9</ele>
        <time>2022-10-28T10:33:04Z</time>
      </trkpt>
      <trkpt lat="44.54676" lon="5.54223">
        <ele>697</ele>
        <time>2022-10-28T10:33:05Z</time>
      </trkpt>
      <trkpt lat="44.54672" lon="5.54228">
        <ele>697.2</ele>
        <time>2022-10-28T10:33:07Z</time>
      </trkpt>
      <trkpt lat="44.54669" lon="5.5423">
        <ele>697.3</ele>
        <time>2022-10-28T10:33:08Z</time>
      </trkpt>
      <trkpt lat="44.54666" lon="5.54234">
        <ele>697.4</ele>
        <time>2022-10-28T10:33:09Z</time>
      </trkpt>
      <trkpt lat="44.54663" lon="5.54237">
        <ele>697.5</ele>
        <time>2022-10-28T10:33:10Z</time>
      </trkpt>
      <trkpt lat="44.54661" lon="5.54241">
        <ele>697.6</ele>
        <time>2022-10-28T10:33:11Z</time>
      </trkpt>
      <trkpt lat="44.54658" lon="5.54244">
        <ele>697.7</ele>
        <time>2022-10-28T10:33:12Z</time>
      </trkpt>
      <trkpt lat="44.54654" lon="5.54248">
        <ele>697.8</ele>
        <time>2022-10-28T10:33:14Z</time>
      </trkpt>
      <trkpt lat="44.54651" lon="5.54251">
        <ele>697.9</ele>
        <time>2022-10-28T10:33:15Z</time>
      </trkpt>
      <trkpt lat="44.54648" lon="5.54255">
        <ele>697.9</ele>
        <time>2022-10-28T10:33:16Z</time>
      </trkpt>
      <trkpt lat="44.54645" lon="5.54257">
        <ele>698</ele>
        <time>2022-10-28T10:33:17Z</time>
      </trkpt>
      <trkpt lat="44.54641" lon="5.54261">
        <ele>698.1</ele>
        <time>2022-10-28T10:33:18Z</time>
      </trkpt>
      <trkpt lat="44.54639" lon="5.54263">
        <ele>698.2</ele>
        <time>2022-10-28T10:33:19Z</time>
      </trkpt>
      <trkpt lat="44.54635" lon="5.54268">
        <ele>698.3</ele>
        <time>2022-10-28T10:33:21Z</time>
      </trkpt>
      <trkpt lat="44.54632" lon="5.5427">
        <ele>698.4</ele>
        <time>2022-10-28T10:33:22Z</time>
      </trkpt>
      <trkpt lat="44.54629" lon="5.54273">
        <ele>698.5</ele>
        <time>2022-10-28T10:33:23Z</time>
      </trkpt>
      <trkpt lat="44.54625" lon="5.54275">
        <ele>698.6</ele>
        <time>2022-10-28T10:33:24Z</time>
      </trkpt>
      <trkpt lat="44.54622" lon="5.54277">
        <ele>698.6</ele>
        <time>2022-10-28T10:33:26Z</time>
      </trkpt>
      <trkpt lat="44.54618" lon="5.54279">
        <ele>698.7</ele>
        <time>2022-10-28T10:33:27Z</time>
      </trkpt>
      <trkpt lat="44.54614" lon="5.54281">
        <ele>698.8</ele>
        <time>2022-10-28T10:33:28Z</time>
      </trkpt>
      <trkpt lat="44.5461" lon="5.54282">
        <ele>698.9</ele>
        <time>2022-10-28T10:33:29Z</time>
      </trkpt>
      <trkpt lat="44.54606" lon="5.54283">
        <ele>698.9</ele>
        <time>2022-10-28T10:33:30Z</time>
      </trkpt>
      <trkpt lat="44.54602" lon="5.54283">
        <ele>699</ele>
        <time>2022-10-28T10:33:31Z</time>
      </trkpt>
      <trkpt lat="44.54598" lon="5.54284">
        <ele>699</ele>
        <time>2022-10-28T10:33:33Z</time>
      </trkpt>
      <trkpt lat="44.54588" lon="5.54287">
        <ele>699.1</ele>
        <time>2022-10-28T10:33:35Z</time>
      </trkpt>
      <trkpt lat="44.54585" lon="5.54287">
        <ele>699.1</ele>
        <time>2022-10-28T10:33:36Z</time>
      </trkpt>
      <trkpt lat="44.54581" lon="5.54288">
        <ele>699.1</ele>
        <time>2022-10-28T10:33:37Z</time>
      </trkpt>
      <trkpt lat="44.54576" lon="5.5429">
        <ele>699.2</ele>
        <time>2022-10-28T10:33:38Z</time>
      </trkpt>
      <trkpt lat="44.54572" lon="5.5429">
        <ele>699.2</ele>
        <time>2022-10-28T10:33:39Z</time>
      </trkpt>
      <trkpt lat="44.54564" lon="5.54291">
        <ele>699.2</ele>
        <time>2022-10-28T10:33:41Z</time>
      </trkpt>
      <trkpt lat="44.54559" lon="5.54292">
        <ele>699.2</ele>
        <time>2022-10-28T10:33:42Z</time>
      </trkpt>
      <trkpt lat="44.54555" lon="5.54293">
        <ele>699.3</ele>
        <time>2022-10-28T10:33:43Z</time>
      </trkpt>
      <trkpt lat="44.5455" lon="5.54294">
        <ele>699.3</ele>
        <time>2022-10-28T10:33:44Z</time>
      </trkpt>
      <trkpt lat="44.54544" lon="5.54295">
        <ele>699.3</ele>
        <time>2022-10-28T10:33:46Z</time>
      </trkpt>
      <trkpt lat="44.54537" lon="5.54296">
        <ele>699.3</ele>
        <time>2022-10-28T10:33:47Z</time>
      </trkpt>
      <trkpt lat="44.54532" lon="5.54297">
        <ele>699.3</ele>
        <time>2022-10-28T10:33:48Z</time>
      </trkpt>
      <trkpt lat="44.54527" lon="5.54297">
        <ele>699.3</ele>
        <time>2022-10-28T10:33:49Z</time>
      </trkpt>
      <trkpt lat="44.54523" lon="5.54298">
        <ele>699.3</ele>
        <time>2022-10-28T10:33:50Z</time>
      </trkpt>
      <trkpt lat="44.54518" lon="5.54299">
        <ele>699.3</ele>
        <time>2022-10-28T10:33:51Z</time>
      </trkpt>
      <trkpt lat="44.54514" lon="5.543">
        <ele>699.3</ele>
        <time>2022-10-28T10:33:52Z</time>
      </trkpt>
      <trkpt lat="44.54509" lon="5.54301">
        <ele>699.4</ele>
        <time>2022-10-28T10:33:53Z</time>
      </trkpt>
      <trkpt lat="44.54504" lon="5.54301">
        <ele>699.4</ele>
        <time>2022-10-28T10:33:54Z</time>
      </trkpt>
      <trkpt lat="44.545" lon="5.54301">
        <ele>699.4</ele>
        <time>2022-10-28T10:33:55Z</time>
      </trkpt>
      <trkpt lat="44.54495" lon="5.54302">
        <ele>699.4</ele>
        <time>2022-10-28T10:33:56Z</time>
      </trkpt>
      <trkpt lat="44.54491" lon="5.54303">
        <ele>699.4</ele>
        <time>2022-10-28T10:33:57Z</time>
      </trkpt>
      <trkpt lat="44.54487" lon="5.54301">
        <ele>699.5</ele>
        <time>2022-10-28T10:33:59Z</time>
      </trkpt>
      <trkpt lat="44.5448" lon="5.54303">
        <ele>699.5</ele>
        <time>2022-10-28T10:34:00Z</time>
      </trkpt>
      <trkpt lat="44.54475" lon="5.54304">
        <ele>699.5</ele>
        <time>2022-10-28T10:34:01Z</time>
      </trkpt>
      <trkpt lat="44.5447" lon="5.54304">
        <ele>699.6</ele>
        <time>2022-10-28T10:34:02Z</time>
      </trkpt>
      <trkpt lat="44.54466" lon="5.54305">
        <ele>699.6</ele>
        <time>2022-10-28T10:34:03Z</time>
      </trkpt>
      <trkpt lat="44.54462" lon="5.54306">
        <ele>699.7</ele>
        <time>2022-10-28T10:34:04Z</time>
      </trkpt>
      <trkpt lat="44.54456" lon="5.54307">
        <ele>699.7</ele>
        <time>2022-10-28T10:34:06Z</time>
      </trkpt>
      <trkpt lat="44.5445" lon="5.5431">
        <ele>699.7</ele>
        <time>2022-10-28T10:34:07Z</time>
      </trkpt>
      <trkpt lat="44.54445" lon="5.54313">
        <ele>699.7</ele>
        <time>2022-10-28T10:34:08Z</time>
      </trkpt>
      <trkpt lat="44.54441" lon="5.54316">
        <ele>699.7</ele>
        <time>2022-10-28T10:34:09Z</time>
      </trkpt>
      <trkpt lat="44.54436" lon="5.54318">
        <ele>699.8</ele>
        <time>2022-10-28T10:34:10Z</time>
      </trkpt>
      <trkpt lat="44.54431" lon="5.5432">
        <ele>699.8</ele>
        <time>2022-10-28T10:34:11Z</time>
      </trkpt>
      <trkpt lat="44.54427" lon="5.54323">
        <ele>699.8</ele>
        <time>2022-10-28T10:34:12Z</time>
      </trkpt>
      <trkpt lat="44.54423" lon="5.54326">
        <ele>699.8</ele>
        <time>2022-10-28T10:34:13Z</time>
      </trkpt>
      <trkpt lat="44.54418" lon="5.54328">
        <ele>699.9</ele>
        <time>2022-10-28T10:34:14Z</time>
      </trkpt>
      <trkpt lat="44.54414" lon="5.54332">
        <ele>699.9</ele>
        <time>2022-10-28T10:34:15Z</time>
      </trkpt>
      <trkpt lat="44.54411" lon="5.54335">
        <ele>699.9</ele>
        <time>2022-10-28T10:34:16Z</time>
      </trkpt>
      <trkpt lat="44.54406" lon="5.54338">
        <ele>699.9</ele>
        <time>2022-10-28T10:34:17Z</time>
      </trkpt>
      <trkpt lat="44.54402" lon="5.54342">
        <ele>699.9</ele>
        <time>2022-10-28T10:34:18Z</time>
      </trkpt>
      <trkpt lat="44.54398" lon="5.54345">
        <ele>699.9</ele>
        <time>2022-10-28T10:34:19Z</time>
      </trkpt>
      <trkpt lat="44.54394" lon="5.54348">
        <ele>700</ele>
        <time>2022-10-28T10:34:20Z</time>
      </trkpt>
      <trkpt lat="44.5439" lon="5.54351">
        <ele>700</ele>
        <time>2022-10-28T10:34:21Z</time>
      </trkpt>
      <trkpt lat="44.54386" lon="5.54355">
        <ele>700</ele>
        <time>2022-10-28T10:34:22Z</time>
      </trkpt>
      <trkpt lat="44.54382" lon="5.54359">
        <ele>700.1</ele>
        <time>2022-10-28T10:34:23Z</time>
      </trkpt>
      <trkpt lat="44.54378" lon="5.54362">
        <ele>700.1</ele>
        <time>2022-10-28T10:34:24Z</time>
      </trkpt>
      <trkpt lat="44.54374" lon="5.54365">
        <ele>700.1</ele>
        <time>2022-10-28T10:34:25Z</time>
      </trkpt>
      <trkpt lat="44.5437" lon="5.54369">
        <ele>700.2</ele>
        <time>2022-10-28T10:34:26Z</time>
      </trkpt>
      <trkpt lat="44.54366" lon="5.54373">
        <ele>700.2</ele>
        <time>2022-10-28T10:34:27Z</time>
      </trkpt>
      <trkpt lat="44.54362" lon="5.54376">
        <ele>700.2</ele>
        <time>2022-10-28T10:34:28Z</time>
      </trkpt>
      <trkpt lat="44.54357" lon="5.54378">
        <ele>700.3</ele>
        <time>2022-10-28T10:34:29Z</time>
      </trkpt>
      <trkpt lat="44.54353" lon="5.54381">
        <ele>700.4</ele>
        <time>2022-10-28T10:34:30Z</time>
      </trkpt>
      <trkpt lat="44.54349" lon="5.54383">
        <ele>700.4</ele>
        <time>2022-10-28T10:34:31Z</time>
      </trkpt>
      <trkpt lat="44.54345" lon="5.54385">
        <ele>700.5</ele>
        <time>2022-10-28T10:34:32Z</time>
      </trkpt>
      <trkpt lat="44.54342" lon="5.54387">
        <ele>700.6</ele>
        <time>2022-10-28T10:34:33Z</time>
      </trkpt>
      <trkpt lat="44.54337" lon="5.54389">
        <ele>700.6</ele>
        <time>2022-10-28T10:34:34Z</time>
      </trkpt>
      <trkpt lat="44.54334" lon="5.5439">
        <ele>700.7</ele>
        <time>2022-10-28T10:34:35Z</time>
      </trkpt>
      <trkpt lat="44.5433" lon="5.54391">
        <ele>700.8</ele>
        <time>2022-10-28T10:34:36Z</time>
      </trkpt>
      <trkpt lat="44.54326" lon="5.54393">
        <ele>700.9</ele>
        <time>2022-10-28T10:34:37Z</time>
      </trkpt>
      <trkpt lat="44.54322" lon="5.54395">
        <ele>701</ele>
        <time>2022-10-28T10:34:38Z</time>
      </trkpt>
      <trkpt lat="44.54319" lon="5.54397">
        <ele>701</ele>
        <time>2022-10-28T10:34:39Z</time>
      </trkpt>
      <trkpt lat="44.54314" lon="5.544">
        <ele>701.2</ele>
        <time>2022-10-28T10:34:40Z</time>
      </trkpt>
      <trkpt lat="44.54311" lon="5.54401">
        <ele>701.2</ele>
        <time>2022-10-28T10:34:41Z</time>
      </trkpt>
      <trkpt lat="44.54307" lon="5.54403">
        <ele>701.3</ele>
        <time>2022-10-28T10:34:42Z</time>
      </trkpt>
      <trkpt lat="44.54304" lon="5.54405">
        <ele>701.4</ele>
        <time>2022-10-28T10:34:43Z</time>
      </trkpt>
      <trkpt lat="44.54299" lon="5.54408">
        <ele>701.5</ele>
        <time>2022-10-28T10:34:45Z</time>
      </trkpt>
      <trkpt lat="44.54294" lon="5.54411">
        <ele>701.7</ele>
        <time>2022-10-28T10:34:46Z</time>
      </trkpt>
      <trkpt lat="44.54291" lon="5.54413">
        <ele>701.8</ele>
        <time>2022-10-28T10:34:47Z</time>
      </trkpt>
      <trkpt lat="44.54287" lon="5.54416">
        <ele>701.8</ele>
        <time>2022-10-28T10:34:48Z</time>
      </trkpt>
      <trkpt lat="44.54284" lon="5.54419">
        <ele>701.9</ele>
        <time>2022-10-28T10:34:49Z</time>
      </trkpt>
      <trkpt lat="44.5428" lon="5.54423">
        <ele>702</ele>
        <time>2022-10-28T10:34:51Z</time>
      </trkpt>
      <trkpt lat="44.54277" lon="5.54428">
        <ele>702.1</ele>
        <time>2022-10-28T10:34:52Z</time>
      </trkpt>
      <trkpt lat="44.54272" lon="5.54432">
        <ele>702.2</ele>
        <time>2022-10-28T10:34:53Z</time>
      </trkpt>
      <trkpt lat="44.54269" lon="5.54435">
        <ele>702.2</ele>
        <time>2022-10-28T10:34:54Z</time>
      </trkpt>
      <trkpt lat="44.54265" lon="5.54437">
        <ele>702.3</ele>
        <time>2022-10-28T10:34:55Z</time>
      </trkpt>
      <trkpt lat="44.54264" lon="5.54437">
        <ele>702.3</ele>
        <time>2022-10-28T10:34:56Z</time>
      </trkpt>
      <trkpt lat="44.54264" lon="5.54438">
        <ele>702.3</ele>
        <time>2022-10-28T10:34:57Z</time>
      </trkpt>
      <trkpt lat="44.54263" lon="5.54438">
        <ele>702.3</ele>
        <time>2022-10-28T10:34:58Z</time>
      </trkpt>
      <trkpt lat="44.54262" lon="5.54439">
        <ele>702.3</ele>
        <time>2022-10-28T10:34:59Z</time>
      </trkpt>
      <trkpt lat="44.54261" lon="5.54439">
        <ele>702.3</ele>
        <time>2022-10-28T10:35:00Z</time>
      </trkpt>
      <trkpt lat="44.54261" lon="5.54438">
        <ele>702.3</ele>
        <time>2022-10-28T10:35:01Z</time>
      </trkpt>
      <trkpt lat="44.54261" lon="5.54438">
        <ele>702.3</ele>
        <time>2022-10-28T10:35:02Z</time>
      </trkpt>
      <trkpt lat="44.54262" lon="5.54437">
        <ele>702.3</ele>
        <time>2022-10-28T10:35:03Z</time>
      </trkpt>
      <trkpt lat="44.54262" lon="5.54436">
        <ele>702.3</ele>
        <time>2022-10-28T10:35:04Z</time>
      </trkpt>
      <trkpt lat="44.54262" lon="5.54435">
        <ele>702.3</ele>
        <time>2022-10-28T10:35:05Z</time>
      </trkpt>
      <trkpt lat="44.54262" lon="5.54435">
        <ele>702.3</ele>
        <time>2022-10-28T10:35:06Z</time>
      </trkpt>
      <trkpt lat="44.54262" lon="5.54435">
        <ele>702.3</ele>
        <time>2022-10-28T10:35:07Z</time>
      </trkpt>
      <trkpt lat="44.54268" lon="5.54434">
        <ele>702.4</ele>
        <time>2022-10-28T10:35:23Z</time>
      </trkpt>
      <trkpt lat="44.54268" lon="5.54434">
        <ele>702.4</ele>
        <time>2022-10-28T10:35:24Z</time>
      </trkpt>
      <trkpt lat="44.54268" lon="5.54434">
        <ele>702.4</ele>
        <time>2022-10-28T10:35:25Z</time>
      </trkpt>
      <trkpt lat="44.54268" lon="5.54434">
        <ele>702.4</ele>
        <time>2022-10-28T10:35:26Z</time>
      </trkpt>
      <trkpt lat="44.54268" lon="5.54434">
        <ele>702.4</ele>
        <time>2022-10-28T10:35:27Z</time>
      </trkpt>
      <trkpt lat="44.54268" lon="5.54434">
        <ele>702.4</ele>
        <time>2022-10-28T10:35:28Z</time>
      </trkpt>
      <trkpt lat="44.54268" lon="5.54434">
        <ele>702.4</ele>
        <time>2022-10-28T10:35:29Z</time>
      </trkpt>
      <trkpt lat="44.54268" lon="5.54434">
        <ele>702.4</ele>
        <time>2022-10-28T10:35:30Z</time>
      </trkpt>
      <trkpt lat="44.54268" lon="5.54435">
        <ele>702.4</ele>
        <time>2022-10-28T10:35:31Z</time>
      </trkpt>
      <trkpt lat="44.54268" lon="5.54435">
        <ele>702.4</ele>
        <time>2022-10-28T10:35:32Z</time>
      </trkpt>
      <trkpt lat="44.54268" lon="5.54435">
        <ele>702.4</ele>
        <time>2022-10-28T10:35:33Z</time>
      </trkpt>
      <trkpt lat="44.54267" lon="5.54435">
        <ele>702.4</ele>
        <time>2022-10-28T10:35:34Z</time>
      </trkpt>
      <trkpt lat="44.54267" lon="5.54435">
        <ele>702.4</ele>
        <time>2022-10-28T10:35:35Z</time>
      </trkpt>
      <trkpt lat="44.54267" lon="5.54434">
        <ele>702.4</ele>
        <time>2022-10-28T10:35:36Z</time>
      </trkpt>
      <trkpt lat="44.54267" lon="5.54434">
        <ele>702.4</ele>
        <time>2022-10-28T10:35:37Z</time>
      </trkpt>
      <trkpt lat="44.54267" lon="5.54434">
        <ele>702.4</ele>
        <time>2022-10-28T10:35:38Z</time>
      </trkpt>
      <trkpt lat="44.54267" lon="5.54434">
        <ele>702.4</ele>
        <time>2022-10-28T10:35:40Z</time>
      </trkpt>
      <trkpt lat="44.54267" lon="5.54434">
        <ele>702.4</ele>
        <time>2022-10-28T10:35:41Z</time>
      </trkpt>
      <trkpt lat="44.54267" lon="5.54434">
        <ele>702.4</ele>
        <time>2022-10-28T10:35:42Z</time>
      </trkpt>
      <trkpt lat="44.54267" lon="5.54434">
        <ele>702.4</ele>
        <time>2022-10-28T10:35:43Z</time>
      </trkpt>
      <trkpt lat="44.54261" lon="5.54439">
        <ele>702.5</ele>
        <time>2022-10-28T10:36:30Z</time>
      </trkpt>
      <trkpt lat="44.54258" lon="5.54442">
        <ele>702.5</ele>
        <time>2022-10-28T10:36:32Z</time>
      </trkpt>
      <trkpt lat="44.54254" lon="5.54445">
        <ele>702.6</ele>
        <time>2022-10-28T10:36:33Z</time>
      </trkpt>
      <trkpt lat="44.5425" lon="5.54448">
        <ele>702.6</ele>
        <time>2022-10-28T10:36:34Z</time>
      </trkpt>
      <trkpt lat="44.54246" lon="5.5445">
        <ele>702.7</ele>
        <time>2022-10-28T10:36:35Z</time>
      </trkpt>
      <trkpt lat="44.54243" lon="5.54452">
        <ele>702.7</ele>
        <time>2022-10-28T10:36:36Z</time>
      </trkpt>
      <trkpt lat="44.5424" lon="5.54454">
        <ele>702.7</ele>
        <time>2022-10-28T10:36:37Z</time>
      </trkpt>
      <trkpt lat="44.54237" lon="5.54456">
        <ele>702.8</ele>
        <time>2022-10-28T10:36:38Z</time>
      </trkpt>
      <trkpt lat="44.54233" lon="5.54459">
        <ele>702.8</ele>
        <time>2022-10-28T10:36:39Z</time>
      </trkpt>
      <trkpt lat="44.5423" lon="5.54461">
        <ele>702.8</ele>
        <time>2022-10-28T10:36:40Z</time>
      </trkpt>
      <trkpt lat="44.54226" lon="5.54464">
        <ele>702.9</ele>
        <time>2022-10-28T10:36:41Z</time>
      </trkpt>
      <trkpt lat="44.54222" lon="5.54466">
        <ele>703</ele>
        <time>2022-10-28T10:36:42Z</time>
      </trkpt>
      <trkpt lat="44.54217" lon="5.54468">
        <ele>703</ele>
        <time>2022-10-28T10:36:44Z</time>
      </trkpt>
      <trkpt lat="44.54212" lon="5.54471">
        <ele>703.1</ele>
        <time>2022-10-28T10:36:45Z</time>
      </trkpt>
      <trkpt lat="44.54207" lon="5.54474">
        <ele>703.1</ele>
        <time>2022-10-28T10:36:46Z</time>
      </trkpt>
      <trkpt lat="44.54202" lon="5.54477">
        <ele>703.1</ele>
        <time>2022-10-28T10:36:48Z</time>
      </trkpt>
      <trkpt lat="44.54197" lon="5.54481">
        <ele>703.2</ele>
        <time>2022-10-28T10:36:49Z</time>
      </trkpt>
      <trkpt lat="44.54192" lon="5.54484">
        <ele>703.2</ele>
        <time>2022-10-28T10:36:50Z</time>
      </trkpt>
      <trkpt lat="44.54186" lon="5.54487">
        <ele>703.3</ele>
        <time>2022-10-28T10:36:51Z</time>
      </trkpt>
      <trkpt lat="44.54183" lon="5.54488">
        <ele>703.3</ele>
        <time>2022-10-28T10:36:52Z</time>
      </trkpt>
      <trkpt lat="44.54179" lon="5.54491">
        <ele>703.4</ele>
        <time>2022-10-28T10:36:53Z</time>
      </trkpt>
      <trkpt lat="44.54175" lon="5.54493">
        <ele>703.4</ele>
        <time>2022-10-28T10:36:54Z</time>
      </trkpt>
      <trkpt lat="44.54171" lon="5.54496">
        <ele>703.5</ele>
        <time>2022-10-28T10:36:55Z</time>
      </trkpt>
      <trkpt lat="44.54167" lon="5.54499">
        <ele>703.5</ele>
        <time>2022-10-28T10:36:56Z</time>
      </trkpt>
      <trkpt lat="44.54162" lon="5.54502">
        <ele>703.6</ele>
        <time>2022-10-28T10:36:57Z</time>
      </trkpt>
      <trkpt lat="44.54158" lon="5.54504">
        <ele>703.6</ele>
        <time>2022-10-28T10:36:58Z</time>
      </trkpt>
      <trkpt lat="44.54155" lon="5.54507">
        <ele>703.7</ele>
        <time>2022-10-28T10:36:59Z</time>
      </trkpt>
      <trkpt lat="44.54151" lon="5.54511">
        <ele>703.7</ele>
        <time>2022-10-28T10:37:00Z</time>
      </trkpt>
      <trkpt lat="44.54146" lon="5.54513">
        <ele>703.8</ele>
        <time>2022-10-28T10:37:01Z</time>
      </trkpt>
      <trkpt lat="44.54142" lon="5.54516">
        <ele>703.8</ele>
        <time>2022-10-28T10:37:02Z</time>
      </trkpt>
      <trkpt lat="44.54139" lon="5.54518">
        <ele>703.8</ele>
        <time>2022-10-28T10:37:03Z</time>
      </trkpt>
      <trkpt lat="44.54134" lon="5.54522">
        <ele>703.8</ele>
        <time>2022-10-28T10:37:04Z</time>
      </trkpt>
      <trkpt lat="44.5413" lon="5.54524">
        <ele>703.9</ele>
        <time>2022-10-28T10:37:06Z</time>
      </trkpt>
      <trkpt lat="44.54125" lon="5.54527">
        <ele>703.9</ele>
        <time>2022-10-28T10:37:07Z</time>
      </trkpt>
      <trkpt lat="44.54119" lon="5.54532">
        <ele>703.9</ele>
        <time>2022-10-28T10:37:08Z</time>
      </trkpt>
      <trkpt lat="44.54114" lon="5.54534">
        <ele>704</ele>
        <time>2022-10-28T10:37:09Z</time>
      </trkpt>
      <trkpt lat="44.5411" lon="5.54537">
        <ele>704</ele>
        <time>2022-10-28T10:37:10Z</time>
      </trkpt>
      <trkpt lat="44.54106" lon="5.54539">
        <ele>704</ele>
        <time>2022-10-28T10:37:11Z</time>
      </trkpt>
      <trkpt lat="44.54103" lon="5.5454">
        <ele>704.1</ele>
        <time>2022-10-28T10:37:12Z</time>
      </trkpt>
      <trkpt lat="44.54099" lon="5.54539">
        <ele>704.1</ele>
        <time>2022-10-28T10:37:13Z</time>
      </trkpt>
      <trkpt lat="44.54094" lon="5.54545">
        <ele>704.2</ele>
        <time>2022-10-28T10:37:14Z</time>
      </trkpt>
      <trkpt lat="44.5409" lon="5.54551">
        <ele>704.3</ele>
        <time>2022-10-28T10:37:16Z</time>
      </trkpt>
      <trkpt lat="44.54086" lon="5.54552">
        <ele>704.4</ele>
        <time>2022-10-28T10:37:17Z</time>
      </trkpt>
      <trkpt lat="44.54077" lon="5.54557">
        <ele>704.6</ele>
        <time>2022-10-28T10:37:19Z</time>
      </trkpt>
      <trkpt lat="44.54073" lon="5.5456">
        <ele>704.7</ele>
        <time>2022-10-28T10:37:20Z</time>
      </trkpt>
      <trkpt lat="44.54067" lon="5.54564">
        <ele>704.8</ele>
        <time>2022-10-28T10:37:21Z</time>
      </trkpt>
      <trkpt lat="44.54064" lon="5.54567">
        <ele>704.9</ele>
        <time>2022-10-28T10:37:22Z</time>
      </trkpt>
      <trkpt lat="44.5406" lon="5.54571">
        <ele>705</ele>
        <time>2022-10-28T10:37:23Z</time>
      </trkpt>
      <trkpt lat="44.54056" lon="5.54576">
        <ele>705.1</ele>
        <time>2022-10-28T10:37:25Z</time>
      </trkpt>
      <trkpt lat="44.54053" lon="5.5458">
        <ele>705.1</ele>
        <time>2022-10-28T10:37:26Z</time>
      </trkpt>
      <trkpt lat="44.54049" lon="5.54587">
        <ele>705.2</ele>
        <time>2022-10-28T10:37:27Z</time>
      </trkpt>
      <trkpt lat="44.54045" lon="5.54593">
        <ele>705.2</ele>
        <time>2022-10-28T10:37:28Z</time>
      </trkpt>
      <trkpt lat="44.54043" lon="5.54598">
        <ele>705.2</ele>
        <time>2022-10-28T10:37:29Z</time>
      </trkpt>
      <trkpt lat="44.5404" lon="5.54603">
        <ele>705.3</ele>
        <time>2022-10-28T10:37:30Z</time>
      </trkpt>
      <trkpt lat="44.54037" lon="5.54607">
        <ele>705.3</ele>
        <time>2022-10-28T10:37:31Z</time>
      </trkpt>
      <trkpt lat="44.54034" lon="5.54618">
        <ele>705.4</ele>
        <time>2022-10-28T10:37:33Z</time>
      </trkpt>
      <trkpt lat="44.54032" lon="5.54622">
        <ele>705.5</ele>
        <time>2022-10-28T10:37:34Z</time>
      </trkpt>
      <trkpt lat="44.54029" lon="5.54628">
        <ele>705.6</ele>
        <time>2022-10-28T10:37:35Z</time>
      </trkpt>
      <trkpt lat="44.54026" lon="5.54633">
        <ele>705.7</ele>
        <time>2022-10-28T10:37:36Z</time>
      </trkpt>
      <trkpt lat="44.54023" lon="5.54638">
        <ele>705.8</ele>
        <time>2022-10-28T10:37:38Z</time>
      </trkpt>
      <trkpt lat="44.54021" lon="5.54645">
        <ele>705.9</ele>
        <time>2022-10-28T10:37:39Z</time>
      </trkpt>
      <trkpt lat="44.54018" lon="5.54651">
        <ele>705.9</ele>
        <time>2022-10-28T10:37:40Z</time>
      </trkpt>
      <trkpt lat="44.54015" lon="5.54657">
        <ele>706</ele>
        <time>2022-10-28T10:37:41Z</time>
      </trkpt>
      <trkpt lat="44.54013" lon="5.54662">
        <ele>706.1</ele>
        <time>2022-10-28T10:37:42Z</time>
      </trkpt>
      <trkpt lat="44.5401" lon="5.54668">
        <ele>706.1</ele>
        <time>2022-10-28T10:37:44Z</time>
      </trkpt>
      <trkpt lat="44.54007" lon="5.54674">
        <ele>706.2</ele>
        <time>2022-10-28T10:37:45Z</time>
      </trkpt>
      <trkpt lat="44.54005" lon="5.54679">
        <ele>706.3</ele>
        <time>2022-10-28T10:37:46Z</time>
      </trkpt>
      <trkpt lat="44.54002" lon="5.54686">
        <ele>706.5</ele>
        <time>2022-10-28T10:37:47Z</time>
      </trkpt>
      <trkpt lat="44.54" lon="5.54692">
        <ele>706.6</ele>
        <time>2022-10-28T10:37:48Z</time>
      </trkpt>
      <trkpt lat="44.53997" lon="5.547">
        <ele>706.7</ele>
        <time>2022-10-28T10:37:50Z</time>
      </trkpt>
      <trkpt lat="44.53995" lon="5.54705">
        <ele>706.8</ele>
        <time>2022-10-28T10:37:51Z</time>
      </trkpt>
      <trkpt lat="44.53993" lon="5.54711">
        <ele>707</ele>
        <time>2022-10-28T10:37:52Z</time>
      </trkpt>
      <trkpt lat="44.5399" lon="5.54718">
        <ele>707.2</ele>
        <time>2022-10-28T10:37:53Z</time>
      </trkpt>
      <trkpt lat="44.53988" lon="5.54722">
        <ele>707.3</ele>
        <time>2022-10-28T10:37:54Z</time>
      </trkpt>
      <trkpt lat="44.53985" lon="5.54726">
        <ele>707.4</ele>
        <time>2022-10-28T10:37:55Z</time>
      </trkpt>
      <trkpt lat="44.53983" lon="5.5473">
        <ele>707.5</ele>
        <time>2022-10-28T10:37:56Z</time>
      </trkpt>
      <trkpt lat="44.53981" lon="5.54736">
        <ele>707.6</ele>
        <time>2022-10-28T10:37:58Z</time>
      </trkpt>
      <trkpt lat="44.53978" lon="5.5474">
        <ele>707.7</ele>
        <time>2022-10-28T10:37:59Z</time>
      </trkpt>
      <trkpt lat="44.53976" lon="5.54744">
        <ele>707.8</ele>
        <time>2022-10-28T10:38:00Z</time>
      </trkpt>
      <trkpt lat="44.53974" lon="5.54748">
        <ele>707.8</ele>
        <time>2022-10-28T10:38:01Z</time>
      </trkpt>
      <trkpt lat="44.53972" lon="5.54753">
        <ele>707.9</ele>
        <time>2022-10-28T10:38:02Z</time>
      </trkpt>
      <trkpt lat="44.5397" lon="5.54758">
        <ele>708</ele>
        <time>2022-10-28T10:38:04Z</time>
      </trkpt>
      <trkpt lat="44.53968" lon="5.54763">
        <ele>708</ele>
        <time>2022-10-28T10:38:05Z</time>
      </trkpt>
      <trkpt lat="44.53966" lon="5.54768">
        <ele>708.1</ele>
        <time>2022-10-28T10:38:06Z</time>
      </trkpt>
      <trkpt lat="44.53964" lon="5.54775">
        <ele>708.2</ele>
        <time>2022-10-28T10:38:07Z</time>
      </trkpt>
      <trkpt lat="44.53962" lon="5.5478">
        <ele>708.2</ele>
        <time>2022-10-28T10:38:08Z</time>
      </trkpt>
      <trkpt lat="44.5396" lon="5.54786">
        <ele>708.3</ele>
        <time>2022-10-28T10:38:09Z</time>
      </trkpt>
      <trkpt lat="44.53956" lon="5.54795">
        <ele>708.3</ele>
        <time>2022-10-28T10:38:11Z</time>
      </trkpt>
      <trkpt lat="44.53954" lon="5.54799">
        <ele>708.3</ele>
        <time>2022-10-28T10:38:12Z</time>
      </trkpt>
      <trkpt lat="44.53952" lon="5.54804">
        <ele>708.3</ele>
        <time>2022-10-28T10:38:13Z</time>
      </trkpt>
      <trkpt lat="44.53949" lon="5.54809">
        <ele>708.3</ele>
        <time>2022-10-28T10:38:14Z</time>
      </trkpt>
      <trkpt lat="44.53947" lon="5.54813">
        <ele>708.2</ele>
        <time>2022-10-28T10:38:15Z</time>
      </trkpt>
      <trkpt lat="44.53945" lon="5.54819">
        <ele>708.2</ele>
        <time>2022-10-28T10:38:16Z</time>
      </trkpt>
      <trkpt lat="44.53942" lon="5.54825">
        <ele>708.2</ele>
        <time>2022-10-28T10:38:17Z</time>
      </trkpt>
      <trkpt lat="44.5394" lon="5.54832">
        <ele>708.2</ele>
        <time>2022-10-28T10:38:18Z</time>
      </trkpt>
      <trkpt lat="44.53937" lon="5.54839">
        <ele>708.2</ele>
        <time>2022-10-28T10:38:19Z</time>
      </trkpt>
      <trkpt lat="44.53934" lon="5.54846">
        <ele>708.2</ele>
        <time>2022-10-28T10:38:20Z</time>
      </trkpt>
      <trkpt lat="44.53931" lon="5.54852">
        <ele>708.2</ele>
        <time>2022-10-28T10:38:21Z</time>
      </trkpt>
      <trkpt lat="44.53928" lon="5.54858">
        <ele>708.2</ele>
        <time>2022-10-28T10:38:22Z</time>
      </trkpt>
      <trkpt lat="44.53925" lon="5.54864">
        <ele>708.2</ele>
        <time>2022-10-28T10:38:23Z</time>
      </trkpt>
      <trkpt lat="44.53922" lon="5.5487">
        <ele>708.2</ele>
        <time>2022-10-28T10:38:24Z</time>
      </trkpt>
      <trkpt lat="44.53919" lon="5.54875">
        <ele>708.2</ele>
        <time>2022-10-28T10:38:25Z</time>
      </trkpt>
      <trkpt lat="44.53916" lon="5.54881">
        <ele>708.3</ele>
        <time>2022-10-28T10:38:26Z</time>
      </trkpt>
      <trkpt lat="44.53914" lon="5.54886">
        <ele>708.3</ele>
        <time>2022-10-28T10:38:27Z</time>
      </trkpt>
      <trkpt lat="44.53911" lon="5.54892">
        <ele>708.4</ele>
        <time>2022-10-28T10:38:28Z</time>
      </trkpt>
      <trkpt lat="44.53908" lon="5.54897">
        <ele>708.4</ele>
        <time>2022-10-28T10:38:29Z</time>
      </trkpt>
      <trkpt lat="44.53905" lon="5.54901">
        <ele>708.5</ele>
        <time>2022-10-28T10:38:30Z</time>
      </trkpt>
      <trkpt lat="44.53903" lon="5.54904">
        <ele>708.5</ele>
        <time>2022-10-28T10:38:31Z</time>
      </trkpt>
      <trkpt lat="44.539" lon="5.54909">
        <ele>708.6</ele>
        <time>2022-10-28T10:38:32Z</time>
      </trkpt>
      <trkpt lat="44.53898" lon="5.54913">
        <ele>708.6</ele>
        <time>2022-10-28T10:38:33Z</time>
      </trkpt>
      <trkpt lat="44.53895" lon="5.54919">
        <ele>708.7</ele>
        <time>2022-10-28T10:38:34Z</time>
      </trkpt>
      <trkpt lat="44.53893" lon="5.54922">
        <ele>708.7</ele>
        <time>2022-10-28T10:38:35Z</time>
      </trkpt>
      <trkpt lat="44.53891" lon="5.54927">
        <ele>708.8</ele>
        <time>2022-10-28T10:38:36Z</time>
      </trkpt>
      <trkpt lat="44.53887" lon="5.54931">
        <ele>708.9</ele>
        <time>2022-10-28T10:38:38Z</time>
      </trkpt>
      <trkpt lat="44.53884" lon="5.54937">
        <ele>708.9</ele>
        <time>2022-10-28T10:38:39Z</time>
      </trkpt>
      <trkpt lat="44.53882" lon="5.54942">
        <ele>709</ele>
        <time>2022-10-28T10:38:40Z</time>
      </trkpt>
      <trkpt lat="44.53879" lon="5.54948">
        <ele>709</ele>
        <time>2022-10-28T10:38:41Z</time>
      </trkpt>
      <trkpt lat="44.53876" lon="5.54954">
        <ele>709.1</ele>
        <time>2022-10-28T10:38:42Z</time>
      </trkpt>
      <trkpt lat="44.53872" lon="5.54961">
        <ele>709.2</ele>
        <time>2022-10-28T10:38:44Z</time>
      </trkpt>
      <trkpt lat="44.53869" lon="5.54967">
        <ele>709.2</ele>
        <time>2022-10-28T10:38:45Z</time>
      </trkpt>
      <trkpt lat="44.53867" lon="5.54971">
        <ele>709.3</ele>
        <time>2022-10-28T10:38:46Z</time>
      </trkpt>
      <trkpt lat="44.53865" lon="5.54975">
        <ele>709.3</ele>
        <time>2022-10-28T10:38:47Z</time>
      </trkpt>
      <trkpt lat="44.53863" lon="5.54979">
        <ele>709.4</ele>
        <time>2022-10-28T10:38:48Z</time>
      </trkpt>
      <trkpt lat="44.5386" lon="5.54987">
        <ele>709.4</ele>
        <time>2022-10-28T10:38:50Z</time>
      </trkpt>
      <trkpt lat="44.53858" lon="5.54994">
        <ele>709.5</ele>
        <time>2022-10-28T10:38:51Z</time>
      </trkpt>
      <trkpt lat="44.53856" lon="5.55001">
        <ele>709.6</ele>
        <time>2022-10-28T10:38:52Z</time>
      </trkpt>
      <trkpt lat="44.53854" lon="5.55009">
        <ele>709.7</ele>
        <time>2022-10-28T10:38:54Z</time>
      </trkpt>
      <trkpt lat="44.53853" lon="5.55015">
        <ele>709.7</ele>
        <time>2022-10-28T10:38:55Z</time>
      </trkpt>
      <trkpt lat="44.53851" lon="5.5502">
        <ele>709.8</ele>
        <time>2022-10-28T10:38:56Z</time>
      </trkpt>
      <trkpt lat="44.5385" lon="5.55029">
        <ele>709.8</ele>
        <time>2022-10-28T10:38:57Z</time>
      </trkpt>
      <trkpt lat="44.53849" lon="5.55036">
        <ele>709.9</ele>
        <time>2022-10-28T10:38:58Z</time>
      </trkpt>
      <trkpt lat="44.53849" lon="5.55042">
        <ele>709.9</ele>
        <time>2022-10-28T10:38:59Z</time>
      </trkpt>
      <trkpt lat="44.53849" lon="5.55047">
        <ele>710</ele>
        <time>2022-10-28T10:39:00Z</time>
      </trkpt>
      <trkpt lat="44.53848" lon="5.55051">
        <ele>710</ele>
        <time>2022-10-28T10:39:01Z</time>
      </trkpt>
      <trkpt lat="44.53848" lon="5.55056">
        <ele>710.1</ele>
        <time>2022-10-28T10:39:02Z</time>
      </trkpt>
      <trkpt lat="44.53849" lon="5.55061">
        <ele>710.1</ele>
        <time>2022-10-28T10:39:03Z</time>
      </trkpt>
      <trkpt lat="44.5385" lon="5.55071">
        <ele>710.1</ele>
        <time>2022-10-28T10:39:05Z</time>
      </trkpt>
      <trkpt lat="44.5385" lon="5.55078">
        <ele>710.1</ele>
        <time>2022-10-28T10:39:06Z</time>
      </trkpt>
      <trkpt lat="44.53851" lon="5.55089">
        <ele>710.1</ele>
        <time>2022-10-28T10:39:07Z</time>
      </trkpt>
      <trkpt lat="44.53851" lon="5.55095">
        <ele>710.1</ele>
        <time>2022-10-28T10:39:08Z</time>
      </trkpt>
      <trkpt lat="44.53851" lon="5.55103">
        <ele>710.1</ele>
        <time>2022-10-28T10:39:09Z</time>
      </trkpt>
      <trkpt lat="44.5385" lon="5.5511">
        <ele>710.1</ele>
        <time>2022-10-28T10:39:10Z</time>
      </trkpt>
      <trkpt lat="44.5385" lon="5.55118">
        <ele>710.1</ele>
        <time>2022-10-28T10:39:11Z</time>
      </trkpt>
      <trkpt lat="44.53849" lon="5.55125">
        <ele>710.1</ele>
        <time>2022-10-28T10:39:12Z</time>
      </trkpt>
      <trkpt lat="44.53848" lon="5.55132">
        <ele>710.2</ele>
        <time>2022-10-28T10:39:13Z</time>
      </trkpt>
      <trkpt lat="44.53847" lon="5.55138">
        <ele>710.2</ele>
        <time>2022-10-28T10:39:14Z</time>
      </trkpt>
      <trkpt lat="44.53845" lon="5.55144">
        <ele>710.3</ele>
        <time>2022-10-28T10:39:16Z</time>
      </trkpt>
      <trkpt lat="44.53844" lon="5.5515">
        <ele>710.4</ele>
        <time>2022-10-28T10:39:17Z</time>
      </trkpt>
      <trkpt lat="44.53844" lon="5.55156">
        <ele>710.4</ele>
        <time>2022-10-28T10:39:18Z</time>
      </trkpt>
      <trkpt lat="44.53843" lon="5.55164">
        <ele>710.5</ele>
        <time>2022-10-28T10:39:19Z</time>
      </trkpt>
      <trkpt lat="44.53843" lon="5.5517">
        <ele>710.6</ele>
        <time>2022-10-28T10:39:20Z</time>
      </trkpt>
      <trkpt lat="44.53842" lon="5.55177">
        <ele>710.6</ele>
        <time>2022-10-28T10:39:21Z</time>
      </trkpt>
      <trkpt lat="44.53842" lon="5.55183">
        <ele>710.7</ele>
        <time>2022-10-28T10:39:22Z</time>
      </trkpt>
      <trkpt lat="44.53841" lon="5.55189">
        <ele>710.8</ele>
        <time>2022-10-28T10:39:23Z</time>
      </trkpt>
      <trkpt lat="44.53841" lon="5.55196">
        <ele>710.8</ele>
        <time>2022-10-28T10:39:24Z</time>
      </trkpt>
      <trkpt lat="44.5384" lon="5.55205">
        <ele>710.9</ele>
        <time>2022-10-28T10:39:25Z</time>
      </trkpt>
      <trkpt lat="44.53839" lon="5.55213">
        <ele>711</ele>
        <time>2022-10-28T10:39:26Z</time>
      </trkpt>
      <trkpt lat="44.53838" lon="5.5522">
        <ele>711.1</ele>
        <time>2022-10-28T10:39:27Z</time>
      </trkpt>
      <trkpt lat="44.53837" lon="5.55227">
        <ele>711.3</ele>
        <time>2022-10-28T10:39:28Z</time>
      </trkpt>
      <trkpt lat="44.53835" lon="5.55233">
        <ele>711.4</ele>
        <time>2022-10-28T10:39:29Z</time>
      </trkpt>
      <trkpt lat="44.53834" lon="5.55239">
        <ele>711.5</ele>
        <time>2022-10-28T10:39:30Z</time>
      </trkpt>
      <trkpt lat="44.53837" lon="5.55245">
        <ele>711.6</ele>
        <time>2022-10-28T10:39:32Z</time>
      </trkpt>
      <trkpt lat="44.53833" lon="5.55251">
        <ele>711.8</ele>
        <time>2022-10-28T10:39:33Z</time>
      </trkpt>
      <trkpt lat="44.53828" lon="5.55258">
        <ele>712.1</ele>
        <time>2022-10-28T10:39:35Z</time>
      </trkpt>
      <trkpt lat="44.53826" lon="5.55262">
        <ele>712.3</ele>
        <time>2022-10-28T10:39:36Z</time>
      </trkpt>
      <trkpt lat="44.53823" lon="5.55268">
        <ele>712.5</ele>
        <time>2022-10-28T10:39:37Z</time>
      </trkpt>
      <trkpt lat="44.53821" lon="5.55272">
        <ele>712.7</ele>
        <time>2022-10-28T10:39:38Z</time>
      </trkpt>
      <trkpt lat="44.53818" lon="5.55276">
        <ele>712.9</ele>
        <time>2022-10-28T10:39:39Z</time>
      </trkpt>
      <trkpt lat="44.53815" lon="5.55281">
        <ele>713.1</ele>
        <time>2022-10-28T10:39:41Z</time>
      </trkpt>
      <trkpt lat="44.53812" lon="5.55286">
        <ele>713.3</ele>
        <time>2022-10-28T10:39:42Z</time>
      </trkpt>
      <trkpt lat="44.53809" lon="5.55292">
        <ele>713.5</ele>
        <time>2022-10-28T10:39:43Z</time>
      </trkpt>
      <trkpt lat="44.53805" lon="5.55299">
        <ele>713.9</ele>
        <time>2022-10-28T10:39:45Z</time>
      </trkpt>
      <trkpt lat="44.53803" lon="5.55303">
        <ele>714.1</ele>
        <time>2022-10-28T10:39:46Z</time>
      </trkpt>
      <trkpt lat="44.53801" lon="5.55307">
        <ele>714.2</ele>
        <time>2022-10-28T10:39:47Z</time>
      </trkpt>
      <trkpt lat="44.53799" lon="5.5531">
        <ele>714.4</ele>
        <time>2022-10-28T10:39:48Z</time>
      </trkpt>
      <trkpt lat="44.53797" lon="5.55314">
        <ele>714.6</ele>
        <time>2022-10-28T10:39:49Z</time>
      </trkpt>
      <trkpt lat="44.53795" lon="5.55319">
        <ele>714.8</ele>
        <time>2022-10-28T10:39:51Z</time>
      </trkpt>
      <trkpt lat="44.53793" lon="5.55322">
        <ele>715</ele>
        <time>2022-10-28T10:39:52Z</time>
      </trkpt>
      <trkpt lat="44.53791" lon="5.55326">
        <ele>715.2</ele>
        <time>2022-10-28T10:39:53Z</time>
      </trkpt>
      <trkpt lat="44.53789" lon="5.55329">
        <ele>715.3</ele>
        <time>2022-10-28T10:39:54Z</time>
      </trkpt>
      <trkpt lat="44.53787" lon="5.55333">
        <ele>715.5</ele>
        <time>2022-10-28T10:39:55Z</time>
      </trkpt>
      <trkpt lat="44.53786" lon="5.55336">
        <ele>715.7</ele>
        <time>2022-10-28T10:39:57Z</time>
      </trkpt>
      <trkpt lat="44.53784" lon="5.5534">
        <ele>715.9</ele>
        <time>2022-10-28T10:39:58Z</time>
      </trkpt>
      <trkpt lat="44.53782" lon="5.55343">
        <ele>716</ele>
        <time>2022-10-28T10:39:59Z</time>
      </trkpt>
      <trkpt lat="44.5378" lon="5.55348">
        <ele>716.3</ele>
        <time>2022-10-28T10:40:01Z</time>
      </trkpt>
      <trkpt lat="44.53779" lon="5.55352">
        <ele>716.4</ele>
        <time>2022-10-28T10:40:02Z</time>
      </trkpt>
      <trkpt lat="44.53777" lon="5.55356">
        <ele>716.6</ele>
        <time>2022-10-28T10:40:03Z</time>
      </trkpt>
      <trkpt lat="44.53776" lon="5.55362">
        <ele>716.9</ele>
        <time>2022-10-28T10:40:04Z</time>
      </trkpt>
      <trkpt lat="44.53774" lon="5.55365">
        <ele>717.1</ele>
        <time>2022-10-28T10:40:05Z</time>
      </trkpt>
      <trkpt lat="44.53774" lon="5.55366">
        <ele>717.1</ele>
        <time>2022-10-28T10:40:06Z</time>
      </trkpt>
      <trkpt lat="44.53773" lon="5.55368">
        <ele>717.2</ele>
        <time>2022-10-28T10:40:07Z</time>
      </trkpt>
      <trkpt lat="44.53773" lon="5.55374">
        <ele>717.5</ele>
        <time>2022-10-28T10:40:09Z</time>
      </trkpt>
      <trkpt lat="44.53772" lon="5.55378">
        <ele>717.6</ele>
        <time>2022-10-28T10:40:10Z</time>
      </trkpt>
      <trkpt lat="44.53771" lon="5.55382">
        <ele>717.8</ele>
        <time>2022-10-28T10:40:11Z</time>
      </trkpt>
      <trkpt lat="44.5377" lon="5.55387">
        <ele>718</ele>
        <time>2022-10-28T10:40:12Z</time>
      </trkpt>
      <trkpt lat="44.53769" lon="5.55392">
        <ele>718.2</ele>
        <time>2022-10-28T10:40:14Z</time>
      </trkpt>
      <trkpt lat="44.53768" lon="5.55396">
        <ele>718.4</ele>
        <time>2022-10-28T10:40:15Z</time>
      </trkpt>
      <trkpt lat="44.53768" lon="5.554">
        <ele>718.5</ele>
        <time>2022-10-28T10:40:16Z</time>
      </trkpt>
      <trkpt lat="44.53767" lon="5.55403">
        <ele>718.6</ele>
        <time>2022-10-28T10:40:17Z</time>
      </trkpt>
      <trkpt lat="44.53766" lon="5.55407">
        <ele>718.8</ele>
        <time>2022-10-28T10:40:19Z</time>
      </trkpt>
      <trkpt lat="44.53766" lon="5.55411">
        <ele>718.9</ele>
        <time>2022-10-28T10:40:20Z</time>
      </trkpt>
      <trkpt lat="44.53765" lon="5.55416">
        <ele>719.1</ele>
        <time>2022-10-28T10:40:21Z</time>
      </trkpt>
      <trkpt lat="44.53765" lon="5.5542">
        <ele>719.3</ele>
        <time>2022-10-28T10:40:22Z</time>
      </trkpt>
      <trkpt lat="44.53764" lon="5.55424">
        <ele>719.5</ele>
        <time>2022-10-28T10:40:23Z</time>
      </trkpt>
      <trkpt lat="44.53762" lon="5.55431">
        <ele>719.8</ele>
        <time>2022-10-28T10:40:25Z</time>
      </trkpt>
      <trkpt lat="44.53762" lon="5.55433">
        <ele>719.9</ele>
        <time>2022-10-28T10:40:26Z</time>
      </trkpt>
      <trkpt lat="44.53761" lon="5.55436">
        <ele>720</ele>
        <time>2022-10-28T10:40:27Z</time>
      </trkpt>
      <trkpt lat="44.5376" lon="5.5544">
        <ele>720.2</ele>
        <time>2022-10-28T10:40:28Z</time>
      </trkpt>
      <trkpt lat="44.5376" lon="5.55442">
        <ele>720.3</ele>
        <time>2022-10-28T10:40:29Z</time>
      </trkpt>
      <trkpt lat="44.53759" lon="5.55444">
        <ele>720.4</ele>
        <time>2022-10-28T10:40:30Z</time>
      </trkpt>
      <trkpt lat="44.53758" lon="5.55448">
        <ele>720.6</ele>
        <time>2022-10-28T10:40:32Z</time>
      </trkpt>
      <trkpt lat="44.53757" lon="5.55452">
        <ele>720.8</ele>
        <time>2022-10-28T10:40:33Z</time>
      </trkpt>
      <trkpt lat="44.53757" lon="5.55453">
        <ele>720.9</ele>
        <time>2022-10-28T10:40:34Z</time>
      </trkpt>
      <trkpt lat="44.53756" lon="5.55457">
        <ele>721.1</ele>
        <time>2022-10-28T10:40:35Z</time>
      </trkpt>
      <trkpt lat="44.53756" lon="5.55458">
        <ele>721.1</ele>
        <time>2022-10-28T10:40:36Z</time>
      </trkpt>
      <trkpt lat="44.53756" lon="5.55461">
        <ele>721.3</ele>
        <time>2022-10-28T10:40:37Z</time>
      </trkpt>
      <trkpt lat="44.53756" lon="5.55465">
        <ele>721.5</ele>
        <time>2022-10-28T10:40:39Z</time>
      </trkpt>
      <trkpt lat="44.53755" lon="5.55471">
        <ele>721.7</ele>
        <time>2022-10-28T10:40:40Z</time>
      </trkpt>
      <trkpt lat="44.53754" lon="5.55476">
        <ele>722</ele>
        <time>2022-10-28T10:40:42Z</time>
      </trkpt>
      <trkpt lat="44.53753" lon="5.5548">
        <ele>722.2</ele>
        <time>2022-10-28T10:40:43Z</time>
      </trkpt>
      <trkpt lat="44.53753" lon="5.55484">
        <ele>722.4</ele>
        <time>2022-10-28T10:40:44Z</time>
      </trkpt>
      <trkpt lat="44.53753" lon="5.5549">
        <ele>722.6</ele>
        <time>2022-10-28T10:40:45Z</time>
      </trkpt>
      <trkpt lat="44.53752" lon="5.55492">
        <ele>722.7</ele>
        <time>2022-10-28T10:40:46Z</time>
      </trkpt>
      <trkpt lat="44.53752" lon="5.55497">
        <ele>723</ele>
        <time>2022-10-28T10:40:47Z</time>
      </trkpt>
      <trkpt lat="44.53751" lon="5.55499">
        <ele>723.1</ele>
        <time>2022-10-28T10:40:48Z</time>
      </trkpt>
      <trkpt lat="44.53751" lon="5.55504">
        <ele>723.3</ele>
        <time>2022-10-28T10:40:50Z</time>
      </trkpt>
      <trkpt lat="44.53751" lon="5.55508">
        <ele>723.5</ele>
        <time>2022-10-28T10:40:51Z</time>
      </trkpt>
      <trkpt lat="44.53751" lon="5.5551">
        <ele>723.6</ele>
        <time>2022-10-28T10:40:52Z</time>
      </trkpt>
      <trkpt lat="44.53751" lon="5.55513">
        <ele>723.7</ele>
        <time>2022-10-28T10:40:53Z</time>
      </trkpt>
      <trkpt lat="44.53751" lon="5.55516">
        <ele>723.8</ele>
        <time>2022-10-28T10:40:54Z</time>
      </trkpt>
      <trkpt lat="44.53751" lon="5.5552">
        <ele>724.1</ele>
        <time>2022-10-28T10:40:56Z</time>
      </trkpt>
      <trkpt lat="44.53751" lon="5.55526">
        <ele>724.3</ele>
        <time>2022-10-28T10:40:57Z</time>
      </trkpt>
      <trkpt lat="44.53752" lon="5.55528">
        <ele>724.4</ele>
        <time>2022-10-28T10:40:58Z</time>
      </trkpt>
      <trkpt lat="44.53751" lon="5.55532">
        <ele>724.5</ele>
        <time>2022-10-28T10:40:59Z</time>
      </trkpt>
      <trkpt lat="44.5375" lon="5.55537">
        <ele>724.8</ele>
        <time>2022-10-28T10:41:00Z</time>
      </trkpt>
      <trkpt lat="44.53749" lon="5.55543">
        <ele>725</ele>
        <time>2022-10-28T10:41:01Z</time>
      </trkpt>
      <trkpt lat="44.53749" lon="5.55548">
        <ele>725.1</ele>
        <time>2022-10-28T10:41:03Z</time>
      </trkpt>
      <trkpt lat="44.5375" lon="5.55552">
        <ele>725.3</ele>
        <time>2022-10-28T10:41:04Z</time>
      </trkpt>
      <trkpt lat="44.53751" lon="5.55558">
        <ele>725.4</ele>
        <time>2022-10-28T10:41:05Z</time>
      </trkpt>
      <trkpt lat="44.53752" lon="5.55563">
        <ele>725.6</ele>
        <time>2022-10-28T10:41:07Z</time>
      </trkpt>
      <trkpt lat="44.53753" lon="5.55567">
        <ele>725.7</ele>
        <time>2022-10-28T10:41:08Z</time>
      </trkpt>
      <trkpt lat="44.53754" lon="5.55571">
        <ele>725.8</ele>
        <time>2022-10-28T10:41:09Z</time>
      </trkpt>
      <trkpt lat="44.53754" lon="5.55577">
        <ele>725.9</ele>
        <time>2022-10-28T10:41:11Z</time>
      </trkpt>
      <trkpt lat="44.53755" lon="5.55583">
        <ele>726</ele>
        <time>2022-10-28T10:41:12Z</time>
      </trkpt>
      <trkpt lat="44.53756" lon="5.55587">
        <ele>726.1</ele>
        <time>2022-10-28T10:41:13Z</time>
      </trkpt>
      <trkpt lat="44.53756" lon="5.55593">
        <ele>726.2</ele>
        <time>2022-10-28T10:41:15Z</time>
      </trkpt>
      <trkpt lat="44.53756" lon="5.556">
        <ele>726.3</ele>
        <time>2022-10-28T10:41:16Z</time>
      </trkpt>
      <trkpt lat="44.53757" lon="5.55605">
        <ele>726.4</ele>
        <time>2022-10-28T10:41:18Z</time>
      </trkpt>
      <trkpt lat="44.53757" lon="5.55611">
        <ele>726.5</ele>
        <time>2022-10-28T10:41:19Z</time>
      </trkpt>
      <trkpt lat="44.53757" lon="5.55616">
        <ele>726.5</ele>
        <time>2022-10-28T10:41:20Z</time>
      </trkpt>
      <trkpt lat="44.53756" lon="5.5562">
        <ele>726.6</ele>
        <time>2022-10-28T10:41:21Z</time>
      </trkpt>
      <trkpt lat="44.53754" lon="5.55625">
        <ele>726.6</ele>
        <time>2022-10-28T10:41:22Z</time>
      </trkpt>
      <trkpt lat="44.53752" lon="5.5563">
        <ele>726.7</ele>
        <time>2022-10-28T10:41:24Z</time>
      </trkpt>
      <trkpt lat="44.5375" lon="5.55636">
        <ele>726.7</ele>
        <time>2022-10-28T10:41:25Z</time>
      </trkpt>
      <trkpt lat="44.53747" lon="5.55643">
        <ele>726.8</ele>
        <time>2022-10-28T10:41:27Z</time>
      </trkpt>
      <trkpt lat="44.53745" lon="5.55648">
        <ele>726.8</ele>
        <time>2022-10-28T10:41:28Z</time>
      </trkpt>
      <trkpt lat="44.53742" lon="5.55654">
        <ele>726.9</ele>
        <time>2022-10-28T10:41:29Z</time>
      </trkpt>
      <trkpt lat="44.5374" lon="5.55659">
        <ele>726.9</ele>
        <time>2022-10-28T10:41:30Z</time>
      </trkpt>
      <trkpt lat="44.53737" lon="5.55664">
        <ele>726.9</ele>
        <time>2022-10-28T10:41:31Z</time>
      </trkpt>
      <trkpt lat="44.53734" lon="5.5567">
        <ele>727</ele>
        <time>2022-10-28T10:41:32Z</time>
      </trkpt>
      <trkpt lat="44.53731" lon="5.55675">
        <ele>727</ele>
        <time>2022-10-28T10:41:34Z</time>
      </trkpt>
      <trkpt lat="44.53728" lon="5.5568">
        <ele>727.1</ele>
        <time>2022-10-28T10:41:35Z</time>
      </trkpt>
      <trkpt lat="44.53724" lon="5.55685">
        <ele>727.1</ele>
        <time>2022-10-28T10:41:36Z</time>
      </trkpt>
      <trkpt lat="44.53721" lon="5.55689">
        <ele>727.1</ele>
        <time>2022-10-28T10:41:37Z</time>
      </trkpt>
      <trkpt lat="44.53718" lon="5.55693">
        <ele>727.2</ele>
        <time>2022-10-28T10:41:38Z</time>
      </trkpt>
      <trkpt lat="44.53715" lon="5.55697">
        <ele>727.2</ele>
        <time>2022-10-28T10:41:39Z</time>
      </trkpt>
      <trkpt lat="44.53712" lon="5.55701">
        <ele>727.2</ele>
        <time>2022-10-28T10:41:40Z</time>
      </trkpt>
      <trkpt lat="44.53709" lon="5.55705">
        <ele>727.3</ele>
        <time>2022-10-28T10:41:41Z</time>
      </trkpt>
      <trkpt lat="44.53705" lon="5.5571">
        <ele>727.3</ele>
        <time>2022-10-28T10:41:42Z</time>
      </trkpt>
      <trkpt lat="44.537" lon="5.55715">
        <ele>727.4</ele>
        <time>2022-10-28T10:41:44Z</time>
      </trkpt>
      <trkpt lat="44.53698" lon="5.5572">
        <ele>727.4</ele>
        <time>2022-10-28T10:41:45Z</time>
      </trkpt>
      <trkpt lat="44.53695" lon="5.55725">
        <ele>727.5</ele>
        <time>2022-10-28T10:41:46Z</time>
      </trkpt>
      <trkpt lat="44.53692" lon="5.55731">
        <ele>727.5</ele>
        <time>2022-10-28T10:41:47Z</time>
      </trkpt>
      <trkpt lat="44.5369" lon="5.55738">
        <ele>727.6</ele>
        <time>2022-10-28T10:41:49Z</time>
      </trkpt>
      <trkpt lat="44.53688" lon="5.55744">
        <ele>727.7</ele>
        <time>2022-10-28T10:41:50Z</time>
      </trkpt>
      <trkpt lat="44.53686" lon="5.55749">
        <ele>727.7</ele>
        <time>2022-10-28T10:41:51Z</time>
      </trkpt>
      <trkpt lat="44.53684" lon="5.55754">
        <ele>727.8</ele>
        <time>2022-10-28T10:41:52Z</time>
      </trkpt>
      <trkpt lat="44.53683" lon="5.55759">
        <ele>727.9</ele>
        <time>2022-10-28T10:41:53Z</time>
      </trkpt>
      <trkpt lat="44.53681" lon="5.55765">
        <ele>727.9</ele>
        <time>2022-10-28T10:41:54Z</time>
      </trkpt>
      <trkpt lat="44.53679" lon="5.5577">
        <ele>728</ele>
        <time>2022-10-28T10:41:55Z</time>
      </trkpt>
      <trkpt lat="44.53676" lon="5.55776">
        <ele>728</ele>
        <time>2022-10-28T10:41:56Z</time>
      </trkpt>
      <trkpt lat="44.53673" lon="5.55782">
        <ele>728.1</ele>
        <time>2022-10-28T10:41:57Z</time>
      </trkpt>
      <trkpt lat="44.53669" lon="5.55788">
        <ele>728.1</ele>
        <time>2022-10-28T10:41:59Z</time>
      </trkpt>
      <trkpt lat="44.53664" lon="5.55795">
        <ele>728.1</ele>
        <time>2022-10-28T10:42:00Z</time>
      </trkpt>
      <trkpt lat="44.5366" lon="5.558">
        <ele>728.1</ele>
        <time>2022-10-28T10:42:02Z</time>
      </trkpt>
      <trkpt lat="44.53656" lon="5.55806">
        <ele>728.1</ele>
        <time>2022-10-28T10:42:03Z</time>
      </trkpt>
      <trkpt lat="44.53653" lon="5.55811">
        <ele>728.1</ele>
        <time>2022-10-28T10:42:04Z</time>
      </trkpt>
      <trkpt lat="44.53648" lon="5.55817">
        <ele>728.1</ele>
        <time>2022-10-28T10:42:05Z</time>
      </trkpt>
      <trkpt lat="44.53643" lon="5.55822">
        <ele>728.2</ele>
        <time>2022-10-28T10:42:06Z</time>
      </trkpt>
      <trkpt lat="44.53639" lon="5.55826">
        <ele>728.2</ele>
        <time>2022-10-28T10:42:07Z</time>
      </trkpt>
      <trkpt lat="44.53635" lon="5.55831">
        <ele>728.2</ele>
        <time>2022-10-28T10:42:08Z</time>
      </trkpt>
      <trkpt lat="44.53631" lon="5.55835">
        <ele>728.2</ele>
        <time>2022-10-28T10:42:09Z</time>
      </trkpt>
      <trkpt lat="44.53628" lon="5.5584">
        <ele>728.2</ele>
        <time>2022-10-28T10:42:10Z</time>
      </trkpt>
      <trkpt lat="44.53624" lon="5.55844">
        <ele>728.2</ele>
        <time>2022-10-28T10:42:11Z</time>
      </trkpt>
      <trkpt lat="44.5362" lon="5.55848">
        <ele>728.2</ele>
        <time>2022-10-28T10:42:12Z</time>
      </trkpt>
      <trkpt lat="44.53616" lon="5.55852">
        <ele>728.3</ele>
        <time>2022-10-28T10:42:13Z</time>
      </trkpt>
      <trkpt lat="44.53613" lon="5.55857">
        <ele>728.3</ele>
        <time>2022-10-28T10:42:14Z</time>
      </trkpt>
      <trkpt lat="44.53609" lon="5.55861">
        <ele>728.3</ele>
        <time>2022-10-28T10:42:15Z</time>
      </trkpt>
      <trkpt lat="44.53605" lon="5.55865">
        <ele>728.3</ele>
        <time>2022-10-28T10:42:16Z</time>
      </trkpt>
      <trkpt lat="44.53602" lon="5.55869">
        <ele>728.3</ele>
        <time>2022-10-28T10:42:17Z</time>
      </trkpt>
      <trkpt lat="44.53599" lon="5.55874">
        <ele>728.3</ele>
        <time>2022-10-28T10:42:18Z</time>
      </trkpt>
      <trkpt lat="44.53595" lon="5.55879">
        <ele>728.3</ele>
        <time>2022-10-28T10:42:19Z</time>
      </trkpt>
      <trkpt lat="44.53592" lon="5.55883">
        <ele>728.4</ele>
        <time>2022-10-28T10:42:20Z</time>
      </trkpt>
      <trkpt lat="44.53588" lon="5.55887">
        <ele>728.4</ele>
        <time>2022-10-28T10:42:21Z</time>
      </trkpt>
      <trkpt lat="44.53585" lon="5.55891">
        <ele>728.4</ele>
        <time>2022-10-28T10:42:22Z</time>
      </trkpt>
      <trkpt lat="44.53581" lon="5.55896">
        <ele>728.5</ele>
        <time>2022-10-28T10:42:23Z</time>
      </trkpt>
      <trkpt lat="44.53576" lon="5.559">
        <ele>728.5</ele>
        <time>2022-10-28T10:42:24Z</time>
      </trkpt>
      <trkpt lat="44.53572" lon="5.55904">
        <ele>728.5</ele>
        <time>2022-10-28T10:42:25Z</time>
      </trkpt>
      <trkpt lat="44.53568" lon="5.55908">
        <ele>728.5</ele>
        <time>2022-10-28T10:42:26Z</time>
      </trkpt>
      <trkpt lat="44.53564" lon="5.55912">
        <ele>728.5</ele>
        <time>2022-10-28T10:42:27Z</time>
      </trkpt>
      <trkpt lat="44.53559" lon="5.55916">
        <ele>728.5</ele>
        <time>2022-10-28T10:42:28Z</time>
      </trkpt>
      <trkpt lat="44.53555" lon="5.55919">
        <ele>728.5</ele>
        <time>2022-10-28T10:42:29Z</time>
      </trkpt>
      <trkpt lat="44.5355" lon="5.55923">
        <ele>728.5</ele>
        <time>2022-10-28T10:42:30Z</time>
      </trkpt>
      <trkpt lat="44.53546" lon="5.55927">
        <ele>728.6</ele>
        <time>2022-10-28T10:42:31Z</time>
      </trkpt>
      <trkpt lat="44.53542" lon="5.5593">
        <ele>728.6</ele>
        <time>2022-10-28T10:42:32Z</time>
      </trkpt>
      <trkpt lat="44.53538" lon="5.55934">
        <ele>728.6</ele>
        <time>2022-10-28T10:42:33Z</time>
      </trkpt>
      <trkpt lat="44.53534" lon="5.55938">
        <ele>728.7</ele>
        <time>2022-10-28T10:42:34Z</time>
      </trkpt>
      <trkpt lat="44.5353" lon="5.55942">
        <ele>728.8</ele>
        <time>2022-10-28T10:42:35Z</time>
      </trkpt>
      <trkpt lat="44.53526" lon="5.55946">
        <ele>728.8</ele>
        <time>2022-10-28T10:42:36Z</time>
      </trkpt>
      <trkpt lat="44.53522" lon="5.55951">
        <ele>728.9</ele>
        <time>2022-10-28T10:42:37Z</time>
      </trkpt>
      <trkpt lat="44.53517" lon="5.55956">
        <ele>729</ele>
        <time>2022-10-28T10:42:38Z</time>
      </trkpt>
      <trkpt lat="44.53513" lon="5.5596">
        <ele>729.1</ele>
        <time>2022-10-28T10:42:39Z</time>
      </trkpt>
      <trkpt lat="44.53509" lon="5.55964">
        <ele>729.1</ele>
        <time>2022-10-28T10:42:40Z</time>
      </trkpt>
      <trkpt lat="44.53504" lon="5.55967">
        <ele>729.2</ele>
        <time>2022-10-28T10:42:41Z</time>
      </trkpt>
      <trkpt lat="44.535" lon="5.55971">
        <ele>729.3</ele>
        <time>2022-10-28T10:42:42Z</time>
      </trkpt>
      <trkpt lat="44.53495" lon="5.55973">
        <ele>729.4</ele>
        <time>2022-10-28T10:42:43Z</time>
      </trkpt>
      <trkpt lat="44.53491" lon="5.55977">
        <ele>729.4</ele>
        <time>2022-10-28T10:42:44Z</time>
      </trkpt>
      <trkpt lat="44.53488" lon="5.5598">
        <ele>729.5</ele>
        <time>2022-10-28T10:42:45Z</time>
      </trkpt>
      <trkpt lat="44.53485" lon="5.55982">
        <ele>729.6</ele>
        <time>2022-10-28T10:42:46Z</time>
      </trkpt>
      <trkpt lat="44.53481" lon="5.55984">
        <ele>729.6</ele>
        <time>2022-10-28T10:42:47Z</time>
      </trkpt>
      <trkpt lat="44.53478" lon="5.55987">
        <ele>729.7</ele>
        <time>2022-10-28T10:42:48Z</time>
      </trkpt>
      <trkpt lat="44.53475" lon="5.55991">
        <ele>729.7</ele>
        <time>2022-10-28T10:42:49Z</time>
      </trkpt>
      <trkpt lat="44.53471" lon="5.55995">
        <ele>729.8</ele>
        <time>2022-10-28T10:42:50Z</time>
      </trkpt>
      <trkpt lat="44.53468" lon="5.56">
        <ele>729.8</ele>
        <time>2022-10-28T10:42:51Z</time>
      </trkpt>
      <trkpt lat="44.53465" lon="5.56004">
        <ele>729.9</ele>
        <time>2022-10-28T10:42:52Z</time>
      </trkpt>
      <trkpt lat="44.53465" lon="5.56006">
        <ele>729.9</ele>
        <time>2022-10-28T10:42:53Z</time>
      </trkpt>
      <trkpt lat="44.53464" lon="5.56008">
        <ele>729.9</ele>
        <time>2022-10-28T10:42:54Z</time>
      </trkpt>
      <trkpt lat="44.5346" lon="5.56015">
        <ele>730</ele>
        <time>2022-10-28T10:42:55Z</time>
      </trkpt>
      <trkpt lat="44.53457" lon="5.56023">
        <ele>730</ele>
        <time>2022-10-28T10:42:56Z</time>
      </trkpt>
      <trkpt lat="44.53454" lon="5.5603">
        <ele>730.1</ele>
        <time>2022-10-28T10:42:57Z</time>
      </trkpt>
      <trkpt lat="44.53452" lon="5.56037">
        <ele>730.1</ele>
        <time>2022-10-28T10:42:58Z</time>
      </trkpt>
      <trkpt lat="44.53449" lon="5.56042">
        <ele>730.1</ele>
        <time>2022-10-28T10:42:59Z</time>
      </trkpt>
      <trkpt lat="44.53446" lon="5.56048">
        <ele>730.1</ele>
        <time>2022-10-28T10:43:00Z</time>
      </trkpt>
      <trkpt lat="44.53443" lon="5.56054">
        <ele>730.1</ele>
        <time>2022-10-28T10:43:01Z</time>
      </trkpt>
      <trkpt lat="44.5344" lon="5.56059">
        <ele>730.1</ele>
        <time>2022-10-28T10:43:02Z</time>
      </trkpt>
      <trkpt lat="44.53436" lon="5.56064">
        <ele>730.1</ele>
        <time>2022-10-28T10:43:03Z</time>
      </trkpt>
      <trkpt lat="44.53433" lon="5.56069">
        <ele>730</ele>
        <time>2022-10-28T10:43:04Z</time>
      </trkpt>
      <trkpt lat="44.53429" lon="5.56073">
        <ele>730</ele>
        <time>2022-10-28T10:43:05Z</time>
      </trkpt>
      <trkpt lat="44.53425" lon="5.56077">
        <ele>730.1</ele>
        <time>2022-10-28T10:43:06Z</time>
      </trkpt>
      <trkpt lat="44.53421" lon="5.5608">
        <ele>730.1</ele>
        <time>2022-10-28T10:43:07Z</time>
      </trkpt>
      <trkpt lat="44.53416" lon="5.56084">
        <ele>730.1</ele>
        <time>2022-10-28T10:43:08Z</time>
      </trkpt>
      <trkpt lat="44.53412" lon="5.56087">
        <ele>730.1</ele>
        <time>2022-10-28T10:43:09Z</time>
      </trkpt>
      <trkpt lat="44.53408" lon="5.5609">
        <ele>730.1</ele>
        <time>2022-10-28T10:43:10Z</time>
      </trkpt>
      <trkpt lat="44.53403" lon="5.56092">
        <ele>730.2</ele>
        <time>2022-10-28T10:43:11Z</time>
      </trkpt>
      <trkpt lat="44.53399" lon="5.56094">
        <ele>730.2</ele>
        <time>2022-10-28T10:43:12Z</time>
      </trkpt>
      <trkpt lat="44.53394" lon="5.56097">
        <ele>730.2</ele>
        <time>2022-10-28T10:43:13Z</time>
      </trkpt>
      <trkpt lat="44.53389" lon="5.56098">
        <ele>730.2</ele>
        <time>2022-10-28T10:43:14Z</time>
      </trkpt>
      <trkpt lat="44.53384" lon="5.561">
        <ele>730.3</ele>
        <time>2022-10-28T10:43:15Z</time>
      </trkpt>
      <trkpt lat="44.5338" lon="5.56102">
        <ele>730.3</ele>
        <time>2022-10-28T10:43:16Z</time>
      </trkpt>
      <trkpt lat="44.53375" lon="5.56104">
        <ele>730.3</ele>
        <time>2022-10-28T10:43:17Z</time>
      </trkpt>
      <trkpt lat="44.53369" lon="5.56106">
        <ele>730.4</ele>
        <time>2022-10-28T10:43:18Z</time>
      </trkpt>
      <trkpt lat="44.53364" lon="5.56108">
        <ele>730.4</ele>
        <time>2022-10-28T10:43:19Z</time>
      </trkpt>
      <trkpt lat="44.5336" lon="5.56109">
        <ele>730.5</ele>
        <time>2022-10-28T10:43:20Z</time>
      </trkpt>
      <trkpt lat="44.53355" lon="5.56111">
        <ele>730.5</ele>
        <time>2022-10-28T10:43:21Z</time>
      </trkpt>
      <trkpt lat="44.5335" lon="5.56112">
        <ele>730.6</ele>
        <time>2022-10-28T10:43:22Z</time>
      </trkpt>
      <trkpt lat="44.53346" lon="5.56113">
        <ele>730.6</ele>
        <time>2022-10-28T10:43:23Z</time>
      </trkpt>
      <trkpt lat="44.53341" lon="5.56115">
        <ele>730.7</ele>
        <time>2022-10-28T10:43:24Z</time>
      </trkpt>
      <trkpt lat="44.53336" lon="5.56117">
        <ele>730.8</ele>
        <time>2022-10-28T10:43:25Z</time>
      </trkpt>
      <trkpt lat="44.53332" lon="5.56118">
        <ele>730.9</ele>
        <time>2022-10-28T10:43:26Z</time>
      </trkpt>
      <trkpt lat="44.53327" lon="5.5612">
        <ele>730.9</ele>
        <time>2022-10-28T10:43:27Z</time>
      </trkpt>
      <trkpt lat="44.53323" lon="5.56121">
        <ele>731</ele>
        <time>2022-10-28T10:43:28Z</time>
      </trkpt>
      <trkpt lat="44.53318" lon="5.56123">
        <ele>731.1</ele>
        <time>2022-10-28T10:43:29Z</time>
      </trkpt>
      <trkpt lat="44.53314" lon="5.56126">
        <ele>731.2</ele>
        <time>2022-10-28T10:43:30Z</time>
      </trkpt>
      <trkpt lat="44.53309" lon="5.56129">
        <ele>731.2</ele>
        <time>2022-10-28T10:43:31Z</time>
      </trkpt>
      <trkpt lat="44.53304" lon="5.56131">
        <ele>731.3</ele>
        <time>2022-10-28T10:43:32Z</time>
      </trkpt>
      <trkpt lat="44.53299" lon="5.56132">
        <ele>731.4</ele>
        <time>2022-10-28T10:43:33Z</time>
      </trkpt>
      <trkpt lat="44.53295" lon="5.56134">
        <ele>731.4</ele>
        <time>2022-10-28T10:43:34Z</time>
      </trkpt>
      <trkpt lat="44.53291" lon="5.56135">
        <ele>731.5</ele>
        <time>2022-10-28T10:43:35Z</time>
      </trkpt>
      <trkpt lat="44.53287" lon="5.56137">
        <ele>731.5</ele>
        <time>2022-10-28T10:43:36Z</time>
      </trkpt>
      <trkpt lat="44.53282" lon="5.56139">
        <ele>731.6</ele>
        <time>2022-10-28T10:43:37Z</time>
      </trkpt>
      <trkpt lat="44.53277" lon="5.56142">
        <ele>731.6</ele>
        <time>2022-10-28T10:43:38Z</time>
      </trkpt>
      <trkpt lat="44.53272" lon="5.56144">
        <ele>731.7</ele>
        <time>2022-10-28T10:43:39Z</time>
      </trkpt>
      <trkpt lat="44.53268" lon="5.56146">
        <ele>731.8</ele>
        <time>2022-10-28T10:43:40Z</time>
      </trkpt>
      <trkpt lat="44.53263" lon="5.56148">
        <ele>731.9</ele>
        <time>2022-10-28T10:43:41Z</time>
      </trkpt>
      <trkpt lat="44.5326" lon="5.56149">
        <ele>731.9</ele>
        <time>2022-10-28T10:43:42Z</time>
      </trkpt>
      <trkpt lat="44.53256" lon="5.56151">
        <ele>732</ele>
        <time>2022-10-28T10:43:43Z</time>
      </trkpt>
      <trkpt lat="44.5325" lon="5.56153">
        <ele>732.1</ele>
        <time>2022-10-28T10:43:44Z</time>
      </trkpt>
      <trkpt lat="44.53245" lon="5.56155">
        <ele>732.2</ele>
        <time>2022-10-28T10:43:45Z</time>
      </trkpt>
      <trkpt lat="44.53241" lon="5.56157">
        <ele>732.2</ele>
        <time>2022-10-28T10:43:46Z</time>
      </trkpt>
      <trkpt lat="44.53237" lon="5.5616">
        <ele>732.3</ele>
        <time>2022-10-28T10:43:47Z</time>
      </trkpt>
      <trkpt lat="44.53234" lon="5.56161">
        <ele>732.3</ele>
        <time>2022-10-28T10:43:48Z</time>
      </trkpt>
      <trkpt lat="44.53229" lon="5.56165">
        <ele>732.4</ele>
        <time>2022-10-28T10:43:49Z</time>
      </trkpt>
      <trkpt lat="44.53223" lon="5.56168">
        <ele>732.4</ele>
        <time>2022-10-28T10:43:50Z</time>
      </trkpt>
      <trkpt lat="44.53219" lon="5.56172">
        <ele>732.5</ele>
        <time>2022-10-28T10:43:51Z</time>
      </trkpt>
      <trkpt lat="44.53214" lon="5.56175">
        <ele>732.6</ele>
        <time>2022-10-28T10:43:52Z</time>
      </trkpt>
      <trkpt lat="44.5321" lon="5.56178">
        <ele>732.6</ele>
        <time>2022-10-28T10:43:53Z</time>
      </trkpt>
      <trkpt lat="44.53206" lon="5.56179">
        <ele>732.7</ele>
        <time>2022-10-28T10:43:54Z</time>
      </trkpt>
      <trkpt lat="44.53202" lon="5.56182">
        <ele>732.7</ele>
        <time>2022-10-28T10:43:55Z</time>
      </trkpt>
      <trkpt lat="44.53198" lon="5.56184">
        <ele>732.8</ele>
        <time>2022-10-28T10:43:56Z</time>
      </trkpt>
      <trkpt lat="44.53193" lon="5.56186">
        <ele>732.8</ele>
        <time>2022-10-28T10:43:57Z</time>
      </trkpt>
      <trkpt lat="44.53189" lon="5.56189">
        <ele>732.9</ele>
        <time>2022-10-28T10:43:58Z</time>
      </trkpt>
      <trkpt lat="44.53185" lon="5.56191">
        <ele>732.9</ele>
        <time>2022-10-28T10:43:59Z</time>
      </trkpt>
      <trkpt lat="44.5318" lon="5.56193">
        <ele>733</ele>
        <time>2022-10-28T10:44:00Z</time>
      </trkpt>
      <trkpt lat="44.53176" lon="5.56195">
        <ele>733</ele>
        <time>2022-10-28T10:44:01Z</time>
      </trkpt>
      <trkpt lat="44.53172" lon="5.56198">
        <ele>733.1</ele>
        <time>2022-10-28T10:44:02Z</time>
      </trkpt>
      <trkpt lat="44.53168" lon="5.562">
        <ele>733.1</ele>
        <time>2022-10-28T10:44:04Z</time>
      </trkpt>
      <trkpt lat="44.53162" lon="5.56202">
        <ele>733.2</ele>
        <time>2022-10-28T10:44:05Z</time>
      </trkpt>
      <trkpt lat="44.53157" lon="5.56205">
        <ele>733.3</ele>
        <time>2022-10-28T10:44:06Z</time>
      </trkpt>
      <trkpt lat="44.53153" lon="5.56208">
        <ele>733.3</ele>
        <time>2022-10-28T10:44:07Z</time>
      </trkpt>
      <trkpt lat="44.53145" lon="5.56213">
        <ele>733.5</ele>
        <time>2022-10-28T10:44:09Z</time>
      </trkpt>
      <trkpt lat="44.5314" lon="5.56216">
        <ele>733.6</ele>
        <time>2022-10-28T10:44:11Z</time>
      </trkpt>
      <trkpt lat="44.53136" lon="5.56219">
        <ele>733.6</ele>
        <time>2022-10-28T10:44:12Z</time>
      </trkpt>
      <trkpt lat="44.53131" lon="5.56222">
        <ele>733.7</ele>
        <time>2022-10-28T10:44:13Z</time>
      </trkpt>
      <trkpt lat="44.53127" lon="5.56226">
        <ele>733.8</ele>
        <time>2022-10-28T10:44:15Z</time>
      </trkpt>
      <trkpt lat="44.53124" lon="5.56231">
        <ele>733.9</ele>
        <time>2022-10-28T10:44:16Z</time>
      </trkpt>
      <trkpt lat="44.53121" lon="5.56235">
        <ele>734</ele>
        <time>2022-10-28T10:44:17Z</time>
      </trkpt>
      <trkpt lat="44.53118" lon="5.5624">
        <ele>734.1</ele>
        <time>2022-10-28T10:44:18Z</time>
      </trkpt>
      <trkpt lat="44.53115" lon="5.56247">
        <ele>734.2</ele>
        <time>2022-10-28T10:44:20Z</time>
      </trkpt>
      <trkpt lat="44.53112" lon="5.56253">
        <ele>734.3</ele>
        <time>2022-10-28T10:44:21Z</time>
      </trkpt>
      <trkpt lat="44.5311" lon="5.56258">
        <ele>734.4</ele>
        <time>2022-10-28T10:44:22Z</time>
      </trkpt>
      <trkpt lat="44.53107" lon="5.56266">
        <ele>734.5</ele>
        <time>2022-10-28T10:44:23Z</time>
      </trkpt>
      <trkpt lat="44.53105" lon="5.5627">
        <ele>734.6</ele>
        <time>2022-10-28T10:44:24Z</time>
      </trkpt>
      <trkpt lat="44.53104" lon="5.56278">
        <ele>734.7</ele>
        <time>2022-10-28T10:44:25Z</time>
      </trkpt>
      <trkpt lat="44.531" lon="5.56287">
        <ele>734.8</ele>
        <time>2022-10-28T10:44:27Z</time>
      </trkpt>
      <trkpt lat="44.53098" lon="5.56292">
        <ele>734.8</ele>
        <time>2022-10-28T10:44:28Z</time>
      </trkpt>
      <trkpt lat="44.53096" lon="5.563">
        <ele>734.9</ele>
        <time>2022-10-28T10:44:30Z</time>
      </trkpt>
      <trkpt lat="44.53092" lon="5.56307">
        <ele>734.9</ele>
        <time>2022-10-28T10:44:31Z</time>
      </trkpt>
      <trkpt lat="44.5309" lon="5.56312">
        <ele>734.9</ele>
        <time>2022-10-28T10:44:32Z</time>
      </trkpt>
      <trkpt lat="44.53087" lon="5.56317">
        <ele>734.9</ele>
        <time>2022-10-28T10:44:33Z</time>
      </trkpt>
      <trkpt lat="44.53085" lon="5.56322">
        <ele>734.9</ele>
        <time>2022-10-28T10:44:34Z</time>
      </trkpt>
      <trkpt lat="44.53082" lon="5.56327">
        <ele>734.9</ele>
        <time>2022-10-28T10:44:35Z</time>
      </trkpt>
      <trkpt lat="44.53079" lon="5.56332">
        <ele>734.9</ele>
        <time>2022-10-28T10:44:36Z</time>
      </trkpt>
      <trkpt lat="44.53075" lon="5.56337">
        <ele>734.9</ele>
        <time>2022-10-28T10:44:38Z</time>
      </trkpt>
      <trkpt lat="44.5307" lon="5.56343">
        <ele>734.9</ele>
        <time>2022-10-28T10:44:39Z</time>
      </trkpt>
      <trkpt lat="44.53066" lon="5.56347">
        <ele>735</ele>
        <time>2022-10-28T10:44:40Z</time>
      </trkpt>
      <trkpt lat="44.53062" lon="5.56351">
        <ele>735.1</ele>
        <time>2022-10-28T10:44:41Z</time>
      </trkpt>
      <trkpt lat="44.53056" lon="5.56355">
        <ele>735.1</ele>
        <time>2022-10-28T10:44:42Z</time>
      </trkpt>
      <trkpt lat="44.53052" lon="5.56358">
        <ele>735.2</ele>
        <time>2022-10-28T10:44:43Z</time>
      </trkpt>
      <trkpt lat="44.53048" lon="5.56362">
        <ele>735.2</ele>
        <time>2022-10-28T10:44:44Z</time>
      </trkpt>
      <trkpt lat="44.53045" lon="5.56365">
        <ele>735.3</ele>
        <time>2022-10-28T10:44:45Z</time>
      </trkpt>
      <trkpt lat="44.53039" lon="5.56369">
        <ele>735.3</ele>
        <time>2022-10-28T10:44:46Z</time>
      </trkpt>
      <trkpt lat="44.53035" lon="5.56373">
        <ele>735.3</ele>
        <time>2022-10-28T10:44:47Z</time>
      </trkpt>
      <trkpt lat="44.5303" lon="5.56377">
        <ele>735.4</ele>
        <time>2022-10-28T10:44:48Z</time>
      </trkpt>
      <trkpt lat="44.53026" lon="5.5638">
        <ele>735.4</ele>
        <time>2022-10-28T10:44:49Z</time>
      </trkpt>
      <trkpt lat="44.53022" lon="5.56382">
        <ele>735.5</ele>
        <time>2022-10-28T10:44:50Z</time>
      </trkpt>
      <trkpt lat="44.53018" lon="5.56386">
        <ele>735.6</ele>
        <time>2022-10-28T10:44:51Z</time>
      </trkpt>
      <trkpt lat="44.53014" lon="5.56387">
        <ele>735.7</ele>
        <time>2022-10-28T10:44:52Z</time>
      </trkpt>
      <trkpt lat="44.5301" lon="5.56389">
        <ele>735.8</ele>
        <time>2022-10-28T10:44:53Z</time>
      </trkpt>
      <trkpt lat="44.53006" lon="5.56393">
        <ele>735.9</ele>
        <time>2022-10-28T10:44:54Z</time>
      </trkpt>
      <trkpt lat="44.53002" lon="5.56395">
        <ele>736</ele>
        <time>2022-10-28T10:44:55Z</time>
      </trkpt>
      <trkpt lat="44.52997" lon="5.56399">
        <ele>736.2</ele>
        <time>2022-10-28T10:44:57Z</time>
      </trkpt>
      <trkpt lat="44.52993" lon="5.56401">
        <ele>736.4</ele>
        <time>2022-10-28T10:44:58Z</time>
      </trkpt>
      <trkpt lat="44.5299" lon="5.56404">
        <ele>736.5</ele>
        <time>2022-10-28T10:44:59Z</time>
      </trkpt>
      <trkpt lat="44.52986" lon="5.56406">
        <ele>736.6</ele>
        <time>2022-10-28T10:45:00Z</time>
      </trkpt>
      <trkpt lat="44.52982" lon="5.56409">
        <ele>736.7</ele>
        <time>2022-10-28T10:45:01Z</time>
      </trkpt>
      <trkpt lat="44.52978" lon="5.56412">
        <ele>736.9</ele>
        <time>2022-10-28T10:45:02Z</time>
      </trkpt>
      <trkpt lat="44.52974" lon="5.56415">
        <ele>737</ele>
        <time>2022-10-28T10:45:03Z</time>
      </trkpt>
      <trkpt lat="44.52971" lon="5.56416">
        <ele>737.1</ele>
        <time>2022-10-28T10:45:04Z</time>
      </trkpt>
      <trkpt lat="44.52968" lon="5.56419">
        <ele>737.2</ele>
        <time>2022-10-28T10:45:05Z</time>
      </trkpt>
      <trkpt lat="44.52965" lon="5.56421">
        <ele>737.3</ele>
        <time>2022-10-28T10:45:06Z</time>
      </trkpt>
      <trkpt lat="44.52961" lon="5.56423">
        <ele>737.4</ele>
        <time>2022-10-28T10:45:07Z</time>
      </trkpt>
      <trkpt lat="44.52957" lon="5.56426">
        <ele>737.5</ele>
        <time>2022-10-28T10:45:09Z</time>
      </trkpt>
      <trkpt lat="44.52954" lon="5.56429">
        <ele>737.6</ele>
        <time>2022-10-28T10:45:10Z</time>
      </trkpt>
      <trkpt lat="44.52951" lon="5.56431">
        <ele>737.7</ele>
        <time>2022-10-28T10:45:11Z</time>
      </trkpt>
      <trkpt lat="44.52947" lon="5.56435">
        <ele>737.8</ele>
        <time>2022-10-28T10:45:12Z</time>
      </trkpt>
      <trkpt lat="44.52943" lon="5.56439">
        <ele>737.9</ele>
        <time>2022-10-28T10:45:14Z</time>
      </trkpt>
      <trkpt lat="44.5294" lon="5.56444">
        <ele>738</ele>
        <time>2022-10-28T10:45:15Z</time>
      </trkpt>
      <trkpt lat="44.52937" lon="5.56447">
        <ele>738</ele>
        <time>2022-10-28T10:45:16Z</time>
      </trkpt>
      <trkpt lat="44.52934" lon="5.56451">
        <ele>738.1</ele>
        <time>2022-10-28T10:45:17Z</time>
      </trkpt>
      <trkpt lat="44.52932" lon="5.56455">
        <ele>738.1</ele>
        <time>2022-10-28T10:45:18Z</time>
      </trkpt>
      <trkpt lat="44.52929" lon="5.56461">
        <ele>738.2</ele>
        <time>2022-10-28T10:45:20Z</time>
      </trkpt>
      <trkpt lat="44.52927" lon="5.56466">
        <ele>738.3</ele>
        <time>2022-10-28T10:45:21Z</time>
      </trkpt>
      <trkpt lat="44.52925" lon="5.56471">
        <ele>738.3</ele>
        <time>2022-10-28T10:45:22Z</time>
      </trkpt>
      <trkpt lat="44.52923" lon="5.56477">
        <ele>738.4</ele>
        <time>2022-10-28T10:45:23Z</time>
      </trkpt>
      <trkpt lat="44.52921" lon="5.56484">
        <ele>738.4</ele>
        <time>2022-10-28T10:45:25Z</time>
      </trkpt>
      <trkpt lat="44.52919" lon="5.56491">
        <ele>738.5</ele>
        <time>2022-10-28T10:45:26Z</time>
      </trkpt>
      <trkpt lat="44.52917" lon="5.56498">
        <ele>738.6</ele>
        <time>2022-10-28T10:45:27Z</time>
      </trkpt>
      <trkpt lat="44.52915" lon="5.56503">
        <ele>738.7</ele>
        <time>2022-10-28T10:45:28Z</time>
      </trkpt>
      <trkpt lat="44.52913" lon="5.56509">
        <ele>738.7</ele>
        <time>2022-10-28T10:45:29Z</time>
      </trkpt>
      <trkpt lat="44.52912" lon="5.56513">
        <ele>738.8</ele>
        <time>2022-10-28T10:45:30Z</time>
      </trkpt>
      <trkpt lat="44.5291" lon="5.56519">
        <ele>738.9</ele>
        <time>2022-10-28T10:45:31Z</time>
      </trkpt>
      <trkpt lat="44.52908" lon="5.56524">
        <ele>739</ele>
        <time>2022-10-28T10:45:32Z</time>
      </trkpt>
      <trkpt lat="44.52906" lon="5.5653">
        <ele>739.1</ele>
        <time>2022-10-28T10:45:34Z</time>
      </trkpt>
      <trkpt lat="44.52904" lon="5.56536">
        <ele>739.2</ele>
        <time>2022-10-28T10:45:35Z</time>
      </trkpt>
      <trkpt lat="44.52901" lon="5.56542">
        <ele>739.4</ele>
        <time>2022-10-28T10:45:36Z</time>
      </trkpt>
      <trkpt lat="44.52899" lon="5.56547">
        <ele>739.5</ele>
        <time>2022-10-28T10:45:37Z</time>
      </trkpt>
      <trkpt lat="44.52897" lon="5.56551">
        <ele>739.7</ele>
        <time>2022-10-28T10:45:39Z</time>
      </trkpt>
      <trkpt lat="44.52896" lon="5.56555">
        <ele>739.8</ele>
        <time>2022-10-28T10:45:40Z</time>
      </trkpt>
      <trkpt lat="44.52893" lon="5.56563">
        <ele>740.1</ele>
        <time>2022-10-28T10:45:41Z</time>
      </trkpt>
      <trkpt lat="44.52892" lon="5.56567">
        <ele>740.2</ele>
        <time>2022-10-28T10:45:42Z</time>
      </trkpt>
      <trkpt lat="44.5289" lon="5.56572">
        <ele>740.3</ele>
        <time>2022-10-28T10:45:44Z</time>
      </trkpt>
      <trkpt lat="44.52889" lon="5.56577">
        <ele>740.5</ele>
        <time>2022-10-28T10:45:45Z</time>
      </trkpt>
      <trkpt lat="44.52888" lon="5.56582">
        <ele>740.6</ele>
        <time>2022-10-28T10:45:46Z</time>
      </trkpt>
      <trkpt lat="44.52886" lon="5.56587">
        <ele>740.7</ele>
        <time>2022-10-28T10:45:47Z</time>
      </trkpt>
      <trkpt lat="44.52886" lon="5.56591">
        <ele>740.8</ele>
        <time>2022-10-28T10:45:48Z</time>
      </trkpt>
      <trkpt lat="44.52884" lon="5.56598">
        <ele>740.9</ele>
        <time>2022-10-28T10:45:50Z</time>
      </trkpt>
      <trkpt lat="44.52883" lon="5.56604">
        <ele>741</ele>
        <time>2022-10-28T10:45:51Z</time>
      </trkpt>
      <trkpt lat="44.52881" lon="5.5661">
        <ele>741.2</ele>
        <time>2022-10-28T10:45:52Z</time>
      </trkpt>
      <trkpt lat="44.5288" lon="5.56616">
        <ele>741.3</ele>
        <time>2022-10-28T10:45:53Z</time>
      </trkpt>
      <trkpt lat="44.52878" lon="5.56621">
        <ele>741.4</ele>
        <time>2022-10-28T10:45:54Z</time>
      </trkpt>
      <trkpt lat="44.52877" lon="5.56626">
        <ele>741.5</ele>
        <time>2022-10-28T10:45:55Z</time>
      </trkpt>
      <trkpt lat="44.52875" lon="5.56631">
        <ele>741.6</ele>
        <time>2022-10-28T10:45:56Z</time>
      </trkpt>
      <trkpt lat="44.52874" lon="5.56632">
        <ele>741.7</ele>
        <time>2022-10-28T10:45:57Z</time>
      </trkpt>
      <trkpt lat="44.5287" lon="5.56641">
        <ele>742</ele>
        <time>2022-10-28T10:45:59Z</time>
      </trkpt>
      <trkpt lat="44.52867" lon="5.56644">
        <ele>742.1</ele>
        <time>2022-10-28T10:46:01Z</time>
      </trkpt>
      <trkpt lat="44.52864" lon="5.56647">
        <ele>742.2</ele>
        <time>2022-10-28T10:46:02Z</time>
      </trkpt>
      <trkpt lat="44.52862" lon="5.56651">
        <ele>742.4</ele>
        <time>2022-10-28T10:46:03Z</time>
      </trkpt>
      <trkpt lat="44.52859" lon="5.56654">
        <ele>742.5</ele>
        <time>2022-10-28T10:46:04Z</time>
      </trkpt>
      <trkpt lat="44.52856" lon="5.56657">
        <ele>742.7</ele>
        <time>2022-10-28T10:46:05Z</time>
      </trkpt>
      <trkpt lat="44.52853" lon="5.5666">
        <ele>742.9</ele>
        <time>2022-10-28T10:46:06Z</time>
      </trkpt>
      <trkpt lat="44.52849" lon="5.56662">
        <ele>743.1</ele>
        <time>2022-10-28T10:46:08Z</time>
      </trkpt>
      <trkpt lat="44.52846" lon="5.56666">
        <ele>743.2</ele>
        <time>2022-10-28T10:46:09Z</time>
      </trkpt>
      <trkpt lat="44.52843" lon="5.56669">
        <ele>743.4</ele>
        <time>2022-10-28T10:46:10Z</time>
      </trkpt>
      <trkpt lat="44.52842" lon="5.5667">
        <ele>743.5</ele>
        <time>2022-10-28T10:46:11Z</time>
      </trkpt>
      <trkpt lat="44.52839" lon="5.56672">
        <ele>743.6</ele>
        <time>2022-10-28T10:46:12Z</time>
      </trkpt>
      <trkpt lat="44.52835" lon="5.56673">
        <ele>743.8</ele>
        <time>2022-10-28T10:46:14Z</time>
      </trkpt>
      <trkpt lat="44.52832" lon="5.56675">
        <ele>744</ele>
        <time>2022-10-28T10:46:15Z</time>
      </trkpt>
      <trkpt lat="44.52828" lon="5.56678">
        <ele>744.1</ele>
        <time>2022-10-28T10:46:16Z</time>
      </trkpt>
      <trkpt lat="44.52824" lon="5.56679">
        <ele>744.3</ele>
        <time>2022-10-28T10:46:17Z</time>
      </trkpt>
      <trkpt lat="44.52821" lon="5.56682">
        <ele>744.4</ele>
        <time>2022-10-28T10:46:19Z</time>
      </trkpt>
      <trkpt lat="44.52817" lon="5.56684">
        <ele>744.6</ele>
        <time>2022-10-28T10:46:20Z</time>
      </trkpt>
      <trkpt lat="44.52814" lon="5.56688">
        <ele>744.7</ele>
        <time>2022-10-28T10:46:21Z</time>
      </trkpt>
      <trkpt lat="44.52811" lon="5.56691">
        <ele>744.8</ele>
        <time>2022-10-28T10:46:22Z</time>
      </trkpt>
      <trkpt lat="44.52808" lon="5.56695">
        <ele>744.9</ele>
        <time>2022-10-28T10:46:24Z</time>
      </trkpt>
      <trkpt lat="44.52804" lon="5.56699">
        <ele>745</ele>
        <time>2022-10-28T10:46:25Z</time>
      </trkpt>
      <trkpt lat="44.52801" lon="5.56702">
        <ele>745.1</ele>
        <time>2022-10-28T10:46:26Z</time>
      </trkpt>
      <trkpt lat="44.52798" lon="5.56705">
        <ele>745.2</ele>
        <time>2022-10-28T10:46:28Z</time>
      </trkpt>
      <trkpt lat="44.52795" lon="5.56708">
        <ele>745.2</ele>
        <time>2022-10-28T10:46:29Z</time>
      </trkpt>
      <trkpt lat="44.52791" lon="5.56711">
        <ele>745.3</ele>
        <time>2022-10-28T10:46:30Z</time>
      </trkpt>
      <trkpt lat="44.52788" lon="5.56713">
        <ele>745.4</ele>
        <time>2022-10-28T10:46:31Z</time>
      </trkpt>
      <trkpt lat="44.52786" lon="5.56714">
        <ele>745.4</ele>
        <time>2022-10-28T10:46:32Z</time>
      </trkpt>
      <trkpt lat="44.5278" lon="5.56717">
        <ele>745.5</ele>
        <time>2022-10-28T10:46:34Z</time>
      </trkpt>
      <trkpt lat="44.52776" lon="5.5672">
        <ele>745.6</ele>
        <time>2022-10-28T10:46:35Z</time>
      </trkpt>
      <trkpt lat="44.52772" lon="5.56722">
        <ele>745.6</ele>
        <time>2022-10-28T10:46:36Z</time>
      </trkpt>
      <trkpt lat="44.52768" lon="5.56725">
        <ele>745.7</ele>
        <time>2022-10-28T10:46:37Z</time>
      </trkpt>
      <trkpt lat="44.52764" lon="5.56727">
        <ele>745.8</ele>
        <time>2022-10-28T10:46:39Z</time>
      </trkpt>
      <trkpt lat="44.5276" lon="5.56728">
        <ele>745.8</ele>
        <time>2022-10-28T10:46:40Z</time>
      </trkpt>
      <trkpt lat="44.52754" lon="5.56731">
        <ele>745.9</ele>
        <time>2022-10-28T10:46:41Z</time>
      </trkpt>
      <trkpt lat="44.5275" lon="5.56733">
        <ele>746</ele>
        <time>2022-10-28T10:46:42Z</time>
      </trkpt>
      <trkpt lat="44.52746" lon="5.56736">
        <ele>746.1</ele>
        <time>2022-10-28T10:46:43Z</time>
      </trkpt>
      <trkpt lat="44.52741" lon="5.56738">
        <ele>746.3</ele>
        <time>2022-10-28T10:46:45Z</time>
      </trkpt>
      <trkpt lat="44.52738" lon="5.5674">
        <ele>746.4</ele>
        <time>2022-10-28T10:46:46Z</time>
      </trkpt>
      <trkpt lat="44.52734" lon="5.56742">
        <ele>746.5</ele>
        <time>2022-10-28T10:46:47Z</time>
      </trkpt>
      <trkpt lat="44.5273" lon="5.56744">
        <ele>746.6</ele>
        <time>2022-10-28T10:46:48Z</time>
      </trkpt>
      <trkpt lat="44.52726" lon="5.56746">
        <ele>746.7</ele>
        <time>2022-10-28T10:46:50Z</time>
      </trkpt>
      <trkpt lat="44.52723" lon="5.56748">
        <ele>746.9</ele>
        <time>2022-10-28T10:46:51Z</time>
      </trkpt>
      <trkpt lat="44.52719" lon="5.56751">
        <ele>747</ele>
        <time>2022-10-28T10:46:52Z</time>
      </trkpt>
      <trkpt lat="44.52717" lon="5.56753">
        <ele>747.1</ele>
        <time>2022-10-28T10:46:53Z</time>
      </trkpt>
      <trkpt lat="44.52713" lon="5.56756">
        <ele>747.1</ele>
        <time>2022-10-28T10:46:54Z</time>
      </trkpt>
      <trkpt lat="44.5271" lon="5.5676">
        <ele>747.2</ele>
        <time>2022-10-28T10:46:55Z</time>
      </trkpt>
      <trkpt lat="44.52708" lon="5.56763">
        <ele>747.3</ele>
        <time>2022-10-28T10:46:56Z</time>
      </trkpt>
      <trkpt lat="44.52704" lon="5.56768">
        <ele>747.4</ele>
        <time>2022-10-28T10:46:58Z</time>
      </trkpt>
      <trkpt lat="44.52701" lon="5.56773">
        <ele>747.5</ele>
        <time>2022-10-28T10:46:59Z</time>
      </trkpt>
      <trkpt lat="44.52698" lon="5.56778">
        <ele>747.5</ele>
        <time>2022-10-28T10:47:00Z</time>
      </trkpt>
      <trkpt lat="44.52695" lon="5.56784">
        <ele>747.6</ele>
        <time>2022-10-28T10:47:02Z</time>
      </trkpt>
      <trkpt lat="44.52692" lon="5.56789">
        <ele>747.7</ele>
        <time>2022-10-28T10:47:03Z</time>
      </trkpt>
      <trkpt lat="44.52688" lon="5.56795">
        <ele>747.8</ele>
        <time>2022-10-28T10:47:04Z</time>
      </trkpt>
      <trkpt lat="44.52686" lon="5.56801">
        <ele>747.8</ele>
        <time>2022-10-28T10:47:06Z</time>
      </trkpt>
      <trkpt lat="44.52683" lon="5.56806">
        <ele>747.9</ele>
        <time>2022-10-28T10:47:07Z</time>
      </trkpt>
      <trkpt lat="44.52681" lon="5.56811">
        <ele>747.9</ele>
        <time>2022-10-28T10:47:08Z</time>
      </trkpt>
      <trkpt lat="44.52678" lon="5.56816">
        <ele>748</ele>
        <time>2022-10-28T10:47:09Z</time>
      </trkpt>
      <trkpt lat="44.52676" lon="5.56821">
        <ele>748</ele>
        <time>2022-10-28T10:47:10Z</time>
      </trkpt>
      <trkpt lat="44.52673" lon="5.56825">
        <ele>748</ele>
        <time>2022-10-28T10:47:11Z</time>
      </trkpt>
      <trkpt lat="44.52671" lon="5.5683">
        <ele>748.1</ele>
        <time>2022-10-28T10:47:12Z</time>
      </trkpt>
      <trkpt lat="44.52667" lon="5.56837">
        <ele>748.1</ele>
        <time>2022-10-28T10:47:14Z</time>
      </trkpt>
      <trkpt lat="44.52664" lon="5.56843">
        <ele>748.2</ele>
        <time>2022-10-28T10:47:15Z</time>
      </trkpt>
      <trkpt lat="44.52662" lon="5.56848">
        <ele>748.2</ele>
        <time>2022-10-28T10:47:16Z</time>
      </trkpt>
      <trkpt lat="44.52659" lon="5.56854">
        <ele>748.3</ele>
        <time>2022-10-28T10:47:17Z</time>
      </trkpt>
      <trkpt lat="44.52657" lon="5.56858">
        <ele>748.3</ele>
        <time>2022-10-28T10:47:18Z</time>
      </trkpt>
      <trkpt lat="44.52655" lon="5.56864">
        <ele>748.4</ele>
        <time>2022-10-28T10:47:19Z</time>
      </trkpt>
      <trkpt lat="44.52653" lon="5.56869">
        <ele>748.5</ele>
        <time>2022-10-28T10:47:20Z</time>
      </trkpt>
      <trkpt lat="44.52651" lon="5.56876">
        <ele>748.6</ele>
        <time>2022-10-28T10:47:21Z</time>
      </trkpt>
      <trkpt lat="44.52648" lon="5.56883">
        <ele>748.7</ele>
        <time>2022-10-28T10:47:23Z</time>
      </trkpt>
      <trkpt lat="44.52646" lon="5.56889">
        <ele>748.8</ele>
        <time>2022-10-28T10:47:24Z</time>
      </trkpt>
      <trkpt lat="44.52645" lon="5.56894">
        <ele>748.8</ele>
        <time>2022-10-28T10:47:25Z</time>
      </trkpt>
      <trkpt lat="44.52643" lon="5.569">
        <ele>748.9</ele>
        <time>2022-10-28T10:47:26Z</time>
      </trkpt>
      <trkpt lat="44.52642" lon="5.56905">
        <ele>749</ele>
        <time>2022-10-28T10:47:27Z</time>
      </trkpt>
      <trkpt lat="44.5264" lon="5.56912">
        <ele>749.1</ele>
        <time>2022-10-28T10:47:28Z</time>
      </trkpt>
      <trkpt lat="44.52638" lon="5.56919">
        <ele>749.2</ele>
        <time>2022-10-28T10:47:30Z</time>
      </trkpt>
      <trkpt lat="44.52637" lon="5.56924">
        <ele>749.3</ele>
        <time>2022-10-28T10:47:31Z</time>
      </trkpt>
      <trkpt lat="44.52635" lon="5.5693">
        <ele>749.4</ele>
        <time>2022-10-28T10:47:32Z</time>
      </trkpt>
      <trkpt lat="44.52634" lon="5.56936">
        <ele>749.4</ele>
        <time>2022-10-28T10:47:33Z</time>
      </trkpt>
      <trkpt lat="44.52633" lon="5.5694">
        <ele>749.5</ele>
        <time>2022-10-28T10:47:34Z</time>
      </trkpt>
      <trkpt lat="44.52631" lon="5.56949">
        <ele>749.6</ele>
        <time>2022-10-28T10:47:36Z</time>
      </trkpt>
      <trkpt lat="44.52628" lon="5.56958">
        <ele>749.8</ele>
        <time>2022-10-28T10:47:37Z</time>
      </trkpt>
      <trkpt lat="44.52627" lon="5.56962">
        <ele>749.9</ele>
        <time>2022-10-28T10:47:38Z</time>
      </trkpt>
      <trkpt lat="44.52626" lon="5.56966">
        <ele>749.9</ele>
        <time>2022-10-28T10:47:39Z</time>
      </trkpt>
      <trkpt lat="44.52625" lon="5.56972">
        <ele>750</ele>
        <time>2022-10-28T10:47:40Z</time>
      </trkpt>
      <trkpt lat="44.52623" lon="5.56978">
        <ele>750.1</ele>
        <time>2022-10-28T10:47:41Z</time>
      </trkpt>
      <trkpt lat="44.52621" lon="5.56983">
        <ele>750.2</ele>
        <time>2022-10-28T10:47:42Z</time>
      </trkpt>
      <trkpt lat="44.52619" lon="5.56988">
        <ele>750.2</ele>
        <time>2022-10-28T10:47:44Z</time>
      </trkpt>
      <trkpt lat="44.52617" lon="5.56995">
        <ele>750.3</ele>
        <time>2022-10-28T10:47:45Z</time>
      </trkpt>
      <trkpt lat="44.52614" lon="5.57">
        <ele>750.4</ele>
        <time>2022-10-28T10:47:46Z</time>
      </trkpt>
      <trkpt lat="44.52611" lon="5.57006">
        <ele>750.5</ele>
        <time>2022-10-28T10:47:47Z</time>
      </trkpt>
      <trkpt lat="44.52609" lon="5.5701">
        <ele>750.5</ele>
        <time>2022-10-28T10:47:48Z</time>
      </trkpt>
      <trkpt lat="44.52607" lon="5.57014">
        <ele>750.6</ele>
        <time>2022-10-28T10:47:49Z</time>
      </trkpt>
      <trkpt lat="44.52603" lon="5.57019">
        <ele>750.7</ele>
        <time>2022-10-28T10:47:51Z</time>
      </trkpt>
      <trkpt lat="44.52599" lon="5.57024">
        <ele>750.8</ele>
        <time>2022-10-28T10:47:52Z</time>
      </trkpt>
      <trkpt lat="44.52597" lon="5.57028">
        <ele>750.9</ele>
        <time>2022-10-28T10:47:53Z</time>
      </trkpt>
      <trkpt lat="44.52593" lon="5.57032">
        <ele>751</ele>
        <time>2022-10-28T10:47:54Z</time>
      </trkpt>
      <trkpt lat="44.52588" lon="5.57038">
        <ele>751.2</ele>
        <time>2022-10-28T10:47:56Z</time>
      </trkpt>
      <trkpt lat="44.52584" lon="5.57042">
        <ele>751.4</ele>
        <time>2022-10-28T10:47:57Z</time>
      </trkpt>
      <trkpt lat="44.52581" lon="5.57044">
        <ele>751.4</ele>
        <time>2022-10-28T10:47:58Z</time>
      </trkpt>
      <trkpt lat="44.52576" lon="5.57047">
        <ele>751.6</ele>
        <time>2022-10-28T10:48:00Z</time>
      </trkpt>
      <trkpt lat="44.52572" lon="5.57051">
        <ele>751.7</ele>
        <time>2022-10-28T10:48:01Z</time>
      </trkpt>
      <trkpt lat="44.52568" lon="5.57053">
        <ele>751.9</ele>
        <time>2022-10-28T10:48:03Z</time>
      </trkpt>
      <trkpt lat="44.52564" lon="5.57055">
        <ele>752</ele>
        <time>2022-10-28T10:48:04Z</time>
      </trkpt>
      <trkpt lat="44.5256" lon="5.57058">
        <ele>752.2</ele>
        <time>2022-10-28T10:48:05Z</time>
      </trkpt>
      <trkpt lat="44.52557" lon="5.57059">
        <ele>752.3</ele>
        <time>2022-10-28T10:48:06Z</time>
      </trkpt>
      <trkpt lat="44.52554" lon="5.57061">
        <ele>752.5</ele>
        <time>2022-10-28T10:48:07Z</time>
      </trkpt>
      <trkpt lat="44.5255" lon="5.57061">
        <ele>752.6</ele>
        <time>2022-10-28T10:48:08Z</time>
      </trkpt>
      <trkpt lat="44.52547" lon="5.57063">
        <ele>752.8</ele>
        <time>2022-10-28T10:48:10Z</time>
      </trkpt>
      <trkpt lat="44.52543" lon="5.57065">
        <ele>752.9</ele>
        <time>2022-10-28T10:48:11Z</time>
      </trkpt>
      <trkpt lat="44.5254" lon="5.57066">
        <ele>753</ele>
        <time>2022-10-28T10:48:12Z</time>
      </trkpt>
      <trkpt lat="44.52537" lon="5.57067">
        <ele>753.2</ele>
        <time>2022-10-28T10:48:13Z</time>
      </trkpt>
      <trkpt lat="44.52534" lon="5.57068">
        <ele>753.3</ele>
        <time>2022-10-28T10:48:14Z</time>
      </trkpt>
      <trkpt lat="44.52532" lon="5.5707">
        <ele>753.4</ele>
        <time>2022-10-28T10:48:15Z</time>
      </trkpt>
      <trkpt lat="44.52529" lon="5.57072">
        <ele>753.5</ele>
        <time>2022-10-28T10:48:17Z</time>
      </trkpt>
      <trkpt lat="44.52527" lon="5.57074">
        <ele>753.7</ele>
        <time>2022-10-28T10:48:18Z</time>
      </trkpt>
      <trkpt lat="44.52524" lon="5.57077">
        <ele>753.9</ele>
        <time>2022-10-28T10:48:19Z</time>
      </trkpt>
      <trkpt lat="44.52522" lon="5.57079">
        <ele>754</ele>
        <time>2022-10-28T10:48:20Z</time>
      </trkpt>
      <trkpt lat="44.52518" lon="5.57083">
        <ele>754.2</ele>
        <time>2022-10-28T10:48:22Z</time>
      </trkpt>
      <trkpt lat="44.52515" lon="5.57086">
        <ele>754.4</ele>
        <time>2022-10-28T10:48:23Z</time>
      </trkpt>
      <trkpt lat="44.52514" lon="5.57089">
        <ele>754.6</ele>
        <time>2022-10-28T10:48:24Z</time>
      </trkpt>
      <trkpt lat="44.52511" lon="5.57093">
        <ele>754.8</ele>
        <time>2022-10-28T10:48:26Z</time>
      </trkpt>
      <trkpt lat="44.52508" lon="5.57097">
        <ele>755</ele>
        <time>2022-10-28T10:48:27Z</time>
      </trkpt>
      <trkpt lat="44.52507" lon="5.571">
        <ele>755.1</ele>
        <time>2022-10-28T10:48:28Z</time>
      </trkpt>
      <trkpt lat="44.52505" lon="5.57104">
        <ele>755.3</ele>
        <time>2022-10-28T10:48:30Z</time>
      </trkpt>
      <trkpt lat="44.52503" lon="5.57108">
        <ele>755.5</ele>
        <time>2022-10-28T10:48:31Z</time>
      </trkpt>
      <trkpt lat="44.52502" lon="5.57112">
        <ele>755.7</ele>
        <time>2022-10-28T10:48:32Z</time>
      </trkpt>
      <trkpt lat="44.525" lon="5.57119">
        <ele>756</ele>
        <time>2022-10-28T10:48:35Z</time>
      </trkpt>
      <trkpt lat="44.52499" lon="5.57124">
        <ele>756.1</ele>
        <time>2022-10-28T10:48:36Z</time>
      </trkpt>
      <trkpt lat="44.52498" lon="5.57128">
        <ele>756.3</ele>
        <time>2022-10-28T10:48:37Z</time>
      </trkpt>
      <trkpt lat="44.52497" lon="5.57132">
        <ele>756.4</ele>
        <time>2022-10-28T10:48:39Z</time>
      </trkpt>
      <trkpt lat="44.52496" lon="5.57136">
        <ele>756.6</ele>
        <time>2022-10-28T10:48:40Z</time>
      </trkpt>
      <trkpt lat="44.52495" lon="5.5714">
        <ele>756.7</ele>
        <time>2022-10-28T10:48:41Z</time>
      </trkpt>
      <trkpt lat="44.52494" lon="5.57145">
        <ele>756.9</ele>
        <time>2022-10-28T10:48:42Z</time>
      </trkpt>
      <trkpt lat="44.52494" lon="5.57147">
        <ele>757</ele>
        <time>2022-10-28T10:48:43Z</time>
      </trkpt>
      <trkpt lat="44.52493" lon="5.57152">
        <ele>757.1</ele>
        <time>2022-10-28T10:48:44Z</time>
      </trkpt>
      <trkpt lat="44.52493" lon="5.57154">
        <ele>757.2</ele>
        <time>2022-10-28T10:48:45Z</time>
      </trkpt>
      <trkpt lat="44.52491" lon="5.57161">
        <ele>757.5</ele>
        <time>2022-10-28T10:48:47Z</time>
      </trkpt>
      <trkpt lat="44.52491" lon="5.57164">
        <ele>757.6</ele>
        <time>2022-10-28T10:48:48Z</time>
      </trkpt>
      <trkpt lat="44.5249" lon="5.57166">
        <ele>757.7</ele>
        <time>2022-10-28T10:48:49Z</time>
      </trkpt>
      <trkpt lat="44.52489" lon="5.5717">
        <ele>757.8</ele>
        <time>2022-10-28T10:48:50Z</time>
      </trkpt>
      <trkpt lat="44.52489" lon="5.57174">
        <ele>757.9</ele>
        <time>2022-10-28T10:48:52Z</time>
      </trkpt>
      <trkpt lat="44.52489" lon="5.57178">
        <ele>758</ele>
        <time>2022-10-28T10:48:53Z</time>
      </trkpt>
      <trkpt lat="44.52488" lon="5.57182">
        <ele>758.2</ele>
        <time>2022-10-28T10:48:54Z</time>
      </trkpt>
      <trkpt lat="44.52488" lon="5.57185">
        <ele>758.2</ele>
        <time>2022-10-28T10:48:55Z</time>
      </trkpt>
      <trkpt lat="44.52487" lon="5.5719">
        <ele>758.4</ele>
        <time>2022-10-28T10:48:57Z</time>
      </trkpt>
      <trkpt lat="44.52486" lon="5.57195">
        <ele>758.5</ele>
        <time>2022-10-28T10:48:58Z</time>
      </trkpt>
      <trkpt lat="44.52486" lon="5.57199">
        <ele>758.6</ele>
        <time>2022-10-28T10:48:59Z</time>
      </trkpt>
      <trkpt lat="44.52485" lon="5.57205">
        <ele>758.7</ele>
        <time>2022-10-28T10:49:01Z</time>
      </trkpt>
      <trkpt lat="44.52484" lon="5.57211">
        <ele>758.8</ele>
        <time>2022-10-28T10:49:03Z</time>
      </trkpt>
      <trkpt lat="44.52483" lon="5.57213">
        <ele>758.9</ele>
        <time>2022-10-28T10:49:04Z</time>
      </trkpt>
      <trkpt lat="44.52482" lon="5.57218">
        <ele>759</ele>
        <time>2022-10-28T10:49:05Z</time>
      </trkpt>
      <trkpt lat="44.52481" lon="5.57221">
        <ele>759.1</ele>
        <time>2022-10-28T10:49:06Z</time>
      </trkpt>
      <trkpt lat="44.5248" lon="5.57225">
        <ele>759.1</ele>
        <time>2022-10-28T10:49:07Z</time>
      </trkpt>
      <trkpt lat="44.52478" lon="5.57229">
        <ele>759.2</ele>
        <time>2022-10-28T10:49:08Z</time>
      </trkpt>
      <trkpt lat="44.52477" lon="5.57232">
        <ele>759.2</ele>
        <time>2022-10-28T10:49:09Z</time>
      </trkpt>
      <trkpt lat="44.52475" lon="5.57237">
        <ele>759.3</ele>
        <time>2022-10-28T10:49:11Z</time>
      </trkpt>
      <trkpt lat="44.52472" lon="5.57241">
        <ele>759.3</ele>
        <time>2022-10-28T10:49:12Z</time>
      </trkpt>
      <trkpt lat="44.52469" lon="5.57244">
        <ele>759.4</ele>
        <time>2022-10-28T10:49:14Z</time>
      </trkpt>
      <trkpt lat="44.52467" lon="5.57247">
        <ele>759.4</ele>
        <time>2022-10-28T10:49:15Z</time>
      </trkpt>
      <trkpt lat="44.52464" lon="5.5725">
        <ele>759.4</ele>
        <time>2022-10-28T10:49:16Z</time>
      </trkpt>
      <trkpt lat="44.5246" lon="5.57253">
        <ele>759.4</ele>
        <time>2022-10-28T10:49:17Z</time>
      </trkpt>
      <trkpt lat="44.52459" lon="5.57254">
        <ele>759.5</ele>
        <time>2022-10-28T10:49:18Z</time>
      </trkpt>
      <trkpt lat="44.52456" lon="5.57256">
        <ele>759.5</ele>
        <time>2022-10-28T10:49:19Z</time>
      </trkpt>
      <trkpt lat="44.52452" lon="5.57257">
        <ele>759.5</ele>
        <time>2022-10-28T10:49:20Z</time>
      </trkpt>
      <trkpt lat="44.52449" lon="5.57259">
        <ele>759.5</ele>
        <time>2022-10-28T10:49:22Z</time>
      </trkpt>
      <trkpt lat="44.52447" lon="5.57261">
        <ele>759.6</ele>
        <time>2022-10-28T10:49:23Z</time>
      </trkpt>
      <trkpt lat="44.52444" lon="5.57262">
        <ele>759.6</ele>
        <time>2022-10-28T10:49:24Z</time>
      </trkpt>
      <trkpt lat="44.5244" lon="5.57265">
        <ele>759.6</ele>
        <time>2022-10-28T10:49:26Z</time>
      </trkpt>
      <trkpt lat="44.52436" lon="5.57267">
        <ele>759.6</ele>
        <time>2022-10-28T10:49:27Z</time>
      </trkpt>
      <trkpt lat="44.52433" lon="5.57269">
        <ele>759.6</ele>
        <time>2022-10-28T10:49:28Z</time>
      </trkpt>
      <trkpt lat="44.5243" lon="5.5727">
        <ele>759.6</ele>
        <time>2022-10-28T10:49:29Z</time>
      </trkpt>
      <trkpt lat="44.52426" lon="5.57273">
        <ele>759.6</ele>
        <time>2022-10-28T10:49:30Z</time>
      </trkpt>
      <trkpt lat="44.52421" lon="5.57275">
        <ele>759.6</ele>
        <time>2022-10-28T10:49:31Z</time>
      </trkpt>
      <trkpt lat="44.52415" lon="5.57278">
        <ele>759.7</ele>
        <time>2022-10-28T10:49:33Z</time>
      </trkpt>
      <trkpt lat="44.5241" lon="5.5728">
        <ele>759.7</ele>
        <time>2022-10-28T10:49:34Z</time>
      </trkpt>
      <trkpt lat="44.52404" lon="5.57282">
        <ele>759.7</ele>
        <time>2022-10-28T10:49:36Z</time>
      </trkpt>
      <trkpt lat="44.52399" lon="5.57284">
        <ele>759.8</ele>
        <time>2022-10-28T10:49:37Z</time>
      </trkpt>
      <trkpt lat="44.52395" lon="5.57286">
        <ele>759.8</ele>
        <time>2022-10-28T10:49:38Z</time>
      </trkpt>
      <trkpt lat="44.52391" lon="5.57288">
        <ele>759.9</ele>
        <time>2022-10-28T10:49:39Z</time>
      </trkpt>
      <trkpt lat="44.52388" lon="5.57289">
        <ele>759.9</ele>
        <time>2022-10-28T10:49:40Z</time>
      </trkpt>
      <trkpt lat="44.52383" lon="5.57292">
        <ele>760</ele>
        <time>2022-10-28T10:49:42Z</time>
      </trkpt>
      <trkpt lat="44.52378" lon="5.57294">
        <ele>760</ele>
        <time>2022-10-28T10:49:43Z</time>
      </trkpt>
      <trkpt lat="44.52374" lon="5.57297">
        <ele>760.1</ele>
        <time>2022-10-28T10:49:44Z</time>
      </trkpt>
      <trkpt lat="44.5237" lon="5.57299">
        <ele>760.1</ele>
        <time>2022-10-28T10:49:45Z</time>
      </trkpt>
      <trkpt lat="44.52365" lon="5.57303">
        <ele>760.2</ele>
        <time>2022-10-28T10:49:47Z</time>
      </trkpt>
      <trkpt lat="44.52361" lon="5.57307">
        <ele>760.3</ele>
        <time>2022-10-28T10:49:48Z</time>
      </trkpt>
      <trkpt lat="44.52357" lon="5.5731">
        <ele>760.3</ele>
        <time>2022-10-28T10:49:49Z</time>
      </trkpt>
      <trkpt lat="44.52354" lon="5.57313">
        <ele>760.4</ele>
        <time>2022-10-28T10:49:50Z</time>
      </trkpt>
      <trkpt lat="44.52352" lon="5.57315">
        <ele>760.4</ele>
        <time>2022-10-28T10:49:51Z</time>
      </trkpt>
      <trkpt lat="44.52348" lon="5.57318">
        <ele>760.5</ele>
        <time>2022-10-28T10:49:52Z</time>
      </trkpt>
      <trkpt lat="44.52344" lon="5.57323">
        <ele>760.6</ele>
        <time>2022-10-28T10:49:53Z</time>
      </trkpt>
      <trkpt lat="44.52342" lon="5.57326">
        <ele>760.6</ele>
        <time>2022-10-28T10:49:54Z</time>
      </trkpt>
      <trkpt lat="44.52338" lon="5.5733">
        <ele>760.7</ele>
        <time>2022-10-28T10:49:56Z</time>
      </trkpt>
      <trkpt lat="44.52335" lon="5.57334">
        <ele>760.8</ele>
        <time>2022-10-28T10:49:57Z</time>
      </trkpt>
      <trkpt lat="44.52332" lon="5.57337">
        <ele>760.8</ele>
        <time>2022-10-28T10:49:58Z</time>
      </trkpt>
      <trkpt lat="44.52329" lon="5.57341">
        <ele>760.9</ele>
        <time>2022-10-28T10:49:59Z</time>
      </trkpt>
      <trkpt lat="44.52327" lon="5.57345">
        <ele>761</ele>
        <time>2022-10-28T10:50:00Z</time>
      </trkpt>
      <trkpt lat="44.52324" lon="5.5735">
        <ele>761.1</ele>
        <time>2022-10-28T10:50:02Z</time>
      </trkpt>
      <trkpt lat="44.52321" lon="5.57354">
        <ele>761.2</ele>
        <time>2022-10-28T10:50:03Z</time>
      </trkpt>
      <trkpt lat="44.52317" lon="5.57359">
        <ele>761.2</ele>
        <time>2022-10-28T10:50:04Z</time>
      </trkpt>
      <trkpt lat="44.52315" lon="5.57363">
        <ele>761.3</ele>
        <time>2022-10-28T10:50:05Z</time>
      </trkpt>
      <trkpt lat="44.52312" lon="5.57367">
        <ele>761.4</ele>
        <time>2022-10-28T10:50:06Z</time>
      </trkpt>
      <trkpt lat="44.5231" lon="5.5737">
        <ele>761.5</ele>
        <time>2022-10-28T10:50:07Z</time>
      </trkpt>
      <trkpt lat="44.52306" lon="5.57376">
        <ele>761.6</ele>
        <time>2022-10-28T10:50:09Z</time>
      </trkpt>
      <trkpt lat="44.52302" lon="5.5738">
        <ele>761.7</ele>
        <time>2022-10-28T10:50:10Z</time>
      </trkpt>
      <trkpt lat="44.52299" lon="5.57383">
        <ele>761.8</ele>
        <time>2022-10-28T10:50:11Z</time>
      </trkpt>
      <trkpt lat="44.52296" lon="5.57385">
        <ele>761.8</ele>
        <time>2022-10-28T10:50:12Z</time>
      </trkpt>
      <trkpt lat="44.52295" lon="5.57386">
        <ele>761.9</ele>
        <time>2022-10-28T10:50:13Z</time>
      </trkpt>
      <trkpt lat="44.52295" lon="5.57386">
        <ele>761.9</ele>
        <time>2022-10-28T10:50:14Z</time>
      </trkpt>
      <trkpt lat="44.52295" lon="5.57385">
        <ele>761.9</ele>
        <time>2022-10-28T10:50:15Z</time>
      </trkpt>
      <trkpt lat="44.52295" lon="5.57385">
        <ele>761.9</ele>
        <time>2022-10-28T10:50:16Z</time>
      </trkpt>
      <trkpt lat="44.52295" lon="5.57385">
        <ele>761.9</ele>
        <time>2022-10-28T10:50:17Z</time>
      </trkpt>
      <trkpt lat="44.52295" lon="5.57385">
        <ele>761.9</ele>
        <time>2022-10-28T10:50:18Z</time>
      </trkpt>
      <trkpt lat="44.52295" lon="5.57384">
        <ele>761.9</ele>
        <time>2022-10-28T10:50:19Z</time>
      </trkpt>
      <trkpt lat="44.52295" lon="5.57384">
        <ele>761.9</ele>
        <time>2022-10-28T10:50:20Z</time>
      </trkpt>
      <trkpt lat="44.52295" lon="5.57384">
        <ele>761.9</ele>
        <time>2022-10-28T10:50:21Z</time>
      </trkpt>
      <trkpt lat="44.52295" lon="5.57384">
        <ele>761.9</ele>
        <time>2022-10-28T10:50:22Z</time>
      </trkpt>
      <trkpt lat="44.52295" lon="5.57384">
        <ele>761.9</ele>
        <time>2022-10-28T10:50:23Z</time>
      </trkpt>
      <trkpt lat="44.52295" lon="5.57383">
        <ele>761.9</ele>
        <time>2022-10-28T10:50:24Z</time>
      </trkpt>
      <trkpt lat="44.52295" lon="5.57383">
        <ele>761.9</ele>
        <time>2022-10-28T10:50:25Z</time>
      </trkpt>
      <trkpt lat="44.52295" lon="5.57383">
        <ele>761.9</ele>
        <time>2022-10-28T10:50:49Z</time>
      </trkpt>
      <trkpt lat="44.52295" lon="5.57383">
        <ele>761.9</ele>
        <time>2022-10-28T10:50:50Z</time>
      </trkpt>
      <trkpt lat="44.52295" lon="5.57382">
        <ele>761.9</ele>
        <time>2022-10-28T10:50:51Z</time>
      </trkpt>
      <trkpt lat="44.52295" lon="5.57382">
        <ele>761.9</ele>
        <time>2022-10-28T10:50:52Z</time>
      </trkpt>
      <trkpt lat="44.52295" lon="5.57382">
        <ele>761.9</ele>
        <time>2022-10-28T10:50:53Z</time>
      </trkpt>
      <trkpt lat="44.52295" lon="5.57382">
        <ele>761.9</ele>
        <time>2022-10-28T10:50:54Z</time>
      </trkpt>
      <trkpt lat="44.52295" lon="5.57381">
        <ele>761.9</ele>
        <time>2022-10-28T10:50:55Z</time>
      </trkpt>
      <trkpt lat="44.52295" lon="5.57381">
        <ele>761.9</ele>
        <time>2022-10-28T10:50:56Z</time>
      </trkpt>
      <trkpt lat="44.52295" lon="5.57381">
        <ele>762</ele>
        <time>2022-10-28T10:50:57Z</time>
      </trkpt>
      <trkpt lat="44.52295" lon="5.57381">
        <ele>762</ele>
        <time>2022-10-28T10:50:58Z</time>
      </trkpt>
      <trkpt lat="44.52295" lon="5.57381">
        <ele>762</ele>
        <time>2022-10-28T10:51:00Z</time>
      </trkpt>
      <trkpt lat="44.52295" lon="5.5738">
        <ele>762</ele>
        <time>2022-10-28T10:51:02Z</time>
      </trkpt>
      <trkpt lat="44.52295" lon="5.5738">
        <ele>762</ele>
        <time>2022-10-28T10:51:03Z</time>
      </trkpt>
      <trkpt lat="44.52295" lon="5.5738">
        <ele>762</ele>
        <time>2022-10-28T10:51:05Z</time>
      </trkpt>
      <trkpt lat="44.52295" lon="5.5738">
        <ele>762</ele>
        <time>2022-10-28T10:51:06Z</time>
      </trkpt>
      <trkpt lat="44.52295" lon="5.57379">
        <ele>762</ele>
        <time>2022-10-28T10:51:07Z</time>
      </trkpt>
      <trkpt lat="44.52295" lon="5.57379">
        <ele>762</ele>
        <time>2022-10-28T10:51:08Z</time>
      </trkpt>
      <trkpt lat="44.52295" lon="5.57379">
        <ele>762</ele>
        <time>2022-10-28T10:51:09Z</time>
      </trkpt>
      <trkpt lat="44.52295" lon="5.57379">
        <ele>762</ele>
        <time>2022-10-28T10:51:10Z</time>
      </trkpt>
      <trkpt lat="44.52295" lon="5.57378">
        <ele>762</ele>
        <time>2022-10-28T10:51:11Z</time>
      </trkpt>
      <trkpt lat="44.52295" lon="5.57378">
        <ele>762</ele>
        <time>2022-10-28T10:51:12Z</time>
      </trkpt>
      <trkpt lat="44.52295" lon="5.57378">
        <ele>762</ele>
        <time>2022-10-28T10:51:13Z</time>
      </trkpt>
      <trkpt lat="44.52295" lon="5.57378">
        <ele>762</ele>
        <time>2022-10-28T10:51:14Z</time>
      </trkpt>
      <trkpt lat="44.52295" lon="5.57377">
        <ele>762</ele>
        <time>2022-10-28T10:51:15Z</time>
      </trkpt>
      <trkpt lat="44.52295" lon="5.57377">
        <ele>762</ele>
        <time>2022-10-28T10:51:16Z</time>
      </trkpt>
      <trkpt lat="44.52295" lon="5.57377">
        <ele>762</ele>
        <time>2022-10-28T10:51:32Z</time>
      </trkpt>
      <trkpt lat="44.52295" lon="5.57377">
        <ele>762</ele>
        <time>2022-10-28T10:51:34Z</time>
      </trkpt>
      <trkpt lat="44.52295" lon="5.57377">
        <ele>762</ele>
        <time>2022-10-28T10:51:35Z</time>
      </trkpt>
      <trkpt lat="44.52295" lon="5.57376">
        <ele>762</ele>
        <time>2022-10-28T10:51:36Z</time>
      </trkpt>
      <trkpt lat="44.52295" lon="5.57376">
        <ele>762</ele>
        <time>2022-10-28T10:51:37Z</time>
      </trkpt>
      <trkpt lat="44.52295" lon="5.57376">
        <ele>762</ele>
        <time>2022-10-28T10:51:38Z</time>
      </trkpt>
      <trkpt lat="44.52295" lon="5.57376">
        <ele>762</ele>
        <time>2022-10-28T10:51:40Z</time>
      </trkpt>
      <trkpt lat="44.52295" lon="5.57375">
        <ele>762</ele>
        <time>2022-10-28T10:51:41Z</time>
      </trkpt>
      <trkpt lat="44.52296" lon="5.57374">
        <ele>762.1</ele>
        <time>2022-10-28T10:51:42Z</time>
      </trkpt>
      <trkpt lat="44.52296" lon="5.57374">
        <ele>762.1</ele>
        <time>2022-10-28T10:51:43Z</time>
      </trkpt>
      <trkpt lat="44.52297" lon="5.57374">
        <ele>762.1</ele>
        <time>2022-10-28T10:51:44Z</time>
      </trkpt>
      <trkpt lat="44.52297" lon="5.57374">
        <ele>762.1</ele>
        <time>2022-10-28T10:51:45Z</time>
      </trkpt>
      <trkpt lat="44.52297" lon="5.57375">
        <ele>762.1</ele>
        <time>2022-10-28T10:51:46Z</time>
      </trkpt>
      <trkpt lat="44.52298" lon="5.57375">
        <ele>762.1</ele>
        <time>2022-10-28T10:51:47Z</time>
      </trkpt>
      <trkpt lat="44.52298" lon="5.57375">
        <ele>762.1</ele>
        <time>2022-10-28T10:51:48Z</time>
      </trkpt>
      <trkpt lat="44.52298" lon="5.57375">
        <ele>762.1</ele>
        <time>2022-10-28T10:51:49Z</time>
      </trkpt>
      <trkpt lat="44.52298" lon="5.57375">
        <ele>762.1</ele>
        <time>2022-10-28T10:51:50Z</time>
      </trkpt>
      <trkpt lat="44.52298" lon="5.57375">
        <ele>762.1</ele>
        <time>2022-10-28T10:51:51Z</time>
      </trkpt>
      <trkpt lat="44.52298" lon="5.57375">
        <ele>762.1</ele>
        <time>2022-10-28T10:51:52Z</time>
      </trkpt>
      <trkpt lat="44.52296" lon="5.57378">
        <ele>762.2</ele>
        <time>2022-10-28T10:51:59Z</time>
      </trkpt>
      <trkpt lat="44.52294" lon="5.57379">
        <ele>762.2</ele>
        <time>2022-10-28T10:52:00Z</time>
      </trkpt>
      <trkpt lat="44.52293" lon="5.57379">
        <ele>762.2</ele>
        <time>2022-10-28T10:52:01Z</time>
      </trkpt>
      <trkpt lat="44.52293" lon="5.57378">
        <ele>762.3</ele>
        <time>2022-10-28T10:52:03Z</time>
      </trkpt>
      <trkpt lat="44.52293" lon="5.57378">
        <ele>762.3</ele>
        <time>2022-10-28T10:52:04Z</time>
      </trkpt>
      <trkpt lat="44.52294" lon="5.57378">
        <ele>762.3</ele>
        <time>2022-10-28T10:52:05Z</time>
      </trkpt>
      <trkpt lat="44.52296" lon="5.57378">
        <ele>762.3</ele>
        <time>2022-10-28T10:52:07Z</time>
      </trkpt>
      <trkpt lat="44.52297" lon="5.57377">
        <ele>762.3</ele>
        <time>2022-10-28T10:52:08Z</time>
      </trkpt>
      <trkpt lat="44.52298" lon="5.57377">
        <ele>762.4</ele>
        <time>2022-10-28T10:52:09Z</time>
      </trkpt>
      <trkpt lat="44.523" lon="5.57377">
        <ele>762.4</ele>
        <time>2022-10-28T10:52:10Z</time>
      </trkpt>
      <trkpt lat="44.52301" lon="5.57376">
        <ele>762.4</ele>
        <time>2022-10-28T10:52:11Z</time>
      </trkpt>
      <trkpt lat="44.52302" lon="5.57375">
        <ele>762.4</ele>
        <time>2022-10-28T10:52:13Z</time>
      </trkpt>
      <trkpt lat="44.52303" lon="5.57374">
        <ele>762.4</ele>
        <time>2022-10-28T10:52:14Z</time>
      </trkpt>
      <trkpt lat="44.52303" lon="5.57373">
        <ele>762.4</ele>
        <time>2022-10-28T10:52:15Z</time>
      </trkpt>
      <trkpt lat="44.52303" lon="5.57373">
        <ele>762.4</ele>
        <time>2022-10-28T10:52:16Z</time>
      </trkpt>
      <trkpt lat="44.52303" lon="5.57373">
        <ele>762.5</ele>
        <time>2022-10-28T10:52:17Z</time>
      </trkpt>
      <trkpt lat="44.52302" lon="5.57374">
        <ele>762.5</ele>
        <time>2022-10-28T10:52:18Z</time>
      </trkpt>
      <trkpt lat="44.52302" lon="5.57374">
        <ele>762.5</ele>
        <time>2022-10-28T10:52:19Z</time>
      </trkpt>
      <trkpt lat="44.52301" lon="5.57374">
        <ele>762.5</ele>
        <time>2022-10-28T10:52:21Z</time>
      </trkpt>
      <trkpt lat="44.523" lon="5.57374">
        <ele>762.5</ele>
        <time>2022-10-28T10:52:22Z</time>
      </trkpt>
      <trkpt lat="44.52297" lon="5.57378">
        <ele>762.5</ele>
        <time>2022-10-28T10:52:23Z</time>
      </trkpt>
      <trkpt lat="44.52296" lon="5.57379">
        <ele>762.5</ele>
        <time>2022-10-28T10:52:24Z</time>
      </trkpt>
      <trkpt lat="44.52294" lon="5.57382">
        <ele>762.6</ele>
        <time>2022-10-28T10:52:25Z</time>
      </trkpt>
      <trkpt lat="44.52293" lon="5.57383">
        <ele>762.6</ele>
        <time>2022-10-28T10:52:26Z</time>
      </trkpt>
      <trkpt lat="44.52291" lon="5.57383">
        <ele>762.6</ele>
        <time>2022-10-28T10:52:27Z</time>
      </trkpt>
      <trkpt lat="44.5229" lon="5.57384">
        <ele>762.6</ele>
        <time>2022-10-28T10:52:28Z</time>
      </trkpt>
      <trkpt lat="44.52289" lon="5.57384">
        <ele>762.6</ele>
        <time>2022-10-28T10:52:29Z</time>
      </trkpt>
      <trkpt lat="44.52287" lon="5.57384">
        <ele>762.6</ele>
        <time>2022-10-28T10:52:30Z</time>
      </trkpt>
      <trkpt lat="44.52287" lon="5.57384">
        <ele>762.7</ele>
        <time>2022-10-28T10:52:31Z</time>
      </trkpt>
      <trkpt lat="44.52287" lon="5.57382">
        <ele>762.7</ele>
        <time>2022-10-28T10:52:33Z</time>
      </trkpt>
      <trkpt lat="44.52287" lon="5.57382">
        <ele>762.7</ele>
        <time>2022-10-28T10:52:34Z</time>
      </trkpt>
      <trkpt lat="44.52287" lon="5.57382">
        <ele>762.7</ele>
        <time>2022-10-28T10:52:35Z</time>
      </trkpt>
      <trkpt lat="44.52287" lon="5.57382">
        <ele>762.7</ele>
        <time>2022-10-28T10:52:36Z</time>
      </trkpt>
      <trkpt lat="44.52287" lon="5.57382">
        <ele>762.7</ele>
        <time>2022-10-28T10:52:37Z</time>
      </trkpt>
      <trkpt lat="44.52288" lon="5.57382">
        <ele>762.7</ele>
        <time>2022-10-28T10:52:38Z</time>
      </trkpt>
      <trkpt lat="44.52288" lon="5.57382">
        <ele>762.7</ele>
        <time>2022-10-28T10:52:39Z</time>
      </trkpt>
      <trkpt lat="44.52288" lon="5.57382">
        <ele>762.7</ele>
        <time>2022-10-28T10:52:40Z</time>
      </trkpt>
      <trkpt lat="44.52288" lon="5.57381">
        <ele>762.7</ele>
        <time>2022-10-28T10:52:41Z</time>
      </trkpt>
      <trkpt lat="44.52288" lon="5.57381">
        <ele>762.7</ele>
        <time>2022-10-28T10:52:42Z</time>
      </trkpt>
      <trkpt lat="44.52288" lon="5.57381">
        <ele>762.7</ele>
        <time>2022-10-28T10:52:43Z</time>
      </trkpt>
      <trkpt lat="44.52288" lon="5.57381">
        <ele>762.7</ele>
        <time>2022-10-28T10:52:44Z</time>
      </trkpt>
      <trkpt lat="44.52288" lon="5.57381">
        <ele>762.7</ele>
        <time>2022-10-28T10:52:45Z</time>
      </trkpt>
      <trkpt lat="44.52288" lon="5.57381">
        <ele>762.7</ele>
        <time>2022-10-28T10:52:46Z</time>
      </trkpt>
      <trkpt lat="44.52288" lon="5.57381">
        <ele>762.7</ele>
        <time>2022-10-28T10:52:47Z</time>
      </trkpt>
      <trkpt lat="44.52284" lon="5.57384">
        <ele>762.7</ele>
        <time>2022-10-28T10:52:58Z</time>
      </trkpt>
      <trkpt lat="44.52283" lon="5.57384">
        <ele>762.7</ele>
        <time>2022-10-28T10:52:59Z</time>
      </trkpt>
      <trkpt lat="44.52283" lon="5.57384">
        <ele>762.7</ele>
        <time>2022-10-28T10:53:00Z</time>
      </trkpt>
      <trkpt lat="44.52283" lon="5.57385">
        <ele>762.7</ele>
        <time>2022-10-28T10:53:01Z</time>
      </trkpt>
      <trkpt lat="44.52283" lon="5.57385">
        <ele>762.7</ele>
        <time>2022-10-28T10:53:02Z</time>
      </trkpt>
      <trkpt lat="44.52283" lon="5.57385">
        <ele>762.7</ele>
        <time>2022-10-28T10:53:03Z</time>
      </trkpt>
      <trkpt lat="44.52282" lon="5.57386">
        <ele>762.7</ele>
        <time>2022-10-28T10:53:05Z</time>
      </trkpt>
      <trkpt lat="44.5228" lon="5.57386">
        <ele>762.7</ele>
        <time>2022-10-28T10:53:06Z</time>
      </trkpt>
      <trkpt lat="44.52276" lon="5.57387">
        <ele>762.8</ele>
        <time>2022-10-28T10:53:07Z</time>
      </trkpt>
      <trkpt lat="44.52275" lon="5.57387">
        <ele>762.8</ele>
        <time>2022-10-28T10:53:08Z</time>
      </trkpt>
      <trkpt lat="44.52271" lon="5.57388">
        <ele>762.8</ele>
        <time>2022-10-28T10:53:09Z</time>
      </trkpt>
      <trkpt lat="44.52268" lon="5.57389">
        <ele>762.8</ele>
        <time>2022-10-28T10:53:10Z</time>
      </trkpt>
      <trkpt lat="44.52263" lon="5.5739">
        <ele>762.8</ele>
        <time>2022-10-28T10:53:11Z</time>
      </trkpt>
      <trkpt lat="44.52259" lon="5.57391">
        <ele>762.8</ele>
        <time>2022-10-28T10:53:13Z</time>
      </trkpt>
      <trkpt lat="44.52254" lon="5.57391">
        <ele>762.9</ele>
        <time>2022-10-28T10:53:14Z</time>
      </trkpt>
      <trkpt lat="44.5225" lon="5.57392">
        <ele>762.9</ele>
        <time>2022-10-28T10:53:15Z</time>
      </trkpt>
      <trkpt lat="44.52246" lon="5.57393">
        <ele>762.9</ele>
        <time>2022-10-28T10:53:16Z</time>
      </trkpt>
      <trkpt lat="44.52243" lon="5.57394">
        <ele>762.9</ele>
        <time>2022-10-28T10:53:17Z</time>
      </trkpt>
      <trkpt lat="44.5224" lon="5.57395">
        <ele>762.9</ele>
        <time>2022-10-28T10:53:18Z</time>
      </trkpt>
      <trkpt lat="44.52236" lon="5.57397">
        <ele>762.9</ele>
        <time>2022-10-28T10:53:19Z</time>
      </trkpt>
      <trkpt lat="44.52232" lon="5.57398">
        <ele>763</ele>
        <time>2022-10-28T10:53:20Z</time>
      </trkpt>
      <trkpt lat="44.52227" lon="5.574">
        <ele>763</ele>
        <time>2022-10-28T10:53:22Z</time>
      </trkpt>
      <trkpt lat="44.52223" lon="5.57401">
        <ele>763</ele>
        <time>2022-10-28T10:53:23Z</time>
      </trkpt>
      <trkpt lat="44.52217" lon="5.57403">
        <ele>763</ele>
        <time>2022-10-28T10:53:24Z</time>
      </trkpt>
      <trkpt lat="44.52211" lon="5.57404">
        <ele>763.1</ele>
        <time>2022-10-28T10:53:26Z</time>
      </trkpt>
      <trkpt lat="44.52206" lon="5.57405">
        <ele>763.1</ele>
        <time>2022-10-28T10:53:27Z</time>
      </trkpt>
      <trkpt lat="44.52201" lon="5.57405">
        <ele>763.1</ele>
        <time>2022-10-28T10:53:28Z</time>
      </trkpt>
      <trkpt lat="44.52196" lon="5.57405">
        <ele>763.2</ele>
        <time>2022-10-28T10:53:29Z</time>
      </trkpt>
      <trkpt lat="44.52192" lon="5.57405">
        <ele>763.2</ele>
        <time>2022-10-28T10:53:30Z</time>
      </trkpt>
      <trkpt lat="44.52187" lon="5.57404">
        <ele>763.2</ele>
        <time>2022-10-28T10:53:32Z</time>
      </trkpt>
      <trkpt lat="44.52182" lon="5.57404">
        <ele>763.3</ele>
        <time>2022-10-28T10:53:33Z</time>
      </trkpt>
      <trkpt lat="44.52177" lon="5.57404">
        <ele>763.3</ele>
        <time>2022-10-28T10:53:34Z</time>
      </trkpt>
      <trkpt lat="44.52173" lon="5.57403">
        <ele>763.3</ele>
        <time>2022-10-28T10:53:35Z</time>
      </trkpt>
      <trkpt lat="44.52169" lon="5.57403">
        <ele>763.3</ele>
        <time>2022-10-28T10:53:36Z</time>
      </trkpt>
      <trkpt lat="44.52163" lon="5.57402">
        <ele>763.4</ele>
        <time>2022-10-28T10:53:38Z</time>
      </trkpt>
      <trkpt lat="44.52159" lon="5.57402">
        <ele>763.3</ele>
        <time>2022-10-28T10:53:39Z</time>
      </trkpt>
      <trkpt lat="44.52155" lon="5.57402">
        <ele>763.3</ele>
        <time>2022-10-28T10:53:40Z</time>
      </trkpt>
      <trkpt lat="44.5215" lon="5.57402">
        <ele>763.3</ele>
        <time>2022-10-28T10:53:41Z</time>
      </trkpt>
      <trkpt lat="44.52146" lon="5.57402">
        <ele>763.3</ele>
        <time>2022-10-28T10:53:42Z</time>
      </trkpt>
      <trkpt lat="44.52142" lon="5.57402">
        <ele>763.3</ele>
        <time>2022-10-28T10:53:43Z</time>
      </trkpt>
      <trkpt lat="44.52136" lon="5.57401">
        <ele>763.3</ele>
        <time>2022-10-28T10:53:44Z</time>
      </trkpt>
      <trkpt lat="44.52129" lon="5.57401">
        <ele>763.4</ele>
        <time>2022-10-28T10:53:46Z</time>
      </trkpt>
      <trkpt lat="44.52124" lon="5.574">
        <ele>763.4</ele>
        <time>2022-10-28T10:53:47Z</time>
      </trkpt>
      <trkpt lat="44.52119" lon="5.57399">
        <ele>763.4</ele>
        <time>2022-10-28T10:53:49Z</time>
      </trkpt>
      <trkpt lat="44.52113" lon="5.57398">
        <ele>763.5</ele>
        <time>2022-10-28T10:53:50Z</time>
      </trkpt>
      <trkpt lat="44.52109" lon="5.57397">
        <ele>763.5</ele>
        <time>2022-10-28T10:53:51Z</time>
      </trkpt>
      <trkpt lat="44.52106" lon="5.57397">
        <ele>763.5</ele>
        <time>2022-10-28T10:53:52Z</time>
      </trkpt>
      <trkpt lat="44.52103" lon="5.57397">
        <ele>763.6</ele>
        <time>2022-10-28T10:53:53Z</time>
      </trkpt>
      <trkpt lat="44.52101" lon="5.57397">
        <ele>763.6</ele>
        <time>2022-10-28T10:53:54Z</time>
      </trkpt>
      <trkpt lat="44.521" lon="5.57395">
        <ele>763.6</ele>
        <time>2022-10-28T10:53:56Z</time>
      </trkpt>
      <trkpt lat="44.52105" lon="5.57395">
        <ele>763.7</ele>
        <time>2022-10-28T10:53:57Z</time>
      </trkpt>
      <trkpt lat="44.52108" lon="5.57395">
        <ele>763.7</ele>
        <time>2022-10-28T10:53:58Z</time>
      </trkpt>
      <trkpt lat="44.52112" lon="5.57393">
        <ele>763.8</ele>
        <time>2022-10-28T10:54:00Z</time>
      </trkpt>
      <trkpt lat="44.52115" lon="5.57391">
        <ele>763.8</ele>
        <time>2022-10-28T10:54:01Z</time>
      </trkpt>
      <trkpt lat="44.52117" lon="5.57391">
        <ele>763.8</ele>
        <time>2022-10-28T10:54:02Z</time>
      </trkpt>
      <trkpt lat="44.52118" lon="5.57392">
        <ele>763.8</ele>
        <time>2022-10-28T10:54:03Z</time>
      </trkpt>
      <trkpt lat="44.52119" lon="5.57392">
        <ele>763.9</ele>
        <time>2022-10-28T10:54:04Z</time>
      </trkpt>
      <trkpt lat="44.5212" lon="5.57391">
        <ele>763.9</ele>
        <time>2022-10-28T10:54:05Z</time>
      </trkpt>
      <trkpt lat="44.5212" lon="5.57392">
        <ele>763.9</ele>
        <time>2022-10-28T10:54:06Z</time>
      </trkpt>
      <trkpt lat="44.5212" lon="5.57394">
        <ele>763.9</ele>
        <time>2022-10-28T10:54:07Z</time>
      </trkpt>
      <trkpt lat="44.5212" lon="5.57395">
        <ele>763.9</ele>
        <time>2022-10-28T10:54:08Z</time>
      </trkpt>
      <trkpt lat="44.5212" lon="5.57395">
        <ele>763.9</ele>
        <time>2022-10-28T10:54:09Z</time>
      </trkpt>
      <trkpt lat="44.5212" lon="5.57396">
        <ele>763.9</ele>
        <time>2022-10-28T10:54:10Z</time>
      </trkpt>
      <trkpt lat="44.5212" lon="5.57396">
        <ele>763.9</ele>
        <time>2022-10-28T10:54:11Z</time>
      </trkpt>
      <trkpt lat="44.52119" lon="5.57396">
        <ele>763.9</ele>
        <time>2022-10-28T10:54:12Z</time>
      </trkpt>
      <trkpt lat="44.52119" lon="5.57396">
        <ele>763.9</ele>
        <time>2022-10-28T10:54:13Z</time>
      </trkpt>
      <trkpt lat="44.52119" lon="5.57397">
        <ele>763.9</ele>
        <time>2022-10-28T10:54:14Z</time>
      </trkpt>
      <trkpt lat="44.52119" lon="5.57397">
        <ele>763.9</ele>
        <time>2022-10-28T10:54:15Z</time>
      </trkpt>
      <trkpt lat="44.52119" lon="5.57397">
        <ele>763.9</ele>
        <time>2022-10-28T10:54:16Z</time>
      </trkpt>
      <trkpt lat="44.52119" lon="5.57397">
        <ele>763.9</ele>
        <time>2022-10-28T10:54:17Z</time>
      </trkpt>
      <trkpt lat="44.52118" lon="5.57398">
        <ele>763.9</ele>
        <time>2022-10-28T10:54:18Z</time>
      </trkpt>
      <trkpt lat="44.52118" lon="5.57398">
        <ele>763.9</ele>
        <time>2022-10-28T10:54:19Z</time>
      </trkpt>
      <trkpt lat="44.52118" lon="5.57398">
        <ele>763.9</ele>
        <time>2022-10-28T10:54:20Z</time>
      </trkpt>
      <trkpt lat="44.52118" lon="5.57398">
        <ele>763.9</ele>
        <time>2022-10-28T10:54:21Z</time>
      </trkpt>
      <trkpt lat="44.52118" lon="5.57399">
        <ele>763.9</ele>
        <time>2022-10-28T10:54:22Z</time>
      </trkpt>
      <trkpt lat="44.52118" lon="5.57399">
        <ele>763.9</ele>
        <time>2022-10-28T10:54:52Z</time>
      </trkpt>
      <trkpt lat="44.52117" lon="5.57399">
        <ele>763.9</ele>
        <time>2022-10-28T10:54:53Z</time>
      </trkpt>
      <trkpt lat="44.52117" lon="5.57399">
        <ele>763.9</ele>
        <time>2022-10-28T10:54:54Z</time>
      </trkpt>
      <trkpt lat="44.52117" lon="5.574">
        <ele>763.9</ele>
        <time>2022-10-28T10:54:55Z</time>
      </trkpt>
      <trkpt lat="44.52114" lon="5.57399">
        <ele>763.9</ele>
        <time>2022-10-28T10:54:56Z</time>
      </trkpt>
      <trkpt lat="44.52112" lon="5.57399">
        <ele>763.9</ele>
        <time>2022-10-28T10:54:57Z</time>
      </trkpt>
      <trkpt lat="44.52109" lon="5.57398">
        <ele>764</ele>
        <time>2022-10-28T10:54:58Z</time>
      </trkpt>
      <trkpt lat="44.52106" lon="5.57398">
        <ele>764</ele>
        <time>2022-10-28T10:54:59Z</time>
      </trkpt>
      <trkpt lat="44.52103" lon="5.57398">
        <ele>764</ele>
        <time>2022-10-28T10:55:00Z</time>
      </trkpt>
      <trkpt lat="44.52101" lon="5.57398">
        <ele>764</ele>
        <time>2022-10-28T10:55:01Z</time>
      </trkpt>
      <trkpt lat="44.52098" lon="5.57397">
        <ele>764.1</ele>
        <time>2022-10-28T10:55:02Z</time>
      </trkpt>
      <trkpt lat="44.5209" lon="5.57397">
        <ele>764.1</ele>
        <time>2022-10-28T10:55:04Z</time>
      </trkpt>
      <trkpt lat="44.52087" lon="5.57399">
        <ele>764.1</ele>
        <time>2022-10-28T10:55:05Z</time>
      </trkpt>
      <trkpt lat="44.52083" lon="5.57399">
        <ele>764.2</ele>
        <time>2022-10-28T10:55:06Z</time>
      </trkpt>
      <trkpt lat="44.52079" lon="5.574">
        <ele>764.2</ele>
        <time>2022-10-28T10:55:08Z</time>
      </trkpt>
      <trkpt lat="44.52075" lon="5.57401">
        <ele>764.2</ele>
        <time>2022-10-28T10:55:09Z</time>
      </trkpt>
      <trkpt lat="44.52072" lon="5.57402">
        <ele>764.2</ele>
        <time>2022-10-28T10:55:10Z</time>
      </trkpt>
      <trkpt lat="44.52068" lon="5.57403">
        <ele>764.3</ele>
        <time>2022-10-28T10:55:11Z</time>
      </trkpt>
      <trkpt lat="44.52065" lon="5.57405">
        <ele>764.3</ele>
        <time>2022-10-28T10:55:12Z</time>
      </trkpt>
      <trkpt lat="44.5206" lon="5.57408">
        <ele>764.3</ele>
        <time>2022-10-28T10:55:14Z</time>
      </trkpt>
      <trkpt lat="44.52056" lon="5.57409">
        <ele>764.4</ele>
        <time>2022-10-28T10:55:15Z</time>
      </trkpt>
      <trkpt lat="44.52052" lon="5.57411">
        <ele>764.4</ele>
        <time>2022-10-28T10:55:16Z</time>
      </trkpt>
      <trkpt lat="44.52048" lon="5.57413">
        <ele>764.5</ele>
        <time>2022-10-28T10:55:17Z</time>
      </trkpt>
      <trkpt lat="44.52043" lon="5.57414">
        <ele>764.5</ele>
        <time>2022-10-28T10:55:18Z</time>
      </trkpt>
      <trkpt lat="44.52039" lon="5.57416">
        <ele>764.6</ele>
        <time>2022-10-28T10:55:19Z</time>
      </trkpt>
      <trkpt lat="44.52035" lon="5.57417">
        <ele>764.6</ele>
        <time>2022-10-28T10:55:20Z</time>
      </trkpt>
      <trkpt lat="44.52029" lon="5.57419">
        <ele>764.7</ele>
        <time>2022-10-28T10:55:22Z</time>
      </trkpt>
      <trkpt lat="44.52026" lon="5.57419">
        <ele>764.7</ele>
        <time>2022-10-28T10:55:23Z</time>
      </trkpt>
      <trkpt lat="44.52022" lon="5.57419">
        <ele>764.7</ele>
        <time>2022-10-28T10:55:24Z</time>
      </trkpt>
      <trkpt lat="44.52017" lon="5.5742">
        <ele>764.8</ele>
        <time>2022-10-28T10:55:25Z</time>
      </trkpt>
      <trkpt lat="44.52012" lon="5.5742">
        <ele>764.8</ele>
        <time>2022-10-28T10:55:26Z</time>
      </trkpt>
      <trkpt lat="44.52008" lon="5.57419">
        <ele>764.8</ele>
        <time>2022-10-28T10:55:28Z</time>
      </trkpt>
      <trkpt lat="44.52003" lon="5.5742">
        <ele>764.7</ele>
        <time>2022-10-28T10:55:29Z</time>
      </trkpt>
      <trkpt lat="44.51999" lon="5.5742">
        <ele>764.7</ele>
        <time>2022-10-28T10:55:30Z</time>
      </trkpt>
      <trkpt lat="44.51995" lon="5.5742">
        <ele>764.7</ele>
        <time>2022-10-28T10:55:31Z</time>
      </trkpt>
      <trkpt lat="44.51991" lon="5.57419">
        <ele>764.6</ele>
        <time>2022-10-28T10:55:32Z</time>
      </trkpt>
      <trkpt lat="44.51986" lon="5.57419">
        <ele>764.6</ele>
        <time>2022-10-28T10:55:33Z</time>
      </trkpt>
      <trkpt lat="44.51983" lon="5.57419">
        <ele>764.5</ele>
        <time>2022-10-28T10:55:34Z</time>
      </trkpt>
      <trkpt lat="44.51978" lon="5.57418">
        <ele>764.5</ele>
        <time>2022-10-28T10:55:36Z</time>
      </trkpt>
      <trkpt lat="44.51973" lon="5.57418">
        <ele>764.4</ele>
        <time>2022-10-28T10:55:37Z</time>
      </trkpt>
      <trkpt lat="44.5197" lon="5.57418">
        <ele>764.4</ele>
        <time>2022-10-28T10:55:38Z</time>
      </trkpt>
      <trkpt lat="44.51965" lon="5.57417">
        <ele>764.3</ele>
        <time>2022-10-28T10:55:39Z</time>
      </trkpt>
      <trkpt lat="44.51962" lon="5.57416">
        <ele>764.3</ele>
        <time>2022-10-28T10:55:40Z</time>
      </trkpt>
      <trkpt lat="44.51957" lon="5.57415">
        <ele>764.3</ele>
        <time>2022-10-28T10:55:41Z</time>
      </trkpt>
      <trkpt lat="44.51951" lon="5.57414">
        <ele>764.4</ele>
        <time>2022-10-28T10:55:43Z</time>
      </trkpt>
      <trkpt lat="44.51944" lon="5.57412">
        <ele>764.4</ele>
        <time>2022-10-28T10:55:44Z</time>
      </trkpt>
      <trkpt lat="44.51938" lon="5.57408">
        <ele>764.4</ele>
        <time>2022-10-28T10:55:45Z</time>
      </trkpt>
      <trkpt lat="44.51932" lon="5.57407">
        <ele>764.4</ele>
        <time>2022-10-28T10:55:46Z</time>
      </trkpt>
      <trkpt lat="44.51928" lon="5.57405">
        <ele>764.5</ele>
        <time>2022-10-28T10:55:47Z</time>
      </trkpt>
      <trkpt lat="44.51923" lon="5.57403">
        <ele>764.5</ele>
        <time>2022-10-28T10:55:48Z</time>
      </trkpt>
      <trkpt lat="44.51918" lon="5.57402">
        <ele>764.5</ele>
        <time>2022-10-28T10:55:49Z</time>
      </trkpt>
      <trkpt lat="44.51914" lon="5.574">
        <ele>764.6</ele>
        <time>2022-10-28T10:55:50Z</time>
      </trkpt>
      <trkpt lat="44.51909" lon="5.57399">
        <ele>764.6</ele>
        <time>2022-10-28T10:55:51Z</time>
      </trkpt>
      <trkpt lat="44.51904" lon="5.57397">
        <ele>764.6</ele>
        <time>2022-10-28T10:55:52Z</time>
      </trkpt>
      <trkpt lat="44.519" lon="5.57395">
        <ele>764.7</ele>
        <time>2022-10-28T10:55:53Z</time>
      </trkpt>
      <trkpt lat="44.51895" lon="5.57394">
        <ele>764.7</ele>
        <time>2022-10-28T10:55:54Z</time>
      </trkpt>
      <trkpt lat="44.5189" lon="5.57392">
        <ele>764.7</ele>
        <time>2022-10-28T10:55:55Z</time>
      </trkpt>
      <trkpt lat="44.51886" lon="5.57391">
        <ele>764.7</ele>
        <time>2022-10-28T10:55:56Z</time>
      </trkpt>
      <trkpt lat="44.51881" lon="5.5739">
        <ele>764.8</ele>
        <time>2022-10-28T10:55:57Z</time>
      </trkpt>
      <trkpt lat="44.51877" lon="5.57388">
        <ele>764.8</ele>
        <time>2022-10-28T10:55:58Z</time>
      </trkpt>
      <trkpt lat="44.51872" lon="5.57386">
        <ele>764.8</ele>
        <time>2022-10-28T10:55:59Z</time>
      </trkpt>
      <trkpt lat="44.51868" lon="5.57385">
        <ele>764.9</ele>
        <time>2022-10-28T10:56:00Z</time>
      </trkpt>
      <trkpt lat="44.51863" lon="5.57384">
        <ele>764.9</ele>
        <time>2022-10-28T10:56:01Z</time>
      </trkpt>
      <trkpt lat="44.51858" lon="5.57384">
        <ele>764.9</ele>
        <time>2022-10-28T10:56:02Z</time>
      </trkpt>
      <trkpt lat="44.51855" lon="5.57384">
        <ele>765</ele>
        <time>2022-10-28T10:56:03Z</time>
      </trkpt>
      <trkpt lat="44.51851" lon="5.57384">
        <ele>765</ele>
        <time>2022-10-28T10:56:04Z</time>
      </trkpt>
      <trkpt lat="44.51847" lon="5.57384">
        <ele>765</ele>
        <time>2022-10-28T10:56:05Z</time>
      </trkpt>
      <trkpt lat="44.51842" lon="5.57385">
        <ele>765.1</ele>
        <time>2022-10-28T10:56:06Z</time>
      </trkpt>
      <trkpt lat="44.51838" lon="5.57386">
        <ele>765.1</ele>
        <time>2022-10-28T10:56:07Z</time>
      </trkpt>
      <trkpt lat="44.51833" lon="5.57386">
        <ele>765.2</ele>
        <time>2022-10-28T10:56:08Z</time>
      </trkpt>
      <trkpt lat="44.51828" lon="5.57387">
        <ele>765.2</ele>
        <time>2022-10-28T10:56:09Z</time>
      </trkpt>
      <trkpt lat="44.51823" lon="5.57389">
        <ele>765.3</ele>
        <time>2022-10-28T10:56:10Z</time>
      </trkpt>
      <trkpt lat="44.51818" lon="5.57391">
        <ele>765.4</ele>
        <time>2022-10-28T10:56:11Z</time>
      </trkpt>
      <trkpt lat="44.51814" lon="5.57393">
        <ele>765.4</ele>
        <time>2022-10-28T10:56:12Z</time>
      </trkpt>
      <trkpt lat="44.51809" lon="5.57394">
        <ele>765.5</ele>
        <time>2022-10-28T10:56:13Z</time>
      </trkpt>
      <trkpt lat="44.51804" lon="5.57396">
        <ele>765.6</ele>
        <time>2022-10-28T10:56:14Z</time>
      </trkpt>
      <trkpt lat="44.518" lon="5.57397">
        <ele>765.6</ele>
        <time>2022-10-28T10:56:15Z</time>
      </trkpt>
      <trkpt lat="44.51796" lon="5.57399">
        <ele>765.7</ele>
        <time>2022-10-28T10:56:16Z</time>
      </trkpt>
      <trkpt lat="44.51791" lon="5.574">
        <ele>765.8</ele>
        <time>2022-10-28T10:56:17Z</time>
      </trkpt>
      <trkpt lat="44.51787" lon="5.57402">
        <ele>765.9</ele>
        <time>2022-10-28T10:56:18Z</time>
      </trkpt>
      <trkpt lat="44.51782" lon="5.57404">
        <ele>766</ele>
        <time>2022-10-28T10:56:19Z</time>
      </trkpt>
      <trkpt lat="44.51778" lon="5.57406">
        <ele>766</ele>
        <time>2022-10-28T10:56:20Z</time>
      </trkpt>
      <trkpt lat="44.51773" lon="5.57407">
        <ele>766.1</ele>
        <time>2022-10-28T10:56:21Z</time>
      </trkpt>
      <trkpt lat="44.51769" lon="5.57408">
        <ele>766.2</ele>
        <time>2022-10-28T10:56:22Z</time>
      </trkpt>
      <trkpt lat="44.51765" lon="5.5741">
        <ele>766.3</ele>
        <time>2022-10-28T10:56:23Z</time>
      </trkpt>
      <trkpt lat="44.51762" lon="5.57411">
        <ele>766.4</ele>
        <time>2022-10-28T10:56:24Z</time>
      </trkpt>
      <trkpt lat="44.51757" lon="5.57412">
        <ele>766.5</ele>
        <time>2022-10-28T10:56:25Z</time>
      </trkpt>
      <trkpt lat="44.51753" lon="5.57414">
        <ele>766.5</ele>
        <time>2022-10-28T10:56:26Z</time>
      </trkpt>
      <trkpt lat="44.51749" lon="5.57415">
        <ele>766.6</ele>
        <time>2022-10-28T10:56:27Z</time>
      </trkpt>
      <trkpt lat="44.51745" lon="5.57416">
        <ele>766.7</ele>
        <time>2022-10-28T10:56:28Z</time>
      </trkpt>
      <trkpt lat="44.5174" lon="5.57418">
        <ele>766.8</ele>
        <time>2022-10-28T10:56:29Z</time>
      </trkpt>
      <trkpt lat="44.51737" lon="5.57419">
        <ele>766.9</ele>
        <time>2022-10-28T10:56:30Z</time>
      </trkpt>
      <trkpt lat="44.51733" lon="5.57419">
        <ele>767</ele>
        <time>2022-10-28T10:56:31Z</time>
      </trkpt>
      <trkpt lat="44.51728" lon="5.5742">
        <ele>767.1</ele>
        <time>2022-10-28T10:56:32Z</time>
      </trkpt>
      <trkpt lat="44.51725" lon="5.57421">
        <ele>767.2</ele>
        <time>2022-10-28T10:56:33Z</time>
      </trkpt>
      <trkpt lat="44.51721" lon="5.57421">
        <ele>767.3</ele>
        <time>2022-10-28T10:56:34Z</time>
      </trkpt>
      <trkpt lat="44.51717" lon="5.57422">
        <ele>767.4</ele>
        <time>2022-10-28T10:56:35Z</time>
      </trkpt>
      <trkpt lat="44.51713" lon="5.57423">
        <ele>767.5</ele>
        <time>2022-10-28T10:56:36Z</time>
      </trkpt>
      <trkpt lat="44.51709" lon="5.57424">
        <ele>767.5</ele>
        <time>2022-10-28T10:56:37Z</time>
      </trkpt>
      <trkpt lat="44.51705" lon="5.57425">
        <ele>767.6</ele>
        <time>2022-10-28T10:56:38Z</time>
      </trkpt>
      <trkpt lat="44.51702" lon="5.57425">
        <ele>767.7</ele>
        <time>2022-10-28T10:56:39Z</time>
      </trkpt>
      <trkpt lat="44.51699" lon="5.57426">
        <ele>767.7</ele>
        <time>2022-10-28T10:56:40Z</time>
      </trkpt>
      <trkpt lat="44.51695" lon="5.57427">
        <ele>767.8</ele>
        <time>2022-10-28T10:56:41Z</time>
      </trkpt>
      <trkpt lat="44.51692" lon="5.57429">
        <ele>767.8</ele>
        <time>2022-10-28T10:56:42Z</time>
      </trkpt>
      <trkpt lat="44.51688" lon="5.5743">
        <ele>767.9</ele>
        <time>2022-10-28T10:56:43Z</time>
      </trkpt>
      <trkpt lat="44.51684" lon="5.57431">
        <ele>767.9</ele>
        <time>2022-10-28T10:56:44Z</time>
      </trkpt>
      <trkpt lat="44.5168" lon="5.57432">
        <ele>768</ele>
        <time>2022-10-28T10:56:45Z</time>
      </trkpt>
      <trkpt lat="44.51676" lon="5.57433">
        <ele>768.1</ele>
        <time>2022-10-28T10:56:46Z</time>
      </trkpt>
      <trkpt lat="44.51672" lon="5.57434">
        <ele>768.1</ele>
        <time>2022-10-28T10:56:47Z</time>
      </trkpt>
      <trkpt lat="44.51669" lon="5.57435">
        <ele>768.2</ele>
        <time>2022-10-28T10:56:48Z</time>
      </trkpt>
      <trkpt lat="44.51665" lon="5.57436">
        <ele>768.3</ele>
        <time>2022-10-28T10:56:49Z</time>
      </trkpt>
      <trkpt lat="44.51661" lon="5.57437">
        <ele>768.3</ele>
        <time>2022-10-28T10:56:50Z</time>
      </trkpt>
      <trkpt lat="44.51658" lon="5.57438">
        <ele>768.4</ele>
        <time>2022-10-28T10:56:51Z</time>
      </trkpt>
      <trkpt lat="44.51653" lon="5.57439">
        <ele>768.5</ele>
        <time>2022-10-28T10:56:52Z</time>
      </trkpt>
      <trkpt lat="44.5165" lon="5.5744">
        <ele>768.6</ele>
        <time>2022-10-28T10:56:53Z</time>
      </trkpt>
      <trkpt lat="44.51645" lon="5.57441">
        <ele>768.7</ele>
        <time>2022-10-28T10:56:54Z</time>
      </trkpt>
      <trkpt lat="44.51641" lon="5.57442">
        <ele>768.8</ele>
        <time>2022-10-28T10:56:55Z</time>
      </trkpt>
      <trkpt lat="44.51638" lon="5.57442">
        <ele>768.9</ele>
        <time>2022-10-28T10:56:56Z</time>
      </trkpt>
      <trkpt lat="44.51635" lon="5.57442">
        <ele>768.9</ele>
        <time>2022-10-28T10:56:57Z</time>
      </trkpt>
      <trkpt lat="44.51631" lon="5.57443">
        <ele>769</ele>
        <time>2022-10-28T10:56:58Z</time>
      </trkpt>
      <trkpt lat="44.51628" lon="5.57443">
        <ele>769.1</ele>
        <time>2022-10-28T10:56:59Z</time>
      </trkpt>
      <trkpt lat="44.51622" lon="5.57444">
        <ele>769.2</ele>
        <time>2022-10-28T10:57:01Z</time>
      </trkpt>
      <trkpt lat="44.51618" lon="5.57445">
        <ele>769.3</ele>
        <time>2022-10-28T10:57:02Z</time>
      </trkpt>
      <trkpt lat="44.51613" lon="5.57445">
        <ele>769.4</ele>
        <time>2022-10-28T10:57:03Z</time>
      </trkpt>
      <trkpt lat="44.5161" lon="5.57445">
        <ele>769.4</ele>
        <time>2022-10-28T10:57:04Z</time>
      </trkpt>
      <trkpt lat="44.51606" lon="5.57445">
        <ele>769.5</ele>
        <time>2022-10-28T10:57:05Z</time>
      </trkpt>
      <trkpt lat="44.51601" lon="5.57445">
        <ele>769.6</ele>
        <time>2022-10-28T10:57:07Z</time>
      </trkpt>
      <trkpt lat="44.51597" lon="5.57445">
        <ele>769.7</ele>
        <time>2022-10-28T10:57:08Z</time>
      </trkpt>
      <trkpt lat="44.51593" lon="5.57446">
        <ele>769.8</ele>
        <time>2022-10-28T10:57:09Z</time>
      </trkpt>
      <trkpt lat="44.51588" lon="5.57445">
        <ele>769.9</ele>
        <time>2022-10-28T10:57:10Z</time>
      </trkpt>
      <trkpt lat="44.51584" lon="5.57446">
        <ele>769.9</ele>
        <time>2022-10-28T10:57:11Z</time>
      </trkpt>
      <trkpt lat="44.5158" lon="5.57446">
        <ele>770</ele>
        <time>2022-10-28T10:57:12Z</time>
      </trkpt>
      <trkpt lat="44.51576" lon="5.57447">
        <ele>770.1</ele>
        <time>2022-10-28T10:57:14Z</time>
      </trkpt>
      <trkpt lat="44.51571" lon="5.57448">
        <ele>770.2</ele>
        <time>2022-10-28T10:57:15Z</time>
      </trkpt>
      <trkpt lat="44.51567" lon="5.57448">
        <ele>770.3</ele>
        <time>2022-10-28T10:57:16Z</time>
      </trkpt>
      <trkpt lat="44.51563" lon="5.57449">
        <ele>770.4</ele>
        <time>2022-10-28T10:57:17Z</time>
      </trkpt>
      <trkpt lat="44.51558" lon="5.57449">
        <ele>770.4</ele>
        <time>2022-10-28T10:57:18Z</time>
      </trkpt>
      <trkpt lat="44.51557" lon="5.5745">
        <ele>770.5</ele>
        <time>2022-10-28T10:57:19Z</time>
      </trkpt>
      <trkpt lat="44.51553" lon="5.5745">
        <ele>770.5</ele>
        <time>2022-10-28T10:57:20Z</time>
      </trkpt>
      <trkpt lat="44.51549" lon="5.57451">
        <ele>770.6</ele>
        <time>2022-10-28T10:57:21Z</time>
      </trkpt>
      <trkpt lat="44.51545" lon="5.57451">
        <ele>770.7</ele>
        <time>2022-10-28T10:57:22Z</time>
      </trkpt>
      <trkpt lat="44.5154" lon="5.57451">
        <ele>770.8</ele>
        <time>2022-10-28T10:57:24Z</time>
      </trkpt>
      <trkpt lat="44.51535" lon="5.57452">
        <ele>770.9</ele>
        <time>2022-10-28T10:57:25Z</time>
      </trkpt>
      <trkpt lat="44.51531" lon="5.57453">
        <ele>771</ele>
        <time>2022-10-28T10:57:26Z</time>
      </trkpt>
      <trkpt lat="44.51526" lon="5.57453">
        <ele>771.1</ele>
        <time>2022-10-28T10:57:28Z</time>
      </trkpt>
      <trkpt lat="44.51522" lon="5.57453">
        <ele>771.2</ele>
        <time>2022-10-28T10:57:29Z</time>
      </trkpt>
      <trkpt lat="44.51516" lon="5.57454">
        <ele>771.3</ele>
        <time>2022-10-28T10:57:30Z</time>
      </trkpt>
      <trkpt lat="44.51513" lon="5.57451">
        <ele>771.4</ele>
        <time>2022-10-28T10:57:31Z</time>
      </trkpt>
      <trkpt lat="44.51508" lon="5.57451">
        <ele>771.5</ele>
        <time>2022-10-28T10:57:33Z</time>
      </trkpt>
      <trkpt lat="44.51502" lon="5.5745">
        <ele>771.7</ele>
        <time>2022-10-28T10:57:34Z</time>
      </trkpt>
      <trkpt lat="44.51498" lon="5.57448">
        <ele>771.8</ele>
        <time>2022-10-28T10:57:35Z</time>
      </trkpt>
      <trkpt lat="44.51496" lon="5.57447">
        <ele>771.8</ele>
        <time>2022-10-28T10:57:36Z</time>
      </trkpt>
      <trkpt lat="44.51493" lon="5.57446">
        <ele>771.9</ele>
        <time>2022-10-28T10:57:37Z</time>
      </trkpt>
      <trkpt lat="44.51489" lon="5.57444">
        <ele>772</ele>
        <time>2022-10-28T10:57:38Z</time>
      </trkpt>
      <trkpt lat="44.51484" lon="5.57442">
        <ele>772.2</ele>
        <time>2022-10-28T10:57:40Z</time>
      </trkpt>
      <trkpt lat="44.5148" lon="5.57441">
        <ele>772.3</ele>
        <time>2022-10-28T10:57:41Z</time>
      </trkpt>
      <trkpt lat="44.51476" lon="5.5744">
        <ele>772.4</ele>
        <time>2022-10-28T10:57:42Z</time>
      </trkpt>
      <trkpt lat="44.51472" lon="5.57438">
        <ele>772.5</ele>
        <time>2022-10-28T10:57:43Z</time>
      </trkpt>
      <trkpt lat="44.51467" lon="5.57437">
        <ele>772.6</ele>
        <time>2022-10-28T10:57:44Z</time>
      </trkpt>
      <trkpt lat="44.51463" lon="5.57435">
        <ele>772.7</ele>
        <time>2022-10-28T10:57:45Z</time>
      </trkpt>
      <trkpt lat="44.51458" lon="5.57433">
        <ele>772.9</ele>
        <time>2022-10-28T10:57:47Z</time>
      </trkpt>
      <trkpt lat="44.51454" lon="5.57432">
        <ele>773</ele>
        <time>2022-10-28T10:57:48Z</time>
      </trkpt>
      <trkpt lat="44.5145" lon="5.57431">
        <ele>773</ele>
        <time>2022-10-28T10:57:49Z</time>
      </trkpt>
      <trkpt lat="44.51446" lon="5.5743">
        <ele>773.1</ele>
        <time>2022-10-28T10:57:50Z</time>
      </trkpt>
      <trkpt lat="44.51443" lon="5.5743">
        <ele>773.2</ele>
        <time>2022-10-28T10:57:51Z</time>
      </trkpt>
      <trkpt lat="44.51437" lon="5.57429">
        <ele>773.3</ele>
        <time>2022-10-28T10:57:53Z</time>
      </trkpt>
      <trkpt lat="44.51432" lon="5.57428">
        <ele>773.4</ele>
        <time>2022-10-28T10:57:54Z</time>
      </trkpt>
      <trkpt lat="44.51428" lon="5.57427">
        <ele>773.5</ele>
        <time>2022-10-28T10:57:55Z</time>
      </trkpt>
      <trkpt lat="44.51424" lon="5.57427">
        <ele>773.5</ele>
        <time>2022-10-28T10:57:57Z</time>
      </trkpt>
      <trkpt lat="44.51419" lon="5.57427">
        <ele>773.6</ele>
        <time>2022-10-28T10:57:58Z</time>
      </trkpt>
      <trkpt lat="44.51416" lon="5.57427">
        <ele>773.7</ele>
        <time>2022-10-28T10:57:59Z</time>
      </trkpt>
      <trkpt lat="44.51412" lon="5.57426">
        <ele>773.8</ele>
        <time>2022-10-28T10:58:00Z</time>
      </trkpt>
      <trkpt lat="44.51407" lon="5.57426">
        <ele>773.9</ele>
        <time>2022-10-28T10:58:01Z</time>
      </trkpt>
      <trkpt lat="44.51403" lon="5.57425">
        <ele>774</ele>
        <time>2022-10-28T10:58:02Z</time>
      </trkpt>
      <trkpt lat="44.51399" lon="5.57425">
        <ele>774.1</ele>
        <time>2022-10-28T10:58:04Z</time>
      </trkpt>
      <trkpt lat="44.51394" lon="5.57425">
        <ele>774.2</ele>
        <time>2022-10-28T10:58:05Z</time>
      </trkpt>
      <trkpt lat="44.5139" lon="5.57424">
        <ele>774.3</ele>
        <time>2022-10-28T10:58:06Z</time>
      </trkpt>
      <trkpt lat="44.51386" lon="5.57423">
        <ele>774.4</ele>
        <time>2022-10-28T10:58:07Z</time>
      </trkpt>
      <trkpt lat="44.51382" lon="5.57422">
        <ele>774.6</ele>
        <time>2022-10-28T10:58:08Z</time>
      </trkpt>
      <trkpt lat="44.51378" lon="5.57422">
        <ele>774.7</ele>
        <time>2022-10-28T10:58:10Z</time>
      </trkpt>
      <trkpt lat="44.51375" lon="5.57421">
        <ele>774.8</ele>
        <time>2022-10-28T10:58:11Z</time>
      </trkpt>
      <trkpt lat="44.5137" lon="5.57421">
        <ele>774.9</ele>
        <time>2022-10-28T10:58:12Z</time>
      </trkpt>
      <trkpt lat="44.51367" lon="5.5742">
        <ele>775</ele>
        <time>2022-10-28T10:58:13Z</time>
      </trkpt>
      <trkpt lat="44.51362" lon="5.5742">
        <ele>775.1</ele>
        <time>2022-10-28T10:58:14Z</time>
      </trkpt>
      <trkpt lat="44.51359" lon="5.57419">
        <ele>775.1</ele>
        <time>2022-10-28T10:58:15Z</time>
      </trkpt>
      <trkpt lat="44.51355" lon="5.5742">
        <ele>775.2</ele>
        <time>2022-10-28T10:58:17Z</time>
      </trkpt>
      <trkpt lat="44.51351" lon="5.57419">
        <ele>775.3</ele>
        <time>2022-10-28T10:58:18Z</time>
      </trkpt>
      <trkpt lat="44.51347" lon="5.57419">
        <ele>775.4</ele>
        <time>2022-10-28T10:58:19Z</time>
      </trkpt>
      <trkpt lat="44.51342" lon="5.57418">
        <ele>775.5</ele>
        <time>2022-10-28T10:58:20Z</time>
      </trkpt>
      <trkpt lat="44.51339" lon="5.57418">
        <ele>775.5</ele>
        <time>2022-10-28T10:58:21Z</time>
      </trkpt>
      <trkpt lat="44.51335" lon="5.57418">
        <ele>775.6</ele>
        <time>2022-10-28T10:58:22Z</time>
      </trkpt>
      <trkpt lat="44.51333" lon="5.57418">
        <ele>775.7</ele>
        <time>2022-10-28T10:58:23Z</time>
      </trkpt>
      <trkpt lat="44.51329" lon="5.57418">
        <ele>775.7</ele>
        <time>2022-10-28T10:58:24Z</time>
      </trkpt>
      <trkpt lat="44.51325" lon="5.57418">
        <ele>775.8</ele>
        <time>2022-10-28T10:58:25Z</time>
      </trkpt>
      <trkpt lat="44.51321" lon="5.57418">
        <ele>775.9</ele>
        <time>2022-10-28T10:58:27Z</time>
      </trkpt>
      <trkpt lat="44.51317" lon="5.57418">
        <ele>776</ele>
        <time>2022-10-28T10:58:28Z</time>
      </trkpt>
      <trkpt lat="44.51313" lon="5.57418">
        <ele>776.1</ele>
        <time>2022-10-28T10:58:29Z</time>
      </trkpt>
      <trkpt lat="44.51309" lon="5.57417">
        <ele>776.1</ele>
        <time>2022-10-28T10:58:30Z</time>
      </trkpt>
      <trkpt lat="44.51305" lon="5.57417">
        <ele>776.2</ele>
        <time>2022-10-28T10:58:31Z</time>
      </trkpt>
      <trkpt lat="44.51301" lon="5.57417">
        <ele>776.3</ele>
        <time>2022-10-28T10:58:32Z</time>
      </trkpt>
      <trkpt lat="44.51299" lon="5.57416">
        <ele>776.4</ele>
        <time>2022-10-28T10:58:33Z</time>
      </trkpt>
      <trkpt lat="44.51295" lon="5.57416">
        <ele>776.4</ele>
        <time>2022-10-28T10:58:34Z</time>
      </trkpt>
      <trkpt lat="44.51291" lon="5.57416">
        <ele>776.5</ele>
        <time>2022-10-28T10:58:35Z</time>
      </trkpt>
      <trkpt lat="44.51288" lon="5.57416">
        <ele>776.6</ele>
        <time>2022-10-28T10:58:36Z</time>
      </trkpt>
      <trkpt lat="44.51284" lon="5.57416">
        <ele>776.7</ele>
        <time>2022-10-28T10:58:37Z</time>
      </trkpt>
      <trkpt lat="44.5128" lon="5.57416">
        <ele>776.8</ele>
        <time>2022-10-28T10:58:38Z</time>
      </trkpt>
      <trkpt lat="44.51276" lon="5.57416">
        <ele>776.9</ele>
        <time>2022-10-28T10:58:40Z</time>
      </trkpt>
      <trkpt lat="44.51271" lon="5.57416">
        <ele>777</ele>
        <time>2022-10-28T10:58:41Z</time>
      </trkpt>
      <trkpt lat="44.51267" lon="5.57416">
        <ele>777</ele>
        <time>2022-10-28T10:58:42Z</time>
      </trkpt>
      <trkpt lat="44.51264" lon="5.57416">
        <ele>777.1</ele>
        <time>2022-10-28T10:58:43Z</time>
      </trkpt>
      <trkpt lat="44.5126" lon="5.57417">
        <ele>777.2</ele>
        <time>2022-10-28T10:58:45Z</time>
      </trkpt>
      <trkpt lat="44.51256" lon="5.57417">
        <ele>777.3</ele>
        <time>2022-10-28T10:58:46Z</time>
      </trkpt>
      <trkpt lat="44.51252" lon="5.57418">
        <ele>777.4</ele>
        <time>2022-10-28T10:58:47Z</time>
      </trkpt>
      <trkpt lat="44.51248" lon="5.57418">
        <ele>777.5</ele>
        <time>2022-10-28T10:58:48Z</time>
      </trkpt>
      <trkpt lat="44.51244" lon="5.57419">
        <ele>777.5</ele>
        <time>2022-10-28T10:58:49Z</time>
      </trkpt>
      <trkpt lat="44.51241" lon="5.5742">
        <ele>777.6</ele>
        <time>2022-10-28T10:58:50Z</time>
      </trkpt>
      <trkpt lat="44.51237" lon="5.57421">
        <ele>777.7</ele>
        <time>2022-10-28T10:58:51Z</time>
      </trkpt>
      <trkpt lat="44.51233" lon="5.57424">
        <ele>777.8</ele>
        <time>2022-10-28T10:58:53Z</time>
      </trkpt>
      <trkpt lat="44.5123" lon="5.57425">
        <ele>777.9</ele>
        <time>2022-10-28T10:58:54Z</time>
      </trkpt>
      <trkpt lat="44.51226" lon="5.57427">
        <ele>778</ele>
        <time>2022-10-28T10:58:55Z</time>
      </trkpt>
      <trkpt lat="44.51222" lon="5.57429">
        <ele>778.1</ele>
        <time>2022-10-28T10:58:56Z</time>
      </trkpt>
      <trkpt lat="44.5122" lon="5.57432">
        <ele>778.1</ele>
        <time>2022-10-28T10:58:57Z</time>
      </trkpt>
      <trkpt lat="44.51217" lon="5.57434">
        <ele>778.2</ele>
        <time>2022-10-28T10:58:58Z</time>
      </trkpt>
      <trkpt lat="44.51213" lon="5.57436">
        <ele>778.3</ele>
        <time>2022-10-28T10:58:59Z</time>
      </trkpt>
      <trkpt lat="44.5121" lon="5.57439">
        <ele>778.4</ele>
        <time>2022-10-28T10:59:00Z</time>
      </trkpt>
      <trkpt lat="44.51208" lon="5.57443">
        <ele>778.5</ele>
        <time>2022-10-28T10:59:02Z</time>
      </trkpt>
      <trkpt lat="44.51204" lon="5.57446">
        <ele>778.6</ele>
        <time>2022-10-28T10:59:03Z</time>
      </trkpt>
      <trkpt lat="44.512" lon="5.57449">
        <ele>778.8</ele>
        <time>2022-10-28T10:59:04Z</time>
      </trkpt>
      <trkpt lat="44.51197" lon="5.57454">
        <ele>778.9</ele>
        <time>2022-10-28T10:59:05Z</time>
      </trkpt>
      <trkpt lat="44.51193" lon="5.57459">
        <ele>779</ele>
        <time>2022-10-28T10:59:07Z</time>
      </trkpt>
      <trkpt lat="44.51188" lon="5.57464">
        <ele>779.2</ele>
        <time>2022-10-28T10:59:08Z</time>
      </trkpt>
      <trkpt lat="44.51186" lon="5.57468">
        <ele>779.3</ele>
        <time>2022-10-28T10:59:09Z</time>
      </trkpt>
      <trkpt lat="44.51183" lon="5.57472">
        <ele>779.4</ele>
        <time>2022-10-28T10:59:11Z</time>
      </trkpt>
      <trkpt lat="44.51179" lon="5.57476">
        <ele>779.5</ele>
        <time>2022-10-28T10:59:12Z</time>
      </trkpt>
      <trkpt lat="44.51176" lon="5.57479">
        <ele>779.6</ele>
        <time>2022-10-28T10:59:13Z</time>
      </trkpt>
      <trkpt lat="44.51172" lon="5.57485">
        <ele>779.8</ele>
        <time>2022-10-28T10:59:15Z</time>
      </trkpt>
      <trkpt lat="44.51168" lon="5.57488">
        <ele>779.9</ele>
        <time>2022-10-28T10:59:16Z</time>
      </trkpt>
      <trkpt lat="44.51164" lon="5.57491">
        <ele>780</ele>
        <time>2022-10-28T10:59:17Z</time>
      </trkpt>
      <trkpt lat="44.51163" lon="5.57493">
        <ele>780</ele>
        <time>2022-10-28T10:59:18Z</time>
      </trkpt>
      <trkpt lat="44.51159" lon="5.57495">
        <ele>780.1</ele>
        <time>2022-10-28T10:59:19Z</time>
      </trkpt>
      <trkpt lat="44.51156" lon="5.57497">
        <ele>780.1</ele>
        <time>2022-10-28T10:59:20Z</time>
      </trkpt>
      <trkpt lat="44.51152" lon="5.57499">
        <ele>780.2</ele>
        <time>2022-10-28T10:59:21Z</time>
      </trkpt>
      <trkpt lat="44.51148" lon="5.57501">
        <ele>780.3</ele>
        <time>2022-10-28T10:59:23Z</time>
      </trkpt>
      <trkpt lat="44.51144" lon="5.57504">
        <ele>780.3</ele>
        <time>2022-10-28T10:59:24Z</time>
      </trkpt>
      <trkpt lat="44.5114" lon="5.57507">
        <ele>780.4</ele>
        <time>2022-10-28T10:59:25Z</time>
      </trkpt>
      <trkpt lat="44.51137" lon="5.57509">
        <ele>780.5</ele>
        <time>2022-10-28T10:59:26Z</time>
      </trkpt>
      <trkpt lat="44.51133" lon="5.57511">
        <ele>780.5</ele>
        <time>2022-10-28T10:59:27Z</time>
      </trkpt>
      <trkpt lat="44.51129" lon="5.57513">
        <ele>780.6</ele>
        <time>2022-10-28T10:59:28Z</time>
      </trkpt>
      <trkpt lat="44.51125" lon="5.57515">
        <ele>780.7</ele>
        <time>2022-10-28T10:59:29Z</time>
      </trkpt>
      <trkpt lat="44.5112" lon="5.57516">
        <ele>780.8</ele>
        <time>2022-10-28T10:59:30Z</time>
      </trkpt>
      <trkpt lat="44.51116" lon="5.57517">
        <ele>780.8</ele>
        <time>2022-10-28T10:59:31Z</time>
      </trkpt>
      <trkpt lat="44.51112" lon="5.57519">
        <ele>780.9</ele>
        <time>2022-10-28T10:59:33Z</time>
      </trkpt>
      <trkpt lat="44.51107" lon="5.57521">
        <ele>781</ele>
        <time>2022-10-28T10:59:34Z</time>
      </trkpt>
      <trkpt lat="44.51102" lon="5.57522">
        <ele>781.1</ele>
        <time>2022-10-28T10:59:35Z</time>
      </trkpt>
      <trkpt lat="44.51098" lon="5.57523">
        <ele>781.2</ele>
        <time>2022-10-28T10:59:36Z</time>
      </trkpt>
      <trkpt lat="44.51094" lon="5.57524">
        <ele>781.2</ele>
        <time>2022-10-28T10:59:37Z</time>
      </trkpt>
      <trkpt lat="44.51091" lon="5.57525">
        <ele>781.3</ele>
        <time>2022-10-28T10:59:38Z</time>
      </trkpt>
      <trkpt lat="44.51088" lon="5.57525">
        <ele>781.3</ele>
        <time>2022-10-28T10:59:39Z</time>
      </trkpt>
      <trkpt lat="44.51083" lon="5.57525">
        <ele>781.4</ele>
        <time>2022-10-28T10:59:40Z</time>
      </trkpt>
      <trkpt lat="44.51076" lon="5.57525">
        <ele>781.5</ele>
        <time>2022-10-28T10:59:42Z</time>
      </trkpt>
      <trkpt lat="44.51069" lon="5.57527">
        <ele>781.6</ele>
        <time>2022-10-28T10:59:43Z</time>
      </trkpt>
      <trkpt lat="44.51063" lon="5.57525">
        <ele>781.7</ele>
        <time>2022-10-28T10:59:45Z</time>
      </trkpt>
      <trkpt lat="44.51057" lon="5.57526">
        <ele>781.7</ele>
        <time>2022-10-28T10:59:46Z</time>
      </trkpt>
      <trkpt lat="44.51053" lon="5.57526">
        <ele>781.8</ele>
        <time>2022-10-28T10:59:47Z</time>
      </trkpt>
      <trkpt lat="44.51049" lon="5.57526">
        <ele>781.9</ele>
        <time>2022-10-28T10:59:48Z</time>
      </trkpt>
      <trkpt lat="44.51044" lon="5.57527">
        <ele>781.9</ele>
        <time>2022-10-28T10:59:49Z</time>
      </trkpt>
      <trkpt lat="44.51039" lon="5.57527">
        <ele>782</ele>
        <time>2022-10-28T10:59:50Z</time>
      </trkpt>
      <trkpt lat="44.51034" lon="5.57526">
        <ele>782.1</ele>
        <time>2022-10-28T10:59:52Z</time>
      </trkpt>
      <trkpt lat="44.51028" lon="5.57527">
        <ele>782.2</ele>
        <time>2022-10-28T10:59:53Z</time>
      </trkpt>
      <trkpt lat="44.51025" lon="5.57527">
        <ele>782.3</ele>
        <time>2022-10-28T10:59:54Z</time>
      </trkpt>
      <trkpt lat="44.5102" lon="5.57526">
        <ele>782.4</ele>
        <time>2022-10-28T10:59:55Z</time>
      </trkpt>
      <trkpt lat="44.51015" lon="5.57526">
        <ele>782.5</ele>
        <time>2022-10-28T10:59:57Z</time>
      </trkpt>
      <trkpt lat="44.51008" lon="5.57527">
        <ele>782.6</ele>
        <time>2022-10-28T10:59:58Z</time>
      </trkpt>
      <trkpt lat="44.51003" lon="5.57526">
        <ele>782.6</ele>
        <time>2022-10-28T11:00:00Z</time>
      </trkpt>
      <trkpt lat="44.50998" lon="5.57527">
        <ele>782.7</ele>
        <time>2022-10-28T11:00:01Z</time>
      </trkpt>
      <trkpt lat="44.50993" lon="5.57527">
        <ele>782.8</ele>
        <time>2022-10-28T11:00:02Z</time>
      </trkpt>
      <trkpt lat="44.50988" lon="5.57527">
        <ele>782.9</ele>
        <time>2022-10-28T11:00:03Z</time>
      </trkpt>
      <trkpt lat="44.50984" lon="5.57527">
        <ele>783</ele>
        <time>2022-10-28T11:00:04Z</time>
      </trkpt>
      <trkpt lat="44.5098" lon="5.57527">
        <ele>783</ele>
        <time>2022-10-28T11:00:05Z</time>
      </trkpt>
      <trkpt lat="44.50976" lon="5.57527">
        <ele>783.1</ele>
        <time>2022-10-28T11:00:06Z</time>
      </trkpt>
      <trkpt lat="44.50971" lon="5.57526">
        <ele>783.2</ele>
        <time>2022-10-28T11:00:08Z</time>
      </trkpt>
      <trkpt lat="44.50966" lon="5.57525">
        <ele>783.3</ele>
        <time>2022-10-28T11:00:09Z</time>
      </trkpt>
      <trkpt lat="44.50962" lon="5.57524">
        <ele>783.4</ele>
        <time>2022-10-28T11:00:10Z</time>
      </trkpt>
      <trkpt lat="44.50956" lon="5.57523">
        <ele>783.5</ele>
        <time>2022-10-28T11:00:12Z</time>
      </trkpt>
      <trkpt lat="44.50952" lon="5.57522">
        <ele>783.6</ele>
        <time>2022-10-28T11:00:13Z</time>
      </trkpt>
      <trkpt lat="44.50948" lon="5.57521">
        <ele>783.7</ele>
        <time>2022-10-28T11:00:14Z</time>
      </trkpt>
      <trkpt lat="44.50944" lon="5.57521">
        <ele>783.8</ele>
        <time>2022-10-28T11:00:15Z</time>
      </trkpt>
      <trkpt lat="44.50941" lon="5.5752">
        <ele>783.8</ele>
        <time>2022-10-28T11:00:16Z</time>
      </trkpt>
      <trkpt lat="44.50935" lon="5.57519">
        <ele>784</ele>
        <time>2022-10-28T11:00:17Z</time>
      </trkpt>
      <trkpt lat="44.50931" lon="5.57516">
        <ele>784.1</ele>
        <time>2022-10-28T11:00:19Z</time>
      </trkpt>
      <trkpt lat="44.50925" lon="5.57514">
        <ele>784.2</ele>
        <time>2022-10-28T11:00:20Z</time>
      </trkpt>
      <trkpt lat="44.5092" lon="5.57513">
        <ele>784.3</ele>
        <time>2022-10-28T11:00:21Z</time>
      </trkpt>
      <trkpt lat="44.50916" lon="5.5751">
        <ele>784.3</ele>
        <time>2022-10-28T11:00:22Z</time>
      </trkpt>
      <trkpt lat="44.50911" lon="5.57507">
        <ele>784.4</ele>
        <time>2022-10-28T11:00:24Z</time>
      </trkpt>
      <trkpt lat="44.50907" lon="5.57505">
        <ele>784.5</ele>
        <time>2022-10-28T11:00:25Z</time>
      </trkpt>
      <trkpt lat="44.50903" lon="5.57502">
        <ele>784.6</ele>
        <time>2022-10-28T11:00:26Z</time>
      </trkpt>
      <trkpt lat="44.50899" lon="5.575">
        <ele>784.6</ele>
        <time>2022-10-28T11:00:27Z</time>
      </trkpt>
      <trkpt lat="44.50896" lon="5.57497">
        <ele>784.7</ele>
        <time>2022-10-28T11:00:28Z</time>
      </trkpt>
      <trkpt lat="44.50892" lon="5.57495">
        <ele>784.8</ele>
        <time>2022-10-28T11:00:29Z</time>
      </trkpt>
      <trkpt lat="44.50888" lon="5.57491">
        <ele>784.9</ele>
        <time>2022-10-28T11:00:31Z</time>
      </trkpt>
      <trkpt lat="44.50884" lon="5.57489">
        <ele>785</ele>
        <time>2022-10-28T11:00:32Z</time>
      </trkpt>
      <trkpt lat="44.50879" lon="5.57486">
        <ele>785.1</ele>
        <time>2022-10-28T11:00:33Z</time>
      </trkpt>
      <trkpt lat="44.50873" lon="5.57483">
        <ele>785.2</ele>
        <time>2022-10-28T11:00:35Z</time>
      </trkpt>
      <trkpt lat="44.50869" lon="5.57482">
        <ele>785.3</ele>
        <time>2022-10-28T11:00:36Z</time>
      </trkpt>
      <trkpt lat="44.50863" lon="5.57481">
        <ele>785.4</ele>
        <time>2022-10-28T11:00:38Z</time>
      </trkpt>
      <trkpt lat="44.5086" lon="5.57481">
        <ele>785.5</ele>
        <time>2022-10-28T11:00:39Z</time>
      </trkpt>
      <trkpt lat="44.50855" lon="5.57481">
        <ele>785.6</ele>
        <time>2022-10-28T11:00:40Z</time>
      </trkpt>
      <trkpt lat="44.50851" lon="5.57481">
        <ele>785.6</ele>
        <time>2022-10-28T11:00:41Z</time>
      </trkpt>
      <trkpt lat="44.50847" lon="5.57481">
        <ele>785.7</ele>
        <time>2022-10-28T11:00:42Z</time>
      </trkpt>
      <trkpt lat="44.50842" lon="5.57483">
        <ele>785.8</ele>
        <time>2022-10-28T11:00:43Z</time>
      </trkpt>
      <trkpt lat="44.50838" lon="5.57483">
        <ele>785.9</ele>
        <time>2022-10-28T11:00:44Z</time>
      </trkpt>
      <trkpt lat="44.50835" lon="5.57484">
        <ele>785.9</ele>
        <time>2022-10-28T11:00:45Z</time>
      </trkpt>
      <trkpt lat="44.50831" lon="5.57484">
        <ele>786</ele>
        <time>2022-10-28T11:00:46Z</time>
      </trkpt>
      <trkpt lat="44.50827" lon="5.57485">
        <ele>786.1</ele>
        <time>2022-10-28T11:00:47Z</time>
      </trkpt>
      <trkpt lat="44.50822" lon="5.57485">
        <ele>786.1</ele>
        <time>2022-10-28T11:00:48Z</time>
      </trkpt>
      <trkpt lat="44.50818" lon="5.57485">
        <ele>786.2</ele>
        <time>2022-10-28T11:00:50Z</time>
      </trkpt>
      <trkpt lat="44.50812" lon="5.57484">
        <ele>786.3</ele>
        <time>2022-10-28T11:00:51Z</time>
      </trkpt>
      <trkpt lat="44.50808" lon="5.57484">
        <ele>786.4</ele>
        <time>2022-10-28T11:00:52Z</time>
      </trkpt>
      <trkpt lat="44.50804" lon="5.57483">
        <ele>786.4</ele>
        <time>2022-10-28T11:00:54Z</time>
      </trkpt>
      <trkpt lat="44.50797" lon="5.57483">
        <ele>786.5</ele>
        <time>2022-10-28T11:00:55Z</time>
      </trkpt>
      <trkpt lat="44.50793" lon="5.57482">
        <ele>786.6</ele>
        <time>2022-10-28T11:00:57Z</time>
      </trkpt>
      <trkpt lat="44.50787" lon="5.57482">
        <ele>786.7</ele>
        <time>2022-10-28T11:00:58Z</time>
      </trkpt>
      <trkpt lat="44.50783" lon="5.57481">
        <ele>786.8</ele>
        <time>2022-10-28T11:00:59Z</time>
      </trkpt>
      <trkpt lat="44.50781" lon="5.57481">
        <ele>786.8</ele>
        <time>2022-10-28T11:01:00Z</time>
      </trkpt>
      <trkpt lat="44.50777" lon="5.57481">
        <ele>786.9</ele>
        <time>2022-10-28T11:01:01Z</time>
      </trkpt>
      <trkpt lat="44.50773" lon="5.57481">
        <ele>787</ele>
        <time>2022-10-28T11:01:02Z</time>
      </trkpt>
      <trkpt lat="44.50769" lon="5.57481">
        <ele>787</ele>
        <time>2022-10-28T11:01:03Z</time>
      </trkpt>
      <trkpt lat="44.50765" lon="5.57482">
        <ele>787.1</ele>
        <time>2022-10-28T11:01:05Z</time>
      </trkpt>
      <trkpt lat="44.50759" lon="5.57482">
        <ele>787.2</ele>
        <time>2022-10-28T11:01:06Z</time>
      </trkpt>
      <trkpt lat="44.50755" lon="5.57486">
        <ele>787.3</ele>
        <time>2022-10-28T11:01:07Z</time>
      </trkpt>
      <trkpt lat="44.5075" lon="5.57488">
        <ele>787.4</ele>
        <time>2022-10-28T11:01:09Z</time>
      </trkpt>
      <trkpt lat="44.50745" lon="5.57489">
        <ele>787.5</ele>
        <time>2022-10-28T11:01:10Z</time>
      </trkpt>
      <trkpt lat="44.50741" lon="5.57492">
        <ele>787.5</ele>
        <time>2022-10-28T11:01:11Z</time>
      </trkpt>
      <trkpt lat="44.50736" lon="5.57497">
        <ele>787.7</ele>
        <time>2022-10-28T11:01:13Z</time>
      </trkpt>
      <trkpt lat="44.50732" lon="5.575">
        <ele>787.8</ele>
        <time>2022-10-28T11:01:14Z</time>
      </trkpt>
      <trkpt lat="44.50728" lon="5.57502">
        <ele>787.9</ele>
        <time>2022-10-28T11:01:15Z</time>
      </trkpt>
      <trkpt lat="44.50723" lon="5.57505">
        <ele>788</ele>
        <time>2022-10-28T11:01:16Z</time>
      </trkpt>
      <trkpt lat="44.5072" lon="5.57508">
        <ele>788</ele>
        <time>2022-10-28T11:01:17Z</time>
      </trkpt>
      <trkpt lat="44.50717" lon="5.5751">
        <ele>788.1</ele>
        <time>2022-10-28T11:01:18Z</time>
      </trkpt>
      <trkpt lat="44.50714" lon="5.57513">
        <ele>788.2</ele>
        <time>2022-10-28T11:01:19Z</time>
      </trkpt>
      <trkpt lat="44.50711" lon="5.57517">
        <ele>788.2</ele>
        <time>2022-10-28T11:01:20Z</time>
      </trkpt>
      <trkpt lat="44.50708" lon="5.5752">
        <ele>788.3</ele>
        <time>2022-10-28T11:01:21Z</time>
      </trkpt>
      <trkpt lat="44.50703" lon="5.57527">
        <ele>788.4</ele>
        <time>2022-10-28T11:01:23Z</time>
      </trkpt>
      <trkpt lat="44.50698" lon="5.57531">
        <ele>788.4</ele>
        <time>2022-10-28T11:01:24Z</time>
      </trkpt>
      <trkpt lat="44.50693" lon="5.57537">
        <ele>788.5</ele>
        <time>2022-10-28T11:01:26Z</time>
      </trkpt>
      <trkpt lat="44.50689" lon="5.57541">
        <ele>788.6</ele>
        <time>2022-10-28T11:01:27Z</time>
      </trkpt>
      <trkpt lat="44.50686" lon="5.57546">
        <ele>788.6</ele>
        <time>2022-10-28T11:01:28Z</time>
      </trkpt>
      <trkpt lat="44.50682" lon="5.57548">
        <ele>788.7</ele>
        <time>2022-10-28T11:01:29Z</time>
      </trkpt>
      <trkpt lat="44.50678" lon="5.57552">
        <ele>788.8</ele>
        <time>2022-10-28T11:01:30Z</time>
      </trkpt>
      <trkpt lat="44.50674" lon="5.57555">
        <ele>788.9</ele>
        <time>2022-10-28T11:01:31Z</time>
      </trkpt>
      <trkpt lat="44.5067" lon="5.57558">
        <ele>789</ele>
        <time>2022-10-28T11:01:32Z</time>
      </trkpt>
      <trkpt lat="44.50666" lon="5.57561">
        <ele>789.1</ele>
        <time>2022-10-28T11:01:34Z</time>
      </trkpt>
      <trkpt lat="44.50661" lon="5.57566">
        <ele>789.2</ele>
        <time>2022-10-28T11:01:35Z</time>
      </trkpt>
      <trkpt lat="44.50656" lon="5.57568">
        <ele>789.2</ele>
        <time>2022-10-28T11:01:37Z</time>
      </trkpt>
      <trkpt lat="44.50652" lon="5.5757">
        <ele>789.3</ele>
        <time>2022-10-28T11:01:38Z</time>
      </trkpt>
      <trkpt lat="44.50648" lon="5.57572">
        <ele>789.4</ele>
        <time>2022-10-28T11:01:39Z</time>
      </trkpt>
      <trkpt lat="44.50644" lon="5.57574">
        <ele>789.5</ele>
        <time>2022-10-28T11:01:40Z</time>
      </trkpt>
      <trkpt lat="44.50639" lon="5.57576">
        <ele>789.6</ele>
        <time>2022-10-28T11:01:41Z</time>
      </trkpt>
      <trkpt lat="44.50636" lon="5.57578">
        <ele>789.7</ele>
        <time>2022-10-28T11:01:42Z</time>
      </trkpt>
      <trkpt lat="44.50631" lon="5.57579">
        <ele>789.8</ele>
        <time>2022-10-28T11:01:44Z</time>
      </trkpt>
      <trkpt lat="44.50626" lon="5.57581">
        <ele>789.9</ele>
        <time>2022-10-28T11:01:45Z</time>
      </trkpt>
      <trkpt lat="44.50623" lon="5.57583">
        <ele>790.1</ele>
        <time>2022-10-28T11:01:46Z</time>
      </trkpt>
      <trkpt lat="44.50619" lon="5.57585">
        <ele>790.2</ele>
        <time>2022-10-28T11:01:47Z</time>
      </trkpt>
      <trkpt lat="44.50615" lon="5.57586">
        <ele>790.4</ele>
        <time>2022-10-28T11:01:48Z</time>
      </trkpt>
      <trkpt lat="44.50612" lon="5.57588">
        <ele>790.5</ele>
        <time>2022-10-28T11:01:49Z</time>
      </trkpt>
      <trkpt lat="44.50611" lon="5.57589">
        <ele>790.6</ele>
        <time>2022-10-28T11:01:50Z</time>
      </trkpt>
      <trkpt lat="44.50607" lon="5.57594">
        <ele>790.9</ele>
        <time>2022-10-28T11:01:52Z</time>
      </trkpt>
      <trkpt lat="44.50604" lon="5.57598">
        <ele>791.1</ele>
        <time>2022-10-28T11:01:53Z</time>
      </trkpt>
      <trkpt lat="44.50602" lon="5.57601">
        <ele>791.2</ele>
        <time>2022-10-28T11:01:54Z</time>
      </trkpt>
      <trkpt lat="44.506" lon="5.57606">
        <ele>791.5</ele>
        <time>2022-10-28T11:01:55Z</time>
      </trkpt>
      <trkpt lat="44.50599" lon="5.57608">
        <ele>791.5</ele>
        <time>2022-10-28T11:01:56Z</time>
      </trkpt>
      <trkpt lat="44.50596" lon="5.57611">
        <ele>791.7</ele>
        <time>2022-10-28T11:01:57Z</time>
      </trkpt>
      <trkpt lat="44.50594" lon="5.57616">
        <ele>792</ele>
        <time>2022-10-28T11:01:58Z</time>
      </trkpt>
      <trkpt lat="44.50593" lon="5.57618">
        <ele>792</ele>
        <time>2022-10-28T11:01:59Z</time>
      </trkpt>
      <trkpt lat="44.50591" lon="5.57623">
        <ele>792.2</ele>
        <time>2022-10-28T11:02:00Z</time>
      </trkpt>
      <trkpt lat="44.50587" lon="5.57629">
        <ele>792.6</ele>
        <time>2022-10-28T11:02:02Z</time>
      </trkpt>
      <trkpt lat="44.50585" lon="5.57633">
        <ele>792.8</ele>
        <time>2022-10-28T11:02:03Z</time>
      </trkpt>
      <trkpt lat="44.50582" lon="5.57638">
        <ele>793</ele>
        <time>2022-10-28T11:02:04Z</time>
      </trkpt>
      <trkpt lat="44.50581" lon="5.57639">
        <ele>793.1</ele>
        <time>2022-10-28T11:02:05Z</time>
      </trkpt>
      <trkpt lat="44.50579" lon="5.57642">
        <ele>793.3</ele>
        <time>2022-10-28T11:02:06Z</time>
      </trkpt>
      <trkpt lat="44.50577" lon="5.57647">
        <ele>793.5</ele>
        <time>2022-10-28T11:02:08Z</time>
      </trkpt>
      <trkpt lat="44.50574" lon="5.57651">
        <ele>793.7</ele>
        <time>2022-10-28T11:02:09Z</time>
      </trkpt>
      <trkpt lat="44.50572" lon="5.57655">
        <ele>793.8</ele>
        <time>2022-10-28T11:02:10Z</time>
      </trkpt>
      <trkpt lat="44.50569" lon="5.57659">
        <ele>793.8</ele>
        <time>2022-10-28T11:02:11Z</time>
      </trkpt>
      <trkpt lat="44.50568" lon="5.5766">
        <ele>793.9</ele>
        <time>2022-10-28T11:02:12Z</time>
      </trkpt>
      <trkpt lat="44.50566" lon="5.57665">
        <ele>793.9</ele>
        <time>2022-10-28T11:02:13Z</time>
      </trkpt>
      <trkpt lat="44.50563" lon="5.57669">
        <ele>794</ele>
        <time>2022-10-28T11:02:14Z</time>
      </trkpt>
      <trkpt lat="44.5056" lon="5.57674">
        <ele>794</ele>
        <time>2022-10-28T11:02:15Z</time>
      </trkpt>
      <trkpt lat="44.50559" lon="5.57676">
        <ele>794</ele>
        <time>2022-10-28T11:02:16Z</time>
      </trkpt>
      <trkpt lat="44.50556" lon="5.5768">
        <ele>794</ele>
        <time>2022-10-28T11:02:17Z</time>
      </trkpt>
      <trkpt lat="44.50553" lon="5.57684">
        <ele>793.9</ele>
        <time>2022-10-28T11:02:18Z</time>
      </trkpt>
      <trkpt lat="44.50551" lon="5.57688">
        <ele>793.9</ele>
        <time>2022-10-28T11:02:19Z</time>
      </trkpt>
      <trkpt lat="44.50549" lon="5.5769">
        <ele>793.9</ele>
        <time>2022-10-28T11:02:20Z</time>
      </trkpt>
      <trkpt lat="44.50545" lon="5.57696">
        <ele>793.8</ele>
        <time>2022-10-28T11:02:21Z</time>
      </trkpt>
      <trkpt lat="44.50541" lon="5.57702">
        <ele>793.7</ele>
        <time>2022-10-28T11:02:22Z</time>
      </trkpt>
      <trkpt lat="44.50538" lon="5.57707">
        <ele>793.7</ele>
        <time>2022-10-28T11:02:23Z</time>
      </trkpt>
      <trkpt lat="44.50535" lon="5.57712">
        <ele>793.6</ele>
        <time>2022-10-28T11:02:24Z</time>
      </trkpt>
      <trkpt lat="44.50531" lon="5.57717">
        <ele>793.5</ele>
        <time>2022-10-28T11:02:25Z</time>
      </trkpt>
      <trkpt lat="44.50528" lon="5.57723">
        <ele>793.5</ele>
        <time>2022-10-28T11:02:26Z</time>
      </trkpt>
      <trkpt lat="44.50524" lon="5.57728">
        <ele>793.4</ele>
        <time>2022-10-28T11:02:27Z</time>
      </trkpt>
      <trkpt lat="44.50522" lon="5.57733">
        <ele>793.3</ele>
        <time>2022-10-28T11:02:28Z</time>
      </trkpt>
      <trkpt lat="44.50518" lon="5.57738">
        <ele>793.3</ele>
        <time>2022-10-28T11:02:29Z</time>
      </trkpt>
      <trkpt lat="44.50515" lon="5.57742">
        <ele>793.2</ele>
        <time>2022-10-28T11:02:30Z</time>
      </trkpt>
      <trkpt lat="44.50511" lon="5.57746">
        <ele>793.1</ele>
        <time>2022-10-28T11:02:31Z</time>
      </trkpt>
      <trkpt lat="44.50507" lon="5.57749">
        <ele>792.9</ele>
        <time>2022-10-28T11:02:32Z</time>
      </trkpt>
      <trkpt lat="44.50502" lon="5.57751">
        <ele>792.8</ele>
        <time>2022-10-28T11:02:33Z</time>
      </trkpt>
      <trkpt lat="44.50496" lon="5.57753">
        <ele>792.8</ele>
        <time>2022-10-28T11:02:34Z</time>
      </trkpt>
      <trkpt lat="44.5049" lon="5.57756">
        <ele>792.7</ele>
        <time>2022-10-28T11:02:35Z</time>
      </trkpt>
      <trkpt lat="44.50484" lon="5.57758">
        <ele>792.6</ele>
        <time>2022-10-28T11:02:36Z</time>
      </trkpt>
      <trkpt lat="44.50479" lon="5.57762">
        <ele>792.5</ele>
        <time>2022-10-28T11:02:37Z</time>
      </trkpt>
      <trkpt lat="44.50473" lon="5.57765">
        <ele>792.4</ele>
        <time>2022-10-28T11:02:38Z</time>
      </trkpt>
      <trkpt lat="44.50469" lon="5.5777">
        <ele>792.4</ele>
        <time>2022-10-28T11:02:39Z</time>
      </trkpt>
      <trkpt lat="44.50464" lon="5.57775">
        <ele>792.3</ele>
        <time>2022-10-28T11:02:40Z</time>
      </trkpt>
      <trkpt lat="44.5046" lon="5.57781">
        <ele>792.3</ele>
        <time>2022-10-28T11:02:41Z</time>
      </trkpt>
      <trkpt lat="44.50456" lon="5.57786">
        <ele>792.3</ele>
        <time>2022-10-28T11:02:42Z</time>
      </trkpt>
      <trkpt lat="44.50452" lon="5.57792">
        <ele>792.4</ele>
        <time>2022-10-28T11:02:43Z</time>
      </trkpt>
      <trkpt lat="44.50449" lon="5.57797">
        <ele>792.4</ele>
        <time>2022-10-28T11:02:44Z</time>
      </trkpt>
      <trkpt lat="44.50445" lon="5.57802">
        <ele>792.5</ele>
        <time>2022-10-28T11:02:45Z</time>
      </trkpt>
      <trkpt lat="44.50441" lon="5.57807">
        <ele>792.5</ele>
        <time>2022-10-28T11:02:46Z</time>
      </trkpt>
      <trkpt lat="44.50438" lon="5.57812">
        <ele>792.6</ele>
        <time>2022-10-28T11:02:47Z</time>
      </trkpt>
      <trkpt lat="44.50434" lon="5.57816">
        <ele>792.7</ele>
        <time>2022-10-28T11:02:48Z</time>
      </trkpt>
      <trkpt lat="44.50431" lon="5.57821">
        <ele>792.8</ele>
        <time>2022-10-28T11:02:49Z</time>
      </trkpt>
      <trkpt lat="44.50428" lon="5.57825">
        <ele>792.9</ele>
        <time>2022-10-28T11:02:50Z</time>
      </trkpt>
      <trkpt lat="44.50424" lon="5.5783">
        <ele>793</ele>
        <time>2022-10-28T11:02:51Z</time>
      </trkpt>
      <trkpt lat="44.50421" lon="5.57834">
        <ele>793.1</ele>
        <time>2022-10-28T11:02:52Z</time>
      </trkpt>
      <trkpt lat="44.50417" lon="5.57838">
        <ele>793.2</ele>
        <time>2022-10-28T11:02:53Z</time>
      </trkpt>
      <trkpt lat="44.50414" lon="5.57843">
        <ele>793.3</ele>
        <time>2022-10-28T11:02:54Z</time>
      </trkpt>
      <trkpt lat="44.50412" lon="5.57845">
        <ele>793.4</ele>
        <time>2022-10-28T11:02:55Z</time>
      </trkpt>
      <trkpt lat="44.5041" lon="5.57848">
        <ele>793.5</ele>
        <time>2022-10-28T11:02:56Z</time>
      </trkpt>
      <trkpt lat="44.50406" lon="5.57853">
        <ele>793.7</ele>
        <time>2022-10-28T11:02:57Z</time>
      </trkpt>
      <trkpt lat="44.50404" lon="5.57856">
        <ele>793.8</ele>
        <time>2022-10-28T11:02:58Z</time>
      </trkpt>
      <trkpt lat="44.50401" lon="5.57859">
        <ele>793.9</ele>
        <time>2022-10-28T11:02:59Z</time>
      </trkpt>
      <trkpt lat="44.50398" lon="5.57862">
        <ele>794.1</ele>
        <time>2022-10-28T11:03:00Z</time>
      </trkpt>
      <trkpt lat="44.50396" lon="5.57863">
        <ele>794.2</ele>
        <time>2022-10-28T11:03:01Z</time>
      </trkpt>
      <trkpt lat="44.50391" lon="5.5787">
        <ele>794.4</ele>
        <time>2022-10-28T11:03:03Z</time>
      </trkpt>
      <trkpt lat="44.50387" lon="5.57874">
        <ele>794.6</ele>
        <time>2022-10-28T11:03:04Z</time>
      </trkpt>
      <trkpt lat="44.50384" lon="5.57878">
        <ele>794.8</ele>
        <time>2022-10-28T11:03:05Z</time>
      </trkpt>
      <trkpt lat="44.50382" lon="5.57881">
        <ele>794.9</ele>
        <time>2022-10-28T11:03:06Z</time>
      </trkpt>
      <trkpt lat="44.5038" lon="5.57884">
        <ele>795</ele>
        <time>2022-10-28T11:03:07Z</time>
      </trkpt>
      <trkpt lat="44.50377" lon="5.57887">
        <ele>795.2</ele>
        <time>2022-10-28T11:03:08Z</time>
      </trkpt>
      <trkpt lat="44.50374" lon="5.57891">
        <ele>795.4</ele>
        <time>2022-10-28T11:03:10Z</time>
      </trkpt>
      <trkpt lat="44.50373" lon="5.57892">
        <ele>795.5</ele>
        <time>2022-10-28T11:03:11Z</time>
      </trkpt>
      <trkpt lat="44.50369" lon="5.57896">
        <ele>795.8</ele>
        <time>2022-10-28T11:03:12Z</time>
      </trkpt>
      <trkpt lat="44.50366" lon="5.579">
        <ele>796</ele>
        <time>2022-10-28T11:03:13Z</time>
      </trkpt>
      <trkpt lat="44.50365" lon="5.57902">
        <ele>796.1</ele>
        <time>2022-10-28T11:03:14Z</time>
      </trkpt>
      <trkpt lat="44.50363" lon="5.57905">
        <ele>796.3</ele>
        <time>2022-10-28T11:03:15Z</time>
      </trkpt>
      <trkpt lat="44.50361" lon="5.57909">
        <ele>796.4</ele>
        <time>2022-10-28T11:03:16Z</time>
      </trkpt>
      <trkpt lat="44.50359" lon="5.57911">
        <ele>796.6</ele>
        <time>2022-10-28T11:03:17Z</time>
      </trkpt>
      <trkpt lat="44.50356" lon="5.57914">
        <ele>796.8</ele>
        <time>2022-10-28T11:03:19Z</time>
      </trkpt>
      <trkpt lat="44.50354" lon="5.57918">
        <ele>796.9</ele>
        <time>2022-10-28T11:03:20Z</time>
      </trkpt>
      <trkpt lat="44.50351" lon="5.57921">
        <ele>797.1</ele>
        <time>2022-10-28T11:03:22Z</time>
      </trkpt>
      <trkpt lat="44.50348" lon="5.57925">
        <ele>797.4</ele>
        <time>2022-10-28T11:03:23Z</time>
      </trkpt>
      <trkpt lat="44.50345" lon="5.57927">
        <ele>797.5</ele>
        <time>2022-10-28T11:03:25Z</time>
      </trkpt>
      <trkpt lat="44.50341" lon="5.57931">
        <ele>797.8</ele>
        <time>2022-10-28T11:03:26Z</time>
      </trkpt>
      <trkpt lat="44.50339" lon="5.57933">
        <ele>797.9</ele>
        <time>2022-10-28T11:03:27Z</time>
      </trkpt>
      <trkpt lat="44.50339" lon="5.57934">
        <ele>797.9</ele>
        <time>2022-10-28T11:03:28Z</time>
      </trkpt>
      <trkpt lat="44.50336" lon="5.57938">
        <ele>798.2</ele>
        <time>2022-10-28T11:03:30Z</time>
      </trkpt>
      <trkpt lat="44.50333" lon="5.5794">
        <ele>798.3</ele>
        <time>2022-10-28T11:03:31Z</time>
      </trkpt>
      <trkpt lat="44.50331" lon="5.57942">
        <ele>798.5</ele>
        <time>2022-10-28T11:03:32Z</time>
      </trkpt>
      <trkpt lat="44.50328" lon="5.57945">
        <ele>798.6</ele>
        <time>2022-10-28T11:03:33Z</time>
      </trkpt>
      <trkpt lat="44.50326" lon="5.57947">
        <ele>798.7</ele>
        <time>2022-10-28T11:03:34Z</time>
      </trkpt>
      <trkpt lat="44.50323" lon="5.5795">
        <ele>798.9</ele>
        <time>2022-10-28T11:03:36Z</time>
      </trkpt>
      <trkpt lat="44.50321" lon="5.57953">
        <ele>799.1</ele>
        <time>2022-10-28T11:03:37Z</time>
      </trkpt>
      <trkpt lat="44.50318" lon="5.57956">
        <ele>799.2</ele>
        <time>2022-10-28T11:03:38Z</time>
      </trkpt>
      <trkpt lat="44.50316" lon="5.57958">
        <ele>799.3</ele>
        <time>2022-10-28T11:03:39Z</time>
      </trkpt>
      <trkpt lat="44.50313" lon="5.5796">
        <ele>799.4</ele>
        <time>2022-10-28T11:03:40Z</time>
      </trkpt>
      <trkpt lat="44.50311" lon="5.57962">
        <ele>799.6</ele>
        <time>2022-10-28T11:03:42Z</time>
      </trkpt>
      <trkpt lat="44.50308" lon="5.57966">
        <ele>799.7</ele>
        <time>2022-10-28T11:03:43Z</time>
      </trkpt>
      <trkpt lat="44.50305" lon="5.57968">
        <ele>799.9</ele>
        <time>2022-10-28T11:03:44Z</time>
      </trkpt>
      <trkpt lat="44.50303" lon="5.57971">
        <ele>800</ele>
        <time>2022-10-28T11:03:45Z</time>
      </trkpt>
      <trkpt lat="44.50301" lon="5.57973">
        <ele>800.1</ele>
        <time>2022-10-28T11:03:46Z</time>
      </trkpt>
      <trkpt lat="44.503" lon="5.57974">
        <ele>800.2</ele>
        <time>2022-10-28T11:03:47Z</time>
      </trkpt>
      <trkpt lat="44.50297" lon="5.57976">
        <ele>800.3</ele>
        <time>2022-10-28T11:03:48Z</time>
      </trkpt>
      <trkpt lat="44.50294" lon="5.57979">
        <ele>800.5</ele>
        <time>2022-10-28T11:03:49Z</time>
      </trkpt>
      <trkpt lat="44.50293" lon="5.5798">
        <ele>800.6</ele>
        <time>2022-10-28T11:03:50Z</time>
      </trkpt>
      <trkpt lat="44.5029" lon="5.57982">
        <ele>800.7</ele>
        <time>2022-10-28T11:03:52Z</time>
      </trkpt>
      <trkpt lat="44.50287" lon="5.57986">
        <ele>800.9</ele>
        <time>2022-10-28T11:03:53Z</time>
      </trkpt>
      <trkpt lat="44.50284" lon="5.57987">
        <ele>801</ele>
        <time>2022-10-28T11:03:55Z</time>
      </trkpt>
      <trkpt lat="44.50281" lon="5.5799">
        <ele>801.2</ele>
        <time>2022-10-28T11:03:56Z</time>
      </trkpt>
      <trkpt lat="44.50278" lon="5.57993">
        <ele>801.4</ele>
        <time>2022-10-28T11:03:57Z</time>
      </trkpt>
      <trkpt lat="44.50276" lon="5.57995">
        <ele>801.5</ele>
        <time>2022-10-28T11:03:59Z</time>
      </trkpt>
      <trkpt lat="44.50274" lon="5.57998">
        <ele>801.6</ele>
        <time>2022-10-28T11:04:00Z</time>
      </trkpt>
      <trkpt lat="44.5027" lon="5.58001">
        <ele>801.9</ele>
        <time>2022-10-28T11:04:01Z</time>
      </trkpt>
      <trkpt lat="44.50268" lon="5.58002">
        <ele>801.9</ele>
        <time>2022-10-28T11:04:02Z</time>
      </trkpt>
      <trkpt lat="44.50264" lon="5.58005">
        <ele>802.1</ele>
        <time>2022-10-28T11:04:04Z</time>
      </trkpt>
      <trkpt lat="44.50261" lon="5.58008">
        <ele>802.3</ele>
        <time>2022-10-28T11:04:05Z</time>
      </trkpt>
      <trkpt lat="44.50257" lon="5.58011">
        <ele>802.4</ele>
        <time>2022-10-28T11:04:07Z</time>
      </trkpt>
      <trkpt lat="44.50255" lon="5.58014">
        <ele>802.6</ele>
        <time>2022-10-28T11:04:08Z</time>
      </trkpt>
      <trkpt lat="44.50251" lon="5.58016">
        <ele>802.8</ele>
        <time>2022-10-28T11:04:09Z</time>
      </trkpt>
      <trkpt lat="44.50247" lon="5.58018">
        <ele>802.9</ele>
        <time>2022-10-28T11:04:11Z</time>
      </trkpt>
      <trkpt lat="44.50245" lon="5.5802">
        <ele>803</ele>
        <time>2022-10-28T11:04:12Z</time>
      </trkpt>
      <trkpt lat="44.50242" lon="5.58023">
        <ele>803.2</ele>
        <time>2022-10-28T11:04:13Z</time>
      </trkpt>
      <trkpt lat="44.50238" lon="5.58025">
        <ele>803.3</ele>
        <time>2022-10-28T11:04:14Z</time>
      </trkpt>
      <trkpt lat="44.50237" lon="5.58026">
        <ele>803.4</ele>
        <time>2022-10-28T11:04:15Z</time>
      </trkpt>
      <trkpt lat="44.50234" lon="5.58029">
        <ele>803.5</ele>
        <time>2022-10-28T11:04:17Z</time>
      </trkpt>
      <trkpt lat="44.50232" lon="5.5803">
        <ele>803.6</ele>
        <time>2022-10-28T11:04:18Z</time>
      </trkpt>
      <trkpt lat="44.5023" lon="5.58033">
        <ele>803.7</ele>
        <time>2022-10-28T11:04:19Z</time>
      </trkpt>
      <trkpt lat="44.50226" lon="5.58036">
        <ele>803.8</ele>
        <time>2022-10-28T11:04:20Z</time>
      </trkpt>
      <trkpt lat="44.50226" lon="5.58037">
        <ele>803.9</ele>
        <time>2022-10-28T11:04:21Z</time>
      </trkpt>
      <trkpt lat="44.50223" lon="5.5804">
        <ele>804</ele>
        <time>2022-10-28T11:04:22Z</time>
      </trkpt>
      <trkpt lat="44.50222" lon="5.58041">
        <ele>804</ele>
        <time>2022-10-28T11:04:23Z</time>
      </trkpt>
      <trkpt lat="44.50222" lon="5.58042">
        <ele>804.1</ele>
        <time>2022-10-28T11:04:24Z</time>
      </trkpt>
      <trkpt lat="44.50221" lon="5.58044">
        <ele>804.1</ele>
        <time>2022-10-28T11:04:25Z</time>
      </trkpt>
      <trkpt lat="44.50219" lon="5.58048">
        <ele>804.3</ele>
        <time>2022-10-28T11:04:26Z</time>
      </trkpt>
      <trkpt lat="44.50218" lon="5.5805">
        <ele>804.3</ele>
        <time>2022-10-28T11:04:27Z</time>
      </trkpt>
      <trkpt lat="44.50217" lon="5.58055">
        <ele>804.5</ele>
        <time>2022-10-28T11:04:29Z</time>
      </trkpt>
      <trkpt lat="44.50214" lon="5.5806">
        <ele>804.6</ele>
        <time>2022-10-28T11:04:30Z</time>
      </trkpt>
      <trkpt lat="44.50214" lon="5.58067">
        <ele>804.8</ele>
        <time>2022-10-28T11:04:32Z</time>
      </trkpt>
      <trkpt lat="44.50212" lon="5.58072">
        <ele>804.9</ele>
        <time>2022-10-28T11:04:33Z</time>
      </trkpt>
      <trkpt lat="44.50211" lon="5.58077">
        <ele>805</ele>
        <time>2022-10-28T11:04:34Z</time>
      </trkpt>
      <trkpt lat="44.50211" lon="5.58082">
        <ele>805.2</ele>
        <time>2022-10-28T11:04:35Z</time>
      </trkpt>
      <trkpt lat="44.50211" lon="5.58085">
        <ele>805.3</ele>
        <time>2022-10-28T11:04:36Z</time>
      </trkpt>
      <trkpt lat="44.50208" lon="5.58092">
        <ele>805.4</ele>
        <time>2022-10-28T11:04:38Z</time>
      </trkpt>
      <trkpt lat="44.50207" lon="5.58097">
        <ele>805.6</ele>
        <time>2022-10-28T11:04:39Z</time>
      </trkpt>
      <trkpt lat="44.50206" lon="5.58101">
        <ele>805.7</ele>
        <time>2022-10-28T11:04:40Z</time>
      </trkpt>
      <trkpt lat="44.50205" lon="5.58106">
        <ele>805.8</ele>
        <time>2022-10-28T11:04:41Z</time>
      </trkpt>
      <trkpt lat="44.50204" lon="5.58111">
        <ele>805.9</ele>
        <time>2022-10-28T11:04:43Z</time>
      </trkpt>
      <trkpt lat="44.50203" lon="5.58116">
        <ele>806</ele>
        <time>2022-10-28T11:04:44Z</time>
      </trkpt>
      <trkpt lat="44.50202" lon="5.58121">
        <ele>806.1</ele>
        <time>2022-10-28T11:04:45Z</time>
      </trkpt>
      <trkpt lat="44.50201" lon="5.58125">
        <ele>806.2</ele>
        <time>2022-10-28T11:04:46Z</time>
      </trkpt>
      <trkpt lat="44.502" lon="5.5813">
        <ele>806.3</ele>
        <time>2022-10-28T11:04:47Z</time>
      </trkpt>
      <trkpt lat="44.50199" lon="5.58134">
        <ele>806.4</ele>
        <time>2022-10-28T11:04:48Z</time>
      </trkpt>
      <trkpt lat="44.50199" lon="5.58138">
        <ele>806.4</ele>
        <time>2022-10-28T11:04:49Z</time>
      </trkpt>
      <trkpt lat="44.50199" lon="5.58145">
        <ele>806.5</ele>
        <time>2022-10-28T11:04:51Z</time>
      </trkpt>
      <trkpt lat="44.50199" lon="5.58151">
        <ele>806.6</ele>
        <time>2022-10-28T11:04:52Z</time>
      </trkpt>
      <trkpt lat="44.50198" lon="5.58156">
        <ele>806.7</ele>
        <time>2022-10-28T11:04:53Z</time>
      </trkpt>
      <trkpt lat="44.50198" lon="5.58166">
        <ele>806.8</ele>
        <time>2022-10-28T11:04:55Z</time>
      </trkpt>
      <trkpt lat="44.50198" lon="5.58172">
        <ele>806.8</ele>
        <time>2022-10-28T11:04:56Z</time>
      </trkpt>
      <trkpt lat="44.50199" lon="5.58179">
        <ele>806.9</ele>
        <time>2022-10-28T11:04:57Z</time>
      </trkpt>
      <trkpt lat="44.50198" lon="5.58188">
        <ele>806.9</ele>
        <time>2022-10-28T11:04:59Z</time>
      </trkpt>
      <trkpt lat="44.50199" lon="5.58195">
        <ele>807</ele>
        <time>2022-10-28T11:05:00Z</time>
      </trkpt>
      <trkpt lat="44.50199" lon="5.58201">
        <ele>807</ele>
        <time>2022-10-28T11:05:01Z</time>
      </trkpt>
      <trkpt lat="44.50199" lon="5.5821">
        <ele>807.1</ele>
        <time>2022-10-28T11:05:03Z</time>
      </trkpt>
      <trkpt lat="44.50199" lon="5.58216">
        <ele>807.1</ele>
        <time>2022-10-28T11:05:04Z</time>
      </trkpt>
      <trkpt lat="44.50199" lon="5.58224">
        <ele>807.1</ele>
        <time>2022-10-28T11:05:05Z</time>
      </trkpt>
      <trkpt lat="44.502" lon="5.58232">
        <ele>807.1</ele>
        <time>2022-10-28T11:05:07Z</time>
      </trkpt>
      <trkpt lat="44.502" lon="5.58239">
        <ele>807.1</ele>
        <time>2022-10-28T11:05:08Z</time>
      </trkpt>
      <trkpt lat="44.502" lon="5.58246">
        <ele>807.1</ele>
        <time>2022-10-28T11:05:09Z</time>
      </trkpt>
      <trkpt lat="44.50201" lon="5.58252">
        <ele>807.2</ele>
        <time>2022-10-28T11:05:10Z</time>
      </trkpt>
      <trkpt lat="44.50201" lon="5.58259">
        <ele>807.2</ele>
        <time>2022-10-28T11:05:11Z</time>
      </trkpt>
      <trkpt lat="44.50202" lon="5.58267">
        <ele>807.2</ele>
        <time>2022-10-28T11:05:13Z</time>
      </trkpt>
      <trkpt lat="44.50203" lon="5.58275">
        <ele>807.2</ele>
        <time>2022-10-28T11:05:14Z</time>
      </trkpt>
      <trkpt lat="44.50203" lon="5.58282">
        <ele>807.2</ele>
        <time>2022-10-28T11:05:15Z</time>
      </trkpt>
      <trkpt lat="44.50204" lon="5.58289">
        <ele>807.2</ele>
        <time>2022-10-28T11:05:16Z</time>
      </trkpt>
      <trkpt lat="44.50205" lon="5.58296">
        <ele>807.2</ele>
        <time>2022-10-28T11:05:17Z</time>
      </trkpt>
      <trkpt lat="44.5021" lon="5.58305">
        <ele>807.2</ele>
        <time>2022-10-28T11:05:19Z</time>
      </trkpt>
      <trkpt lat="44.50213" lon="5.58313">
        <ele>807.2</ele>
        <time>2022-10-28T11:05:20Z</time>
      </trkpt>
      <trkpt lat="44.50217" lon="5.58321">
        <ele>807.2</ele>
        <time>2022-10-28T11:05:22Z</time>
      </trkpt>
      <trkpt lat="44.50222" lon="5.58329">
        <ele>807.2</ele>
        <time>2022-10-28T11:05:23Z</time>
      </trkpt>
      <trkpt lat="44.50228" lon="5.58335">
        <ele>807.3</ele>
        <time>2022-10-28T11:05:24Z</time>
      </trkpt>
      <trkpt lat="44.50231" lon="5.58339">
        <ele>807.4</ele>
        <time>2022-10-28T11:05:25Z</time>
      </trkpt>
      <trkpt lat="44.50233" lon="5.58342">
        <ele>807.4</ele>
        <time>2022-10-28T11:05:26Z</time>
      </trkpt>
      <trkpt lat="44.50237" lon="5.58349">
        <ele>807.5</ele>
        <time>2022-10-28T11:05:27Z</time>
      </trkpt>
      <trkpt lat="44.50239" lon="5.58355">
        <ele>807.5</ele>
        <time>2022-10-28T11:05:28Z</time>
      </trkpt>
      <trkpt lat="44.50241" lon="5.58361">
        <ele>807.6</ele>
        <time>2022-10-28T11:05:29Z</time>
      </trkpt>
      <trkpt lat="44.50242" lon="5.58367">
        <ele>807.6</ele>
        <time>2022-10-28T11:05:30Z</time>
      </trkpt>
      <trkpt lat="44.50244" lon="5.58372">
        <ele>807.7</ele>
        <time>2022-10-28T11:05:31Z</time>
      </trkpt>
      <trkpt lat="44.50244" lon="5.58376">
        <ele>807.7</ele>
        <time>2022-10-28T11:05:32Z</time>
      </trkpt>
      <trkpt lat="44.50239" lon="5.58384">
        <ele>807.7</ele>
        <time>2022-10-28T11:05:33Z</time>
      </trkpt>
      <trkpt lat="44.50237" lon="5.5839">
        <ele>807.7</ele>
        <time>2022-10-28T11:05:34Z</time>
      </trkpt>
      <trkpt lat="44.50233" lon="5.58394">
        <ele>807.7</ele>
        <time>2022-10-28T11:05:36Z</time>
      </trkpt>
      <trkpt lat="44.5023" lon="5.58403">
        <ele>807.7</ele>
        <time>2022-10-28T11:05:37Z</time>
      </trkpt>
      <trkpt lat="44.50227" lon="5.5841">
        <ele>807.7</ele>
        <time>2022-10-28T11:05:38Z</time>
      </trkpt>
      <trkpt lat="44.50225" lon="5.58419">
        <ele>807.6</ele>
        <time>2022-10-28T11:05:40Z</time>
      </trkpt>
      <trkpt lat="44.50223" lon="5.58425">
        <ele>807.6</ele>
        <time>2022-10-28T11:05:41Z</time>
      </trkpt>
      <trkpt lat="44.50221" lon="5.58431">
        <ele>807.8</ele>
        <time>2022-10-28T11:05:42Z</time>
      </trkpt>
      <trkpt lat="44.50219" lon="5.58436">
        <ele>807.9</ele>
        <time>2022-10-28T11:05:43Z</time>
      </trkpt>
      <trkpt lat="44.50218" lon="5.58441">
        <ele>808.1</ele>
        <time>2022-10-28T11:05:44Z</time>
      </trkpt>
      <trkpt lat="44.50216" lon="5.58447">
        <ele>808.3</ele>
        <time>2022-10-28T11:05:45Z</time>
      </trkpt>
      <trkpt lat="44.50214" lon="5.58454">
        <ele>808.6</ele>
        <time>2022-10-28T11:05:47Z</time>
      </trkpt>
      <trkpt lat="44.50212" lon="5.58458">
        <ele>808.8</ele>
        <time>2022-10-28T11:05:48Z</time>
      </trkpt>
      <trkpt lat="44.50211" lon="5.58461">
        <ele>809</ele>
        <time>2022-10-28T11:05:50Z</time>
      </trkpt>
      <trkpt lat="44.50209" lon="5.58466">
        <ele>809.2</ele>
        <time>2022-10-28T11:05:51Z</time>
      </trkpt>
      <trkpt lat="44.50208" lon="5.5847">
        <ele>809.5</ele>
        <time>2022-10-28T11:05:52Z</time>
      </trkpt>
      <trkpt lat="44.50207" lon="5.58472">
        <ele>809.6</ele>
        <time>2022-10-28T11:05:53Z</time>
      </trkpt>
      <trkpt lat="44.50206" lon="5.58476">
        <ele>809.8</ele>
        <time>2022-10-28T11:05:54Z</time>
      </trkpt>
      <trkpt lat="44.50205" lon="5.58477">
        <ele>809.8</ele>
        <time>2022-10-28T11:05:55Z</time>
      </trkpt>
      <trkpt lat="44.50204" lon="5.58482">
        <ele>810.1</ele>
        <time>2022-10-28T11:05:56Z</time>
      </trkpt>
      <trkpt lat="44.50203" lon="5.58486">
        <ele>810.3</ele>
        <time>2022-10-28T11:05:57Z</time>
      </trkpt>
      <trkpt lat="44.50202" lon="5.5849">
        <ele>810.5</ele>
        <time>2022-10-28T11:05:58Z</time>
      </trkpt>
      <trkpt lat="44.50201" lon="5.58496">
        <ele>810.8</ele>
        <time>2022-10-28T11:06:00Z</time>
      </trkpt>
      <trkpt lat="44.50199" lon="5.58501">
        <ele>811.1</ele>
        <time>2022-10-28T11:06:01Z</time>
      </trkpt>
      <trkpt lat="44.50199" lon="5.58505">
        <ele>811.3</ele>
        <time>2022-10-28T11:06:02Z</time>
      </trkpt>
      <trkpt lat="44.50197" lon="5.58512">
        <ele>811.6</ele>
        <time>2022-10-28T11:06:04Z</time>
      </trkpt>
      <trkpt lat="44.50196" lon="5.58514">
        <ele>811.8</ele>
        <time>2022-10-28T11:06:05Z</time>
      </trkpt>
      <trkpt lat="44.50196" lon="5.58516">
        <ele>811.9</ele>
        <time>2022-10-28T11:06:06Z</time>
      </trkpt>
      <trkpt lat="44.50194" lon="5.58521">
        <ele>812.1</ele>
        <time>2022-10-28T11:06:07Z</time>
      </trkpt>
      <trkpt lat="44.50194" lon="5.58523">
        <ele>812.2</ele>
        <time>2022-10-28T11:06:08Z</time>
      </trkpt>
      <trkpt lat="44.50193" lon="5.58528">
        <ele>812.5</ele>
        <time>2022-10-28T11:06:10Z</time>
      </trkpt>
      <trkpt lat="44.50193" lon="5.5853">
        <ele>812.5</ele>
        <time>2022-10-28T11:06:11Z</time>
      </trkpt>
      <trkpt lat="44.50192" lon="5.58534">
        <ele>812.8</ele>
        <time>2022-10-28T11:06:12Z</time>
      </trkpt>
      <trkpt lat="44.50191" lon="5.58538">
        <ele>813</ele>
        <time>2022-10-28T11:06:13Z</time>
      </trkpt>
      <trkpt lat="44.50191" lon="5.5854">
        <ele>813</ele>
        <time>2022-10-28T11:06:14Z</time>
      </trkpt>
      <trkpt lat="44.50191" lon="5.58543">
        <ele>813.2</ele>
        <time>2022-10-28T11:06:15Z</time>
      </trkpt>
      <trkpt lat="44.5019" lon="5.5855">
        <ele>813.5</ele>
        <time>2022-10-28T11:06:17Z</time>
      </trkpt>
      <trkpt lat="44.5019" lon="5.58552">
        <ele>813.7</ele>
        <time>2022-10-28T11:06:18Z</time>
      </trkpt>
      <trkpt lat="44.5019" lon="5.58555">
        <ele>813.8</ele>
        <time>2022-10-28T11:06:19Z</time>
      </trkpt>
      <trkpt lat="44.50191" lon="5.5856">
        <ele>814</ele>
        <time>2022-10-28T11:06:21Z</time>
      </trkpt>
      <trkpt lat="44.50191" lon="5.58565">
        <ele>814.3</ele>
        <time>2022-10-28T11:06:22Z</time>
      </trkpt>
      <trkpt lat="44.50192" lon="5.58567">
        <ele>814.4</ele>
        <time>2022-10-28T11:06:23Z</time>
      </trkpt>
      <trkpt lat="44.50192" lon="5.58572">
        <ele>814.6</ele>
        <time>2022-10-28T11:06:24Z</time>
      </trkpt>
      <trkpt lat="44.50192" lon="5.58573">
        <ele>814.7</ele>
        <time>2022-10-28T11:06:25Z</time>
      </trkpt>
      <trkpt lat="44.50192" lon="5.58577">
        <ele>814.8</ele>
        <time>2022-10-28T11:06:26Z</time>
      </trkpt>
      <trkpt lat="44.50192" lon="5.58579">
        <ele>814.9</ele>
        <time>2022-10-28T11:06:27Z</time>
      </trkpt>
      <trkpt lat="44.50192" lon="5.58583">
        <ele>815.1</ele>
        <time>2022-10-28T11:06:28Z</time>
      </trkpt>
      <trkpt lat="44.50193" lon="5.58587">
        <ele>815.3</ele>
        <time>2022-10-28T11:06:29Z</time>
      </trkpt>
      <trkpt lat="44.50193" lon="5.58588">
        <ele>815.4</ele>
        <time>2022-10-28T11:06:30Z</time>
      </trkpt>
      <trkpt lat="44.50194" lon="5.58593">
        <ele>815.6</ele>
        <time>2022-10-28T11:06:31Z</time>
      </trkpt>
      <trkpt lat="44.50194" lon="5.58594">
        <ele>815.7</ele>
        <time>2022-10-28T11:06:32Z</time>
      </trkpt>
      <trkpt lat="44.50194" lon="5.586">
        <ele>815.9</ele>
        <time>2022-10-28T11:06:34Z</time>
      </trkpt>
      <trkpt lat="44.50194" lon="5.58602">
        <ele>816</ele>
        <time>2022-10-28T11:06:35Z</time>
      </trkpt>
      <trkpt lat="44.50195" lon="5.58606">
        <ele>816.2</ele>
        <time>2022-10-28T11:06:36Z</time>
      </trkpt>
      <trkpt lat="44.50195" lon="5.58607">
        <ele>816.3</ele>
        <time>2022-10-28T11:06:37Z</time>
      </trkpt>
      <trkpt lat="44.50196" lon="5.58612">
        <ele>816.6</ele>
        <time>2022-10-28T11:06:39Z</time>
      </trkpt>
      <trkpt lat="44.50196" lon="5.58614">
        <ele>816.6</ele>
        <time>2022-10-28T11:06:40Z</time>
      </trkpt>
      <trkpt lat="44.50196" lon="5.58618">
        <ele>816.8</ele>
        <time>2022-10-28T11:06:41Z</time>
      </trkpt>
      <trkpt lat="44.50197" lon="5.58622">
        <ele>817</ele>
        <time>2022-10-28T11:06:42Z</time>
      </trkpt>
      <trkpt lat="44.50197" lon="5.58624">
        <ele>817.1</ele>
        <time>2022-10-28T11:06:43Z</time>
      </trkpt>
      <trkpt lat="44.50198" lon="5.5863">
        <ele>817.4</ele>
        <time>2022-10-28T11:06:45Z</time>
      </trkpt>
      <trkpt lat="44.50198" lon="5.58632">
        <ele>817.5</ele>
        <time>2022-10-28T11:06:46Z</time>
      </trkpt>
      <trkpt lat="44.50198" lon="5.58634">
        <ele>817.5</ele>
        <time>2022-10-28T11:06:47Z</time>
      </trkpt>
      <trkpt lat="44.50199" lon="5.58638">
        <ele>817.7</ele>
        <time>2022-10-28T11:06:48Z</time>
      </trkpt>
      <trkpt lat="44.50199" lon="5.58639">
        <ele>817.8</ele>
        <time>2022-10-28T11:06:49Z</time>
      </trkpt>
      <trkpt lat="44.50199" lon="5.58642">
        <ele>817.9</ele>
        <time>2022-10-28T11:06:50Z</time>
      </trkpt>
      <trkpt lat="44.50199" lon="5.58645">
        <ele>818</ele>
        <time>2022-10-28T11:06:52Z</time>
      </trkpt>
      <trkpt lat="44.50199" lon="5.58651">
        <ele>818.2</ele>
        <time>2022-10-28T11:06:53Z</time>
      </trkpt>
      <trkpt lat="44.502" lon="5.58653">
        <ele>818.3</ele>
        <time>2022-10-28T11:06:54Z</time>
      </trkpt>
      <trkpt lat="44.50201" lon="5.58658">
        <ele>818.4</ele>
        <time>2022-10-28T11:06:56Z</time>
      </trkpt>
      <trkpt lat="44.50201" lon="5.5866">
        <ele>818.5</ele>
        <time>2022-10-28T11:06:57Z</time>
      </trkpt>
      <trkpt lat="44.50202" lon="5.58666">
        <ele>818.6</ele>
        <time>2022-10-28T11:06:59Z</time>
      </trkpt>
      <trkpt lat="44.50203" lon="5.5867">
        <ele>818.8</ele>
        <time>2022-10-28T11:07:00Z</time>
      </trkpt>
      <trkpt lat="44.50204" lon="5.58675">
        <ele>818.9</ele>
        <time>2022-10-28T11:07:01Z</time>
      </trkpt>
      <trkpt lat="44.50205" lon="5.58677">
        <ele>818.9</ele>
        <time>2022-10-28T11:07:02Z</time>
      </trkpt>
      <trkpt lat="44.50206" lon="5.58681">
        <ele>819</ele>
        <time>2022-10-28T11:07:04Z</time>
      </trkpt>
      <trkpt lat="44.50207" lon="5.58685">
        <ele>819.1</ele>
        <time>2022-10-28T11:07:05Z</time>
      </trkpt>
      <trkpt lat="44.50208" lon="5.5869">
        <ele>819.2</ele>
        <time>2022-10-28T11:07:06Z</time>
      </trkpt>
      <trkpt lat="44.5021" lon="5.58695">
        <ele>819.3</ele>
        <time>2022-10-28T11:07:08Z</time>
      </trkpt>
      <trkpt lat="44.50212" lon="5.58699">
        <ele>819.4</ele>
        <time>2022-10-28T11:07:09Z</time>
      </trkpt>
      <trkpt lat="44.50213" lon="5.58704">
        <ele>819.5</ele>
        <time>2022-10-28T11:07:10Z</time>
      </trkpt>
      <trkpt lat="44.50215" lon="5.58708">
        <ele>819.6</ele>
        <time>2022-10-28T11:07:11Z</time>
      </trkpt>
      <trkpt lat="44.50216" lon="5.58712">
        <ele>819.6</ele>
        <time>2022-10-28T11:07:12Z</time>
      </trkpt>
      <trkpt lat="44.50218" lon="5.58717">
        <ele>819.7</ele>
        <time>2022-10-28T11:07:14Z</time>
      </trkpt>
      <trkpt lat="44.5022" lon="5.58721">
        <ele>819.7</ele>
        <time>2022-10-28T11:07:15Z</time>
      </trkpt>
      <trkpt lat="44.50221" lon="5.58726">
        <ele>819.8</ele>
        <time>2022-10-28T11:07:16Z</time>
      </trkpt>
      <trkpt lat="44.50223" lon="5.5873">
        <ele>819.8</ele>
        <time>2022-10-28T11:07:17Z</time>
      </trkpt>
      <trkpt lat="44.50225" lon="5.58735">
        <ele>819.9</ele>
        <time>2022-10-28T11:07:18Z</time>
      </trkpt>
      <trkpt lat="44.50227" lon="5.58739">
        <ele>820</ele>
        <time>2022-10-28T11:07:19Z</time>
      </trkpt>
      <trkpt lat="44.50229" lon="5.58744">
        <ele>820</ele>
        <time>2022-10-28T11:07:20Z</time>
      </trkpt>
      <trkpt lat="44.50231" lon="5.58749">
        <ele>820.1</ele>
        <time>2022-10-28T11:07:21Z</time>
      </trkpt>
      <trkpt lat="44.50232" lon="5.58752">
        <ele>820.1</ele>
        <time>2022-10-28T11:07:22Z</time>
      </trkpt>
      <trkpt lat="44.50234" lon="5.58756">
        <ele>820.2</ele>
        <time>2022-10-28T11:07:23Z</time>
      </trkpt>
      <trkpt lat="44.50235" lon="5.58759">
        <ele>820.2</ele>
        <time>2022-10-28T11:07:24Z</time>
      </trkpt>
      <trkpt lat="44.50238" lon="5.58765">
        <ele>820.3</ele>
        <time>2022-10-28T11:07:26Z</time>
      </trkpt>
      <trkpt lat="44.50239" lon="5.58769">
        <ele>820.3</ele>
        <time>2022-10-28T11:07:27Z</time>
      </trkpt>
      <trkpt lat="44.50241" lon="5.58774">
        <ele>820.4</ele>
        <time>2022-10-28T11:07:28Z</time>
      </trkpt>
      <trkpt lat="44.50243" lon="5.5878">
        <ele>820.5</ele>
        <time>2022-10-28T11:07:29Z</time>
      </trkpt>
      <trkpt lat="44.50245" lon="5.58784">
        <ele>820.5</ele>
        <time>2022-10-28T11:07:30Z</time>
      </trkpt>
      <trkpt lat="44.50246" lon="5.58788">
        <ele>820.6</ele>
        <time>2022-10-28T11:07:31Z</time>
      </trkpt>
      <trkpt lat="44.50247" lon="5.58792">
        <ele>820.7</ele>
        <time>2022-10-28T11:07:33Z</time>
      </trkpt>
      <trkpt lat="44.50248" lon="5.58796">
        <ele>820.7</ele>
        <time>2022-10-28T11:07:34Z</time>
      </trkpt>
      <trkpt lat="44.5025" lon="5.58801">
        <ele>820.8</ele>
        <time>2022-10-28T11:07:35Z</time>
      </trkpt>
      <trkpt lat="44.50251" lon="5.58806">
        <ele>820.9</ele>
        <time>2022-10-28T11:07:36Z</time>
      </trkpt>
      <trkpt lat="44.50252" lon="5.58812">
        <ele>820.9</ele>
        <time>2022-10-28T11:07:38Z</time>
      </trkpt>
      <trkpt lat="44.50253" lon="5.58816">
        <ele>821</ele>
        <time>2022-10-28T11:07:39Z</time>
      </trkpt>
      <trkpt lat="44.50254" lon="5.58822">
        <ele>821.1</ele>
        <time>2022-10-28T11:07:40Z</time>
      </trkpt>
      <trkpt lat="44.50255" lon="5.58827">
        <ele>821.1</ele>
        <time>2022-10-28T11:07:42Z</time>
      </trkpt>
      <trkpt lat="44.50256" lon="5.58831">
        <ele>821.2</ele>
        <time>2022-10-28T11:07:43Z</time>
      </trkpt>
      <trkpt lat="44.50256" lon="5.58835">
        <ele>821.2</ele>
        <time>2022-10-28T11:07:44Z</time>
      </trkpt>
      <trkpt lat="44.50256" lon="5.5884">
        <ele>821.3</ele>
        <time>2022-10-28T11:07:45Z</time>
      </trkpt>
      <trkpt lat="44.50257" lon="5.58843">
        <ele>821.3</ele>
        <time>2022-10-28T11:07:46Z</time>
      </trkpt>
      <trkpt lat="44.50257" lon="5.58846">
        <ele>821.4</ele>
        <time>2022-10-28T11:07:47Z</time>
      </trkpt>
      <trkpt lat="44.50256" lon="5.58852">
        <ele>821.4</ele>
        <time>2022-10-28T11:07:49Z</time>
      </trkpt>
      <trkpt lat="44.50256" lon="5.58857">
        <ele>821.5</ele>
        <time>2022-10-28T11:07:50Z</time>
      </trkpt>
      <trkpt lat="44.50257" lon="5.58861">
        <ele>821.5</ele>
        <time>2022-10-28T11:07:51Z</time>
      </trkpt>
      <trkpt lat="44.50257" lon="5.58867">
        <ele>821.6</ele>
        <time>2022-10-28T11:07:52Z</time>
      </trkpt>
      <trkpt lat="44.50256" lon="5.58872">
        <ele>821.7</ele>
        <time>2022-10-28T11:07:53Z</time>
      </trkpt>
      <trkpt lat="44.50256" lon="5.58877">
        <ele>821.7</ele>
        <time>2022-10-28T11:07:54Z</time>
      </trkpt>
      <trkpt lat="44.50256" lon="5.58881">
        <ele>821.8</ele>
        <time>2022-10-28T11:07:55Z</time>
      </trkpt>
      <trkpt lat="44.50255" lon="5.58888">
        <ele>821.9</ele>
        <time>2022-10-28T11:07:57Z</time>
      </trkpt>
      <trkpt lat="44.50255" lon="5.58896">
        <ele>822.1</ele>
        <time>2022-10-28T11:07:58Z</time>
      </trkpt>
      <trkpt lat="44.50253" lon="5.58903">
        <ele>822.2</ele>
        <time>2022-10-28T11:07:59Z</time>
      </trkpt>
      <trkpt lat="44.50252" lon="5.58909">
        <ele>822.4</ele>
        <time>2022-10-28T11:08:01Z</time>
      </trkpt>
      <trkpt lat="44.50253" lon="5.58915">
        <ele>822.5</ele>
        <time>2022-10-28T11:08:02Z</time>
      </trkpt>
      <trkpt lat="44.50253" lon="5.5892">
        <ele>822.6</ele>
        <time>2022-10-28T11:08:03Z</time>
      </trkpt>
      <trkpt lat="44.50253" lon="5.58925">
        <ele>822.7</ele>
        <time>2022-10-28T11:08:04Z</time>
      </trkpt>
      <trkpt lat="44.50254" lon="5.5893">
        <ele>822.7</ele>
        <time>2022-10-28T11:08:05Z</time>
      </trkpt>
      <trkpt lat="44.50255" lon="5.58934">
        <ele>822.7</ele>
        <time>2022-10-28T11:08:06Z</time>
      </trkpt>
      <trkpt lat="44.50256" lon="5.5894">
        <ele>822.8</ele>
        <time>2022-10-28T11:08:08Z</time>
      </trkpt>
      <trkpt lat="44.50257" lon="5.58947">
        <ele>822.8</ele>
        <time>2022-10-28T11:08:09Z</time>
      </trkpt>
      <trkpt lat="44.50257" lon="5.58951">
        <ele>822.9</ele>
        <time>2022-10-28T11:08:10Z</time>
      </trkpt>
      <trkpt lat="44.50258" lon="5.58956">
        <ele>822.9</ele>
        <time>2022-10-28T11:08:12Z</time>
      </trkpt>
      <trkpt lat="44.50259" lon="5.5896">
        <ele>822.9</ele>
        <time>2022-10-28T11:08:13Z</time>
      </trkpt>
      <trkpt lat="44.5026" lon="5.58965">
        <ele>823</ele>
        <time>2022-10-28T11:08:14Z</time>
      </trkpt>
      <trkpt lat="44.50261" lon="5.58967">
        <ele>823</ele>
        <time>2022-10-28T11:08:15Z</time>
      </trkpt>
      <trkpt lat="44.50262" lon="5.58972">
        <ele>823.1</ele>
        <time>2022-10-28T11:08:16Z</time>
      </trkpt>
      <trkpt lat="44.50262" lon="5.58974">
        <ele>823.1</ele>
        <time>2022-10-28T11:08:17Z</time>
      </trkpt>
      <trkpt lat="44.50262" lon="5.58976">
        <ele>823.2</ele>
        <time>2022-10-28T11:08:18Z</time>
      </trkpt>
      <trkpt lat="44.50263" lon="5.5898">
        <ele>823.2</ele>
        <time>2022-10-28T11:08:20Z</time>
      </trkpt>
      <trkpt lat="44.50264" lon="5.58984">
        <ele>823.3</ele>
        <time>2022-10-28T11:08:21Z</time>
      </trkpt>
      <trkpt lat="44.50265" lon="5.58988">
        <ele>823.4</ele>
        <time>2022-10-28T11:08:22Z</time>
      </trkpt>
      <trkpt lat="44.50266" lon="5.58992">
        <ele>823.5</ele>
        <time>2022-10-28T11:08:23Z</time>
      </trkpt>
      <trkpt lat="44.50266" lon="5.58993">
        <ele>823.5</ele>
        <time>2022-10-28T11:08:24Z</time>
      </trkpt>
      <trkpt lat="44.50267" lon="5.58998">
        <ele>823.7</ele>
        <time>2022-10-28T11:08:25Z</time>
      </trkpt>
      <trkpt lat="44.50267" lon="5.59002">
        <ele>823.8</ele>
        <time>2022-10-28T11:08:26Z</time>
      </trkpt>
      <trkpt lat="44.50267" lon="5.59004">
        <ele>823.9</ele>
        <time>2022-10-28T11:08:27Z</time>
      </trkpt>
      <trkpt lat="44.50268" lon="5.59008">
        <ele>824</ele>
        <time>2022-10-28T11:08:28Z</time>
      </trkpt>
      <trkpt lat="44.50269" lon="5.59009">
        <ele>824.1</ele>
        <time>2022-10-28T11:08:29Z</time>
      </trkpt>
      <trkpt lat="44.5027" lon="5.59014">
        <ele>824.3</ele>
        <time>2022-10-28T11:08:30Z</time>
      </trkpt>
      <trkpt lat="44.5027" lon="5.59016">
        <ele>824.3</ele>
        <time>2022-10-28T11:08:31Z</time>
      </trkpt>
      <trkpt lat="44.50272" lon="5.59021">
        <ele>824.5</ele>
        <time>2022-10-28T11:08:32Z</time>
      </trkpt>
      <trkpt lat="44.50272" lon="5.59022">
        <ele>824.6</ele>
        <time>2022-10-28T11:08:33Z</time>
      </trkpt>
      <trkpt lat="44.50273" lon="5.59026">
        <ele>824.7</ele>
        <time>2022-10-28T11:08:34Z</time>
      </trkpt>
      <trkpt lat="44.50275" lon="5.59031">
        <ele>824.9</ele>
        <time>2022-10-28T11:08:36Z</time>
      </trkpt>
      <trkpt lat="44.50276" lon="5.59033">
        <ele>825</ele>
        <time>2022-10-28T11:08:37Z</time>
      </trkpt>
      <trkpt lat="44.50277" lon="5.59036">
        <ele>825.2</ele>
        <time>2022-10-28T11:08:38Z</time>
      </trkpt>
      <trkpt lat="44.50279" lon="5.59041">
        <ele>825.3</ele>
        <time>2022-10-28T11:08:39Z</time>
      </trkpt>
      <trkpt lat="44.5028" lon="5.59043">
        <ele>825.4</ele>
        <time>2022-10-28T11:08:40Z</time>
      </trkpt>
      <trkpt lat="44.50282" lon="5.59047">
        <ele>825.6</ele>
        <time>2022-10-28T11:08:41Z</time>
      </trkpt>
      <trkpt lat="44.50282" lon="5.59048">
        <ele>825.6</ele>
        <time>2022-10-28T11:08:42Z</time>
      </trkpt>
      <trkpt lat="44.50284" lon="5.59055">
        <ele>825.9</ele>
        <time>2022-10-28T11:08:44Z</time>
      </trkpt>
      <trkpt lat="44.50286" lon="5.59058">
        <ele>826</ele>
        <time>2022-10-28T11:08:45Z</time>
      </trkpt>
      <trkpt lat="44.50287" lon="5.59062">
        <ele>826.2</ele>
        <time>2022-10-28T11:08:47Z</time>
      </trkpt>
      <trkpt lat="44.50288" lon="5.59063">
        <ele>826.2</ele>
        <time>2022-10-28T11:08:48Z</time>
      </trkpt>
      <trkpt lat="44.50288" lon="5.59064">
        <ele>826.3</ele>
        <time>2022-10-28T11:08:49Z</time>
      </trkpt>
      <trkpt lat="44.50288" lon="5.59065">
        <ele>826.3</ele>
        <time>2022-10-28T11:08:50Z</time>
      </trkpt>
      <trkpt lat="44.50288" lon="5.59066">
        <ele>826.3</ele>
        <time>2022-10-28T11:08:51Z</time>
      </trkpt>
      <trkpt lat="44.50288" lon="5.59067">
        <ele>826.4</ele>
        <time>2022-10-28T11:08:52Z</time>
      </trkpt>
      <trkpt lat="44.50288" lon="5.59067">
        <ele>826.4</ele>
        <time>2022-10-28T11:08:53Z</time>
      </trkpt>
      <trkpt lat="44.50288" lon="5.59068">
        <ele>826.4</ele>
        <time>2022-10-28T11:08:54Z</time>
      </trkpt>
      <trkpt lat="44.50288" lon="5.59069">
        <ele>826.4</ele>
        <time>2022-10-28T11:08:55Z</time>
      </trkpt>
      <trkpt lat="44.50288" lon="5.5907">
        <ele>826.5</ele>
        <time>2022-10-28T11:08:56Z</time>
      </trkpt>
      <trkpt lat="44.50289" lon="5.5907">
        <ele>826.5</ele>
        <time>2022-10-28T11:08:57Z</time>
      </trkpt>
      <trkpt lat="44.50289" lon="5.59071">
        <ele>826.5</ele>
        <time>2022-10-28T11:08:58Z</time>
      </trkpt>
      <trkpt lat="44.50289" lon="5.59072">
        <ele>826.6</ele>
        <time>2022-10-28T11:09:00Z</time>
      </trkpt>
      <trkpt lat="44.50289" lon="5.59073">
        <ele>826.6</ele>
        <time>2022-10-28T11:09:28Z</time>
      </trkpt>
      <trkpt lat="44.50289" lon="5.59074">
        <ele>826.6</ele>
        <time>2022-10-28T11:09:29Z</time>
      </trkpt>
      <trkpt lat="44.50289" lon="5.59074">
        <ele>826.7</ele>
        <time>2022-10-28T11:09:30Z</time>
      </trkpt>
      <trkpt lat="44.5029" lon="5.59078">
        <ele>826.8</ele>
        <time>2022-10-28T11:09:31Z</time>
      </trkpt>
      <trkpt lat="44.5029" lon="5.59082">
        <ele>827</ele>
        <time>2022-10-28T11:09:32Z</time>
      </trkpt>
      <trkpt lat="44.50292" lon="5.59086">
        <ele>827.1</ele>
        <time>2022-10-28T11:09:33Z</time>
      </trkpt>
      <trkpt lat="44.50294" lon="5.59092">
        <ele>827.4</ele>
        <time>2022-10-28T11:09:35Z</time>
      </trkpt>
      <trkpt lat="44.50295" lon="5.59094">
        <ele>827.5</ele>
        <time>2022-10-28T11:09:36Z</time>
      </trkpt>
      <trkpt lat="44.50295" lon="5.59097">
        <ele>827.6</ele>
        <time>2022-10-28T11:09:37Z</time>
      </trkpt>
      <trkpt lat="44.50297" lon="5.59102">
        <ele>827.8</ele>
        <time>2022-10-28T11:09:38Z</time>
      </trkpt>
      <trkpt lat="44.50298" lon="5.59103">
        <ele>827.9</ele>
        <time>2022-10-28T11:09:39Z</time>
      </trkpt>
      <trkpt lat="44.50299" lon="5.59107">
        <ele>828.1</ele>
        <time>2022-10-28T11:09:41Z</time>
      </trkpt>
      <trkpt lat="44.50301" lon="5.59111">
        <ele>828.3</ele>
        <time>2022-10-28T11:09:42Z</time>
      </trkpt>
      <trkpt lat="44.50303" lon="5.59115">
        <ele>828.4</ele>
        <time>2022-10-28T11:09:43Z</time>
      </trkpt>
      <trkpt lat="44.50305" lon="5.59119">
        <ele>828.6</ele>
        <time>2022-10-28T11:09:44Z</time>
      </trkpt>
      <trkpt lat="44.50306" lon="5.59121">
        <ele>828.7</ele>
        <time>2022-10-28T11:09:45Z</time>
      </trkpt>
      <trkpt lat="44.50308" lon="5.59124">
        <ele>828.9</ele>
        <time>2022-10-28T11:09:46Z</time>
      </trkpt>
      <trkpt lat="44.5031" lon="5.59127">
        <ele>829.1</ele>
        <time>2022-10-28T11:09:48Z</time>
      </trkpt>
      <trkpt lat="44.50312" lon="5.59131">
        <ele>829.3</ele>
        <time>2022-10-28T11:09:49Z</time>
      </trkpt>
      <trkpt lat="44.50314" lon="5.59136">
        <ele>829.5</ele>
        <time>2022-10-28T11:09:50Z</time>
      </trkpt>
      <trkpt lat="44.50315" lon="5.59138">
        <ele>829.6</ele>
        <time>2022-10-28T11:09:51Z</time>
      </trkpt>
      <trkpt lat="44.50318" lon="5.59141">
        <ele>829.7</ele>
        <time>2022-10-28T11:09:52Z</time>
      </trkpt>
      <trkpt lat="44.50319" lon="5.59144">
        <ele>829.9</ele>
        <time>2022-10-28T11:09:53Z</time>
      </trkpt>
      <trkpt lat="44.50321" lon="5.59148">
        <ele>830.1</ele>
        <time>2022-10-28T11:09:55Z</time>
      </trkpt>
      <trkpt lat="44.50323" lon="5.59151">
        <ele>830.2</ele>
        <time>2022-10-28T11:09:56Z</time>
      </trkpt>
      <trkpt lat="44.50325" lon="5.59154">
        <ele>830.4</ele>
        <time>2022-10-28T11:09:57Z</time>
      </trkpt>
      <trkpt lat="44.50326" lon="5.59158">
        <ele>830.5</ele>
        <time>2022-10-28T11:09:58Z</time>
      </trkpt>
      <trkpt lat="44.50328" lon="5.59162">
        <ele>830.7</ele>
        <time>2022-10-28T11:09:59Z</time>
      </trkpt>
      <trkpt lat="44.50329" lon="5.59164">
        <ele>830.8</ele>
        <time>2022-10-28T11:10:00Z</time>
      </trkpt>
      <trkpt lat="44.5033" lon="5.59167">
        <ele>830.9</ele>
        <time>2022-10-28T11:10:01Z</time>
      </trkpt>
      <trkpt lat="44.50332" lon="5.5917">
        <ele>831.1</ele>
        <time>2022-10-28T11:10:03Z</time>
      </trkpt>
      <trkpt lat="44.50334" lon="5.59174">
        <ele>831.2</ele>
        <time>2022-10-28T11:10:04Z</time>
      </trkpt>
      <trkpt lat="44.50335" lon="5.59177">
        <ele>831.4</ele>
        <time>2022-10-28T11:10:05Z</time>
      </trkpt>
      <trkpt lat="44.50337" lon="5.59181">
        <ele>831.6</ele>
        <time>2022-10-28T11:10:06Z</time>
      </trkpt>
      <trkpt lat="44.50338" lon="5.59182">
        <ele>831.7</ele>
        <time>2022-10-28T11:10:07Z</time>
      </trkpt>
      <trkpt lat="44.50339" lon="5.59185">
        <ele>831.8</ele>
        <time>2022-10-28T11:10:08Z</time>
      </trkpt>
      <trkpt lat="44.50342" lon="5.59189">
        <ele>832</ele>
        <time>2022-10-28T11:10:10Z</time>
      </trkpt>
      <trkpt lat="44.50343" lon="5.59193">
        <ele>832.2</ele>
        <time>2022-10-28T11:10:11Z</time>
      </trkpt>
      <trkpt lat="44.50345" lon="5.59196">
        <ele>832.3</ele>
        <time>2022-10-28T11:10:12Z</time>
      </trkpt>
      <trkpt lat="44.50347" lon="5.59201">
        <ele>832.6</ele>
        <time>2022-10-28T11:10:13Z</time>
      </trkpt>
      <trkpt lat="44.50348" lon="5.59202">
        <ele>832.6</ele>
        <time>2022-10-28T11:10:14Z</time>
      </trkpt>
      <trkpt lat="44.50349" lon="5.59205">
        <ele>832.8</ele>
        <time>2022-10-28T11:10:15Z</time>
      </trkpt>
      <trkpt lat="44.50351" lon="5.59208">
        <ele>833</ele>
        <time>2022-10-28T11:10:17Z</time>
      </trkpt>
      <trkpt lat="44.50353" lon="5.59212">
        <ele>833.2</ele>
        <time>2022-10-28T11:10:18Z</time>
      </trkpt>
      <trkpt lat="44.50355" lon="5.59215">
        <ele>833.3</ele>
        <time>2022-10-28T11:10:19Z</time>
      </trkpt>
      <trkpt lat="44.50358" lon="5.59218">
        <ele>833.5</ele>
        <time>2022-10-28T11:10:20Z</time>
      </trkpt>
      <trkpt lat="44.50359" lon="5.59219">
        <ele>833.6</ele>
        <time>2022-10-28T11:10:21Z</time>
      </trkpt>
      <trkpt lat="44.50361" lon="5.59222">
        <ele>833.8</ele>
        <time>2022-10-28T11:10:23Z</time>
      </trkpt>
      <trkpt lat="44.50363" lon="5.59224">
        <ele>834</ele>
        <time>2022-10-28T11:10:24Z</time>
      </trkpt>
      <trkpt lat="44.50365" lon="5.59227">
        <ele>834.1</ele>
        <time>2022-10-28T11:10:25Z</time>
      </trkpt>
      <trkpt lat="44.50369" lon="5.59232">
        <ele>834.4</ele>
        <time>2022-10-28T11:10:27Z</time>
      </trkpt>
      <trkpt lat="44.5037" lon="5.59235">
        <ele>834.5</ele>
        <time>2022-10-28T11:10:28Z</time>
      </trkpt>
      <trkpt lat="44.50372" lon="5.59237">
        <ele>834.7</ele>
        <time>2022-10-28T11:10:30Z</time>
      </trkpt>
      <trkpt lat="44.50374" lon="5.59239">
        <ele>834.8</ele>
        <time>2022-10-28T11:10:31Z</time>
      </trkpt>
      <trkpt lat="44.50377" lon="5.59242">
        <ele>835</ele>
        <time>2022-10-28T11:10:32Z</time>
      </trkpt>
      <trkpt lat="44.5038" lon="5.59245">
        <ele>835.2</ele>
        <time>2022-10-28T11:10:34Z</time>
      </trkpt>
      <trkpt lat="44.50381" lon="5.59247">
        <ele>835.2</ele>
        <time>2022-10-28T11:10:35Z</time>
      </trkpt>
      <trkpt lat="44.50383" lon="5.59249">
        <ele>835.4</ele>
        <time>2022-10-28T11:10:36Z</time>
      </trkpt>
      <trkpt lat="44.50386" lon="5.59252">
        <ele>835.6</ele>
        <time>2022-10-28T11:10:38Z</time>
      </trkpt>
      <trkpt lat="44.50387" lon="5.59253">
        <ele>835.6</ele>
        <time>2022-10-28T11:10:39Z</time>
      </trkpt>
      <trkpt lat="44.50389" lon="5.59256">
        <ele>835.8</ele>
        <time>2022-10-28T11:10:40Z</time>
      </trkpt>
      <trkpt lat="44.5039" lon="5.59257">
        <ele>835.9</ele>
        <time>2022-10-28T11:10:41Z</time>
      </trkpt>
      <trkpt lat="44.50393" lon="5.5926">
        <ele>836</ele>
        <time>2022-10-28T11:10:42Z</time>
      </trkpt>
      <trkpt lat="44.50394" lon="5.59261">
        <ele>836.1</ele>
        <time>2022-10-28T11:10:43Z</time>
      </trkpt>
      <trkpt lat="44.50396" lon="5.59264">
        <ele>836.2</ele>
        <time>2022-10-28T11:10:45Z</time>
      </trkpt>
      <trkpt lat="44.50398" lon="5.59266">
        <ele>836.4</ele>
        <time>2022-10-28T11:10:46Z</time>
      </trkpt>
      <trkpt lat="44.50401" lon="5.59269">
        <ele>836.5</ele>
        <time>2022-10-28T11:10:47Z</time>
      </trkpt>
      <trkpt lat="44.50404" lon="5.59273">
        <ele>836.7</ele>
        <time>2022-10-28T11:10:49Z</time>
      </trkpt>
      <trkpt lat="44.50406" lon="5.59275">
        <ele>836.8</ele>
        <time>2022-10-28T11:10:50Z</time>
      </trkpt>
      <trkpt lat="44.50409" lon="5.59279">
        <ele>837</ele>
        <time>2022-10-28T11:10:52Z</time>
      </trkpt>
      <trkpt lat="44.50411" lon="5.59281">
        <ele>837.1</ele>
        <time>2022-10-28T11:10:53Z</time>
      </trkpt>
      <trkpt lat="44.50414" lon="5.59284">
        <ele>837.3</ele>
        <time>2022-10-28T11:10:54Z</time>
      </trkpt>
      <trkpt lat="44.50415" lon="5.59285">
        <ele>837.3</ele>
        <time>2022-10-28T11:10:55Z</time>
      </trkpt>
      <trkpt lat="44.50417" lon="5.59288">
        <ele>837.5</ele>
        <time>2022-10-28T11:10:56Z</time>
      </trkpt>
      <trkpt lat="44.5042" lon="5.59291">
        <ele>837.6</ele>
        <time>2022-10-28T11:10:58Z</time>
      </trkpt>
      <trkpt lat="44.50423" lon="5.59294">
        <ele>837.8</ele>
        <time>2022-10-28T11:10:59Z</time>
      </trkpt>
      <trkpt lat="44.50425" lon="5.59296">
        <ele>837.9</ele>
        <time>2022-10-28T11:11:00Z</time>
      </trkpt>
      <trkpt lat="44.50427" lon="5.59298">
        <ele>838</ele>
        <time>2022-10-28T11:11:01Z</time>
      </trkpt>
      <trkpt lat="44.50429" lon="5.59301">
        <ele>838.1</ele>
        <time>2022-10-28T11:11:02Z</time>
      </trkpt>
      <trkpt lat="44.50431" lon="5.59303">
        <ele>838.2</ele>
        <time>2022-10-28T11:11:04Z</time>
      </trkpt>
      <trkpt lat="44.50434" lon="5.59306">
        <ele>838.4</ele>
        <time>2022-10-28T11:11:05Z</time>
      </trkpt>
      <trkpt lat="44.50436" lon="5.59307">
        <ele>838.5</ele>
        <time>2022-10-28T11:11:06Z</time>
      </trkpt>
      <trkpt lat="44.50438" lon="5.59309">
        <ele>838.6</ele>
        <time>2022-10-28T11:11:07Z</time>
      </trkpt>
      <trkpt lat="44.50441" lon="5.59312">
        <ele>838.8</ele>
        <time>2022-10-28T11:11:08Z</time>
      </trkpt>
      <trkpt lat="44.50442" lon="5.59313">
        <ele>838.8</ele>
        <time>2022-10-28T11:11:09Z</time>
      </trkpt>
      <trkpt lat="44.50444" lon="5.59316">
        <ele>839</ele>
        <time>2022-10-28T11:11:10Z</time>
      </trkpt>
      <trkpt lat="44.50445" lon="5.59317">
        <ele>839</ele>
        <time>2022-10-28T11:11:11Z</time>
      </trkpt>
      <trkpt lat="44.50448" lon="5.59319">
        <ele>839.2</ele>
        <time>2022-10-28T11:11:12Z</time>
      </trkpt>
      <trkpt lat="44.5045" lon="5.59321">
        <ele>839.3</ele>
        <time>2022-10-28T11:11:13Z</time>
      </trkpt>
      <trkpt lat="44.50451" lon="5.59322">
        <ele>839.4</ele>
        <time>2022-10-28T11:11:14Z</time>
      </trkpt>
      <trkpt lat="44.50454" lon="5.59325">
        <ele>839.5</ele>
        <time>2022-10-28T11:11:16Z</time>
      </trkpt>
      <trkpt lat="44.50457" lon="5.59328">
        <ele>839.7</ele>
        <time>2022-10-28T11:11:17Z</time>
      </trkpt>
      <trkpt lat="44.50459" lon="5.59331">
        <ele>839.8</ele>
        <time>2022-10-28T11:11:18Z</time>
      </trkpt>
      <trkpt lat="44.50462" lon="5.59334">
        <ele>840</ele>
        <time>2022-10-28T11:11:19Z</time>
      </trkpt>
      <trkpt lat="44.50463" lon="5.59334">
        <ele>840.1</ele>
        <time>2022-10-28T11:11:20Z</time>
      </trkpt>
      <trkpt lat="44.50466" lon="5.59338">
        <ele>840.2</ele>
        <time>2022-10-28T11:11:21Z</time>
      </trkpt>
      <trkpt lat="44.50467" lon="5.59339">
        <ele>840.3</ele>
        <time>2022-10-28T11:11:22Z</time>
      </trkpt>
      <trkpt lat="44.50469" lon="5.59341">
        <ele>840.4</ele>
        <time>2022-10-28T11:11:23Z</time>
      </trkpt>
      <trkpt lat="44.50471" lon="5.59342">
        <ele>840.5</ele>
        <time>2022-10-28T11:11:25Z</time>
      </trkpt>
      <trkpt lat="44.50473" lon="5.59345">
        <ele>840.7</ele>
        <time>2022-10-28T11:11:26Z</time>
      </trkpt>
      <trkpt lat="44.50476" lon="5.59347">
        <ele>840.8</ele>
        <time>2022-10-28T11:11:27Z</time>
      </trkpt>
      <trkpt lat="44.50479" lon="5.5935">
        <ele>841</ele>
        <time>2022-10-28T11:11:28Z</time>
      </trkpt>
      <trkpt lat="44.5048" lon="5.59351">
        <ele>841.1</ele>
        <time>2022-10-28T11:11:29Z</time>
      </trkpt>
      <trkpt lat="44.50483" lon="5.59354">
        <ele>841.3</ele>
        <time>2022-10-28T11:11:30Z</time>
      </trkpt>
      <trkpt lat="44.50484" lon="5.59355">
        <ele>841.3</ele>
        <time>2022-10-28T11:11:31Z</time>
      </trkpt>
      <trkpt lat="44.50487" lon="5.59357">
        <ele>841.4</ele>
        <time>2022-10-28T11:11:32Z</time>
      </trkpt>
      <trkpt lat="44.50488" lon="5.59358">
        <ele>841.5</ele>
        <time>2022-10-28T11:11:33Z</time>
      </trkpt>
      <trkpt lat="44.5049" lon="5.5936">
        <ele>841.6</ele>
        <time>2022-10-28T11:11:34Z</time>
      </trkpt>
      <trkpt lat="44.50492" lon="5.59362">
        <ele>841.7</ele>
        <time>2022-10-28T11:11:35Z</time>
      </trkpt>
      <trkpt lat="44.50495" lon="5.59365">
        <ele>841.9</ele>
        <time>2022-10-28T11:11:37Z</time>
      </trkpt>
      <trkpt lat="44.50498" lon="5.59367">
        <ele>842.1</ele>
        <time>2022-10-28T11:11:38Z</time>
      </trkpt>
      <trkpt lat="44.505" lon="5.59369">
        <ele>842.2</ele>
        <time>2022-10-28T11:11:39Z</time>
      </trkpt>
      <trkpt lat="44.50503" lon="5.59372">
        <ele>842.3</ele>
        <time>2022-10-28T11:11:41Z</time>
      </trkpt>
      <trkpt lat="44.50506" lon="5.59374">
        <ele>842.5</ele>
        <time>2022-10-28T11:11:42Z</time>
      </trkpt>
      <trkpt lat="44.50508" lon="5.59377">
        <ele>842.6</ele>
        <time>2022-10-28T11:11:43Z</time>
      </trkpt>
      <trkpt lat="44.50511" lon="5.59379">
        <ele>842.8</ele>
        <time>2022-10-28T11:11:44Z</time>
      </trkpt>
      <trkpt lat="44.50515" lon="5.59381">
        <ele>842.9</ele>
        <time>2022-10-28T11:11:46Z</time>
      </trkpt>
      <trkpt lat="44.50516" lon="5.59382">
        <ele>843</ele>
        <time>2022-10-28T11:11:47Z</time>
      </trkpt>
      <trkpt lat="44.50519" lon="5.59385">
        <ele>843.2</ele>
        <time>2022-10-28T11:11:48Z</time>
      </trkpt>
      <trkpt lat="44.50521" lon="5.59388">
        <ele>843.3</ele>
        <time>2022-10-28T11:11:49Z</time>
      </trkpt>
      <trkpt lat="44.50524" lon="5.5939">
        <ele>843.4</ele>
        <time>2022-10-28T11:11:50Z</time>
      </trkpt>
      <trkpt lat="44.50526" lon="5.59392">
        <ele>843.6</ele>
        <time>2022-10-28T11:11:51Z</time>
      </trkpt>
      <trkpt lat="44.50529" lon="5.59395">
        <ele>843.7</ele>
        <time>2022-10-28T11:11:52Z</time>
      </trkpt>
      <trkpt lat="44.5053" lon="5.59396">
        <ele>843.8</ele>
        <time>2022-10-28T11:11:53Z</time>
      </trkpt>
      <trkpt lat="44.50533" lon="5.59399">
        <ele>844</ele>
        <time>2022-10-28T11:11:54Z</time>
      </trkpt>
      <trkpt lat="44.50534" lon="5.594">
        <ele>844</ele>
        <time>2022-10-28T11:11:55Z</time>
      </trkpt>
      <trkpt lat="44.50537" lon="5.59402">
        <ele>844.2</ele>
        <time>2022-10-28T11:11:56Z</time>
      </trkpt>
      <trkpt lat="44.50538" lon="5.59403">
        <ele>844.2</ele>
        <time>2022-10-28T11:11:57Z</time>
      </trkpt>
      <trkpt lat="44.5054" lon="5.59404">
        <ele>844.3</ele>
        <time>2022-10-28T11:11:58Z</time>
      </trkpt>
      <trkpt lat="44.50543" lon="5.59406">
        <ele>844.5</ele>
        <time>2022-10-28T11:12:00Z</time>
      </trkpt>
      <trkpt lat="44.50545" lon="5.59407">
        <ele>844.6</ele>
        <time>2022-10-28T11:12:01Z</time>
      </trkpt>
      <trkpt lat="44.50548" lon="5.59409">
        <ele>844.7</ele>
        <time>2022-10-28T11:12:02Z</time>
      </trkpt>
      <trkpt lat="44.50551" lon="5.59411">
        <ele>844.9</ele>
        <time>2022-10-28T11:12:03Z</time>
      </trkpt>
      <trkpt lat="44.50553" lon="5.59412">
        <ele>845</ele>
        <time>2022-10-28T11:12:04Z</time>
      </trkpt>
      <trkpt lat="44.50556" lon="5.59414">
        <ele>845.1</ele>
        <time>2022-10-28T11:12:05Z</time>
      </trkpt>
      <trkpt lat="44.50558" lon="5.59416">
        <ele>845.2</ele>
        <time>2022-10-28T11:12:06Z</time>
      </trkpt>
      <trkpt lat="44.5056" lon="5.59419">
        <ele>845.4</ele>
        <time>2022-10-28T11:12:07Z</time>
      </trkpt>
      <trkpt lat="44.50563" lon="5.59423">
        <ele>845.5</ele>
        <time>2022-10-28T11:12:09Z</time>
      </trkpt>
      <trkpt lat="44.50566" lon="5.59426">
        <ele>845.7</ele>
        <time>2022-10-28T11:12:10Z</time>
      </trkpt>
      <trkpt lat="44.50569" lon="5.59428">
        <ele>845.8</ele>
        <time>2022-10-28T11:12:12Z</time>
      </trkpt>
      <trkpt lat="44.50572" lon="5.5943">
        <ele>846</ele>
        <time>2022-10-28T11:12:13Z</time>
      </trkpt>
      <trkpt lat="44.50574" lon="5.59432">
        <ele>846.1</ele>
        <time>2022-10-28T11:12:14Z</time>
      </trkpt>
      <trkpt lat="44.50576" lon="5.59433">
        <ele>846.2</ele>
        <time>2022-10-28T11:12:15Z</time>
      </trkpt>
      <trkpt lat="44.5058" lon="5.59437">
        <ele>846.4</ele>
        <time>2022-10-28T11:12:17Z</time>
      </trkpt>
      <trkpt lat="44.50582" lon="5.5944">
        <ele>846.5</ele>
        <time>2022-10-28T11:12:18Z</time>
      </trkpt>
      <trkpt lat="44.50584" lon="5.59443">
        <ele>846.6</ele>
        <time>2022-10-28T11:12:19Z</time>
      </trkpt>
      <trkpt lat="44.50585" lon="5.59444">
        <ele>846.7</ele>
        <time>2022-10-28T11:12:20Z</time>
      </trkpt>
      <trkpt lat="44.50587" lon="5.59447">
        <ele>846.8</ele>
        <time>2022-10-28T11:12:21Z</time>
      </trkpt>
      <trkpt lat="44.5059" lon="5.59451">
        <ele>847</ele>
        <time>2022-10-28T11:12:22Z</time>
      </trkpt>
      <trkpt lat="44.50591" lon="5.59451">
        <ele>847</ele>
        <time>2022-10-28T11:12:23Z</time>
      </trkpt>
      <trkpt lat="44.50594" lon="5.59454">
        <ele>847.2</ele>
        <time>2022-10-28T11:12:24Z</time>
      </trkpt>
      <trkpt lat="44.50596" lon="5.59457">
        <ele>847.3</ele>
        <time>2022-10-28T11:12:26Z</time>
      </trkpt>
      <trkpt lat="44.50598" lon="5.5946">
        <ele>847.4</ele>
        <time>2022-10-28T11:12:27Z</time>
      </trkpt>
      <trkpt lat="44.50601" lon="5.59463">
        <ele>847.6</ele>
        <time>2022-10-28T11:12:28Z</time>
      </trkpt>
      <trkpt lat="44.50603" lon="5.59468">
        <ele>847.7</ele>
        <time>2022-10-28T11:12:29Z</time>
      </trkpt>
      <trkpt lat="44.50604" lon="5.59469">
        <ele>847.8</ele>
        <time>2022-10-28T11:12:30Z</time>
      </trkpt>
      <trkpt lat="44.50606" lon="5.59472">
        <ele>847.9</ele>
        <time>2022-10-28T11:12:31Z</time>
      </trkpt>
      <trkpt lat="44.50608" lon="5.59475">
        <ele>848.1</ele>
        <time>2022-10-28T11:12:33Z</time>
      </trkpt>
      <trkpt lat="44.5061" lon="5.59479">
        <ele>848.2</ele>
        <time>2022-10-28T11:12:34Z</time>
      </trkpt>
      <trkpt lat="44.50612" lon="5.59483">
        <ele>848.3</ele>
        <time>2022-10-28T11:12:35Z</time>
      </trkpt>
      <trkpt lat="44.50614" lon="5.59486">
        <ele>848.5</ele>
        <time>2022-10-28T11:12:36Z</time>
      </trkpt>
      <trkpt lat="44.50615" lon="5.5949">
        <ele>848.6</ele>
        <time>2022-10-28T11:12:37Z</time>
      </trkpt>
      <trkpt lat="44.50617" lon="5.59495">
        <ele>848.8</ele>
        <time>2022-10-28T11:12:38Z</time>
      </trkpt>
      <trkpt lat="44.50619" lon="5.59498">
        <ele>848.9</ele>
        <time>2022-10-28T11:12:39Z</time>
      </trkpt>
      <trkpt lat="44.50622" lon="5.59501">
        <ele>849.1</ele>
        <time>2022-10-28T11:12:41Z</time>
      </trkpt>
      <trkpt lat="44.50625" lon="5.59503">
        <ele>849.2</ele>
        <time>2022-10-28T11:12:42Z</time>
      </trkpt>
      <trkpt lat="44.50627" lon="5.59507">
        <ele>849.3</ele>
        <time>2022-10-28T11:12:43Z</time>
      </trkpt>
      <trkpt lat="44.50628" lon="5.5951">
        <ele>849.5</ele>
        <time>2022-10-28T11:12:44Z</time>
      </trkpt>
      <trkpt lat="44.5063" lon="5.59514">
        <ele>849.6</ele>
        <time>2022-10-28T11:12:45Z</time>
      </trkpt>
      <trkpt lat="44.50631" lon="5.59517">
        <ele>849.7</ele>
        <time>2022-10-28T11:12:46Z</time>
      </trkpt>
      <trkpt lat="44.50633" lon="5.59521">
        <ele>849.9</ele>
        <time>2022-10-28T11:12:48Z</time>
      </trkpt>
      <trkpt lat="44.50635" lon="5.59524">
        <ele>850</ele>
        <time>2022-10-28T11:12:49Z</time>
      </trkpt>
      <trkpt lat="44.50637" lon="5.5953">
        <ele>850.2</ele>
        <time>2022-10-28T11:12:51Z</time>
      </trkpt>
      <trkpt lat="44.50639" lon="5.59534">
        <ele>850.4</ele>
        <time>2022-10-28T11:12:52Z</time>
      </trkpt>
      <trkpt lat="44.50641" lon="5.59537">
        <ele>850.5</ele>
        <time>2022-10-28T11:12:53Z</time>
      </trkpt>
      <trkpt lat="44.50643" lon="5.5954">
        <ele>850.6</ele>
        <time>2022-10-28T11:12:55Z</time>
      </trkpt>
      <trkpt lat="44.50644" lon="5.59544">
        <ele>850.8</ele>
        <time>2022-10-28T11:12:56Z</time>
      </trkpt>
      <trkpt lat="44.50646" lon="5.59547">
        <ele>850.9</ele>
        <time>2022-10-28T11:12:57Z</time>
      </trkpt>
      <trkpt lat="44.50648" lon="5.5955">
        <ele>851</ele>
        <time>2022-10-28T11:12:58Z</time>
      </trkpt>
      <trkpt lat="44.50651" lon="5.59555">
        <ele>851.2</ele>
        <time>2022-10-28T11:13:00Z</time>
      </trkpt>
      <trkpt lat="44.50653" lon="5.59559">
        <ele>851.4</ele>
        <time>2022-10-28T11:13:01Z</time>
      </trkpt>
      <trkpt lat="44.50653" lon="5.5956">
        <ele>851.4</ele>
        <time>2022-10-28T11:13:02Z</time>
      </trkpt>
      <trkpt lat="44.50655" lon="5.59564">
        <ele>851.5</ele>
        <time>2022-10-28T11:13:03Z</time>
      </trkpt>
      <trkpt lat="44.50657" lon="5.59568">
        <ele>851.7</ele>
        <time>2022-10-28T11:13:04Z</time>
      </trkpt>
      <trkpt lat="44.50658" lon="5.5957">
        <ele>851.7</ele>
        <time>2022-10-28T11:13:05Z</time>
      </trkpt>
      <trkpt lat="44.50659" lon="5.59574">
        <ele>851.8</ele>
        <time>2022-10-28T11:13:06Z</time>
      </trkpt>
      <trkpt lat="44.5066" lon="5.59576">
        <ele>851.9</ele>
        <time>2022-10-28T11:13:07Z</time>
      </trkpt>
      <trkpt lat="44.50661" lon="5.59579">
        <ele>852</ele>
        <time>2022-10-28T11:13:08Z</time>
      </trkpt>
      <trkpt lat="44.50663" lon="5.59585">
        <ele>852.2</ele>
        <time>2022-10-28T11:13:10Z</time>
      </trkpt>
      <trkpt lat="44.50664" lon="5.5959">
        <ele>852.3</ele>
        <time>2022-10-28T11:13:11Z</time>
      </trkpt>
      <trkpt lat="44.50665" lon="5.59594">
        <ele>852.4</ele>
        <time>2022-10-28T11:13:12Z</time>
      </trkpt>
      <trkpt lat="44.50666" lon="5.59598">
        <ele>852.6</ele>
        <time>2022-10-28T11:13:13Z</time>
      </trkpt>
      <trkpt lat="44.50668" lon="5.59603">
        <ele>852.7</ele>
        <time>2022-10-28T11:13:15Z</time>
      </trkpt>
      <trkpt lat="44.50669" lon="5.59605">
        <ele>852.8</ele>
        <time>2022-10-28T11:13:16Z</time>
      </trkpt>
      <trkpt lat="44.50671" lon="5.59609">
        <ele>852.9</ele>
        <time>2022-10-28T11:13:17Z</time>
      </trkpt>
      <trkpt lat="44.50672" lon="5.59612">
        <ele>853</ele>
        <time>2022-10-28T11:13:18Z</time>
      </trkpt>
      <trkpt lat="44.50674" lon="5.59616">
        <ele>853.2</ele>
        <time>2022-10-28T11:13:19Z</time>
      </trkpt>
      <trkpt lat="44.50675" lon="5.59618">
        <ele>853.2</ele>
        <time>2022-10-28T11:13:20Z</time>
      </trkpt>
      <trkpt lat="44.50678" lon="5.59624">
        <ele>853.4</ele>
        <time>2022-10-28T11:13:22Z</time>
      </trkpt>
      <trkpt lat="44.50678" lon="5.59627">
        <ele>853.5</ele>
        <time>2022-10-28T11:13:23Z</time>
      </trkpt>
      <trkpt lat="44.50679" lon="5.59629">
        <ele>853.6</ele>
        <time>2022-10-28T11:13:24Z</time>
      </trkpt>
      <trkpt lat="44.5068" lon="5.59633">
        <ele>853.7</ele>
        <time>2022-10-28T11:13:25Z</time>
      </trkpt>
      <trkpt lat="44.50681" lon="5.59637">
        <ele>853.8</ele>
        <time>2022-10-28T11:13:26Z</time>
      </trkpt>
      <trkpt lat="44.50683" lon="5.5964">
        <ele>853.9</ele>
        <time>2022-10-28T11:13:27Z</time>
      </trkpt>
      <trkpt lat="44.50684" lon="5.59644">
        <ele>854</ele>
        <time>2022-10-28T11:13:28Z</time>
      </trkpt>
      <trkpt lat="44.50685" lon="5.59647">
        <ele>854.2</ele>
        <time>2022-10-28T11:13:30Z</time>
      </trkpt>
      <trkpt lat="44.50686" lon="5.59651">
        <ele>854.3</ele>
        <time>2022-10-28T11:13:31Z</time>
      </trkpt>
      <trkpt lat="44.50687" lon="5.59656">
        <ele>854.4</ele>
        <time>2022-10-28T11:13:32Z</time>
      </trkpt>
      <trkpt lat="44.50688" lon="5.59659">
        <ele>854.6</ele>
        <time>2022-10-28T11:13:33Z</time>
      </trkpt>
      <trkpt lat="44.50689" lon="5.59664">
        <ele>854.7</ele>
        <time>2022-10-28T11:13:34Z</time>
      </trkpt>
      <trkpt lat="44.5069" lon="5.59666">
        <ele>854.8</ele>
        <time>2022-10-28T11:13:35Z</time>
      </trkpt>
      <trkpt lat="44.50691" lon="5.5967">
        <ele>854.9</ele>
        <time>2022-10-28T11:13:36Z</time>
      </trkpt>
      <trkpt lat="44.50692" lon="5.59672">
        <ele>855</ele>
        <time>2022-10-28T11:13:37Z</time>
      </trkpt>
      <trkpt lat="44.50693" lon="5.59677">
        <ele>855.1</ele>
        <time>2022-10-28T11:13:38Z</time>
      </trkpt>
      <trkpt lat="44.50694" lon="5.59678">
        <ele>855.1</ele>
        <time>2022-10-28T11:13:39Z</time>
      </trkpt>
      <trkpt lat="44.50696" lon="5.59682">
        <ele>855.3</ele>
        <time>2022-10-28T11:13:41Z</time>
      </trkpt>
      <trkpt lat="44.50697" lon="5.59686">
        <ele>855.4</ele>
        <time>2022-10-28T11:13:42Z</time>
      </trkpt>
      <trkpt lat="44.50699" lon="5.5969">
        <ele>855.5</ele>
        <time>2022-10-28T11:13:43Z</time>
      </trkpt>
      <trkpt lat="44.507" lon="5.59694">
        <ele>855.6</ele>
        <time>2022-10-28T11:13:44Z</time>
      </trkpt>
      <trkpt lat="44.50702" lon="5.59698">
        <ele>855.6</ele>
        <time>2022-10-28T11:13:45Z</time>
      </trkpt>
      <trkpt lat="44.50704" lon="5.59702">
        <ele>855.7</ele>
        <time>2022-10-28T11:13:47Z</time>
      </trkpt>
      <trkpt lat="44.50706" lon="5.59707">
        <ele>855.8</ele>
        <time>2022-10-28T11:13:48Z</time>
      </trkpt>
      <trkpt lat="44.50708" lon="5.59711">
        <ele>855.9</ele>
        <time>2022-10-28T11:13:49Z</time>
      </trkpt>
      <trkpt lat="44.5071" lon="5.59715">
        <ele>856</ele>
        <time>2022-10-28T11:13:50Z</time>
      </trkpt>
      <trkpt lat="44.50712" lon="5.59719">
        <ele>856.1</ele>
        <time>2022-10-28T11:13:51Z</time>
      </trkpt>
      <trkpt lat="44.50714" lon="5.59724">
        <ele>856.2</ele>
        <time>2022-10-28T11:13:53Z</time>
      </trkpt>
      <trkpt lat="44.50717" lon="5.59728">
        <ele>856.3</ele>
        <time>2022-10-28T11:13:54Z</time>
      </trkpt>
      <trkpt lat="44.50719" lon="5.59732">
        <ele>856.4</ele>
        <time>2022-10-28T11:13:55Z</time>
      </trkpt>
      <trkpt lat="44.50721" lon="5.59736">
        <ele>856.5</ele>
        <time>2022-10-28T11:13:56Z</time>
      </trkpt>
      <trkpt lat="44.50724" lon="5.5974">
        <ele>856.6</ele>
        <time>2022-10-28T11:13:57Z</time>
      </trkpt>
      <trkpt lat="44.50725" lon="5.59743">
        <ele>856.6</ele>
        <time>2022-10-28T11:13:58Z</time>
      </trkpt>
      <trkpt lat="44.50727" lon="5.59747">
        <ele>856.7</ele>
        <time>2022-10-28T11:13:59Z</time>
      </trkpt>
      <trkpt lat="44.50729" lon="5.59751">
        <ele>856.8</ele>
        <time>2022-10-28T11:14:01Z</time>
      </trkpt>
      <trkpt lat="44.50732" lon="5.59755">
        <ele>856.9</ele>
        <time>2022-10-28T11:14:02Z</time>
      </trkpt>
      <trkpt lat="44.50734" lon="5.59759">
        <ele>857</ele>
        <time>2022-10-28T11:14:03Z</time>
      </trkpt>
      <trkpt lat="44.50736" lon="5.59763">
        <ele>857.1</ele>
        <time>2022-10-28T11:14:04Z</time>
      </trkpt>
      <trkpt lat="44.50738" lon="5.59767">
        <ele>857.2</ele>
        <time>2022-10-28T11:14:05Z</time>
      </trkpt>
      <trkpt lat="44.5074" lon="5.59771">
        <ele>857.3</ele>
        <time>2022-10-28T11:14:07Z</time>
      </trkpt>
      <trkpt lat="44.50742" lon="5.59776">
        <ele>857.3</ele>
        <time>2022-10-28T11:14:08Z</time>
      </trkpt>
      <trkpt lat="44.50744" lon="5.5978">
        <ele>857.4</ele>
        <time>2022-10-28T11:14:09Z</time>
      </trkpt>
      <trkpt lat="44.50746" lon="5.59784">
        <ele>857.5</ele>
        <time>2022-10-28T11:14:10Z</time>
      </trkpt>
      <trkpt lat="44.50747" lon="5.59787">
        <ele>857.6</ele>
        <time>2022-10-28T11:14:11Z</time>
      </trkpt>
      <trkpt lat="44.50749" lon="5.5979">
        <ele>857.7</ele>
        <time>2022-10-28T11:14:12Z</time>
      </trkpt>
      <trkpt lat="44.50751" lon="5.59793">
        <ele>857.7</ele>
        <time>2022-10-28T11:14:13Z</time>
      </trkpt>
      <trkpt lat="44.50754" lon="5.59797">
        <ele>857.8</ele>
        <time>2022-10-28T11:14:15Z</time>
      </trkpt>
      <trkpt lat="44.50757" lon="5.59799">
        <ele>857.9</ele>
        <time>2022-10-28T11:14:16Z</time>
      </trkpt>
      <trkpt lat="44.5076" lon="5.59802">
        <ele>858</ele>
        <time>2022-10-28T11:14:17Z</time>
      </trkpt>
      <trkpt lat="44.50763" lon="5.59805">
        <ele>858.1</ele>
        <time>2022-10-28T11:14:18Z</time>
      </trkpt>
      <trkpt lat="44.50765" lon="5.59809">
        <ele>858.1</ele>
        <time>2022-10-28T11:14:19Z</time>
      </trkpt>
      <trkpt lat="44.50768" lon="5.59812">
        <ele>858.2</ele>
        <time>2022-10-28T11:14:20Z</time>
      </trkpt>
      <trkpt lat="44.5077" lon="5.59816">
        <ele>858.3</ele>
        <time>2022-10-28T11:14:21Z</time>
      </trkpt>
      <trkpt lat="44.50772" lon="5.59818">
        <ele>858.3</ele>
        <time>2022-10-28T11:14:22Z</time>
      </trkpt>
      <trkpt lat="44.50774" lon="5.59821">
        <ele>858.4</ele>
        <time>2022-10-28T11:14:23Z</time>
      </trkpt>
      <trkpt lat="44.50777" lon="5.59825">
        <ele>858.4</ele>
        <time>2022-10-28T11:14:24Z</time>
      </trkpt>
      <trkpt lat="44.50779" lon="5.59829">
        <ele>858.5</ele>
        <time>2022-10-28T11:14:26Z</time>
      </trkpt>
      <trkpt lat="44.50786" lon="5.59839">
        <ele>858.7</ele>
        <time>2022-10-28T11:14:28Z</time>
      </trkpt>
      <trkpt lat="44.50787" lon="5.59844">
        <ele>858.8</ele>
        <time>2022-10-28T11:14:29Z</time>
      </trkpt>
      <trkpt lat="44.50789" lon="5.59849">
        <ele>858.8</ele>
        <time>2022-10-28T11:14:31Z</time>
      </trkpt>
      <trkpt lat="44.50791" lon="5.59855">
        <ele>858.9</ele>
        <time>2022-10-28T11:14:32Z</time>
      </trkpt>
      <trkpt lat="44.50792" lon="5.59861">
        <ele>859</ele>
        <time>2022-10-28T11:14:33Z</time>
      </trkpt>
      <trkpt lat="44.50793" lon="5.59868">
        <ele>859.1</ele>
        <time>2022-10-28T11:14:34Z</time>
      </trkpt>
      <trkpt lat="44.50794" lon="5.59873">
        <ele>859.2</ele>
        <time>2022-10-28T11:14:35Z</time>
      </trkpt>
      <trkpt lat="44.50795" lon="5.59878">
        <ele>859.2</ele>
        <time>2022-10-28T11:14:36Z</time>
      </trkpt>
      <trkpt lat="44.50796" lon="5.59881">
        <ele>859.3</ele>
        <time>2022-10-28T11:14:37Z</time>
      </trkpt>
      <trkpt lat="44.50798" lon="5.59889">
        <ele>859.4</ele>
        <time>2022-10-28T11:14:39Z</time>
      </trkpt>
      <trkpt lat="44.50799" lon="5.59894">
        <ele>859.5</ele>
        <time>2022-10-28T11:14:40Z</time>
      </trkpt>
      <trkpt lat="44.50801" lon="5.59901">
        <ele>859.6</ele>
        <time>2022-10-28T11:14:41Z</time>
      </trkpt>
      <trkpt lat="44.50802" lon="5.59905">
        <ele>859.6</ele>
        <time>2022-10-28T11:14:42Z</time>
      </trkpt>
      <trkpt lat="44.50803" lon="5.59914">
        <ele>859.8</ele>
        <time>2022-10-28T11:14:44Z</time>
      </trkpt>
      <trkpt lat="44.50804" lon="5.5992">
        <ele>859.9</ele>
        <time>2022-10-28T11:14:45Z</time>
      </trkpt>
      <trkpt lat="44.50805" lon="5.59925">
        <ele>860</ele>
        <time>2022-10-28T11:14:46Z</time>
      </trkpt>
      <trkpt lat="44.50806" lon="5.5993">
        <ele>860.1</ele>
        <time>2022-10-28T11:14:47Z</time>
      </trkpt>
      <trkpt lat="44.50807" lon="5.59936">
        <ele>860.2</ele>
        <time>2022-10-28T11:14:48Z</time>
      </trkpt>
      <trkpt lat="44.50807" lon="5.59941">
        <ele>860.3</ele>
        <time>2022-10-28T11:14:50Z</time>
      </trkpt>
      <trkpt lat="44.50808" lon="5.59948">
        <ele>860.3</ele>
        <time>2022-10-28T11:14:51Z</time>
      </trkpt>
      <trkpt lat="44.50809" lon="5.59953">
        <ele>860.4</ele>
        <time>2022-10-28T11:14:52Z</time>
      </trkpt>
      <trkpt lat="44.5081" lon="5.59959">
        <ele>860.4</ele>
        <time>2022-10-28T11:14:53Z</time>
      </trkpt>
      <trkpt lat="44.50812" lon="5.59963">
        <ele>860.5</ele>
        <time>2022-10-28T11:14:54Z</time>
      </trkpt>
      <trkpt lat="44.50814" lon="5.59967">
        <ele>860.5</ele>
        <time>2022-10-28T11:14:55Z</time>
      </trkpt>
      <trkpt lat="44.50816" lon="5.59971">
        <ele>860.5</ele>
        <time>2022-10-28T11:14:56Z</time>
      </trkpt>
      <trkpt lat="44.50818" lon="5.59975">
        <ele>860.6</ele>
        <time>2022-10-28T11:14:57Z</time>
      </trkpt>
      <trkpt lat="44.5082" lon="5.5998">
        <ele>860.6</ele>
        <time>2022-10-28T11:14:58Z</time>
      </trkpt>
      <trkpt lat="44.50822" lon="5.59986">
        <ele>860.8</ele>
        <time>2022-10-28T11:15:00Z</time>
      </trkpt>
      <trkpt lat="44.50825" lon="5.59991">
        <ele>860.9</ele>
        <time>2022-10-28T11:15:01Z</time>
      </trkpt>
      <trkpt lat="44.50828" lon="5.59996">
        <ele>861</ele>
        <time>2022-10-28T11:15:02Z</time>
      </trkpt>
      <trkpt lat="44.5083" lon="5.60001">
        <ele>861.1</ele>
        <time>2022-10-28T11:15:03Z</time>
      </trkpt>
      <trkpt lat="44.50833" lon="5.60006">
        <ele>861.2</ele>
        <time>2022-10-28T11:15:04Z</time>
      </trkpt>
      <trkpt lat="44.50835" lon="5.60011">
        <ele>861.3</ele>
        <time>2022-10-28T11:15:05Z</time>
      </trkpt>
      <trkpt lat="44.50836" lon="5.60016">
        <ele>861.4</ele>
        <time>2022-10-28T11:15:06Z</time>
      </trkpt>
      <trkpt lat="44.50838" lon="5.60021">
        <ele>861.5</ele>
        <time>2022-10-28T11:15:07Z</time>
      </trkpt>
      <trkpt lat="44.5084" lon="5.60026">
        <ele>861.6</ele>
        <time>2022-10-28T11:15:09Z</time>
      </trkpt>
      <trkpt lat="44.50841" lon="5.60032">
        <ele>861.6</ele>
        <time>2022-10-28T11:15:10Z</time>
      </trkpt>
      <trkpt lat="44.50841" lon="5.60037">
        <ele>861.7</ele>
        <time>2022-10-28T11:15:11Z</time>
      </trkpt>
      <trkpt lat="44.50842" lon="5.60042">
        <ele>861.8</ele>
        <time>2022-10-28T11:15:12Z</time>
      </trkpt>
      <trkpt lat="44.50842" lon="5.60048">
        <ele>861.9</ele>
        <time>2022-10-28T11:15:13Z</time>
      </trkpt>
      <trkpt lat="44.50843" lon="5.60054">
        <ele>861.9</ele>
        <time>2022-10-28T11:15:15Z</time>
      </trkpt>
      <trkpt lat="44.50844" lon="5.6006">
        <ele>862</ele>
        <time>2022-10-28T11:15:16Z</time>
      </trkpt>
      <trkpt lat="44.50845" lon="5.60066">
        <ele>862.1</ele>
        <time>2022-10-28T11:15:17Z</time>
      </trkpt>
      <trkpt lat="44.50846" lon="5.60072">
        <ele>862.2</ele>
        <time>2022-10-28T11:15:18Z</time>
      </trkpt>
      <trkpt lat="44.50847" lon="5.60077">
        <ele>862.3</ele>
        <time>2022-10-28T11:15:19Z</time>
      </trkpt>
      <trkpt lat="44.50848" lon="5.60082">
        <ele>862.4</ele>
        <time>2022-10-28T11:15:20Z</time>
      </trkpt>
      <trkpt lat="44.5085" lon="5.6009">
        <ele>862.5</ele>
        <time>2022-10-28T11:15:22Z</time>
      </trkpt>
      <trkpt lat="44.50851" lon="5.60096">
        <ele>862.6</ele>
        <time>2022-10-28T11:15:23Z</time>
      </trkpt>
      <trkpt lat="44.50852" lon="5.601">
        <ele>862.7</ele>
        <time>2022-10-28T11:15:24Z</time>
      </trkpt>
      <trkpt lat="44.50853" lon="5.60106">
        <ele>862.8</ele>
        <time>2022-10-28T11:15:26Z</time>
      </trkpt>
      <trkpt lat="44.50854" lon="5.60112">
        <ele>862.9</ele>
        <time>2022-10-28T11:15:27Z</time>
      </trkpt>
      <trkpt lat="44.50855" lon="5.60117">
        <ele>863</ele>
        <time>2022-10-28T11:15:28Z</time>
      </trkpt>
      <trkpt lat="44.50856" lon="5.60122">
        <ele>863.1</ele>
        <time>2022-10-28T11:15:29Z</time>
      </trkpt>
      <trkpt lat="44.50857" lon="5.60127">
        <ele>863.2</ele>
        <time>2022-10-28T11:15:31Z</time>
      </trkpt>
      <trkpt lat="44.50858" lon="5.60133">
        <ele>863.3</ele>
        <time>2022-10-28T11:15:32Z</time>
      </trkpt>
      <trkpt lat="44.50859" lon="5.60139">
        <ele>863.5</ele>
        <time>2022-10-28T11:15:33Z</time>
      </trkpt>
      <trkpt lat="44.5086" lon="5.60144">
        <ele>863.5</ele>
        <time>2022-10-28T11:15:34Z</time>
      </trkpt>
      <trkpt lat="44.50861" lon="5.60148">
        <ele>863.6</ele>
        <time>2022-10-28T11:15:35Z</time>
      </trkpt>
      <trkpt lat="44.50862" lon="5.60153">
        <ele>863.7</ele>
        <time>2022-10-28T11:15:36Z</time>
      </trkpt>
      <trkpt lat="44.50864" lon="5.60158">
        <ele>863.8</ele>
        <time>2022-10-28T11:15:38Z</time>
      </trkpt>
      <trkpt lat="44.50866" lon="5.60164">
        <ele>863.9</ele>
        <time>2022-10-28T11:15:39Z</time>
      </trkpt>
      <trkpt lat="44.50867" lon="5.60169">
        <ele>863.9</ele>
        <time>2022-10-28T11:15:40Z</time>
      </trkpt>
      <trkpt lat="44.50869" lon="5.60175">
        <ele>864</ele>
        <time>2022-10-28T11:15:41Z</time>
      </trkpt>
      <trkpt lat="44.5087" lon="5.6018">
        <ele>864.1</ele>
        <time>2022-10-28T11:15:43Z</time>
      </trkpt>
      <trkpt lat="44.50872" lon="5.60185">
        <ele>864.2</ele>
        <time>2022-10-28T11:15:44Z</time>
      </trkpt>
      <trkpt lat="44.50874" lon="5.60191">
        <ele>864.2</ele>
        <time>2022-10-28T11:15:45Z</time>
      </trkpt>
      <trkpt lat="44.50877" lon="5.60198">
        <ele>864.3</ele>
        <time>2022-10-28T11:15:47Z</time>
      </trkpt>
      <trkpt lat="44.50878" lon="5.60204">
        <ele>864.4</ele>
        <time>2022-10-28T11:15:48Z</time>
      </trkpt>
      <trkpt lat="44.5088" lon="5.6021">
        <ele>864.5</ele>
        <time>2022-10-28T11:15:49Z</time>
      </trkpt>
      <trkpt lat="44.50881" lon="5.60215">
        <ele>864.5</ele>
        <time>2022-10-28T11:15:50Z</time>
      </trkpt>
      <trkpt lat="44.50883" lon="5.6022">
        <ele>864.6</ele>
        <time>2022-10-28T11:15:51Z</time>
      </trkpt>
      <trkpt lat="44.50885" lon="5.60224">
        <ele>864.7</ele>
        <time>2022-10-28T11:15:52Z</time>
      </trkpt>
      <trkpt lat="44.50887" lon="5.60229">
        <ele>864.8</ele>
        <time>2022-10-28T11:15:53Z</time>
      </trkpt>
      <trkpt lat="44.50888" lon="5.60231">
        <ele>864.8</ele>
        <time>2022-10-28T11:15:54Z</time>
      </trkpt>
      <trkpt lat="44.5089" lon="5.60238">
        <ele>864.9</ele>
        <time>2022-10-28T11:15:56Z</time>
      </trkpt>
      <trkpt lat="44.50892" lon="5.60243">
        <ele>865</ele>
        <time>2022-10-28T11:15:57Z</time>
      </trkpt>
      <trkpt lat="44.50893" lon="5.60248">
        <ele>865</ele>
        <time>2022-10-28T11:15:58Z</time>
      </trkpt>
      <trkpt lat="44.50895" lon="5.60253">
        <ele>865.1</ele>
        <time>2022-10-28T11:15:59Z</time>
      </trkpt>
      <trkpt lat="44.50896" lon="5.60257">
        <ele>865.2</ele>
        <time>2022-10-28T11:16:00Z</time>
      </trkpt>
      <trkpt lat="44.50897" lon="5.60261">
        <ele>865.2</ele>
        <time>2022-10-28T11:16:01Z</time>
      </trkpt>
      <trkpt lat="44.50898" lon="5.60266">
        <ele>865.3</ele>
        <time>2022-10-28T11:16:02Z</time>
      </trkpt>
      <trkpt lat="44.509" lon="5.60273">
        <ele>865.4</ele>
        <time>2022-10-28T11:16:04Z</time>
      </trkpt>
      <trkpt lat="44.50902" lon="5.6028">
        <ele>865.5</ele>
        <time>2022-10-28T11:16:05Z</time>
      </trkpt>
      <trkpt lat="44.50904" lon="5.60285">
        <ele>865.6</ele>
        <time>2022-10-28T11:16:06Z</time>
      </trkpt>
      <trkpt lat="44.50905" lon="5.60291">
        <ele>865.7</ele>
        <time>2022-10-28T11:16:08Z</time>
      </trkpt>
      <trkpt lat="44.50907" lon="5.60297">
        <ele>865.8</ele>
        <time>2022-10-28T11:16:09Z</time>
      </trkpt>
      <trkpt lat="44.50908" lon="5.60303">
        <ele>865.8</ele>
        <time>2022-10-28T11:16:10Z</time>
      </trkpt>
      <trkpt lat="44.50909" lon="5.60307">
        <ele>865.9</ele>
        <time>2022-10-28T11:16:11Z</time>
      </trkpt>
      <trkpt lat="44.5091" lon="5.60313">
        <ele>866</ele>
        <time>2022-10-28T11:16:13Z</time>
      </trkpt>
      <trkpt lat="44.50912" lon="5.6032">
        <ele>866.1</ele>
        <time>2022-10-28T11:16:14Z</time>
      </trkpt>
      <trkpt lat="44.50913" lon="5.60325">
        <ele>866.2</ele>
        <time>2022-10-28T11:16:15Z</time>
      </trkpt>
      <trkpt lat="44.50915" lon="5.6033">
        <ele>866.3</ele>
        <time>2022-10-28T11:16:16Z</time>
      </trkpt>
      <trkpt lat="44.50916" lon="5.60334">
        <ele>866.3</ele>
        <time>2022-10-28T11:16:17Z</time>
      </trkpt>
      <trkpt lat="44.50917" lon="5.60339">
        <ele>866.4</ele>
        <time>2022-10-28T11:16:18Z</time>
      </trkpt>
      <trkpt lat="44.50918" lon="5.60343">
        <ele>866.5</ele>
        <time>2022-10-28T11:16:19Z</time>
      </trkpt>
      <trkpt lat="44.5092" lon="5.60349">
        <ele>866.5</ele>
        <time>2022-10-28T11:16:21Z</time>
      </trkpt>
      <trkpt lat="44.50921" lon="5.60355">
        <ele>866.6</ele>
        <time>2022-10-28T11:16:22Z</time>
      </trkpt>
      <trkpt lat="44.50923" lon="5.6036">
        <ele>866.7</ele>
        <time>2022-10-28T11:16:23Z</time>
      </trkpt>
      <trkpt lat="44.50924" lon="5.60365">
        <ele>866.7</ele>
        <time>2022-10-28T11:16:24Z</time>
      </trkpt>
      <trkpt lat="44.50926" lon="5.60368">
        <ele>866.8</ele>
        <time>2022-10-28T11:16:25Z</time>
      </trkpt>
      <trkpt lat="44.50927" lon="5.60372">
        <ele>866.9</ele>
        <time>2022-10-28T11:16:26Z</time>
      </trkpt>
      <trkpt lat="44.50929" lon="5.60378">
        <ele>867</ele>
        <time>2022-10-28T11:16:27Z</time>
      </trkpt>
      <trkpt lat="44.50931" lon="5.60383">
        <ele>867</ele>
        <time>2022-10-28T11:16:29Z</time>
      </trkpt>
      <trkpt lat="44.50932" lon="5.6039">
        <ele>867.1</ele>
        <time>2022-10-28T11:16:30Z</time>
      </trkpt>
      <trkpt lat="44.50932" lon="5.60396">
        <ele>867.2</ele>
        <time>2022-10-28T11:16:31Z</time>
      </trkpt>
      <trkpt lat="44.50934" lon="5.60401">
        <ele>867.3</ele>
        <time>2022-10-28T11:16:32Z</time>
      </trkpt>
      <trkpt lat="44.50935" lon="5.60406">
        <ele>867.3</ele>
        <time>2022-10-28T11:16:33Z</time>
      </trkpt>
      <trkpt lat="44.50936" lon="5.60412">
        <ele>867.4</ele>
        <time>2022-10-28T11:16:35Z</time>
      </trkpt>
      <trkpt lat="44.50937" lon="5.60418">
        <ele>867.5</ele>
        <time>2022-10-28T11:16:36Z</time>
      </trkpt>
      <trkpt lat="44.50937" lon="5.60425">
        <ele>867.5</ele>
        <time>2022-10-28T11:16:37Z</time>
      </trkpt>
      <trkpt lat="44.50938" lon="5.60431">
        <ele>867.6</ele>
        <time>2022-10-28T11:16:39Z</time>
      </trkpt>
      <trkpt lat="44.50939" lon="5.60437">
        <ele>867.6</ele>
        <time>2022-10-28T11:16:40Z</time>
      </trkpt>
      <trkpt lat="44.5094" lon="5.60442">
        <ele>867.7</ele>
        <time>2022-10-28T11:16:41Z</time>
      </trkpt>
      <trkpt lat="44.50942" lon="5.60447">
        <ele>867.8</ele>
        <time>2022-10-28T11:16:42Z</time>
      </trkpt>
      <trkpt lat="44.50944" lon="5.60451">
        <ele>867.8</ele>
        <time>2022-10-28T11:16:43Z</time>
      </trkpt>
      <trkpt lat="44.50945" lon="5.60456">
        <ele>867.9</ele>
        <time>2022-10-28T11:16:44Z</time>
      </trkpt>
      <trkpt lat="44.50947" lon="5.60462">
        <ele>868</ele>
        <time>2022-10-28T11:16:46Z</time>
      </trkpt>
      <trkpt lat="44.50949" lon="5.60467">
        <ele>868.1</ele>
        <time>2022-10-28T11:16:47Z</time>
      </trkpt>
      <trkpt lat="44.5095" lon="5.60472">
        <ele>868.2</ele>
        <time>2022-10-28T11:16:48Z</time>
      </trkpt>
      <trkpt lat="44.50951" lon="5.60477">
        <ele>868.3</ele>
        <time>2022-10-28T11:16:49Z</time>
      </trkpt>
      <trkpt lat="44.50952" lon="5.60481">
        <ele>868.3</ele>
        <time>2022-10-28T11:16:50Z</time>
      </trkpt>
      <trkpt lat="44.50952" lon="5.60486">
        <ele>868.4</ele>
        <time>2022-10-28T11:16:51Z</time>
      </trkpt>
      <trkpt lat="44.50953" lon="5.60491">
        <ele>868.5</ele>
        <time>2022-10-28T11:16:52Z</time>
      </trkpt>
      <trkpt lat="44.50953" lon="5.60499">
        <ele>868.6</ele>
        <time>2022-10-28T11:16:54Z</time>
      </trkpt>
      <trkpt lat="44.50953" lon="5.60505">
        <ele>868.7</ele>
        <time>2022-10-28T11:16:55Z</time>
      </trkpt>
      <trkpt lat="44.50954" lon="5.60512">
        <ele>868.8</ele>
        <time>2022-10-28T11:16:56Z</time>
      </trkpt>
      <trkpt lat="44.50954" lon="5.60518">
        <ele>868.9</ele>
        <time>2022-10-28T11:16:58Z</time>
      </trkpt>
      <trkpt lat="44.50955" lon="5.60523">
        <ele>869</ele>
        <time>2022-10-28T11:16:59Z</time>
      </trkpt>
      <trkpt lat="44.50956" lon="5.60529">
        <ele>869</ele>
        <time>2022-10-28T11:17:00Z</time>
      </trkpt>
      <trkpt lat="44.50955" lon="5.60535">
        <ele>869.1</ele>
        <time>2022-10-28T11:17:01Z</time>
      </trkpt>
      <trkpt lat="44.50956" lon="5.60539">
        <ele>869.2</ele>
        <time>2022-10-28T11:17:02Z</time>
      </trkpt>
      <trkpt lat="44.50956" lon="5.60544">
        <ele>869.2</ele>
        <time>2022-10-28T11:17:03Z</time>
      </trkpt>
      <trkpt lat="44.50957" lon="5.60549">
        <ele>869.3</ele>
        <time>2022-10-28T11:17:05Z</time>
      </trkpt>
      <trkpt lat="44.50958" lon="5.60555">
        <ele>869.4</ele>
        <time>2022-10-28T11:17:06Z</time>
      </trkpt>
      <trkpt lat="44.50958" lon="5.60561">
        <ele>869.6</ele>
        <time>2022-10-28T11:17:07Z</time>
      </trkpt>
      <trkpt lat="44.50959" lon="5.60566">
        <ele>869.6</ele>
        <time>2022-10-28T11:17:08Z</time>
      </trkpt>
      <trkpt lat="44.50959" lon="5.6057">
        <ele>869.7</ele>
        <time>2022-10-28T11:17:09Z</time>
      </trkpt>
      <trkpt lat="44.5096" lon="5.60576">
        <ele>869.8</ele>
        <time>2022-10-28T11:17:11Z</time>
      </trkpt>
      <trkpt lat="44.5096" lon="5.60581">
        <ele>869.9</ele>
        <time>2022-10-28T11:17:12Z</time>
      </trkpt>
      <trkpt lat="44.5096" lon="5.60588">
        <ele>870</ele>
        <time>2022-10-28T11:17:13Z</time>
      </trkpt>
      <trkpt lat="44.50961" lon="5.60593">
        <ele>870.1</ele>
        <time>2022-10-28T11:17:14Z</time>
      </trkpt>
      <trkpt lat="44.50961" lon="5.60598">
        <ele>870.1</ele>
        <time>2022-10-28T11:17:15Z</time>
      </trkpt>
      <trkpt lat="44.50961" lon="5.60604">
        <ele>870.2</ele>
        <time>2022-10-28T11:17:16Z</time>
      </trkpt>
      <trkpt lat="44.50961" lon="5.6061">
        <ele>870.3</ele>
        <time>2022-10-28T11:17:18Z</time>
      </trkpt>
      <trkpt lat="44.50962" lon="5.60616">
        <ele>870.4</ele>
        <time>2022-10-28T11:17:19Z</time>
      </trkpt>
      <trkpt lat="44.50962" lon="5.60623">
        <ele>870.5</ele>
        <time>2022-10-28T11:17:21Z</time>
      </trkpt>
      <trkpt lat="44.50962" lon="5.60629">
        <ele>870.6</ele>
        <time>2022-10-28T11:17:22Z</time>
      </trkpt>
      <trkpt lat="44.50963" lon="5.60634">
        <ele>870.7</ele>
        <time>2022-10-28T11:17:23Z</time>
      </trkpt>
      <trkpt lat="44.50964" lon="5.6064">
        <ele>870.8</ele>
        <time>2022-10-28T11:17:24Z</time>
      </trkpt>
      <trkpt lat="44.50965" lon="5.60643">
        <ele>870.9</ele>
        <time>2022-10-28T11:17:25Z</time>
      </trkpt>
      <trkpt lat="44.50966" lon="5.60649">
        <ele>871</ele>
        <time>2022-10-28T11:17:26Z</time>
      </trkpt>
      <trkpt lat="44.50967" lon="5.60654">
        <ele>871.1</ele>
        <time>2022-10-28T11:17:28Z</time>
      </trkpt>
      <trkpt lat="44.50968" lon="5.60659">
        <ele>871.2</ele>
        <time>2022-10-28T11:17:29Z</time>
      </trkpt>
      <trkpt lat="44.5097" lon="5.60664">
        <ele>871.4</ele>
        <time>2022-10-28T11:17:30Z</time>
      </trkpt>
      <trkpt lat="44.50971" lon="5.60669">
        <ele>871.5</ele>
        <time>2022-10-28T11:17:31Z</time>
      </trkpt>
      <trkpt lat="44.50972" lon="5.60674">
        <ele>871.6</ele>
        <time>2022-10-28T11:17:32Z</time>
      </trkpt>
      <trkpt lat="44.50973" lon="5.60679">
        <ele>871.7</ele>
        <time>2022-10-28T11:17:33Z</time>
      </trkpt>
      <trkpt lat="44.50973" lon="5.60684">
        <ele>871.8</ele>
        <time>2022-10-28T11:17:34Z</time>
      </trkpt>
      <trkpt lat="44.50974" lon="5.60689">
        <ele>871.9</ele>
        <time>2022-10-28T11:17:35Z</time>
      </trkpt>
      <trkpt lat="44.50974" lon="5.60697">
        <ele>872.1</ele>
        <time>2022-10-28T11:17:37Z</time>
      </trkpt>
      <trkpt lat="44.50976" lon="5.60702">
        <ele>872.2</ele>
        <time>2022-10-28T11:17:38Z</time>
      </trkpt>
      <trkpt lat="44.50976" lon="5.60706">
        <ele>872.3</ele>
        <time>2022-10-28T11:17:40Z</time>
      </trkpt>
      <trkpt lat="44.50976" lon="5.60712">
        <ele>872.5</ele>
        <time>2022-10-28T11:17:41Z</time>
      </trkpt>
      <trkpt lat="44.50976" lon="5.60718">
        <ele>872.6</ele>
        <time>2022-10-28T11:17:42Z</time>
      </trkpt>
      <trkpt lat="44.50977" lon="5.60722">
        <ele>872.7</ele>
        <time>2022-10-28T11:17:43Z</time>
      </trkpt>
      <trkpt lat="44.50977" lon="5.60728">
        <ele>872.9</ele>
        <time>2022-10-28T11:17:44Z</time>
      </trkpt>
      <trkpt lat="44.50978" lon="5.60732">
        <ele>873</ele>
        <time>2022-10-28T11:17:45Z</time>
      </trkpt>
      <trkpt lat="44.50978" lon="5.60736">
        <ele>873.2</ele>
        <time>2022-10-28T11:17:46Z</time>
      </trkpt>
      <trkpt lat="44.50979" lon="5.60741">
        <ele>873.3</ele>
        <time>2022-10-28T11:17:48Z</time>
      </trkpt>
      <trkpt lat="44.50979" lon="5.60746">
        <ele>873.5</ele>
        <time>2022-10-28T11:17:49Z</time>
      </trkpt>
      <trkpt lat="44.5098" lon="5.60751">
        <ele>873.6</ele>
        <time>2022-10-28T11:17:50Z</time>
      </trkpt>
      <trkpt lat="44.5098" lon="5.60755">
        <ele>873.8</ele>
        <time>2022-10-28T11:17:51Z</time>
      </trkpt>
      <trkpt lat="44.50981" lon="5.6076">
        <ele>873.9</ele>
        <time>2022-10-28T11:17:52Z</time>
      </trkpt>
      <trkpt lat="44.50981" lon="5.60761">
        <ele>873.9</ele>
        <time>2022-10-28T11:17:53Z</time>
      </trkpt>
      <trkpt lat="44.50982" lon="5.60766">
        <ele>874.1</ele>
        <time>2022-10-28T11:17:54Z</time>
      </trkpt>
      <trkpt lat="44.50983" lon="5.60768">
        <ele>874.2</ele>
        <time>2022-10-28T11:17:55Z</time>
      </trkpt>
      <trkpt lat="44.50984" lon="5.60772">
        <ele>874.3</ele>
        <time>2022-10-28T11:17:56Z</time>
      </trkpt>
      <trkpt lat="44.50985" lon="5.60774">
        <ele>874.4</ele>
        <time>2022-10-28T11:17:57Z</time>
      </trkpt>
      <trkpt lat="44.50986" lon="5.60779">
        <ele>874.5</ele>
        <time>2022-10-28T11:17:58Z</time>
      </trkpt>
      <trkpt lat="44.50986" lon="5.60781">
        <ele>874.6</ele>
        <time>2022-10-28T11:17:59Z</time>
      </trkpt>
      <trkpt lat="44.50987" lon="5.60786">
        <ele>874.8</ele>
        <time>2022-10-28T11:18:00Z</time>
      </trkpt>
      <trkpt lat="44.50988" lon="5.60788">
        <ele>874.8</ele>
        <time>2022-10-28T11:18:01Z</time>
      </trkpt>
      <trkpt lat="44.50989" lon="5.60792">
        <ele>875</ele>
        <time>2022-10-28T11:18:02Z</time>
      </trkpt>
      <trkpt lat="44.5099" lon="5.60794">
        <ele>875</ele>
        <time>2022-10-28T11:18:03Z</time>
      </trkpt>
      <trkpt lat="44.50991" lon="5.60799">
        <ele>875.1</ele>
        <time>2022-10-28T11:18:04Z</time>
      </trkpt>
      <trkpt lat="44.50992" lon="5.60801">
        <ele>875.2</ele>
        <time>2022-10-28T11:18:05Z</time>
      </trkpt>
      <trkpt lat="44.50993" lon="5.60804">
        <ele>875.3</ele>
        <time>2022-10-28T11:18:06Z</time>
      </trkpt>
      <trkpt lat="44.50994" lon="5.60808">
        <ele>875.4</ele>
        <time>2022-10-28T11:18:07Z</time>
      </trkpt>
      <trkpt lat="44.50995" lon="5.60813">
        <ele>875.6</ele>
        <time>2022-10-28T11:18:08Z</time>
      </trkpt>
      <trkpt lat="44.50996" lon="5.60815">
        <ele>875.6</ele>
        <time>2022-10-28T11:18:09Z</time>
      </trkpt>
      <trkpt lat="44.50997" lon="5.60819">
        <ele>875.7</ele>
        <time>2022-10-28T11:18:10Z</time>
      </trkpt>
      <trkpt lat="44.50998" lon="5.60824">
        <ele>875.9</ele>
        <time>2022-10-28T11:18:11Z</time>
      </trkpt>
      <trkpt lat="44.50998" lon="5.60826">
        <ele>875.9</ele>
        <time>2022-10-28T11:18:12Z</time>
      </trkpt>
      <trkpt lat="44.50999" lon="5.60832">
        <ele>876.1</ele>
        <time>2022-10-28T11:18:13Z</time>
      </trkpt>
      <trkpt lat="44.50999" lon="5.60834">
        <ele>876.1</ele>
        <time>2022-10-28T11:18:14Z</time>
      </trkpt>
      <trkpt lat="44.50999" lon="5.60839">
        <ele>876.3</ele>
        <time>2022-10-28T11:18:15Z</time>
      </trkpt>
      <trkpt lat="44.51" lon="5.60844">
        <ele>876.4</ele>
        <time>2022-10-28T11:18:16Z</time>
      </trkpt>
      <trkpt lat="44.51" lon="5.60847">
        <ele>876.5</ele>
        <time>2022-10-28T11:18:17Z</time>
      </trkpt>
      <trkpt lat="44.51001" lon="5.60851">
        <ele>876.6</ele>
        <time>2022-10-28T11:18:18Z</time>
      </trkpt>
      <trkpt lat="44.51002" lon="5.60855">
        <ele>876.7</ele>
        <time>2022-10-28T11:18:19Z</time>
      </trkpt>
      <trkpt lat="44.51003" lon="5.60859">
        <ele>876.8</ele>
        <time>2022-10-28T11:18:20Z</time>
      </trkpt>
      <trkpt lat="44.51004" lon="5.60865">
        <ele>877</ele>
        <time>2022-10-28T11:18:21Z</time>
      </trkpt>
      <trkpt lat="44.51004" lon="5.60867">
        <ele>877</ele>
        <time>2022-10-28T11:18:22Z</time>
      </trkpt>
      <trkpt lat="44.51005" lon="5.60871">
        <ele>877.1</ele>
        <time>2022-10-28T11:18:23Z</time>
      </trkpt>
      <trkpt lat="44.51006" lon="5.60876">
        <ele>877.3</ele>
        <time>2022-10-28T11:18:24Z</time>
      </trkpt>
      <trkpt lat="44.51006" lon="5.60878">
        <ele>877.3</ele>
        <time>2022-10-28T11:18:25Z</time>
      </trkpt>
      <trkpt lat="44.51008" lon="5.60882">
        <ele>877.4</ele>
        <time>2022-10-28T11:18:26Z</time>
      </trkpt>
      <trkpt lat="44.51009" lon="5.60887">
        <ele>877.6</ele>
        <time>2022-10-28T11:18:27Z</time>
      </trkpt>
      <trkpt lat="44.5101" lon="5.60889">
        <ele>877.6</ele>
        <time>2022-10-28T11:18:28Z</time>
      </trkpt>
      <trkpt lat="44.51011" lon="5.60894">
        <ele>877.8</ele>
        <time>2022-10-28T11:18:30Z</time>
      </trkpt>
      <trkpt lat="44.51012" lon="5.60898">
        <ele>877.9</ele>
        <time>2022-10-28T11:18:31Z</time>
      </trkpt>
      <trkpt lat="44.51013" lon="5.60904">
        <ele>878</ele>
        <time>2022-10-28T11:18:32Z</time>
      </trkpt>
      <trkpt lat="44.51013" lon="5.60908">
        <ele>878.1</ele>
        <time>2022-10-28T11:18:33Z</time>
      </trkpt>
      <trkpt lat="44.51013" lon="5.60912">
        <ele>878.2</ele>
        <time>2022-10-28T11:18:35Z</time>
      </trkpt>
      <trkpt lat="44.51014" lon="5.60916">
        <ele>878.4</ele>
        <time>2022-10-28T11:18:36Z</time>
      </trkpt>
      <trkpt lat="44.51015" lon="5.60921">
        <ele>878.5</ele>
        <time>2022-10-28T11:18:37Z</time>
      </trkpt>
      <trkpt lat="44.51016" lon="5.60927">
        <ele>878.6</ele>
        <time>2022-10-28T11:18:38Z</time>
      </trkpt>
      <trkpt lat="44.51016" lon="5.60929">
        <ele>878.7</ele>
        <time>2022-10-28T11:18:39Z</time>
      </trkpt>
      <trkpt lat="44.51017" lon="5.60933">
        <ele>878.8</ele>
        <time>2022-10-28T11:18:40Z</time>
      </trkpt>
      <trkpt lat="44.51018" lon="5.60937">
        <ele>878.9</ele>
        <time>2022-10-28T11:18:42Z</time>
      </trkpt>
      <trkpt lat="44.51019" lon="5.60942">
        <ele>879.1</ele>
        <time>2022-10-28T11:18:43Z</time>
      </trkpt>
      <trkpt lat="44.5102" lon="5.60945">
        <ele>879.2</ele>
        <time>2022-10-28T11:18:44Z</time>
      </trkpt>
      <trkpt lat="44.51021" lon="5.60951">
        <ele>879.3</ele>
        <time>2022-10-28T11:18:46Z</time>
      </trkpt>
      <trkpt lat="44.51022" lon="5.60955">
        <ele>879.4</ele>
        <time>2022-10-28T11:18:47Z</time>
      </trkpt>
      <trkpt lat="44.51023" lon="5.60958">
        <ele>879.5</ele>
        <time>2022-10-28T11:18:48Z</time>
      </trkpt>
      <trkpt lat="44.51025" lon="5.60965">
        <ele>879.7</ele>
        <time>2022-10-28T11:18:50Z</time>
      </trkpt>
      <trkpt lat="44.51026" lon="5.60969">
        <ele>879.8</ele>
        <time>2022-10-28T11:18:51Z</time>
      </trkpt>
      <trkpt lat="44.51028" lon="5.60973">
        <ele>879.9</ele>
        <time>2022-10-28T11:18:52Z</time>
      </trkpt>
      <trkpt lat="44.51028" lon="5.60977">
        <ele>880</ele>
        <time>2022-10-28T11:18:53Z</time>
      </trkpt>
      <trkpt lat="44.5103" lon="5.60981">
        <ele>880.1</ele>
        <time>2022-10-28T11:18:54Z</time>
      </trkpt>
      <trkpt lat="44.51031" lon="5.60983">
        <ele>880.2</ele>
        <time>2022-10-28T11:18:55Z</time>
      </trkpt>
      <trkpt lat="44.51033" lon="5.60987">
        <ele>880.3</ele>
        <time>2022-10-28T11:18:56Z</time>
      </trkpt>
      <trkpt lat="44.51033" lon="5.60989">
        <ele>880.4</ele>
        <time>2022-10-28T11:18:57Z</time>
      </trkpt>
      <trkpt lat="44.51035" lon="5.60992">
        <ele>880.5</ele>
        <time>2022-10-28T11:18:58Z</time>
      </trkpt>
      <trkpt lat="44.51037" lon="5.60997">
        <ele>880.6</ele>
        <time>2022-10-28T11:19:00Z</time>
      </trkpt>
      <trkpt lat="44.51038" lon="5.60999">
        <ele>880.7</ele>
        <time>2022-10-28T11:19:01Z</time>
      </trkpt>
      <trkpt lat="44.51039" lon="5.61003">
        <ele>880.8</ele>
        <time>2022-10-28T11:19:02Z</time>
      </trkpt>
      <trkpt lat="44.51041" lon="5.61007">
        <ele>881</ele>
        <time>2022-10-28T11:19:03Z</time>
      </trkpt>
      <trkpt lat="44.51042" lon="5.61009">
        <ele>881.1</ele>
        <time>2022-10-28T11:19:04Z</time>
      </trkpt>
      <trkpt lat="44.51044" lon="5.61013">
        <ele>881.2</ele>
        <time>2022-10-28T11:19:05Z</time>
      </trkpt>
      <trkpt lat="44.51045" lon="5.61015">
        <ele>881.3</ele>
        <time>2022-10-28T11:19:06Z</time>
      </trkpt>
      <trkpt lat="44.51046" lon="5.61018">
        <ele>881.4</ele>
        <time>2022-10-28T11:19:08Z</time>
      </trkpt>
      <trkpt lat="44.51047" lon="5.61022">
        <ele>881.6</ele>
        <time>2022-10-28T11:19:09Z</time>
      </trkpt>
      <trkpt lat="44.5105" lon="5.61026">
        <ele>881.7</ele>
        <time>2022-10-28T11:19:10Z</time>
      </trkpt>
      <trkpt lat="44.51051" lon="5.61029">
        <ele>881.9</ele>
        <time>2022-10-28T11:19:11Z</time>
      </trkpt>
      <trkpt lat="44.51052" lon="5.61033">
        <ele>882</ele>
        <time>2022-10-28T11:19:12Z</time>
      </trkpt>
      <trkpt lat="44.51053" lon="5.61035">
        <ele>882.1</ele>
        <time>2022-10-28T11:19:13Z</time>
      </trkpt>
      <trkpt lat="44.51054" lon="5.61039">
        <ele>882.2</ele>
        <time>2022-10-28T11:19:15Z</time>
      </trkpt>
      <trkpt lat="44.51055" lon="5.61042">
        <ele>882.4</ele>
        <time>2022-10-28T11:19:16Z</time>
      </trkpt>
      <trkpt lat="44.51057" lon="5.61047">
        <ele>882.6</ele>
        <time>2022-10-28T11:19:17Z</time>
      </trkpt>
      <trkpt lat="44.51057" lon="5.61048">
        <ele>882.6</ele>
        <time>2022-10-28T11:19:18Z</time>
      </trkpt>
      <trkpt lat="44.51059" lon="5.61052">
        <ele>882.8</ele>
        <time>2022-10-28T11:19:19Z</time>
      </trkpt>
      <trkpt lat="44.51059" lon="5.61053">
        <ele>882.9</ele>
        <time>2022-10-28T11:19:20Z</time>
      </trkpt>
      <trkpt lat="44.51061" lon="5.61057">
        <ele>883.1</ele>
        <time>2022-10-28T11:19:22Z</time>
      </trkpt>
      <trkpt lat="44.51061" lon="5.61059">
        <ele>883.1</ele>
        <time>2022-10-28T11:19:23Z</time>
      </trkpt>
      <trkpt lat="44.51064" lon="5.61063">
        <ele>883.3</ele>
        <time>2022-10-28T11:19:24Z</time>
      </trkpt>
      <trkpt lat="44.51064" lon="5.61064">
        <ele>883.4</ele>
        <time>2022-10-28T11:19:25Z</time>
      </trkpt>
      <trkpt lat="44.51066" lon="5.61068">
        <ele>883.6</ele>
        <time>2022-10-28T11:19:26Z</time>
      </trkpt>
      <trkpt lat="44.51066" lon="5.61069">
        <ele>883.6</ele>
        <time>2022-10-28T11:19:27Z</time>
      </trkpt>
      <trkpt lat="44.51068" lon="5.61074">
        <ele>883.9</ele>
        <time>2022-10-28T11:19:29Z</time>
      </trkpt>
      <trkpt lat="44.51068" lon="5.61077">
        <ele>884</ele>
        <time>2022-10-28T11:19:30Z</time>
      </trkpt>
      <trkpt lat="44.51069" lon="5.61079">
        <ele>884</ele>
        <time>2022-10-28T11:19:31Z</time>
      </trkpt>
      <trkpt lat="44.5107" lon="5.61083">
        <ele>884.2</ele>
        <time>2022-10-28T11:19:32Z</time>
      </trkpt>
      <trkpt lat="44.5107" lon="5.61084">
        <ele>884.3</ele>
        <time>2022-10-28T11:19:33Z</time>
      </trkpt>
      <trkpt lat="44.51071" lon="5.61087">
        <ele>884.4</ele>
        <time>2022-10-28T11:19:34Z</time>
      </trkpt>
      <trkpt lat="44.51071" lon="5.61091">
        <ele>884.6</ele>
        <time>2022-10-28T11:19:36Z</time>
      </trkpt>
      <trkpt lat="44.51072" lon="5.61096">
        <ele>884.8</ele>
        <time>2022-10-28T11:19:37Z</time>
      </trkpt>
      <trkpt lat="44.51073" lon="5.61097">
        <ele>884.8</ele>
        <time>2022-10-28T11:19:38Z</time>
      </trkpt>
      <trkpt lat="44.51073" lon="5.61102">
        <ele>885</ele>
        <time>2022-10-28T11:19:39Z</time>
      </trkpt>
      <trkpt lat="44.51073" lon="5.61104">
        <ele>885.1</ele>
        <time>2022-10-28T11:19:40Z</time>
      </trkpt>
      <trkpt lat="44.51074" lon="5.61108">
        <ele>885.3</ele>
        <time>2022-10-28T11:19:42Z</time>
      </trkpt>
      <trkpt lat="44.51074" lon="5.61112">
        <ele>885.4</ele>
        <time>2022-10-28T11:19:43Z</time>
      </trkpt>
      <trkpt lat="44.51075" lon="5.61116">
        <ele>885.6</ele>
        <time>2022-10-28T11:19:44Z</time>
      </trkpt>
      <trkpt lat="44.51076" lon="5.61118">
        <ele>885.7</ele>
        <time>2022-10-28T11:19:45Z</time>
      </trkpt>
      <trkpt lat="44.51076" lon="5.61121">
        <ele>885.8</ele>
        <time>2022-10-28T11:19:46Z</time>
      </trkpt>
      <trkpt lat="44.51077" lon="5.61124">
        <ele>885.9</ele>
        <time>2022-10-28T11:19:48Z</time>
      </trkpt>
      <trkpt lat="44.51078" lon="5.61129">
        <ele>886.1</ele>
        <time>2022-10-28T11:19:49Z</time>
      </trkpt>
      <trkpt lat="44.51078" lon="5.61131">
        <ele>886.2</ele>
        <time>2022-10-28T11:19:50Z</time>
      </trkpt>
      <trkpt lat="44.5108" lon="5.61136">
        <ele>886.4</ele>
        <time>2022-10-28T11:19:52Z</time>
      </trkpt>
      <trkpt lat="44.5108" lon="5.61139">
        <ele>886.5</ele>
        <time>2022-10-28T11:19:53Z</time>
      </trkpt>
      <trkpt lat="44.51081" lon="5.61144">
        <ele>886.7</ele>
        <time>2022-10-28T11:19:54Z</time>
      </trkpt>
      <trkpt lat="44.51082" lon="5.61145">
        <ele>886.8</ele>
        <time>2022-10-28T11:19:55Z</time>
      </trkpt>
      <trkpt lat="44.51083" lon="5.61148">
        <ele>886.9</ele>
        <time>2022-10-28T11:19:56Z</time>
      </trkpt>
      <trkpt lat="44.51084" lon="5.61152">
        <ele>887</ele>
        <time>2022-10-28T11:19:58Z</time>
      </trkpt>
      <trkpt lat="44.51084" lon="5.61156">
        <ele>887.2</ele>
        <time>2022-10-28T11:19:59Z</time>
      </trkpt>
      <trkpt lat="44.51085" lon="5.61161">
        <ele>887.4</ele>
        <time>2022-10-28T11:20:00Z</time>
      </trkpt>
      <trkpt lat="44.51086" lon="5.61163">
        <ele>887.4</ele>
        <time>2022-10-28T11:20:01Z</time>
      </trkpt>
      <trkpt lat="44.51086" lon="5.61169">
        <ele>887.6</ele>
        <time>2022-10-28T11:20:02Z</time>
      </trkpt>
      <trkpt lat="44.51087" lon="5.6117">
        <ele>887.7</ele>
        <time>2022-10-28T11:20:03Z</time>
      </trkpt>
      <trkpt lat="44.51087" lon="5.61174">
        <ele>887.8</ele>
        <time>2022-10-28T11:20:04Z</time>
      </trkpt>
      <trkpt lat="44.51088" lon="5.61178">
        <ele>887.9</ele>
        <time>2022-10-28T11:20:06Z</time>
      </trkpt>
      <trkpt lat="44.51088" lon="5.61182">
        <ele>888.1</ele>
        <time>2022-10-28T11:20:07Z</time>
      </trkpt>
      <trkpt lat="44.51089" lon="5.61186">
        <ele>888.2</ele>
        <time>2022-10-28T11:20:08Z</time>
      </trkpt>
      <trkpt lat="44.51089" lon="5.61188">
        <ele>888.2</ele>
        <time>2022-10-28T11:20:09Z</time>
      </trkpt>
      <trkpt lat="44.51089" lon="5.61195">
        <ele>888.5</ele>
        <time>2022-10-28T11:20:11Z</time>
      </trkpt>
      <trkpt lat="44.51089" lon="5.61197">
        <ele>888.5</ele>
        <time>2022-10-28T11:20:12Z</time>
      </trkpt>
      <trkpt lat="44.51089" lon="5.612">
        <ele>888.6</ele>
        <time>2022-10-28T11:20:13Z</time>
      </trkpt>
      <trkpt lat="44.51089" lon="5.61205">
        <ele>888.8</ele>
        <time>2022-10-28T11:20:14Z</time>
      </trkpt>
      <trkpt lat="44.51089" lon="5.61207">
        <ele>888.8</ele>
        <time>2022-10-28T11:20:15Z</time>
      </trkpt>
      <trkpt lat="44.5109" lon="5.61211">
        <ele>889</ele>
        <time>2022-10-28T11:20:16Z</time>
      </trkpt>
      <trkpt lat="44.5109" lon="5.61213">
        <ele>889</ele>
        <time>2022-10-28T11:20:17Z</time>
      </trkpt>
      <trkpt lat="44.51091" lon="5.61217">
        <ele>889.2</ele>
        <time>2022-10-28T11:20:18Z</time>
      </trkpt>
      <trkpt lat="44.51092" lon="5.61222">
        <ele>889.4</ele>
        <time>2022-10-28T11:20:20Z</time>
      </trkpt>
      <trkpt lat="44.51092" lon="5.61223">
        <ele>889.4</ele>
        <time>2022-10-28T11:20:21Z</time>
      </trkpt>
      <trkpt lat="44.51093" lon="5.61228">
        <ele>889.6</ele>
        <time>2022-10-28T11:20:22Z</time>
      </trkpt>
      <trkpt lat="44.51093" lon="5.6123">
        <ele>889.7</ele>
        <time>2022-10-28T11:20:23Z</time>
      </trkpt>
      <trkpt lat="44.51094" lon="5.61235">
        <ele>889.9</ele>
        <time>2022-10-28T11:20:24Z</time>
      </trkpt>
      <trkpt lat="44.51094" lon="5.61237">
        <ele>889.9</ele>
        <time>2022-10-28T11:20:25Z</time>
      </trkpt>
      <trkpt lat="44.51096" lon="5.61242">
        <ele>890.1</ele>
        <time>2022-10-28T11:20:27Z</time>
      </trkpt>
      <trkpt lat="44.51096" lon="5.61244">
        <ele>890.2</ele>
        <time>2022-10-28T11:20:28Z</time>
      </trkpt>
      <trkpt lat="44.51098" lon="5.61249">
        <ele>890.4</ele>
        <time>2022-10-28T11:20:29Z</time>
      </trkpt>
      <trkpt lat="44.51098" lon="5.6125">
        <ele>890.5</ele>
        <time>2022-10-28T11:20:30Z</time>
      </trkpt>
      <trkpt lat="44.51099" lon="5.61254">
        <ele>890.6</ele>
        <time>2022-10-28T11:20:31Z</time>
      </trkpt>
      <trkpt lat="44.511" lon="5.61255">
        <ele>890.7</ele>
        <time>2022-10-28T11:20:32Z</time>
      </trkpt>
      <trkpt lat="44.51102" lon="5.61259">
        <ele>890.9</ele>
        <time>2022-10-28T11:20:33Z</time>
      </trkpt>
      <trkpt lat="44.51102" lon="5.6126">
        <ele>890.9</ele>
        <time>2022-10-28T11:20:34Z</time>
      </trkpt>
      <trkpt lat="44.51103" lon="5.61262">
        <ele>891</ele>
        <time>2022-10-28T11:20:35Z</time>
      </trkpt>
      <trkpt lat="44.51105" lon="5.61266">
        <ele>891.2</ele>
        <time>2022-10-28T11:20:37Z</time>
      </trkpt>
      <trkpt lat="44.51106" lon="5.61269">
        <ele>891.3</ele>
        <time>2022-10-28T11:20:38Z</time>
      </trkpt>
      <trkpt lat="44.51109" lon="5.61273">
        <ele>891.5</ele>
        <time>2022-10-28T11:20:39Z</time>
      </trkpt>
      <trkpt lat="44.5111" lon="5.61274">
        <ele>891.6</ele>
        <time>2022-10-28T11:20:40Z</time>
      </trkpt>
      <trkpt lat="44.51112" lon="5.61276">
        <ele>891.7</ele>
        <time>2022-10-28T11:20:41Z</time>
      </trkpt>
      <trkpt lat="44.51113" lon="5.61279">
        <ele>891.9</ele>
        <time>2022-10-28T11:20:43Z</time>
      </trkpt>
      <trkpt lat="44.51115" lon="5.61283">
        <ele>892.1</ele>
        <time>2022-10-28T11:20:44Z</time>
      </trkpt>
      <trkpt lat="44.51116" lon="5.61284">
        <ele>892.1</ele>
        <time>2022-10-28T11:20:45Z</time>
      </trkpt>
      <trkpt lat="44.51119" lon="5.61288">
        <ele>892.3</ele>
        <time>2022-10-28T11:20:46Z</time>
      </trkpt>
      <trkpt lat="44.51119" lon="5.6129">
        <ele>892.4</ele>
        <time>2022-10-28T11:20:47Z</time>
      </trkpt>
      <trkpt lat="44.51121" lon="5.61294">
        <ele>892.6</ele>
        <time>2022-10-28T11:20:48Z</time>
      </trkpt>
      <trkpt lat="44.51122" lon="5.61295">
        <ele>892.6</ele>
        <time>2022-10-28T11:20:49Z</time>
      </trkpt>
      <trkpt lat="44.51123" lon="5.61297">
        <ele>892.8</ele>
        <time>2022-10-28T11:20:50Z</time>
      </trkpt>
      <trkpt lat="44.51124" lon="5.613">
        <ele>892.9</ele>
        <time>2022-10-28T11:20:52Z</time>
      </trkpt>
      <trkpt lat="44.51125" lon="5.61304">
        <ele>893.1</ele>
        <time>2022-10-28T11:20:53Z</time>
      </trkpt>
      <trkpt lat="44.51126" lon="5.61306">
        <ele>893.2</ele>
        <time>2022-10-28T11:20:54Z</time>
      </trkpt>
      <trkpt lat="44.51126" lon="5.61309">
        <ele>893.3</ele>
        <time>2022-10-28T11:20:55Z</time>
      </trkpt>
      <trkpt lat="44.51127" lon="5.61312">
        <ele>893.4</ele>
        <time>2022-10-28T11:20:56Z</time>
      </trkpt>
      <trkpt lat="44.51127" lon="5.61316">
        <ele>893.5</ele>
        <time>2022-10-28T11:20:57Z</time>
      </trkpt>
      <trkpt lat="44.51127" lon="5.61317">
        <ele>893.6</ele>
        <time>2022-10-28T11:20:58Z</time>
      </trkpt>
      <trkpt lat="44.51128" lon="5.6132">
        <ele>893.7</ele>
        <time>2022-10-28T11:20:59Z</time>
      </trkpt>
      <trkpt lat="44.51128" lon="5.61322">
        <ele>893.8</ele>
        <time>2022-10-28T11:21:01Z</time>
      </trkpt>
      <trkpt lat="44.51129" lon="5.61328">
        <ele>894</ele>
        <time>2022-10-28T11:21:02Z</time>
      </trkpt>
      <trkpt lat="44.51129" lon="5.61329">
        <ele>894.1</ele>
        <time>2022-10-28T11:21:03Z</time>
      </trkpt>
      <trkpt lat="44.5113" lon="5.61334">
        <ele>894.3</ele>
        <time>2022-10-28T11:21:04Z</time>
      </trkpt>
      <trkpt lat="44.5113" lon="5.61336">
        <ele>894.3</ele>
        <time>2022-10-28T11:21:05Z</time>
      </trkpt>
      <trkpt lat="44.5113" lon="5.6134">
        <ele>894.5</ele>
        <time>2022-10-28T11:21:06Z</time>
      </trkpt>
      <trkpt lat="44.5113" lon="5.61342">
        <ele>894.6</ele>
        <time>2022-10-28T11:21:07Z</time>
      </trkpt>
      <trkpt lat="44.51131" lon="5.61346">
        <ele>894.7</ele>
        <time>2022-10-28T11:21:09Z</time>
      </trkpt>
      <trkpt lat="44.51131" lon="5.61348">
        <ele>894.8</ele>
        <time>2022-10-28T11:21:10Z</time>
      </trkpt>
      <trkpt lat="44.51132" lon="5.61352">
        <ele>895</ele>
        <time>2022-10-28T11:21:11Z</time>
      </trkpt>
      <trkpt lat="44.51133" lon="5.61355">
        <ele>895.1</ele>
        <time>2022-10-28T11:21:12Z</time>
      </trkpt>
      <trkpt lat="44.51133" lon="5.61356">
        <ele>895.1</ele>
        <time>2022-10-28T11:21:13Z</time>
      </trkpt>
      <trkpt lat="44.51134" lon="5.61358">
        <ele>895.2</ele>
        <time>2022-10-28T11:21:14Z</time>
      </trkpt>
      <trkpt lat="44.51135" lon="5.61361">
        <ele>895.4</ele>
        <time>2022-10-28T11:21:15Z</time>
      </trkpt>
      <trkpt lat="44.51136" lon="5.61363">
        <ele>895.4</ele>
        <time>2022-10-28T11:21:16Z</time>
      </trkpt>
      <trkpt lat="44.51137" lon="5.61365">
        <ele>895.5</ele>
        <time>2022-10-28T11:21:17Z</time>
      </trkpt>
      <trkpt lat="44.51138" lon="5.61368">
        <ele>895.7</ele>
        <time>2022-10-28T11:21:19Z</time>
      </trkpt>
      <trkpt lat="44.51139" lon="5.61372">
        <ele>895.8</ele>
        <time>2022-10-28T11:21:20Z</time>
      </trkpt>
      <trkpt lat="44.51141" lon="5.61375">
        <ele>896</ele>
        <time>2022-10-28T11:21:21Z</time>
      </trkpt>
      <trkpt lat="44.51143" lon="5.6138">
        <ele>896.2</ele>
        <time>2022-10-28T11:21:23Z</time>
      </trkpt>
      <trkpt lat="44.51143" lon="5.61381">
        <ele>896.2</ele>
        <time>2022-10-28T11:21:24Z</time>
      </trkpt>
      <trkpt lat="44.51145" lon="5.61385">
        <ele>896.4</ele>
        <time>2022-10-28T11:21:25Z</time>
      </trkpt>
      <trkpt lat="44.51146" lon="5.61386">
        <ele>896.5</ele>
        <time>2022-10-28T11:21:26Z</time>
      </trkpt>
      <trkpt lat="44.51148" lon="5.6139">
        <ele>896.6</ele>
        <time>2022-10-28T11:21:27Z</time>
      </trkpt>
      <trkpt lat="44.51148" lon="5.61392">
        <ele>896.7</ele>
        <time>2022-10-28T11:21:28Z</time>
      </trkpt>
      <trkpt lat="44.51149" lon="5.61395">
        <ele>896.8</ele>
        <time>2022-10-28T11:21:30Z</time>
      </trkpt>
      <trkpt lat="44.5115" lon="5.61397">
        <ele>896.9</ele>
        <time>2022-10-28T11:21:31Z</time>
      </trkpt>
      <trkpt lat="44.51152" lon="5.61401">
        <ele>897.1</ele>
        <time>2022-10-28T11:21:32Z</time>
      </trkpt>
      <trkpt lat="44.51153" lon="5.61402">
        <ele>897.1</ele>
        <time>2022-10-28T11:21:33Z</time>
      </trkpt>
      <trkpt lat="44.51155" lon="5.61406">
        <ele>897.3</ele>
        <time>2022-10-28T11:21:34Z</time>
      </trkpt>
      <trkpt lat="44.51155" lon="5.61408">
        <ele>897.4</ele>
        <time>2022-10-28T11:21:35Z</time>
      </trkpt>
      <trkpt lat="44.51157" lon="5.61413">
        <ele>897.6</ele>
        <time>2022-10-28T11:21:37Z</time>
      </trkpt>
      <trkpt lat="44.51157" lon="5.61415">
        <ele>897.6</ele>
        <time>2022-10-28T11:21:38Z</time>
      </trkpt>
      <trkpt lat="44.51158" lon="5.61417">
        <ele>897.7</ele>
        <time>2022-10-28T11:21:39Z</time>
      </trkpt>
      <trkpt lat="44.5116" lon="5.61421">
        <ele>897.9</ele>
        <time>2022-10-28T11:21:40Z</time>
      </trkpt>
      <trkpt lat="44.5116" lon="5.61423">
        <ele>897.9</ele>
        <time>2022-10-28T11:21:41Z</time>
      </trkpt>
      <trkpt lat="44.51161" lon="5.61425">
        <ele>898</ele>
        <time>2022-10-28T11:21:42Z</time>
      </trkpt>
      <trkpt lat="44.51162" lon="5.61427">
        <ele>898.1</ele>
        <time>2022-10-28T11:21:43Z</time>
      </trkpt>
      <trkpt lat="44.51163" lon="5.61432">
        <ele>898.3</ele>
        <time>2022-10-28T11:21:45Z</time>
      </trkpt>
      <trkpt lat="44.51164" lon="5.61434">
        <ele>898.4</ele>
        <time>2022-10-28T11:21:46Z</time>
      </trkpt>
      <trkpt lat="44.51166" lon="5.61438">
        <ele>898.5</ele>
        <time>2022-10-28T11:21:47Z</time>
      </trkpt>
      <trkpt lat="44.51166" lon="5.61439">
        <ele>898.6</ele>
        <time>2022-10-28T11:21:48Z</time>
      </trkpt>
      <trkpt lat="44.51168" lon="5.61442">
        <ele>898.7</ele>
        <time>2022-10-28T11:21:49Z</time>
      </trkpt>
      <trkpt lat="44.51168" lon="5.61446">
        <ele>898.8</ele>
        <time>2022-10-28T11:21:50Z</time>
      </trkpt>
      <trkpt lat="44.51168" lon="5.6145">
        <ele>899</ele>
        <time>2022-10-28T11:21:51Z</time>
      </trkpt>
      <trkpt lat="44.51169" lon="5.61456">
        <ele>899.2</ele>
        <time>2022-10-28T11:21:53Z</time>
      </trkpt>
      <trkpt lat="44.5117" lon="5.61458">
        <ele>899.3</ele>
        <time>2022-10-28T11:21:54Z</time>
      </trkpt>
      <trkpt lat="44.5117" lon="5.61461">
        <ele>899.4</ele>
        <time>2022-10-28T11:21:55Z</time>
      </trkpt>
      <trkpt lat="44.51171" lon="5.61465">
        <ele>899.6</ele>
        <time>2022-10-28T11:21:56Z</time>
      </trkpt>
      <trkpt lat="44.51171" lon="5.61466">
        <ele>899.6</ele>
        <time>2022-10-28T11:21:57Z</time>
      </trkpt>
      <trkpt lat="44.51171" lon="5.6147">
        <ele>899.7</ele>
        <time>2022-10-28T11:21:58Z</time>
      </trkpt>
      <trkpt lat="44.51172" lon="5.61473">
        <ele>899.8</ele>
        <time>2022-10-28T11:22:00Z</time>
      </trkpt>
      <trkpt lat="44.51173" lon="5.61479">
        <ele>900</ele>
        <time>2022-10-28T11:22:01Z</time>
      </trkpt>
      <trkpt lat="44.51173" lon="5.6148">
        <ele>900.1</ele>
        <time>2022-10-28T11:22:02Z</time>
      </trkpt>
      <trkpt lat="44.51174" lon="5.61485">
        <ele>900.3</ele>
        <time>2022-10-28T11:22:03Z</time>
      </trkpt>
      <trkpt lat="44.51174" lon="5.61486">
        <ele>900.3</ele>
        <time>2022-10-28T11:22:04Z</time>
      </trkpt>
      <trkpt lat="44.51176" lon="5.61492">
        <ele>900.6</ele>
        <time>2022-10-28T11:22:06Z</time>
      </trkpt>
      <trkpt lat="44.51176" lon="5.61494">
        <ele>900.7</ele>
        <time>2022-10-28T11:22:07Z</time>
      </trkpt>
      <trkpt lat="44.51176" lon="5.61496">
        <ele>900.8</ele>
        <time>2022-10-28T11:22:08Z</time>
      </trkpt>
      <trkpt lat="44.51177" lon="5.61498">
        <ele>900.8</ele>
        <time>2022-10-28T11:22:09Z</time>
      </trkpt>
      <trkpt lat="44.51178" lon="5.615">
        <ele>900.9</ele>
        <time>2022-10-28T11:22:10Z</time>
      </trkpt>
      <trkpt lat="44.51179" lon="5.61502">
        <ele>901</ele>
        <time>2022-10-28T11:22:11Z</time>
      </trkpt>
      <trkpt lat="44.51179" lon="5.61504">
        <ele>901.1</ele>
        <time>2022-10-28T11:22:12Z</time>
      </trkpt>
      <trkpt lat="44.5118" lon="5.61509">
        <ele>901.3</ele>
        <time>2022-10-28T11:22:13Z</time>
      </trkpt>
      <trkpt lat="44.5118" lon="5.6151">
        <ele>901.4</ele>
        <time>2022-10-28T11:22:14Z</time>
      </trkpt>
      <trkpt lat="44.5118" lon="5.61515">
        <ele>901.5</ele>
        <time>2022-10-28T11:22:15Z</time>
      </trkpt>
      <trkpt lat="44.51181" lon="5.61516">
        <ele>901.6</ele>
        <time>2022-10-28T11:22:16Z</time>
      </trkpt>
      <trkpt lat="44.51182" lon="5.6152">
        <ele>901.8</ele>
        <time>2022-10-28T11:22:18Z</time>
      </trkpt>
      <trkpt lat="44.51182" lon="5.61522">
        <ele>901.8</ele>
        <time>2022-10-28T11:22:19Z</time>
      </trkpt>
      <trkpt lat="44.51183" lon="5.61525">
        <ele>902</ele>
        <time>2022-10-28T11:22:20Z</time>
      </trkpt>
      <trkpt lat="44.51184" lon="5.61527">
        <ele>902.1</ele>
        <time>2022-10-28T11:22:21Z</time>
      </trkpt>
      <trkpt lat="44.51185" lon="5.61531">
        <ele>902.2</ele>
        <time>2022-10-28T11:22:22Z</time>
      </trkpt>
      <trkpt lat="44.51185" lon="5.61533">
        <ele>902.3</ele>
        <time>2022-10-28T11:22:23Z</time>
      </trkpt>
      <trkpt lat="44.51185" lon="5.61538">
        <ele>902.5</ele>
        <time>2022-10-28T11:22:25Z</time>
      </trkpt>
      <trkpt lat="44.51186" lon="5.6154">
        <ele>902.6</ele>
        <time>2022-10-28T11:22:26Z</time>
      </trkpt>
      <trkpt lat="44.51186" lon="5.61542">
        <ele>902.6</ele>
        <time>2022-10-28T11:22:27Z</time>
      </trkpt>
      <trkpt lat="44.51188" lon="5.61547">
        <ele>902.8</ele>
        <time>2022-10-28T11:22:28Z</time>
      </trkpt>
      <trkpt lat="44.51188" lon="5.61548">
        <ele>902.9</ele>
        <time>2022-10-28T11:22:29Z</time>
      </trkpt>
      <trkpt lat="44.51189" lon="5.61552">
        <ele>903.1</ele>
        <time>2022-10-28T11:22:30Z</time>
      </trkpt>
      <trkpt lat="44.51189" lon="5.61554">
        <ele>903.1</ele>
        <time>2022-10-28T11:22:31Z</time>
      </trkpt>
      <trkpt lat="44.5119" lon="5.61557">
        <ele>903.2</ele>
        <time>2022-10-28T11:22:32Z</time>
      </trkpt>
      <trkpt lat="44.51191" lon="5.6156">
        <ele>903.4</ele>
        <time>2022-10-28T11:22:34Z</time>
      </trkpt>
      <trkpt lat="44.51192" lon="5.61565">
        <ele>903.6</ele>
        <time>2022-10-28T11:22:35Z</time>
      </trkpt>
      <trkpt lat="44.51192" lon="5.61566">
        <ele>903.6</ele>
        <time>2022-10-28T11:22:36Z</time>
      </trkpt>
      <trkpt lat="44.51193" lon="5.6157">
        <ele>903.8</ele>
        <time>2022-10-28T11:22:37Z</time>
      </trkpt>
      <trkpt lat="44.51193" lon="5.61575">
        <ele>904</ele>
        <time>2022-10-28T11:22:38Z</time>
      </trkpt>
      <trkpt lat="44.51193" lon="5.61577">
        <ele>904</ele>
        <time>2022-10-28T11:22:39Z</time>
      </trkpt>
      <trkpt lat="44.51192" lon="5.6158">
        <ele>904.2</ele>
        <time>2022-10-28T11:22:40Z</time>
      </trkpt>
      <trkpt lat="44.51192" lon="5.61584">
        <ele>904.3</ele>
        <time>2022-10-28T11:22:42Z</time>
      </trkpt>
      <trkpt lat="44.51193" lon="5.61588">
        <ele>904.5</ele>
        <time>2022-10-28T11:22:43Z</time>
      </trkpt>
      <trkpt lat="44.51193" lon="5.61592">
        <ele>904.6</ele>
        <time>2022-10-28T11:22:45Z</time>
      </trkpt>
      <trkpt lat="44.51192" lon="5.61596">
        <ele>904.8</ele>
        <time>2022-10-28T11:22:46Z</time>
      </trkpt>
      <trkpt lat="44.51192" lon="5.61598">
        <ele>904.9</ele>
        <time>2022-10-28T11:22:47Z</time>
      </trkpt>
      <trkpt lat="44.51192" lon="5.61602">
        <ele>905.1</ele>
        <time>2022-10-28T11:22:48Z</time>
      </trkpt>
      <trkpt lat="44.51192" lon="5.61604">
        <ele>905.1</ele>
        <time>2022-10-28T11:22:49Z</time>
      </trkpt>
      <trkpt lat="44.51192" lon="5.61607">
        <ele>905.2</ele>
        <time>2022-10-28T11:22:50Z</time>
      </trkpt>
      <trkpt lat="44.51192" lon="5.6161">
        <ele>905.4</ele>
        <time>2022-10-28T11:22:52Z</time>
      </trkpt>
      <trkpt lat="44.51192" lon="5.61615">
        <ele>905.6</ele>
        <time>2022-10-28T11:22:53Z</time>
      </trkpt>
      <trkpt lat="44.51192" lon="5.61619">
        <ele>905.7</ele>
        <time>2022-10-28T11:22:55Z</time>
      </trkpt>
      <trkpt lat="44.51192" lon="5.61621">
        <ele>905.8</ele>
        <time>2022-10-28T11:22:56Z</time>
      </trkpt>
      <trkpt lat="44.51193" lon="5.61625">
        <ele>906</ele>
        <time>2022-10-28T11:22:57Z</time>
      </trkpt>
      <trkpt lat="44.51193" lon="5.61627">
        <ele>906</ele>
        <time>2022-10-28T11:22:58Z</time>
      </trkpt>
      <trkpt lat="44.51194" lon="5.61632">
        <ele>906.3</ele>
        <time>2022-10-28T11:23:00Z</time>
      </trkpt>
      <trkpt lat="44.51195" lon="5.61635">
        <ele>906.3</ele>
        <time>2022-10-28T11:23:01Z</time>
      </trkpt>
      <trkpt lat="44.51195" lon="5.61639">
        <ele>906.5</ele>
        <time>2022-10-28T11:23:03Z</time>
      </trkpt>
      <trkpt lat="44.51196" lon="5.61644">
        <ele>906.7</ele>
        <time>2022-10-28T11:23:04Z</time>
      </trkpt>
      <trkpt lat="44.51197" lon="5.61645">
        <ele>906.8</ele>
        <time>2022-10-28T11:23:05Z</time>
      </trkpt>
      <trkpt lat="44.51198" lon="5.61649">
        <ele>906.9</ele>
        <time>2022-10-28T11:23:06Z</time>
      </trkpt>
      <trkpt lat="44.51198" lon="5.6165">
        <ele>907</ele>
        <time>2022-10-28T11:23:07Z</time>
      </trkpt>
      <trkpt lat="44.51199" lon="5.61652">
        <ele>907</ele>
        <time>2022-10-28T11:23:08Z</time>
      </trkpt>
      <trkpt lat="44.51199" lon="5.61654">
        <ele>907.2</ele>
        <time>2022-10-28T11:23:09Z</time>
      </trkpt>
      <trkpt lat="44.512" lon="5.61657">
        <ele>907.3</ele>
        <time>2022-10-28T11:23:10Z</time>
      </trkpt>
      <trkpt lat="44.51201" lon="5.6166">
        <ele>907.4</ele>
        <time>2022-10-28T11:23:12Z</time>
      </trkpt>
      <trkpt lat="44.51202" lon="5.61665">
        <ele>907.6</ele>
        <time>2022-10-28T11:23:13Z</time>
      </trkpt>
      <trkpt lat="44.51202" lon="5.61667">
        <ele>907.7</ele>
        <time>2022-10-28T11:23:14Z</time>
      </trkpt>
      <trkpt lat="44.51203" lon="5.61671">
        <ele>907.8</ele>
        <time>2022-10-28T11:23:15Z</time>
      </trkpt>
      <trkpt lat="44.51205" lon="5.61675">
        <ele>908</ele>
        <time>2022-10-28T11:23:16Z</time>
      </trkpt>
      <trkpt lat="44.51206" lon="5.61676">
        <ele>908.1</ele>
        <time>2022-10-28T11:23:17Z</time>
      </trkpt>
      <trkpt lat="44.51207" lon="5.61678">
        <ele>908.2</ele>
        <time>2022-10-28T11:23:18Z</time>
      </trkpt>
      <trkpt lat="44.51208" lon="5.61681">
        <ele>908.3</ele>
        <time>2022-10-28T11:23:20Z</time>
      </trkpt>
      <trkpt lat="44.51209" lon="5.61685">
        <ele>908.5</ele>
        <time>2022-10-28T11:23:21Z</time>
      </trkpt>
      <trkpt lat="44.5121" lon="5.61686">
        <ele>908.5</ele>
        <time>2022-10-28T11:23:22Z</time>
      </trkpt>
      <trkpt lat="44.51212" lon="5.61688">
        <ele>908.7</ele>
        <time>2022-10-28T11:23:23Z</time>
      </trkpt>
      <trkpt lat="44.51214" lon="5.61692">
        <ele>908.8</ele>
        <time>2022-10-28T11:23:25Z</time>
      </trkpt>
      <trkpt lat="44.51215" lon="5.61696">
        <ele>909</ele>
        <time>2022-10-28T11:23:26Z</time>
      </trkpt>
      <trkpt lat="44.51217" lon="5.61699">
        <ele>909.2</ele>
        <time>2022-10-28T11:23:27Z</time>
      </trkpt>
      <trkpt lat="44.51218" lon="5.617">
        <ele>909.2</ele>
        <time>2022-10-28T11:23:28Z</time>
      </trkpt>
      <trkpt lat="44.51219" lon="5.61704">
        <ele>909.4</ele>
        <time>2022-10-28T11:23:29Z</time>
      </trkpt>
      <trkpt lat="44.5122" lon="5.61705">
        <ele>909.5</ele>
        <time>2022-10-28T11:23:30Z</time>
      </trkpt>
      <trkpt lat="44.51221" lon="5.61708">
        <ele>909.7</ele>
        <time>2022-10-28T11:23:32Z</time>
      </trkpt>
      <trkpt lat="44.51222" lon="5.61709">
        <ele>909.7</ele>
        <time>2022-10-28T11:23:33Z</time>
      </trkpt>
      <trkpt lat="44.51224" lon="5.61713">
        <ele>909.9</ele>
        <time>2022-10-28T11:23:34Z</time>
      </trkpt>
      <trkpt lat="44.51224" lon="5.61714">
        <ele>910</ele>
        <time>2022-10-28T11:23:35Z</time>
      </trkpt>
      <trkpt lat="44.51227" lon="5.61717">
        <ele>910.2</ele>
        <time>2022-10-28T11:23:37Z</time>
      </trkpt>
      <trkpt lat="44.51227" lon="5.61718">
        <ele>910.2</ele>
        <time>2022-10-28T11:23:38Z</time>
      </trkpt>
      <trkpt lat="44.51229" lon="5.61721">
        <ele>910.4</ele>
        <time>2022-10-28T11:23:39Z</time>
      </trkpt>
      <trkpt lat="44.5123" lon="5.61722">
        <ele>910.5</ele>
        <time>2022-10-28T11:23:40Z</time>
      </trkpt>
      <trkpt lat="44.51231" lon="5.61724">
        <ele>910.6</ele>
        <time>2022-10-28T11:23:41Z</time>
      </trkpt>
      <trkpt lat="44.51232" lon="5.61726">
        <ele>910.7</ele>
        <time>2022-10-28T11:23:42Z</time>
      </trkpt>
      <trkpt lat="44.51234" lon="5.61732">
        <ele>911</ele>
        <time>2022-10-28T11:23:44Z</time>
      </trkpt>
      <trkpt lat="44.51235" lon="5.61734">
        <ele>911.1</ele>
        <time>2022-10-28T11:23:45Z</time>
      </trkpt>
      <trkpt lat="44.51236" lon="5.61736">
        <ele>911.2</ele>
        <time>2022-10-28T11:23:46Z</time>
      </trkpt>
      <trkpt lat="44.51237" lon="5.6174">
        <ele>911.4</ele>
        <time>2022-10-28T11:23:48Z</time>
      </trkpt>
      <trkpt lat="44.51238" lon="5.61742">
        <ele>911.5</ele>
        <time>2022-10-28T11:23:49Z</time>
      </trkpt>
      <trkpt lat="44.51239" lon="5.61745">
        <ele>911.7</ele>
        <time>2022-10-28T11:23:50Z</time>
      </trkpt>
      <trkpt lat="44.5124" lon="5.61748">
        <ele>911.8</ele>
        <time>2022-10-28T11:23:52Z</time>
      </trkpt>
      <trkpt lat="44.51241" lon="5.61752">
        <ele>912.2</ele>
        <time>2022-10-28T11:23:53Z</time>
      </trkpt>
      <trkpt lat="44.51242" lon="5.61754">
        <ele>912.2</ele>
        <time>2022-10-28T11:23:54Z</time>
      </trkpt>
      <trkpt lat="44.51242" lon="5.61758">
        <ele>912.5</ele>
        <time>2022-10-28T11:23:55Z</time>
      </trkpt>
      <trkpt lat="44.51243" lon="5.6176">
        <ele>912.6</ele>
        <time>2022-10-28T11:23:56Z</time>
      </trkpt>
      <trkpt lat="44.51243" lon="5.61764">
        <ele>912.8</ele>
        <time>2022-10-28T11:23:58Z</time>
      </trkpt>
      <trkpt lat="44.51243" lon="5.61766">
        <ele>912.9</ele>
        <time>2022-10-28T11:23:59Z</time>
      </trkpt>
      <trkpt lat="44.51244" lon="5.61769">
        <ele>913.1</ele>
        <time>2022-10-28T11:24:00Z</time>
      </trkpt>
      <trkpt lat="44.51244" lon="5.61771">
        <ele>913.2</ele>
        <time>2022-10-28T11:24:01Z</time>
      </trkpt>
      <trkpt lat="44.51245" lon="5.61773">
        <ele>913.3</ele>
        <time>2022-10-28T11:24:02Z</time>
      </trkpt>
      <trkpt lat="44.51245" lon="5.61775">
        <ele>913.4</ele>
        <time>2022-10-28T11:24:03Z</time>
      </trkpt>
      <trkpt lat="44.51246" lon="5.61777">
        <ele>913.5</ele>
        <time>2022-10-28T11:24:04Z</time>
      </trkpt>
      <trkpt lat="44.51246" lon="5.6178">
        <ele>913.6</ele>
        <time>2022-10-28T11:24:05Z</time>
      </trkpt>
      <trkpt lat="44.51246" lon="5.61782">
        <ele>913.8</ele>
        <time>2022-10-28T11:24:06Z</time>
      </trkpt>
      <trkpt lat="44.51247" lon="5.61784">
        <ele>913.8</ele>
        <time>2022-10-28T11:24:07Z</time>
      </trkpt>
      <trkpt lat="44.51247" lon="5.61786">
        <ele>913.9</ele>
        <time>2022-10-28T11:24:08Z</time>
      </trkpt>
      <trkpt lat="44.51248" lon="5.61789">
        <ele>914</ele>
        <time>2022-10-28T11:24:09Z</time>
      </trkpt>
      <trkpt lat="44.5125" lon="5.61793">
        <ele>914.3</ele>
        <time>2022-10-28T11:24:11Z</time>
      </trkpt>
      <trkpt lat="44.5125" lon="5.61795">
        <ele>914.4</ele>
        <time>2022-10-28T11:24:12Z</time>
      </trkpt>
      <trkpt lat="44.51251" lon="5.61797">
        <ele>914.5</ele>
        <time>2022-10-28T11:24:14Z</time>
      </trkpt>
      <trkpt lat="44.51251" lon="5.618">
        <ele>914.6</ele>
        <time>2022-10-28T11:24:15Z</time>
      </trkpt>
      <trkpt lat="44.51252" lon="5.61804">
        <ele>914.8</ele>
        <time>2022-10-28T11:24:16Z</time>
      </trkpt>
      <trkpt lat="44.51253" lon="5.61805">
        <ele>914.8</ele>
        <time>2022-10-28T11:24:17Z</time>
      </trkpt>
      <trkpt lat="44.51255" lon="5.61809">
        <ele>915</ele>
        <time>2022-10-28T11:24:18Z</time>
      </trkpt>
      <trkpt lat="44.51255" lon="5.6181">
        <ele>915.1</ele>
        <time>2022-10-28T11:24:19Z</time>
      </trkpt>
      <trkpt lat="44.51256" lon="5.61812">
        <ele>915.2</ele>
        <time>2022-10-28T11:24:20Z</time>
      </trkpt>
      <trkpt lat="44.51257" lon="5.61814">
        <ele>915.3</ele>
        <time>2022-10-28T11:24:21Z</time>
      </trkpt>
      <trkpt lat="44.51257" lon="5.61815">
        <ele>915.3</ele>
        <time>2022-10-28T11:24:22Z</time>
      </trkpt>
      <trkpt lat="44.51257" lon="5.61815">
        <ele>915.3</ele>
        <time>2022-10-28T11:24:23Z</time>
      </trkpt>
      <trkpt lat="44.51257" lon="5.61815">
        <ele>915.3</ele>
        <time>2022-10-28T11:24:24Z</time>
      </trkpt>
      <trkpt lat="44.51257" lon="5.61814">
        <ele>915.4</ele>
        <time>2022-10-28T11:24:25Z</time>
      </trkpt>
      <trkpt lat="44.51257" lon="5.61814">
        <ele>915.4</ele>
        <time>2022-10-28T11:24:26Z</time>
      </trkpt>
      <trkpt lat="44.51257" lon="5.61814">
        <ele>915.4</ele>
        <time>2022-10-28T11:24:27Z</time>
      </trkpt>
      <trkpt lat="44.51257" lon="5.61814">
        <ele>915.4</ele>
        <time>2022-10-28T11:24:28Z</time>
      </trkpt>
      <trkpt lat="44.51257" lon="5.61814">
        <ele>915.4</ele>
        <time>2022-10-28T11:24:29Z</time>
      </trkpt>
      <trkpt lat="44.51257" lon="5.61814">
        <ele>915.4</ele>
        <time>2022-10-28T11:24:30Z</time>
      </trkpt>
      <trkpt lat="44.51257" lon="5.61815">
        <ele>915.4</ele>
        <time>2022-10-28T11:24:31Z</time>
      </trkpt>
      <trkpt lat="44.51257" lon="5.61815">
        <ele>915.4</ele>
        <time>2022-10-28T11:24:32Z</time>
      </trkpt>
      <trkpt lat="44.51257" lon="5.61815">
        <ele>915.4</ele>
        <time>2022-10-28T11:24:33Z</time>
      </trkpt>
      <trkpt lat="44.51258" lon="5.61818">
        <ele>915.6</ele>
        <time>2022-10-28T11:25:06Z</time>
      </trkpt>
      <trkpt lat="44.51258" lon="5.61818">
        <ele>915.6</ele>
        <time>2022-10-28T11:25:07Z</time>
      </trkpt>
      <trkpt lat="44.51258" lon="5.61818">
        <ele>915.6</ele>
        <time>2022-10-28T11:25:08Z</time>
      </trkpt>
      <trkpt lat="44.51259" lon="5.6182">
        <ele>915.7</ele>
        <time>2022-10-28T11:25:09Z</time>
      </trkpt>
      <trkpt lat="44.51262" lon="5.61825">
        <ele>916</ele>
        <time>2022-10-28T11:25:11Z</time>
      </trkpt>
      <trkpt lat="44.51263" lon="5.6183">
        <ele>916.3</ele>
        <time>2022-10-28T11:25:12Z</time>
      </trkpt>
      <trkpt lat="44.51264" lon="5.61832">
        <ele>916.3</ele>
        <time>2022-10-28T11:25:13Z</time>
      </trkpt>
      <trkpt lat="44.51265" lon="5.61836">
        <ele>916.6</ele>
        <time>2022-10-28T11:25:15Z</time>
      </trkpt>
      <trkpt lat="44.51265" lon="5.61838">
        <ele>916.7</ele>
        <time>2022-10-28T11:25:16Z</time>
      </trkpt>
      <trkpt lat="44.51266" lon="5.61842">
        <ele>916.9</ele>
        <time>2022-10-28T11:25:17Z</time>
      </trkpt>
      <trkpt lat="44.51266" lon="5.61843">
        <ele>916.9</ele>
        <time>2022-10-28T11:25:18Z</time>
      </trkpt>
      <trkpt lat="44.51267" lon="5.61848">
        <ele>917.2</ele>
        <time>2022-10-28T11:25:19Z</time>
      </trkpt>
      <trkpt lat="44.51267" lon="5.61849">
        <ele>917.2</ele>
        <time>2022-10-28T11:25:20Z</time>
      </trkpt>
      <trkpt lat="44.51268" lon="5.61852">
        <ele>917.4</ele>
        <time>2022-10-28T11:25:22Z</time>
      </trkpt>
      <trkpt lat="44.51269" lon="5.61854">
        <ele>917.5</ele>
        <time>2022-10-28T11:25:23Z</time>
      </trkpt>
      <trkpt lat="44.51269" lon="5.61856">
        <ele>917.6</ele>
        <time>2022-10-28T11:25:24Z</time>
      </trkpt>
      <trkpt lat="44.51269" lon="5.61858">
        <ele>917.7</ele>
        <time>2022-10-28T11:25:25Z</time>
      </trkpt>
      <trkpt lat="44.5127" lon="5.6186">
        <ele>917.8</ele>
        <time>2022-10-28T11:25:26Z</time>
      </trkpt>
      <trkpt lat="44.5127" lon="5.61863">
        <ele>917.9</ele>
        <time>2022-10-28T11:25:27Z</time>
      </trkpt>
      <trkpt lat="44.5127" lon="5.61865">
        <ele>918</ele>
        <time>2022-10-28T11:25:29Z</time>
      </trkpt>
      <trkpt lat="44.5127" lon="5.61868">
        <ele>918.1</ele>
        <time>2022-10-28T11:25:30Z</time>
      </trkpt>
      <trkpt lat="44.51271" lon="5.61872">
        <ele>918.3</ele>
        <time>2022-10-28T11:25:31Z</time>
      </trkpt>
      <trkpt lat="44.51271" lon="5.61873">
        <ele>918.3</ele>
        <time>2022-10-28T11:25:32Z</time>
      </trkpt>
      <trkpt lat="44.51272" lon="5.61877">
        <ele>918.5</ele>
        <time>2022-10-28T11:25:33Z</time>
      </trkpt>
      <trkpt lat="44.51272" lon="5.61878">
        <ele>918.6</ele>
        <time>2022-10-28T11:25:34Z</time>
      </trkpt>
      <trkpt lat="44.51272" lon="5.61881">
        <ele>918.7</ele>
        <time>2022-10-28T11:25:35Z</time>
      </trkpt>
      <trkpt lat="44.51272" lon="5.61884">
        <ele>918.8</ele>
        <time>2022-10-28T11:25:37Z</time>
      </trkpt>
      <trkpt lat="44.51272" lon="5.61888">
        <ele>919</ele>
        <time>2022-10-28T11:25:38Z</time>
      </trkpt>
      <trkpt lat="44.51272" lon="5.6189">
        <ele>919</ele>
        <time>2022-10-28T11:25:39Z</time>
      </trkpt>
      <trkpt lat="44.51272" lon="5.61893">
        <ele>919.2</ele>
        <time>2022-10-28T11:25:40Z</time>
      </trkpt>
      <trkpt lat="44.51272" lon="5.61898">
        <ele>919.3</ele>
        <time>2022-10-28T11:25:42Z</time>
      </trkpt>
      <trkpt lat="44.51272" lon="5.61902">
        <ele>919.5</ele>
        <time>2022-10-28T11:25:43Z</time>
      </trkpt>
      <trkpt lat="44.51273" lon="5.61903">
        <ele>919.5</ele>
        <time>2022-10-28T11:25:44Z</time>
      </trkpt>
      <trkpt lat="44.51273" lon="5.61908">
        <ele>919.6</ele>
        <time>2022-10-28T11:25:45Z</time>
      </trkpt>
      <trkpt lat="44.51273" lon="5.61909">
        <ele>919.7</ele>
        <time>2022-10-28T11:25:46Z</time>
      </trkpt>
      <trkpt lat="44.51273" lon="5.61914">
        <ele>919.8</ele>
        <time>2022-10-28T11:25:48Z</time>
      </trkpt>
      <trkpt lat="44.51273" lon="5.61916">
        <ele>919.9</ele>
        <time>2022-10-28T11:25:49Z</time>
      </trkpt>
      <trkpt lat="44.51273" lon="5.6192">
        <ele>919.9</ele>
        <time>2022-10-28T11:25:50Z</time>
      </trkpt>
      <trkpt lat="44.51273" lon="5.61925">
        <ele>920</ele>
        <time>2022-10-28T11:25:51Z</time>
      </trkpt>
      <trkpt lat="44.51273" lon="5.61927">
        <ele>920</ele>
        <time>2022-10-28T11:25:52Z</time>
      </trkpt>
      <trkpt lat="44.51273" lon="5.61929">
        <ele>920.1</ele>
        <time>2022-10-28T11:25:53Z</time>
      </trkpt>
      <trkpt lat="44.51273" lon="5.61933">
        <ele>920.1</ele>
        <time>2022-10-28T11:25:55Z</time>
      </trkpt>
      <trkpt lat="44.51274" lon="5.61938">
        <ele>920.1</ele>
        <time>2022-10-28T11:25:56Z</time>
      </trkpt>
      <trkpt lat="44.51274" lon="5.61943">
        <ele>920.1</ele>
        <time>2022-10-28T11:25:57Z</time>
      </trkpt>
      <trkpt lat="44.51273" lon="5.61947">
        <ele>920.1</ele>
        <time>2022-10-28T11:25:58Z</time>
      </trkpt>
      <trkpt lat="44.51273" lon="5.61952">
        <ele>920.1</ele>
        <time>2022-10-28T11:25:59Z</time>
      </trkpt>
      <trkpt lat="44.51273" lon="5.61956">
        <ele>920.1</ele>
        <time>2022-10-28T11:26:00Z</time>
      </trkpt>
      <trkpt lat="44.51273" lon="5.61961">
        <ele>920</ele>
        <time>2022-10-28T11:26:01Z</time>
      </trkpt>
      <trkpt lat="44.51273" lon="5.61966">
        <ele>919.9</ele>
        <time>2022-10-28T11:26:02Z</time>
      </trkpt>
      <trkpt lat="44.51273" lon="5.61972">
        <ele>919.7</ele>
        <time>2022-10-28T11:26:04Z</time>
      </trkpt>
      <trkpt lat="44.51273" lon="5.61979">
        <ele>919.5</ele>
        <time>2022-10-28T11:26:05Z</time>
      </trkpt>
      <trkpt lat="44.51274" lon="5.6199">
        <ele>919</ele>
        <time>2022-10-28T11:26:07Z</time>
      </trkpt>
      <trkpt lat="44.51275" lon="5.62003">
        <ele>918.3</ele>
        <time>2022-10-28T11:26:08Z</time>
      </trkpt>
      <trkpt lat="44.51276" lon="5.6201">
        <ele>917.8</ele>
        <time>2022-10-28T11:26:09Z</time>
      </trkpt>
      <trkpt lat="44.51276" lon="5.62019">
        <ele>917.2</ele>
        <time>2022-10-28T11:26:10Z</time>
      </trkpt>
      <trkpt lat="44.51276" lon="5.62028">
        <ele>916.5</ele>
        <time>2022-10-28T11:26:11Z</time>
      </trkpt>
      <trkpt lat="44.51276" lon="5.62038">
        <ele>915.8</ele>
        <time>2022-10-28T11:26:12Z</time>
      </trkpt>
      <trkpt lat="44.51275" lon="5.62048">
        <ele>915.2</ele>
        <time>2022-10-28T11:26:13Z</time>
      </trkpt>
      <trkpt lat="44.51275" lon="5.62059">
        <ele>914.6</ele>
        <time>2022-10-28T11:26:14Z</time>
      </trkpt>
      <trkpt lat="44.51274" lon="5.62071">
        <ele>914</ele>
        <time>2022-10-28T11:26:15Z</time>
      </trkpt>
      <trkpt lat="44.51272" lon="5.62082">
        <ele>913.5</ele>
        <time>2022-10-28T11:26:16Z</time>
      </trkpt>
      <trkpt lat="44.51271" lon="5.62094">
        <ele>913.1</ele>
        <time>2022-10-28T11:26:17Z</time>
      </trkpt>
      <trkpt lat="44.51269" lon="5.62105">
        <ele>912.8</ele>
        <time>2022-10-28T11:26:18Z</time>
      </trkpt>
      <trkpt lat="44.51267" lon="5.62116">
        <ele>912.7</ele>
        <time>2022-10-28T11:26:19Z</time>
      </trkpt>
      <trkpt lat="44.51265" lon="5.62126">
        <ele>912.7</ele>
        <time>2022-10-28T11:26:20Z</time>
      </trkpt>
      <trkpt lat="44.51264" lon="5.62136">
        <ele>912.8</ele>
        <time>2022-10-28T11:26:21Z</time>
      </trkpt>
      <trkpt lat="44.51264" lon="5.62144">
        <ele>913</ele>
        <time>2022-10-28T11:26:22Z</time>
      </trkpt>
      <trkpt lat="44.51264" lon="5.62152">
        <ele>913.3</ele>
        <time>2022-10-28T11:26:23Z</time>
      </trkpt>
      <trkpt lat="44.51266" lon="5.6216">
        <ele>913.6</ele>
        <time>2022-10-28T11:26:24Z</time>
      </trkpt>
      <trkpt lat="44.51267" lon="5.62167">
        <ele>914</ele>
        <time>2022-10-28T11:26:25Z</time>
      </trkpt>
      <trkpt lat="44.51269" lon="5.62173">
        <ele>914.3</ele>
        <time>2022-10-28T11:26:26Z</time>
      </trkpt>
      <trkpt lat="44.51271" lon="5.62178">
        <ele>914.7</ele>
        <time>2022-10-28T11:26:27Z</time>
      </trkpt>
      <trkpt lat="44.51272" lon="5.62182">
        <ele>915</ele>
        <time>2022-10-28T11:26:28Z</time>
      </trkpt>
      <trkpt lat="44.51273" lon="5.62186">
        <ele>915.3</ele>
        <time>2022-10-28T11:26:29Z</time>
      </trkpt>
      <trkpt lat="44.51275" lon="5.62191">
        <ele>915.7</ele>
        <time>2022-10-28T11:26:30Z</time>
      </trkpt>
      <trkpt lat="44.51276" lon="5.62193">
        <ele>915.9</ele>
        <time>2022-10-28T11:26:31Z</time>
      </trkpt>
      <trkpt lat="44.51277" lon="5.62196">
        <ele>916.2</ele>
        <time>2022-10-28T11:26:32Z</time>
      </trkpt>
      <trkpt lat="44.51277" lon="5.62197">
        <ele>916.3</ele>
        <time>2022-10-28T11:26:33Z</time>
      </trkpt>
      <trkpt lat="44.51278" lon="5.62198">
        <ele>916.4</ele>
        <time>2022-10-28T11:26:34Z</time>
      </trkpt>
      <trkpt lat="44.51279" lon="5.62202">
        <ele>916.7</ele>
        <time>2022-10-28T11:26:35Z</time>
      </trkpt>
      <trkpt lat="44.5128" lon="5.62205">
        <ele>917</ele>
        <time>2022-10-28T11:26:36Z</time>
      </trkpt>
      <trkpt lat="44.51282" lon="5.62207">
        <ele>917.3</ele>
        <time>2022-10-28T11:26:38Z</time>
      </trkpt>
      <trkpt lat="44.51283" lon="5.62211">
        <ele>917.6</ele>
        <time>2022-10-28T11:26:39Z</time>
      </trkpt>
      <trkpt lat="44.51283" lon="5.62212">
        <ele>917.8</ele>
        <time>2022-10-28T11:26:40Z</time>
      </trkpt>
      <trkpt lat="44.51284" lon="5.62214">
        <ele>918</ele>
        <time>2022-10-28T11:26:41Z</time>
      </trkpt>
      <trkpt lat="44.51285" lon="5.62216">
        <ele>918.2</ele>
        <time>2022-10-28T11:26:43Z</time>
      </trkpt>
      <trkpt lat="44.51287" lon="5.62219">
        <ele>918.6</ele>
        <time>2022-10-28T11:26:44Z</time>
      </trkpt>
      <trkpt lat="44.51289" lon="5.62222">
        <ele>919</ele>
        <time>2022-10-28T11:26:45Z</time>
      </trkpt>
      <trkpt lat="44.5129" lon="5.62224">
        <ele>919.2</ele>
        <time>2022-10-28T11:26:47Z</time>
      </trkpt>
      <trkpt lat="44.51291" lon="5.62225">
        <ele>919.4</ele>
        <time>2022-10-28T11:26:48Z</time>
      </trkpt>
      <trkpt lat="44.51292" lon="5.62227">
        <ele>919.6</ele>
        <time>2022-10-28T11:26:49Z</time>
      </trkpt>
      <trkpt lat="44.51292" lon="5.62228">
        <ele>919.8</ele>
        <time>2022-10-28T11:26:50Z</time>
      </trkpt>
      <trkpt lat="44.51293" lon="5.6223">
        <ele>920</ele>
        <time>2022-10-28T11:26:51Z</time>
      </trkpt>
      <trkpt lat="44.51294" lon="5.62232">
        <ele>920.2</ele>
        <time>2022-10-28T11:26:52Z</time>
      </trkpt>
      <trkpt lat="44.51296" lon="5.62233">
        <ele>920.4</ele>
        <time>2022-10-28T11:26:54Z</time>
      </trkpt>
      <trkpt lat="44.51297" lon="5.62235">
        <ele>920.7</ele>
        <time>2022-10-28T11:26:55Z</time>
      </trkpt>
      <trkpt lat="44.51298" lon="5.62236">
        <ele>920.9</ele>
        <time>2022-10-28T11:26:56Z</time>
      </trkpt>
      <trkpt lat="44.513" lon="5.62237">
        <ele>921.1</ele>
        <time>2022-10-28T11:26:57Z</time>
      </trkpt>
      <trkpt lat="44.51301" lon="5.62237">
        <ele>921.3</ele>
        <time>2022-10-28T11:26:58Z</time>
      </trkpt>
      <trkpt lat="44.51303" lon="5.62238">
        <ele>921.4</ele>
        <time>2022-10-28T11:26:59Z</time>
      </trkpt>
      <trkpt lat="44.51304" lon="5.62238">
        <ele>921.6</ele>
        <time>2022-10-28T11:27:00Z</time>
      </trkpt>
      <trkpt lat="44.51305" lon="5.62238">
        <ele>921.7</ele>
        <time>2022-10-28T11:27:01Z</time>
      </trkpt>
      <trkpt lat="44.51306" lon="5.62239">
        <ele>921.9</ele>
        <time>2022-10-28T11:27:02Z</time>
      </trkpt>
      <trkpt lat="44.51307" lon="5.62239">
        <ele>922.1</ele>
        <time>2022-10-28T11:27:03Z</time>
      </trkpt>
      <trkpt lat="44.51309" lon="5.6224">
        <ele>922.3</ele>
        <time>2022-10-28T11:27:04Z</time>
      </trkpt>
      <trkpt lat="44.5131" lon="5.62241">
        <ele>922.5</ele>
        <time>2022-10-28T11:27:05Z</time>
      </trkpt>
      <trkpt lat="44.51312" lon="5.62241">
        <ele>922.6</ele>
        <time>2022-10-28T11:27:06Z</time>
      </trkpt>
      <trkpt lat="44.51313" lon="5.62241">
        <ele>922.9</ele>
        <time>2022-10-28T11:27:07Z</time>
      </trkpt>
      <trkpt lat="44.51315" lon="5.6224">
        <ele>923.1</ele>
        <time>2022-10-28T11:27:08Z</time>
      </trkpt>
      <trkpt lat="44.51316" lon="5.6224">
        <ele>923.3</ele>
        <time>2022-10-28T11:27:09Z</time>
      </trkpt>
      <trkpt lat="44.51318" lon="5.62239">
        <ele>923.5</ele>
        <time>2022-10-28T11:27:10Z</time>
      </trkpt>
      <trkpt lat="44.5132" lon="5.62239">
        <ele>923.7</ele>
        <time>2022-10-28T11:27:11Z</time>
      </trkpt>
      <trkpt lat="44.51322" lon="5.6224">
        <ele>923.9</ele>
        <time>2022-10-28T11:27:12Z</time>
      </trkpt>
      <trkpt lat="44.51323" lon="5.6224">
        <ele>924</ele>
        <time>2022-10-28T11:27:13Z</time>
      </trkpt>
      <trkpt lat="44.51324" lon="5.6224">
        <ele>924.1</ele>
        <time>2022-10-28T11:27:14Z</time>
      </trkpt>
      <trkpt lat="44.51325" lon="5.6224">
        <ele>924.3</ele>
        <time>2022-10-28T11:27:15Z</time>
      </trkpt>
      <trkpt lat="44.51327" lon="5.6224">
        <ele>924.5</ele>
        <time>2022-10-28T11:27:16Z</time>
      </trkpt>
      <trkpt lat="44.51328" lon="5.6224">
        <ele>924.6</ele>
        <time>2022-10-28T11:27:17Z</time>
      </trkpt>
      <trkpt lat="44.5133" lon="5.6224">
        <ele>924.8</ele>
        <time>2022-10-28T11:27:18Z</time>
      </trkpt>
      <trkpt lat="44.51331" lon="5.6224">
        <ele>925</ele>
        <time>2022-10-28T11:27:19Z</time>
      </trkpt>
      <trkpt lat="44.51332" lon="5.62239">
        <ele>925.1</ele>
        <time>2022-10-28T11:27:20Z</time>
      </trkpt>
      <trkpt lat="44.51334" lon="5.62238">
        <ele>925.3</ele>
        <time>2022-10-28T11:27:21Z</time>
      </trkpt>
      <trkpt lat="44.51335" lon="5.62238">
        <ele>925.5</ele>
        <time>2022-10-28T11:27:22Z</time>
      </trkpt>
      <trkpt lat="44.51337" lon="5.62238">
        <ele>925.7</ele>
        <time>2022-10-28T11:27:23Z</time>
      </trkpt>
      <trkpt lat="44.51338" lon="5.62238">
        <ele>925.8</ele>
        <time>2022-10-28T11:27:24Z</time>
      </trkpt>
      <trkpt lat="44.51339" lon="5.62238">
        <ele>925.9</ele>
        <time>2022-10-28T11:27:25Z</time>
      </trkpt>
      <trkpt lat="44.5134" lon="5.62238">
        <ele>926</ele>
        <time>2022-10-28T11:27:26Z</time>
      </trkpt>
      <trkpt lat="44.51342" lon="5.62238">
        <ele>926.2</ele>
        <time>2022-10-28T11:27:27Z</time>
      </trkpt>
      <trkpt lat="44.51343" lon="5.62238">
        <ele>926.3</ele>
        <time>2022-10-28T11:27:28Z</time>
      </trkpt>
      <trkpt lat="44.51345" lon="5.62238">
        <ele>926.6</ele>
        <time>2022-10-28T11:27:30Z</time>
      </trkpt>
      <trkpt lat="44.51347" lon="5.62238">
        <ele>926.8</ele>
        <time>2022-10-28T11:27:31Z</time>
      </trkpt>
      <trkpt lat="44.51348" lon="5.62238">
        <ele>927</ele>
        <time>2022-10-28T11:27:32Z</time>
      </trkpt>
      <trkpt lat="44.51351" lon="5.62238">
        <ele>927.3</ele>
        <time>2022-10-28T11:27:33Z</time>
      </trkpt>
      <trkpt lat="44.51351" lon="5.62239">
        <ele>927.4</ele>
        <time>2022-10-28T11:27:34Z</time>
      </trkpt>
      <trkpt lat="44.51352" lon="5.62239">
        <ele>927.5</ele>
        <time>2022-10-28T11:27:35Z</time>
      </trkpt>
      <trkpt lat="44.51355" lon="5.62239">
        <ele>927.8</ele>
        <time>2022-10-28T11:27:37Z</time>
      </trkpt>
      <trkpt lat="44.51356" lon="5.62239">
        <ele>927.9</ele>
        <time>2022-10-28T11:27:38Z</time>
      </trkpt>
      <trkpt lat="44.51357" lon="5.62241">
        <ele>928.1</ele>
        <time>2022-10-28T11:27:39Z</time>
      </trkpt>
      <trkpt lat="44.51358" lon="5.62242">
        <ele>928.3</ele>
        <time>2022-10-28T11:27:41Z</time>
      </trkpt>
      <trkpt lat="44.5136" lon="5.62243">
        <ele>928.5</ele>
        <time>2022-10-28T11:27:42Z</time>
      </trkpt>
      <trkpt lat="44.51361" lon="5.62245">
        <ele>928.7</ele>
        <time>2022-10-28T11:27:43Z</time>
      </trkpt>
      <trkpt lat="44.51363" lon="5.62248">
        <ele>929</ele>
        <time>2022-10-28T11:27:44Z</time>
      </trkpt>
      <trkpt lat="44.51364" lon="5.62248">
        <ele>929.1</ele>
        <time>2022-10-28T11:27:45Z</time>
      </trkpt>
      <trkpt lat="44.51364" lon="5.62249">
        <ele>929.2</ele>
        <time>2022-10-28T11:27:46Z</time>
      </trkpt>
      <trkpt lat="44.51366" lon="5.62251">
        <ele>929.4</ele>
        <time>2022-10-28T11:27:48Z</time>
      </trkpt>
      <trkpt lat="44.51367" lon="5.62253">
        <ele>929.6</ele>
        <time>2022-10-28T11:27:49Z</time>
      </trkpt>
      <trkpt lat="44.51368" lon="5.62255">
        <ele>929.8</ele>
        <time>2022-10-28T11:27:50Z</time>
      </trkpt>
      <trkpt lat="44.5137" lon="5.62257">
        <ele>930</ele>
        <time>2022-10-28T11:27:51Z</time>
      </trkpt>
      <trkpt lat="44.5137" lon="5.62258">
        <ele>930.1</ele>
        <time>2022-10-28T11:27:52Z</time>
      </trkpt>
      <trkpt lat="44.51371" lon="5.62259">
        <ele>930.2</ele>
        <time>2022-10-28T11:27:53Z</time>
      </trkpt>
      <trkpt lat="44.51372" lon="5.62261">
        <ele>930.4</ele>
        <time>2022-10-28T11:27:54Z</time>
      </trkpt>
      <trkpt lat="44.51373" lon="5.62263">
        <ele>930.5</ele>
        <time>2022-10-28T11:27:56Z</time>
      </trkpt>
      <trkpt lat="44.51374" lon="5.62265">
        <ele>930.7</ele>
        <time>2022-10-28T11:27:57Z</time>
      </trkpt>
      <trkpt lat="44.51376" lon="5.62266">
        <ele>930.9</ele>
        <time>2022-10-28T11:27:58Z</time>
      </trkpt>
      <trkpt lat="44.51376" lon="5.62268">
        <ele>931</ele>
        <time>2022-10-28T11:27:59Z</time>
      </trkpt>
      <trkpt lat="44.51378" lon="5.62271">
        <ele>931.2</ele>
        <time>2022-10-28T11:28:01Z</time>
      </trkpt>
      <trkpt lat="44.51379" lon="5.62273">
        <ele>931.4</ele>
        <time>2022-10-28T11:28:02Z</time>
      </trkpt>
      <trkpt lat="44.5138" lon="5.62274">
        <ele>931.5</ele>
        <time>2022-10-28T11:28:03Z</time>
      </trkpt>
      <trkpt lat="44.51381" lon="5.62275">
        <ele>931.6</ele>
        <time>2022-10-28T11:28:04Z</time>
      </trkpt>
      <trkpt lat="44.51382" lon="5.62276">
        <ele>931.7</ele>
        <time>2022-10-28T11:28:05Z</time>
      </trkpt>
      <trkpt lat="44.51384" lon="5.62278">
        <ele>931.9</ele>
        <time>2022-10-28T11:28:06Z</time>
      </trkpt>
      <trkpt lat="44.51384" lon="5.62279">
        <ele>932</ele>
        <time>2022-10-28T11:28:07Z</time>
      </trkpt>
      <trkpt lat="44.51385" lon="5.62279">
        <ele>932.1</ele>
        <time>2022-10-28T11:28:08Z</time>
      </trkpt>
      <trkpt lat="44.51386" lon="5.62281">
        <ele>932.2</ele>
        <time>2022-10-28T11:28:10Z</time>
      </trkpt>
      <trkpt lat="44.51388" lon="5.62282">
        <ele>932.4</ele>
        <time>2022-10-28T11:28:11Z</time>
      </trkpt>
      <trkpt lat="44.5139" lon="5.62284">
        <ele>932.7</ele>
        <time>2022-10-28T11:28:12Z</time>
      </trkpt>
      <trkpt lat="44.51391" lon="5.62285">
        <ele>932.8</ele>
        <time>2022-10-28T11:28:13Z</time>
      </trkpt>
      <trkpt lat="44.51392" lon="5.62286">
        <ele>932.9</ele>
        <time>2022-10-28T11:28:15Z</time>
      </trkpt>
      <trkpt lat="44.51393" lon="5.62287">
        <ele>933.1</ele>
        <time>2022-10-28T11:28:16Z</time>
      </trkpt>
      <trkpt lat="44.51394" lon="5.62289">
        <ele>933.3</ele>
        <time>2022-10-28T11:28:17Z</time>
      </trkpt>
      <trkpt lat="44.51395" lon="5.6229">
        <ele>933.4</ele>
        <time>2022-10-28T11:28:18Z</time>
      </trkpt>
      <trkpt lat="44.51396" lon="5.62291">
        <ele>933.6</ele>
        <time>2022-10-28T11:28:19Z</time>
      </trkpt>
      <trkpt lat="44.51397" lon="5.62292">
        <ele>933.7</ele>
        <time>2022-10-28T11:28:21Z</time>
      </trkpt>
      <trkpt lat="44.51398" lon="5.62292">
        <ele>933.8</ele>
        <time>2022-10-28T11:28:22Z</time>
      </trkpt>
      <trkpt lat="44.514" lon="5.62294">
        <ele>934</ele>
        <time>2022-10-28T11:28:23Z</time>
      </trkpt>
      <trkpt lat="44.51401" lon="5.62295">
        <ele>934.1</ele>
        <time>2022-10-28T11:28:24Z</time>
      </trkpt>
      <trkpt lat="44.51402" lon="5.62295">
        <ele>934.2</ele>
        <time>2022-10-28T11:28:25Z</time>
      </trkpt>
      <trkpt lat="44.51403" lon="5.62297">
        <ele>934.4</ele>
        <time>2022-10-28T11:28:26Z</time>
      </trkpt>
      <trkpt lat="44.51404" lon="5.62298">
        <ele>934.7</ele>
        <time>2022-10-28T11:28:28Z</time>
      </trkpt>
      <trkpt lat="44.51405" lon="5.623">
        <ele>934.9</ele>
        <time>2022-10-28T11:28:29Z</time>
      </trkpt>
      <trkpt lat="44.51407" lon="5.62302">
        <ele>935.1</ele>
        <time>2022-10-28T11:28:30Z</time>
      </trkpt>
      <trkpt lat="44.51409" lon="5.62305">
        <ele>935.6</ele>
        <time>2022-10-28T11:28:31Z</time>
      </trkpt>
      <trkpt lat="44.5141" lon="5.62306">
        <ele>935.8</ele>
        <time>2022-10-28T11:28:33Z</time>
      </trkpt>
      <trkpt lat="44.51411" lon="5.62308">
        <ele>936</ele>
        <time>2022-10-28T11:28:34Z</time>
      </trkpt>
      <trkpt lat="44.51411" lon="5.6231">
        <ele>936.2</ele>
        <time>2022-10-28T11:28:35Z</time>
      </trkpt>
      <trkpt lat="44.51413" lon="5.62313">
        <ele>936.6</ele>
        <time>2022-10-28T11:28:37Z</time>
      </trkpt>
      <trkpt lat="44.51413" lon="5.62314">
        <ele>936.8</ele>
        <time>2022-10-28T11:28:38Z</time>
      </trkpt>
      <trkpt lat="44.51413" lon="5.62316">
        <ele>937</ele>
        <time>2022-10-28T11:28:39Z</time>
      </trkpt>
      <trkpt lat="44.51414" lon="5.62319">
        <ele>937.3</ele>
        <time>2022-10-28T11:28:40Z</time>
      </trkpt>
      <trkpt lat="44.51415" lon="5.6232">
        <ele>937.5</ele>
        <time>2022-10-28T11:28:41Z</time>
      </trkpt>
      <trkpt lat="44.51415" lon="5.62321">
        <ele>937.6</ele>
        <time>2022-10-28T11:28:42Z</time>
      </trkpt>
      <trkpt lat="44.51416" lon="5.62323">
        <ele>937.8</ele>
        <time>2022-10-28T11:28:43Z</time>
      </trkpt>
      <trkpt lat="44.51416" lon="5.62325">
        <ele>938.1</ele>
        <time>2022-10-28T11:28:44Z</time>
      </trkpt>
      <trkpt lat="44.51417" lon="5.62327">
        <ele>938.3</ele>
        <time>2022-10-28T11:28:45Z</time>
      </trkpt>
      <trkpt lat="44.51417" lon="5.62328">
        <ele>938.4</ele>
        <time>2022-10-28T11:28:46Z</time>
      </trkpt>
      <trkpt lat="44.51418" lon="5.62329">
        <ele>938.6</ele>
        <time>2022-10-28T11:28:47Z</time>
      </trkpt>
      <trkpt lat="44.51418" lon="5.6233">
        <ele>938.8</ele>
        <time>2022-10-28T11:28:48Z</time>
      </trkpt>
      <trkpt lat="44.51419" lon="5.62332">
        <ele>939</ele>
        <time>2022-10-28T11:28:49Z</time>
      </trkpt>
      <trkpt lat="44.5142" lon="5.62334">
        <ele>939.2</ele>
        <time>2022-10-28T11:28:50Z</time>
      </trkpt>
      <trkpt lat="44.5142" lon="5.62335">
        <ele>939.3</ele>
        <time>2022-10-28T11:28:51Z</time>
      </trkpt>
      <trkpt lat="44.5142" lon="5.62337">
        <ele>939.5</ele>
        <time>2022-10-28T11:28:52Z</time>
      </trkpt>
      <trkpt lat="44.5142" lon="5.62339">
        <ele>939.7</ele>
        <time>2022-10-28T11:28:53Z</time>
      </trkpt>
      <trkpt lat="44.5142" lon="5.6234">
        <ele>939.9</ele>
        <time>2022-10-28T11:28:54Z</time>
      </trkpt>
      <trkpt lat="44.51421" lon="5.62342">
        <ele>940</ele>
        <time>2022-10-28T11:28:55Z</time>
      </trkpt>
      <trkpt lat="44.51421" lon="5.62343">
        <ele>940.2</ele>
        <time>2022-10-28T11:28:56Z</time>
      </trkpt>
      <trkpt lat="44.51422" lon="5.62345">
        <ele>940.4</ele>
        <time>2022-10-28T11:28:57Z</time>
      </trkpt>
      <trkpt lat="44.51423" lon="5.62346">
        <ele>940.6</ele>
        <time>2022-10-28T11:28:59Z</time>
      </trkpt>
      <trkpt lat="44.51424" lon="5.62348">
        <ele>940.9</ele>
        <time>2022-10-28T11:29:00Z</time>
      </trkpt>
      <trkpt lat="44.51426" lon="5.6235">
        <ele>941.2</ele>
        <time>2022-10-28T11:29:01Z</time>
      </trkpt>
      <trkpt lat="44.51427" lon="5.62351">
        <ele>941.3</ele>
        <time>2022-10-28T11:29:02Z</time>
      </trkpt>
      <trkpt lat="44.51427" lon="5.62351">
        <ele>941.4</ele>
        <time>2022-10-28T11:29:03Z</time>
      </trkpt>
      <trkpt lat="44.51429" lon="5.62352">
        <ele>941.6</ele>
        <time>2022-10-28T11:29:04Z</time>
      </trkpt>
      <trkpt lat="44.5143" lon="5.62353">
        <ele>941.9</ele>
        <time>2022-10-28T11:29:06Z</time>
      </trkpt>
      <trkpt lat="44.51432" lon="5.62353">
        <ele>942.1</ele>
        <time>2022-10-28T11:29:07Z</time>
      </trkpt>
      <trkpt lat="44.51433" lon="5.62353">
        <ele>942.3</ele>
        <time>2022-10-28T11:29:09Z</time>
      </trkpt>
      <trkpt lat="44.51435" lon="5.62353">
        <ele>942.5</ele>
        <time>2022-10-28T11:29:10Z</time>
      </trkpt>
      <trkpt lat="44.51436" lon="5.62353">
        <ele>942.7</ele>
        <time>2022-10-28T11:29:11Z</time>
      </trkpt>
      <trkpt lat="44.51438" lon="5.62353">
        <ele>942.9</ele>
        <time>2022-10-28T11:29:12Z</time>
      </trkpt>
      <trkpt lat="44.51439" lon="5.62353">
        <ele>943</ele>
        <time>2022-10-28T11:29:13Z</time>
      </trkpt>
      <trkpt lat="44.5144" lon="5.62353">
        <ele>943.2</ele>
        <time>2022-10-28T11:29:14Z</time>
      </trkpt>
      <trkpt lat="44.51442" lon="5.62353">
        <ele>943.3</ele>
        <time>2022-10-28T11:29:15Z</time>
      </trkpt>
      <trkpt lat="44.51443" lon="5.62352">
        <ele>943.5</ele>
        <time>2022-10-28T11:29:17Z</time>
      </trkpt>
      <trkpt lat="44.51445" lon="5.62351">
        <ele>943.7</ele>
        <time>2022-10-28T11:29:18Z</time>
      </trkpt>
      <trkpt lat="44.51446" lon="5.6235">
        <ele>943.9</ele>
        <time>2022-10-28T11:29:19Z</time>
      </trkpt>
      <trkpt lat="44.51447" lon="5.62349">
        <ele>944.1</ele>
        <time>2022-10-28T11:29:20Z</time>
      </trkpt>
      <trkpt lat="44.51449" lon="5.62347">
        <ele>944.2</ele>
        <time>2022-10-28T11:29:21Z</time>
      </trkpt>
      <trkpt lat="44.5145" lon="5.62346">
        <ele>944.4</ele>
        <time>2022-10-28T11:29:22Z</time>
      </trkpt>
      <trkpt lat="44.51451" lon="5.62346">
        <ele>944.6</ele>
        <time>2022-10-28T11:29:23Z</time>
      </trkpt>
      <trkpt lat="44.51453" lon="5.62345">
        <ele>944.8</ele>
        <time>2022-10-28T11:29:24Z</time>
      </trkpt>
      <trkpt lat="44.51454" lon="5.62344">
        <ele>944.9</ele>
        <time>2022-10-28T11:29:25Z</time>
      </trkpt>
      <trkpt lat="44.51455" lon="5.62344">
        <ele>945</ele>
        <time>2022-10-28T11:29:26Z</time>
      </trkpt>
      <trkpt lat="44.51457" lon="5.62342">
        <ele>945.2</ele>
        <time>2022-10-28T11:29:27Z</time>
      </trkpt>
      <trkpt lat="44.51457" lon="5.62342">
        <ele>945.3</ele>
        <time>2022-10-28T11:29:28Z</time>
      </trkpt>
      <trkpt lat="44.51458" lon="5.62341">
        <ele>945.4</ele>
        <time>2022-10-28T11:29:29Z</time>
      </trkpt>
      <trkpt lat="44.5146" lon="5.6234">
        <ele>945.6</ele>
        <time>2022-10-28T11:29:31Z</time>
      </trkpt>
      <trkpt lat="44.51461" lon="5.62338">
        <ele>945.8</ele>
        <time>2022-10-28T11:29:32Z</time>
      </trkpt>
      <trkpt lat="44.51462" lon="5.62337">
        <ele>945.9</ele>
        <time>2022-10-28T11:29:33Z</time>
      </trkpt>
      <trkpt lat="44.51464" lon="5.62336">
        <ele>946.2</ele>
        <time>2022-10-28T11:29:35Z</time>
      </trkpt>
      <trkpt lat="44.51465" lon="5.62335">
        <ele>946.4</ele>
        <time>2022-10-28T11:29:36Z</time>
      </trkpt>
      <trkpt lat="44.51467" lon="5.62335">
        <ele>946.5</ele>
        <time>2022-10-28T11:29:37Z</time>
      </trkpt>
      <trkpt lat="44.51468" lon="5.62334">
        <ele>946.7</ele>
        <time>2022-10-28T11:29:38Z</time>
      </trkpt>
      <trkpt lat="44.5147" lon="5.62333">
        <ele>946.9</ele>
        <time>2022-10-28T11:29:39Z</time>
      </trkpt>
      <trkpt lat="44.51471" lon="5.62333">
        <ele>947</ele>
        <time>2022-10-28T11:29:41Z</time>
      </trkpt>
      <trkpt lat="44.51473" lon="5.62333">
        <ele>947.3</ele>
        <time>2022-10-28T11:29:42Z</time>
      </trkpt>
      <trkpt lat="44.51474" lon="5.62333">
        <ele>947.4</ele>
        <time>2022-10-28T11:29:44Z</time>
      </trkpt>
      <trkpt lat="44.51476" lon="5.62333">
        <ele>947.7</ele>
        <time>2022-10-28T11:29:45Z</time>
      </trkpt>
      <trkpt lat="44.51478" lon="5.62333">
        <ele>947.8</ele>
        <time>2022-10-28T11:29:46Z</time>
      </trkpt>
      <trkpt lat="44.51479" lon="5.62332">
        <ele>947.9</ele>
        <time>2022-10-28T11:29:47Z</time>
      </trkpt>
      <trkpt lat="44.5148" lon="5.62333">
        <ele>948</ele>
        <time>2022-10-28T11:29:48Z</time>
      </trkpt>
      <trkpt lat="44.51481" lon="5.62334">
        <ele>948.2</ele>
        <time>2022-10-28T11:29:49Z</time>
      </trkpt>
      <trkpt lat="44.51482" lon="5.62336">
        <ele>948.4</ele>
        <time>2022-10-28T11:29:50Z</time>
      </trkpt>
      <trkpt lat="44.51483" lon="5.6234">
        <ele>948.7</ele>
        <time>2022-10-28T11:29:51Z</time>
      </trkpt>
      <trkpt lat="44.51483" lon="5.62342">
        <ele>948.9</ele>
        <time>2022-10-28T11:29:53Z</time>
      </trkpt>
      <trkpt lat="44.51483" lon="5.62344">
        <ele>949</ele>
        <time>2022-10-28T11:29:54Z</time>
      </trkpt>
      <trkpt lat="44.51483" lon="5.62346">
        <ele>949.1</ele>
        <time>2022-10-28T11:29:55Z</time>
      </trkpt>
      <trkpt lat="44.51482" lon="5.62348">
        <ele>949.3</ele>
        <time>2022-10-28T11:29:56Z</time>
      </trkpt>
      <trkpt lat="44.51482" lon="5.6235">
        <ele>949.4</ele>
        <time>2022-10-28T11:29:57Z</time>
      </trkpt>
      <trkpt lat="44.51482" lon="5.62352">
        <ele>949.6</ele>
        <time>2022-10-28T11:29:58Z</time>
      </trkpt>
      <trkpt lat="44.51482" lon="5.62354">
        <ele>949.7</ele>
        <time>2022-10-28T11:30:00Z</time>
      </trkpt>
      <trkpt lat="44.51481" lon="5.62357">
        <ele>949.9</ele>
        <time>2022-10-28T11:30:01Z</time>
      </trkpt>
      <trkpt lat="44.51482" lon="5.62359">
        <ele>950</ele>
        <time>2022-10-28T11:30:02Z</time>
      </trkpt>
      <trkpt lat="44.51482" lon="5.62361">
        <ele>950.2</ele>
        <time>2022-10-28T11:30:04Z</time>
      </trkpt>
      <trkpt lat="44.51482" lon="5.62364">
        <ele>950.3</ele>
        <time>2022-10-28T11:30:05Z</time>
      </trkpt>
      <trkpt lat="44.51482" lon="5.62366">
        <ele>950.4</ele>
        <time>2022-10-28T11:30:06Z</time>
      </trkpt>
      <trkpt lat="44.51482" lon="5.62369">
        <ele>950.6</ele>
        <time>2022-10-28T11:30:07Z</time>
      </trkpt>
      <trkpt lat="44.51482" lon="5.62373">
        <ele>950.8</ele>
        <time>2022-10-28T11:30:08Z</time>
      </trkpt>
      <trkpt lat="44.51482" lon="5.62374">
        <ele>950.8</ele>
        <time>2022-10-28T11:30:09Z</time>
      </trkpt>
      <trkpt lat="44.51482" lon="5.62378">
        <ele>951</ele>
        <time>2022-10-28T11:30:10Z</time>
      </trkpt>
      <trkpt lat="44.51482" lon="5.62379">
        <ele>951.1</ele>
        <time>2022-10-28T11:30:11Z</time>
      </trkpt>
      <trkpt lat="44.51482" lon="5.62381">
        <ele>951.1</ele>
        <time>2022-10-28T11:30:12Z</time>
      </trkpt>
      <trkpt lat="44.51482" lon="5.62383">
        <ele>951.2</ele>
        <time>2022-10-28T11:30:13Z</time>
      </trkpt>
      <trkpt lat="44.51481" lon="5.62385">
        <ele>951.3</ele>
        <time>2022-10-28T11:30:14Z</time>
      </trkpt>
      <trkpt lat="44.5148" lon="5.6239">
        <ele>951.5</ele>
        <time>2022-10-28T11:30:16Z</time>
      </trkpt>
      <trkpt lat="44.5148" lon="5.62392">
        <ele>951.5</ele>
        <time>2022-10-28T11:30:17Z</time>
      </trkpt>
      <trkpt lat="44.51479" lon="5.62396">
        <ele>951.7</ele>
        <time>2022-10-28T11:30:18Z</time>
      </trkpt>
      <trkpt lat="44.51478" lon="5.62398">
        <ele>951.7</ele>
        <time>2022-10-28T11:30:19Z</time>
      </trkpt>
      <trkpt lat="44.51477" lon="5.62403">
        <ele>951.9</ele>
        <time>2022-10-28T11:30:20Z</time>
      </trkpt>
      <trkpt lat="44.51476" lon="5.62404">
        <ele>951.9</ele>
        <time>2022-10-28T11:30:21Z</time>
      </trkpt>
      <trkpt lat="44.51474" lon="5.62408">
        <ele>952</ele>
        <time>2022-10-28T11:30:23Z</time>
      </trkpt>
      <trkpt lat="44.51471" lon="5.62411">
        <ele>952.1</ele>
        <time>2022-10-28T11:30:24Z</time>
      </trkpt>
      <trkpt lat="44.51469" lon="5.62414">
        <ele>952.2</ele>
        <time>2022-10-28T11:30:25Z</time>
      </trkpt>
      <trkpt lat="44.51466" lon="5.62416">
        <ele>952.3</ele>
        <time>2022-10-28T11:30:26Z</time>
      </trkpt>
      <trkpt lat="44.51464" lon="5.62418">
        <ele>952.3</ele>
        <time>2022-10-28T11:30:27Z</time>
      </trkpt>
      <trkpt lat="44.51461" lon="5.62419">
        <ele>952.4</ele>
        <time>2022-10-28T11:30:28Z</time>
      </trkpt>
      <trkpt lat="44.51459" lon="5.6242">
        <ele>952.5</ele>
        <time>2022-10-28T11:30:30Z</time>
      </trkpt>
      <trkpt lat="44.51456" lon="5.62422">
        <ele>952.6</ele>
        <time>2022-10-28T11:30:31Z</time>
      </trkpt>
      <trkpt lat="44.51452" lon="5.62423">
        <ele>952.7</ele>
        <time>2022-10-28T11:30:32Z</time>
      </trkpt>
      <trkpt lat="44.51451" lon="5.62423">
        <ele>952.7</ele>
        <time>2022-10-28T11:30:33Z</time>
      </trkpt>
      <trkpt lat="44.51449" lon="5.62423">
        <ele>952.8</ele>
        <time>2022-10-28T11:30:34Z</time>
      </trkpt>
      <trkpt lat="44.51446" lon="5.62423">
        <ele>952.8</ele>
        <time>2022-10-28T11:30:36Z</time>
      </trkpt>
      <trkpt lat="44.51443" lon="5.62423">
        <ele>952.9</ele>
        <time>2022-10-28T11:30:37Z</time>
      </trkpt>
      <trkpt lat="44.5144" lon="5.62422">
        <ele>953</ele>
        <time>2022-10-28T11:30:38Z</time>
      </trkpt>
      <trkpt lat="44.51437" lon="5.62421">
        <ele>953.1</ele>
        <time>2022-10-28T11:30:39Z</time>
      </trkpt>
      <trkpt lat="44.51436" lon="5.62421">
        <ele>953.1</ele>
        <time>2022-10-28T11:30:40Z</time>
      </trkpt>
      <trkpt lat="44.51432" lon="5.62419">
        <ele>953.3</ele>
        <time>2022-10-28T11:30:41Z</time>
      </trkpt>
      <trkpt lat="44.51431" lon="5.62418">
        <ele>953.3</ele>
        <time>2022-10-28T11:30:42Z</time>
      </trkpt>
      <trkpt lat="44.51429" lon="5.62418">
        <ele>953.4</ele>
        <time>2022-10-28T11:30:43Z</time>
      </trkpt>
      <trkpt lat="44.51426" lon="5.62416">
        <ele>953.5</ele>
        <time>2022-10-28T11:30:45Z</time>
      </trkpt>
      <trkpt lat="44.51423" lon="5.62413">
        <ele>953.6</ele>
        <time>2022-10-28T11:30:46Z</time>
      </trkpt>
      <trkpt lat="44.5142" lon="5.62411">
        <ele>953.8</ele>
        <time>2022-10-28T11:30:47Z</time>
      </trkpt>
      <trkpt lat="44.51418" lon="5.6241">
        <ele>953.9</ele>
        <time>2022-10-28T11:30:48Z</time>
      </trkpt>
      <trkpt lat="44.51416" lon="5.62408">
        <ele>954</ele>
        <time>2022-10-28T11:30:49Z</time>
      </trkpt>
      <trkpt lat="44.51414" lon="5.62407">
        <ele>954.1</ele>
        <time>2022-10-28T11:30:51Z</time>
      </trkpt>
      <trkpt lat="44.51411" lon="5.62405">
        <ele>954.3</ele>
        <time>2022-10-28T11:30:52Z</time>
      </trkpt>
      <trkpt lat="44.51408" lon="5.62403">
        <ele>954.5</ele>
        <time>2022-10-28T11:30:53Z</time>
      </trkpt>
      <trkpt lat="44.51407" lon="5.62402">
        <ele>954.6</ele>
        <time>2022-10-28T11:30:54Z</time>
      </trkpt>
      <trkpt lat="44.51404" lon="5.624">
        <ele>954.8</ele>
        <time>2022-10-28T11:30:55Z</time>
      </trkpt>
      <trkpt lat="44.51403" lon="5.62399">
        <ele>954.9</ele>
        <time>2022-10-28T11:30:56Z</time>
      </trkpt>
      <trkpt lat="44.51401" lon="5.62398">
        <ele>955</ele>
        <time>2022-10-28T11:30:57Z</time>
      </trkpt>
      <trkpt lat="44.514" lon="5.62397">
        <ele>955.1</ele>
        <time>2022-10-28T11:30:58Z</time>
      </trkpt>
      <trkpt lat="44.51397" lon="5.62395">
        <ele>955.3</ele>
        <time>2022-10-28T11:30:59Z</time>
      </trkpt>
      <trkpt lat="44.51396" lon="5.62395">
        <ele>955.4</ele>
        <time>2022-10-28T11:31:00Z</time>
      </trkpt>
      <trkpt lat="44.51393" lon="5.62394">
        <ele>955.6</ele>
        <time>2022-10-28T11:31:02Z</time>
      </trkpt>
      <trkpt lat="44.51393" lon="5.62393">
        <ele>955.7</ele>
        <time>2022-10-28T11:31:03Z</time>
      </trkpt>
      <trkpt lat="44.5139" lon="5.62392">
        <ele>955.9</ele>
        <time>2022-10-28T11:31:04Z</time>
      </trkpt>
      <trkpt lat="44.51388" lon="5.62392">
        <ele>956</ele>
        <time>2022-10-28T11:31:05Z</time>
      </trkpt>
      <trkpt lat="44.51387" lon="5.62392">
        <ele>956.1</ele>
        <time>2022-10-28T11:31:06Z</time>
      </trkpt>
      <trkpt lat="44.51385" lon="5.62392">
        <ele>956.2</ele>
        <time>2022-10-28T11:31:07Z</time>
      </trkpt>
      <trkpt lat="44.51383" lon="5.62392">
        <ele>956.4</ele>
        <time>2022-10-28T11:31:08Z</time>
      </trkpt>
      <trkpt lat="44.51381" lon="5.62393">
        <ele>956.5</ele>
        <time>2022-10-28T11:31:10Z</time>
      </trkpt>
      <trkpt lat="44.51378" lon="5.62393">
        <ele>956.7</ele>
        <time>2022-10-28T11:31:11Z</time>
      </trkpt>
      <trkpt lat="44.51376" lon="5.62393">
        <ele>956.8</ele>
        <time>2022-10-28T11:31:12Z</time>
      </trkpt>
      <trkpt lat="44.51374" lon="5.62394">
        <ele>956.9</ele>
        <time>2022-10-28T11:31:14Z</time>
      </trkpt>
      <trkpt lat="44.51371" lon="5.62395">
        <ele>957</ele>
        <time>2022-10-28T11:31:15Z</time>
      </trkpt>
      <trkpt lat="44.5137" lon="5.62396">
        <ele>957.1</ele>
        <time>2022-10-28T11:31:16Z</time>
      </trkpt>
      <trkpt lat="44.51368" lon="5.62399">
        <ele>957.2</ele>
        <time>2022-10-28T11:31:17Z</time>
      </trkpt>
      <trkpt lat="44.51367" lon="5.624">
        <ele>957.2</ele>
        <time>2022-10-28T11:31:18Z</time>
      </trkpt>
      <trkpt lat="44.51365" lon="5.62403">
        <ele>957.3</ele>
        <time>2022-10-28T11:31:19Z</time>
      </trkpt>
      <trkpt lat="44.51364" lon="5.62404">
        <ele>957.4</ele>
        <time>2022-10-28T11:31:20Z</time>
      </trkpt>
      <trkpt lat="44.51362" lon="5.62409">
        <ele>957.5</ele>
        <time>2022-10-28T11:31:22Z</time>
      </trkpt>
      <trkpt lat="44.51361" lon="5.62411">
        <ele>957.5</ele>
        <time>2022-10-28T11:31:23Z</time>
      </trkpt>
      <trkpt lat="44.5136" lon="5.62413">
        <ele>957.5</ele>
        <time>2022-10-28T11:31:24Z</time>
      </trkpt>
      <trkpt lat="44.51359" lon="5.62417">
        <ele>957.6</ele>
        <time>2022-10-28T11:31:25Z</time>
      </trkpt>
      <trkpt lat="44.51358" lon="5.62418">
        <ele>957.6</ele>
        <time>2022-10-28T11:31:26Z</time>
      </trkpt>
      <trkpt lat="44.51358" lon="5.62424">
        <ele>957.7</ele>
        <time>2022-10-28T11:31:27Z</time>
      </trkpt>
      <trkpt lat="44.51357" lon="5.62426">
        <ele>957.8</ele>
        <time>2022-10-28T11:31:28Z</time>
      </trkpt>
      <trkpt lat="44.51357" lon="5.62431">
        <ele>957.9</ele>
        <time>2022-10-28T11:31:29Z</time>
      </trkpt>
      <trkpt lat="44.51355" lon="5.62436">
        <ele>958</ele>
        <time>2022-10-28T11:31:31Z</time>
      </trkpt>
      <trkpt lat="44.51355" lon="5.62438">
        <ele>958</ele>
        <time>2022-10-28T11:31:32Z</time>
      </trkpt>
      <trkpt lat="44.51354" lon="5.62443">
        <ele>958.1</ele>
        <time>2022-10-28T11:31:33Z</time>
      </trkpt>
      <trkpt lat="44.51353" lon="5.62444">
        <ele>958.2</ele>
        <time>2022-10-28T11:31:34Z</time>
      </trkpt>
      <trkpt lat="44.51352" lon="5.62447">
        <ele>958.2</ele>
        <time>2022-10-28T11:31:35Z</time>
      </trkpt>
      <trkpt lat="44.51352" lon="5.62449">
        <ele>958.3</ele>
        <time>2022-10-28T11:31:37Z</time>
      </trkpt>
      <trkpt lat="44.5135" lon="5.62452">
        <ele>958.4</ele>
        <time>2022-10-28T11:31:38Z</time>
      </trkpt>
      <trkpt lat="44.51348" lon="5.62456">
        <ele>958.5</ele>
        <time>2022-10-28T11:31:39Z</time>
      </trkpt>
      <trkpt lat="44.51347" lon="5.62458">
        <ele>958.6</ele>
        <time>2022-10-28T11:31:40Z</time>
      </trkpt>
      <trkpt lat="44.51346" lon="5.62461">
        <ele>958.7</ele>
        <time>2022-10-28T11:31:42Z</time>
      </trkpt>
      <trkpt lat="44.51345" lon="5.62466">
        <ele>958.8</ele>
        <time>2022-10-28T11:31:43Z</time>
      </trkpt>
      <trkpt lat="44.51344" lon="5.62467">
        <ele>958.9</ele>
        <time>2022-10-28T11:31:44Z</time>
      </trkpt>
      <trkpt lat="44.51342" lon="5.62471">
        <ele>959</ele>
        <time>2022-10-28T11:31:45Z</time>
      </trkpt>
      <trkpt lat="44.51342" lon="5.62472">
        <ele>959.1</ele>
        <time>2022-10-28T11:31:46Z</time>
      </trkpt>
      <trkpt lat="44.5134" lon="5.62476">
        <ele>959.2</ele>
        <time>2022-10-28T11:31:48Z</time>
      </trkpt>
      <trkpt lat="44.5134" lon="5.62477">
        <ele>959.3</ele>
        <time>2022-10-28T11:31:49Z</time>
      </trkpt>
      <trkpt lat="44.51338" lon="5.62481">
        <ele>959.5</ele>
        <time>2022-10-28T11:31:50Z</time>
      </trkpt>
      <trkpt lat="44.51338" lon="5.62482">
        <ele>959.5</ele>
        <time>2022-10-28T11:31:51Z</time>
      </trkpt>
      <trkpt lat="44.51337" lon="5.62485">
        <ele>959.7</ele>
        <time>2022-10-28T11:31:52Z</time>
      </trkpt>
      <trkpt lat="44.51336" lon="5.62489">
        <ele>959.9</ele>
        <time>2022-10-28T11:31:54Z</time>
      </trkpt>
      <trkpt lat="44.51335" lon="5.62493">
        <ele>960</ele>
        <time>2022-10-28T11:31:55Z</time>
      </trkpt>
      <trkpt lat="44.51334" lon="5.62497">
        <ele>960.3</ele>
        <time>2022-10-28T11:31:56Z</time>
      </trkpt>
      <trkpt lat="44.51333" lon="5.62498">
        <ele>960.4</ele>
        <time>2022-10-28T11:31:57Z</time>
      </trkpt>
      <trkpt lat="44.51333" lon="5.62501">
        <ele>960.5</ele>
        <time>2022-10-28T11:31:58Z</time>
      </trkpt>
      <trkpt lat="44.51332" lon="5.62505">
        <ele>960.7</ele>
        <time>2022-10-28T11:32:00Z</time>
      </trkpt>
      <trkpt lat="44.51331" lon="5.6251">
        <ele>961</ele>
        <time>2022-10-28T11:32:01Z</time>
      </trkpt>
      <trkpt lat="44.51331" lon="5.62511">
        <ele>961</ele>
        <time>2022-10-28T11:32:02Z</time>
      </trkpt>
      <trkpt lat="44.5133" lon="5.62515">
        <ele>961.2</ele>
        <time>2022-10-28T11:32:03Z</time>
      </trkpt>
      <trkpt lat="44.5133" lon="5.62516">
        <ele>961.3</ele>
        <time>2022-10-28T11:32:04Z</time>
      </trkpt>
      <trkpt lat="44.5133" lon="5.62521">
        <ele>961.6</ele>
        <time>2022-10-28T11:32:06Z</time>
      </trkpt>
      <trkpt lat="44.51329" lon="5.62523">
        <ele>961.7</ele>
        <time>2022-10-28T11:32:07Z</time>
      </trkpt>
      <trkpt lat="44.51329" lon="5.62525">
        <ele>961.8</ele>
        <time>2022-10-28T11:32:08Z</time>
      </trkpt>
      <trkpt lat="44.51329" lon="5.62528">
        <ele>961.9</ele>
        <time>2022-10-28T11:32:09Z</time>
      </trkpt>
      <trkpt lat="44.51328" lon="5.62531">
        <ele>962.1</ele>
        <time>2022-10-28T11:32:10Z</time>
      </trkpt>
      <trkpt lat="44.51328" lon="5.62533">
        <ele>962.2</ele>
        <time>2022-10-28T11:32:11Z</time>
      </trkpt>
      <trkpt lat="44.51328" lon="5.62534">
        <ele>962.3</ele>
        <time>2022-10-28T11:32:12Z</time>
      </trkpt>
      <trkpt lat="44.51327" lon="5.62539">
        <ele>962.5</ele>
        <time>2022-10-28T11:32:14Z</time>
      </trkpt>
      <trkpt lat="44.51327" lon="5.62541">
        <ele>962.6</ele>
        <time>2022-10-28T11:32:15Z</time>
      </trkpt>
      <trkpt lat="44.51327" lon="5.62544">
        <ele>962.7</ele>
        <time>2022-10-28T11:32:16Z</time>
      </trkpt>
      <trkpt lat="44.51327" lon="5.62546">
        <ele>962.8</ele>
        <time>2022-10-28T11:32:17Z</time>
      </trkpt>
      <trkpt lat="44.51327" lon="5.62548">
        <ele>962.9</ele>
        <time>2022-10-28T11:32:18Z</time>
      </trkpt>
      <trkpt lat="44.51327" lon="5.6255">
        <ele>963.1</ele>
        <time>2022-10-28T11:32:19Z</time>
      </trkpt>
      <trkpt lat="44.51328" lon="5.62552">
        <ele>963.2</ele>
        <time>2022-10-28T11:32:20Z</time>
      </trkpt>
      <trkpt lat="44.51328" lon="5.62554">
        <ele>963.3</ele>
        <time>2022-10-28T11:32:21Z</time>
      </trkpt>
      <trkpt lat="44.51328" lon="5.62558">
        <ele>963.5</ele>
        <time>2022-10-28T11:32:22Z</time>
      </trkpt>
      <trkpt lat="44.51328" lon="5.62559">
        <ele>963.5</ele>
        <time>2022-10-28T11:32:23Z</time>
      </trkpt>
      <trkpt lat="44.51328" lon="5.62562">
        <ele>963.7</ele>
        <time>2022-10-28T11:32:24Z</time>
      </trkpt>
      <trkpt lat="44.51328" lon="5.62564">
        <ele>963.8</ele>
        <time>2022-10-28T11:32:25Z</time>
      </trkpt>
      <trkpt lat="44.51328" lon="5.62566">
        <ele>963.9</ele>
        <time>2022-10-28T11:32:26Z</time>
      </trkpt>
      <trkpt lat="44.51328" lon="5.62568">
        <ele>964</ele>
        <time>2022-10-28T11:32:27Z</time>
      </trkpt>
      <trkpt lat="44.51329" lon="5.62572">
        <ele>964.2</ele>
        <time>2022-10-28T11:32:28Z</time>
      </trkpt>
      <trkpt lat="44.51329" lon="5.62574">
        <ele>964.2</ele>
        <time>2022-10-28T11:32:29Z</time>
      </trkpt>
      <trkpt lat="44.5133" lon="5.6258">
        <ele>964.5</ele>
        <time>2022-10-28T11:32:31Z</time>
      </trkpt>
      <trkpt lat="44.5133" lon="5.62581">
        <ele>964.6</ele>
        <time>2022-10-28T11:32:32Z</time>
      </trkpt>
      <trkpt lat="44.5133" lon="5.62583">
        <ele>964.7</ele>
        <time>2022-10-28T11:32:33Z</time>
      </trkpt>
      <trkpt lat="44.5133" lon="5.62585">
        <ele>964.8</ele>
        <time>2022-10-28T11:32:34Z</time>
      </trkpt>
      <trkpt lat="44.5133" lon="5.62588">
        <ele>964.9</ele>
        <time>2022-10-28T11:32:36Z</time>
      </trkpt>
      <trkpt lat="44.51329" lon="5.62593">
        <ele>965.1</ele>
        <time>2022-10-28T11:32:37Z</time>
      </trkpt>
      <trkpt lat="44.51329" lon="5.62594">
        <ele>965.2</ele>
        <time>2022-10-28T11:32:38Z</time>
      </trkpt>
      <trkpt lat="44.51329" lon="5.62598">
        <ele>965.3</ele>
        <time>2022-10-28T11:32:39Z</time>
      </trkpt>
      <trkpt lat="44.51329" lon="5.626">
        <ele>965.4</ele>
        <time>2022-10-28T11:32:40Z</time>
      </trkpt>
      <trkpt lat="44.51328" lon="5.62604">
        <ele>965.5</ele>
        <time>2022-10-28T11:32:41Z</time>
      </trkpt>
      <trkpt lat="44.51328" lon="5.62605">
        <ele>965.6</ele>
        <time>2022-10-28T11:32:42Z</time>
      </trkpt>
      <trkpt lat="44.51328" lon="5.62609">
        <ele>965.8</ele>
        <time>2022-10-28T11:32:44Z</time>
      </trkpt>
      <trkpt lat="44.51328" lon="5.6261">
        <ele>965.8</ele>
        <time>2022-10-28T11:32:45Z</time>
      </trkpt>
      <trkpt lat="44.51328" lon="5.62612">
        <ele>965.9</ele>
        <time>2022-10-28T11:32:46Z</time>
      </trkpt>
      <trkpt lat="44.51327" lon="5.62614">
        <ele>966</ele>
        <time>2022-10-28T11:32:47Z</time>
      </trkpt>
      <trkpt lat="44.51327" lon="5.62617">
        <ele>966.1</ele>
        <time>2022-10-28T11:32:48Z</time>
      </trkpt>
      <trkpt lat="44.51326" lon="5.62619">
        <ele>966.2</ele>
        <time>2022-10-28T11:32:49Z</time>
      </trkpt>
      <trkpt lat="44.51325" lon="5.62623">
        <ele>966.4</ele>
        <time>2022-10-28T11:32:50Z</time>
      </trkpt>
      <trkpt lat="44.51325" lon="5.62625">
        <ele>966.5</ele>
        <time>2022-10-28T11:32:51Z</time>
      </trkpt>
      <trkpt lat="44.51325" lon="5.62629">
        <ele>966.7</ele>
        <time>2022-10-28T11:32:53Z</time>
      </trkpt>
      <trkpt lat="44.51324" lon="5.6263">
        <ele>966.8</ele>
        <time>2022-10-28T11:32:54Z</time>
      </trkpt>
      <trkpt lat="44.51324" lon="5.62635">
        <ele>967.1</ele>
        <time>2022-10-28T11:32:56Z</time>
      </trkpt>
      <trkpt lat="44.51323" lon="5.62636">
        <ele>967.1</ele>
        <time>2022-10-28T11:32:57Z</time>
      </trkpt>
      <trkpt lat="44.51323" lon="5.62639">
        <ele>967.2</ele>
        <time>2022-10-28T11:32:58Z</time>
      </trkpt>
      <trkpt lat="44.51323" lon="5.62641">
        <ele>967.4</ele>
        <time>2022-10-28T11:32:59Z</time>
      </trkpt>
      <trkpt lat="44.51322" lon="5.62643">
        <ele>967.5</ele>
        <time>2022-10-28T11:33:00Z</time>
      </trkpt>
      <trkpt lat="44.51322" lon="5.62646">
        <ele>967.6</ele>
        <time>2022-10-28T11:33:01Z</time>
      </trkpt>
      <trkpt lat="44.51321" lon="5.62647">
        <ele>967.7</ele>
        <time>2022-10-28T11:33:02Z</time>
      </trkpt>
      <trkpt lat="44.51321" lon="5.62651">
        <ele>967.9</ele>
        <time>2022-10-28T11:33:04Z</time>
      </trkpt>
      <trkpt lat="44.51321" lon="5.62655">
        <ele>968.1</ele>
        <time>2022-10-28T11:33:05Z</time>
      </trkpt>
      <trkpt lat="44.5132" lon="5.62656">
        <ele>968.1</ele>
        <time>2022-10-28T11:33:06Z</time>
      </trkpt>
      <trkpt lat="44.5132" lon="5.6266">
        <ele>968.3</ele>
        <time>2022-10-28T11:33:07Z</time>
      </trkpt>
      <trkpt lat="44.51319" lon="5.62661">
        <ele>968.4</ele>
        <time>2022-10-28T11:33:08Z</time>
      </trkpt>
      <trkpt lat="44.51319" lon="5.62663">
        <ele>968.5</ele>
        <time>2022-10-28T11:33:09Z</time>
      </trkpt>
      <trkpt lat="44.51318" lon="5.62666">
        <ele>968.6</ele>
        <time>2022-10-28T11:33:10Z</time>
      </trkpt>
      <trkpt lat="44.51318" lon="5.62668">
        <ele>968.7</ele>
        <time>2022-10-28T11:33:11Z</time>
      </trkpt>
      <trkpt lat="44.51318" lon="5.6267">
        <ele>968.9</ele>
        <time>2022-10-28T11:33:12Z</time>
      </trkpt>
      <trkpt lat="44.51318" lon="5.62675">
        <ele>969.1</ele>
        <time>2022-10-28T11:33:13Z</time>
      </trkpt>
      <trkpt lat="44.51318" lon="5.62676">
        <ele>969.1</ele>
        <time>2022-10-28T11:33:14Z</time>
      </trkpt>
      <trkpt lat="44.51318" lon="5.62681">
        <ele>969.4</ele>
        <time>2022-10-28T11:33:16Z</time>
      </trkpt>
      <trkpt lat="44.51318" lon="5.62682">
        <ele>969.5</ele>
        <time>2022-10-28T11:33:17Z</time>
      </trkpt>
      <trkpt lat="44.51318" lon="5.62685">
        <ele>969.6</ele>
        <time>2022-10-28T11:33:18Z</time>
      </trkpt>
      <trkpt lat="44.51318" lon="5.62687">
        <ele>969.7</ele>
        <time>2022-10-28T11:33:19Z</time>
      </trkpt>
      <trkpt lat="44.51318" lon="5.62689">
        <ele>969.8</ele>
        <time>2022-10-28T11:33:20Z</time>
      </trkpt>
      <trkpt lat="44.51317" lon="5.62692">
        <ele>970</ele>
        <time>2022-10-28T11:33:21Z</time>
      </trkpt>
      <trkpt lat="44.51317" lon="5.62695">
        <ele>970.1</ele>
        <time>2022-10-28T11:33:22Z</time>
      </trkpt>
      <trkpt lat="44.51317" lon="5.62698">
        <ele>970.3</ele>
        <time>2022-10-28T11:33:24Z</time>
      </trkpt>
      <trkpt lat="44.51317" lon="5.62703">
        <ele>970.5</ele>
        <time>2022-10-28T11:33:25Z</time>
      </trkpt>
      <trkpt lat="44.51317" lon="5.62704">
        <ele>970.6</ele>
        <time>2022-10-28T11:33:26Z</time>
      </trkpt>
      <trkpt lat="44.51316" lon="5.62709">
        <ele>970.8</ele>
        <time>2022-10-28T11:33:27Z</time>
      </trkpt>
      <trkpt lat="44.51316" lon="5.6271">
        <ele>970.9</ele>
        <time>2022-10-28T11:33:28Z</time>
      </trkpt>
      <trkpt lat="44.51316" lon="5.62712">
        <ele>971</ele>
        <time>2022-10-28T11:33:29Z</time>
      </trkpt>
      <trkpt lat="44.51315" lon="5.62716">
        <ele>971.1</ele>
        <time>2022-10-28T11:33:31Z</time>
      </trkpt>
      <trkpt lat="44.51315" lon="5.6272">
        <ele>971.4</ele>
        <time>2022-10-28T11:33:32Z</time>
      </trkpt>
      <trkpt lat="44.51314" lon="5.62722">
        <ele>971.5</ele>
        <time>2022-10-28T11:33:33Z</time>
      </trkpt>
      <trkpt lat="44.51314" lon="5.62726">
        <ele>971.7</ele>
        <time>2022-10-28T11:33:35Z</time>
      </trkpt>
      <trkpt lat="44.51313" lon="5.62727">
        <ele>971.8</ele>
        <time>2022-10-28T11:33:36Z</time>
      </trkpt>
      <trkpt lat="44.51312" lon="5.62731">
        <ele>972</ele>
        <time>2022-10-28T11:33:37Z</time>
      </trkpt>
      <trkpt lat="44.51312" lon="5.62732">
        <ele>972</ele>
        <time>2022-10-28T11:33:38Z</time>
      </trkpt>
      <trkpt lat="44.51311" lon="5.62735">
        <ele>972.2</ele>
        <time>2022-10-28T11:33:39Z</time>
      </trkpt>
      <trkpt lat="44.51311" lon="5.62737">
        <ele>972.3</ele>
        <time>2022-10-28T11:33:40Z</time>
      </trkpt>
      <trkpt lat="44.5131" lon="5.62739">
        <ele>972.4</ele>
        <time>2022-10-28T11:33:41Z</time>
      </trkpt>
      <trkpt lat="44.5131" lon="5.62741">
        <ele>972.5</ele>
        <time>2022-10-28T11:33:42Z</time>
      </trkpt>
      <trkpt lat="44.51308" lon="5.62744">
        <ele>972.8</ele>
        <time>2022-10-28T11:33:44Z</time>
      </trkpt>
      <trkpt lat="44.51308" lon="5.62745">
        <ele>972.8</ele>
        <time>2022-10-28T11:33:45Z</time>
      </trkpt>
      <trkpt lat="44.51307" lon="5.62747">
        <ele>972.9</ele>
        <time>2022-10-28T11:33:46Z</time>
      </trkpt>
      <trkpt lat="44.51306" lon="5.62749">
        <ele>973</ele>
        <time>2022-10-28T11:33:47Z</time>
      </trkpt>
      <trkpt lat="44.51306" lon="5.62751">
        <ele>973.2</ele>
        <time>2022-10-28T11:33:48Z</time>
      </trkpt>
      <trkpt lat="44.51305" lon="5.62754">
        <ele>973.3</ele>
        <time>2022-10-28T11:33:49Z</time>
      </trkpt>
      <trkpt lat="44.51304" lon="5.62756">
        <ele>973.4</ele>
        <time>2022-10-28T11:33:50Z</time>
      </trkpt>
      <trkpt lat="44.51303" lon="5.62758">
        <ele>973.5</ele>
        <time>2022-10-28T11:33:52Z</time>
      </trkpt>
      <trkpt lat="44.51301" lon="5.62762">
        <ele>973.7</ele>
        <time>2022-10-28T11:33:53Z</time>
      </trkpt>
      <trkpt lat="44.51301" lon="5.62763">
        <ele>973.8</ele>
        <time>2022-10-28T11:33:54Z</time>
      </trkpt>
      <trkpt lat="44.513" lon="5.62765">
        <ele>973.9</ele>
        <time>2022-10-28T11:33:55Z</time>
      </trkpt>
      <trkpt lat="44.51299" lon="5.62767">
        <ele>974</ele>
        <time>2022-10-28T11:33:56Z</time>
      </trkpt>
      <trkpt lat="44.51298" lon="5.62769">
        <ele>974.1</ele>
        <time>2022-10-28T11:33:57Z</time>
      </trkpt>
      <trkpt lat="44.51297" lon="5.62771">
        <ele>974.3</ele>
        <time>2022-10-28T11:33:58Z</time>
      </trkpt>
      <trkpt lat="44.51295" lon="5.62773">
        <ele>974.4</ele>
        <time>2022-10-28T11:33:59Z</time>
      </trkpt>
      <trkpt lat="44.51294" lon="5.62775">
        <ele>974.5</ele>
        <time>2022-10-28T11:34:01Z</time>
      </trkpt>
      <trkpt lat="44.51293" lon="5.62779">
        <ele>974.7</ele>
        <time>2022-10-28T11:34:02Z</time>
      </trkpt>
      <trkpt lat="44.51293" lon="5.6278">
        <ele>974.8</ele>
        <time>2022-10-28T11:34:03Z</time>
      </trkpt>
      <trkpt lat="44.51291" lon="5.62784">
        <ele>975</ele>
        <time>2022-10-28T11:34:04Z</time>
      </trkpt>
      <trkpt lat="44.51291" lon="5.62785">
        <ele>975</ele>
        <time>2022-10-28T11:34:05Z</time>
      </trkpt>
      <trkpt lat="44.5129" lon="5.62787">
        <ele>975.1</ele>
        <time>2022-10-28T11:34:06Z</time>
      </trkpt>
      <trkpt lat="44.5129" lon="5.62789">
        <ele>975.2</ele>
        <time>2022-10-28T11:34:07Z</time>
      </trkpt>
      <trkpt lat="44.51289" lon="5.62792">
        <ele>975.4</ele>
        <time>2022-10-28T11:34:08Z</time>
      </trkpt>
      <trkpt lat="44.51288" lon="5.62794">
        <ele>975.5</ele>
        <time>2022-10-28T11:34:10Z</time>
      </trkpt>
      <trkpt lat="44.51288" lon="5.62798">
        <ele>975.7</ele>
        <time>2022-10-28T11:34:11Z</time>
      </trkpt>
      <trkpt lat="44.51288" lon="5.62801">
        <ele>975.8</ele>
        <time>2022-10-28T11:34:12Z</time>
      </trkpt>
      <trkpt lat="44.51287" lon="5.62804">
        <ele>976</ele>
        <time>2022-10-28T11:34:14Z</time>
      </trkpt>
      <trkpt lat="44.51287" lon="5.62808">
        <ele>976.2</ele>
        <time>2022-10-28T11:34:15Z</time>
      </trkpt>
      <trkpt lat="44.51286" lon="5.6281">
        <ele>976.3</ele>
        <time>2022-10-28T11:34:16Z</time>
      </trkpt>
      <trkpt lat="44.51286" lon="5.62812">
        <ele>976.4</ele>
        <time>2022-10-28T11:34:17Z</time>
      </trkpt>
      <trkpt lat="44.51286" lon="5.62815">
        <ele>976.6</ele>
        <time>2022-10-28T11:34:19Z</time>
      </trkpt>
      <trkpt lat="44.51284" lon="5.62819">
        <ele>976.8</ele>
        <time>2022-10-28T11:34:20Z</time>
      </trkpt>
      <trkpt lat="44.51284" lon="5.6282">
        <ele>976.9</ele>
        <time>2022-10-28T11:34:21Z</time>
      </trkpt>
      <trkpt lat="44.51283" lon="5.62822">
        <ele>977</ele>
        <time>2022-10-28T11:34:22Z</time>
      </trkpt>
      <trkpt lat="44.51282" lon="5.62824">
        <ele>977.1</ele>
        <time>2022-10-28T11:34:23Z</time>
      </trkpt>
      <trkpt lat="44.51281" lon="5.62828">
        <ele>977.4</ele>
        <time>2022-10-28T11:34:25Z</time>
      </trkpt>
      <trkpt lat="44.5128" lon="5.62829">
        <ele>977.5</ele>
        <time>2022-10-28T11:34:26Z</time>
      </trkpt>
      <trkpt lat="44.51278" lon="5.62833">
        <ele>977.8</ele>
        <time>2022-10-28T11:34:27Z</time>
      </trkpt>
      <trkpt lat="44.51277" lon="5.62835">
        <ele>977.9</ele>
        <time>2022-10-28T11:34:28Z</time>
      </trkpt>
      <trkpt lat="44.51275" lon="5.62837">
        <ele>978.1</ele>
        <time>2022-10-28T11:34:29Z</time>
      </trkpt>
      <trkpt lat="44.51274" lon="5.62841">
        <ele>978.3</ele>
        <time>2022-10-28T11:34:31Z</time>
      </trkpt>
      <trkpt lat="44.51272" lon="5.62844">
        <ele>978.6</ele>
        <time>2022-10-28T11:34:32Z</time>
      </trkpt>
      <trkpt lat="44.51271" lon="5.62846">
        <ele>978.7</ele>
        <time>2022-10-28T11:34:33Z</time>
      </trkpt>
      <trkpt lat="44.5127" lon="5.62848">
        <ele>978.8</ele>
        <time>2022-10-28T11:34:34Z</time>
      </trkpt>
      <trkpt lat="44.51269" lon="5.6285">
        <ele>978.9</ele>
        <time>2022-10-28T11:34:36Z</time>
      </trkpt>
      <trkpt lat="44.51267" lon="5.62853">
        <ele>979.1</ele>
        <time>2022-10-28T11:34:37Z</time>
      </trkpt>
      <trkpt lat="44.51266" lon="5.62856">
        <ele>979.3</ele>
        <time>2022-10-28T11:34:39Z</time>
      </trkpt>
      <trkpt lat="44.51265" lon="5.62858">
        <ele>979.4</ele>
        <time>2022-10-28T11:34:40Z</time>
      </trkpt>
      <trkpt lat="44.51264" lon="5.62862">
        <ele>979.6</ele>
        <time>2022-10-28T11:34:41Z</time>
      </trkpt>
      <trkpt lat="44.51263" lon="5.62863">
        <ele>979.7</ele>
        <time>2022-10-28T11:34:42Z</time>
      </trkpt>
      <trkpt lat="44.51263" lon="5.62865">
        <ele>979.8</ele>
        <time>2022-10-28T11:34:43Z</time>
      </trkpt>
      <trkpt lat="44.51263" lon="5.62868">
        <ele>979.9</ele>
        <time>2022-10-28T11:34:45Z</time>
      </trkpt>
      <trkpt lat="44.51262" lon="5.62872">
        <ele>980.1</ele>
        <time>2022-10-28T11:34:46Z</time>
      </trkpt>
      <trkpt lat="44.51261" lon="5.62874">
        <ele>980.2</ele>
        <time>2022-10-28T11:34:47Z</time>
      </trkpt>
      <trkpt lat="44.5126" lon="5.62879">
        <ele>980.4</ele>
        <time>2022-10-28T11:34:49Z</time>
      </trkpt>
      <trkpt lat="44.51259" lon="5.6288">
        <ele>980.4</ele>
        <time>2022-10-28T11:34:50Z</time>
      </trkpt>
      <trkpt lat="44.51259" lon="5.62882">
        <ele>980.5</ele>
        <time>2022-10-28T11:34:51Z</time>
      </trkpt>
      <trkpt lat="44.51258" lon="5.62884">
        <ele>980.6</ele>
        <time>2022-10-28T11:34:52Z</time>
      </trkpt>
      <trkpt lat="44.51257" lon="5.62888">
        <ele>980.8</ele>
        <time>2022-10-28T11:34:53Z</time>
      </trkpt>
      <trkpt lat="44.51257" lon="5.62889">
        <ele>980.8</ele>
        <time>2022-10-28T11:34:54Z</time>
      </trkpt>
      <trkpt lat="44.51256" lon="5.62894">
        <ele>980.9</ele>
        <time>2022-10-28T11:34:55Z</time>
      </trkpt>
      <trkpt lat="44.51254" lon="5.62901">
        <ele>981.1</ele>
        <time>2022-10-28T11:34:57Z</time>
      </trkpt>
      <trkpt lat="44.51254" lon="5.62903">
        <ele>981.2</ele>
        <time>2022-10-28T11:34:58Z</time>
      </trkpt>
      <trkpt lat="44.51254" lon="5.62905">
        <ele>981.3</ele>
        <time>2022-10-28T11:34:59Z</time>
      </trkpt>
      <trkpt lat="44.51253" lon="5.6291">
        <ele>981.4</ele>
        <time>2022-10-28T11:35:00Z</time>
      </trkpt>
      <trkpt lat="44.51252" lon="5.62911">
        <ele>981.5</ele>
        <time>2022-10-28T11:35:01Z</time>
      </trkpt>
      <trkpt lat="44.51251" lon="5.62915">
        <ele>981.6</ele>
        <time>2022-10-28T11:35:02Z</time>
      </trkpt>
      <trkpt lat="44.51251" lon="5.62916">
        <ele>981.6</ele>
        <time>2022-10-28T11:35:03Z</time>
      </trkpt>
      <trkpt lat="44.51251" lon="5.62921">
        <ele>981.8</ele>
        <time>2022-10-28T11:35:04Z</time>
      </trkpt>
      <trkpt lat="44.5125" lon="5.62922">
        <ele>981.8</ele>
        <time>2022-10-28T11:35:05Z</time>
      </trkpt>
      <trkpt lat="44.51251" lon="5.62924">
        <ele>981.9</ele>
        <time>2022-10-28T11:35:06Z</time>
      </trkpt>
      <trkpt lat="44.5125" lon="5.62929">
        <ele>982</ele>
        <time>2022-10-28T11:35:08Z</time>
      </trkpt>
      <trkpt lat="44.5125" lon="5.62933">
        <ele>982.2</ele>
        <time>2022-10-28T11:35:09Z</time>
      </trkpt>
      <trkpt lat="44.51249" lon="5.62935">
        <ele>982.2</ele>
        <time>2022-10-28T11:35:10Z</time>
      </trkpt>
      <trkpt lat="44.51249" lon="5.6294">
        <ele>982.4</ele>
        <time>2022-10-28T11:35:11Z</time>
      </trkpt>
      <trkpt lat="44.51249" lon="5.62941">
        <ele>982.4</ele>
        <time>2022-10-28T11:35:12Z</time>
      </trkpt>
      <trkpt lat="44.51249" lon="5.62946">
        <ele>982.6</ele>
        <time>2022-10-28T11:35:14Z</time>
      </trkpt>
      <trkpt lat="44.51249" lon="5.62948">
        <ele>982.7</ele>
        <time>2022-10-28T11:35:15Z</time>
      </trkpt>
      <trkpt lat="44.51249" lon="5.62951">
        <ele>982.8</ele>
        <time>2022-10-28T11:35:16Z</time>
      </trkpt>
      <trkpt lat="44.51249" lon="5.62956">
        <ele>983</ele>
        <time>2022-10-28T11:35:18Z</time>
      </trkpt>
      <trkpt lat="44.5125" lon="5.6296">
        <ele>983.2</ele>
        <time>2022-10-28T11:35:19Z</time>
      </trkpt>
      <trkpt lat="44.5125" lon="5.62965">
        <ele>983.4</ele>
        <time>2022-10-28T11:35:20Z</time>
      </trkpt>
      <trkpt lat="44.5125" lon="5.62966">
        <ele>983.4</ele>
        <time>2022-10-28T11:35:21Z</time>
      </trkpt>
      <trkpt lat="44.5125" lon="5.62969">
        <ele>983.5</ele>
        <time>2022-10-28T11:35:22Z</time>
      </trkpt>
      <trkpt lat="44.51249" lon="5.62971">
        <ele>983.6</ele>
        <time>2022-10-28T11:35:23Z</time>
      </trkpt>
      <trkpt lat="44.51249" lon="5.62974">
        <ele>983.8</ele>
        <time>2022-10-28T11:35:24Z</time>
      </trkpt>
      <trkpt lat="44.51249" lon="5.62977">
        <ele>983.9</ele>
        <time>2022-10-28T11:35:26Z</time>
      </trkpt>
      <trkpt lat="44.51248" lon="5.62982">
        <ele>984.1</ele>
        <time>2022-10-28T11:35:27Z</time>
      </trkpt>
      <trkpt lat="44.51248" lon="5.62984">
        <ele>984.2</ele>
        <time>2022-10-28T11:35:28Z</time>
      </trkpt>
      <trkpt lat="44.51248" lon="5.62988">
        <ele>984.4</ele>
        <time>2022-10-28T11:35:29Z</time>
      </trkpt>
      <trkpt lat="44.51249" lon="5.62989">
        <ele>984.5</ele>
        <time>2022-10-28T11:35:30Z</time>
      </trkpt>
      <trkpt lat="44.51249" lon="5.62993">
        <ele>984.7</ele>
        <time>2022-10-28T11:35:31Z</time>
      </trkpt>
      <trkpt lat="44.5125" lon="5.62994">
        <ele>984.8</ele>
        <time>2022-10-28T11:35:32Z</time>
      </trkpt>
      <trkpt lat="44.5125" lon="5.62998">
        <ele>985</ele>
        <time>2022-10-28T11:35:33Z</time>
      </trkpt>
      <trkpt lat="44.5125" lon="5.63">
        <ele>985.1</ele>
        <time>2022-10-28T11:35:34Z</time>
      </trkpt>
      <trkpt lat="44.5125" lon="5.63002">
        <ele>985.2</ele>
        <time>2022-10-28T11:35:35Z</time>
      </trkpt>
      <trkpt lat="44.5125" lon="5.63006">
        <ele>985.4</ele>
        <time>2022-10-28T11:35:37Z</time>
      </trkpt>
      <trkpt lat="44.51251" lon="5.6301">
        <ele>985.6</ele>
        <time>2022-10-28T11:35:38Z</time>
      </trkpt>
      <trkpt lat="44.51251" lon="5.63012">
        <ele>985.7</ele>
        <time>2022-10-28T11:35:39Z</time>
      </trkpt>
      <trkpt lat="44.51252" lon="5.63016">
        <ele>985.9</ele>
        <time>2022-10-28T11:35:40Z</time>
      </trkpt>
      <trkpt lat="44.51253" lon="5.63018">
        <ele>986</ele>
        <time>2022-10-28T11:35:41Z</time>
      </trkpt>
      <trkpt lat="44.51253" lon="5.6302">
        <ele>986.1</ele>
        <time>2022-10-28T11:35:42Z</time>
      </trkpt>
      <trkpt lat="44.51254" lon="5.63023">
        <ele>986.3</ele>
        <time>2022-10-28T11:35:44Z</time>
      </trkpt>
      <trkpt lat="44.51255" lon="5.63027">
        <ele>986.5</ele>
        <time>2022-10-28T11:35:45Z</time>
      </trkpt>
      <trkpt lat="44.51255" lon="5.63029">
        <ele>986.5</ele>
        <time>2022-10-28T11:35:46Z</time>
      </trkpt>
      <trkpt lat="44.51256" lon="5.63031">
        <ele>986.7</ele>
        <time>2022-10-28T11:35:47Z</time>
      </trkpt>
      <trkpt lat="44.51257" lon="5.63034">
        <ele>986.8</ele>
        <time>2022-10-28T11:35:49Z</time>
      </trkpt>
      <trkpt lat="44.51257" lon="5.63039">
        <ele>987</ele>
        <time>2022-10-28T11:35:50Z</time>
      </trkpt>
      <trkpt lat="44.51257" lon="5.63044">
        <ele>987.2</ele>
        <time>2022-10-28T11:35:51Z</time>
      </trkpt>
      <trkpt lat="44.51256" lon="5.63046">
        <ele>987.3</ele>
        <time>2022-10-28T11:35:52Z</time>
      </trkpt>
      <trkpt lat="44.51255" lon="5.6305">
        <ele>987.5</ele>
        <time>2022-10-28T11:35:53Z</time>
      </trkpt>
      <trkpt lat="44.51255" lon="5.63051">
        <ele>987.6</ele>
        <time>2022-10-28T11:35:54Z</time>
      </trkpt>
      <trkpt lat="44.51254" lon="5.63053">
        <ele>987.7</ele>
        <time>2022-10-28T11:35:55Z</time>
      </trkpt>
      <trkpt lat="44.51253" lon="5.63056">
        <ele>987.8</ele>
        <time>2022-10-28T11:35:56Z</time>
      </trkpt>
      <trkpt lat="44.51253" lon="5.63057">
        <ele>987.9</ele>
        <time>2022-10-28T11:35:57Z</time>
      </trkpt>
      <trkpt lat="44.51251" lon="5.63061">
        <ele>988</ele>
        <time>2022-10-28T11:35:59Z</time>
      </trkpt>
      <trkpt lat="44.51251" lon="5.63063">
        <ele>988.1</ele>
        <time>2022-10-28T11:36:00Z</time>
      </trkpt>
      <trkpt lat="44.51249" lon="5.63066">
        <ele>988.3</ele>
        <time>2022-10-28T11:36:02Z</time>
      </trkpt>
      <trkpt lat="44.51249" lon="5.63069">
        <ele>988.4</ele>
        <time>2022-10-28T11:36:03Z</time>
      </trkpt>
      <trkpt lat="44.51248" lon="5.63071">
        <ele>988.5</ele>
        <time>2022-10-28T11:36:04Z</time>
      </trkpt>
      <trkpt lat="44.51248" lon="5.63073">
        <ele>988.6</ele>
        <time>2022-10-28T11:36:05Z</time>
      </trkpt>
      <trkpt lat="44.51247" lon="5.63075">
        <ele>988.8</ele>
        <time>2022-10-28T11:36:06Z</time>
      </trkpt>
      <trkpt lat="44.51247" lon="5.63078">
        <ele>988.9</ele>
        <time>2022-10-28T11:36:07Z</time>
      </trkpt>
      <trkpt lat="44.51247" lon="5.6308">
        <ele>989</ele>
        <time>2022-10-28T11:36:08Z</time>
      </trkpt>
      <trkpt lat="44.51247" lon="5.63083">
        <ele>989.1</ele>
        <time>2022-10-28T11:36:09Z</time>
      </trkpt>
      <trkpt lat="44.51246" lon="5.63085">
        <ele>989.2</ele>
        <time>2022-10-28T11:36:10Z</time>
      </trkpt>
      <trkpt lat="44.51246" lon="5.63088">
        <ele>989.3</ele>
        <time>2022-10-28T11:36:11Z</time>
      </trkpt>
      <trkpt lat="44.51246" lon="5.63091">
        <ele>989.5</ele>
        <time>2022-10-28T11:36:13Z</time>
      </trkpt>
      <trkpt lat="44.51245" lon="5.63095">
        <ele>989.7</ele>
        <time>2022-10-28T11:36:14Z</time>
      </trkpt>
      <trkpt lat="44.51245" lon="5.63098">
        <ele>989.8</ele>
        <time>2022-10-28T11:36:15Z</time>
      </trkpt>
      <trkpt lat="44.51245" lon="5.63101">
        <ele>989.9</ele>
        <time>2022-10-28T11:36:17Z</time>
      </trkpt>
      <trkpt lat="44.51245" lon="5.63105">
        <ele>990.1</ele>
        <time>2022-10-28T11:36:18Z</time>
      </trkpt>
      <trkpt lat="44.51245" lon="5.63107">
        <ele>990.2</ele>
        <time>2022-10-28T11:36:19Z</time>
      </trkpt>
      <trkpt lat="44.51245" lon="5.63109">
        <ele>990.3</ele>
        <time>2022-10-28T11:36:20Z</time>
      </trkpt>
      <trkpt lat="44.51245" lon="5.63112">
        <ele>990.4</ele>
        <time>2022-10-28T11:36:21Z</time>
      </trkpt>
      <trkpt lat="44.51245" lon="5.63114">
        <ele>990.5</ele>
        <time>2022-10-28T11:36:22Z</time>
      </trkpt>
      <trkpt lat="44.51245" lon="5.63117">
        <ele>990.7</ele>
        <time>2022-10-28T11:36:24Z</time>
      </trkpt>
      <trkpt lat="44.51245" lon="5.63122">
        <ele>990.9</ele>
        <time>2022-10-28T11:36:25Z</time>
      </trkpt>
      <trkpt lat="44.51245" lon="5.63123">
        <ele>990.9</ele>
        <time>2022-10-28T11:36:26Z</time>
      </trkpt>
      <trkpt lat="44.51244" lon="5.63125">
        <ele>991</ele>
        <time>2022-10-28T11:36:27Z</time>
      </trkpt>
      <trkpt lat="44.51244" lon="5.63128">
        <ele>991.2</ele>
        <time>2022-10-28T11:36:28Z</time>
      </trkpt>
      <trkpt lat="44.51244" lon="5.63132">
        <ele>991.3</ele>
        <time>2022-10-28T11:36:30Z</time>
      </trkpt>
      <trkpt lat="44.51244" lon="5.63133">
        <ele>991.4</ele>
        <time>2022-10-28T11:36:31Z</time>
      </trkpt>
      <trkpt lat="44.51244" lon="5.63137">
        <ele>991.6</ele>
        <time>2022-10-28T11:36:32Z</time>
      </trkpt>
      <trkpt lat="44.51244" lon="5.63139">
        <ele>991.6</ele>
        <time>2022-10-28T11:36:33Z</time>
      </trkpt>
      <trkpt lat="44.51244" lon="5.63142">
        <ele>991.8</ele>
        <time>2022-10-28T11:36:34Z</time>
      </trkpt>
      <trkpt lat="44.51244" lon="5.63144">
        <ele>991.9</ele>
        <time>2022-10-28T11:36:36Z</time>
      </trkpt>
      <trkpt lat="44.51245" lon="5.63148">
        <ele>992.1</ele>
        <time>2022-10-28T11:36:37Z</time>
      </trkpt>
      <trkpt lat="44.51245" lon="5.63149">
        <ele>992.1</ele>
        <time>2022-10-28T11:36:38Z</time>
      </trkpt>
      <trkpt lat="44.51245" lon="5.63152">
        <ele>992.2</ele>
        <time>2022-10-28T11:36:39Z</time>
      </trkpt>
      <trkpt lat="44.51245" lon="5.63154">
        <ele>992.3</ele>
        <time>2022-10-28T11:36:40Z</time>
      </trkpt>
      <trkpt lat="44.51246" lon="5.63157">
        <ele>992.4</ele>
        <time>2022-10-28T11:36:41Z</time>
      </trkpt>
      <trkpt lat="44.51247" lon="5.63158">
        <ele>992.5</ele>
        <time>2022-10-28T11:36:42Z</time>
      </trkpt>
      <trkpt lat="44.51247" lon="5.63161">
        <ele>992.6</ele>
        <time>2022-10-28T11:36:43Z</time>
      </trkpt>
      <trkpt lat="44.51248" lon="5.63165">
        <ele>992.8</ele>
        <time>2022-10-28T11:36:45Z</time>
      </trkpt>
      <trkpt lat="44.51248" lon="5.63168">
        <ele>992.9</ele>
        <time>2022-10-28T11:36:46Z</time>
      </trkpt>
      <trkpt lat="44.51249" lon="5.63172">
        <ele>993</ele>
        <time>2022-10-28T11:36:48Z</time>
      </trkpt>
      <trkpt lat="44.51249" lon="5.63175">
        <ele>993.1</ele>
        <time>2022-10-28T11:36:49Z</time>
      </trkpt>
      <trkpt lat="44.5125" lon="5.63179">
        <ele>993.3</ele>
        <time>2022-10-28T11:36:51Z</time>
      </trkpt>
      <trkpt lat="44.51251" lon="5.63183">
        <ele>993.5</ele>
        <time>2022-10-28T11:36:52Z</time>
      </trkpt>
      <trkpt lat="44.51252" lon="5.63188">
        <ele>993.6</ele>
        <time>2022-10-28T11:36:53Z</time>
      </trkpt>
      <trkpt lat="44.51252" lon="5.63189">
        <ele>993.7</ele>
        <time>2022-10-28T11:36:54Z</time>
      </trkpt>
      <trkpt lat="44.51253" lon="5.63194">
        <ele>993.9</ele>
        <time>2022-10-28T11:36:56Z</time>
      </trkpt>
      <trkpt lat="44.51253" lon="5.63196">
        <ele>994</ele>
        <time>2022-10-28T11:36:57Z</time>
      </trkpt>
      <trkpt lat="44.51254" lon="5.632">
        <ele>994.1</ele>
        <time>2022-10-28T11:36:58Z</time>
      </trkpt>
      <trkpt lat="44.51254" lon="5.63203">
        <ele>994.3</ele>
        <time>2022-10-28T11:36:59Z</time>
      </trkpt>
      <trkpt lat="44.51255" lon="5.63207">
        <ele>994.4</ele>
        <time>2022-10-28T11:37:01Z</time>
      </trkpt>
      <trkpt lat="44.51255" lon="5.6321">
        <ele>994.6</ele>
        <time>2022-10-28T11:37:02Z</time>
      </trkpt>
      <trkpt lat="44.51256" lon="5.63213">
        <ele>994.7</ele>
        <time>2022-10-28T11:37:04Z</time>
      </trkpt>
      <trkpt lat="44.51256" lon="5.63218">
        <ele>995</ele>
        <time>2022-10-28T11:37:05Z</time>
      </trkpt>
      <trkpt lat="44.51256" lon="5.63219">
        <ele>995</ele>
        <time>2022-10-28T11:37:06Z</time>
      </trkpt>
      <trkpt lat="44.51256" lon="5.63222">
        <ele>995.2</ele>
        <time>2022-10-28T11:37:07Z</time>
      </trkpt>
      <trkpt lat="44.51257" lon="5.63224">
        <ele>995.3</ele>
        <time>2022-10-28T11:37:08Z</time>
      </trkpt>
      <trkpt lat="44.51257" lon="5.63226">
        <ele>995.4</ele>
        <time>2022-10-28T11:37:09Z</time>
      </trkpt>
      <trkpt lat="44.51257" lon="5.63229">
        <ele>995.5</ele>
        <time>2022-10-28T11:37:10Z</time>
      </trkpt>
      <trkpt lat="44.51258" lon="5.63231">
        <ele>995.7</ele>
        <time>2022-10-28T11:37:11Z</time>
      </trkpt>
      <trkpt lat="44.51258" lon="5.63235">
        <ele>995.8</ele>
        <time>2022-10-28T11:37:13Z</time>
      </trkpt>
      <trkpt lat="44.51259" lon="5.63239">
        <ele>996.1</ele>
        <time>2022-10-28T11:37:14Z</time>
      </trkpt>
      <trkpt lat="44.51259" lon="5.6324">
        <ele>996.1</ele>
        <time>2022-10-28T11:37:15Z</time>
      </trkpt>
      <trkpt lat="44.5126" lon="5.63242">
        <ele>996.3</ele>
        <time>2022-10-28T11:37:16Z</time>
      </trkpt>
      <trkpt lat="44.51261" lon="5.63245">
        <ele>996.4</ele>
        <time>2022-10-28T11:37:17Z</time>
      </trkpt>
      <trkpt lat="44.51261" lon="5.63247">
        <ele>996.5</ele>
        <time>2022-10-28T11:37:18Z</time>
      </trkpt>
      <trkpt lat="44.51262" lon="5.63249">
        <ele>996.7</ele>
        <time>2022-10-28T11:37:20Z</time>
      </trkpt>
      <trkpt lat="44.51264" lon="5.63253">
        <ele>996.8</ele>
        <time>2022-10-28T11:37:21Z</time>
      </trkpt>
      <trkpt lat="44.51264" lon="5.63254">
        <ele>996.9</ele>
        <time>2022-10-28T11:37:22Z</time>
      </trkpt>
      <trkpt lat="44.51267" lon="5.63258">
        <ele>997.1</ele>
        <time>2022-10-28T11:37:23Z</time>
      </trkpt>
      <trkpt lat="44.51268" lon="5.63259">
        <ele>997.2</ele>
        <time>2022-10-28T11:37:24Z</time>
      </trkpt>
      <trkpt lat="44.51271" lon="5.63263">
        <ele>997.5</ele>
        <time>2022-10-28T11:37:26Z</time>
      </trkpt>
      <trkpt lat="44.51272" lon="5.63265">
        <ele>997.5</ele>
        <time>2022-10-28T11:37:27Z</time>
      </trkpt>
      <trkpt lat="44.51273" lon="5.63267">
        <ele>997.6</ele>
        <time>2022-10-28T11:37:28Z</time>
      </trkpt>
      <trkpt lat="44.51275" lon="5.6327">
        <ele>997.8</ele>
        <time>2022-10-28T11:37:29Z</time>
      </trkpt>
      <trkpt lat="44.51276" lon="5.63271">
        <ele>997.8</ele>
        <time>2022-10-28T11:37:30Z</time>
      </trkpt>
      <trkpt lat="44.51278" lon="5.63274">
        <ele>997.9</ele>
        <time>2022-10-28T11:37:31Z</time>
      </trkpt>
      <trkpt lat="44.51278" lon="5.63275">
        <ele>998</ele>
        <time>2022-10-28T11:37:32Z</time>
      </trkpt>
      <trkpt lat="44.5128" lon="5.63276">
        <ele>998</ele>
        <time>2022-10-28T11:37:33Z</time>
      </trkpt>
      <trkpt lat="44.51281" lon="5.63278">
        <ele>998.1</ele>
        <time>2022-10-28T11:37:34Z</time>
      </trkpt>
      <trkpt lat="44.51282" lon="5.6328">
        <ele>998.2</ele>
        <time>2022-10-28T11:37:35Z</time>
      </trkpt>
      <trkpt lat="44.51283" lon="5.63282">
        <ele>998.3</ele>
        <time>2022-10-28T11:37:37Z</time>
      </trkpt>
      <trkpt lat="44.51284" lon="5.63286">
        <ele>998.4</ele>
        <time>2022-10-28T11:37:38Z</time>
      </trkpt>
      <trkpt lat="44.51285" lon="5.63287">
        <ele>998.5</ele>
        <time>2022-10-28T11:37:39Z</time>
      </trkpt>
      <trkpt lat="44.51286" lon="5.63289">
        <ele>998.6</ele>
        <time>2022-10-28T11:37:40Z</time>
      </trkpt>
      <trkpt lat="44.51287" lon="5.63292">
        <ele>998.7</ele>
        <time>2022-10-28T11:37:42Z</time>
      </trkpt>
      <trkpt lat="44.51289" lon="5.63297">
        <ele>998.9</ele>
        <time>2022-10-28T11:37:43Z</time>
      </trkpt>
      <trkpt lat="44.51289" lon="5.63298">
        <ele>999</ele>
        <time>2022-10-28T11:37:44Z</time>
      </trkpt>
      <trkpt lat="44.5129" lon="5.63302">
        <ele>999.1</ele>
        <time>2022-10-28T11:37:45Z</time>
      </trkpt>
      <trkpt lat="44.5129" lon="5.63303">
        <ele>999.2</ele>
        <time>2022-10-28T11:37:46Z</time>
      </trkpt>
      <trkpt lat="44.51292" lon="5.63307">
        <ele>999.4</ele>
        <time>2022-10-28T11:37:48Z</time>
      </trkpt>
      <trkpt lat="44.51293" lon="5.63308">
        <ele>999.5</ele>
        <time>2022-10-28T11:37:49Z</time>
      </trkpt>
      <trkpt lat="44.51294" lon="5.6331">
        <ele>999.6</ele>
        <time>2022-10-28T11:37:50Z</time>
      </trkpt>
      <trkpt lat="44.51295" lon="5.63313">
        <ele>999.8</ele>
        <time>2022-10-28T11:37:52Z</time>
      </trkpt>
      <trkpt lat="44.51297" lon="5.63316">
        <ele>1000</ele>
        <time>2022-10-28T11:37:53Z</time>
      </trkpt>
      <trkpt lat="44.51297" lon="5.63317">
        <ele>1000.1</ele>
        <time>2022-10-28T11:37:54Z</time>
      </trkpt>
      <trkpt lat="44.51299" lon="5.63322">
        <ele>1000.3</ele>
        <time>2022-10-28T11:37:56Z</time>
      </trkpt>
      <trkpt lat="44.51299" lon="5.63323">
        <ele>1000.4</ele>
        <time>2022-10-28T11:37:57Z</time>
      </trkpt>
      <trkpt lat="44.51301" lon="5.63326">
        <ele>1000.6</ele>
        <time>2022-10-28T11:37:58Z</time>
      </trkpt>
      <trkpt lat="44.51301" lon="5.63328">
        <ele>1000.7</ele>
        <time>2022-10-28T11:37:59Z</time>
      </trkpt>
      <trkpt lat="44.51302" lon="5.63331">
        <ele>1000.9</ele>
        <time>2022-10-28T11:38:00Z</time>
      </trkpt>
      <trkpt lat="44.51302" lon="5.63332">
        <ele>1000.9</ele>
        <time>2022-10-28T11:38:01Z</time>
      </trkpt>
      <trkpt lat="44.51303" lon="5.63336">
        <ele>1001.1</ele>
        <time>2022-10-28T11:38:03Z</time>
      </trkpt>
      <trkpt lat="44.51304" lon="5.63337">
        <ele>1001.2</ele>
        <time>2022-10-28T11:38:04Z</time>
      </trkpt>
      <trkpt lat="44.51305" lon="5.6334">
        <ele>1001.3</ele>
        <time>2022-10-28T11:38:05Z</time>
      </trkpt>
      <trkpt lat="44.51305" lon="5.63341">
        <ele>1001.4</ele>
        <time>2022-10-28T11:38:06Z</time>
      </trkpt>
      <trkpt lat="44.51306" lon="5.63344">
        <ele>1001.5</ele>
        <time>2022-10-28T11:38:07Z</time>
      </trkpt>
      <trkpt lat="44.51307" lon="5.63345">
        <ele>1001.6</ele>
        <time>2022-10-28T11:38:08Z</time>
      </trkpt>
      <trkpt lat="44.51308" lon="5.63348">
        <ele>1001.8</ele>
        <time>2022-10-28T11:38:09Z</time>
      </trkpt>
      <trkpt lat="44.51308" lon="5.6335">
        <ele>1001.9</ele>
        <time>2022-10-28T11:38:11Z</time>
      </trkpt>
      <trkpt lat="44.51309" lon="5.63351">
        <ele>1002</ele>
        <time>2022-10-28T11:38:12Z</time>
      </trkpt>
      <trkpt lat="44.51309" lon="5.63353">
        <ele>1002.1</ele>
        <time>2022-10-28T11:38:13Z</time>
      </trkpt>
      <trkpt lat="44.51309" lon="5.63355">
        <ele>1002.2</ele>
        <time>2022-10-28T11:38:14Z</time>
      </trkpt>
      <trkpt lat="44.5131" lon="5.63359">
        <ele>1002.4</ele>
        <time>2022-10-28T11:38:15Z</time>
      </trkpt>
      <trkpt lat="44.5131" lon="5.6336">
        <ele>1002.5</ele>
        <time>2022-10-28T11:38:16Z</time>
      </trkpt>
      <trkpt lat="44.51312" lon="5.63364">
        <ele>1002.7</ele>
        <time>2022-10-28T11:38:17Z</time>
      </trkpt>
      <trkpt lat="44.51312" lon="5.63365">
        <ele>1002.8</ele>
        <time>2022-10-28T11:38:18Z</time>
      </trkpt>
      <trkpt lat="44.51313" lon="5.63367">
        <ele>1002.9</ele>
        <time>2022-10-28T11:38:20Z</time>
      </trkpt>
      <trkpt lat="44.51315" lon="5.63368">
        <ele>1003.1</ele>
        <time>2022-10-28T11:38:21Z</time>
      </trkpt>
      <trkpt lat="44.51316" lon="5.63372">
        <ele>1003.3</ele>
        <time>2022-10-28T11:38:22Z</time>
      </trkpt>
      <trkpt lat="44.51317" lon="5.63373">
        <ele>1003.4</ele>
        <time>2022-10-28T11:38:23Z</time>
      </trkpt>
      <trkpt lat="44.51317" lon="5.63374">
        <ele>1003.4</ele>
        <time>2022-10-28T11:38:24Z</time>
      </trkpt>
      <trkpt lat="44.51319" lon="5.63375">
        <ele>1003.6</ele>
        <time>2022-10-28T11:38:25Z</time>
      </trkpt>
      <trkpt lat="44.51321" lon="5.63377">
        <ele>1003.7</ele>
        <time>2022-10-28T11:38:26Z</time>
      </trkpt>
      <trkpt lat="44.51322" lon="5.63378">
        <ele>1003.8</ele>
        <time>2022-10-28T11:38:27Z</time>
      </trkpt>
      <trkpt lat="44.51324" lon="5.6338">
        <ele>1004</ele>
        <time>2022-10-28T11:38:28Z</time>
      </trkpt>
      <trkpt lat="44.51325" lon="5.63381">
        <ele>1004.1</ele>
        <time>2022-10-28T11:38:29Z</time>
      </trkpt>
      <trkpt lat="44.51326" lon="5.63382">
        <ele>1004.1</ele>
        <time>2022-10-28T11:38:30Z</time>
      </trkpt>
      <trkpt lat="44.51329" lon="5.63384">
        <ele>1004.3</ele>
        <time>2022-10-28T11:38:32Z</time>
      </trkpt>
      <trkpt lat="44.5133" lon="5.63384">
        <ele>1004.4</ele>
        <time>2022-10-28T11:38:33Z</time>
      </trkpt>
      <trkpt lat="44.51332" lon="5.63387">
        <ele>1004.6</ele>
        <time>2022-10-28T11:38:34Z</time>
      </trkpt>
      <trkpt lat="44.51333" lon="5.63387">
        <ele>1004.6</ele>
        <time>2022-10-28T11:38:35Z</time>
      </trkpt>
      <trkpt lat="44.51335" lon="5.63388">
        <ele>1004.7</ele>
        <time>2022-10-28T11:38:36Z</time>
      </trkpt>
      <trkpt lat="44.51336" lon="5.6339">
        <ele>1004.8</ele>
        <time>2022-10-28T11:38:38Z</time>
      </trkpt>
      <trkpt lat="44.51339" lon="5.63393">
        <ele>1005</ele>
        <time>2022-10-28T11:38:39Z</time>
      </trkpt>
      <trkpt lat="44.5134" lon="5.63394">
        <ele>1005.1</ele>
        <time>2022-10-28T11:38:40Z</time>
      </trkpt>
      <trkpt lat="44.51342" lon="5.63396">
        <ele>1005.3</ele>
        <time>2022-10-28T11:38:41Z</time>
      </trkpt>
      <trkpt lat="44.51344" lon="5.63398">
        <ele>1005.4</ele>
        <time>2022-10-28T11:38:42Z</time>
      </trkpt>
      <trkpt lat="44.51346" lon="5.634">
        <ele>1005.6</ele>
        <time>2022-10-28T11:38:44Z</time>
      </trkpt>
      <trkpt lat="44.51349" lon="5.63402">
        <ele>1005.8</ele>
        <time>2022-10-28T11:38:45Z</time>
      </trkpt>
      <trkpt lat="44.51352" lon="5.63405">
        <ele>1006</ele>
        <time>2022-10-28T11:38:47Z</time>
      </trkpt>
      <trkpt lat="44.51353" lon="5.63406">
        <ele>1006.1</ele>
        <time>2022-10-28T11:38:48Z</time>
      </trkpt>
      <trkpt lat="44.51354" lon="5.63407">
        <ele>1006.2</ele>
        <time>2022-10-28T11:38:49Z</time>
      </trkpt>
      <trkpt lat="44.51356" lon="5.63409">
        <ele>1006.3</ele>
        <time>2022-10-28T11:38:50Z</time>
      </trkpt>
      <trkpt lat="44.51357" lon="5.63411">
        <ele>1006.4</ele>
        <time>2022-10-28T11:38:51Z</time>
      </trkpt>
      <trkpt lat="44.51358" lon="5.63412">
        <ele>1006.5</ele>
        <time>2022-10-28T11:38:52Z</time>
      </trkpt>
      <trkpt lat="44.51359" lon="5.63413">
        <ele>1006.5</ele>
        <time>2022-10-28T11:38:53Z</time>
      </trkpt>
      <trkpt lat="44.5136" lon="5.63414">
        <ele>1006.6</ele>
        <time>2022-10-28T11:38:54Z</time>
      </trkpt>
      <trkpt lat="44.51362" lon="5.63417">
        <ele>1006.8</ele>
        <time>2022-10-28T11:38:56Z</time>
      </trkpt>
      <trkpt lat="44.51365" lon="5.6342">
        <ele>1007</ele>
        <time>2022-10-28T11:38:57Z</time>
      </trkpt>
      <trkpt lat="44.51365" lon="5.63421">
        <ele>1007</ele>
        <time>2022-10-28T11:38:58Z</time>
      </trkpt>
      <trkpt lat="44.51366" lon="5.63424">
        <ele>1007.2</ele>
        <time>2022-10-28T11:39:00Z</time>
      </trkpt>
      <trkpt lat="44.51367" lon="5.63425">
        <ele>1007.2</ele>
        <time>2022-10-28T11:39:01Z</time>
      </trkpt>
      <trkpt lat="44.51368" lon="5.63428">
        <ele>1007.3</ele>
        <time>2022-10-28T11:39:02Z</time>
      </trkpt>
      <trkpt lat="44.51369" lon="5.6343">
        <ele>1007.5</ele>
        <time>2022-10-28T11:39:04Z</time>
      </trkpt>
      <trkpt lat="44.5137" lon="5.63432">
        <ele>1007.6</ele>
        <time>2022-10-28T11:39:05Z</time>
      </trkpt>
      <trkpt lat="44.5137" lon="5.63434">
        <ele>1007.7</ele>
        <time>2022-10-28T11:39:06Z</time>
      </trkpt>
      <trkpt lat="44.51372" lon="5.63438">
        <ele>1007.9</ele>
        <time>2022-10-28T11:39:07Z</time>
      </trkpt>
      <trkpt lat="44.51372" lon="5.63439">
        <ele>1008</ele>
        <time>2022-10-28T11:39:08Z</time>
      </trkpt>
      <trkpt lat="44.51372" lon="5.63444">
        <ele>1008.2</ele>
        <time>2022-10-28T11:39:09Z</time>
      </trkpt>
      <trkpt lat="44.51372" lon="5.63445">
        <ele>1008.3</ele>
        <time>2022-10-28T11:39:10Z</time>
      </trkpt>
      <trkpt lat="44.51373" lon="5.63449">
        <ele>1008.5</ele>
        <time>2022-10-28T11:39:12Z</time>
      </trkpt>
      <trkpt lat="44.51373" lon="5.63451">
        <ele>1008.6</ele>
        <time>2022-10-28T11:39:13Z</time>
      </trkpt>
      <trkpt lat="44.51374" lon="5.63455">
        <ele>1008.8</ele>
        <time>2022-10-28T11:39:14Z</time>
      </trkpt>
      <trkpt lat="44.51374" lon="5.63456">
        <ele>1008.9</ele>
        <time>2022-10-28T11:39:15Z</time>
      </trkpt>
      <trkpt lat="44.51374" lon="5.63459">
        <ele>1009</ele>
        <time>2022-10-28T11:39:16Z</time>
      </trkpt>
      <trkpt lat="44.51373" lon="5.63462">
        <ele>1009.2</ele>
        <time>2022-10-28T11:39:18Z</time>
      </trkpt>
      <trkpt lat="44.51373" lon="5.63466">
        <ele>1009.4</ele>
        <time>2022-10-28T11:39:19Z</time>
      </trkpt>
      <trkpt lat="44.51373" lon="5.63467">
        <ele>1009.4</ele>
        <time>2022-10-28T11:39:20Z</time>
      </trkpt>
      <trkpt lat="44.51373" lon="5.6347">
        <ele>1009.6</ele>
        <time>2022-10-28T11:39:21Z</time>
      </trkpt>
      <trkpt lat="44.51373" lon="5.63472">
        <ele>1009.7</ele>
        <time>2022-10-28T11:39:22Z</time>
      </trkpt>
      <trkpt lat="44.51374" lon="5.63476">
        <ele>1009.9</ele>
        <time>2022-10-28T11:39:24Z</time>
      </trkpt>
      <trkpt lat="44.51374" lon="5.63477">
        <ele>1009.9</ele>
        <time>2022-10-28T11:39:25Z</time>
      </trkpt>
      <trkpt lat="44.51373" lon="5.63481">
        <ele>1010.1</ele>
        <time>2022-10-28T11:39:26Z</time>
      </trkpt>
      <trkpt lat="44.51374" lon="5.63483">
        <ele>1010.2</ele>
        <time>2022-10-28T11:39:28Z</time>
      </trkpt>
      <trkpt lat="44.51374" lon="5.63487">
        <ele>1010.4</ele>
        <time>2022-10-28T11:39:29Z</time>
      </trkpt>
      <trkpt lat="44.51374" lon="5.63488">
        <ele>1010.5</ele>
        <time>2022-10-28T11:39:30Z</time>
      </trkpt>
      <trkpt lat="44.51374" lon="5.63492">
        <ele>1010.7</ele>
        <time>2022-10-28T11:39:31Z</time>
      </trkpt>
      <trkpt lat="44.51374" lon="5.63494">
        <ele>1010.8</ele>
        <time>2022-10-28T11:39:33Z</time>
      </trkpt>
      <trkpt lat="44.51375" lon="5.63497">
        <ele>1011</ele>
        <time>2022-10-28T11:39:34Z</time>
      </trkpt>
      <trkpt lat="44.51375" lon="5.63499">
        <ele>1011.1</ele>
        <time>2022-10-28T11:39:35Z</time>
      </trkpt>
      <trkpt lat="44.51376" lon="5.63501">
        <ele>1011.2</ele>
        <time>2022-10-28T11:39:36Z</time>
      </trkpt>
      <trkpt lat="44.51376" lon="5.63503">
        <ele>1011.3</ele>
        <time>2022-10-28T11:39:37Z</time>
      </trkpt>
      <trkpt lat="44.51376" lon="5.63506">
        <ele>1011.5</ele>
        <time>2022-10-28T11:39:39Z</time>
      </trkpt>
      <trkpt lat="44.51376" lon="5.63508">
        <ele>1011.6</ele>
        <time>2022-10-28T11:39:40Z</time>
      </trkpt>
      <trkpt lat="44.51376" lon="5.63512">
        <ele>1011.9</ele>
        <time>2022-10-28T11:39:41Z</time>
      </trkpt>
      <trkpt lat="44.51376" lon="5.63514">
        <ele>1012</ele>
        <time>2022-10-28T11:39:42Z</time>
      </trkpt>
      <trkpt lat="44.51376" lon="5.63516">
        <ele>1012.1</ele>
        <time>2022-10-28T11:39:43Z</time>
      </trkpt>
      <trkpt lat="44.51376" lon="5.63519">
        <ele>1012.3</ele>
        <time>2022-10-28T11:39:44Z</time>
      </trkpt>
      <trkpt lat="44.51376" lon="5.6352">
        <ele>1012.4</ele>
        <time>2022-10-28T11:39:45Z</time>
      </trkpt>
      <trkpt lat="44.51376" lon="5.63523">
        <ele>1012.6</ele>
        <time>2022-10-28T11:39:46Z</time>
      </trkpt>
      <trkpt lat="44.51376" lon="5.63527">
        <ele>1012.8</ele>
        <time>2022-10-28T11:39:48Z</time>
      </trkpt>
      <trkpt lat="44.51376" lon="5.63528">
        <ele>1012.9</ele>
        <time>2022-10-28T11:39:49Z</time>
      </trkpt>
      <trkpt lat="44.51376" lon="5.63531">
        <ele>1013.1</ele>
        <time>2022-10-28T11:39:50Z</time>
      </trkpt>
      <trkpt lat="44.51376" lon="5.63533">
        <ele>1013.2</ele>
        <time>2022-10-28T11:39:51Z</time>
      </trkpt>
      <trkpt lat="44.51377" lon="5.63535">
        <ele>1013.3</ele>
        <time>2022-10-28T11:39:53Z</time>
      </trkpt>
      <trkpt lat="44.51377" lon="5.63537">
        <ele>1013.5</ele>
        <time>2022-10-28T11:39:54Z</time>
      </trkpt>
      <trkpt lat="44.51378" lon="5.63539">
        <ele>1013.6</ele>
        <time>2022-10-28T11:39:55Z</time>
      </trkpt>
      <trkpt lat="44.51378" lon="5.63541">
        <ele>1013.8</ele>
        <time>2022-10-28T11:39:56Z</time>
      </trkpt>
      <trkpt lat="44.51378" lon="5.63544">
        <ele>1013.9</ele>
        <time>2022-10-28T11:39:57Z</time>
      </trkpt>
      <trkpt lat="44.51379" lon="5.63546">
        <ele>1014</ele>
        <time>2022-10-28T11:39:58Z</time>
      </trkpt>
      <trkpt lat="44.51379" lon="5.63549">
        <ele>1014.2</ele>
        <time>2022-10-28T11:39:59Z</time>
      </trkpt>
      <trkpt lat="44.5138" lon="5.63553">
        <ele>1014.3</ele>
        <time>2022-10-28T11:40:01Z</time>
      </trkpt>
      <trkpt lat="44.51381" lon="5.63556">
        <ele>1014.5</ele>
        <time>2022-10-28T11:40:02Z</time>
      </trkpt>
      <trkpt lat="44.51382" lon="5.63561">
        <ele>1014.7</ele>
        <time>2022-10-28T11:40:03Z</time>
      </trkpt>
      <trkpt lat="44.51383" lon="5.63563">
        <ele>1014.8</ele>
        <time>2022-10-28T11:40:04Z</time>
      </trkpt>
      <trkpt lat="44.51384" lon="5.63567">
        <ele>1015</ele>
        <time>2022-10-28T11:40:06Z</time>
      </trkpt>
      <trkpt lat="44.51384" lon="5.63571">
        <ele>1015.1</ele>
        <time>2022-10-28T11:40:07Z</time>
      </trkpt>
      <trkpt lat="44.51386" lon="5.63574">
        <ele>1015.2</ele>
        <time>2022-10-28T11:40:08Z</time>
      </trkpt>
      <trkpt lat="44.51386" lon="5.63577">
        <ele>1015.3</ele>
        <time>2022-10-28T11:40:09Z</time>
      </trkpt>
      <trkpt lat="44.51388" lon="5.63582">
        <ele>1015.6</ele>
        <time>2022-10-28T11:40:11Z</time>
      </trkpt>
      <trkpt lat="44.51389" lon="5.63584">
        <ele>1015.6</ele>
        <time>2022-10-28T11:40:12Z</time>
      </trkpt>
      <trkpt lat="44.5139" lon="5.63587">
        <ele>1015.7</ele>
        <time>2022-10-28T11:40:13Z</time>
      </trkpt>
      <trkpt lat="44.51391" lon="5.63589">
        <ele>1015.8</ele>
        <time>2022-10-28T11:40:14Z</time>
      </trkpt>
      <trkpt lat="44.51392" lon="5.63592">
        <ele>1015.9</ele>
        <time>2022-10-28T11:40:16Z</time>
      </trkpt>
      <trkpt lat="44.51395" lon="5.63595">
        <ele>1016.1</ele>
        <time>2022-10-28T11:40:17Z</time>
      </trkpt>
      <trkpt lat="44.51395" lon="5.63597">
        <ele>1016.2</ele>
        <time>2022-10-28T11:40:18Z</time>
      </trkpt>
      <trkpt lat="44.51397" lon="5.63601">
        <ele>1016.3</ele>
        <time>2022-10-28T11:40:19Z</time>
      </trkpt>
      <trkpt lat="44.51397" lon="5.63602">
        <ele>1016.4</ele>
        <time>2022-10-28T11:40:20Z</time>
      </trkpt>
      <trkpt lat="44.51398" lon="5.63604">
        <ele>1016.5</ele>
        <time>2022-10-28T11:40:21Z</time>
      </trkpt>
      <trkpt lat="44.514" lon="5.63607">
        <ele>1016.7</ele>
        <time>2022-10-28T11:40:23Z</time>
      </trkpt>
      <trkpt lat="44.51401" lon="5.63611">
        <ele>1016.8</ele>
        <time>2022-10-28T11:40:24Z</time>
      </trkpt>
      <trkpt lat="44.51403" lon="5.63614">
        <ele>1017</ele>
        <time>2022-10-28T11:40:25Z</time>
      </trkpt>
      <trkpt lat="44.51403" lon="5.63615">
        <ele>1017.1</ele>
        <time>2022-10-28T11:40:26Z</time>
      </trkpt>
      <trkpt lat="44.51405" lon="5.63619">
        <ele>1017.4</ele>
        <time>2022-10-28T11:40:27Z</time>
      </trkpt>
      <trkpt lat="44.51406" lon="5.6362">
        <ele>1017.5</ele>
        <time>2022-10-28T11:40:29Z</time>
      </trkpt>
      <trkpt lat="44.51407" lon="5.63622">
        <ele>1017.6</ele>
        <time>2022-10-28T11:40:30Z</time>
      </trkpt>
      <trkpt lat="44.51408" lon="5.63623">
        <ele>1017.7</ele>
        <time>2022-10-28T11:40:31Z</time>
      </trkpt>
      <trkpt lat="44.51409" lon="5.63626">
        <ele>1017.9</ele>
        <time>2022-10-28T11:40:32Z</time>
      </trkpt>
      <trkpt lat="44.5141" lon="5.63628">
        <ele>1018</ele>
        <time>2022-10-28T11:40:33Z</time>
      </trkpt>
      <trkpt lat="44.5141" lon="5.6363">
        <ele>1018.1</ele>
        <time>2022-10-28T11:40:34Z</time>
      </trkpt>
      <trkpt lat="44.51411" lon="5.63632">
        <ele>1018.3</ele>
        <time>2022-10-28T11:40:35Z</time>
      </trkpt>
      <trkpt lat="44.51412" lon="5.63634">
        <ele>1018.4</ele>
        <time>2022-10-28T11:40:36Z</time>
      </trkpt>
      <trkpt lat="44.51412" lon="5.63636">
        <ele>1018.5</ele>
        <time>2022-10-28T11:40:37Z</time>
      </trkpt>
      <trkpt lat="44.51413" lon="5.6364">
        <ele>1018.8</ele>
        <time>2022-10-28T11:40:38Z</time>
      </trkpt>
      <trkpt lat="44.51413" lon="5.63641">
        <ele>1018.9</ele>
        <time>2022-10-28T11:40:39Z</time>
      </trkpt>
      <trkpt lat="44.51414" lon="5.63646">
        <ele>1019.2</ele>
        <time>2022-10-28T11:40:41Z</time>
      </trkpt>
      <trkpt lat="44.51414" lon="5.63648">
        <ele>1019.3</ele>
        <time>2022-10-28T11:40:42Z</time>
      </trkpt>
      <trkpt lat="44.51414" lon="5.63649">
        <ele>1019.4</ele>
        <time>2022-10-28T11:40:44Z</time>
      </trkpt>
      <trkpt lat="44.51414" lon="5.63652">
        <ele>1019.6</ele>
        <time>2022-10-28T11:40:45Z</time>
      </trkpt>
      <trkpt lat="44.51414" lon="5.63654">
        <ele>1019.7</ele>
        <time>2022-10-28T11:40:46Z</time>
      </trkpt>
      <trkpt lat="44.51414" lon="5.63657">
        <ele>1019.9</ele>
        <time>2022-10-28T11:40:47Z</time>
      </trkpt>
      <trkpt lat="44.51414" lon="5.63659">
        <ele>1020</ele>
        <time>2022-10-28T11:40:48Z</time>
      </trkpt>
      <trkpt lat="44.51414" lon="5.63661">
        <ele>1020.2</ele>
        <time>2022-10-28T11:40:49Z</time>
      </trkpt>
      <trkpt lat="44.51414" lon="5.63666">
        <ele>1020.5</ele>
        <time>2022-10-28T11:40:51Z</time>
      </trkpt>
      <trkpt lat="44.51414" lon="5.63667">
        <ele>1020.6</ele>
        <time>2022-10-28T11:40:52Z</time>
      </trkpt>
      <trkpt lat="44.51413" lon="5.6367">
        <ele>1020.7</ele>
        <time>2022-10-28T11:40:53Z</time>
      </trkpt>
      <trkpt lat="44.51413" lon="5.63672">
        <ele>1020.8</ele>
        <time>2022-10-28T11:40:54Z</time>
      </trkpt>
      <trkpt lat="44.51413" lon="5.63675">
        <ele>1021</ele>
        <time>2022-10-28T11:40:55Z</time>
      </trkpt>
      <trkpt lat="44.51412" lon="5.63678">
        <ele>1021.2</ele>
        <time>2022-10-28T11:40:57Z</time>
      </trkpt>
      <trkpt lat="44.51412" lon="5.63681">
        <ele>1021.4</ele>
        <time>2022-10-28T11:40:58Z</time>
      </trkpt>
      <trkpt lat="44.51412" lon="5.63683">
        <ele>1021.5</ele>
        <time>2022-10-28T11:40:59Z</time>
      </trkpt>
      <trkpt lat="44.51411" lon="5.63685">
        <ele>1021.6</ele>
        <time>2022-10-28T11:41:00Z</time>
      </trkpt>
      <trkpt lat="44.51412" lon="5.63687">
        <ele>1021.7</ele>
        <time>2022-10-28T11:41:01Z</time>
      </trkpt>
      <trkpt lat="44.51413" lon="5.63692">
        <ele>1022</ele>
        <time>2022-10-28T11:41:03Z</time>
      </trkpt>
      <trkpt lat="44.51412" lon="5.63694">
        <ele>1022.1</ele>
        <time>2022-10-28T11:41:04Z</time>
      </trkpt>
      <trkpt lat="44.51412" lon="5.63696">
        <ele>1022.2</ele>
        <time>2022-10-28T11:41:05Z</time>
      </trkpt>
      <trkpt lat="44.51412" lon="5.63698">
        <ele>1022.3</ele>
        <time>2022-10-28T11:41:06Z</time>
      </trkpt>
      <trkpt lat="44.51412" lon="5.63701">
        <ele>1022.5</ele>
        <time>2022-10-28T11:41:07Z</time>
      </trkpt>
      <trkpt lat="44.51412" lon="5.63702">
        <ele>1022.6</ele>
        <time>2022-10-28T11:41:08Z</time>
      </trkpt>
      <trkpt lat="44.51413" lon="5.63706">
        <ele>1022.8</ele>
        <time>2022-10-28T11:41:10Z</time>
      </trkpt>
      <trkpt lat="44.51414" lon="5.63707">
        <ele>1022.9</ele>
        <time>2022-10-28T11:41:11Z</time>
      </trkpt>
      <trkpt lat="44.51414" lon="5.6371">
        <ele>1023</ele>
        <time>2022-10-28T11:41:12Z</time>
      </trkpt>
      <trkpt lat="44.51414" lon="5.63712">
        <ele>1023.1</ele>
        <time>2022-10-28T11:41:13Z</time>
      </trkpt>
      <trkpt lat="44.51415" lon="5.63714">
        <ele>1023.2</ele>
        <time>2022-10-28T11:41:14Z</time>
      </trkpt>
      <trkpt lat="44.51415" lon="5.63717">
        <ele>1023.4</ele>
        <time>2022-10-28T11:41:15Z</time>
      </trkpt>
      <trkpt lat="44.51416" lon="5.63721">
        <ele>1023.6</ele>
        <time>2022-10-28T11:41:17Z</time>
      </trkpt>
      <trkpt lat="44.51417" lon="5.63723">
        <ele>1023.7</ele>
        <time>2022-10-28T11:41:18Z</time>
      </trkpt>
      <trkpt lat="44.51418" lon="5.63725">
        <ele>1023.9</ele>
        <time>2022-10-28T11:41:19Z</time>
      </trkpt>
      <trkpt lat="44.51418" lon="5.63726">
        <ele>1023.9</ele>
        <time>2022-10-28T11:41:20Z</time>
      </trkpt>
      <trkpt lat="44.51418" lon="5.63727">
        <ele>1024</ele>
        <time>2022-10-28T11:41:21Z</time>
      </trkpt>
      <trkpt lat="44.51419" lon="5.63729">
        <ele>1024.1</ele>
        <time>2022-10-28T11:41:22Z</time>
      </trkpt>
      <trkpt lat="44.5142" lon="5.6373">
        <ele>1024.2</ele>
        <time>2022-10-28T11:41:23Z</time>
      </trkpt>
      <trkpt lat="44.51421" lon="5.63732">
        <ele>1024.3</ele>
        <time>2022-10-28T11:41:24Z</time>
      </trkpt>
      <trkpt lat="44.51422" lon="5.63734">
        <ele>1024.5</ele>
        <time>2022-10-28T11:41:25Z</time>
      </trkpt>
      <trkpt lat="44.51423" lon="5.63736">
        <ele>1024.6</ele>
        <time>2022-10-28T11:41:26Z</time>
      </trkpt>
      <trkpt lat="44.51424" lon="5.63738">
        <ele>1024.7</ele>
        <time>2022-10-28T11:41:27Z</time>
      </trkpt>
      <trkpt lat="44.51425" lon="5.63742">
        <ele>1025.1</ele>
        <time>2022-10-28T11:41:29Z</time>
      </trkpt>
      <trkpt lat="44.51425" lon="5.63743">
        <ele>1025.2</ele>
        <time>2022-10-28T11:41:30Z</time>
      </trkpt>
      <trkpt lat="44.51426" lon="5.63746">
        <ele>1025.4</ele>
        <time>2022-10-28T11:41:31Z</time>
      </trkpt>
      <trkpt lat="44.51426" lon="5.63747">
        <ele>1025.4</ele>
        <time>2022-10-28T11:41:32Z</time>
      </trkpt>
      <trkpt lat="44.51427" lon="5.63749">
        <ele>1025.5</ele>
        <time>2022-10-28T11:41:33Z</time>
      </trkpt>
      <trkpt lat="44.51427" lon="5.6375">
        <ele>1025.7</ele>
        <time>2022-10-28T11:41:35Z</time>
      </trkpt>
      <trkpt lat="44.51427" lon="5.63753">
        <ele>1025.9</ele>
        <time>2022-10-28T11:41:36Z</time>
      </trkpt>
      <trkpt lat="44.51427" lon="5.63756">
        <ele>1026</ele>
        <time>2022-10-28T11:41:37Z</time>
      </trkpt>
      <trkpt lat="44.51427" lon="5.63757">
        <ele>1026.2</ele>
        <time>2022-10-28T11:41:38Z</time>
      </trkpt>
      <trkpt lat="44.51426" lon="5.6376">
        <ele>1026.3</ele>
        <time>2022-10-28T11:41:39Z</time>
      </trkpt>
      <trkpt lat="44.51426" lon="5.63762">
        <ele>1026.4</ele>
        <time>2022-10-28T11:41:40Z</time>
      </trkpt>
      <trkpt lat="44.51424" lon="5.63765">
        <ele>1026.7</ele>
        <time>2022-10-28T11:41:42Z</time>
      </trkpt>
      <trkpt lat="44.51423" lon="5.63766">
        <ele>1026.8</ele>
        <time>2022-10-28T11:41:43Z</time>
      </trkpt>
      <trkpt lat="44.51421" lon="5.63768">
        <ele>1027</ele>
        <time>2022-10-28T11:41:44Z</time>
      </trkpt>
      <trkpt lat="44.51421" lon="5.6377">
        <ele>1027.1</ele>
        <time>2022-10-28T11:41:45Z</time>
      </trkpt>
      <trkpt lat="44.51421" lon="5.63772">
        <ele>1027.3</ele>
        <time>2022-10-28T11:41:46Z</time>
      </trkpt>
      <trkpt lat="44.51421" lon="5.63774">
        <ele>1027.4</ele>
        <time>2022-10-28T11:41:47Z</time>
      </trkpt>
      <trkpt lat="44.51421" lon="5.63777">
        <ele>1027.5</ele>
        <time>2022-10-28T11:41:48Z</time>
      </trkpt>
      <trkpt lat="44.51421" lon="5.63778">
        <ele>1027.6</ele>
        <time>2022-10-28T11:41:49Z</time>
      </trkpt>
      <trkpt lat="44.5142" lon="5.6378">
        <ele>1027.7</ele>
        <time>2022-10-28T11:41:50Z</time>
      </trkpt>
      <trkpt lat="44.51419" lon="5.63782">
        <ele>1027.7</ele>
        <time>2022-10-28T11:41:51Z</time>
      </trkpt>
      <trkpt lat="44.51419" lon="5.63784">
        <ele>1027.8</ele>
        <time>2022-10-28T11:41:52Z</time>
      </trkpt>
      <trkpt lat="44.51419" lon="5.63785">
        <ele>1027.8</ele>
        <time>2022-10-28T11:41:53Z</time>
      </trkpt>
      <trkpt lat="44.51419" lon="5.63788">
        <ele>1027.9</ele>
        <time>2022-10-28T11:41:55Z</time>
      </trkpt>
      <trkpt lat="44.51419" lon="5.63791">
        <ele>1027.9</ele>
        <time>2022-10-28T11:41:56Z</time>
      </trkpt>
      <trkpt lat="44.51418" lon="5.63793">
        <ele>1028</ele>
        <time>2022-10-28T11:41:57Z</time>
      </trkpt>
      <trkpt lat="44.51417" lon="5.63796">
        <ele>1028.1</ele>
        <time>2022-10-28T11:41:58Z</time>
      </trkpt>
      <trkpt lat="44.51416" lon="5.63798">
        <ele>1028.1</ele>
        <time>2022-10-28T11:41:59Z</time>
      </trkpt>
      <trkpt lat="44.51414" lon="5.63803">
        <ele>1028.2</ele>
        <time>2022-10-28T11:42:01Z</time>
      </trkpt>
      <trkpt lat="44.51414" lon="5.63805">
        <ele>1028.3</ele>
        <time>2022-10-28T11:42:02Z</time>
      </trkpt>
      <trkpt lat="44.51413" lon="5.63807">
        <ele>1028.3</ele>
        <time>2022-10-28T11:42:03Z</time>
      </trkpt>
      <trkpt lat="44.51412" lon="5.63811">
        <ele>1028.4</ele>
        <time>2022-10-28T11:42:04Z</time>
      </trkpt>
      <trkpt lat="44.51412" lon="5.63812">
        <ele>1028.5</ele>
        <time>2022-10-28T11:42:05Z</time>
      </trkpt>
      <trkpt lat="44.5141" lon="5.63816">
        <ele>1028.5</ele>
        <time>2022-10-28T11:42:06Z</time>
      </trkpt>
      <trkpt lat="44.51409" lon="5.63817">
        <ele>1028.6</ele>
        <time>2022-10-28T11:42:07Z</time>
      </trkpt>
      <trkpt lat="44.51408" lon="5.6382">
        <ele>1028.6</ele>
        <time>2022-10-28T11:42:08Z</time>
      </trkpt>
      <trkpt lat="44.51407" lon="5.63821">
        <ele>1028.7</ele>
        <time>2022-10-28T11:42:09Z</time>
      </trkpt>
      <trkpt lat="44.51405" lon="5.63824">
        <ele>1028.8</ele>
        <time>2022-10-28T11:42:10Z</time>
      </trkpt>
      <trkpt lat="44.51405" lon="5.63826">
        <ele>1028.8</ele>
        <time>2022-10-28T11:42:11Z</time>
      </trkpt>
      <trkpt lat="44.51403" lon="5.63829">
        <ele>1028.9</ele>
        <time>2022-10-28T11:42:12Z</time>
      </trkpt>
      <trkpt lat="44.51402" lon="5.6383">
        <ele>1028.9</ele>
        <time>2022-10-28T11:42:13Z</time>
      </trkpt>
      <trkpt lat="44.514" lon="5.63834">
        <ele>1029</ele>
        <time>2022-10-28T11:42:14Z</time>
      </trkpt>
      <trkpt lat="44.51399" lon="5.63835">
        <ele>1029</ele>
        <time>2022-10-28T11:42:15Z</time>
      </trkpt>
      <trkpt lat="44.51397" lon="5.63838">
        <ele>1029.1</ele>
        <time>2022-10-28T11:42:16Z</time>
      </trkpt>
      <trkpt lat="44.51397" lon="5.63839">
        <ele>1029.1</ele>
        <time>2022-10-28T11:42:17Z</time>
      </trkpt>
      <trkpt lat="44.51395" lon="5.63842">
        <ele>1029.2</ele>
        <time>2022-10-28T11:42:18Z</time>
      </trkpt>
      <trkpt lat="44.51394" lon="5.63843">
        <ele>1029.3</ele>
        <time>2022-10-28T11:42:19Z</time>
      </trkpt>
      <trkpt lat="44.51393" lon="5.63844">
        <ele>1029.3</ele>
        <time>2022-10-28T11:42:20Z</time>
      </trkpt>
      <trkpt lat="44.51392" lon="5.63846">
        <ele>1029.3</ele>
        <time>2022-10-28T11:42:21Z</time>
      </trkpt>
      <trkpt lat="44.5139" lon="5.63847">
        <ele>1029.4</ele>
        <time>2022-10-28T11:42:22Z</time>
      </trkpt>
      <trkpt lat="44.51389" lon="5.63849">
        <ele>1029.4</ele>
        <time>2022-10-28T11:42:23Z</time>
      </trkpt>
      <trkpt lat="44.51389" lon="5.63849">
        <ele>1029.4</ele>
        <time>2022-10-28T11:42:24Z</time>
      </trkpt>
      <trkpt lat="44.51388" lon="5.63849">
        <ele>1029.5</ele>
        <time>2022-10-28T11:42:25Z</time>
      </trkpt>
      <trkpt lat="44.51388" lon="5.63848">
        <ele>1029.5</ele>
        <time>2022-10-28T11:42:26Z</time>
      </trkpt>
      <trkpt lat="44.51388" lon="5.63848">
        <ele>1029.5</ele>
        <time>2022-10-28T11:42:27Z</time>
      </trkpt>
      <trkpt lat="44.51388" lon="5.63848">
        <ele>1029.5</ele>
        <time>2022-10-28T11:42:28Z</time>
      </trkpt>
      <trkpt lat="44.51388" lon="5.63848">
        <ele>1029.5</ele>
        <time>2022-10-28T11:42:29Z</time>
      </trkpt>
      <trkpt lat="44.51388" lon="5.63848">
        <ele>1029.5</ele>
        <time>2022-10-28T11:42:30Z</time>
      </trkpt>
      <trkpt lat="44.51389" lon="5.63848">
        <ele>1029.5</ele>
        <time>2022-10-28T11:42:31Z</time>
      </trkpt>
      <trkpt lat="44.51389" lon="5.63848">
        <ele>1029.5</ele>
        <time>2022-10-28T11:42:32Z</time>
      </trkpt>
      <trkpt lat="44.51389" lon="5.63848">
        <ele>1029.5</ele>
        <time>2022-10-28T11:42:33Z</time>
      </trkpt>
      <trkpt lat="44.51389" lon="5.63848">
        <ele>1029.5</ele>
        <time>2022-10-28T11:42:34Z</time>
      </trkpt>
      <trkpt lat="44.51389" lon="5.63848">
        <ele>1029.5</ele>
        <time>2022-10-28T11:42:35Z</time>
      </trkpt>
      <trkpt lat="44.51389" lon="5.63848">
        <ele>1029.5</ele>
        <time>2022-10-28T11:42:36Z</time>
      </trkpt>
      <trkpt lat="44.51387" lon="5.63846">
        <ele>1029.6</ele>
        <time>2022-10-28T11:42:41Z</time>
      </trkpt>
      <trkpt lat="44.51386" lon="5.63845">
        <ele>1029.6</ele>
        <time>2022-10-28T11:42:42Z</time>
      </trkpt>
      <trkpt lat="44.51386" lon="5.63845">
        <ele>1029.6</ele>
        <time>2022-10-28T11:42:43Z</time>
      </trkpt>
      <trkpt lat="44.51386" lon="5.63844">
        <ele>1029.6</ele>
        <time>2022-10-28T11:42:44Z</time>
      </trkpt>
      <trkpt lat="44.51386" lon="5.63843">
        <ele>1029.7</ele>
        <time>2022-10-28T11:42:45Z</time>
      </trkpt>
      <trkpt lat="44.51386" lon="5.63842">
        <ele>1029.7</ele>
        <time>2022-10-28T11:42:46Z</time>
      </trkpt>
      <trkpt lat="44.51386" lon="5.63842">
        <ele>1029.7</ele>
        <time>2022-10-28T11:42:47Z</time>
      </trkpt>
      <trkpt lat="44.51386" lon="5.63842">
        <ele>1029.7</ele>
        <time>2022-10-28T11:42:48Z</time>
      </trkpt>
      <trkpt lat="44.51386" lon="5.63842">
        <ele>1029.7</ele>
        <time>2022-10-28T11:42:49Z</time>
      </trkpt>
      <trkpt lat="44.51386" lon="5.63841">
        <ele>1029.7</ele>
        <time>2022-10-28T11:42:50Z</time>
      </trkpt>
      <trkpt lat="44.51387" lon="5.63841">
        <ele>1029.7</ele>
        <time>2022-10-28T11:42:51Z</time>
      </trkpt>
      <trkpt lat="44.51387" lon="5.63841">
        <ele>1029.7</ele>
        <time>2022-10-28T11:42:52Z</time>
      </trkpt>
      <trkpt lat="44.51387" lon="5.63841">
        <ele>1029.7</ele>
        <time>2022-10-28T11:42:53Z</time>
      </trkpt>
      <trkpt lat="44.51387" lon="5.63841">
        <ele>1029.7</ele>
        <time>2022-10-28T11:42:54Z</time>
      </trkpt>
      <trkpt lat="44.51387" lon="5.6384">
        <ele>1029.7</ele>
        <time>2022-10-28T11:42:55Z</time>
      </trkpt>
      <trkpt lat="44.51388" lon="5.63846">
        <ele>1029.8</ele>
        <time>2022-10-28T11:45:18Z</time>
      </trkpt>
      <trkpt lat="44.51388" lon="5.63847">
        <ele>1029.9</ele>
        <time>2022-10-28T11:45:19Z</time>
      </trkpt>
      <trkpt lat="44.51388" lon="5.63849">
        <ele>1029.9</ele>
        <time>2022-10-28T11:45:20Z</time>
      </trkpt>
      <trkpt lat="44.51388" lon="5.6385">
        <ele>1029.9</ele>
        <time>2022-10-28T11:45:21Z</time>
      </trkpt>
      <trkpt lat="44.51389" lon="5.63852">
        <ele>1030</ele>
        <time>2022-10-28T11:45:22Z</time>
      </trkpt>
      <trkpt lat="44.5139" lon="5.63853">
        <ele>1030</ele>
        <time>2022-10-28T11:45:23Z</time>
      </trkpt>
      <trkpt lat="44.5139" lon="5.63854">
        <ele>1030</ele>
        <time>2022-10-28T11:45:24Z</time>
      </trkpt>
      <trkpt lat="44.51391" lon="5.63855">
        <ele>1030.1</ele>
        <time>2022-10-28T11:45:25Z</time>
      </trkpt>
      <trkpt lat="44.51391" lon="5.63855">
        <ele>1030.1</ele>
        <time>2022-10-28T11:45:26Z</time>
      </trkpt>
      <trkpt lat="44.51391" lon="5.63855">
        <ele>1030.1</ele>
        <time>2022-10-28T11:45:27Z</time>
      </trkpt>
      <trkpt lat="44.51391" lon="5.63854">
        <ele>1030.1</ele>
        <time>2022-10-28T11:45:28Z</time>
      </trkpt>
      <trkpt lat="44.51391" lon="5.63854">
        <ele>1030.1</ele>
        <time>2022-10-28T11:45:29Z</time>
      </trkpt>
      <trkpt lat="44.51391" lon="5.63854">
        <ele>1030.1</ele>
        <time>2022-10-28T11:45:30Z</time>
      </trkpt>
      <trkpt lat="44.51391" lon="5.63854">
        <ele>1030.1</ele>
        <time>2022-10-28T11:45:31Z</time>
      </trkpt>
      <trkpt lat="44.51391" lon="5.63854">
        <ele>1030.1</ele>
        <time>2022-10-28T11:45:32Z</time>
      </trkpt>
      <trkpt lat="44.51391" lon="5.63854">
        <ele>1030.1</ele>
        <time>2022-10-28T11:45:33Z</time>
      </trkpt>
      <trkpt lat="44.51391" lon="5.63854">
        <ele>1030.1</ele>
        <time>2022-10-28T11:45:34Z</time>
      </trkpt>
      <trkpt lat="44.51391" lon="5.63854">
        <ele>1030.1</ele>
        <time>2022-10-28T11:45:35Z</time>
      </trkpt>
      <trkpt lat="44.51391" lon="5.63854">
        <ele>1030.1</ele>
        <time>2022-10-28T11:45:36Z</time>
      </trkpt>
      <trkpt lat="44.51391" lon="5.63854">
        <ele>1030.1</ele>
        <time>2022-10-28T11:45:37Z</time>
      </trkpt>
      <trkpt lat="44.51393" lon="5.63854">
        <ele>1030.1</ele>
        <time>2022-10-28T11:46:07Z</time>
      </trkpt>
      <trkpt lat="44.51394" lon="5.63854">
        <ele>1030.2</ele>
        <time>2022-10-28T11:46:08Z</time>
      </trkpt>
      <trkpt lat="44.51394" lon="5.63854">
        <ele>1030.2</ele>
        <time>2022-10-28T11:46:09Z</time>
      </trkpt>
      <trkpt lat="44.51395" lon="5.63854">
        <ele>1030.2</ele>
        <time>2022-10-28T11:46:10Z</time>
      </trkpt>
      <trkpt lat="44.51395" lon="5.63855">
        <ele>1030.2</ele>
        <time>2022-10-28T11:46:11Z</time>
      </trkpt>
      <trkpt lat="44.51395" lon="5.63855">
        <ele>1030.2</ele>
        <time>2022-10-28T11:46:12Z</time>
      </trkpt>
      <trkpt lat="44.51395" lon="5.63856">
        <ele>1030.2</ele>
        <time>2022-10-28T11:46:13Z</time>
      </trkpt>
      <trkpt lat="44.51395" lon="5.63857">
        <ele>1030.3</ele>
        <time>2022-10-28T11:46:14Z</time>
      </trkpt>
      <trkpt lat="44.51394" lon="5.63858">
        <ele>1030.3</ele>
        <time>2022-10-28T11:46:15Z</time>
      </trkpt>
      <trkpt lat="44.51394" lon="5.63859">
        <ele>1030.3</ele>
        <time>2022-10-28T11:46:16Z</time>
      </trkpt>
      <trkpt lat="44.51394" lon="5.63859">
        <ele>1030.3</ele>
        <time>2022-10-28T11:46:17Z</time>
      </trkpt>
      <trkpt lat="44.51394" lon="5.63859">
        <ele>1030.3</ele>
        <time>2022-10-28T11:46:18Z</time>
      </trkpt>
      <trkpt lat="44.51394" lon="5.6386">
        <ele>1030.3</ele>
        <time>2022-10-28T11:46:19Z</time>
      </trkpt>
      <trkpt lat="44.51394" lon="5.6386">
        <ele>1030.3</ele>
        <time>2022-10-28T11:46:20Z</time>
      </trkpt>
      <trkpt lat="44.51397" lon="5.63854">
        <ele>1030.5</ele>
        <time>2022-10-28T11:46:42Z</time>
      </trkpt>
      <trkpt lat="44.51397" lon="5.63855">
        <ele>1030.5</ele>
        <time>2022-10-28T11:46:43Z</time>
      </trkpt>
      <trkpt lat="44.51397" lon="5.63855">
        <ele>1030.5</ele>
        <time>2022-10-28T11:46:44Z</time>
      </trkpt>
      <trkpt lat="44.51397" lon="5.63855">
        <ele>1030.5</ele>
        <time>2022-10-28T11:46:45Z</time>
      </trkpt>
      <trkpt lat="44.51397" lon="5.63855">
        <ele>1030.5</ele>
        <time>2022-10-28T11:46:46Z</time>
      </trkpt>
      <trkpt lat="44.51397" lon="5.63855">
        <ele>1030.5</ele>
        <time>2022-10-28T11:46:47Z</time>
      </trkpt>
      <trkpt lat="44.51397" lon="5.63855">
        <ele>1030.5</ele>
        <time>2022-10-28T11:46:48Z</time>
      </trkpt>
      <trkpt lat="44.51397" lon="5.63855">
        <ele>1030.5</ele>
        <time>2022-10-28T11:46:49Z</time>
      </trkpt>
      <trkpt lat="44.51397" lon="5.63855">
        <ele>1030.5</ele>
        <time>2022-10-28T11:46:50Z</time>
      </trkpt>
      <trkpt lat="44.51397" lon="5.63855">
        <ele>1030.5</ele>
        <time>2022-10-28T11:46:51Z</time>
      </trkpt>
      <trkpt lat="44.51397" lon="5.63855">
        <ele>1030.5</ele>
        <time>2022-10-28T11:46:52Z</time>
      </trkpt>
      <trkpt lat="44.51397" lon="5.63855">
        <ele>1030.5</ele>
        <time>2022-10-28T11:46:53Z</time>
      </trkpt>
      <trkpt lat="44.51397" lon="5.63855">
        <ele>1030.5</ele>
        <time>2022-10-28T11:46:54Z</time>
      </trkpt>
      <trkpt lat="44.51394" lon="5.63854">
        <ele>1030.6</ele>
        <time>2022-10-28T11:47:22Z</time>
      </trkpt>
      <trkpt lat="44.51393" lon="5.63853">
        <ele>1030.6</ele>
        <time>2022-10-28T11:47:23Z</time>
      </trkpt>
      <trkpt lat="44.51392" lon="5.63853">
        <ele>1030.6</ele>
        <time>2022-10-28T11:47:24Z</time>
      </trkpt>
      <trkpt lat="44.51391" lon="5.63853">
        <ele>1030.6</ele>
        <time>2022-10-28T11:47:25Z</time>
      </trkpt>
      <trkpt lat="44.5139" lon="5.63852">
        <ele>1030.7</ele>
        <time>2022-10-28T11:47:26Z</time>
      </trkpt>
      <trkpt lat="44.51389" lon="5.63851">
        <ele>1030.7</ele>
        <time>2022-10-28T11:47:27Z</time>
      </trkpt>
      <trkpt lat="44.51389" lon="5.63849">
        <ele>1030.7</ele>
        <time>2022-10-28T11:47:28Z</time>
      </trkpt>
      <trkpt lat="44.51389" lon="5.63848">
        <ele>1030.7</ele>
        <time>2022-10-28T11:47:29Z</time>
      </trkpt>
      <trkpt lat="44.51388" lon="5.63847">
        <ele>1030.8</ele>
        <time>2022-10-28T11:47:30Z</time>
      </trkpt>
      <trkpt lat="44.51388" lon="5.63846">
        <ele>1030.8</ele>
        <time>2022-10-28T11:47:31Z</time>
      </trkpt>
      <trkpt lat="44.51388" lon="5.63845">
        <ele>1030.8</ele>
        <time>2022-10-28T11:47:32Z</time>
      </trkpt>
      <trkpt lat="44.51387" lon="5.63844">
        <ele>1030.8</ele>
        <time>2022-10-28T11:47:33Z</time>
      </trkpt>
      <trkpt lat="44.51387" lon="5.63843">
        <ele>1030.8</ele>
        <time>2022-10-28T11:47:34Z</time>
      </trkpt>
      <trkpt lat="44.51387" lon="5.63842">
        <ele>1030.9</ele>
        <time>2022-10-28T11:47:35Z</time>
      </trkpt>
      <trkpt lat="44.51386" lon="5.63841">
        <ele>1030.9</ele>
        <time>2022-10-28T11:47:36Z</time>
      </trkpt>
      <trkpt lat="44.51386" lon="5.63841">
        <ele>1030.9</ele>
        <time>2022-10-28T11:47:37Z</time>
      </trkpt>
      <trkpt lat="44.51386" lon="5.63841">
        <ele>1030.9</ele>
        <time>2022-10-28T11:47:38Z</time>
      </trkpt>
      <trkpt lat="44.51386" lon="5.63841">
        <ele>1030.9</ele>
        <time>2022-10-28T11:47:39Z</time>
      </trkpt>
      <trkpt lat="44.51386" lon="5.6384">
        <ele>1030.9</ele>
        <time>2022-10-28T11:47:40Z</time>
      </trkpt>
      <trkpt lat="44.51386" lon="5.6384">
        <ele>1030.9</ele>
        <time>2022-10-28T11:47:41Z</time>
      </trkpt>
      <trkpt lat="44.51385" lon="5.63839">
        <ele>1030.9</ele>
        <time>2022-10-28T11:47:42Z</time>
      </trkpt>
      <trkpt lat="44.51385" lon="5.63838">
        <ele>1030.9</ele>
        <time>2022-10-28T11:47:43Z</time>
      </trkpt>
      <trkpt lat="44.51384" lon="5.63837">
        <ele>1030.9</ele>
        <time>2022-10-28T11:47:44Z</time>
      </trkpt>
      <trkpt lat="44.51384" lon="5.63836">
        <ele>1030.9</ele>
        <time>2022-10-28T11:47:45Z</time>
      </trkpt>
      <trkpt lat="44.51384" lon="5.63835">
        <ele>1031</ele>
        <time>2022-10-28T11:47:46Z</time>
      </trkpt>
      <trkpt lat="44.51383" lon="5.63835">
        <ele>1031</ele>
        <time>2022-10-28T11:47:47Z</time>
      </trkpt>
      <trkpt lat="44.51384" lon="5.63835">
        <ele>1031</ele>
        <time>2022-10-28T11:47:48Z</time>
      </trkpt>
      <trkpt lat="44.51384" lon="5.63834">
        <ele>1031</ele>
        <time>2022-10-28T11:47:49Z</time>
      </trkpt>
      <trkpt lat="44.51384" lon="5.63834">
        <ele>1031</ele>
        <time>2022-10-28T11:47:50Z</time>
      </trkpt>
      <trkpt lat="44.51384" lon="5.63834">
        <ele>1031</ele>
        <time>2022-10-28T11:47:51Z</time>
      </trkpt>
      <trkpt lat="44.51385" lon="5.63834">
        <ele>1031</ele>
        <time>2022-10-28T11:47:52Z</time>
      </trkpt>
      <trkpt lat="44.51385" lon="5.63834">
        <ele>1031</ele>
        <time>2022-10-28T11:47:53Z</time>
      </trkpt>
      <trkpt lat="44.51385" lon="5.63834">
        <ele>1031</ele>
        <time>2022-10-28T11:47:54Z</time>
      </trkpt>
      <trkpt lat="44.51385" lon="5.63834">
        <ele>1031</ele>
        <time>2022-10-28T11:47:55Z</time>
      </trkpt>
      <trkpt lat="44.51385" lon="5.63834">
        <ele>1031</ele>
        <time>2022-10-28T11:47:56Z</time>
      </trkpt>
      <trkpt lat="44.51385" lon="5.63834">
        <ele>1031</ele>
        <time>2022-10-28T11:47:57Z</time>
      </trkpt>
      <trkpt lat="44.51385" lon="5.63834">
        <ele>1031</ele>
        <time>2022-10-28T11:47:58Z</time>
      </trkpt>
      <trkpt lat="44.51385" lon="5.63835">
        <ele>1031</ele>
        <time>2022-10-28T11:47:59Z</time>
      </trkpt>
      <trkpt lat="44.51385" lon="5.63835">
        <ele>1031</ele>
        <time>2022-10-28T11:48:00Z</time>
      </trkpt>
      <trkpt lat="44.51385" lon="5.63836">
        <ele>1031</ele>
        <time>2022-10-28T11:48:01Z</time>
      </trkpt>
      <trkpt lat="44.51386" lon="5.63837">
        <ele>1031</ele>
        <time>2022-10-28T11:48:02Z</time>
      </trkpt>
      <trkpt lat="44.51386" lon="5.63837">
        <ele>1031</ele>
        <time>2022-10-28T11:48:03Z</time>
      </trkpt>
      <trkpt lat="44.51386" lon="5.63838">
        <ele>1031</ele>
        <time>2022-10-28T11:48:04Z</time>
      </trkpt>
      <trkpt lat="44.51386" lon="5.63839">
        <ele>1031.1</ele>
        <time>2022-10-28T11:48:05Z</time>
      </trkpt>
      <trkpt lat="44.51387" lon="5.63839">
        <ele>1031.1</ele>
        <time>2022-10-28T11:48:06Z</time>
      </trkpt>
      <trkpt lat="44.51387" lon="5.6384">
        <ele>1031.1</ele>
        <time>2022-10-28T11:48:07Z</time>
      </trkpt>
      <trkpt lat="44.51387" lon="5.6384">
        <ele>1031.1</ele>
        <time>2022-10-28T11:48:08Z</time>
      </trkpt>
      <trkpt lat="44.51387" lon="5.6384">
        <ele>1031.1</ele>
        <time>2022-10-28T11:48:09Z</time>
      </trkpt>
      <trkpt lat="44.51387" lon="5.6384">
        <ele>1031.1</ele>
        <time>2022-10-28T11:48:10Z</time>
      </trkpt>
      <trkpt lat="44.51387" lon="5.6384">
        <ele>1031.1</ele>
        <time>2022-10-28T11:48:11Z</time>
      </trkpt>
      <trkpt lat="44.51387" lon="5.6384">
        <ele>1031.1</ele>
        <time>2022-10-28T11:48:12Z</time>
      </trkpt>
      <trkpt lat="44.51387" lon="5.6384">
        <ele>1031.1</ele>
        <time>2022-10-28T11:48:13Z</time>
      </trkpt>
      <trkpt lat="44.51387" lon="5.6384">
        <ele>1031.1</ele>
        <time>2022-10-28T11:48:14Z</time>
      </trkpt>
      <trkpt lat="44.51387" lon="5.6384">
        <ele>1031.1</ele>
        <time>2022-10-28T11:48:15Z</time>
      </trkpt>
      <trkpt lat="44.51387" lon="5.6384">
        <ele>1031.1</ele>
        <time>2022-10-28T11:48:16Z</time>
      </trkpt>
      <trkpt lat="44.51387" lon="5.6384">
        <ele>1031.1</ele>
        <time>2022-10-28T11:48:17Z</time>
      </trkpt>
      <trkpt lat="44.51387" lon="5.6384">
        <ele>1031.1</ele>
        <time>2022-10-28T11:48:18Z</time>
      </trkpt>
      <trkpt lat="44.51386" lon="5.63841">
        <ele>1031.1</ele>
        <time>2022-10-28T11:59:59Z</time>
      </trkpt>
      <trkpt lat="44.51385" lon="5.63842">
        <ele>1031.1</ele>
        <time>2022-10-28T12:00:00Z</time>
      </trkpt>
      <trkpt lat="44.51386" lon="5.63842">
        <ele>1031.1</ele>
        <time>2022-10-28T12:00:01Z</time>
      </trkpt>
      <trkpt lat="44.51386" lon="5.63843">
        <ele>1031.1</ele>
        <time>2022-10-28T12:00:02Z</time>
      </trkpt>
      <trkpt lat="44.51386" lon="5.63843">
        <ele>1031.1</ele>
        <time>2022-10-28T12:00:03Z</time>
      </trkpt>
      <trkpt lat="44.51386" lon="5.63843">
        <ele>1031.1</ele>
        <time>2022-10-28T12:00:04Z</time>
      </trkpt>
      <trkpt lat="44.51386" lon="5.63843">
        <ele>1031.1</ele>
        <time>2022-10-28T12:00:05Z</time>
      </trkpt>
      <trkpt lat="44.51386" lon="5.63843">
        <ele>1031.1</ele>
        <time>2022-10-28T12:00:06Z</time>
      </trkpt>
      <trkpt lat="44.51386" lon="5.63844">
        <ele>1031.1</ele>
        <time>2022-10-28T12:00:07Z</time>
      </trkpt>
      <trkpt lat="44.51386" lon="5.63844">
        <ele>1031.1</ele>
        <time>2022-10-28T12:00:08Z</time>
      </trkpt>
      <trkpt lat="44.51386" lon="5.63844">
        <ele>1031.1</ele>
        <time>2022-10-28T12:00:09Z</time>
      </trkpt>
      <trkpt lat="44.51386" lon="5.63844">
        <ele>1031.1</ele>
        <time>2022-10-28T12:00:10Z</time>
      </trkpt>
      <trkpt lat="44.51386" lon="5.63844">
        <ele>1031.1</ele>
        <time>2022-10-28T12:00:11Z</time>
      </trkpt>
      <trkpt lat="44.51386" lon="5.63844">
        <ele>1031.1</ele>
        <time>2022-10-28T12:00:12Z</time>
      </trkpt>
      <trkpt lat="44.51387" lon="5.63844">
        <ele>1031.2</ele>
        <time>2022-10-28T12:02:42Z</time>
      </trkpt>
      <trkpt lat="44.51388" lon="5.63844">
        <ele>1031.2</ele>
        <time>2022-10-28T12:02:44Z</time>
      </trkpt>
      <trkpt lat="44.51388" lon="5.63845">
        <ele>1031.2</ele>
        <time>2022-10-28T12:02:45Z</time>
      </trkpt>
      <trkpt lat="44.51387" lon="5.63846">
        <ele>1031.2</ele>
        <time>2022-10-28T12:02:46Z</time>
      </trkpt>
      <trkpt lat="44.51387" lon="5.63846">
        <ele>1031.2</ele>
        <time>2022-10-28T12:02:47Z</time>
      </trkpt>
      <trkpt lat="44.51386" lon="5.63846">
        <ele>1031.2</ele>
        <time>2022-10-28T12:02:48Z</time>
      </trkpt>
      <trkpt lat="44.51386" lon="5.63846">
        <ele>1031.2</ele>
        <time>2022-10-28T12:02:49Z</time>
      </trkpt>
      <trkpt lat="44.51385" lon="5.63846">
        <ele>1031.2</ele>
        <time>2022-10-28T12:02:50Z</time>
      </trkpt>
      <trkpt lat="44.51385" lon="5.63846">
        <ele>1031.2</ele>
        <time>2022-10-28T12:02:51Z</time>
      </trkpt>
      <trkpt lat="44.51385" lon="5.63846">
        <ele>1031.2</ele>
        <time>2022-10-28T12:02:52Z</time>
      </trkpt>
      <trkpt lat="44.51385" lon="5.63847">
        <ele>1031.2</ele>
        <time>2022-10-28T12:02:53Z</time>
      </trkpt>
      <trkpt lat="44.51385" lon="5.63847">
        <ele>1031.2</ele>
        <time>2022-10-28T12:02:54Z</time>
      </trkpt>
      <trkpt lat="44.51385" lon="5.63847">
        <ele>1031.2</ele>
        <time>2022-10-28T12:02:55Z</time>
      </trkpt>
      <trkpt lat="44.51384" lon="5.63847">
        <ele>1031.2</ele>
        <time>2022-10-28T12:02:56Z</time>
      </trkpt>
      <trkpt lat="44.51382" lon="5.6385">
        <ele>1031.2</ele>
        <time>2022-10-28T12:03:01Z</time>
      </trkpt>
      <trkpt lat="44.51381" lon="5.6385">
        <ele>1031.2</ele>
        <time>2022-10-28T12:03:02Z</time>
      </trkpt>
      <trkpt lat="44.51377" lon="5.63851">
        <ele>1031.2</ele>
        <time>2022-10-28T12:03:04Z</time>
      </trkpt>
      <trkpt lat="44.51374" lon="5.63847">
        <ele>1031.3</ele>
        <time>2022-10-28T12:03:05Z</time>
      </trkpt>
      <trkpt lat="44.51372" lon="5.63844">
        <ele>1031.3</ele>
        <time>2022-10-28T12:03:06Z</time>
      </trkpt>
      <trkpt lat="44.5137" lon="5.63843">
        <ele>1031.3</ele>
        <time>2022-10-28T12:03:07Z</time>
      </trkpt>
      <trkpt lat="44.51368" lon="5.63842">
        <ele>1031.3</ele>
        <time>2022-10-28T12:03:09Z</time>
      </trkpt>
      <trkpt lat="44.51364" lon="5.63841">
        <ele>1031.3</ele>
        <time>2022-10-28T12:03:10Z</time>
      </trkpt>
      <trkpt lat="44.51363" lon="5.6384">
        <ele>1031.3</ele>
        <time>2022-10-28T12:03:11Z</time>
      </trkpt>
      <trkpt lat="44.5136" lon="5.6384">
        <ele>1031.3</ele>
        <time>2022-10-28T12:03:12Z</time>
      </trkpt>
      <trkpt lat="44.51359" lon="5.6384">
        <ele>1031.3</ele>
        <time>2022-10-28T12:03:13Z</time>
      </trkpt>
      <trkpt lat="44.51355" lon="5.6384">
        <ele>1031.3</ele>
        <time>2022-10-28T12:03:15Z</time>
      </trkpt>
      <trkpt lat="44.51351" lon="5.63839">
        <ele>1031.3</ele>
        <time>2022-10-28T12:03:16Z</time>
      </trkpt>
      <trkpt lat="44.51347" lon="5.63838">
        <ele>1031.3</ele>
        <time>2022-10-28T12:03:18Z</time>
      </trkpt>
      <trkpt lat="44.51344" lon="5.63838">
        <ele>1031.3</ele>
        <time>2022-10-28T12:03:19Z</time>
      </trkpt>
      <trkpt lat="44.51341" lon="5.63838">
        <ele>1031.3</ele>
        <time>2022-10-28T12:03:20Z</time>
      </trkpt>
      <trkpt lat="44.51337" lon="5.63837">
        <ele>1031.3</ele>
        <time>2022-10-28T12:03:21Z</time>
      </trkpt>
      <trkpt lat="44.51334" lon="5.63837">
        <ele>1031.3</ele>
        <time>2022-10-28T12:03:22Z</time>
      </trkpt>
      <trkpt lat="44.51331" lon="5.63836">
        <ele>1031.3</ele>
        <time>2022-10-28T12:03:23Z</time>
      </trkpt>
      <trkpt lat="44.51326" lon="5.63835">
        <ele>1031.2</ele>
        <time>2022-10-28T12:03:25Z</time>
      </trkpt>
      <trkpt lat="44.51322" lon="5.63835">
        <ele>1031.1</ele>
        <time>2022-10-28T12:03:26Z</time>
      </trkpt>
      <trkpt lat="44.51318" lon="5.63834">
        <ele>1031</ele>
        <time>2022-10-28T12:03:27Z</time>
      </trkpt>
      <trkpt lat="44.51314" lon="5.63833">
        <ele>1030.9</ele>
        <time>2022-10-28T12:03:29Z</time>
      </trkpt>
      <trkpt lat="44.51307" lon="5.6383">
        <ele>1030.7</ele>
        <time>2022-10-28T12:03:30Z</time>
      </trkpt>
      <trkpt lat="44.51303" lon="5.63828">
        <ele>1030.6</ele>
        <time>2022-10-28T12:03:31Z</time>
      </trkpt>
      <trkpt lat="44.51299" lon="5.63825">
        <ele>1030.5</ele>
        <time>2022-10-28T12:03:32Z</time>
      </trkpt>
      <trkpt lat="44.51294" lon="5.63821">
        <ele>1030.3</ele>
        <time>2022-10-28T12:03:33Z</time>
      </trkpt>
      <trkpt lat="44.51289" lon="5.63817">
        <ele>1030.2</ele>
        <time>2022-10-28T12:03:34Z</time>
      </trkpt>
      <trkpt lat="44.51284" lon="5.63813">
        <ele>1030.1</ele>
        <time>2022-10-28T12:03:35Z</time>
      </trkpt>
      <trkpt lat="44.51279" lon="5.6381">
        <ele>1030</ele>
        <time>2022-10-28T12:03:36Z</time>
      </trkpt>
      <trkpt lat="44.51274" lon="5.63805">
        <ele>1029.9</ele>
        <time>2022-10-28T12:03:37Z</time>
      </trkpt>
      <trkpt lat="44.5127" lon="5.638">
        <ele>1030</ele>
        <time>2022-10-28T12:03:38Z</time>
      </trkpt>
      <trkpt lat="44.51266" lon="5.63794">
        <ele>1030.1</ele>
        <time>2022-10-28T12:03:39Z</time>
      </trkpt>
      <trkpt lat="44.51263" lon="5.6379">
        <ele>1030.2</ele>
        <time>2022-10-28T12:03:40Z</time>
      </trkpt>
      <trkpt lat="44.51261" lon="5.63785">
        <ele>1030.3</ele>
        <time>2022-10-28T12:03:41Z</time>
      </trkpt>
      <trkpt lat="44.5126" lon="5.63781">
        <ele>1030.4</ele>
        <time>2022-10-28T12:03:42Z</time>
      </trkpt>
      <trkpt lat="44.51258" lon="5.63777">
        <ele>1030.6</ele>
        <time>2022-10-28T12:03:43Z</time>
      </trkpt>
      <trkpt lat="44.51257" lon="5.63772">
        <ele>1030.8</ele>
        <time>2022-10-28T12:03:44Z</time>
      </trkpt>
      <trkpt lat="44.51257" lon="5.6377">
        <ele>1030.8</ele>
        <time>2022-10-28T12:03:45Z</time>
      </trkpt>
      <trkpt lat="44.51256" lon="5.63765">
        <ele>1031</ele>
        <time>2022-10-28T12:03:46Z</time>
      </trkpt>
      <trkpt lat="44.51255" lon="5.63759">
        <ele>1031.2</ele>
        <time>2022-10-28T12:03:47Z</time>
      </trkpt>
      <trkpt lat="44.51254" lon="5.63758">
        <ele>1031.3</ele>
        <time>2022-10-28T12:03:48Z</time>
      </trkpt>
      <trkpt lat="44.51253" lon="5.63753">
        <ele>1031.5</ele>
        <time>2022-10-28T12:03:49Z</time>
      </trkpt>
      <trkpt lat="44.51253" lon="5.6375">
        <ele>1031.6</ele>
        <time>2022-10-28T12:03:50Z</time>
      </trkpt>
      <trkpt lat="44.51252" lon="5.63747">
        <ele>1031.8</ele>
        <time>2022-10-28T12:03:51Z</time>
      </trkpt>
      <trkpt lat="44.51252" lon="5.63741">
        <ele>1032</ele>
        <time>2022-10-28T12:03:52Z</time>
      </trkpt>
      <trkpt lat="44.51251" lon="5.6374">
        <ele>1032</ele>
        <time>2022-10-28T12:03:53Z</time>
      </trkpt>
      <trkpt lat="44.5125" lon="5.63735">
        <ele>1032.2</ele>
        <time>2022-10-28T12:03:54Z</time>
      </trkpt>
      <trkpt lat="44.5125" lon="5.63734">
        <ele>1032.3</ele>
        <time>2022-10-28T12:03:55Z</time>
      </trkpt>
      <trkpt lat="44.51249" lon="5.63733">
        <ele>1032.4</ele>
        <time>2022-10-28T12:03:56Z</time>
      </trkpt>
      <trkpt lat="44.51249" lon="5.6373">
        <ele>1032.5</ele>
        <time>2022-10-28T12:03:57Z</time>
      </trkpt>
      <trkpt lat="44.51248" lon="5.63725">
        <ele>1032.7</ele>
        <time>2022-10-28T12:03:58Z</time>
      </trkpt>
      <trkpt lat="44.51248" lon="5.63724">
        <ele>1032.7</ele>
        <time>2022-10-28T12:03:59Z</time>
      </trkpt>
      <trkpt lat="44.51248" lon="5.63721">
        <ele>1032.9</ele>
        <time>2022-10-28T12:04:00Z</time>
      </trkpt>
      <trkpt lat="44.51247" lon="5.6372">
        <ele>1032.9</ele>
        <time>2022-10-28T12:04:01Z</time>
      </trkpt>
      <trkpt lat="44.51246" lon="5.63717">
        <ele>1033</ele>
        <time>2022-10-28T12:04:02Z</time>
      </trkpt>
      <trkpt lat="44.51246" lon="5.63714">
        <ele>1033.2</ele>
        <time>2022-10-28T12:04:04Z</time>
      </trkpt>
      <trkpt lat="44.51244" lon="5.6371">
        <ele>1033.4</ele>
        <time>2022-10-28T12:04:05Z</time>
      </trkpt>
      <trkpt lat="44.51244" lon="5.63708">
        <ele>1033.4</ele>
        <time>2022-10-28T12:04:06Z</time>
      </trkpt>
      <trkpt lat="44.51244" lon="5.63704">
        <ele>1033.6</ele>
        <time>2022-10-28T12:04:08Z</time>
      </trkpt>
      <trkpt lat="44.51244" lon="5.63703">
        <ele>1033.7</ele>
        <time>2022-10-28T12:04:09Z</time>
      </trkpt>
      <trkpt lat="44.51243" lon="5.63699">
        <ele>1033.8</ele>
        <time>2022-10-28T12:04:10Z</time>
      </trkpt>
      <trkpt lat="44.51243" lon="5.63698">
        <ele>1033.9</ele>
        <time>2022-10-28T12:04:11Z</time>
      </trkpt>
      <trkpt lat="44.51243" lon="5.63695">
        <ele>1034</ele>
        <time>2022-10-28T12:04:12Z</time>
      </trkpt>
      <trkpt lat="44.51242" lon="5.63693">
        <ele>1034.1</ele>
        <time>2022-10-28T12:04:13Z</time>
      </trkpt>
      <trkpt lat="44.51242" lon="5.63691">
        <ele>1034.2</ele>
        <time>2022-10-28T12:04:14Z</time>
      </trkpt>
      <trkpt lat="44.51242" lon="5.63689">
        <ele>1034.3</ele>
        <time>2022-10-28T12:04:15Z</time>
      </trkpt>
      <trkpt lat="44.51242" lon="5.63687">
        <ele>1034.4</ele>
        <time>2022-10-28T12:04:16Z</time>
      </trkpt>
      <trkpt lat="44.51242" lon="5.63683">
        <ele>1034.6</ele>
        <time>2022-10-28T12:04:18Z</time>
      </trkpt>
      <trkpt lat="44.51242" lon="5.63679">
        <ele>1034.8</ele>
        <time>2022-10-28T12:04:19Z</time>
      </trkpt>
      <trkpt lat="44.51242" lon="5.63677">
        <ele>1034.8</ele>
        <time>2022-10-28T12:04:20Z</time>
      </trkpt>
      <trkpt lat="44.51242" lon="5.63675">
        <ele>1034.9</ele>
        <time>2022-10-28T12:04:21Z</time>
      </trkpt>
      <trkpt lat="44.51241" lon="5.63673">
        <ele>1035</ele>
        <time>2022-10-28T12:04:22Z</time>
      </trkpt>
      <trkpt lat="44.51241" lon="5.63671">
        <ele>1035.1</ele>
        <time>2022-10-28T12:04:23Z</time>
      </trkpt>
      <trkpt lat="44.51241" lon="5.63669">
        <ele>1035.2</ele>
        <time>2022-10-28T12:04:24Z</time>
      </trkpt>
      <trkpt lat="44.51241" lon="5.63667">
        <ele>1035.3</ele>
        <time>2022-10-28T12:04:25Z</time>
      </trkpt>
      <trkpt lat="44.5124" lon="5.63665">
        <ele>1035.4</ele>
        <time>2022-10-28T12:04:26Z</time>
      </trkpt>
      <trkpt lat="44.5124" lon="5.63663">
        <ele>1035.5</ele>
        <time>2022-10-28T12:04:27Z</time>
      </trkpt>
      <trkpt lat="44.51239" lon="5.63661">
        <ele>1035.6</ele>
        <time>2022-10-28T12:04:28Z</time>
      </trkpt>
      <trkpt lat="44.51238" lon="5.63659">
        <ele>1035.8</ele>
        <time>2022-10-28T12:04:30Z</time>
      </trkpt>
      <trkpt lat="44.51237" lon="5.63656">
        <ele>1035.9</ele>
        <time>2022-10-28T12:04:31Z</time>
      </trkpt>
      <trkpt lat="44.51236" lon="5.63654">
        <ele>1036</ele>
        <time>2022-10-28T12:04:32Z</time>
      </trkpt>
      <trkpt lat="44.51236" lon="5.63653">
        <ele>1036</ele>
        <time>2022-10-28T12:04:33Z</time>
      </trkpt>
      <trkpt lat="44.51234" lon="5.63652">
        <ele>1036.2</ele>
        <time>2022-10-28T12:04:34Z</time>
      </trkpt>
      <trkpt lat="44.51233" lon="5.63649">
        <ele>1036.3</ele>
        <time>2022-10-28T12:04:36Z</time>
      </trkpt>
      <trkpt lat="44.51232" lon="5.63645">
        <ele>1036.5</ele>
        <time>2022-10-28T12:04:37Z</time>
      </trkpt>
      <trkpt lat="44.51231" lon="5.63644">
        <ele>1036.6</ele>
        <time>2022-10-28T12:04:38Z</time>
      </trkpt>
      <trkpt lat="44.51231" lon="5.63643">
        <ele>1036.6</ele>
        <time>2022-10-28T12:04:39Z</time>
      </trkpt>
      <trkpt lat="44.51228" lon="5.63639">
        <ele>1036.9</ele>
        <time>2022-10-28T12:04:41Z</time>
      </trkpt>
      <trkpt lat="44.51227" lon="5.63637">
        <ele>1037</ele>
        <time>2022-10-28T12:04:42Z</time>
      </trkpt>
      <trkpt lat="44.51226" lon="5.63636">
        <ele>1037.1</ele>
        <time>2022-10-28T12:04:44Z</time>
      </trkpt>
      <trkpt lat="44.51224" lon="5.63633">
        <ele>1037.3</ele>
        <time>2022-10-28T12:04:45Z</time>
      </trkpt>
      <trkpt lat="44.51223" lon="5.63632">
        <ele>1037.3</ele>
        <time>2022-10-28T12:04:46Z</time>
      </trkpt>
      <trkpt lat="44.51222" lon="5.63629">
        <ele>1037.5</ele>
        <time>2022-10-28T12:04:48Z</time>
      </trkpt>
      <trkpt lat="44.51221" lon="5.63627">
        <ele>1037.6</ele>
        <time>2022-10-28T12:04:49Z</time>
      </trkpt>
      <trkpt lat="44.5122" lon="5.63625">
        <ele>1037.7</ele>
        <time>2022-10-28T12:04:50Z</time>
      </trkpt>
      <trkpt lat="44.51218" lon="5.63622">
        <ele>1037.9</ele>
        <time>2022-10-28T12:04:52Z</time>
      </trkpt>
      <trkpt lat="44.51217" lon="5.63621">
        <ele>1038</ele>
        <time>2022-10-28T12:04:53Z</time>
      </trkpt>
      <trkpt lat="44.51216" lon="5.63619">
        <ele>1038.1</ele>
        <time>2022-10-28T12:04:54Z</time>
      </trkpt>
      <trkpt lat="44.51215" lon="5.63617">
        <ele>1038.2</ele>
        <time>2022-10-28T12:04:55Z</time>
      </trkpt>
      <trkpt lat="44.51214" lon="5.63613">
        <ele>1038.4</ele>
        <time>2022-10-28T12:04:56Z</time>
      </trkpt>
      <trkpt lat="44.51213" lon="5.63613">
        <ele>1038.4</ele>
        <time>2022-10-28T12:04:57Z</time>
      </trkpt>
      <trkpt lat="44.51211" lon="5.63608">
        <ele>1038.7</ele>
        <time>2022-10-28T12:04:59Z</time>
      </trkpt>
      <trkpt lat="44.5121" lon="5.63606">
        <ele>1038.8</ele>
        <time>2022-10-28T12:05:00Z</time>
      </trkpt>
      <trkpt lat="44.5121" lon="5.63605">
        <ele>1038.9</ele>
        <time>2022-10-28T12:05:01Z</time>
      </trkpt>
      <trkpt lat="44.51207" lon="5.63601">
        <ele>1039.1</ele>
        <time>2022-10-28T12:05:03Z</time>
      </trkpt>
      <trkpt lat="44.51207" lon="5.636">
        <ele>1039.2</ele>
        <time>2022-10-28T12:05:04Z</time>
      </trkpt>
      <trkpt lat="44.51205" lon="5.63597">
        <ele>1039.4</ele>
        <time>2022-10-28T12:05:05Z</time>
      </trkpt>
      <trkpt lat="44.51205" lon="5.63595">
        <ele>1039.5</ele>
        <time>2022-10-28T12:05:06Z</time>
      </trkpt>
      <trkpt lat="44.51204" lon="5.63593">
        <ele>1039.6</ele>
        <time>2022-10-28T12:05:07Z</time>
      </trkpt>
      <trkpt lat="44.51202" lon="5.6359">
        <ele>1039.8</ele>
        <time>2022-10-28T12:05:09Z</time>
      </trkpt>
      <trkpt lat="44.51201" lon="5.63587">
        <ele>1040</ele>
        <time>2022-10-28T12:05:10Z</time>
      </trkpt>
      <trkpt lat="44.512" lon="5.63586">
        <ele>1040</ele>
        <time>2022-10-28T12:05:11Z</time>
      </trkpt>
      <trkpt lat="44.51199" lon="5.63585">
        <ele>1040.1</ele>
        <time>2022-10-28T12:05:12Z</time>
      </trkpt>
      <trkpt lat="44.51197" lon="5.63583">
        <ele>1040.3</ele>
        <time>2022-10-28T12:05:14Z</time>
      </trkpt>
      <trkpt lat="44.51197" lon="5.63581">
        <ele>1040.4</ele>
        <time>2022-10-28T12:05:15Z</time>
      </trkpt>
      <trkpt lat="44.51195" lon="5.6358">
        <ele>1040.5</ele>
        <time>2022-10-28T12:05:16Z</time>
      </trkpt>
      <trkpt lat="44.51193" lon="5.63579">
        <ele>1040.7</ele>
        <time>2022-10-28T12:05:17Z</time>
      </trkpt>
      <trkpt lat="44.51193" lon="5.63578">
        <ele>1040.7</ele>
        <time>2022-10-28T12:05:18Z</time>
      </trkpt>
      <trkpt lat="44.51191" lon="5.63579">
        <ele>1040.8</ele>
        <time>2022-10-28T12:05:19Z</time>
      </trkpt>
      <trkpt lat="44.51191" lon="5.63578">
        <ele>1040.9</ele>
        <time>2022-10-28T12:05:20Z</time>
      </trkpt>
      <trkpt lat="44.51191" lon="5.63578">
        <ele>1040.9</ele>
        <time>2022-10-28T12:05:21Z</time>
      </trkpt>
      <trkpt lat="44.51191" lon="5.63578">
        <ele>1040.9</ele>
        <time>2022-10-28T12:05:22Z</time>
      </trkpt>
      <trkpt lat="44.51191" lon="5.63578">
        <ele>1040.9</ele>
        <time>2022-10-28T12:05:23Z</time>
      </trkpt>
      <trkpt lat="44.51191" lon="5.63578">
        <ele>1040.9</ele>
        <time>2022-10-28T12:05:24Z</time>
      </trkpt>
      <trkpt lat="44.51191" lon="5.63578">
        <ele>1041</ele>
        <time>2022-10-28T12:05:25Z</time>
      </trkpt>
      <trkpt lat="44.51191" lon="5.63578">
        <ele>1041</ele>
        <time>2022-10-28T12:05:26Z</time>
      </trkpt>
      <trkpt lat="44.51191" lon="5.63578">
        <ele>1041</ele>
        <time>2022-10-28T12:05:27Z</time>
      </trkpt>
      <trkpt lat="44.51191" lon="5.63579">
        <ele>1041</ele>
        <time>2022-10-28T12:05:28Z</time>
      </trkpt>
      <trkpt lat="44.51191" lon="5.63579">
        <ele>1041</ele>
        <time>2022-10-28T12:05:29Z</time>
      </trkpt>
      <trkpt lat="44.51191" lon="5.63579">
        <ele>1041</ele>
        <time>2022-10-28T12:05:30Z</time>
      </trkpt>
      <trkpt lat="44.5119" lon="5.63579">
        <ele>1041.1</ele>
        <time>2022-10-28T12:05:58Z</time>
      </trkpt>
      <trkpt lat="44.51189" lon="5.6358">
        <ele>1041.2</ele>
        <time>2022-10-28T12:05:59Z</time>
      </trkpt>
      <trkpt lat="44.5119" lon="5.6358">
        <ele>1041.2</ele>
        <time>2022-10-28T12:06:00Z</time>
      </trkpt>
      <trkpt lat="44.5119" lon="5.6358">
        <ele>1041.3</ele>
        <time>2022-10-28T12:06:01Z</time>
      </trkpt>
      <trkpt lat="44.51188" lon="5.63583">
        <ele>1041.5</ele>
        <time>2022-10-28T12:06:03Z</time>
      </trkpt>
      <trkpt lat="44.51185" lon="5.63586">
        <ele>1041.7</ele>
        <time>2022-10-28T12:06:04Z</time>
      </trkpt>
      <trkpt lat="44.51183" lon="5.63592">
        <ele>1042.1</ele>
        <time>2022-10-28T12:06:06Z</time>
      </trkpt>
      <trkpt lat="44.51182" lon="5.63597">
        <ele>1042.3</ele>
        <time>2022-10-28T12:06:07Z</time>
      </trkpt>
      <trkpt lat="44.51181" lon="5.63599">
        <ele>1042.4</ele>
        <time>2022-10-28T12:06:08Z</time>
      </trkpt>
      <trkpt lat="44.5118" lon="5.63602">
        <ele>1042.6</ele>
        <time>2022-10-28T12:06:09Z</time>
      </trkpt>
      <trkpt lat="44.5118" lon="5.63604">
        <ele>1042.7</ele>
        <time>2022-10-28T12:06:10Z</time>
      </trkpt>
      <trkpt lat="44.51179" lon="5.63606">
        <ele>1042.8</ele>
        <time>2022-10-28T12:06:11Z</time>
      </trkpt>
      <trkpt lat="44.51179" lon="5.63608">
        <ele>1042.9</ele>
        <time>2022-10-28T12:06:12Z</time>
      </trkpt>
      <trkpt lat="44.51179" lon="5.63611">
        <ele>1043</ele>
        <time>2022-10-28T12:06:13Z</time>
      </trkpt>
      <trkpt lat="44.51177" lon="5.63613">
        <ele>1043.2</ele>
        <time>2022-10-28T12:06:15Z</time>
      </trkpt>
      <trkpt lat="44.51176" lon="5.63617">
        <ele>1043.3</ele>
        <time>2022-10-28T12:06:16Z</time>
      </trkpt>
      <trkpt lat="44.51175" lon="5.63618">
        <ele>1043.4</ele>
        <time>2022-10-28T12:06:17Z</time>
      </trkpt>
      <trkpt lat="44.51175" lon="5.63622">
        <ele>1043.6</ele>
        <time>2022-10-28T12:06:18Z</time>
      </trkpt>
      <trkpt lat="44.51174" lon="5.63623">
        <ele>1043.6</ele>
        <time>2022-10-28T12:06:19Z</time>
      </trkpt>
      <trkpt lat="44.51174" lon="5.63625">
        <ele>1043.7</ele>
        <time>2022-10-28T12:06:21Z</time>
      </trkpt>
      <trkpt lat="44.51173" lon="5.63628">
        <ele>1043.9</ele>
        <time>2022-10-28T12:06:22Z</time>
      </trkpt>
      <trkpt lat="44.5117" lon="5.63631">
        <ele>1044.1</ele>
        <time>2022-10-28T12:06:23Z</time>
      </trkpt>
      <trkpt lat="44.5117" lon="5.63632">
        <ele>1044.1</ele>
        <time>2022-10-28T12:06:24Z</time>
      </trkpt>
      <trkpt lat="44.51169" lon="5.63635">
        <ele>1044.3</ele>
        <time>2022-10-28T12:06:25Z</time>
      </trkpt>
      <trkpt lat="44.51168" lon="5.63637">
        <ele>1044.4</ele>
        <time>2022-10-28T12:06:26Z</time>
      </trkpt>
      <trkpt lat="44.51166" lon="5.63641">
        <ele>1044.6</ele>
        <time>2022-10-28T12:06:28Z</time>
      </trkpt>
      <trkpt lat="44.51165" lon="5.63642">
        <ele>1044.7</ele>
        <time>2022-10-28T12:06:29Z</time>
      </trkpt>
      <trkpt lat="44.51163" lon="5.63645">
        <ele>1044.9</ele>
        <time>2022-10-28T12:06:30Z</time>
      </trkpt>
      <trkpt lat="44.51162" lon="5.63646">
        <ele>1045</ele>
        <time>2022-10-28T12:06:31Z</time>
      </trkpt>
      <trkpt lat="44.51161" lon="5.63648">
        <ele>1045.1</ele>
        <time>2022-10-28T12:06:32Z</time>
      </trkpt>
      <trkpt lat="44.51159" lon="5.63649">
        <ele>1045.2</ele>
        <time>2022-10-28T12:06:33Z</time>
      </trkpt>
      <trkpt lat="44.51157" lon="5.63652">
        <ele>1045.4</ele>
        <time>2022-10-28T12:06:35Z</time>
      </trkpt>
      <trkpt lat="44.51157" lon="5.63653">
        <ele>1045.4</ele>
        <time>2022-10-28T12:06:36Z</time>
      </trkpt>
      <trkpt lat="44.51155" lon="5.63656">
        <ele>1045.6</ele>
        <time>2022-10-28T12:06:37Z</time>
      </trkpt>
      <trkpt lat="44.51154" lon="5.63656">
        <ele>1045.7</ele>
        <time>2022-10-28T12:06:38Z</time>
      </trkpt>
      <trkpt lat="44.51152" lon="5.63657">
        <ele>1045.8</ele>
        <time>2022-10-28T12:06:39Z</time>
      </trkpt>
      <trkpt lat="44.5115" lon="5.63659">
        <ele>1046</ele>
        <time>2022-10-28T12:06:41Z</time>
      </trkpt>
      <trkpt lat="44.51147" lon="5.63662">
        <ele>1046.2</ele>
        <time>2022-10-28T12:06:42Z</time>
      </trkpt>
      <trkpt lat="44.51146" lon="5.63662">
        <ele>1046.3</ele>
        <time>2022-10-28T12:06:43Z</time>
      </trkpt>
      <trkpt lat="44.51142" lon="5.63664">
        <ele>1046.6</ele>
        <time>2022-10-28T12:06:45Z</time>
      </trkpt>
      <trkpt lat="44.51141" lon="5.63665">
        <ele>1046.7</ele>
        <time>2022-10-28T12:06:46Z</time>
      </trkpt>
      <trkpt lat="44.51139" lon="5.63665">
        <ele>1046.8</ele>
        <time>2022-10-28T12:06:47Z</time>
      </trkpt>
      <trkpt lat="44.51136" lon="5.63666">
        <ele>1047.1</ele>
        <time>2022-10-28T12:06:49Z</time>
      </trkpt>
      <trkpt lat="44.51135" lon="5.63666">
        <ele>1047.1</ele>
        <time>2022-10-28T12:06:50Z</time>
      </trkpt>
      <trkpt lat="44.51133" lon="5.63665">
        <ele>1047.3</ele>
        <time>2022-10-28T12:06:51Z</time>
      </trkpt>
      <trkpt lat="44.51131" lon="5.63664">
        <ele>1047.5</ele>
        <time>2022-10-28T12:06:53Z</time>
      </trkpt>
      <trkpt lat="44.51128" lon="5.63663">
        <ele>1047.7</ele>
        <time>2022-10-28T12:06:54Z</time>
      </trkpt>
      <trkpt lat="44.51127" lon="5.63663">
        <ele>1047.8</ele>
        <time>2022-10-28T12:06:55Z</time>
      </trkpt>
      <trkpt lat="44.51126" lon="5.63661">
        <ele>1047.9</ele>
        <time>2022-10-28T12:06:56Z</time>
      </trkpt>
      <trkpt lat="44.51125" lon="5.6366">
        <ele>1048</ele>
        <time>2022-10-28T12:06:57Z</time>
      </trkpt>
      <trkpt lat="44.51123" lon="5.63658">
        <ele>1048.3</ele>
        <time>2022-10-28T12:06:58Z</time>
      </trkpt>
      <trkpt lat="44.51121" lon="5.63656">
        <ele>1048.4</ele>
        <time>2022-10-28T12:07:00Z</time>
      </trkpt>
      <trkpt lat="44.5112" lon="5.63655">
        <ele>1048.5</ele>
        <time>2022-10-28T12:07:01Z</time>
      </trkpt>
      <trkpt lat="44.51119" lon="5.63654">
        <ele>1048.6</ele>
        <time>2022-10-28T12:07:02Z</time>
      </trkpt>
      <trkpt lat="44.51118" lon="5.63653">
        <ele>1048.7</ele>
        <time>2022-10-28T12:07:03Z</time>
      </trkpt>
      <trkpt lat="44.51117" lon="5.63652">
        <ele>1048.8</ele>
        <time>2022-10-28T12:07:05Z</time>
      </trkpt>
      <trkpt lat="44.51115" lon="5.63651">
        <ele>1049</ele>
        <time>2022-10-28T12:07:06Z</time>
      </trkpt>
      <trkpt lat="44.51114" lon="5.6365">
        <ele>1049.1</ele>
        <time>2022-10-28T12:07:07Z</time>
      </trkpt>
      <trkpt lat="44.51113" lon="5.63649">
        <ele>1049.2</ele>
        <time>2022-10-28T12:07:08Z</time>
      </trkpt>
      <trkpt lat="44.51111" lon="5.63648">
        <ele>1049.3</ele>
        <time>2022-10-28T12:07:10Z</time>
      </trkpt>
      <trkpt lat="44.5111" lon="5.63646">
        <ele>1049.5</ele>
        <time>2022-10-28T12:07:11Z</time>
      </trkpt>
      <trkpt lat="44.51108" lon="5.63645">
        <ele>1049.6</ele>
        <time>2022-10-28T12:07:12Z</time>
      </trkpt>
      <trkpt lat="44.51107" lon="5.63644">
        <ele>1049.7</ele>
        <time>2022-10-28T12:07:13Z</time>
      </trkpt>
      <trkpt lat="44.51106" lon="5.63643">
        <ele>1049.8</ele>
        <time>2022-10-28T12:07:14Z</time>
      </trkpt>
      <trkpt lat="44.51103" lon="5.6364">
        <ele>1050.1</ele>
        <time>2022-10-28T12:07:16Z</time>
      </trkpt>
      <trkpt lat="44.51102" lon="5.63639">
        <ele>1050.2</ele>
        <time>2022-10-28T12:07:17Z</time>
      </trkpt>
      <trkpt lat="44.51101" lon="5.63638">
        <ele>1050.3</ele>
        <time>2022-10-28T12:07:18Z</time>
      </trkpt>
      <trkpt lat="44.511" lon="5.63637">
        <ele>1050.4</ele>
        <time>2022-10-28T12:07:19Z</time>
      </trkpt>
      <trkpt lat="44.51098" lon="5.63634">
        <ele>1050.6</ele>
        <time>2022-10-28T12:07:21Z</time>
      </trkpt>
      <trkpt lat="44.51097" lon="5.63633">
        <ele>1050.7</ele>
        <time>2022-10-28T12:07:22Z</time>
      </trkpt>
      <trkpt lat="44.51096" lon="5.63631">
        <ele>1050.9</ele>
        <time>2022-10-28T12:07:23Z</time>
      </trkpt>
      <trkpt lat="44.51095" lon="5.6363">
        <ele>1051</ele>
        <time>2022-10-28T12:07:24Z</time>
      </trkpt>
      <trkpt lat="44.51093" lon="5.63628">
        <ele>1051.1</ele>
        <time>2022-10-28T12:07:25Z</time>
      </trkpt>
      <trkpt lat="44.51091" lon="5.63626">
        <ele>1051.4</ele>
        <time>2022-10-28T12:07:26Z</time>
      </trkpt>
      <trkpt lat="44.51091" lon="5.63625">
        <ele>1051.4</ele>
        <time>2022-10-28T12:07:27Z</time>
      </trkpt>
      <trkpt lat="44.51087" lon="5.63622">
        <ele>1051.8</ele>
        <time>2022-10-28T12:07:29Z</time>
      </trkpt>
      <trkpt lat="44.51086" lon="5.6362">
        <ele>1051.9</ele>
        <time>2022-10-28T12:07:30Z</time>
      </trkpt>
      <trkpt lat="44.51085" lon="5.63619">
        <ele>1052</ele>
        <time>2022-10-28T12:07:31Z</time>
      </trkpt>
      <trkpt lat="44.51084" lon="5.63617">
        <ele>1052.2</ele>
        <time>2022-10-28T12:07:32Z</time>
      </trkpt>
      <trkpt lat="44.51083" lon="5.63616">
        <ele>1052.2</ele>
        <time>2022-10-28T12:07:33Z</time>
      </trkpt>
      <trkpt lat="44.51082" lon="5.63616">
        <ele>1052.3</ele>
        <time>2022-10-28T12:07:34Z</time>
      </trkpt>
      <trkpt lat="44.51081" lon="5.63614">
        <ele>1052.5</ele>
        <time>2022-10-28T12:07:35Z</time>
      </trkpt>
      <trkpt lat="44.5108" lon="5.63614">
        <ele>1052.6</ele>
        <time>2022-10-28T12:07:37Z</time>
      </trkpt>
      <trkpt lat="44.51079" lon="5.63613">
        <ele>1052.6</ele>
        <time>2022-10-28T12:07:38Z</time>
      </trkpt>
      <trkpt lat="44.51077" lon="5.63612">
        <ele>1052.8</ele>
        <time>2022-10-28T12:07:39Z</time>
      </trkpt>
      <trkpt lat="44.51076" lon="5.63611">
        <ele>1053</ele>
        <time>2022-10-28T12:07:40Z</time>
      </trkpt>
      <trkpt lat="44.51074" lon="5.63611">
        <ele>1053.1</ele>
        <time>2022-10-28T12:07:41Z</time>
      </trkpt>
      <trkpt lat="44.51071" lon="5.63609">
        <ele>1053.3</ele>
        <time>2022-10-28T12:07:43Z</time>
      </trkpt>
      <trkpt lat="44.51068" lon="5.63608">
        <ele>1053.6</ele>
        <time>2022-10-28T12:07:44Z</time>
      </trkpt>
      <trkpt lat="44.51067" lon="5.63607">
        <ele>1053.7</ele>
        <time>2022-10-28T12:07:45Z</time>
      </trkpt>
      <trkpt lat="44.51065" lon="5.63607">
        <ele>1053.8</ele>
        <time>2022-10-28T12:07:47Z</time>
      </trkpt>
      <trkpt lat="44.51064" lon="5.63607">
        <ele>1053.9</ele>
        <time>2022-10-28T12:07:48Z</time>
      </trkpt>
      <trkpt lat="44.51061" lon="5.63608">
        <ele>1054.2</ele>
        <time>2022-10-28T12:07:50Z</time>
      </trkpt>
      <trkpt lat="44.5106" lon="5.63608">
        <ele>1054.2</ele>
        <time>2022-10-28T12:07:51Z</time>
      </trkpt>
      <trkpt lat="44.51059" lon="5.63609">
        <ele>1054.4</ele>
        <time>2022-10-28T12:07:52Z</time>
      </trkpt>
      <trkpt lat="44.51057" lon="5.6361">
        <ele>1054.5</ele>
        <time>2022-10-28T12:07:53Z</time>
      </trkpt>
      <trkpt lat="44.51056" lon="5.63611">
        <ele>1054.6</ele>
        <time>2022-10-28T12:07:54Z</time>
      </trkpt>
      <trkpt lat="44.51054" lon="5.63611">
        <ele>1054.7</ele>
        <time>2022-10-28T12:07:56Z</time>
      </trkpt>
      <trkpt lat="44.51053" lon="5.63612">
        <ele>1054.9</ele>
        <time>2022-10-28T12:07:57Z</time>
      </trkpt>
      <trkpt lat="44.51051" lon="5.63613">
        <ele>1055</ele>
        <time>2022-10-28T12:07:58Z</time>
      </trkpt>
      <trkpt lat="44.5105" lon="5.63614">
        <ele>1055.1</ele>
        <time>2022-10-28T12:07:59Z</time>
      </trkpt>
      <trkpt lat="44.51048" lon="5.63614">
        <ele>1055.2</ele>
        <time>2022-10-28T12:08:00Z</time>
      </trkpt>
      <trkpt lat="44.51047" lon="5.63614">
        <ele>1055.4</ele>
        <time>2022-10-28T12:08:02Z</time>
      </trkpt>
      <trkpt lat="44.51045" lon="5.63614">
        <ele>1055.5</ele>
        <time>2022-10-28T12:08:03Z</time>
      </trkpt>
      <trkpt lat="44.51043" lon="5.63614">
        <ele>1055.7</ele>
        <time>2022-10-28T12:08:04Z</time>
      </trkpt>
      <trkpt lat="44.51042" lon="5.63614">
        <ele>1055.8</ele>
        <time>2022-10-28T12:08:05Z</time>
      </trkpt>
      <trkpt lat="44.5104" lon="5.63615">
        <ele>1055.9</ele>
        <time>2022-10-28T12:08:07Z</time>
      </trkpt>
      <trkpt lat="44.51039" lon="5.63614">
        <ele>1056.1</ele>
        <time>2022-10-28T12:08:08Z</time>
      </trkpt>
      <trkpt lat="44.51037" lon="5.63614">
        <ele>1056.2</ele>
        <time>2022-10-28T12:08:10Z</time>
      </trkpt>
      <trkpt lat="44.51036" lon="5.63612">
        <ele>1056.4</ele>
        <time>2022-10-28T12:08:11Z</time>
      </trkpt>
      <trkpt lat="44.51035" lon="5.63611">
        <ele>1056.5</ele>
        <time>2022-10-28T12:08:12Z</time>
      </trkpt>
      <trkpt lat="44.51034" lon="5.6361">
        <ele>1056.6</ele>
        <time>2022-10-28T12:08:13Z</time>
      </trkpt>
      <trkpt lat="44.51032" lon="5.63609">
        <ele>1056.8</ele>
        <time>2022-10-28T12:08:14Z</time>
      </trkpt>
      <trkpt lat="44.51031" lon="5.63607">
        <ele>1056.9</ele>
        <time>2022-10-28T12:08:15Z</time>
      </trkpt>
      <trkpt lat="44.51029" lon="5.63606">
        <ele>1057.1</ele>
        <time>2022-10-28T12:08:17Z</time>
      </trkpt>
      <trkpt lat="44.51028" lon="5.63605">
        <ele>1057.2</ele>
        <time>2022-10-28T12:08:18Z</time>
      </trkpt>
      <trkpt lat="44.51026" lon="5.63604">
        <ele>1057.3</ele>
        <time>2022-10-28T12:08:19Z</time>
      </trkpt>
      <trkpt lat="44.51025" lon="5.63604">
        <ele>1057.4</ele>
        <time>2022-10-28T12:08:20Z</time>
      </trkpt>
      <trkpt lat="44.51024" lon="5.63603">
        <ele>1057.6</ele>
        <time>2022-10-28T12:08:21Z</time>
      </trkpt>
      <trkpt lat="44.51023" lon="5.63603">
        <ele>1057.7</ele>
        <time>2022-10-28T12:08:22Z</time>
      </trkpt>
      <trkpt lat="44.51021" lon="5.63602">
        <ele>1057.8</ele>
        <time>2022-10-28T12:08:24Z</time>
      </trkpt>
      <trkpt lat="44.5102" lon="5.63601">
        <ele>1057.9</ele>
        <time>2022-10-28T12:08:25Z</time>
      </trkpt>
      <trkpt lat="44.51019" lon="5.63601">
        <ele>1058.1</ele>
        <time>2022-10-28T12:08:26Z</time>
      </trkpt>
      <trkpt lat="44.51017" lon="5.636">
        <ele>1058.2</ele>
        <time>2022-10-28T12:08:27Z</time>
      </trkpt>
      <trkpt lat="44.51016" lon="5.636">
        <ele>1058.3</ele>
        <time>2022-10-28T12:08:28Z</time>
      </trkpt>
      <trkpt lat="44.51015" lon="5.636">
        <ele>1058.4</ele>
        <time>2022-10-28T12:08:29Z</time>
      </trkpt>
      <trkpt lat="44.51013" lon="5.63599">
        <ele>1058.5</ele>
        <time>2022-10-28T12:08:31Z</time>
      </trkpt>
      <trkpt lat="44.51011" lon="5.63598">
        <ele>1058.7</ele>
        <time>2022-10-28T12:08:32Z</time>
      </trkpt>
      <trkpt lat="44.5101" lon="5.63598">
        <ele>1058.8</ele>
        <time>2022-10-28T12:08:33Z</time>
      </trkpt>
      <trkpt lat="44.51008" lon="5.63598">
        <ele>1058.9</ele>
        <time>2022-10-28T12:08:34Z</time>
      </trkpt>
      <trkpt lat="44.51007" lon="5.63598">
        <ele>1059.1</ele>
        <time>2022-10-28T12:08:35Z</time>
      </trkpt>
      <trkpt lat="44.51004" lon="5.63598">
        <ele>1059.3</ele>
        <time>2022-10-28T12:08:37Z</time>
      </trkpt>
      <trkpt lat="44.51003" lon="5.63598">
        <ele>1059.3</ele>
        <time>2022-10-28T12:08:38Z</time>
      </trkpt>
      <trkpt lat="44.51001" lon="5.63598">
        <ele>1059.5</ele>
        <time>2022-10-28T12:08:39Z</time>
      </trkpt>
      <trkpt lat="44.50999" lon="5.63598">
        <ele>1059.7</ele>
        <time>2022-10-28T12:08:41Z</time>
      </trkpt>
      <trkpt lat="44.50997" lon="5.63598">
        <ele>1059.8</ele>
        <time>2022-10-28T12:08:42Z</time>
      </trkpt>
      <trkpt lat="44.50996" lon="5.63598">
        <ele>1059.9</ele>
        <time>2022-10-28T12:08:43Z</time>
      </trkpt>
      <trkpt lat="44.50995" lon="5.63598">
        <ele>1060</ele>
        <time>2022-10-28T12:08:44Z</time>
      </trkpt>
      <trkpt lat="44.50993" lon="5.63598">
        <ele>1060.1</ele>
        <time>2022-10-28T12:08:46Z</time>
      </trkpt>
      <trkpt lat="44.50992" lon="5.63598">
        <ele>1060.3</ele>
        <time>2022-10-28T12:08:47Z</time>
      </trkpt>
      <trkpt lat="44.5099" lon="5.63598">
        <ele>1060.4</ele>
        <time>2022-10-28T12:08:48Z</time>
      </trkpt>
      <trkpt lat="44.50988" lon="5.63598">
        <ele>1060.5</ele>
        <time>2022-10-28T12:08:49Z</time>
      </trkpt>
      <trkpt lat="44.50987" lon="5.63598">
        <ele>1060.6</ele>
        <time>2022-10-28T12:08:50Z</time>
      </trkpt>
      <trkpt lat="44.50984" lon="5.63598">
        <ele>1060.9</ele>
        <time>2022-10-28T12:08:52Z</time>
      </trkpt>
      <trkpt lat="44.50983" lon="5.63598">
        <ele>1061</ele>
        <time>2022-10-28T12:08:53Z</time>
      </trkpt>
      <trkpt lat="44.50981" lon="5.63598">
        <ele>1061.1</ele>
        <time>2022-10-28T12:08:54Z</time>
      </trkpt>
      <trkpt lat="44.5098" lon="5.63598">
        <ele>1061.2</ele>
        <time>2022-10-28T12:08:55Z</time>
      </trkpt>
      <trkpt lat="44.50978" lon="5.63598">
        <ele>1061.4</ele>
        <time>2022-10-28T12:08:57Z</time>
      </trkpt>
      <trkpt lat="44.50977" lon="5.63598">
        <ele>1061.5</ele>
        <time>2022-10-28T12:08:58Z</time>
      </trkpt>
      <trkpt lat="44.50975" lon="5.63598">
        <ele>1061.6</ele>
        <time>2022-10-28T12:08:59Z</time>
      </trkpt>
      <trkpt lat="44.50973" lon="5.63598">
        <ele>1061.8</ele>
        <time>2022-10-28T12:09:00Z</time>
      </trkpt>
      <trkpt lat="44.50972" lon="5.63597">
        <ele>1061.9</ele>
        <time>2022-10-28T12:09:01Z</time>
      </trkpt>
      <trkpt lat="44.5097" lon="5.63597">
        <ele>1062.1</ele>
        <time>2022-10-28T12:09:02Z</time>
      </trkpt>
      <trkpt lat="44.50969" lon="5.63597">
        <ele>1062.2</ele>
        <time>2022-10-28T12:09:03Z</time>
      </trkpt>
      <trkpt lat="44.50966" lon="5.63597">
        <ele>1062.3</ele>
        <time>2022-10-28T12:09:05Z</time>
      </trkpt>
      <trkpt lat="44.50965" lon="5.63597">
        <ele>1062.4</ele>
        <time>2022-10-28T12:09:06Z</time>
      </trkpt>
      <trkpt lat="44.50964" lon="5.63596">
        <ele>1062.6</ele>
        <time>2022-10-28T12:09:07Z</time>
      </trkpt>
      <trkpt lat="44.50962" lon="5.63595">
        <ele>1062.7</ele>
        <time>2022-10-28T12:09:08Z</time>
      </trkpt>
      <trkpt lat="44.50961" lon="5.63594">
        <ele>1062.8</ele>
        <time>2022-10-28T12:09:09Z</time>
      </trkpt>
      <trkpt lat="44.50959" lon="5.63594">
        <ele>1063</ele>
        <time>2022-10-28T12:09:10Z</time>
      </trkpt>
      <trkpt lat="44.50957" lon="5.63594">
        <ele>1063.1</ele>
        <time>2022-10-28T12:09:12Z</time>
      </trkpt>
      <trkpt lat="44.50956" lon="5.63594">
        <ele>1063.3</ele>
        <time>2022-10-28T12:09:13Z</time>
      </trkpt>
      <trkpt lat="44.50954" lon="5.63594">
        <ele>1063.4</ele>
        <time>2022-10-28T12:09:14Z</time>
      </trkpt>
      <trkpt lat="44.50952" lon="5.63594">
        <ele>1063.5</ele>
        <time>2022-10-28T12:09:15Z</time>
      </trkpt>
      <trkpt lat="44.50951" lon="5.63595">
        <ele>1063.6</ele>
        <time>2022-10-28T12:09:16Z</time>
      </trkpt>
      <trkpt lat="44.50949" lon="5.63595">
        <ele>1063.8</ele>
        <time>2022-10-28T12:09:18Z</time>
      </trkpt>
      <trkpt lat="44.50948" lon="5.63595">
        <ele>1063.9</ele>
        <time>2022-10-28T12:09:19Z</time>
      </trkpt>
      <trkpt lat="44.50945" lon="5.63597">
        <ele>1064.2</ele>
        <time>2022-10-28T12:09:20Z</time>
      </trkpt>
      <trkpt lat="44.50944" lon="5.63598">
        <ele>1064.3</ele>
        <time>2022-10-28T12:09:22Z</time>
      </trkpt>
      <trkpt lat="44.50944" lon="5.636">
        <ele>1064.4</ele>
        <time>2022-10-28T12:09:23Z</time>
      </trkpt>
      <trkpt lat="44.50943" lon="5.63602">
        <ele>1065.8</ele>
        <time>2022-10-28T12:09:24Z</time>
      </trkpt>
      <trkpt lat="44.50943" lon="5.63604">
        <ele>1065.8</ele>
        <time>2022-10-28T12:09:25Z</time>
      </trkpt>
      <trkpt lat="44.50944" lon="5.63607">
        <ele>1065.8</ele>
        <time>2022-10-28T12:09:26Z</time>
      </trkpt>
      <trkpt lat="44.50945" lon="5.6361">
        <ele>1065.8</ele>
        <time>2022-10-28T12:09:28Z</time>
      </trkpt>
      <trkpt lat="44.50946" lon="5.63611">
        <ele>1065.8</ele>
        <time>2022-10-28T12:09:29Z</time>
      </trkpt>
      <trkpt lat="44.50947" lon="5.63613">
        <ele>1065.8</ele>
        <time>2022-10-28T12:09:30Z</time>
      </trkpt>
      <trkpt lat="44.50949" lon="5.63614">
        <ele>1065.8</ele>
        <time>2022-10-28T12:09:31Z</time>
      </trkpt>
      <trkpt lat="44.5095" lon="5.63615">
        <ele>1065.9</ele>
        <time>2022-10-28T12:09:32Z</time>
      </trkpt>
      <trkpt lat="44.50952" lon="5.63616">
        <ele>1065.9</ele>
        <time>2022-10-28T12:09:34Z</time>
      </trkpt>
      <trkpt lat="44.50955" lon="5.63618">
        <ele>1065.9</ele>
        <time>2022-10-28T12:09:35Z</time>
      </trkpt>
      <trkpt lat="44.50956" lon="5.63618">
        <ele>1065.9</ele>
        <time>2022-10-28T12:09:36Z</time>
      </trkpt>
      <trkpt lat="44.50958" lon="5.63618">
        <ele>1065.9</ele>
        <time>2022-10-28T12:09:37Z</time>
      </trkpt>
      <trkpt lat="44.50962" lon="5.63617">
        <ele>1065.9</ele>
        <time>2022-10-28T12:09:39Z</time>
      </trkpt>
      <trkpt lat="44.50965" lon="5.63617">
        <ele>1065.9</ele>
        <time>2022-10-28T12:09:41Z</time>
      </trkpt>
      <trkpt lat="44.50965" lon="5.63617">
        <ele>1065.9</ele>
        <time>2022-10-28T12:09:42Z</time>
      </trkpt>
      <trkpt lat="44.50967" lon="5.63618">
        <ele>1066</ele>
        <time>2022-10-28T12:09:43Z</time>
      </trkpt>
      <trkpt lat="44.50969" lon="5.63618">
        <ele>1066.1</ele>
        <time>2022-10-28T12:09:44Z</time>
      </trkpt>
      <trkpt lat="44.5097" lon="5.63619">
        <ele>1066.2</ele>
        <time>2022-10-28T12:09:45Z</time>
      </trkpt>
      <trkpt lat="44.50972" lon="5.63619">
        <ele>1066.3</ele>
        <time>2022-10-28T12:09:47Z</time>
      </trkpt>
      <trkpt lat="44.50973" lon="5.63619">
        <ele>1066.4</ele>
        <time>2022-10-28T12:09:48Z</time>
      </trkpt>
      <trkpt lat="44.50975" lon="5.6362">
        <ele>1066.6</ele>
        <time>2022-10-28T12:09:49Z</time>
      </trkpt>
      <trkpt lat="44.50976" lon="5.63621">
        <ele>1066.7</ele>
        <time>2022-10-28T12:09:50Z</time>
      </trkpt>
      <trkpt lat="44.50978" lon="5.63621">
        <ele>1066.8</ele>
        <time>2022-10-28T12:09:51Z</time>
      </trkpt>
      <trkpt lat="44.5098" lon="5.63621">
        <ele>1067</ele>
        <time>2022-10-28T12:09:52Z</time>
      </trkpt>
      <trkpt lat="44.50981" lon="5.63621">
        <ele>1067.1</ele>
        <time>2022-10-28T12:09:53Z</time>
      </trkpt>
      <trkpt lat="44.50984" lon="5.63622">
        <ele>1067.3</ele>
        <time>2022-10-28T12:09:55Z</time>
      </trkpt>
      <trkpt lat="44.50985" lon="5.63622">
        <ele>1067.4</ele>
        <time>2022-10-28T12:09:56Z</time>
      </trkpt>
      <trkpt lat="44.50987" lon="5.63622">
        <ele>1067.5</ele>
        <time>2022-10-28T12:09:57Z</time>
      </trkpt>
      <trkpt lat="44.50989" lon="5.63623">
        <ele>1067.6</ele>
        <time>2022-10-28T12:09:58Z</time>
      </trkpt>
      <trkpt lat="44.50992" lon="5.63628">
        <ele>1068</ele>
        <time>2022-10-28T12:10:00Z</time>
      </trkpt>
      <trkpt lat="44.50993" lon="5.63629">
        <ele>1068.1</ele>
        <time>2022-10-28T12:10:01Z</time>
      </trkpt>
      <trkpt lat="44.50994" lon="5.6363">
        <ele>1068.2</ele>
        <time>2022-10-28T12:10:02Z</time>
      </trkpt>
      <trkpt lat="44.50996" lon="5.63631">
        <ele>1068.3</ele>
        <time>2022-10-28T12:10:03Z</time>
      </trkpt>
      <trkpt lat="44.50997" lon="5.63633">
        <ele>1068.5</ele>
        <time>2022-10-28T12:10:04Z</time>
      </trkpt>
      <trkpt lat="44.50999" lon="5.63635">
        <ele>1068.7</ele>
        <time>2022-10-28T12:10:05Z</time>
      </trkpt>
      <trkpt lat="44.51" lon="5.63635">
        <ele>1068.8</ele>
        <time>2022-10-28T12:10:06Z</time>
      </trkpt>
      <trkpt lat="44.51002" lon="5.63637">
        <ele>1068.9</ele>
        <time>2022-10-28T12:10:07Z</time>
      </trkpt>
      <trkpt lat="44.51003" lon="5.63639">
        <ele>1069.1</ele>
        <time>2022-10-28T12:10:09Z</time>
      </trkpt>
      <trkpt lat="44.51005" lon="5.6364">
        <ele>1069.2</ele>
        <time>2022-10-28T12:10:10Z</time>
      </trkpt>
      <trkpt lat="44.51006" lon="5.63642">
        <ele>1069.3</ele>
        <time>2022-10-28T12:10:11Z</time>
      </trkpt>
      <trkpt lat="44.51007" lon="5.63646">
        <ele>1069.6</ele>
        <time>2022-10-28T12:10:13Z</time>
      </trkpt>
      <trkpt lat="44.51008" lon="5.63648">
        <ele>1069.7</ele>
        <time>2022-10-28T12:10:14Z</time>
      </trkpt>
      <trkpt lat="44.51009" lon="5.6365">
        <ele>1069.8</ele>
        <time>2022-10-28T12:10:15Z</time>
      </trkpt>
      <trkpt lat="44.5101" lon="5.63652">
        <ele>1070</ele>
        <time>2022-10-28T12:10:16Z</time>
      </trkpt>
      <trkpt lat="44.51011" lon="5.63654">
        <ele>1070.1</ele>
        <time>2022-10-28T12:10:17Z</time>
      </trkpt>
      <trkpt lat="44.51012" lon="5.63655">
        <ele>1070.2</ele>
        <time>2022-10-28T12:10:18Z</time>
      </trkpt>
      <trkpt lat="44.51014" lon="5.63658">
        <ele>1070.4</ele>
        <time>2022-10-28T12:10:19Z</time>
      </trkpt>
      <trkpt lat="44.51015" lon="5.63658">
        <ele>1070.5</ele>
        <time>2022-10-28T12:10:20Z</time>
      </trkpt>
      <trkpt lat="44.51016" lon="5.63659">
        <ele>1070.6</ele>
        <time>2022-10-28T12:10:21Z</time>
      </trkpt>
      <trkpt lat="44.51017" lon="5.6366">
        <ele>1070.7</ele>
        <time>2022-10-28T12:10:22Z</time>
      </trkpt>
      <trkpt lat="44.51019" lon="5.63662">
        <ele>1070.9</ele>
        <time>2022-10-28T12:10:23Z</time>
      </trkpt>
      <trkpt lat="44.5102" lon="5.63662">
        <ele>1071</ele>
        <time>2022-10-28T12:10:24Z</time>
      </trkpt>
      <trkpt lat="44.51023" lon="5.63663">
        <ele>1071.2</ele>
        <time>2022-10-28T12:10:26Z</time>
      </trkpt>
      <trkpt lat="44.51025" lon="5.63663">
        <ele>1071.3</ele>
        <time>2022-10-28T12:10:27Z</time>
      </trkpt>
      <trkpt lat="44.51028" lon="5.63663">
        <ele>1071.6</ele>
        <time>2022-10-28T12:10:28Z</time>
      </trkpt>
      <trkpt lat="44.51029" lon="5.63663">
        <ele>1071.7</ele>
        <time>2022-10-28T12:10:29Z</time>
      </trkpt>
      <trkpt lat="44.51031" lon="5.63663">
        <ele>1071.8</ele>
        <time>2022-10-28T12:10:30Z</time>
      </trkpt>
      <trkpt lat="44.51032" lon="5.63663">
        <ele>1071.9</ele>
        <time>2022-10-28T12:10:31Z</time>
      </trkpt>
      <trkpt lat="44.51033" lon="5.63664">
        <ele>1072</ele>
        <time>2022-10-28T12:10:32Z</time>
      </trkpt>
      <trkpt lat="44.51035" lon="5.63664">
        <ele>1072.1</ele>
        <time>2022-10-28T12:10:33Z</time>
      </trkpt>
      <trkpt lat="44.51037" lon="5.63664">
        <ele>1072.2</ele>
        <time>2022-10-28T12:10:34Z</time>
      </trkpt>
      <trkpt lat="44.51038" lon="5.63664">
        <ele>1072.3</ele>
        <time>2022-10-28T12:10:35Z</time>
      </trkpt>
      <trkpt lat="44.51039" lon="5.63664">
        <ele>1072.5</ele>
        <time>2022-10-28T12:10:36Z</time>
      </trkpt>
      <trkpt lat="44.51041" lon="5.63665">
        <ele>1072.6</ele>
        <time>2022-10-28T12:10:37Z</time>
      </trkpt>
      <trkpt lat="44.51044" lon="5.63666">
        <ele>1072.8</ele>
        <time>2022-10-28T12:10:39Z</time>
      </trkpt>
      <trkpt lat="44.51044" lon="5.63666">
        <ele>1072.9</ele>
        <time>2022-10-28T12:10:40Z</time>
      </trkpt>
      <trkpt lat="44.51046" lon="5.63668">
        <ele>1073</ele>
        <time>2022-10-28T12:10:41Z</time>
      </trkpt>
      <trkpt lat="44.51048" lon="5.6367">
        <ele>1073.2</ele>
        <time>2022-10-28T12:10:43Z</time>
      </trkpt>
      <trkpt lat="44.5105" lon="5.63673">
        <ele>1073.4</ele>
        <time>2022-10-28T12:10:44Z</time>
      </trkpt>
      <trkpt lat="44.5105" lon="5.63675">
        <ele>1073.5</ele>
        <time>2022-10-28T12:10:45Z</time>
      </trkpt>
      <trkpt lat="44.51051" lon="5.63678">
        <ele>1073.7</ele>
        <time>2022-10-28T12:10:46Z</time>
      </trkpt>
      <trkpt lat="44.51051" lon="5.63681">
        <ele>1073.9</ele>
        <time>2022-10-28T12:10:48Z</time>
      </trkpt>
      <trkpt lat="44.51052" lon="5.63683">
        <ele>1074</ele>
        <time>2022-10-28T12:10:49Z</time>
      </trkpt>
      <trkpt lat="44.51052" lon="5.63686">
        <ele>1074.1</ele>
        <time>2022-10-28T12:10:50Z</time>
      </trkpt>
      <trkpt lat="44.51052" lon="5.6369">
        <ele>1074.4</ele>
        <time>2022-10-28T12:10:51Z</time>
      </trkpt>
      <trkpt lat="44.51052" lon="5.63691">
        <ele>1074.4</ele>
        <time>2022-10-28T12:10:52Z</time>
      </trkpt>
      <trkpt lat="44.51052" lon="5.63693">
        <ele>1074.6</ele>
        <time>2022-10-28T12:10:53Z</time>
      </trkpt>
      <trkpt lat="44.51051" lon="5.63696">
        <ele>1074.7</ele>
        <time>2022-10-28T12:10:55Z</time>
      </trkpt>
      <trkpt lat="44.51052" lon="5.63699">
        <ele>1074.9</ele>
        <time>2022-10-28T12:10:56Z</time>
      </trkpt>
      <trkpt lat="44.51052" lon="5.63701">
        <ele>1075</ele>
        <time>2022-10-28T12:10:57Z</time>
      </trkpt>
      <trkpt lat="44.51051" lon="5.63705">
        <ele>1075.2</ele>
        <time>2022-10-28T12:10:59Z</time>
      </trkpt>
      <trkpt lat="44.51051" lon="5.63707">
        <ele>1075.3</ele>
        <time>2022-10-28T12:11:00Z</time>
      </trkpt>
      <trkpt lat="44.51052" lon="5.63709">
        <ele>1075.5</ele>
        <time>2022-10-28T12:11:01Z</time>
      </trkpt>
      <trkpt lat="44.51053" lon="5.63711">
        <ele>1075.6</ele>
        <time>2022-10-28T12:11:02Z</time>
      </trkpt>
      <trkpt lat="44.51053" lon="5.63713">
        <ele>1075.7</ele>
        <time>2022-10-28T12:11:03Z</time>
      </trkpt>
      <trkpt lat="44.51054" lon="5.63715">
        <ele>1075.8</ele>
        <time>2022-10-28T12:11:04Z</time>
      </trkpt>
      <trkpt lat="44.51054" lon="5.63719">
        <ele>1076</ele>
        <time>2022-10-28T12:11:05Z</time>
      </trkpt>
      <trkpt lat="44.51054" lon="5.63721">
        <ele>1076.1</ele>
        <time>2022-10-28T12:11:06Z</time>
      </trkpt>
      <trkpt lat="44.51054" lon="5.63725">
        <ele>1076.4</ele>
        <time>2022-10-28T12:11:08Z</time>
      </trkpt>
      <trkpt lat="44.51054" lon="5.63727">
        <ele>1076.4</ele>
        <time>2022-10-28T12:11:09Z</time>
      </trkpt>
      <trkpt lat="44.51054" lon="5.63731">
        <ele>1076.7</ele>
        <time>2022-10-28T12:11:10Z</time>
      </trkpt>
      <trkpt lat="44.51054" lon="5.63733">
        <ele>1076.8</ele>
        <time>2022-10-28T12:11:11Z</time>
      </trkpt>
      <trkpt lat="44.51055" lon="5.63736">
        <ele>1077</ele>
        <time>2022-10-28T12:11:12Z</time>
      </trkpt>
      <trkpt lat="44.51054" lon="5.63738">
        <ele>1077.1</ele>
        <time>2022-10-28T12:11:13Z</time>
      </trkpt>
      <trkpt lat="44.51054" lon="5.63742">
        <ele>1077.3</ele>
        <time>2022-10-28T12:11:15Z</time>
      </trkpt>
      <trkpt lat="44.51054" lon="5.63744">
        <ele>1077.4</ele>
        <time>2022-10-28T12:11:16Z</time>
      </trkpt>
      <trkpt lat="44.51055" lon="5.63748">
        <ele>1077.6</ele>
        <time>2022-10-28T12:11:17Z</time>
      </trkpt>
      <trkpt lat="44.51055" lon="5.63749">
        <ele>1077.7</ele>
        <time>2022-10-28T12:11:19Z</time>
      </trkpt>
      <trkpt lat="44.51055" lon="5.63751">
        <ele>1077.8</ele>
        <time>2022-10-28T12:11:20Z</time>
      </trkpt>
      <trkpt lat="44.51056" lon="5.63753">
        <ele>1077.9</ele>
        <time>2022-10-28T12:11:21Z</time>
      </trkpt>
      <trkpt lat="44.51055" lon="5.63757">
        <ele>1078.2</ele>
        <time>2022-10-28T12:11:22Z</time>
      </trkpt>
      <trkpt lat="44.51055" lon="5.63759">
        <ele>1078.2</ele>
        <time>2022-10-28T12:11:23Z</time>
      </trkpt>
      <trkpt lat="44.51055" lon="5.6376">
        <ele>1078.3</ele>
        <time>2022-10-28T12:11:24Z</time>
      </trkpt>
      <trkpt lat="44.51055" lon="5.63763">
        <ele>1078.5</ele>
        <time>2022-10-28T12:11:25Z</time>
      </trkpt>
      <trkpt lat="44.51055" lon="5.63765">
        <ele>1078.6</ele>
        <time>2022-10-28T12:11:26Z</time>
      </trkpt>
      <trkpt lat="44.51055" lon="5.63768">
        <ele>1078.7</ele>
        <time>2022-10-28T12:11:27Z</time>
      </trkpt>
      <trkpt lat="44.51054" lon="5.63771">
        <ele>1078.9</ele>
        <time>2022-10-28T12:11:29Z</time>
      </trkpt>
      <trkpt lat="44.51054" lon="5.63773">
        <ele>1079</ele>
        <time>2022-10-28T12:11:30Z</time>
      </trkpt>
      <trkpt lat="44.51055" lon="5.63777">
        <ele>1079.3</ele>
        <time>2022-10-28T12:11:31Z</time>
      </trkpt>
      <trkpt lat="44.51055" lon="5.63778">
        <ele>1079.3</ele>
        <time>2022-10-28T12:11:32Z</time>
      </trkpt>
      <trkpt lat="44.51056" lon="5.63782">
        <ele>1079.6</ele>
        <time>2022-10-28T12:11:34Z</time>
      </trkpt>
      <trkpt lat="44.51056" lon="5.63784">
        <ele>1079.6</ele>
        <time>2022-10-28T12:11:35Z</time>
      </trkpt>
      <trkpt lat="44.51056" lon="5.63786">
        <ele>1079.8</ele>
        <time>2022-10-28T12:11:36Z</time>
      </trkpt>
      <trkpt lat="44.51056" lon="5.63788">
        <ele>1079.9</ele>
        <time>2022-10-28T12:11:37Z</time>
      </trkpt>
      <trkpt lat="44.51056" lon="5.6379">
        <ele>1080</ele>
        <time>2022-10-28T12:11:38Z</time>
      </trkpt>
      <trkpt lat="44.51056" lon="5.63792">
        <ele>1080.1</ele>
        <time>2022-10-28T12:11:39Z</time>
      </trkpt>
      <trkpt lat="44.51057" lon="5.63796">
        <ele>1080.3</ele>
        <time>2022-10-28T12:11:40Z</time>
      </trkpt>
      <trkpt lat="44.51058" lon="5.63797">
        <ele>1080.4</ele>
        <time>2022-10-28T12:11:41Z</time>
      </trkpt>
      <trkpt lat="44.51058" lon="5.63801">
        <ele>1080.6</ele>
        <time>2022-10-28T12:11:43Z</time>
      </trkpt>
      <trkpt lat="44.51058" lon="5.63803">
        <ele>1080.7</ele>
        <time>2022-10-28T12:11:44Z</time>
      </trkpt>
      <trkpt lat="44.5106" lon="5.63807">
        <ele>1080.9</ele>
        <time>2022-10-28T12:11:45Z</time>
      </trkpt>
      <trkpt lat="44.5106" lon="5.63808">
        <ele>1081</ele>
        <time>2022-10-28T12:11:46Z</time>
      </trkpt>
      <trkpt lat="44.5106" lon="5.6381">
        <ele>1081.2</ele>
        <time>2022-10-28T12:11:47Z</time>
      </trkpt>
      <trkpt lat="44.51061" lon="5.63812">
        <ele>1081.3</ele>
        <time>2022-10-28T12:11:48Z</time>
      </trkpt>
      <trkpt lat="44.51061" lon="5.63817">
        <ele>1081.5</ele>
        <time>2022-10-28T12:11:50Z</time>
      </trkpt>
      <trkpt lat="44.51061" lon="5.63818">
        <ele>1081.6</ele>
        <time>2022-10-28T12:11:51Z</time>
      </trkpt>
      <trkpt lat="44.51062" lon="5.63822">
        <ele>1081.8</ele>
        <time>2022-10-28T12:11:52Z</time>
      </trkpt>
      <trkpt lat="44.51062" lon="5.63824">
        <ele>1081.9</ele>
        <time>2022-10-28T12:11:53Z</time>
      </trkpt>
      <trkpt lat="44.51063" lon="5.63827">
        <ele>1082.1</ele>
        <time>2022-10-28T12:11:55Z</time>
      </trkpt>
      <trkpt lat="44.51064" lon="5.63828">
        <ele>1082.2</ele>
        <time>2022-10-28T12:11:56Z</time>
      </trkpt>
      <trkpt lat="44.51065" lon="5.63832">
        <ele>1082.4</ele>
        <time>2022-10-28T12:11:57Z</time>
      </trkpt>
      <trkpt lat="44.51065" lon="5.63833">
        <ele>1082.5</ele>
        <time>2022-10-28T12:11:58Z</time>
      </trkpt>
      <trkpt lat="44.51066" lon="5.63837">
        <ele>1082.7</ele>
        <time>2022-10-28T12:12:00Z</time>
      </trkpt>
      <trkpt lat="44.51067" lon="5.63839">
        <ele>1082.8</ele>
        <time>2022-10-28T12:12:01Z</time>
      </trkpt>
      <trkpt lat="44.51067" lon="5.63841">
        <ele>1083</ele>
        <time>2022-10-28T12:12:02Z</time>
      </trkpt>
      <trkpt lat="44.5107" lon="5.63844">
        <ele>1083.2</ele>
        <time>2022-10-28T12:12:04Z</time>
      </trkpt>
      <trkpt lat="44.5107" lon="5.63846">
        <ele>1083.3</ele>
        <time>2022-10-28T12:12:05Z</time>
      </trkpt>
      <trkpt lat="44.51071" lon="5.63849">
        <ele>1083.5</ele>
        <time>2022-10-28T12:12:06Z</time>
      </trkpt>
      <trkpt lat="44.51072" lon="5.63851">
        <ele>1083.6</ele>
        <time>2022-10-28T12:12:07Z</time>
      </trkpt>
      <trkpt lat="44.51072" lon="5.63854">
        <ele>1083.8</ele>
        <time>2022-10-28T12:12:09Z</time>
      </trkpt>
      <trkpt lat="44.51074" lon="5.63857">
        <ele>1084</ele>
        <time>2022-10-28T12:12:10Z</time>
      </trkpt>
      <trkpt lat="44.51074" lon="5.63858">
        <ele>1084.1</ele>
        <time>2022-10-28T12:12:11Z</time>
      </trkpt>
      <trkpt lat="44.51075" lon="5.6386">
        <ele>1084.2</ele>
        <time>2022-10-28T12:12:12Z</time>
      </trkpt>
      <trkpt lat="44.51075" lon="5.63863">
        <ele>1084.3</ele>
        <time>2022-10-28T12:12:13Z</time>
      </trkpt>
      <trkpt lat="44.51076" lon="5.63864">
        <ele>1084.4</ele>
        <time>2022-10-28T12:12:14Z</time>
      </trkpt>
      <trkpt lat="44.51077" lon="5.63868">
        <ele>1084.6</ele>
        <time>2022-10-28T12:12:16Z</time>
      </trkpt>
      <trkpt lat="44.51077" lon="5.6387">
        <ele>1084.8</ele>
        <time>2022-10-28T12:12:17Z</time>
      </trkpt>
      <trkpt lat="44.51078" lon="5.63873">
        <ele>1084.9</ele>
        <time>2022-10-28T12:12:18Z</time>
      </trkpt>
      <trkpt lat="44.51078" lon="5.63875">
        <ele>1085</ele>
        <time>2022-10-28T12:12:19Z</time>
      </trkpt>
      <trkpt lat="44.51078" lon="5.63879">
        <ele>1085.2</ele>
        <time>2022-10-28T12:12:21Z</time>
      </trkpt>
      <trkpt lat="44.51079" lon="5.63883">
        <ele>1085.5</ele>
        <time>2022-10-28T12:12:22Z</time>
      </trkpt>
      <trkpt lat="44.51079" lon="5.63884">
        <ele>1085.6</ele>
        <time>2022-10-28T12:12:23Z</time>
      </trkpt>
      <trkpt lat="44.5108" lon="5.63887">
        <ele>1085.7</ele>
        <time>2022-10-28T12:12:24Z</time>
      </trkpt>
      <trkpt lat="44.5108" lon="5.63889">
        <ele>1085.8</ele>
        <time>2022-10-28T12:12:25Z</time>
      </trkpt>
      <trkpt lat="44.5108" lon="5.63893">
        <ele>1086.1</ele>
        <time>2022-10-28T12:12:27Z</time>
      </trkpt>
      <trkpt lat="44.51081" lon="5.63895">
        <ele>1086.2</ele>
        <time>2022-10-28T12:12:28Z</time>
      </trkpt>
      <trkpt lat="44.51081" lon="5.63898">
        <ele>1086.3</ele>
        <time>2022-10-28T12:12:29Z</time>
      </trkpt>
      <trkpt lat="44.51081" lon="5.63901">
        <ele>1086.5</ele>
        <time>2022-10-28T12:12:31Z</time>
      </trkpt>
      <trkpt lat="44.51081" lon="5.63904">
        <ele>1086.6</ele>
        <time>2022-10-28T12:12:32Z</time>
      </trkpt>
      <trkpt lat="44.51081" lon="5.63906">
        <ele>1086.8</ele>
        <time>2022-10-28T12:12:33Z</time>
      </trkpt>
      <trkpt lat="44.5108" lon="5.63909">
        <ele>1086.9</ele>
        <time>2022-10-28T12:12:34Z</time>
      </trkpt>
      <trkpt lat="44.51079" lon="5.63911">
        <ele>1087.1</ele>
        <time>2022-10-28T12:12:36Z</time>
      </trkpt>
      <trkpt lat="44.51078" lon="5.63915">
        <ele>1087.3</ele>
        <time>2022-10-28T12:12:37Z</time>
      </trkpt>
      <trkpt lat="44.51077" lon="5.63916">
        <ele>1087.4</ele>
        <time>2022-10-28T12:12:38Z</time>
      </trkpt>
      <trkpt lat="44.51075" lon="5.63918">
        <ele>1087.6</ele>
        <time>2022-10-28T12:12:39Z</time>
      </trkpt>
      <trkpt lat="44.51075" lon="5.63919">
        <ele>1087.6</ele>
        <time>2022-10-28T12:12:40Z</time>
      </trkpt>
      <trkpt lat="44.51072" lon="5.63922">
        <ele>1087.9</ele>
        <time>2022-10-28T12:12:42Z</time>
      </trkpt>
      <trkpt lat="44.51071" lon="5.63923">
        <ele>1088</ele>
        <time>2022-10-28T12:12:43Z</time>
      </trkpt>
      <trkpt lat="44.5107" lon="5.63924">
        <ele>1088.1</ele>
        <time>2022-10-28T12:12:44Z</time>
      </trkpt>
      <trkpt lat="44.51069" lon="5.63926">
        <ele>1088.2</ele>
        <time>2022-10-28T12:12:45Z</time>
      </trkpt>
      <trkpt lat="44.51066" lon="5.63929">
        <ele>1088.5</ele>
        <time>2022-10-28T12:12:47Z</time>
      </trkpt>
      <trkpt lat="44.51065" lon="5.63931">
        <ele>1088.6</ele>
        <time>2022-10-28T12:12:48Z</time>
      </trkpt>
      <trkpt lat="44.51064" lon="5.63932">
        <ele>1088.7</ele>
        <time>2022-10-28T12:12:49Z</time>
      </trkpt>
      <trkpt lat="44.51063" lon="5.63934">
        <ele>1088.9</ele>
        <time>2022-10-28T12:12:50Z</time>
      </trkpt>
      <trkpt lat="44.51062" lon="5.63936">
        <ele>1089</ele>
        <time>2022-10-28T12:12:51Z</time>
      </trkpt>
      <trkpt lat="44.51061" lon="5.63937">
        <ele>1089.1</ele>
        <time>2022-10-28T12:12:52Z</time>
      </trkpt>
      <trkpt lat="44.5106" lon="5.63939">
        <ele>1089.2</ele>
        <time>2022-10-28T12:12:53Z</time>
      </trkpt>
      <trkpt lat="44.51059" lon="5.63941">
        <ele>1089.4</ele>
        <time>2022-10-28T12:12:54Z</time>
      </trkpt>
      <trkpt lat="44.51058" lon="5.63943">
        <ele>1089.5</ele>
        <time>2022-10-28T12:12:55Z</time>
      </trkpt>
      <trkpt lat="44.51055" lon="5.63946">
        <ele>1089.8</ele>
        <time>2022-10-28T12:12:57Z</time>
      </trkpt>
      <trkpt lat="44.51053" lon="5.63948">
        <ele>1089.9</ele>
        <time>2022-10-28T12:12:58Z</time>
      </trkpt>
      <trkpt lat="44.51051" lon="5.63951">
        <ele>1090.2</ele>
        <time>2022-10-28T12:13:00Z</time>
      </trkpt>
      <trkpt lat="44.51048" lon="5.63953">
        <ele>1090.4</ele>
        <time>2022-10-28T12:13:01Z</time>
      </trkpt>
      <trkpt lat="44.51047" lon="5.63953">
        <ele>1090.5</ele>
        <time>2022-10-28T12:13:02Z</time>
      </trkpt>
      <trkpt lat="44.51045" lon="5.63956">
        <ele>1090.7</ele>
        <time>2022-10-28T12:13:04Z</time>
      </trkpt>
      <trkpt lat="44.51044" lon="5.63957">
        <ele>1090.8</ele>
        <time>2022-10-28T12:13:05Z</time>
      </trkpt>
      <trkpt lat="44.51043" lon="5.63959">
        <ele>1090.9</ele>
        <time>2022-10-28T12:13:06Z</time>
      </trkpt>
      <trkpt lat="44.51042" lon="5.6396">
        <ele>1091.1</ele>
        <time>2022-10-28T12:13:07Z</time>
      </trkpt>
      <trkpt lat="44.51039" lon="5.63963">
        <ele>1091.3</ele>
        <time>2022-10-28T12:13:08Z</time>
      </trkpt>
      <trkpt lat="44.51039" lon="5.63964">
        <ele>1091.4</ele>
        <time>2022-10-28T12:13:09Z</time>
      </trkpt>
      <trkpt lat="44.51036" lon="5.63967">
        <ele>1091.6</ele>
        <time>2022-10-28T12:13:11Z</time>
      </trkpt>
      <trkpt lat="44.51036" lon="5.63968">
        <ele>1091.7</ele>
        <time>2022-10-28T12:13:12Z</time>
      </trkpt>
      <trkpt lat="44.51034" lon="5.63971">
        <ele>1091.9</ele>
        <time>2022-10-28T12:13:13Z</time>
      </trkpt>
      <trkpt lat="44.51033" lon="5.63972">
        <ele>1092</ele>
        <time>2022-10-28T12:13:14Z</time>
      </trkpt>
      <trkpt lat="44.51031" lon="5.63974">
        <ele>1092.2</ele>
        <time>2022-10-28T12:13:15Z</time>
      </trkpt>
      <trkpt lat="44.51031" lon="5.63976">
        <ele>1092.3</ele>
        <time>2022-10-28T12:13:16Z</time>
      </trkpt>
      <trkpt lat="44.5103" lon="5.63977">
        <ele>1092.4</ele>
        <time>2022-10-28T12:13:17Z</time>
      </trkpt>
      <trkpt lat="44.51028" lon="5.63979">
        <ele>1092.5</ele>
        <time>2022-10-28T12:13:18Z</time>
      </trkpt>
      <trkpt lat="44.51027" lon="5.63982">
        <ele>1092.7</ele>
        <time>2022-10-28T12:13:19Z</time>
      </trkpt>
      <trkpt lat="44.51026" lon="5.63983">
        <ele>1092.8</ele>
        <time>2022-10-28T12:13:20Z</time>
      </trkpt>
      <trkpt lat="44.51024" lon="5.63987">
        <ele>1093.1</ele>
        <time>2022-10-28T12:13:22Z</time>
      </trkpt>
      <trkpt lat="44.51024" lon="5.63988">
        <ele>1093.1</ele>
        <time>2022-10-28T12:13:23Z</time>
      </trkpt>
      <trkpt lat="44.51022" lon="5.63992">
        <ele>1093.4</ele>
        <time>2022-10-28T12:13:24Z</time>
      </trkpt>
      <trkpt lat="44.51022" lon="5.63993">
        <ele>1093.4</ele>
        <time>2022-10-28T12:13:25Z</time>
      </trkpt>
      <trkpt lat="44.5102" lon="5.63994">
        <ele>1093.6</ele>
        <time>2022-10-28T12:13:26Z</time>
      </trkpt>
      <trkpt lat="44.51019" lon="5.63996">
        <ele>1093.7</ele>
        <time>2022-10-28T12:13:28Z</time>
      </trkpt>
      <trkpt lat="44.51017" lon="5.64">
        <ele>1094</ele>
        <time>2022-10-28T12:13:29Z</time>
      </trkpt>
      <trkpt lat="44.51016" lon="5.64">
        <ele>1094</ele>
        <time>2022-10-28T12:13:30Z</time>
      </trkpt>
      <trkpt lat="44.51015" lon="5.64002">
        <ele>1094.2</ele>
        <time>2022-10-28T12:13:31Z</time>
      </trkpt>
      <trkpt lat="44.51014" lon="5.64004">
        <ele>1094.3</ele>
        <time>2022-10-28T12:13:32Z</time>
      </trkpt>
      <trkpt lat="44.51013" lon="5.64006">
        <ele>1094.4</ele>
        <time>2022-10-28T12:13:33Z</time>
      </trkpt>
      <trkpt lat="44.51012" lon="5.6401">
        <ele>1094.7</ele>
        <time>2022-10-28T12:13:35Z</time>
      </trkpt>
      <trkpt lat="44.51011" lon="5.64012">
        <ele>1094.8</ele>
        <time>2022-10-28T12:13:36Z</time>
      </trkpt>
      <trkpt lat="44.5101" lon="5.64013">
        <ele>1094.9</ele>
        <time>2022-10-28T12:13:37Z</time>
      </trkpt>
      <trkpt lat="44.51009" lon="5.64017">
        <ele>1095.1</ele>
        <time>2022-10-28T12:13:39Z</time>
      </trkpt>
      <trkpt lat="44.51009" lon="5.64019">
        <ele>1095.2</ele>
        <time>2022-10-28T12:13:40Z</time>
      </trkpt>
      <trkpt lat="44.51008" lon="5.64021">
        <ele>1095.3</ele>
        <time>2022-10-28T12:13:41Z</time>
      </trkpt>
      <trkpt lat="44.51006" lon="5.64024">
        <ele>1095.5</ele>
        <time>2022-10-28T12:13:42Z</time>
      </trkpt>
      <trkpt lat="44.51006" lon="5.64026">
        <ele>1095.6</ele>
        <time>2022-10-28T12:13:44Z</time>
      </trkpt>
      <trkpt lat="44.51005" lon="5.64027">
        <ele>1095.7</ele>
        <time>2022-10-28T12:13:45Z</time>
      </trkpt>
      <trkpt lat="44.51005" lon="5.64029">
        <ele>1095.8</ele>
        <time>2022-10-28T12:13:46Z</time>
      </trkpt>
      <trkpt lat="44.51004" lon="5.64031">
        <ele>1096</ele>
        <time>2022-10-28T12:13:47Z</time>
      </trkpt>
      <trkpt lat="44.51003" lon="5.64034">
        <ele>1096.1</ele>
        <time>2022-10-28T12:13:49Z</time>
      </trkpt>
      <trkpt lat="44.51003" lon="5.64036">
        <ele>1096.2</ele>
        <time>2022-10-28T12:13:50Z</time>
      </trkpt>
      <trkpt lat="44.51002" lon="5.64038">
        <ele>1096.4</ele>
        <time>2022-10-28T12:13:51Z</time>
      </trkpt>
      <trkpt lat="44.51" lon="5.64042">
        <ele>1096.6</ele>
        <time>2022-10-28T12:13:53Z</time>
      </trkpt>
      <trkpt lat="44.51" lon="5.64042">
        <ele>1096.7</ele>
        <time>2022-10-28T12:13:54Z</time>
      </trkpt>
      <trkpt lat="44.50998" lon="5.64046">
        <ele>1096.9</ele>
        <time>2022-10-28T12:13:55Z</time>
      </trkpt>
      <trkpt lat="44.50997" lon="5.64047">
        <ele>1097</ele>
        <time>2022-10-28T12:13:56Z</time>
      </trkpt>
      <trkpt lat="44.50996" lon="5.64049">
        <ele>1097.1</ele>
        <time>2022-10-28T12:13:57Z</time>
      </trkpt>
      <trkpt lat="44.50994" lon="5.64052">
        <ele>1097.3</ele>
        <time>2022-10-28T12:13:59Z</time>
      </trkpt>
      <trkpt lat="44.50993" lon="5.64053">
        <ele>1097.5</ele>
        <time>2022-10-28T12:14:00Z</time>
      </trkpt>
      <trkpt lat="44.50992" lon="5.64055">
        <ele>1097.6</ele>
        <time>2022-10-28T12:14:01Z</time>
      </trkpt>
      <trkpt lat="44.50991" lon="5.64058">
        <ele>1097.8</ele>
        <time>2022-10-28T12:14:03Z</time>
      </trkpt>
      <trkpt lat="44.5099" lon="5.64059">
        <ele>1097.9</ele>
        <time>2022-10-28T12:14:04Z</time>
      </trkpt>
      <trkpt lat="44.50989" lon="5.64061">
        <ele>1098</ele>
        <time>2022-10-28T12:14:05Z</time>
      </trkpt>
      <trkpt lat="44.50988" lon="5.64064">
        <ele>1098.2</ele>
        <time>2022-10-28T12:14:07Z</time>
      </trkpt>
      <trkpt lat="44.50985" lon="5.64067">
        <ele>1098.5</ele>
        <time>2022-10-28T12:14:08Z</time>
      </trkpt>
      <trkpt lat="44.50984" lon="5.64068">
        <ele>1098.6</ele>
        <time>2022-10-28T12:14:09Z</time>
      </trkpt>
      <trkpt lat="44.50981" lon="5.6407">
        <ele>1098.8</ele>
        <time>2022-10-28T12:14:11Z</time>
      </trkpt>
      <trkpt lat="44.5098" lon="5.64071">
        <ele>1098.9</ele>
        <time>2022-10-28T12:14:12Z</time>
      </trkpt>
      <trkpt lat="44.50979" lon="5.64075">
        <ele>1099.1</ele>
        <time>2022-10-28T12:14:13Z</time>
      </trkpt>
      <trkpt lat="44.50978" lon="5.64076">
        <ele>1099.2</ele>
        <time>2022-10-28T12:14:14Z</time>
      </trkpt>
      <trkpt lat="44.50977" lon="5.64077">
        <ele>1099.3</ele>
        <time>2022-10-28T12:14:15Z</time>
      </trkpt>
      <trkpt lat="44.50976" lon="5.64079">
        <ele>1099.4</ele>
        <time>2022-10-28T12:14:16Z</time>
      </trkpt>
      <trkpt lat="44.50974" lon="5.6408">
        <ele>1099.6</ele>
        <time>2022-10-28T12:14:17Z</time>
      </trkpt>
      <trkpt lat="44.50973" lon="5.64082">
        <ele>1099.7</ele>
        <time>2022-10-28T12:14:18Z</time>
      </trkpt>
      <trkpt lat="44.50971" lon="5.64086">
        <ele>1100</ele>
        <time>2022-10-28T12:14:20Z</time>
      </trkpt>
      <trkpt lat="44.5097" lon="5.64087">
        <ele>1100.1</ele>
        <time>2022-10-28T12:14:21Z</time>
      </trkpt>
      <trkpt lat="44.50967" lon="5.6409">
        <ele>1100.4</ele>
        <time>2022-10-28T12:14:23Z</time>
      </trkpt>
      <trkpt lat="44.50966" lon="5.64092">
        <ele>1100.5</ele>
        <time>2022-10-28T12:14:24Z</time>
      </trkpt>
      <trkpt lat="44.50965" lon="5.64093">
        <ele>1100.6</ele>
        <time>2022-10-28T12:14:25Z</time>
      </trkpt>
      <trkpt lat="44.50962" lon="5.64095">
        <ele>1100.8</ele>
        <time>2022-10-28T12:14:26Z</time>
      </trkpt>
      <trkpt lat="44.50961" lon="5.64096">
        <ele>1100.9</ele>
        <time>2022-10-28T12:14:27Z</time>
      </trkpt>
      <trkpt lat="44.50959" lon="5.64099">
        <ele>1101.1</ele>
        <time>2022-10-28T12:14:28Z</time>
      </trkpt>
      <trkpt lat="44.50959" lon="5.641">
        <ele>1101.2</ele>
        <time>2022-10-28T12:14:29Z</time>
      </trkpt>
      <trkpt lat="44.50958" lon="5.64101">
        <ele>1101.3</ele>
        <time>2022-10-28T12:14:30Z</time>
      </trkpt>
      <trkpt lat="44.50957" lon="5.64103">
        <ele>1101.4</ele>
        <time>2022-10-28T12:14:31Z</time>
      </trkpt>
      <trkpt lat="44.50955" lon="5.64104">
        <ele>1101.6</ele>
        <time>2022-10-28T12:14:32Z</time>
      </trkpt>
      <trkpt lat="44.50954" lon="5.64105">
        <ele>1101.7</ele>
        <time>2022-10-28T12:14:33Z</time>
      </trkpt>
      <trkpt lat="44.50952" lon="5.64106">
        <ele>1101.8</ele>
        <time>2022-10-28T12:14:35Z</time>
      </trkpt>
      <trkpt lat="44.50951" lon="5.64107">
        <ele>1101.9</ele>
        <time>2022-10-28T12:14:36Z</time>
      </trkpt>
      <trkpt lat="44.50948" lon="5.6411">
        <ele>1102.2</ele>
        <time>2022-10-28T12:14:37Z</time>
      </trkpt>
      <trkpt lat="44.50947" lon="5.6411">
        <ele>1102.2</ele>
        <time>2022-10-28T12:14:38Z</time>
      </trkpt>
      <trkpt lat="44.50945" lon="5.64111">
        <ele>1102.5</ele>
        <time>2022-10-28T12:14:39Z</time>
      </trkpt>
      <trkpt lat="44.50944" lon="5.64111">
        <ele>1102.5</ele>
        <time>2022-10-28T12:14:40Z</time>
      </trkpt>
      <trkpt lat="44.50941" lon="5.64112">
        <ele>1102.8</ele>
        <time>2022-10-28T12:14:42Z</time>
      </trkpt>
      <trkpt lat="44.5094" lon="5.64113">
        <ele>1102.8</ele>
        <time>2022-10-28T12:14:43Z</time>
      </trkpt>
      <trkpt lat="44.50937" lon="5.64115">
        <ele>1103.1</ele>
        <time>2022-10-28T12:14:44Z</time>
      </trkpt>
      <trkpt lat="44.50935" lon="5.64116">
        <ele>1103.2</ele>
        <time>2022-10-28T12:14:45Z</time>
      </trkpt>
      <trkpt lat="44.50932" lon="5.64118">
        <ele>1103.5</ele>
        <time>2022-10-28T12:14:47Z</time>
      </trkpt>
      <trkpt lat="44.50931" lon="5.64119">
        <ele>1103.6</ele>
        <time>2022-10-28T12:14:48Z</time>
      </trkpt>
      <trkpt lat="44.50929" lon="5.64121">
        <ele>1103.8</ele>
        <time>2022-10-28T12:14:49Z</time>
      </trkpt>
      <trkpt lat="44.50927" lon="5.64124">
        <ele>1104</ele>
        <time>2022-10-28T12:14:51Z</time>
      </trkpt>
      <trkpt lat="44.50924" lon="5.64127">
        <ele>1104.3</ele>
        <time>2022-10-28T12:14:52Z</time>
      </trkpt>
      <trkpt lat="44.50923" lon="5.64129">
        <ele>1104.4</ele>
        <time>2022-10-28T12:14:53Z</time>
      </trkpt>
      <trkpt lat="44.50921" lon="5.64132">
        <ele>1104.6</ele>
        <time>2022-10-28T12:14:54Z</time>
      </trkpt>
      <trkpt lat="44.5092" lon="5.64133">
        <ele>1104.7</ele>
        <time>2022-10-28T12:14:55Z</time>
      </trkpt>
      <trkpt lat="44.50919" lon="5.64135">
        <ele>1104.9</ele>
        <time>2022-10-28T12:14:56Z</time>
      </trkpt>
      <trkpt lat="44.50917" lon="5.64138">
        <ele>1105.1</ele>
        <time>2022-10-28T12:14:58Z</time>
      </trkpt>
      <trkpt lat="44.50915" lon="5.64141">
        <ele>1105.3</ele>
        <time>2022-10-28T12:14:59Z</time>
      </trkpt>
      <trkpt lat="44.50914" lon="5.64143">
        <ele>1105.4</ele>
        <time>2022-10-28T12:15:00Z</time>
      </trkpt>
      <trkpt lat="44.50913" lon="5.64145">
        <ele>1105.6</ele>
        <time>2022-10-28T12:15:01Z</time>
      </trkpt>
      <trkpt lat="44.50912" lon="5.64147">
        <ele>1105.8</ele>
        <time>2022-10-28T12:15:03Z</time>
      </trkpt>
      <trkpt lat="44.5091" lon="5.64151">
        <ele>1106</ele>
        <time>2022-10-28T12:15:04Z</time>
      </trkpt>
      <trkpt lat="44.50909" lon="5.64152">
        <ele>1106.1</ele>
        <time>2022-10-28T12:15:05Z</time>
      </trkpt>
      <trkpt lat="44.50908" lon="5.64153">
        <ele>1106.2</ele>
        <time>2022-10-28T12:15:06Z</time>
      </trkpt>
      <trkpt lat="44.50907" lon="5.64155">
        <ele>1106.3</ele>
        <time>2022-10-28T12:15:07Z</time>
      </trkpt>
      <trkpt lat="44.50905" lon="5.64156">
        <ele>1106.5</ele>
        <time>2022-10-28T12:15:08Z</time>
      </trkpt>
      <trkpt lat="44.50904" lon="5.64158">
        <ele>1106.6</ele>
        <time>2022-10-28T12:15:09Z</time>
      </trkpt>
      <trkpt lat="44.50902" lon="5.64161">
        <ele>1106.8</ele>
        <time>2022-10-28T12:15:10Z</time>
      </trkpt>
      <trkpt lat="44.50901" lon="5.64162">
        <ele>1106.9</ele>
        <time>2022-10-28T12:15:11Z</time>
      </trkpt>
      <trkpt lat="44.50898" lon="5.64165">
        <ele>1107.2</ele>
        <time>2022-10-28T12:15:13Z</time>
      </trkpt>
      <trkpt lat="44.50897" lon="5.64166">
        <ele>1107.3</ele>
        <time>2022-10-28T12:15:14Z</time>
      </trkpt>
      <trkpt lat="44.50895" lon="5.64169">
        <ele>1107.5</ele>
        <time>2022-10-28T12:15:15Z</time>
      </trkpt>
      <trkpt lat="44.50894" lon="5.64169">
        <ele>1107.6</ele>
        <time>2022-10-28T12:15:16Z</time>
      </trkpt>
      <trkpt lat="44.50891" lon="5.64172">
        <ele>1107.9</ele>
        <time>2022-10-28T12:15:18Z</time>
      </trkpt>
      <trkpt lat="44.5089" lon="5.64173">
        <ele>1108</ele>
        <time>2022-10-28T12:15:19Z</time>
      </trkpt>
      <trkpt lat="44.50887" lon="5.64176">
        <ele>1108.2</ele>
        <time>2022-10-28T12:15:20Z</time>
      </trkpt>
      <trkpt lat="44.50886" lon="5.64177">
        <ele>1108.3</ele>
        <time>2022-10-28T12:15:21Z</time>
      </trkpt>
      <trkpt lat="44.50884" lon="5.64179">
        <ele>1108.6</ele>
        <time>2022-10-28T12:15:22Z</time>
      </trkpt>
      <trkpt lat="44.50883" lon="5.6418">
        <ele>1108.6</ele>
        <time>2022-10-28T12:15:23Z</time>
      </trkpt>
      <trkpt lat="44.50882" lon="5.64181">
        <ele>1108.7</ele>
        <time>2022-10-28T12:15:24Z</time>
      </trkpt>
      <trkpt lat="44.50881" lon="5.64183">
        <ele>1108.8</ele>
        <time>2022-10-28T12:15:25Z</time>
      </trkpt>
      <trkpt lat="44.5088" lon="5.64185">
        <ele>1109</ele>
        <time>2022-10-28T12:15:26Z</time>
      </trkpt>
      <trkpt lat="44.50879" lon="5.64186">
        <ele>1109.1</ele>
        <time>2022-10-28T12:15:27Z</time>
      </trkpt>
      <trkpt lat="44.50877" lon="5.64188">
        <ele>1109.3</ele>
        <time>2022-10-28T12:15:29Z</time>
      </trkpt>
      <trkpt lat="44.50876" lon="5.64189">
        <ele>1109.4</ele>
        <time>2022-10-28T12:15:30Z</time>
      </trkpt>
      <trkpt lat="44.50873" lon="5.64192">
        <ele>1109.6</ele>
        <time>2022-10-28T12:15:32Z</time>
      </trkpt>
      <trkpt lat="44.50873" lon="5.64193">
        <ele>1109.7</ele>
        <time>2022-10-28T12:15:33Z</time>
      </trkpt>
      <trkpt lat="44.50871" lon="5.64195">
        <ele>1109.9</ele>
        <time>2022-10-28T12:15:34Z</time>
      </trkpt>
      <trkpt lat="44.5087" lon="5.64196">
        <ele>1110</ele>
        <time>2022-10-28T12:15:35Z</time>
      </trkpt>
      <trkpt lat="44.50868" lon="5.64199">
        <ele>1110.2</ele>
        <time>2022-10-28T12:15:37Z</time>
      </trkpt>
      <trkpt lat="44.50867" lon="5.642">
        <ele>1110.2</ele>
        <time>2022-10-28T12:15:38Z</time>
      </trkpt>
      <trkpt lat="44.50866" lon="5.64201">
        <ele>1110.4</ele>
        <time>2022-10-28T12:15:39Z</time>
      </trkpt>
      <trkpt lat="44.50865" lon="5.64202">
        <ele>1110.5</ele>
        <time>2022-10-28T12:15:40Z</time>
      </trkpt>
      <trkpt lat="44.50864" lon="5.64204">
        <ele>1110.6</ele>
        <time>2022-10-28T12:15:41Z</time>
      </trkpt>
      <trkpt lat="44.50863" lon="5.64205">
        <ele>1110.7</ele>
        <time>2022-10-28T12:15:42Z</time>
      </trkpt>
      <trkpt lat="44.50862" lon="5.64207">
        <ele>1110.8</ele>
        <time>2022-10-28T12:15:43Z</time>
      </trkpt>
      <trkpt lat="44.5086" lon="5.64208">
        <ele>1111</ele>
        <time>2022-10-28T12:15:44Z</time>
      </trkpt>
      <trkpt lat="44.50859" lon="5.64209">
        <ele>1111.1</ele>
        <time>2022-10-28T12:15:45Z</time>
      </trkpt>
      <trkpt lat="44.50858" lon="5.64212">
        <ele>1111.3</ele>
        <time>2022-10-28T12:15:47Z</time>
      </trkpt>
      <trkpt lat="44.50855" lon="5.64214">
        <ele>1111.5</ele>
        <time>2022-10-28T12:15:48Z</time>
      </trkpt>
      <trkpt lat="44.50855" lon="5.64215">
        <ele>1111.5</ele>
        <time>2022-10-28T12:15:49Z</time>
      </trkpt>
      <trkpt lat="44.50853" lon="5.64217">
        <ele>1111.7</ele>
        <time>2022-10-28T12:15:50Z</time>
      </trkpt>
      <trkpt lat="44.50853" lon="5.64219">
        <ele>1111.8</ele>
        <time>2022-10-28T12:15:51Z</time>
      </trkpt>
      <trkpt lat="44.50852" lon="5.6422">
        <ele>1111.9</ele>
        <time>2022-10-28T12:15:52Z</time>
      </trkpt>
      <trkpt lat="44.50851" lon="5.64222">
        <ele>1112</ele>
        <time>2022-10-28T12:15:53Z</time>
      </trkpt>
      <trkpt lat="44.5085" lon="5.64223">
        <ele>1112.1</ele>
        <time>2022-10-28T12:15:55Z</time>
      </trkpt>
      <trkpt lat="44.50848" lon="5.64225">
        <ele>1112.3</ele>
        <time>2022-10-28T12:15:56Z</time>
      </trkpt>
      <trkpt lat="44.50847" lon="5.64229">
        <ele>1112.5</ele>
        <time>2022-10-28T12:15:58Z</time>
      </trkpt>
      <trkpt lat="44.50846" lon="5.6423">
        <ele>1112.6</ele>
        <time>2022-10-28T12:15:59Z</time>
      </trkpt>
      <trkpt lat="44.50845" lon="5.64232">
        <ele>1112.7</ele>
        <time>2022-10-28T12:16:00Z</time>
      </trkpt>
      <trkpt lat="44.50844" lon="5.64234">
        <ele>1112.9</ele>
        <time>2022-10-28T12:16:01Z</time>
      </trkpt>
      <trkpt lat="44.50843" lon="5.64235">
        <ele>1113</ele>
        <time>2022-10-28T12:16:02Z</time>
      </trkpt>
      <trkpt lat="44.50842" lon="5.64237">
        <ele>1113.1</ele>
        <time>2022-10-28T12:16:03Z</time>
      </trkpt>
      <trkpt lat="44.50841" lon="5.64239">
        <ele>1113.2</ele>
        <time>2022-10-28T12:16:04Z</time>
      </trkpt>
      <trkpt lat="44.50839" lon="5.64241">
        <ele>1113.4</ele>
        <time>2022-10-28T12:16:05Z</time>
      </trkpt>
      <trkpt lat="44.50839" lon="5.64242">
        <ele>1113.5</ele>
        <time>2022-10-28T12:16:06Z</time>
      </trkpt>
      <trkpt lat="44.50838" lon="5.64243">
        <ele>1113.6</ele>
        <time>2022-10-28T12:16:07Z</time>
      </trkpt>
      <trkpt lat="44.50837" lon="5.64245">
        <ele>1113.7</ele>
        <time>2022-10-28T12:16:08Z</time>
      </trkpt>
      <trkpt lat="44.50836" lon="5.64247">
        <ele>1113.9</ele>
        <time>2022-10-28T12:16:10Z</time>
      </trkpt>
      <trkpt lat="44.50834" lon="5.64251">
        <ele>1114.1</ele>
        <time>2022-10-28T12:16:11Z</time>
      </trkpt>
      <trkpt lat="44.50834" lon="5.64252">
        <ele>1114.2</ele>
        <time>2022-10-28T12:16:12Z</time>
      </trkpt>
      <trkpt lat="44.50833" lon="5.64254">
        <ele>1114.3</ele>
        <time>2022-10-28T12:16:13Z</time>
      </trkpt>
      <trkpt lat="44.50832" lon="5.64257">
        <ele>1114.4</ele>
        <time>2022-10-28T12:16:15Z</time>
      </trkpt>
      <trkpt lat="44.5083" lon="5.6426">
        <ele>1114.7</ele>
        <time>2022-10-28T12:16:16Z</time>
      </trkpt>
      <trkpt lat="44.50829" lon="5.64261">
        <ele>1114.7</ele>
        <time>2022-10-28T12:16:17Z</time>
      </trkpt>
      <trkpt lat="44.50829" lon="5.64263">
        <ele>1114.9</ele>
        <time>2022-10-28T12:16:18Z</time>
      </trkpt>
      <trkpt lat="44.50828" lon="5.64265">
        <ele>1115</ele>
        <time>2022-10-28T12:16:19Z</time>
      </trkpt>
      <trkpt lat="44.50826" lon="5.64268">
        <ele>1115.2</ele>
        <time>2022-10-28T12:16:20Z</time>
      </trkpt>
      <trkpt lat="44.50825" lon="5.6427">
        <ele>1115.3</ele>
        <time>2022-10-28T12:16:22Z</time>
      </trkpt>
      <trkpt lat="44.50824" lon="5.64271">
        <ele>1115.4</ele>
        <time>2022-10-28T12:16:23Z</time>
      </trkpt>
      <trkpt lat="44.50823" lon="5.64273">
        <ele>1115.6</ele>
        <time>2022-10-28T12:16:24Z</time>
      </trkpt>
      <trkpt lat="44.50822" lon="5.64277">
        <ele>1115.8</ele>
        <time>2022-10-28T12:16:25Z</time>
      </trkpt>
      <trkpt lat="44.50821" lon="5.64278">
        <ele>1115.9</ele>
        <time>2022-10-28T12:16:26Z</time>
      </trkpt>
      <trkpt lat="44.5082" lon="5.6428">
        <ele>1116</ele>
        <time>2022-10-28T12:16:27Z</time>
      </trkpt>
      <trkpt lat="44.5082" lon="5.64281">
        <ele>1116.1</ele>
        <time>2022-10-28T12:16:28Z</time>
      </trkpt>
      <trkpt lat="44.50819" lon="5.64283">
        <ele>1116.2</ele>
        <time>2022-10-28T12:16:29Z</time>
      </trkpt>
      <trkpt lat="44.50819" lon="5.64285">
        <ele>1116.3</ele>
        <time>2022-10-28T12:16:30Z</time>
      </trkpt>
      <trkpt lat="44.50818" lon="5.64288">
        <ele>1116.5</ele>
        <time>2022-10-28T12:16:31Z</time>
      </trkpt>
      <trkpt lat="44.50817" lon="5.64291">
        <ele>1116.7</ele>
        <time>2022-10-28T12:16:33Z</time>
      </trkpt>
      <trkpt lat="44.50816" lon="5.64295">
        <ele>1116.9</ele>
        <time>2022-10-28T12:16:34Z</time>
      </trkpt>
      <trkpt lat="44.50816" lon="5.64296">
        <ele>1116.9</ele>
        <time>2022-10-28T12:16:35Z</time>
      </trkpt>
      <trkpt lat="44.50816" lon="5.64298">
        <ele>1117.1</ele>
        <time>2022-10-28T12:16:36Z</time>
      </trkpt>
      <trkpt lat="44.50816" lon="5.64301">
        <ele>1117.2</ele>
        <time>2022-10-28T12:16:37Z</time>
      </trkpt>
      <trkpt lat="44.50816" lon="5.64307">
        <ele>1117.6</ele>
        <time>2022-10-28T12:16:39Z</time>
      </trkpt>
      <trkpt lat="44.50817" lon="5.64309">
        <ele>1117.7</ele>
        <time>2022-10-28T12:16:40Z</time>
      </trkpt>
      <trkpt lat="44.50817" lon="5.64311">
        <ele>1117.8</ele>
        <time>2022-10-28T12:16:41Z</time>
      </trkpt>
      <trkpt lat="44.50818" lon="5.64315">
        <ele>1118</ele>
        <time>2022-10-28T12:16:43Z</time>
      </trkpt>
      <trkpt lat="44.50818" lon="5.64317">
        <ele>1118.1</ele>
        <time>2022-10-28T12:16:44Z</time>
      </trkpt>
      <trkpt lat="44.50819" lon="5.64319">
        <ele>1118.2</ele>
        <time>2022-10-28T12:16:45Z</time>
      </trkpt>
      <trkpt lat="44.50819" lon="5.64321">
        <ele>1118.3</ele>
        <time>2022-10-28T12:16:46Z</time>
      </trkpt>
      <trkpt lat="44.50819" lon="5.64325">
        <ele>1118.6</ele>
        <time>2022-10-28T12:16:48Z</time>
      </trkpt>
      <trkpt lat="44.50819" lon="5.64327">
        <ele>1118.7</ele>
        <time>2022-10-28T12:16:49Z</time>
      </trkpt>
      <trkpt lat="44.50819" lon="5.6433">
        <ele>1118.9</ele>
        <time>2022-10-28T12:16:50Z</time>
      </trkpt>
      <trkpt lat="44.50819" lon="5.64332">
        <ele>1119</ele>
        <time>2022-10-28T12:16:52Z</time>
      </trkpt>
      <trkpt lat="44.50819" lon="5.64335">
        <ele>1119.1</ele>
        <time>2022-10-28T12:16:53Z</time>
      </trkpt>
      <trkpt lat="44.50818" lon="5.64337">
        <ele>1119.2</ele>
        <time>2022-10-28T12:16:54Z</time>
      </trkpt>
      <trkpt lat="44.50817" lon="5.64339">
        <ele>1119.4</ele>
        <time>2022-10-28T12:16:55Z</time>
      </trkpt>
      <trkpt lat="44.50816" lon="5.64341">
        <ele>1119.5</ele>
        <time>2022-10-28T12:16:57Z</time>
      </trkpt>
      <trkpt lat="44.50815" lon="5.64342">
        <ele>1119.6</ele>
        <time>2022-10-28T12:16:58Z</time>
      </trkpt>
      <trkpt lat="44.50814" lon="5.64344">
        <ele>1119.7</ele>
        <time>2022-10-28T12:16:59Z</time>
      </trkpt>
      <trkpt lat="44.50813" lon="5.64346">
        <ele>1119.9</ele>
        <time>2022-10-28T12:17:00Z</time>
      </trkpt>
      <trkpt lat="44.50812" lon="5.64348">
        <ele>1120.1</ele>
        <time>2022-10-28T12:17:02Z</time>
      </trkpt>
      <trkpt lat="44.50811" lon="5.64351">
        <ele>1120.2</ele>
        <time>2022-10-28T12:17:03Z</time>
      </trkpt>
      <trkpt lat="44.5081" lon="5.64353">
        <ele>1120.3</ele>
        <time>2022-10-28T12:17:04Z</time>
      </trkpt>
      <trkpt lat="44.50809" lon="5.64355">
        <ele>1120.5</ele>
        <time>2022-10-28T12:17:05Z</time>
      </trkpt>
      <trkpt lat="44.50808" lon="5.64357">
        <ele>1120.6</ele>
        <time>2022-10-28T12:17:07Z</time>
      </trkpt>
      <trkpt lat="44.50806" lon="5.6436">
        <ele>1120.9</ele>
        <time>2022-10-28T12:17:08Z</time>
      </trkpt>
      <trkpt lat="44.50805" lon="5.64362">
        <ele>1121</ele>
        <time>2022-10-28T12:17:09Z</time>
      </trkpt>
      <trkpt lat="44.50802" lon="5.64365">
        <ele>1121.2</ele>
        <time>2022-10-28T12:17:10Z</time>
      </trkpt>
      <trkpt lat="44.50801" lon="5.64366">
        <ele>1121.3</ele>
        <time>2022-10-28T12:17:11Z</time>
      </trkpt>
      <trkpt lat="44.508" lon="5.64368">
        <ele>1121.5</ele>
        <time>2022-10-28T12:17:12Z</time>
      </trkpt>
      <trkpt lat="44.50799" lon="5.64369">
        <ele>1121.6</ele>
        <time>2022-10-28T12:17:13Z</time>
      </trkpt>
      <trkpt lat="44.50798" lon="5.6437">
        <ele>1121.7</ele>
        <time>2022-10-28T12:17:14Z</time>
      </trkpt>
      <trkpt lat="44.50797" lon="5.64371">
        <ele>1121.8</ele>
        <time>2022-10-28T12:17:15Z</time>
      </trkpt>
      <trkpt lat="44.50795" lon="5.64374">
        <ele>1122</ele>
        <time>2022-10-28T12:17:17Z</time>
      </trkpt>
      <trkpt lat="44.50794" lon="5.64375">
        <ele>1122.1</ele>
        <time>2022-10-28T12:17:18Z</time>
      </trkpt>
      <trkpt lat="44.50793" lon="5.64377">
        <ele>1122.2</ele>
        <time>2022-10-28T12:17:19Z</time>
      </trkpt>
      <trkpt lat="44.50792" lon="5.64378">
        <ele>1122.3</ele>
        <time>2022-10-28T12:17:20Z</time>
      </trkpt>
      <trkpt lat="44.5079" lon="5.64379">
        <ele>1122.5</ele>
        <time>2022-10-28T12:17:21Z</time>
      </trkpt>
      <trkpt lat="44.50788" lon="5.64381">
        <ele>1122.7</ele>
        <time>2022-10-28T12:17:23Z</time>
      </trkpt>
      <trkpt lat="44.50786" lon="5.64384">
        <ele>1122.9</ele>
        <time>2022-10-28T12:17:24Z</time>
      </trkpt>
      <trkpt lat="44.50785" lon="5.64385">
        <ele>1123</ele>
        <time>2022-10-28T12:17:25Z</time>
      </trkpt>
      <trkpt lat="44.50783" lon="5.64387">
        <ele>1123.2</ele>
        <time>2022-10-28T12:17:26Z</time>
      </trkpt>
      <trkpt lat="44.50782" lon="5.64387">
        <ele>1123.2</ele>
        <time>2022-10-28T12:17:27Z</time>
      </trkpt>
      <trkpt lat="44.50782" lon="5.64388">
        <ele>1123.3</ele>
        <time>2022-10-28T12:17:28Z</time>
      </trkpt>
      <trkpt lat="44.5078" lon="5.6439">
        <ele>1123.5</ele>
        <time>2022-10-28T12:17:29Z</time>
      </trkpt>
      <trkpt lat="44.50778" lon="5.64391">
        <ele>1123.6</ele>
        <time>2022-10-28T12:17:31Z</time>
      </trkpt>
      <trkpt lat="44.50776" lon="5.64393">
        <ele>1123.8</ele>
        <time>2022-10-28T12:17:32Z</time>
      </trkpt>
      <trkpt lat="44.50775" lon="5.64393">
        <ele>1123.9</ele>
        <time>2022-10-28T12:17:33Z</time>
      </trkpt>
      <trkpt lat="44.50773" lon="5.64394">
        <ele>1124.1</ele>
        <time>2022-10-28T12:17:34Z</time>
      </trkpt>
      <trkpt lat="44.50772" lon="5.64394">
        <ele>1124.2</ele>
        <time>2022-10-28T12:17:35Z</time>
      </trkpt>
      <trkpt lat="44.50769" lon="5.64396">
        <ele>1124.4</ele>
        <time>2022-10-28T12:17:36Z</time>
      </trkpt>
      <trkpt lat="44.50768" lon="5.64396">
        <ele>1124.5</ele>
        <time>2022-10-28T12:17:38Z</time>
      </trkpt>
      <trkpt lat="44.50766" lon="5.64397">
        <ele>1124.6</ele>
        <time>2022-10-28T12:17:39Z</time>
      </trkpt>
      <trkpt lat="44.50765" lon="5.64398">
        <ele>1124.7</ele>
        <time>2022-10-28T12:17:40Z</time>
      </trkpt>
      <trkpt lat="44.50764" lon="5.64398">
        <ele>1124.8</ele>
        <time>2022-10-28T12:17:41Z</time>
      </trkpt>
      <trkpt lat="44.50762" lon="5.64399">
        <ele>1125</ele>
        <time>2022-10-28T12:17:42Z</time>
      </trkpt>
      <trkpt lat="44.50759" lon="5.64401">
        <ele>1125.2</ele>
        <time>2022-10-28T12:17:44Z</time>
      </trkpt>
      <trkpt lat="44.50758" lon="5.64401">
        <ele>1125.3</ele>
        <time>2022-10-28T12:17:45Z</time>
      </trkpt>
      <trkpt lat="44.50755" lon="5.64403">
        <ele>1125.5</ele>
        <time>2022-10-28T12:17:46Z</time>
      </trkpt>
      <trkpt lat="44.50754" lon="5.64404">
        <ele>1125.7</ele>
        <time>2022-10-28T12:17:47Z</time>
      </trkpt>
      <trkpt lat="44.50752" lon="5.64405">
        <ele>1125.8</ele>
        <time>2022-10-28T12:17:49Z</time>
      </trkpt>
      <trkpt lat="44.5075" lon="5.64406">
        <ele>1126</ele>
        <time>2022-10-28T12:17:50Z</time>
      </trkpt>
      <trkpt lat="44.50748" lon="5.64407">
        <ele>1126.1</ele>
        <time>2022-10-28T12:17:51Z</time>
      </trkpt>
      <trkpt lat="44.50745" lon="5.64409">
        <ele>1126.3</ele>
        <time>2022-10-28T12:17:52Z</time>
      </trkpt>
      <trkpt lat="44.50745" lon="5.64409">
        <ele>1126.4</ele>
        <time>2022-10-28T12:17:53Z</time>
      </trkpt>
      <trkpt lat="44.50742" lon="5.64411">
        <ele>1126.6</ele>
        <time>2022-10-28T12:17:54Z</time>
      </trkpt>
      <trkpt lat="44.50741" lon="5.64412">
        <ele>1126.7</ele>
        <time>2022-10-28T12:17:56Z</time>
      </trkpt>
      <trkpt lat="44.50739" lon="5.64413">
        <ele>1126.9</ele>
        <time>2022-10-28T12:17:57Z</time>
      </trkpt>
      <trkpt lat="44.50738" lon="5.64414">
        <ele>1127</ele>
        <time>2022-10-28T12:17:58Z</time>
      </trkpt>
      <trkpt lat="44.50735" lon="5.64416">
        <ele>1127.2</ele>
        <time>2022-10-28T12:17:59Z</time>
      </trkpt>
      <trkpt lat="44.50735" lon="5.64416">
        <ele>1127.3</ele>
        <time>2022-10-28T12:18:00Z</time>
      </trkpt>
      <trkpt lat="44.50732" lon="5.64418">
        <ele>1127.5</ele>
        <time>2022-10-28T12:18:01Z</time>
      </trkpt>
      <trkpt lat="44.50731" lon="5.64419">
        <ele>1127.6</ele>
        <time>2022-10-28T12:18:03Z</time>
      </trkpt>
      <trkpt lat="44.5073" lon="5.6442">
        <ele>1127.7</ele>
        <time>2022-10-28T12:18:04Z</time>
      </trkpt>
      <trkpt lat="44.50728" lon="5.64421">
        <ele>1127.8</ele>
        <time>2022-10-28T12:18:05Z</time>
      </trkpt>
      <trkpt lat="44.50727" lon="5.64422">
        <ele>1127.9</ele>
        <time>2022-10-28T12:18:06Z</time>
      </trkpt>
      <trkpt lat="44.50726" lon="5.64423">
        <ele>1128.1</ele>
        <time>2022-10-28T12:18:07Z</time>
      </trkpt>
      <trkpt lat="44.50724" lon="5.64424">
        <ele>1128.2</ele>
        <time>2022-10-28T12:18:08Z</time>
      </trkpt>
      <trkpt lat="44.50723" lon="5.64425">
        <ele>1128.3</ele>
        <time>2022-10-28T12:18:09Z</time>
      </trkpt>
      <trkpt lat="44.5072" lon="5.64428">
        <ele>1128.5</ele>
        <time>2022-10-28T12:18:11Z</time>
      </trkpt>
      <trkpt lat="44.5072" lon="5.64429">
        <ele>1128.6</ele>
        <time>2022-10-28T12:18:12Z</time>
      </trkpt>
      <trkpt lat="44.50718" lon="5.6443">
        <ele>1128.7</ele>
        <time>2022-10-28T12:18:13Z</time>
      </trkpt>
      <trkpt lat="44.50718" lon="5.64431">
        <ele>1128.8</ele>
        <time>2022-10-28T12:18:14Z</time>
      </trkpt>
      <trkpt lat="44.50717" lon="5.64432">
        <ele>1128.9</ele>
        <time>2022-10-28T12:18:15Z</time>
      </trkpt>
      <trkpt lat="44.50716" lon="5.64434">
        <ele>1129</ele>
        <time>2022-10-28T12:18:16Z</time>
      </trkpt>
      <trkpt lat="44.50715" lon="5.64436">
        <ele>1129.2</ele>
        <time>2022-10-28T12:18:17Z</time>
      </trkpt>
      <trkpt lat="44.50712" lon="5.64439">
        <ele>1129.4</ele>
        <time>2022-10-28T12:18:19Z</time>
      </trkpt>
      <trkpt lat="44.50711" lon="5.6444">
        <ele>1129.5</ele>
        <time>2022-10-28T12:18:20Z</time>
      </trkpt>
      <trkpt lat="44.50709" lon="5.64443">
        <ele>1129.7</ele>
        <time>2022-10-28T12:18:22Z</time>
      </trkpt>
      <trkpt lat="44.50708" lon="5.64443">
        <ele>1129.8</ele>
        <time>2022-10-28T12:18:23Z</time>
      </trkpt>
      <trkpt lat="44.50707" lon="5.64445">
        <ele>1130</ele>
        <time>2022-10-28T12:18:24Z</time>
      </trkpt>
      <trkpt lat="44.50706" lon="5.64447">
        <ele>1130.1</ele>
        <time>2022-10-28T12:18:25Z</time>
      </trkpt>
      <trkpt lat="44.50704" lon="5.64449">
        <ele>1130.3</ele>
        <time>2022-10-28T12:18:26Z</time>
      </trkpt>
      <trkpt lat="44.50703" lon="5.6445">
        <ele>1130.3</ele>
        <time>2022-10-28T12:18:27Z</time>
      </trkpt>
      <trkpt lat="44.50702" lon="5.64451">
        <ele>1130.5</ele>
        <time>2022-10-28T12:18:28Z</time>
      </trkpt>
      <trkpt lat="44.50701" lon="5.64453">
        <ele>1130.6</ele>
        <time>2022-10-28T12:18:29Z</time>
      </trkpt>
      <trkpt lat="44.50699" lon="5.64456">
        <ele>1130.8</ele>
        <time>2022-10-28T12:18:31Z</time>
      </trkpt>
      <trkpt lat="44.50698" lon="5.64457">
        <ele>1130.9</ele>
        <time>2022-10-28T12:18:32Z</time>
      </trkpt>
      <trkpt lat="44.50697" lon="5.64458">
        <ele>1131</ele>
        <time>2022-10-28T12:18:33Z</time>
      </trkpt>
      <trkpt lat="44.50695" lon="5.64459">
        <ele>1131.1</ele>
        <time>2022-10-28T12:18:34Z</time>
      </trkpt>
      <trkpt lat="44.50694" lon="5.64462">
        <ele>1131.3</ele>
        <time>2022-10-28T12:18:35Z</time>
      </trkpt>
      <trkpt lat="44.50693" lon="5.64463">
        <ele>1131.4</ele>
        <time>2022-10-28T12:18:36Z</time>
      </trkpt>
      <trkpt lat="44.50693" lon="5.64464">
        <ele>1131.5</ele>
        <time>2022-10-28T12:18:37Z</time>
      </trkpt>
      <trkpt lat="44.50691" lon="5.64466">
        <ele>1131.6</ele>
        <time>2022-10-28T12:18:38Z</time>
      </trkpt>
      <trkpt lat="44.5069" lon="5.64468">
        <ele>1131.8</ele>
        <time>2022-10-28T12:18:40Z</time>
      </trkpt>
      <trkpt lat="44.50689" lon="5.64472">
        <ele>1132</ele>
        <time>2022-10-28T12:18:41Z</time>
      </trkpt>
      <trkpt lat="44.50688" lon="5.64473">
        <ele>1132.1</ele>
        <time>2022-10-28T12:18:42Z</time>
      </trkpt>
      <trkpt lat="44.50686" lon="5.64477">
        <ele>1132.4</ele>
        <time>2022-10-28T12:18:44Z</time>
      </trkpt>
      <trkpt lat="44.50685" lon="5.64478">
        <ele>1132.5</ele>
        <time>2022-10-28T12:18:45Z</time>
      </trkpt>
      <trkpt lat="44.50683" lon="5.64481">
        <ele>1132.7</ele>
        <time>2022-10-28T12:18:47Z</time>
      </trkpt>
      <trkpt lat="44.50683" lon="5.64482">
        <ele>1132.8</ele>
        <time>2022-10-28T12:18:48Z</time>
      </trkpt>
      <trkpt lat="44.50682" lon="5.64485">
        <ele>1132.9</ele>
        <time>2022-10-28T12:18:49Z</time>
      </trkpt>
      <trkpt lat="44.50681" lon="5.64487">
        <ele>1133</ele>
        <time>2022-10-28T12:18:50Z</time>
      </trkpt>
      <trkpt lat="44.5068" lon="5.64488">
        <ele>1133.1</ele>
        <time>2022-10-28T12:18:51Z</time>
      </trkpt>
      <trkpt lat="44.50679" lon="5.6449">
        <ele>1133.3</ele>
        <time>2022-10-28T12:18:52Z</time>
      </trkpt>
      <trkpt lat="44.50677" lon="5.64493">
        <ele>1133.5</ele>
        <time>2022-10-28T12:18:54Z</time>
      </trkpt>
      <trkpt lat="44.50676" lon="5.64494">
        <ele>1133.6</ele>
        <time>2022-10-28T12:18:55Z</time>
      </trkpt>
      <trkpt lat="44.50675" lon="5.64496">
        <ele>1133.7</ele>
        <time>2022-10-28T12:18:56Z</time>
      </trkpt>
      <trkpt lat="44.50673" lon="5.64498">
        <ele>1133.9</ele>
        <time>2022-10-28T12:18:58Z</time>
      </trkpt>
      <trkpt lat="44.50672" lon="5.645">
        <ele>1134</ele>
        <time>2022-10-28T12:18:59Z</time>
      </trkpt>
      <trkpt lat="44.50671" lon="5.64501">
        <ele>1134.1</ele>
        <time>2022-10-28T12:19:00Z</time>
      </trkpt>
      <trkpt lat="44.5067" lon="5.64503">
        <ele>1134.3</ele>
        <time>2022-10-28T12:19:01Z</time>
      </trkpt>
      <trkpt lat="44.50669" lon="5.64504">
        <ele>1134.4</ele>
        <time>2022-10-28T12:19:02Z</time>
      </trkpt>
      <trkpt lat="44.50668" lon="5.64505">
        <ele>1134.4</ele>
        <time>2022-10-28T12:19:03Z</time>
      </trkpt>
      <trkpt lat="44.50667" lon="5.64506">
        <ele>1134.6</ele>
        <time>2022-10-28T12:19:04Z</time>
      </trkpt>
      <trkpt lat="44.50666" lon="5.64507">
        <ele>1134.6</ele>
        <time>2022-10-28T12:19:05Z</time>
      </trkpt>
      <trkpt lat="44.50665" lon="5.64507">
        <ele>1134.7</ele>
        <time>2022-10-28T12:19:06Z</time>
      </trkpt>
      <trkpt lat="44.50663" lon="5.64509">
        <ele>1135.1</ele>
        <time>2022-10-28T12:19:07Z</time>
      </trkpt>
      <trkpt lat="44.50662" lon="5.64509">
        <ele>1135.1</ele>
        <time>2022-10-28T12:19:08Z</time>
      </trkpt>
      <trkpt lat="44.50662" lon="5.6451">
        <ele>1135.2</ele>
        <time>2022-10-28T12:19:09Z</time>
      </trkpt>
      <trkpt lat="44.5066" lon="5.6451">
        <ele>1135.3</ele>
        <time>2022-10-28T12:19:10Z</time>
      </trkpt>
      <trkpt lat="44.50659" lon="5.64511">
        <ele>1135.5</ele>
        <time>2022-10-28T12:19:11Z</time>
      </trkpt>
      <trkpt lat="44.50657" lon="5.64511">
        <ele>1135.7</ele>
        <time>2022-10-28T12:19:12Z</time>
      </trkpt>
      <trkpt lat="44.50656" lon="5.64511">
        <ele>1135.8</ele>
        <time>2022-10-28T12:19:13Z</time>
      </trkpt>
      <trkpt lat="44.50655" lon="5.64511">
        <ele>1135.9</ele>
        <time>2022-10-28T12:19:14Z</time>
      </trkpt>
      <trkpt lat="44.50653" lon="5.64511">
        <ele>1136</ele>
        <time>2022-10-28T12:19:16Z</time>
      </trkpt>
      <trkpt lat="44.50652" lon="5.6451">
        <ele>1136.1</ele>
        <time>2022-10-28T12:19:17Z</time>
      </trkpt>
      <trkpt lat="44.50651" lon="5.64508">
        <ele>1136.3</ele>
        <time>2022-10-28T12:19:18Z</time>
      </trkpt>
      <trkpt lat="44.5065" lon="5.64507">
        <ele>1136.3</ele>
        <time>2022-10-28T12:19:19Z</time>
      </trkpt>
      <trkpt lat="44.50649" lon="5.64506">
        <ele>1136.4</ele>
        <time>2022-10-28T12:19:20Z</time>
      </trkpt>
      <trkpt lat="44.50647" lon="5.64503">
        <ele>1136.6</ele>
        <time>2022-10-28T12:19:21Z</time>
      </trkpt>
      <trkpt lat="44.50647" lon="5.64501">
        <ele>1136.8</ele>
        <time>2022-10-28T12:19:23Z</time>
      </trkpt>
      <trkpt lat="44.50646" lon="5.64498">
        <ele>1136.9</ele>
        <time>2022-10-28T12:19:24Z</time>
      </trkpt>
      <trkpt lat="44.50645" lon="5.64495">
        <ele>1137</ele>
        <time>2022-10-28T12:19:25Z</time>
      </trkpt>
      <trkpt lat="44.50647" lon="5.6449">
        <ele>1137.2</ele>
        <time>2022-10-28T12:19:26Z</time>
      </trkpt>
      <trkpt lat="44.50648" lon="5.64488">
        <ele>1137.3</ele>
        <time>2022-10-28T12:19:27Z</time>
      </trkpt>
      <trkpt lat="44.5065" lon="5.64485">
        <ele>1137.5</ele>
        <time>2022-10-28T12:19:28Z</time>
      </trkpt>
      <trkpt lat="44.50651" lon="5.64481">
        <ele>1137.6</ele>
        <time>2022-10-28T12:19:30Z</time>
      </trkpt>
      <trkpt lat="44.50652" lon="5.64479">
        <ele>1137.7</ele>
        <time>2022-10-28T12:19:31Z</time>
      </trkpt>
      <trkpt lat="44.50654" lon="5.64475">
        <ele>1137.9</ele>
        <time>2022-10-28T12:19:32Z</time>
      </trkpt>
      <trkpt lat="44.50654" lon="5.64473">
        <ele>1138</ele>
        <time>2022-10-28T12:19:33Z</time>
      </trkpt>
      <trkpt lat="44.50656" lon="5.64472">
        <ele>1138.1</ele>
        <time>2022-10-28T12:19:34Z</time>
      </trkpt>
      <trkpt lat="44.50656" lon="5.64469">
        <ele>1138.2</ele>
        <time>2022-10-28T12:19:35Z</time>
      </trkpt>
      <trkpt lat="44.50658" lon="5.64466">
        <ele>1138.4</ele>
        <time>2022-10-28T12:19:37Z</time>
      </trkpt>
      <trkpt lat="44.50658" lon="5.64465">
        <ele>1138.4</ele>
        <time>2022-10-28T12:19:38Z</time>
      </trkpt>
      <trkpt lat="44.50661" lon="5.64462">
        <ele>1138.6</ele>
        <time>2022-10-28T12:19:40Z</time>
      </trkpt>
      <trkpt lat="44.50662" lon="5.64461">
        <ele>1138.7</ele>
        <time>2022-10-28T12:19:41Z</time>
      </trkpt>
      <trkpt lat="44.50663" lon="5.64457">
        <ele>1138.9</ele>
        <time>2022-10-28T12:19:42Z</time>
      </trkpt>
      <trkpt lat="44.50664" lon="5.64453">
        <ele>1139.1</ele>
        <time>2022-10-28T12:19:43Z</time>
      </trkpt>
      <trkpt lat="44.50665" lon="5.64451">
        <ele>1139.2</ele>
        <time>2022-10-28T12:19:44Z</time>
      </trkpt>
      <trkpt lat="44.50667" lon="5.64447">
        <ele>1139.4</ele>
        <time>2022-10-28T12:19:46Z</time>
      </trkpt>
      <trkpt lat="44.50668" lon="5.64446">
        <ele>1139.5</ele>
        <time>2022-10-28T12:19:47Z</time>
      </trkpt>
      <trkpt lat="44.50669" lon="5.64443">
        <ele>1139.7</ele>
        <time>2022-10-28T12:19:48Z</time>
      </trkpt>
      <trkpt lat="44.50672" lon="5.64439">
        <ele>1139.9</ele>
        <time>2022-10-28T12:19:49Z</time>
      </trkpt>
      <trkpt lat="44.50673" lon="5.64438">
        <ele>1140</ele>
        <time>2022-10-28T12:19:50Z</time>
      </trkpt>
      <trkpt lat="44.50674" lon="5.64436">
        <ele>1140.1</ele>
        <time>2022-10-28T12:19:51Z</time>
      </trkpt>
      <trkpt lat="44.50676" lon="5.64431">
        <ele>1140.3</ele>
        <time>2022-10-28T12:19:53Z</time>
      </trkpt>
      <trkpt lat="44.50676" lon="5.64429">
        <ele>1140.4</ele>
        <time>2022-10-28T12:19:54Z</time>
      </trkpt>
      <trkpt lat="44.50676" lon="5.64428">
        <ele>1140.5</ele>
        <time>2022-10-28T12:19:55Z</time>
      </trkpt>
      <trkpt lat="44.50679" lon="5.64423">
        <ele>1140.8</ele>
        <time>2022-10-28T12:19:57Z</time>
      </trkpt>
      <trkpt lat="44.5068" lon="5.64422">
        <ele>1140.9</ele>
        <time>2022-10-28T12:19:58Z</time>
      </trkpt>
      <trkpt lat="44.5068" lon="5.64419">
        <ele>1141</ele>
        <time>2022-10-28T12:19:59Z</time>
      </trkpt>
      <trkpt lat="44.50681" lon="5.64418">
        <ele>1141.1</ele>
        <time>2022-10-28T12:20:00Z</time>
      </trkpt>
      <trkpt lat="44.50681" lon="5.64417">
        <ele>1141.1</ele>
        <time>2022-10-28T12:20:01Z</time>
      </trkpt>
      <trkpt lat="44.50681" lon="5.64415">
        <ele>1141.2</ele>
        <time>2022-10-28T12:20:02Z</time>
      </trkpt>
      <trkpt lat="44.50683" lon="5.64413">
        <ele>1141.4</ele>
        <time>2022-10-28T12:20:04Z</time>
      </trkpt>
      <trkpt lat="44.50684" lon="5.64408">
        <ele>1141.6</ele>
        <time>2022-10-28T12:20:05Z</time>
      </trkpt>
      <trkpt lat="44.50685" lon="5.64407">
        <ele>1141.7</ele>
        <time>2022-10-28T12:20:06Z</time>
      </trkpt>
      <trkpt lat="44.50686" lon="5.64405">
        <ele>1141.8</ele>
        <time>2022-10-28T12:20:07Z</time>
      </trkpt>
      <trkpt lat="44.50687" lon="5.64403">
        <ele>1141.9</ele>
        <time>2022-10-28T12:20:08Z</time>
      </trkpt>
      <trkpt lat="44.50688" lon="5.644">
        <ele>1142</ele>
        <time>2022-10-28T12:20:09Z</time>
      </trkpt>
      <trkpt lat="44.50688" lon="5.64396">
        <ele>1142.2</ele>
        <time>2022-10-28T12:20:11Z</time>
      </trkpt>
      <trkpt lat="44.50688" lon="5.64391">
        <ele>1142.4</ele>
        <time>2022-10-28T12:20:12Z</time>
      </trkpt>
      <trkpt lat="44.50688" lon="5.6439">
        <ele>1142.5</ele>
        <time>2022-10-28T12:20:13Z</time>
      </trkpt>
      <trkpt lat="44.50687" lon="5.64387">
        <ele>1142.6</ele>
        <time>2022-10-28T12:20:14Z</time>
      </trkpt>
      <trkpt lat="44.50686" lon="5.64386">
        <ele>1142.7</ele>
        <time>2022-10-28T12:20:15Z</time>
      </trkpt>
      <trkpt lat="44.50683" lon="5.64384">
        <ele>1142.9</ele>
        <time>2022-10-28T12:20:16Z</time>
      </trkpt>
      <trkpt lat="44.50683" lon="5.64383">
        <ele>1142.9</ele>
        <time>2022-10-28T12:20:17Z</time>
      </trkpt>
      <trkpt lat="44.50681" lon="5.64383">
        <ele>1143.1</ele>
        <time>2022-10-28T12:20:18Z</time>
      </trkpt>
      <trkpt lat="44.50679" lon="5.64383">
        <ele>1143.2</ele>
        <time>2022-10-28T12:20:20Z</time>
      </trkpt>
      <trkpt lat="44.50676" lon="5.64385">
        <ele>1143.4</ele>
        <time>2022-10-28T12:20:21Z</time>
      </trkpt>
      <trkpt lat="44.50675" lon="5.64386">
        <ele>1143.4</ele>
        <time>2022-10-28T12:20:22Z</time>
      </trkpt>
      <trkpt lat="44.50674" lon="5.64389">
        <ele>1143.6</ele>
        <time>2022-10-28T12:20:23Z</time>
      </trkpt>
      <trkpt lat="44.50672" lon="5.64393">
        <ele>1143.8</ele>
        <time>2022-10-28T12:20:24Z</time>
      </trkpt>
      <trkpt lat="44.50671" lon="5.64394">
        <ele>1143.9</ele>
        <time>2022-10-28T12:20:25Z</time>
      </trkpt>
      <trkpt lat="44.50669" lon="5.64397">
        <ele>1144</ele>
        <time>2022-10-28T12:20:26Z</time>
      </trkpt>
      <trkpt lat="44.50668" lon="5.644">
        <ele>1144.1</ele>
        <time>2022-10-28T12:20:28Z</time>
      </trkpt>
      <trkpt lat="44.50666" lon="5.64404">
        <ele>1144.4</ele>
        <time>2022-10-28T12:20:29Z</time>
      </trkpt>
      <trkpt lat="44.50665" lon="5.64405">
        <ele>1144.5</ele>
        <time>2022-10-28T12:20:30Z</time>
      </trkpt>
      <trkpt lat="44.50663" lon="5.64409">
        <ele>1144.7</ele>
        <time>2022-10-28T12:20:31Z</time>
      </trkpt>
      <trkpt lat="44.50662" lon="5.6441">
        <ele>1144.8</ele>
        <time>2022-10-28T12:20:32Z</time>
      </trkpt>
      <trkpt lat="44.5066" lon="5.64412">
        <ele>1144.9</ele>
        <time>2022-10-28T12:20:33Z</time>
      </trkpt>
      <trkpt lat="44.50659" lon="5.64414">
        <ele>1145</ele>
        <time>2022-10-28T12:20:35Z</time>
      </trkpt>
      <trkpt lat="44.50657" lon="5.64416">
        <ele>1145.2</ele>
        <time>2022-10-28T12:20:36Z</time>
      </trkpt>
      <trkpt lat="44.50656" lon="5.64417">
        <ele>1145.3</ele>
        <time>2022-10-28T12:20:37Z</time>
      </trkpt>
      <trkpt lat="44.50655" lon="5.6442">
        <ele>1145.5</ele>
        <time>2022-10-28T12:20:38Z</time>
      </trkpt>
      <trkpt lat="44.50654" lon="5.64422">
        <ele>1145.6</ele>
        <time>2022-10-28T12:20:39Z</time>
      </trkpt>
      <trkpt lat="44.50652" lon="5.64424">
        <ele>1145.8</ele>
        <time>2022-10-28T12:20:41Z</time>
      </trkpt>
      <trkpt lat="44.50651" lon="5.64425">
        <ele>1145.8</ele>
        <time>2022-10-28T12:20:42Z</time>
      </trkpt>
      <trkpt lat="44.5065" lon="5.64428">
        <ele>1146</ele>
        <time>2022-10-28T12:20:43Z</time>
      </trkpt>
      <trkpt lat="44.50649" lon="5.64429">
        <ele>1146.1</ele>
        <time>2022-10-28T12:20:44Z</time>
      </trkpt>
      <trkpt lat="44.50649" lon="5.6443">
        <ele>1146.1</ele>
        <time>2022-10-28T12:20:45Z</time>
      </trkpt>
      <trkpt lat="44.50646" lon="5.64433">
        <ele>1146.4</ele>
        <time>2022-10-28T12:20:47Z</time>
      </trkpt>
      <trkpt lat="44.50645" lon="5.64434">
        <ele>1146.5</ele>
        <time>2022-10-28T12:20:48Z</time>
      </trkpt>
      <trkpt lat="44.50645" lon="5.64437">
        <ele>1146.6</ele>
        <time>2022-10-28T12:20:49Z</time>
      </trkpt>
      <trkpt lat="44.50643" lon="5.64439">
        <ele>1146.8</ele>
        <time>2022-10-28T12:20:51Z</time>
      </trkpt>
      <trkpt lat="44.50643" lon="5.64441">
        <ele>1146.9</ele>
        <time>2022-10-28T12:20:52Z</time>
      </trkpt>
      <trkpt lat="44.50642" lon="5.64444">
        <ele>1147.1</ele>
        <time>2022-10-28T12:20:53Z</time>
      </trkpt>
      <trkpt lat="44.5064" lon="5.64445">
        <ele>1147.2</ele>
        <time>2022-10-28T12:20:54Z</time>
      </trkpt>
      <trkpt lat="44.50639" lon="5.64447">
        <ele>1147.3</ele>
        <time>2022-10-28T12:20:55Z</time>
      </trkpt>
      <trkpt lat="44.50638" lon="5.64449">
        <ele>1147.5</ele>
        <time>2022-10-28T12:20:56Z</time>
      </trkpt>
      <trkpt lat="44.50637" lon="5.6445">
        <ele>1147.6</ele>
        <time>2022-10-28T12:20:57Z</time>
      </trkpt>
      <trkpt lat="44.50636" lon="5.64452">
        <ele>1147.7</ele>
        <time>2022-10-28T12:20:58Z</time>
      </trkpt>
      <trkpt lat="44.50634" lon="5.64455">
        <ele>1147.9</ele>
        <time>2022-10-28T12:21:00Z</time>
      </trkpt>
      <trkpt lat="44.50632" lon="5.64458">
        <ele>1148.2</ele>
        <time>2022-10-28T12:21:02Z</time>
      </trkpt>
      <trkpt lat="44.50631" lon="5.6446">
        <ele>1148.3</ele>
        <time>2022-10-28T12:21:03Z</time>
      </trkpt>
      <trkpt lat="44.5063" lon="5.64462">
        <ele>1148.4</ele>
        <time>2022-10-28T12:21:04Z</time>
      </trkpt>
      <trkpt lat="44.50628" lon="5.64465">
        <ele>1148.6</ele>
        <time>2022-10-28T12:21:05Z</time>
      </trkpt>
      <trkpt lat="44.50627" lon="5.64466">
        <ele>1148.7</ele>
        <time>2022-10-28T12:21:06Z</time>
      </trkpt>
      <trkpt lat="44.50625" lon="5.6447">
        <ele>1148.9</ele>
        <time>2022-10-28T12:21:08Z</time>
      </trkpt>
      <trkpt lat="44.50625" lon="5.64471">
        <ele>1149</ele>
        <time>2022-10-28T12:21:09Z</time>
      </trkpt>
      <trkpt lat="44.50622" lon="5.64475">
        <ele>1149.3</ele>
        <time>2022-10-28T12:21:11Z</time>
      </trkpt>
      <trkpt lat="44.50621" lon="5.64477">
        <ele>1149.4</ele>
        <time>2022-10-28T12:21:12Z</time>
      </trkpt>
      <trkpt lat="44.5062" lon="5.64479">
        <ele>1149.6</ele>
        <time>2022-10-28T12:21:13Z</time>
      </trkpt>
      <trkpt lat="44.50619" lon="5.64481">
        <ele>1149.7</ele>
        <time>2022-10-28T12:21:14Z</time>
      </trkpt>
      <trkpt lat="44.50618" lon="5.64483">
        <ele>1149.8</ele>
        <time>2022-10-28T12:21:16Z</time>
      </trkpt>
      <trkpt lat="44.50615" lon="5.64485">
        <ele>1150</ele>
        <time>2022-10-28T12:21:17Z</time>
      </trkpt>
      <trkpt lat="44.50615" lon="5.64486">
        <ele>1150.1</ele>
        <time>2022-10-28T12:21:18Z</time>
      </trkpt>
      <trkpt lat="44.50613" lon="5.64488">
        <ele>1150.2</ele>
        <time>2022-10-28T12:21:19Z</time>
      </trkpt>
      <trkpt lat="44.50612" lon="5.64489">
        <ele>1150.3</ele>
        <time>2022-10-28T12:21:20Z</time>
      </trkpt>
      <trkpt lat="44.50611" lon="5.64491">
        <ele>1150.5</ele>
        <time>2022-10-28T12:21:21Z</time>
      </trkpt>
      <trkpt lat="44.5061" lon="5.64493">
        <ele>1150.6</ele>
        <time>2022-10-28T12:21:22Z</time>
      </trkpt>
      <trkpt lat="44.50607" lon="5.64495">
        <ele>1150.8</ele>
        <time>2022-10-28T12:21:24Z</time>
      </trkpt>
      <trkpt lat="44.50606" lon="5.64497">
        <ele>1150.9</ele>
        <time>2022-10-28T12:21:25Z</time>
      </trkpt>
      <trkpt lat="44.50605" lon="5.64498">
        <ele>1151.1</ele>
        <time>2022-10-28T12:21:26Z</time>
      </trkpt>
      <trkpt lat="44.50603" lon="5.645">
        <ele>1151.2</ele>
        <time>2022-10-28T12:21:28Z</time>
      </trkpt>
      <trkpt lat="44.50601" lon="5.64502">
        <ele>1151.4</ele>
        <time>2022-10-28T12:21:29Z</time>
      </trkpt>
      <trkpt lat="44.506" lon="5.64503">
        <ele>1151.5</ele>
        <time>2022-10-28T12:21:30Z</time>
      </trkpt>
      <trkpt lat="44.50599" lon="5.64504">
        <ele>1151.6</ele>
        <time>2022-10-28T12:21:31Z</time>
      </trkpt>
      <trkpt lat="44.50597" lon="5.64505">
        <ele>1151.8</ele>
        <time>2022-10-28T12:21:32Z</time>
      </trkpt>
      <trkpt lat="44.50594" lon="5.64507">
        <ele>1152.1</ele>
        <time>2022-10-28T12:21:34Z</time>
      </trkpt>
      <trkpt lat="44.50593" lon="5.64508">
        <ele>1152.2</ele>
        <time>2022-10-28T12:21:35Z</time>
      </trkpt>
      <trkpt lat="44.50591" lon="5.64509">
        <ele>1152.3</ele>
        <time>2022-10-28T12:21:37Z</time>
      </trkpt>
      <trkpt lat="44.5059" lon="5.64509">
        <ele>1152.4</ele>
        <time>2022-10-28T12:21:38Z</time>
      </trkpt>
      <trkpt lat="44.50588" lon="5.64511">
        <ele>1152.6</ele>
        <time>2022-10-28T12:21:39Z</time>
      </trkpt>
      <trkpt lat="44.50587" lon="5.64512">
        <ele>1152.7</ele>
        <time>2022-10-28T12:21:40Z</time>
      </trkpt>
      <trkpt lat="44.50585" lon="5.64513">
        <ele>1152.9</ele>
        <time>2022-10-28T12:21:41Z</time>
      </trkpt>
      <trkpt lat="44.50583" lon="5.64515">
        <ele>1153.1</ele>
        <time>2022-10-28T12:21:43Z</time>
      </trkpt>
      <trkpt lat="44.50581" lon="5.64516">
        <ele>1153.3</ele>
        <time>2022-10-28T12:21:44Z</time>
      </trkpt>
      <trkpt lat="44.5058" lon="5.64517">
        <ele>1153.4</ele>
        <time>2022-10-28T12:21:45Z</time>
      </trkpt>
      <trkpt lat="44.50579" lon="5.64518">
        <ele>1153.5</ele>
        <time>2022-10-28T12:21:46Z</time>
      </trkpt>
      <trkpt lat="44.50577" lon="5.64519">
        <ele>1153.7</ele>
        <time>2022-10-28T12:21:48Z</time>
      </trkpt>
      <trkpt lat="44.50575" lon="5.64521">
        <ele>1153.9</ele>
        <time>2022-10-28T12:21:49Z</time>
      </trkpt>
      <trkpt lat="44.50574" lon="5.64522">
        <ele>1154</ele>
        <time>2022-10-28T12:21:50Z</time>
      </trkpt>
      <trkpt lat="44.50571" lon="5.64524">
        <ele>1154.2</ele>
        <time>2022-10-28T12:21:51Z</time>
      </trkpt>
      <trkpt lat="44.50571" lon="5.64525">
        <ele>1154.3</ele>
        <time>2022-10-28T12:21:52Z</time>
      </trkpt>
      <trkpt lat="44.50568" lon="5.64527">
        <ele>1154.5</ele>
        <time>2022-10-28T12:21:53Z</time>
      </trkpt>
      <trkpt lat="44.50568" lon="5.64528">
        <ele>1154.6</ele>
        <time>2022-10-28T12:21:54Z</time>
      </trkpt>
      <trkpt lat="44.50565" lon="5.64531">
        <ele>1154.8</ele>
        <time>2022-10-28T12:21:55Z</time>
      </trkpt>
      <trkpt lat="44.50564" lon="5.64532">
        <ele>1154.9</ele>
        <time>2022-10-28T12:21:56Z</time>
      </trkpt>
      <trkpt lat="44.50562" lon="5.64536">
        <ele>1155.2</ele>
        <time>2022-10-28T12:21:58Z</time>
      </trkpt>
      <trkpt lat="44.50561" lon="5.64537">
        <ele>1155.2</ele>
        <time>2022-10-28T12:21:59Z</time>
      </trkpt>
      <trkpt lat="44.5056" lon="5.64541">
        <ele>1155.5</ele>
        <time>2022-10-28T12:22:00Z</time>
      </trkpt>
      <trkpt lat="44.5056" lon="5.64542">
        <ele>1155.6</ele>
        <time>2022-10-28T12:22:01Z</time>
      </trkpt>
      <trkpt lat="44.50559" lon="5.64544">
        <ele>1155.7</ele>
        <time>2022-10-28T12:22:02Z</time>
      </trkpt>
      <trkpt lat="44.50557" lon="5.64547">
        <ele>1155.9</ele>
        <time>2022-10-28T12:22:04Z</time>
      </trkpt>
      <trkpt lat="44.50556" lon="5.64549">
        <ele>1156.1</ele>
        <time>2022-10-28T12:22:05Z</time>
      </trkpt>
      <trkpt lat="44.50556" lon="5.64551">
        <ele>1156.2</ele>
        <time>2022-10-28T12:22:06Z</time>
      </trkpt>
      <trkpt lat="44.50554" lon="5.64555">
        <ele>1156.4</ele>
        <time>2022-10-28T12:22:07Z</time>
      </trkpt>
      <trkpt lat="44.50554" lon="5.64557">
        <ele>1156.5</ele>
        <time>2022-10-28T12:22:08Z</time>
      </trkpt>
      <trkpt lat="44.50553" lon="5.6456">
        <ele>1156.7</ele>
        <time>2022-10-28T12:22:10Z</time>
      </trkpt>
      <trkpt lat="44.50553" lon="5.64562">
        <ele>1156.8</ele>
        <time>2022-10-28T12:22:11Z</time>
      </trkpt>
      <trkpt lat="44.50552" lon="5.64566">
        <ele>1157</ele>
        <time>2022-10-28T12:22:12Z</time>
      </trkpt>
      <trkpt lat="44.50552" lon="5.64567">
        <ele>1157.1</ele>
        <time>2022-10-28T12:22:13Z</time>
      </trkpt>
      <trkpt lat="44.50552" lon="5.64569">
        <ele>1157.2</ele>
        <time>2022-10-28T12:22:14Z</time>
      </trkpt>
      <trkpt lat="44.50552" lon="5.64572">
        <ele>1157.4</ele>
        <time>2022-10-28T12:22:15Z</time>
      </trkpt>
      <trkpt lat="44.50552" lon="5.64575">
        <ele>1157.5</ele>
        <time>2022-10-28T12:22:16Z</time>
      </trkpt>
      <trkpt lat="44.50552" lon="5.64577">
        <ele>1157.6</ele>
        <time>2022-10-28T12:22:17Z</time>
      </trkpt>
      <trkpt lat="44.50553" lon="5.6458">
        <ele>1157.9</ele>
        <time>2022-10-28T12:22:18Z</time>
      </trkpt>
      <trkpt lat="44.50553" lon="5.64582">
        <ele>1157.9</ele>
        <time>2022-10-28T12:22:19Z</time>
      </trkpt>
      <trkpt lat="44.50553" lon="5.64584">
        <ele>1158</ele>
        <time>2022-10-28T12:22:20Z</time>
      </trkpt>
      <trkpt lat="44.50554" lon="5.64586">
        <ele>1158.2</ele>
        <time>2022-10-28T12:22:21Z</time>
      </trkpt>
      <trkpt lat="44.50555" lon="5.6459">
        <ele>1158.4</ele>
        <time>2022-10-28T12:22:23Z</time>
      </trkpt>
      <trkpt lat="44.50555" lon="5.64593">
        <ele>1158.6</ele>
        <time>2022-10-28T12:22:24Z</time>
      </trkpt>
      <trkpt lat="44.50556" lon="5.64595">
        <ele>1158.7</ele>
        <time>2022-10-28T12:22:25Z</time>
      </trkpt>
      <trkpt lat="44.50556" lon="5.64598">
        <ele>1158.8</ele>
        <time>2022-10-28T12:22:26Z</time>
      </trkpt>
      <trkpt lat="44.50556" lon="5.64599">
        <ele>1158.9</ele>
        <time>2022-10-28T12:22:27Z</time>
      </trkpt>
      <trkpt lat="44.50557" lon="5.64603">
        <ele>1159.1</ele>
        <time>2022-10-28T12:22:28Z</time>
      </trkpt>
      <trkpt lat="44.50557" lon="5.64605">
        <ele>1159.2</ele>
        <time>2022-10-28T12:22:29Z</time>
      </trkpt>
      <trkpt lat="44.50558" lon="5.64608">
        <ele>1159.4</ele>
        <time>2022-10-28T12:22:30Z</time>
      </trkpt>
      <trkpt lat="44.50558" lon="5.6461">
        <ele>1159.4</ele>
        <time>2022-10-28T12:22:31Z</time>
      </trkpt>
      <trkpt lat="44.50559" lon="5.64615">
        <ele>1159.7</ele>
        <time>2022-10-28T12:22:33Z</time>
      </trkpt>
      <trkpt lat="44.5056" lon="5.64617">
        <ele>1159.8</ele>
        <time>2022-10-28T12:22:34Z</time>
      </trkpt>
      <trkpt lat="44.5056" lon="5.64619">
        <ele>1159.9</ele>
        <time>2022-10-28T12:22:35Z</time>
      </trkpt>
      <trkpt lat="44.5056" lon="5.64624">
        <ele>1160.1</ele>
        <time>2022-10-28T12:22:37Z</time>
      </trkpt>
      <trkpt lat="44.5056" lon="5.64626">
        <ele>1160.2</ele>
        <time>2022-10-28T12:22:38Z</time>
      </trkpt>
      <trkpt lat="44.5056" lon="5.64628">
        <ele>1160.4</ele>
        <time>2022-10-28T12:22:39Z</time>
      </trkpt>
      <trkpt lat="44.50559" lon="5.64631">
        <ele>1160.5</ele>
        <time>2022-10-28T12:22:41Z</time>
      </trkpt>
      <trkpt lat="44.50558" lon="5.64633">
        <ele>1160.6</ele>
        <time>2022-10-28T12:22:42Z</time>
      </trkpt>
      <trkpt lat="44.50558" lon="5.64635">
        <ele>1160.7</ele>
        <time>2022-10-28T12:22:43Z</time>
      </trkpt>
      <trkpt lat="44.50558" lon="5.64637">
        <ele>1160.9</ele>
        <time>2022-10-28T12:22:44Z</time>
      </trkpt>
      <trkpt lat="44.50557" lon="5.64642">
        <ele>1161.1</ele>
        <time>2022-10-28T12:22:46Z</time>
      </trkpt>
      <trkpt lat="44.50557" lon="5.64646">
        <ele>1161.3</ele>
        <time>2022-10-28T12:22:47Z</time>
      </trkpt>
      <trkpt lat="44.50557" lon="5.64647">
        <ele>1161.4</ele>
        <time>2022-10-28T12:22:48Z</time>
      </trkpt>
      <trkpt lat="44.50557" lon="5.64648">
        <ele>1161.4</ele>
        <time>2022-10-28T12:22:49Z</time>
      </trkpt>
      <trkpt lat="44.50556" lon="5.64651">
        <ele>1161.6</ele>
        <time>2022-10-28T12:22:50Z</time>
      </trkpt>
      <trkpt lat="44.50555" lon="5.64652">
        <ele>1161.6</ele>
        <time>2022-10-28T12:22:51Z</time>
      </trkpt>
      <trkpt lat="44.50554" lon="5.64656">
        <ele>1161.9</ele>
        <time>2022-10-28T12:22:53Z</time>
      </trkpt>
      <trkpt lat="44.50553" lon="5.64657">
        <ele>1162</ele>
        <time>2022-10-28T12:22:54Z</time>
      </trkpt>
      <trkpt lat="44.50552" lon="5.64659">
        <ele>1162.1</ele>
        <time>2022-10-28T12:22:56Z</time>
      </trkpt>
      <trkpt lat="44.50551" lon="5.64661">
        <ele>1162.3</ele>
        <time>2022-10-28T12:22:57Z</time>
      </trkpt>
      <trkpt lat="44.5055" lon="5.64662">
        <ele>1162.4</ele>
        <time>2022-10-28T12:22:58Z</time>
      </trkpt>
      <trkpt lat="44.50549" lon="5.64664">
        <ele>1162.5</ele>
        <time>2022-10-28T12:22:59Z</time>
      </trkpt>
      <trkpt lat="44.50548" lon="5.64666">
        <ele>1162.7</ele>
        <time>2022-10-28T12:23:00Z</time>
      </trkpt>
      <trkpt lat="44.50547" lon="5.64668">
        <ele>1162.8</ele>
        <time>2022-10-28T12:23:01Z</time>
      </trkpt>
      <trkpt lat="44.50547" lon="5.64669">
        <ele>1162.9</ele>
        <time>2022-10-28T12:23:02Z</time>
      </trkpt>
      <trkpt lat="44.50547" lon="5.64671">
        <ele>1163</ele>
        <time>2022-10-28T12:23:03Z</time>
      </trkpt>
      <trkpt lat="44.50545" lon="5.64674">
        <ele>1163.3</ele>
        <time>2022-10-28T12:23:04Z</time>
      </trkpt>
      <trkpt lat="44.50544" lon="5.64676">
        <ele>1163.4</ele>
        <time>2022-10-28T12:23:06Z</time>
      </trkpt>
      <trkpt lat="44.50543" lon="5.64677">
        <ele>1163.5</ele>
        <time>2022-10-28T12:23:07Z</time>
      </trkpt>
      <trkpt lat="44.50542" lon="5.64679">
        <ele>1163.7</ele>
        <time>2022-10-28T12:23:08Z</time>
      </trkpt>
      <trkpt lat="44.5054" lon="5.64681">
        <ele>1163.8</ele>
        <time>2022-10-28T12:23:10Z</time>
      </trkpt>
      <trkpt lat="44.50539" lon="5.64682">
        <ele>1164</ele>
        <time>2022-10-28T12:23:11Z</time>
      </trkpt>
      <trkpt lat="44.50537" lon="5.64684">
        <ele>1164.1</ele>
        <time>2022-10-28T12:23:12Z</time>
      </trkpt>
      <trkpt lat="44.50536" lon="5.64685">
        <ele>1164.3</ele>
        <time>2022-10-28T12:23:13Z</time>
      </trkpt>
      <trkpt lat="44.50534" lon="5.64688">
        <ele>1164.5</ele>
        <time>2022-10-28T12:23:14Z</time>
      </trkpt>
      <trkpt lat="44.50534" lon="5.64689">
        <ele>1164.5</ele>
        <time>2022-10-28T12:23:15Z</time>
      </trkpt>
      <trkpt lat="44.50533" lon="5.64689">
        <ele>1164.6</ele>
        <time>2022-10-28T12:23:16Z</time>
      </trkpt>
      <trkpt lat="44.50531" lon="5.64691">
        <ele>1164.7</ele>
        <time>2022-10-28T12:23:17Z</time>
      </trkpt>
      <trkpt lat="44.50529" lon="5.64693">
        <ele>1164.9</ele>
        <time>2022-10-28T12:23:19Z</time>
      </trkpt>
      <trkpt lat="44.50528" lon="5.64694">
        <ele>1165</ele>
        <time>2022-10-28T12:23:20Z</time>
      </trkpt>
      <trkpt lat="44.50526" lon="5.64696">
        <ele>1165.2</ele>
        <time>2022-10-28T12:23:21Z</time>
      </trkpt>
      <trkpt lat="44.50523" lon="5.647">
        <ele>1165.5</ele>
        <time>2022-10-28T12:23:24Z</time>
      </trkpt>
      <trkpt lat="44.50521" lon="5.64702">
        <ele>1165.6</ele>
        <time>2022-10-28T12:23:25Z</time>
      </trkpt>
      <trkpt lat="44.50518" lon="5.64704">
        <ele>1165.7</ele>
        <time>2022-10-28T12:23:27Z</time>
      </trkpt>
      <trkpt lat="44.50517" lon="5.64706">
        <ele>1165.8</ele>
        <time>2022-10-28T12:23:28Z</time>
      </trkpt>
      <trkpt lat="44.50515" lon="5.64708">
        <ele>1166</ele>
        <time>2022-10-28T12:23:30Z</time>
      </trkpt>
      <trkpt lat="44.50514" lon="5.6471">
        <ele>1166.1</ele>
        <time>2022-10-28T12:23:31Z</time>
      </trkpt>
      <trkpt lat="44.50512" lon="5.64712">
        <ele>1166.2</ele>
        <time>2022-10-28T12:23:33Z</time>
      </trkpt>
      <trkpt lat="44.5051" lon="5.64715">
        <ele>1166.4</ele>
        <time>2022-10-28T12:23:34Z</time>
      </trkpt>
      <trkpt lat="44.50509" lon="5.64717">
        <ele>1166.4</ele>
        <time>2022-10-28T12:23:35Z</time>
      </trkpt>
      <trkpt lat="44.50506" lon="5.6472">
        <ele>1166.6</ele>
        <time>2022-10-28T12:23:37Z</time>
      </trkpt>
      <trkpt lat="44.50505" lon="5.64721">
        <ele>1166.6</ele>
        <time>2022-10-28T12:23:38Z</time>
      </trkpt>
      <trkpt lat="44.50504" lon="5.64723">
        <ele>1166.7</ele>
        <time>2022-10-28T12:23:39Z</time>
      </trkpt>
      <trkpt lat="44.50502" lon="5.64725">
        <ele>1166.8</ele>
        <time>2022-10-28T12:23:41Z</time>
      </trkpt>
      <trkpt lat="44.505" lon="5.64727">
        <ele>1166.9</ele>
        <time>2022-10-28T12:23:42Z</time>
      </trkpt>
      <trkpt lat="44.50497" lon="5.64728">
        <ele>1167</ele>
        <time>2022-10-28T12:23:44Z</time>
      </trkpt>
      <trkpt lat="44.50494" lon="5.6473">
        <ele>1167.1</ele>
        <time>2022-10-28T12:23:45Z</time>
      </trkpt>
      <trkpt lat="44.50492" lon="5.64732">
        <ele>1167.3</ele>
        <time>2022-10-28T12:23:46Z</time>
      </trkpt>
      <trkpt lat="44.5049" lon="5.64734">
        <ele>1167.3</ele>
        <time>2022-10-28T12:23:47Z</time>
      </trkpt>
      <trkpt lat="44.50488" lon="5.64736">
        <ele>1167.4</ele>
        <time>2022-10-28T12:23:49Z</time>
      </trkpt>
      <trkpt lat="44.50486" lon="5.64738">
        <ele>1167.6</ele>
        <time>2022-10-28T12:23:50Z</time>
      </trkpt>
      <trkpt lat="44.50484" lon="5.64742">
        <ele>1167.7</ele>
        <time>2022-10-28T12:23:51Z</time>
      </trkpt>
      <trkpt lat="44.50483" lon="5.64743">
        <ele>1167.7</ele>
        <time>2022-10-28T12:23:52Z</time>
      </trkpt>
      <trkpt lat="44.5048" lon="5.64746">
        <ele>1167.9</ele>
        <time>2022-10-28T12:23:54Z</time>
      </trkpt>
      <trkpt lat="44.50479" lon="5.64747">
        <ele>1168</ele>
        <time>2022-10-28T12:23:55Z</time>
      </trkpt>
      <trkpt lat="44.50477" lon="5.64751">
        <ele>1168.2</ele>
        <time>2022-10-28T12:23:56Z</time>
      </trkpt>
      <trkpt lat="44.50477" lon="5.64753">
        <ele>1168.2</ele>
        <time>2022-10-28T12:23:57Z</time>
      </trkpt>
      <trkpt lat="44.50476" lon="5.64756">
        <ele>1168.4</ele>
        <time>2022-10-28T12:23:58Z</time>
      </trkpt>
      <trkpt lat="44.50475" lon="5.64758">
        <ele>1168.4</ele>
        <time>2022-10-28T12:23:59Z</time>
      </trkpt>
      <trkpt lat="44.50475" lon="5.64759">
        <ele>1168.5</ele>
        <time>2022-10-28T12:24:00Z</time>
      </trkpt>
      <trkpt lat="44.50475" lon="5.64763">
        <ele>1168.7</ele>
        <time>2022-10-28T12:24:02Z</time>
      </trkpt>
      <trkpt lat="44.50474" lon="5.64768">
        <ele>1168.9</ele>
        <time>2022-10-28T12:24:03Z</time>
      </trkpt>
      <trkpt lat="44.50474" lon="5.6477">
        <ele>1168.9</ele>
        <time>2022-10-28T12:24:04Z</time>
      </trkpt>
      <trkpt lat="44.50474" lon="5.64774">
        <ele>1169.1</ele>
        <time>2022-10-28T12:24:06Z</time>
      </trkpt>
      <trkpt lat="44.50474" lon="5.64778">
        <ele>1169.3</ele>
        <time>2022-10-28T12:24:07Z</time>
      </trkpt>
      <trkpt lat="44.50475" lon="5.64782">
        <ele>1169.4</ele>
        <time>2022-10-28T12:24:08Z</time>
      </trkpt>
      <trkpt lat="44.50475" lon="5.64788">
        <ele>1169.7</ele>
        <time>2022-10-28T12:24:10Z</time>
      </trkpt>
      <trkpt lat="44.50476" lon="5.64793">
        <ele>1169.9</ele>
        <time>2022-10-28T12:24:11Z</time>
      </trkpt>
      <trkpt lat="44.50477" lon="5.64795">
        <ele>1170</ele>
        <time>2022-10-28T12:24:12Z</time>
      </trkpt>
      <trkpt lat="44.50477" lon="5.64797">
        <ele>1170.1</ele>
        <time>2022-10-28T12:24:13Z</time>
      </trkpt>
      <trkpt lat="44.50477" lon="5.64799">
        <ele>1170.1</ele>
        <time>2022-10-28T12:24:14Z</time>
      </trkpt>
      <trkpt lat="44.50477" lon="5.64801">
        <ele>1170.3</ele>
        <time>2022-10-28T12:24:15Z</time>
      </trkpt>
      <trkpt lat="44.50478" lon="5.64804">
        <ele>1170.4</ele>
        <time>2022-10-28T12:24:17Z</time>
      </trkpt>
      <trkpt lat="44.50479" lon="5.64809">
        <ele>1170.6</ele>
        <time>2022-10-28T12:24:18Z</time>
      </trkpt>
      <trkpt lat="44.50479" lon="5.6481">
        <ele>1170.7</ele>
        <time>2022-10-28T12:24:19Z</time>
      </trkpt>
      <trkpt lat="44.5048" lon="5.64814">
        <ele>1170.9</ele>
        <time>2022-10-28T12:24:20Z</time>
      </trkpt>
      <trkpt lat="44.5048" lon="5.64815">
        <ele>1170.9</ele>
        <time>2022-10-28T12:24:21Z</time>
      </trkpt>
      <trkpt lat="44.5048" lon="5.64818">
        <ele>1171.1</ele>
        <time>2022-10-28T12:24:22Z</time>
      </trkpt>
      <trkpt lat="44.50481" lon="5.64821">
        <ele>1171.2</ele>
        <time>2022-10-28T12:24:24Z</time>
      </trkpt>
      <trkpt lat="44.50482" lon="5.64824">
        <ele>1171.4</ele>
        <time>2022-10-28T12:24:25Z</time>
      </trkpt>
      <trkpt lat="44.50483" lon="5.64827">
        <ele>1171.5</ele>
        <time>2022-10-28T12:24:26Z</time>
      </trkpt>
      <trkpt lat="44.50484" lon="5.64829">
        <ele>1171.7</ele>
        <time>2022-10-28T12:24:27Z</time>
      </trkpt>
      <trkpt lat="44.50485" lon="5.64832">
        <ele>1171.9</ele>
        <time>2022-10-28T12:24:29Z</time>
      </trkpt>
      <trkpt lat="44.50486" lon="5.64834">
        <ele>1172</ele>
        <time>2022-10-28T12:24:30Z</time>
      </trkpt>
      <trkpt lat="44.50486" lon="5.64837">
        <ele>1172.1</ele>
        <time>2022-10-28T12:24:31Z</time>
      </trkpt>
      <trkpt lat="44.50488" lon="5.64841">
        <ele>1172.3</ele>
        <time>2022-10-28T12:24:33Z</time>
      </trkpt>
      <trkpt lat="44.50488" lon="5.64842">
        <ele>1172.4</ele>
        <time>2022-10-28T12:24:34Z</time>
      </trkpt>
      <trkpt lat="44.50489" lon="5.64844">
        <ele>1172.5</ele>
        <time>2022-10-28T12:24:35Z</time>
      </trkpt>
      <trkpt lat="44.50489" lon="5.64846">
        <ele>1172.6</ele>
        <time>2022-10-28T12:24:36Z</time>
      </trkpt>
      <trkpt lat="44.50489" lon="5.6485">
        <ele>1172.8</ele>
        <time>2022-10-28T12:24:38Z</time>
      </trkpt>
      <trkpt lat="44.5049" lon="5.64852">
        <ele>1172.9</ele>
        <time>2022-10-28T12:24:39Z</time>
      </trkpt>
      <trkpt lat="44.5049" lon="5.64854">
        <ele>1173</ele>
        <time>2022-10-28T12:24:40Z</time>
      </trkpt>
      <trkpt lat="44.5049" lon="5.64857">
        <ele>1173.1</ele>
        <time>2022-10-28T12:24:41Z</time>
      </trkpt>
      <trkpt lat="44.50491" lon="5.64859">
        <ele>1173.2</ele>
        <time>2022-10-28T12:24:42Z</time>
      </trkpt>
      <trkpt lat="44.50492" lon="5.64862">
        <ele>1173.4</ele>
        <time>2022-10-28T12:24:44Z</time>
      </trkpt>
      <trkpt lat="44.50492" lon="5.64864">
        <ele>1173.5</ele>
        <time>2022-10-28T12:24:45Z</time>
      </trkpt>
      <trkpt lat="44.50493" lon="5.64868">
        <ele>1173.6</ele>
        <time>2022-10-28T12:24:47Z</time>
      </trkpt>
      <trkpt lat="44.50495" lon="5.64872">
        <ele>1173.9</ele>
        <time>2022-10-28T12:24:48Z</time>
      </trkpt>
      <trkpt lat="44.50496" lon="5.64874">
        <ele>1174</ele>
        <time>2022-10-28T12:24:49Z</time>
      </trkpt>
      <trkpt lat="44.50498" lon="5.64878">
        <ele>1174.2</ele>
        <time>2022-10-28T12:24:51Z</time>
      </trkpt>
      <trkpt lat="44.50498" lon="5.64879">
        <ele>1174.2</ele>
        <time>2022-10-28T12:24:52Z</time>
      </trkpt>
      <trkpt lat="44.50499" lon="5.64881">
        <ele>1174.3</ele>
        <time>2022-10-28T12:24:53Z</time>
      </trkpt>
      <trkpt lat="44.505" lon="5.64883">
        <ele>1174.4</ele>
        <time>2022-10-28T12:24:54Z</time>
      </trkpt>
      <trkpt lat="44.50501" lon="5.64885">
        <ele>1174.5</ele>
        <time>2022-10-28T12:24:55Z</time>
      </trkpt>
      <trkpt lat="44.50503" lon="5.64887">
        <ele>1174.7</ele>
        <time>2022-10-28T12:24:56Z</time>
      </trkpt>
      <trkpt lat="44.50504" lon="5.64888">
        <ele>1174.8</ele>
        <time>2022-10-28T12:24:57Z</time>
      </trkpt>
      <trkpt lat="44.50505" lon="5.64889">
        <ele>1174.8</ele>
        <time>2022-10-28T12:24:58Z</time>
      </trkpt>
      <trkpt lat="44.50506" lon="5.6489">
        <ele>1174.9</ele>
        <time>2022-10-28T12:24:59Z</time>
      </trkpt>
      <trkpt lat="44.50508" lon="5.64893">
        <ele>1175.1</ele>
        <time>2022-10-28T12:25:01Z</time>
      </trkpt>
      <trkpt lat="44.50509" lon="5.64893">
        <ele>1175.2</ele>
        <time>2022-10-28T12:25:02Z</time>
      </trkpt>
      <trkpt lat="44.5051" lon="5.64895">
        <ele>1175.3</ele>
        <time>2022-10-28T12:25:03Z</time>
      </trkpt>
      <trkpt lat="44.50512" lon="5.64896">
        <ele>1175.4</ele>
        <time>2022-10-28T12:25:04Z</time>
      </trkpt>
      <trkpt lat="44.50513" lon="5.64898">
        <ele>1175.5</ele>
        <time>2022-10-28T12:25:05Z</time>
      </trkpt>
      <trkpt lat="44.50514" lon="5.64901">
        <ele>1175.6</ele>
        <time>2022-10-28T12:25:07Z</time>
      </trkpt>
      <trkpt lat="44.50516" lon="5.64904">
        <ele>1175.8</ele>
        <time>2022-10-28T12:25:08Z</time>
      </trkpt>
      <trkpt lat="44.50518" lon="5.64907">
        <ele>1176</ele>
        <time>2022-10-28T12:25:09Z</time>
      </trkpt>
      <trkpt lat="44.50519" lon="5.64909">
        <ele>1176.1</ele>
        <time>2022-10-28T12:25:11Z</time>
      </trkpt>
      <trkpt lat="44.5052" lon="5.64911">
        <ele>1176.2</ele>
        <time>2022-10-28T12:25:12Z</time>
      </trkpt>
      <trkpt lat="44.50521" lon="5.64913">
        <ele>1176.3</ele>
        <time>2022-10-28T12:25:13Z</time>
      </trkpt>
      <trkpt lat="44.50522" lon="5.64915">
        <ele>1176.4</ele>
        <time>2022-10-28T12:25:14Z</time>
      </trkpt>
      <trkpt lat="44.50523" lon="5.64917">
        <ele>1176.5</ele>
        <time>2022-10-28T12:25:16Z</time>
      </trkpt>
      <trkpt lat="44.50525" lon="5.6492">
        <ele>1176.8</ele>
        <time>2022-10-28T12:25:17Z</time>
      </trkpt>
      <trkpt lat="44.50526" lon="5.64921">
        <ele>1176.8</ele>
        <time>2022-10-28T12:25:18Z</time>
      </trkpt>
      <trkpt lat="44.50528" lon="5.64924">
        <ele>1177.1</ele>
        <time>2022-10-28T12:25:20Z</time>
      </trkpt>
      <trkpt lat="44.5053" lon="5.64925">
        <ele>1177.2</ele>
        <time>2022-10-28T12:25:21Z</time>
      </trkpt>
      <trkpt lat="44.50533" lon="5.64928">
        <ele>1177.4</ele>
        <time>2022-10-28T12:25:23Z</time>
      </trkpt>
      <trkpt lat="44.50536" lon="5.64929">
        <ele>1177.6</ele>
        <time>2022-10-28T12:25:24Z</time>
      </trkpt>
      <trkpt lat="44.50536" lon="5.6493">
        <ele>1177.7</ele>
        <time>2022-10-28T12:25:25Z</time>
      </trkpt>
      <trkpt lat="44.50538" lon="5.6493">
        <ele>1177.8</ele>
        <time>2022-10-28T12:25:26Z</time>
      </trkpt>
      <trkpt lat="44.5054" lon="5.64931">
        <ele>1178</ele>
        <time>2022-10-28T12:25:27Z</time>
      </trkpt>
      <trkpt lat="44.50543" lon="5.64931">
        <ele>1178.2</ele>
        <time>2022-10-28T12:25:28Z</time>
      </trkpt>
      <trkpt lat="44.50544" lon="5.64932">
        <ele>1178.3</ele>
        <time>2022-10-28T12:25:29Z</time>
      </trkpt>
      <trkpt lat="44.50545" lon="5.64932">
        <ele>1178.4</ele>
        <time>2022-10-28T12:25:31Z</time>
      </trkpt>
      <trkpt lat="44.50547" lon="5.64931">
        <ele>1178.5</ele>
        <time>2022-10-28T12:25:32Z</time>
      </trkpt>
      <trkpt lat="44.5055" lon="5.64931">
        <ele>1178.7</ele>
        <time>2022-10-28T12:25:33Z</time>
      </trkpt>
      <trkpt lat="44.50551" lon="5.64931">
        <ele>1178.8</ele>
        <time>2022-10-28T12:25:34Z</time>
      </trkpt>
      <trkpt lat="44.50553" lon="5.6493">
        <ele>1179</ele>
        <time>2022-10-28T12:25:35Z</time>
      </trkpt>
      <trkpt lat="44.50555" lon="5.6493">
        <ele>1179.1</ele>
        <time>2022-10-28T12:25:37Z</time>
      </trkpt>
      <trkpt lat="44.50558" lon="5.64929">
        <ele>1179.4</ele>
        <time>2022-10-28T12:25:38Z</time>
      </trkpt>
      <trkpt lat="44.50559" lon="5.64928">
        <ele>1179.4</ele>
        <time>2022-10-28T12:25:39Z</time>
      </trkpt>
      <trkpt lat="44.50562" lon="5.64927">
        <ele>1179.7</ele>
        <time>2022-10-28T12:25:40Z</time>
      </trkpt>
      <trkpt lat="44.50563" lon="5.64927">
        <ele>1179.7</ele>
        <time>2022-10-28T12:25:41Z</time>
      </trkpt>
      <trkpt lat="44.50566" lon="5.64924">
        <ele>1180</ele>
        <time>2022-10-28T12:25:43Z</time>
      </trkpt>
      <trkpt lat="44.50567" lon="5.64923">
        <ele>1180.1</ele>
        <time>2022-10-28T12:25:44Z</time>
      </trkpt>
      <trkpt lat="44.50569" lon="5.64923">
        <ele>1180.3</ele>
        <time>2022-10-28T12:25:45Z</time>
      </trkpt>
      <trkpt lat="44.50571" lon="5.64922">
        <ele>1180.4</ele>
        <time>2022-10-28T12:25:47Z</time>
      </trkpt>
      <trkpt lat="44.50574" lon="5.64921">
        <ele>1180.6</ele>
        <time>2022-10-28T12:25:48Z</time>
      </trkpt>
      <trkpt lat="44.50575" lon="5.64921">
        <ele>1180.7</ele>
        <time>2022-10-28T12:25:49Z</time>
      </trkpt>
      <trkpt lat="44.50577" lon="5.6492">
        <ele>1180.8</ele>
        <time>2022-10-28T12:25:50Z</time>
      </trkpt>
      <trkpt lat="44.50579" lon="5.6492">
        <ele>1180.9</ele>
        <time>2022-10-28T12:25:51Z</time>
      </trkpt>
      <trkpt lat="44.50581" lon="5.64919">
        <ele>1181.1</ele>
        <time>2022-10-28T12:25:53Z</time>
      </trkpt>
      <trkpt lat="44.50583" lon="5.64919">
        <ele>1181.2</ele>
        <time>2022-10-28T12:25:54Z</time>
      </trkpt>
      <trkpt lat="44.50584" lon="5.64919">
        <ele>1181.3</ele>
        <time>2022-10-28T12:25:55Z</time>
      </trkpt>
      <trkpt lat="44.50585" lon="5.64919">
        <ele>1181.4</ele>
        <time>2022-10-28T12:25:56Z</time>
      </trkpt>
      <trkpt lat="44.50588" lon="5.64918">
        <ele>1181.6</ele>
        <time>2022-10-28T12:25:57Z</time>
      </trkpt>
      <trkpt lat="44.50589" lon="5.64918">
        <ele>1181.6</ele>
        <time>2022-10-28T12:25:58Z</time>
      </trkpt>
      <trkpt lat="44.50592" lon="5.64918">
        <ele>1181.8</ele>
        <time>2022-10-28T12:25:59Z</time>
      </trkpt>
      <trkpt lat="44.50594" lon="5.64918">
        <ele>1181.9</ele>
        <time>2022-10-28T12:26:00Z</time>
      </trkpt>
      <trkpt lat="44.50597" lon="5.64918">
        <ele>1182.1</ele>
        <time>2022-10-28T12:26:02Z</time>
      </trkpt>
      <trkpt lat="44.50598" lon="5.64918">
        <ele>1182.1</ele>
        <time>2022-10-28T12:26:03Z</time>
      </trkpt>
      <trkpt lat="44.50599" lon="5.64919">
        <ele>1182.2</ele>
        <time>2022-10-28T12:26:04Z</time>
      </trkpt>
      <trkpt lat="44.50601" lon="5.64919">
        <ele>1182.3</ele>
        <time>2022-10-28T12:26:05Z</time>
      </trkpt>
      <trkpt lat="44.50603" lon="5.64919">
        <ele>1182.4</ele>
        <time>2022-10-28T12:26:06Z</time>
      </trkpt>
      <trkpt lat="44.50604" lon="5.64919">
        <ele>1182.5</ele>
        <time>2022-10-28T12:26:07Z</time>
      </trkpt>
      <trkpt lat="44.50607" lon="5.6492">
        <ele>1182.6</ele>
        <time>2022-10-28T12:26:08Z</time>
      </trkpt>
      <trkpt lat="44.50608" lon="5.64921">
        <ele>1182.7</ele>
        <time>2022-10-28T12:26:09Z</time>
      </trkpt>
      <trkpt lat="44.5061" lon="5.64921">
        <ele>1182.8</ele>
        <time>2022-10-28T12:26:10Z</time>
      </trkpt>
      <trkpt lat="44.50612" lon="5.64921">
        <ele>1182.9</ele>
        <time>2022-10-28T12:26:12Z</time>
      </trkpt>
      <trkpt lat="44.50614" lon="5.64921">
        <ele>1183.1</ele>
        <time>2022-10-28T12:26:13Z</time>
      </trkpt>
      <trkpt lat="44.50615" lon="5.64921">
        <ele>1183.1</ele>
        <time>2022-10-28T12:26:14Z</time>
      </trkpt>
      <trkpt lat="44.50618" lon="5.6492">
        <ele>1183.3</ele>
        <time>2022-10-28T12:26:15Z</time>
      </trkpt>
      <trkpt lat="44.50619" lon="5.6492">
        <ele>1183.3</ele>
        <time>2022-10-28T12:26:16Z</time>
      </trkpt>
      <trkpt lat="44.50621" lon="5.6492">
        <ele>1183.5</ele>
        <time>2022-10-28T12:26:17Z</time>
      </trkpt>
      <trkpt lat="44.50623" lon="5.64919">
        <ele>1183.6</ele>
        <time>2022-10-28T12:26:19Z</time>
      </trkpt>
      <trkpt lat="44.50626" lon="5.64919">
        <ele>1183.8</ele>
        <time>2022-10-28T12:26:20Z</time>
      </trkpt>
      <trkpt lat="44.50627" lon="5.64919">
        <ele>1183.8</ele>
        <time>2022-10-28T12:26:21Z</time>
      </trkpt>
      <trkpt lat="44.5063" lon="5.64918">
        <ele>1184</ele>
        <time>2022-10-28T12:26:23Z</time>
      </trkpt>
      <trkpt lat="44.50631" lon="5.64918">
        <ele>1184.1</ele>
        <time>2022-10-28T12:26:24Z</time>
      </trkpt>
      <trkpt lat="44.50635" lon="5.64917">
        <ele>1184.2</ele>
        <time>2022-10-28T12:26:25Z</time>
      </trkpt>
      <trkpt lat="44.50636" lon="5.64917">
        <ele>1184.3</ele>
        <time>2022-10-28T12:26:26Z</time>
      </trkpt>
      <trkpt lat="44.50637" lon="5.64916">
        <ele>1184.4</ele>
        <time>2022-10-28T12:26:27Z</time>
      </trkpt>
      <trkpt lat="44.50638" lon="5.64915">
        <ele>1184.5</ele>
        <time>2022-10-28T12:26:28Z</time>
      </trkpt>
      <trkpt lat="44.50641" lon="5.64915">
        <ele>1184.6</ele>
        <time>2022-10-28T12:26:29Z</time>
      </trkpt>
      <trkpt lat="44.50642" lon="5.64915">
        <ele>1184.7</ele>
        <time>2022-10-28T12:26:30Z</time>
      </trkpt>
      <trkpt lat="44.50644" lon="5.64916">
        <ele>1184.8</ele>
        <time>2022-10-28T12:26:31Z</time>
      </trkpt>
      <trkpt lat="44.50646" lon="5.64917">
        <ele>1184.9</ele>
        <time>2022-10-28T12:26:33Z</time>
      </trkpt>
      <trkpt lat="44.50649" lon="5.64917">
        <ele>1185.1</ele>
        <time>2022-10-28T12:26:34Z</time>
      </trkpt>
      <trkpt lat="44.5065" lon="5.64918">
        <ele>1185.1</ele>
        <time>2022-10-28T12:26:35Z</time>
      </trkpt>
      <trkpt lat="44.50652" lon="5.64919">
        <ele>1185.2</ele>
        <time>2022-10-28T12:26:36Z</time>
      </trkpt>
      <trkpt lat="44.50653" lon="5.6492">
        <ele>1185.3</ele>
        <time>2022-10-28T12:26:37Z</time>
      </trkpt>
      <trkpt lat="44.50656" lon="5.64921">
        <ele>1185.5</ele>
        <time>2022-10-28T12:26:39Z</time>
      </trkpt>
      <trkpt lat="44.50657" lon="5.64921">
        <ele>1185.5</ele>
        <time>2022-10-28T12:26:40Z</time>
      </trkpt>
      <trkpt lat="44.50659" lon="5.64922">
        <ele>1185.6</ele>
        <time>2022-10-28T12:26:41Z</time>
      </trkpt>
      <trkpt lat="44.5066" lon="5.64923">
        <ele>1185.7</ele>
        <time>2022-10-28T12:26:42Z</time>
      </trkpt>
      <trkpt lat="44.50661" lon="5.64924">
        <ele>1185.8</ele>
        <time>2022-10-28T12:26:43Z</time>
      </trkpt>
      <trkpt lat="44.50663" lon="5.64926">
        <ele>1186</ele>
        <time>2022-10-28T12:26:45Z</time>
      </trkpt>
      <trkpt lat="44.50665" lon="5.64929">
        <ele>1186.2</ele>
        <time>2022-10-28T12:26:46Z</time>
      </trkpt>
      <trkpt lat="44.50666" lon="5.6493">
        <ele>1186.2</ele>
        <time>2022-10-28T12:26:47Z</time>
      </trkpt>
      <trkpt lat="44.50668" lon="5.64932">
        <ele>1186.4</ele>
        <time>2022-10-28T12:26:48Z</time>
      </trkpt>
      <trkpt lat="44.50669" lon="5.64935">
        <ele>1186.5</ele>
        <time>2022-10-28T12:26:50Z</time>
      </trkpt>
      <trkpt lat="44.5067" lon="5.64937">
        <ele>1186.6</ele>
        <time>2022-10-28T12:26:51Z</time>
      </trkpt>
      <trkpt lat="44.50671" lon="5.64939">
        <ele>1186.8</ele>
        <time>2022-10-28T12:26:53Z</time>
      </trkpt>
      <trkpt lat="44.50674" lon="5.64942">
        <ele>1187</ele>
        <time>2022-10-28T12:26:54Z</time>
      </trkpt>
      <trkpt lat="44.50675" lon="5.64943">
        <ele>1187.1</ele>
        <time>2022-10-28T12:26:55Z</time>
      </trkpt>
      <trkpt lat="44.50678" lon="5.64946">
        <ele>1187.4</ele>
        <time>2022-10-28T12:26:57Z</time>
      </trkpt>
      <trkpt lat="44.50679" lon="5.64947">
        <ele>1187.5</ele>
        <time>2022-10-28T12:26:58Z</time>
      </trkpt>
      <trkpt lat="44.50681" lon="5.64949">
        <ele>1187.7</ele>
        <time>2022-10-28T12:27:00Z</time>
      </trkpt>
      <trkpt lat="44.50682" lon="5.6495">
        <ele>1187.8</ele>
        <time>2022-10-28T12:27:01Z</time>
      </trkpt>
      <trkpt lat="44.50683" lon="5.64952">
        <ele>1187.9</ele>
        <time>2022-10-28T12:27:02Z</time>
      </trkpt>
      <trkpt lat="44.50684" lon="5.64953">
        <ele>1188</ele>
        <time>2022-10-28T12:27:03Z</time>
      </trkpt>
      <trkpt lat="44.50687" lon="5.64957">
        <ele>1188.3</ele>
        <time>2022-10-28T12:27:05Z</time>
      </trkpt>
      <trkpt lat="44.50688" lon="5.64958">
        <ele>1188.4</ele>
        <time>2022-10-28T12:27:06Z</time>
      </trkpt>
      <trkpt lat="44.50688" lon="5.64959">
        <ele>1188.5</ele>
        <time>2022-10-28T12:27:07Z</time>
      </trkpt>
      <trkpt lat="44.50689" lon="5.6496">
        <ele>1188.6</ele>
        <time>2022-10-28T12:27:08Z</time>
      </trkpt>
      <trkpt lat="44.5069" lon="5.64962">
        <ele>1188.7</ele>
        <time>2022-10-28T12:27:09Z</time>
      </trkpt>
      <trkpt lat="44.50691" lon="5.64963">
        <ele>1188.8</ele>
        <time>2022-10-28T12:27:10Z</time>
      </trkpt>
      <trkpt lat="44.50693" lon="5.64965">
        <ele>1189</ele>
        <time>2022-10-28T12:27:12Z</time>
      </trkpt>
      <trkpt lat="44.50694" lon="5.64966">
        <ele>1189</ele>
        <time>2022-10-28T12:27:13Z</time>
      </trkpt>
      <trkpt lat="44.50695" lon="5.64968">
        <ele>1189.1</ele>
        <time>2022-10-28T12:27:14Z</time>
      </trkpt>
      <trkpt lat="44.50697" lon="5.64969">
        <ele>1189.3</ele>
        <time>2022-10-28T12:27:15Z</time>
      </trkpt>
      <trkpt lat="44.50699" lon="5.64972">
        <ele>1189.5</ele>
        <time>2022-10-28T12:27:16Z</time>
      </trkpt>
      <trkpt lat="44.50701" lon="5.64973">
        <ele>1189.6</ele>
        <time>2022-10-28T12:27:18Z</time>
      </trkpt>
      <trkpt lat="44.50702" lon="5.64974">
        <ele>1189.7</ele>
        <time>2022-10-28T12:27:19Z</time>
      </trkpt>
      <trkpt lat="44.50703" lon="5.64975">
        <ele>1189.8</ele>
        <time>2022-10-28T12:27:20Z</time>
      </trkpt>
      <trkpt lat="44.50705" lon="5.64976">
        <ele>1190</ele>
        <time>2022-10-28T12:27:21Z</time>
      </trkpt>
      <trkpt lat="44.50706" lon="5.64977">
        <ele>1190.1</ele>
        <time>2022-10-28T12:27:22Z</time>
      </trkpt>
      <trkpt lat="44.50708" lon="5.64978">
        <ele>1190.2</ele>
        <time>2022-10-28T12:27:23Z</time>
      </trkpt>
      <trkpt lat="44.50709" lon="5.64979">
        <ele>1190.3</ele>
        <time>2022-10-28T12:27:24Z</time>
      </trkpt>
      <trkpt lat="44.50712" lon="5.6498">
        <ele>1190.5</ele>
        <time>2022-10-28T12:27:26Z</time>
      </trkpt>
      <trkpt lat="44.50713" lon="5.64981">
        <ele>1190.6</ele>
        <time>2022-10-28T12:27:27Z</time>
      </trkpt>
      <trkpt lat="44.50716" lon="5.64981">
        <ele>1190.8</ele>
        <time>2022-10-28T12:27:29Z</time>
      </trkpt>
      <trkpt lat="44.50717" lon="5.64982">
        <ele>1190.9</ele>
        <time>2022-10-28T12:27:30Z</time>
      </trkpt>
      <trkpt lat="44.5072" lon="5.64983">
        <ele>1191.1</ele>
        <time>2022-10-28T12:27:31Z</time>
      </trkpt>
      <trkpt lat="44.50722" lon="5.64983">
        <ele>1191.2</ele>
        <time>2022-10-28T12:27:33Z</time>
      </trkpt>
      <trkpt lat="44.50723" lon="5.64984">
        <ele>1191.3</ele>
        <time>2022-10-28T12:27:34Z</time>
      </trkpt>
      <trkpt lat="44.50725" lon="5.64985">
        <ele>1191.4</ele>
        <time>2022-10-28T12:27:35Z</time>
      </trkpt>
      <trkpt lat="44.50726" lon="5.64985">
        <ele>1191.5</ele>
        <time>2022-10-28T12:27:36Z</time>
      </trkpt>
      <trkpt lat="44.50728" lon="5.64986">
        <ele>1191.6</ele>
        <time>2022-10-28T12:27:37Z</time>
      </trkpt>
      <trkpt lat="44.5073" lon="5.64986">
        <ele>1191.7</ele>
        <time>2022-10-28T12:27:38Z</time>
      </trkpt>
      <trkpt lat="44.50731" lon="5.64987">
        <ele>1191.8</ele>
        <time>2022-10-28T12:27:39Z</time>
      </trkpt>
      <trkpt lat="44.50733" lon="5.64987">
        <ele>1191.9</ele>
        <time>2022-10-28T12:27:40Z</time>
      </trkpt>
      <trkpt lat="44.50735" lon="5.64988">
        <ele>1192</ele>
        <time>2022-10-28T12:27:41Z</time>
      </trkpt>
      <trkpt lat="44.50737" lon="5.64988">
        <ele>1192.2</ele>
        <time>2022-10-28T12:27:42Z</time>
      </trkpt>
      <trkpt lat="44.50738" lon="5.64989">
        <ele>1192.2</ele>
        <time>2022-10-28T12:27:43Z</time>
      </trkpt>
      <trkpt lat="44.5074" lon="5.64989">
        <ele>1192.4</ele>
        <time>2022-10-28T12:27:44Z</time>
      </trkpt>
      <trkpt lat="44.50742" lon="5.64989">
        <ele>1192.5</ele>
        <time>2022-10-28T12:27:46Z</time>
      </trkpt>
      <trkpt lat="44.50746" lon="5.6499">
        <ele>1192.7</ele>
        <time>2022-10-28T12:27:47Z</time>
      </trkpt>
      <trkpt lat="44.50747" lon="5.6499">
        <ele>1192.8</ele>
        <time>2022-10-28T12:27:48Z</time>
      </trkpt>
      <trkpt lat="44.50748" lon="5.6499">
        <ele>1192.9</ele>
        <time>2022-10-28T12:27:49Z</time>
      </trkpt>
      <trkpt lat="44.5075" lon="5.6499">
        <ele>1193</ele>
        <time>2022-10-28T12:27:50Z</time>
      </trkpt>
      <trkpt lat="44.50753" lon="5.6499">
        <ele>1193.1</ele>
        <time>2022-10-28T12:27:52Z</time>
      </trkpt>
      <trkpt lat="44.50754" lon="5.6499">
        <ele>1193.2</ele>
        <time>2022-10-28T12:27:53Z</time>
      </trkpt>
      <trkpt lat="44.50757" lon="5.6499">
        <ele>1193.4</ele>
        <time>2022-10-28T12:27:54Z</time>
      </trkpt>
      <trkpt lat="44.50758" lon="5.6499">
        <ele>1193.5</ele>
        <time>2022-10-28T12:27:55Z</time>
      </trkpt>
      <trkpt lat="44.5076" lon="5.64989">
        <ele>1193.6</ele>
        <time>2022-10-28T12:27:56Z</time>
      </trkpt>
      <trkpt lat="44.50762" lon="5.64989">
        <ele>1193.7</ele>
        <time>2022-10-28T12:27:57Z</time>
      </trkpt>
      <trkpt lat="44.50764" lon="5.64988">
        <ele>1193.8</ele>
        <time>2022-10-28T12:27:58Z</time>
      </trkpt>
      <trkpt lat="44.50765" lon="5.64988">
        <ele>1193.9</ele>
        <time>2022-10-28T12:27:59Z</time>
      </trkpt>
      <trkpt lat="44.50766" lon="5.64987">
        <ele>1194</ele>
        <time>2022-10-28T12:28:00Z</time>
      </trkpt>
      <trkpt lat="44.50768" lon="5.64986">
        <ele>1194.2</ele>
        <time>2022-10-28T12:28:01Z</time>
      </trkpt>
      <trkpt lat="44.5077" lon="5.64985">
        <ele>1194.4</ele>
        <time>2022-10-28T12:28:03Z</time>
      </trkpt>
      <trkpt lat="44.50773" lon="5.64984">
        <ele>1194.6</ele>
        <time>2022-10-28T12:28:04Z</time>
      </trkpt>
      <trkpt lat="44.50774" lon="5.64983">
        <ele>1194.7</ele>
        <time>2022-10-28T12:28:05Z</time>
      </trkpt>
      <trkpt lat="44.50775" lon="5.64983">
        <ele>1194.8</ele>
        <time>2022-10-28T12:28:07Z</time>
      </trkpt>
      <trkpt lat="44.50777" lon="5.64983">
        <ele>1195</ele>
        <time>2022-10-28T12:28:08Z</time>
      </trkpt>
      <trkpt lat="44.50779" lon="5.64984">
        <ele>1195.2</ele>
        <time>2022-10-28T12:28:09Z</time>
      </trkpt>
      <trkpt lat="44.5078" lon="5.64983">
        <ele>1196</ele>
        <time>2022-10-28T12:28:10Z</time>
      </trkpt>
      <trkpt lat="44.50782" lon="5.64984">
        <ele>1196.2</ele>
        <time>2022-10-28T12:28:12Z</time>
      </trkpt>
      <trkpt lat="44.50783" lon="5.64986">
        <ele>1196.3</ele>
        <time>2022-10-28T12:28:13Z</time>
      </trkpt>
      <trkpt lat="44.50783" lon="5.64988">
        <ele>1196.5</ele>
        <time>2022-10-28T12:28:14Z</time>
      </trkpt>
      <trkpt lat="44.50784" lon="5.6499">
        <ele>1196.6</ele>
        <time>2022-10-28T12:28:15Z</time>
      </trkpt>
      <trkpt lat="44.50783" lon="5.64993">
        <ele>1196.7</ele>
        <time>2022-10-28T12:28:16Z</time>
      </trkpt>
      <trkpt lat="44.50782" lon="5.64994">
        <ele>1196.8</ele>
        <time>2022-10-28T12:28:17Z</time>
      </trkpt>
      <trkpt lat="44.50779" lon="5.64996">
        <ele>1196.9</ele>
        <time>2022-10-28T12:28:18Z</time>
      </trkpt>
      <trkpt lat="44.50777" lon="5.64997">
        <ele>1197.1</ele>
        <time>2022-10-28T12:28:19Z</time>
      </trkpt>
      <trkpt lat="44.50774" lon="5.65">
        <ele>1197.2</ele>
        <time>2022-10-28T12:28:20Z</time>
      </trkpt>
      <trkpt lat="44.50773" lon="5.65001">
        <ele>1197.3</ele>
        <time>2022-10-28T12:28:21Z</time>
      </trkpt>
      <trkpt lat="44.50772" lon="5.65002">
        <ele>1197.4</ele>
        <time>2022-10-28T12:28:22Z</time>
      </trkpt>
      <trkpt lat="44.5077" lon="5.65003">
        <ele>1197.5</ele>
        <time>2022-10-28T12:28:23Z</time>
      </trkpt>
      <trkpt lat="44.50769" lon="5.65005">
        <ele>1197.6</ele>
        <time>2022-10-28T12:28:24Z</time>
      </trkpt>
      <trkpt lat="44.50768" lon="5.65005">
        <ele>1197.6</ele>
        <time>2022-10-28T12:28:25Z</time>
      </trkpt>
      <trkpt lat="44.50767" lon="5.65006">
        <ele>1197.7</ele>
        <time>2022-10-28T12:28:26Z</time>
      </trkpt>
      <trkpt lat="44.50765" lon="5.65008">
        <ele>1197.8</ele>
        <time>2022-10-28T12:28:27Z</time>
      </trkpt>
      <trkpt lat="44.50764" lon="5.65009">
        <ele>1197.9</ele>
        <time>2022-10-28T12:28:28Z</time>
      </trkpt>
      <trkpt lat="44.50763" lon="5.6501">
        <ele>1198</ele>
        <time>2022-10-28T12:28:29Z</time>
      </trkpt>
      <trkpt lat="44.50761" lon="5.65011">
        <ele>1198.1</ele>
        <time>2022-10-28T12:28:31Z</time>
      </trkpt>
      <trkpt lat="44.50759" lon="5.65013">
        <ele>1198.2</ele>
        <time>2022-10-28T12:28:32Z</time>
      </trkpt>
      <trkpt lat="44.50758" lon="5.65014">
        <ele>1198.3</ele>
        <time>2022-10-28T12:28:33Z</time>
      </trkpt>
      <trkpt lat="44.50756" lon="5.65015">
        <ele>1198.4</ele>
        <time>2022-10-28T12:28:34Z</time>
      </trkpt>
      <trkpt lat="44.50755" lon="5.65016">
        <ele>1198.5</ele>
        <time>2022-10-28T12:28:35Z</time>
      </trkpt>
      <trkpt lat="44.50752" lon="5.65017">
        <ele>1198.7</ele>
        <time>2022-10-28T12:28:37Z</time>
      </trkpt>
      <trkpt lat="44.50751" lon="5.65018">
        <ele>1198.7</ele>
        <time>2022-10-28T12:28:38Z</time>
      </trkpt>
      <trkpt lat="44.5075" lon="5.65019">
        <ele>1198.9</ele>
        <time>2022-10-28T12:28:39Z</time>
      </trkpt>
      <trkpt lat="44.50748" lon="5.6502">
        <ele>1199</ele>
        <time>2022-10-28T12:28:40Z</time>
      </trkpt>
      <trkpt lat="44.50746" lon="5.65023">
        <ele>1199.2</ele>
        <time>2022-10-28T12:28:41Z</time>
      </trkpt>
      <trkpt lat="44.50744" lon="5.65024">
        <ele>1199.3</ele>
        <time>2022-10-28T12:28:43Z</time>
      </trkpt>
      <trkpt lat="44.50743" lon="5.65025">
        <ele>1199.4</ele>
        <time>2022-10-28T12:28:44Z</time>
      </trkpt>
      <trkpt lat="44.50742" lon="5.65026">
        <ele>1199.5</ele>
        <time>2022-10-28T12:28:45Z</time>
      </trkpt>
      <trkpt lat="44.50739" lon="5.65027">
        <ele>1199.7</ele>
        <time>2022-10-28T12:28:46Z</time>
      </trkpt>
      <trkpt lat="44.50738" lon="5.65028">
        <ele>1199.8</ele>
        <time>2022-10-28T12:28:47Z</time>
      </trkpt>
      <trkpt lat="44.50737" lon="5.65028">
        <ele>1199.9</ele>
        <time>2022-10-28T12:28:49Z</time>
      </trkpt>
      <trkpt lat="44.50735" lon="5.65029">
        <ele>1200</ele>
        <time>2022-10-28T12:28:50Z</time>
      </trkpt>
      <trkpt lat="44.50734" lon="5.65031">
        <ele>1200.1</ele>
        <time>2022-10-28T12:28:51Z</time>
      </trkpt>
      <trkpt lat="44.50733" lon="5.65032">
        <ele>1200.2</ele>
        <time>2022-10-28T12:28:52Z</time>
      </trkpt>
      <trkpt lat="44.50732" lon="5.65033">
        <ele>1200.3</ele>
        <time>2022-10-28T12:28:53Z</time>
      </trkpt>
      <trkpt lat="44.5073" lon="5.65034">
        <ele>1200.4</ele>
        <time>2022-10-28T12:28:54Z</time>
      </trkpt>
      <trkpt lat="44.50729" lon="5.65035">
        <ele>1200.5</ele>
        <time>2022-10-28T12:28:56Z</time>
      </trkpt>
      <trkpt lat="44.50727" lon="5.65036">
        <ele>1200.6</ele>
        <time>2022-10-28T12:28:57Z</time>
      </trkpt>
      <trkpt lat="44.50724" lon="5.65037">
        <ele>1200.9</ele>
        <time>2022-10-28T12:28:58Z</time>
      </trkpt>
      <trkpt lat="44.50723" lon="5.65038">
        <ele>1201</ele>
        <time>2022-10-28T12:29:00Z</time>
      </trkpt>
      <trkpt lat="44.50722" lon="5.65039">
        <ele>1201.1</ele>
        <time>2022-10-28T12:29:01Z</time>
      </trkpt>
      <trkpt lat="44.50721" lon="5.6504">
        <ele>1201.2</ele>
        <time>2022-10-28T12:29:02Z</time>
      </trkpt>
      <trkpt lat="44.50718" lon="5.65042">
        <ele>1201.4</ele>
        <time>2022-10-28T12:29:04Z</time>
      </trkpt>
      <trkpt lat="44.50717" lon="5.65043">
        <ele>1201.5</ele>
        <time>2022-10-28T12:29:05Z</time>
      </trkpt>
      <trkpt lat="44.50716" lon="5.65043">
        <ele>1201.6</ele>
        <time>2022-10-28T12:29:06Z</time>
      </trkpt>
      <trkpt lat="44.50714" lon="5.65045">
        <ele>1201.8</ele>
        <time>2022-10-28T12:29:08Z</time>
      </trkpt>
      <trkpt lat="44.50712" lon="5.65045">
        <ele>1201.9</ele>
        <time>2022-10-28T12:29:09Z</time>
      </trkpt>
      <trkpt lat="44.50711" lon="5.65046">
        <ele>1202</ele>
        <time>2022-10-28T12:29:10Z</time>
      </trkpt>
      <trkpt lat="44.50709" lon="5.65047">
        <ele>1202.2</ele>
        <time>2022-10-28T12:29:11Z</time>
      </trkpt>
      <trkpt lat="44.50708" lon="5.65048">
        <ele>1202.3</ele>
        <time>2022-10-28T12:29:12Z</time>
      </trkpt>
      <trkpt lat="44.50705" lon="5.65049">
        <ele>1202.5</ele>
        <time>2022-10-28T12:29:13Z</time>
      </trkpt>
      <trkpt lat="44.50704" lon="5.65049">
        <ele>1202.6</ele>
        <time>2022-10-28T12:29:15Z</time>
      </trkpt>
      <trkpt lat="44.50702" lon="5.6505">
        <ele>1202.7</ele>
        <time>2022-10-28T12:29:16Z</time>
      </trkpt>
      <trkpt lat="44.50701" lon="5.6505">
        <ele>1202.8</ele>
        <time>2022-10-28T12:29:17Z</time>
      </trkpt>
      <trkpt lat="44.50698" lon="5.65051">
        <ele>1203.1</ele>
        <time>2022-10-28T12:29:19Z</time>
      </trkpt>
      <trkpt lat="44.50697" lon="5.65051">
        <ele>1203.2</ele>
        <time>2022-10-28T12:29:20Z</time>
      </trkpt>
      <trkpt lat="44.50694" lon="5.65051">
        <ele>1203.4</ele>
        <time>2022-10-28T12:29:21Z</time>
      </trkpt>
      <trkpt lat="44.50692" lon="5.65052">
        <ele>1203.6</ele>
        <time>2022-10-28T12:29:23Z</time>
      </trkpt>
      <trkpt lat="44.50689" lon="5.65052">
        <ele>1203.8</ele>
        <time>2022-10-28T12:29:24Z</time>
      </trkpt>
      <trkpt lat="44.50688" lon="5.65052">
        <ele>1203.9</ele>
        <time>2022-10-28T12:29:25Z</time>
      </trkpt>
      <trkpt lat="44.50686" lon="5.65052">
        <ele>1204</ele>
        <time>2022-10-28T12:29:26Z</time>
      </trkpt>
      <trkpt lat="44.50685" lon="5.65053">
        <ele>1204.1</ele>
        <time>2022-10-28T12:29:27Z</time>
      </trkpt>
      <trkpt lat="44.50683" lon="5.65053">
        <ele>1204.3</ele>
        <time>2022-10-28T12:29:28Z</time>
      </trkpt>
      <trkpt lat="44.50681" lon="5.65054">
        <ele>1204.4</ele>
        <time>2022-10-28T12:29:29Z</time>
      </trkpt>
      <trkpt lat="44.5068" lon="5.65054">
        <ele>1204.5</ele>
        <time>2022-10-28T12:29:31Z</time>
      </trkpt>
      <trkpt lat="44.50678" lon="5.65054">
        <ele>1204.6</ele>
        <time>2022-10-28T12:29:32Z</time>
      </trkpt>
      <trkpt lat="44.50677" lon="5.65055">
        <ele>1204.8</ele>
        <time>2022-10-28T12:29:33Z</time>
      </trkpt>
      <trkpt lat="44.50675" lon="5.65056">
        <ele>1205</ele>
        <time>2022-10-28T12:29:35Z</time>
      </trkpt>
      <trkpt lat="44.50672" lon="5.65057">
        <ele>1205.2</ele>
        <time>2022-10-28T12:29:36Z</time>
      </trkpt>
      <trkpt lat="44.50671" lon="5.65058">
        <ele>1205.3</ele>
        <time>2022-10-28T12:29:37Z</time>
      </trkpt>
      <trkpt lat="44.50669" lon="5.65059">
        <ele>1205.4</ele>
        <time>2022-10-28T12:29:38Z</time>
      </trkpt>
      <trkpt lat="44.50669" lon="5.65059">
        <ele>1205.5</ele>
        <time>2022-10-28T12:29:39Z</time>
      </trkpt>
      <trkpt lat="44.50666" lon="5.65059">
        <ele>1205.6</ele>
        <time>2022-10-28T12:29:41Z</time>
      </trkpt>
      <trkpt lat="44.50665" lon="5.6506">
        <ele>1205.8</ele>
        <time>2022-10-28T12:29:42Z</time>
      </trkpt>
      <trkpt lat="44.50663" lon="5.65061">
        <ele>1206</ele>
        <time>2022-10-28T12:29:44Z</time>
      </trkpt>
      <trkpt lat="44.5066" lon="5.65063">
        <ele>1206.2</ele>
        <time>2022-10-28T12:29:45Z</time>
      </trkpt>
      <trkpt lat="44.50659" lon="5.65064">
        <ele>1206.3</ele>
        <time>2022-10-28T12:29:46Z</time>
      </trkpt>
      <trkpt lat="44.50657" lon="5.65065">
        <ele>1206.5</ele>
        <time>2022-10-28T12:29:47Z</time>
      </trkpt>
      <trkpt lat="44.50656" lon="5.65067">
        <ele>1206.6</ele>
        <time>2022-10-28T12:29:49Z</time>
      </trkpt>
      <trkpt lat="44.50653" lon="5.65069">
        <ele>1206.8</ele>
        <time>2022-10-28T12:29:50Z</time>
      </trkpt>
      <trkpt lat="44.50652" lon="5.6507">
        <ele>1206.9</ele>
        <time>2022-10-28T12:29:51Z</time>
      </trkpt>
      <trkpt lat="44.50651" lon="5.65071">
        <ele>1207.1</ele>
        <time>2022-10-28T12:29:52Z</time>
      </trkpt>
      <trkpt lat="44.50649" lon="5.65072">
        <ele>1207.2</ele>
        <time>2022-10-28T12:29:53Z</time>
      </trkpt>
      <trkpt lat="44.50648" lon="5.65073">
        <ele>1207.3</ele>
        <time>2022-10-28T12:29:54Z</time>
      </trkpt>
      <trkpt lat="44.50646" lon="5.65074">
        <ele>1207.5</ele>
        <time>2022-10-28T12:29:55Z</time>
      </trkpt>
      <trkpt lat="44.50645" lon="5.65075">
        <ele>1207.6</ele>
        <time>2022-10-28T12:29:56Z</time>
      </trkpt>
      <trkpt lat="44.50644" lon="5.65075">
        <ele>1207.7</ele>
        <time>2022-10-28T12:29:57Z</time>
      </trkpt>
      <trkpt lat="44.50642" lon="5.65076">
        <ele>1207.8</ele>
        <time>2022-10-28T12:29:58Z</time>
      </trkpt>
      <trkpt lat="44.5064" lon="5.65076">
        <ele>1208</ele>
        <time>2022-10-28T12:30:00Z</time>
      </trkpt>
      <trkpt lat="44.50638" lon="5.65077">
        <ele>1208.2</ele>
        <time>2022-10-28T12:30:01Z</time>
      </trkpt>
      <trkpt lat="44.50637" lon="5.65077">
        <ele>1208.3</ele>
        <time>2022-10-28T12:30:02Z</time>
      </trkpt>
      <trkpt lat="44.50635" lon="5.65077">
        <ele>1208.5</ele>
        <time>2022-10-28T12:30:03Z</time>
      </trkpt>
      <trkpt lat="44.50634" lon="5.65077">
        <ele>1208.6</ele>
        <time>2022-10-28T12:30:04Z</time>
      </trkpt>
      <trkpt lat="44.50632" lon="5.65078">
        <ele>1208.7</ele>
        <time>2022-10-28T12:30:06Z</time>
      </trkpt>
      <trkpt lat="44.50631" lon="5.65078">
        <ele>1208.8</ele>
        <time>2022-10-28T12:30:07Z</time>
      </trkpt>
      <trkpt lat="44.50629" lon="5.65078">
        <ele>1209</ele>
        <time>2022-10-28T12:30:08Z</time>
      </trkpt>
      <trkpt lat="44.50628" lon="5.65079">
        <ele>1209.1</ele>
        <time>2022-10-28T12:30:09Z</time>
      </trkpt>
      <trkpt lat="44.50626" lon="5.65079">
        <ele>1209.2</ele>
        <time>2022-10-28T12:30:10Z</time>
      </trkpt>
      <trkpt lat="44.50625" lon="5.65079">
        <ele>1209.3</ele>
        <time>2022-10-28T12:30:11Z</time>
      </trkpt>
      <trkpt lat="44.50623" lon="5.6508">
        <ele>1209.5</ele>
        <time>2022-10-28T12:30:12Z</time>
      </trkpt>
      <trkpt lat="44.50622" lon="5.65081">
        <ele>1209.6</ele>
        <time>2022-10-28T12:30:13Z</time>
      </trkpt>
      <trkpt lat="44.5062" lon="5.65082">
        <ele>1209.8</ele>
        <time>2022-10-28T12:30:14Z</time>
      </trkpt>
      <trkpt lat="44.50619" lon="5.65083">
        <ele>1209.9</ele>
        <time>2022-10-28T12:30:15Z</time>
      </trkpt>
      <trkpt lat="44.50618" lon="5.65084">
        <ele>1209.9</ele>
        <time>2022-10-28T12:30:16Z</time>
      </trkpt>
      <trkpt lat="44.50616" lon="5.65085">
        <ele>1210.1</ele>
        <time>2022-10-28T12:30:17Z</time>
      </trkpt>
      <trkpt lat="44.50615" lon="5.65086">
        <ele>1210.2</ele>
        <time>2022-10-28T12:30:18Z</time>
      </trkpt>
      <trkpt lat="44.50614" lon="5.65087">
        <ele>1210.2</ele>
        <time>2022-10-28T12:30:19Z</time>
      </trkpt>
      <trkpt lat="44.50613" lon="5.65088">
        <ele>1210.3</ele>
        <time>2022-10-28T12:30:20Z</time>
      </trkpt>
      <trkpt lat="44.50612" lon="5.6509">
        <ele>1210.5</ele>
        <time>2022-10-28T12:30:22Z</time>
      </trkpt>
      <trkpt lat="44.50611" lon="5.65092">
        <ele>1210.6</ele>
        <time>2022-10-28T12:30:23Z</time>
      </trkpt>
      <trkpt lat="44.5061" lon="5.65093">
        <ele>1210.7</ele>
        <time>2022-10-28T12:30:24Z</time>
      </trkpt>
      <trkpt lat="44.50608" lon="5.65097">
        <ele>1210.9</ele>
        <time>2022-10-28T12:30:26Z</time>
      </trkpt>
      <trkpt lat="44.50608" lon="5.65097">
        <ele>1210.9</ele>
        <time>2022-10-28T12:30:27Z</time>
      </trkpt>
      <trkpt lat="44.50607" lon="5.651">
        <ele>1211</ele>
        <time>2022-10-28T12:30:28Z</time>
      </trkpt>
      <trkpt lat="44.50606" lon="5.65102">
        <ele>1211.2</ele>
        <time>2022-10-28T12:30:30Z</time>
      </trkpt>
      <trkpt lat="44.50605" lon="5.65104">
        <ele>1211.3</ele>
        <time>2022-10-28T12:30:31Z</time>
      </trkpt>
      <trkpt lat="44.50605" lon="5.65106">
        <ele>1211.4</ele>
        <time>2022-10-28T12:30:32Z</time>
      </trkpt>
      <trkpt lat="44.50605" lon="5.65108">
        <ele>1211.5</ele>
        <time>2022-10-28T12:30:33Z</time>
      </trkpt>
      <trkpt lat="44.50604" lon="5.65111">
        <ele>1211.6</ele>
        <time>2022-10-28T12:30:34Z</time>
      </trkpt>
      <trkpt lat="44.50604" lon="5.65114">
        <ele>1211.7</ele>
        <time>2022-10-28T12:30:35Z</time>
      </trkpt>
      <trkpt lat="44.50604" lon="5.65119">
        <ele>1211.9</ele>
        <time>2022-10-28T12:30:37Z</time>
      </trkpt>
      <trkpt lat="44.50604" lon="5.65124">
        <ele>1212.1</ele>
        <time>2022-10-28T12:30:38Z</time>
      </trkpt>
      <trkpt lat="44.50604" lon="5.65125">
        <ele>1212.2</ele>
        <time>2022-10-28T12:30:39Z</time>
      </trkpt>
      <trkpt lat="44.50604" lon="5.65129">
        <ele>1212.4</ele>
        <time>2022-10-28T12:30:41Z</time>
      </trkpt>
      <trkpt lat="44.50603" lon="5.65133">
        <ele>1212.5</ele>
        <time>2022-10-28T12:30:42Z</time>
      </trkpt>
      <trkpt lat="44.50603" lon="5.65136">
        <ele>1212.6</ele>
        <time>2022-10-28T12:30:43Z</time>
      </trkpt>
      <trkpt lat="44.50602" lon="5.65138">
        <ele>1212.7</ele>
        <time>2022-10-28T12:30:44Z</time>
      </trkpt>
      <trkpt lat="44.50602" lon="5.65142">
        <ele>1212.9</ele>
        <time>2022-10-28T12:30:45Z</time>
      </trkpt>
      <trkpt lat="44.50602" lon="5.65143">
        <ele>1213</ele>
        <time>2022-10-28T12:30:46Z</time>
      </trkpt>
      <trkpt lat="44.50601" lon="5.65145">
        <ele>1213</ele>
        <time>2022-10-28T12:30:47Z</time>
      </trkpt>
      <trkpt lat="44.506" lon="5.65147">
        <ele>1213.1</ele>
        <time>2022-10-28T12:30:48Z</time>
      </trkpt>
      <trkpt lat="44.506" lon="5.65148">
        <ele>1213.2</ele>
        <time>2022-10-28T12:30:49Z</time>
      </trkpt>
      <trkpt lat="44.50599" lon="5.6515">
        <ele>1213.3</ele>
        <time>2022-10-28T12:30:50Z</time>
      </trkpt>
      <trkpt lat="44.50598" lon="5.65152">
        <ele>1213.4</ele>
        <time>2022-10-28T12:30:51Z</time>
      </trkpt>
      <trkpt lat="44.50596" lon="5.65156">
        <ele>1213.6</ele>
        <time>2022-10-28T12:30:53Z</time>
      </trkpt>
      <trkpt lat="44.50595" lon="5.65158">
        <ele>1213.7</ele>
        <time>2022-10-28T12:30:54Z</time>
      </trkpt>
      <trkpt lat="44.50594" lon="5.6516">
        <ele>1213.8</ele>
        <time>2022-10-28T12:30:55Z</time>
      </trkpt>
      <trkpt lat="44.50594" lon="5.65161">
        <ele>1213.8</ele>
        <time>2022-10-28T12:30:56Z</time>
      </trkpt>
      <trkpt lat="44.50591" lon="5.65164">
        <ele>1214</ele>
        <time>2022-10-28T12:30:58Z</time>
      </trkpt>
      <trkpt lat="44.5059" lon="5.65165">
        <ele>1214.1</ele>
        <time>2022-10-28T12:30:59Z</time>
      </trkpt>
      <trkpt lat="44.50587" lon="5.65167">
        <ele>1214.3</ele>
        <time>2022-10-28T12:31:00Z</time>
      </trkpt>
      <trkpt lat="44.50587" lon="5.65168">
        <ele>1214.3</ele>
        <time>2022-10-28T12:31:01Z</time>
      </trkpt>
      <trkpt lat="44.50585" lon="5.65169">
        <ele>1214.4</ele>
        <time>2022-10-28T12:31:02Z</time>
      </trkpt>
      <trkpt lat="44.50583" lon="5.65169">
        <ele>1214.5</ele>
        <time>2022-10-28T12:31:04Z</time>
      </trkpt>
      <trkpt lat="44.50582" lon="5.6517">
        <ele>1214.6</ele>
        <time>2022-10-28T12:31:05Z</time>
      </trkpt>
      <trkpt lat="44.5058" lon="5.65172">
        <ele>1214.7</ele>
        <time>2022-10-28T12:31:06Z</time>
      </trkpt>
      <trkpt lat="44.50579" lon="5.65172">
        <ele>1214.8</ele>
        <time>2022-10-28T12:31:07Z</time>
      </trkpt>
      <trkpt lat="44.50577" lon="5.65173">
        <ele>1214.9</ele>
        <time>2022-10-28T12:31:08Z</time>
      </trkpt>
      <trkpt lat="44.50575" lon="5.65173">
        <ele>1215</ele>
        <time>2022-10-28T12:31:09Z</time>
      </trkpt>
      <trkpt lat="44.50572" lon="5.65174">
        <ele>1215.2</ele>
        <time>2022-10-28T12:31:11Z</time>
      </trkpt>
      <trkpt lat="44.5057" lon="5.65175">
        <ele>1215.4</ele>
        <time>2022-10-28T12:31:12Z</time>
      </trkpt>
      <trkpt lat="44.50566" lon="5.65176">
        <ele>1215.6</ele>
        <time>2022-10-28T12:31:14Z</time>
      </trkpt>
      <trkpt lat="44.50564" lon="5.65176">
        <ele>1215.7</ele>
        <time>2022-10-28T12:31:15Z</time>
      </trkpt>
      <trkpt lat="44.50562" lon="5.65176">
        <ele>1215.9</ele>
        <time>2022-10-28T12:31:17Z</time>
      </trkpt>
      <trkpt lat="44.5056" lon="5.65177">
        <ele>1216.1</ele>
        <time>2022-10-28T12:31:18Z</time>
      </trkpt>
      <trkpt lat="44.50557" lon="5.65179">
        <ele>1216.2</ele>
        <time>2022-10-28T12:31:19Z</time>
      </trkpt>
      <trkpt lat="44.50556" lon="5.65179">
        <ele>1216.3</ele>
        <time>2022-10-28T12:31:20Z</time>
      </trkpt>
      <trkpt lat="44.50554" lon="5.6518">
        <ele>1216.4</ele>
        <time>2022-10-28T12:31:21Z</time>
      </trkpt>
      <trkpt lat="44.50553" lon="5.65181">
        <ele>1216.5</ele>
        <time>2022-10-28T12:31:22Z</time>
      </trkpt>
      <trkpt lat="44.5055" lon="5.65184">
        <ele>1216.8</ele>
        <time>2022-10-28T12:31:24Z</time>
      </trkpt>
      <trkpt lat="44.50548" lon="5.65186">
        <ele>1216.9</ele>
        <time>2022-10-28T12:31:25Z</time>
      </trkpt>
      <trkpt lat="44.50547" lon="5.65188">
        <ele>1217.1</ele>
        <time>2022-10-28T12:31:27Z</time>
      </trkpt>
      <trkpt lat="44.50544" lon="5.65191">
        <ele>1217.3</ele>
        <time>2022-10-28T12:31:28Z</time>
      </trkpt>
      <trkpt lat="44.50543" lon="5.65192">
        <ele>1217.4</ele>
        <time>2022-10-28T12:31:29Z</time>
      </trkpt>
      <trkpt lat="44.50541" lon="5.65194">
        <ele>1217.6</ele>
        <time>2022-10-28T12:31:31Z</time>
      </trkpt>
      <trkpt lat="44.5054" lon="5.65195">
        <ele>1217.7</ele>
        <time>2022-10-28T12:31:32Z</time>
      </trkpt>
      <trkpt lat="44.50538" lon="5.65196">
        <ele>1217.9</ele>
        <time>2022-10-28T12:31:33Z</time>
      </trkpt>
      <trkpt lat="44.50535" lon="5.65198">
        <ele>1218.1</ele>
        <time>2022-10-28T12:31:35Z</time>
      </trkpt>
      <trkpt lat="44.50532" lon="5.652">
        <ele>1218.3</ele>
        <time>2022-10-28T12:31:36Z</time>
      </trkpt>
      <trkpt lat="44.50531" lon="5.65201">
        <ele>1218.4</ele>
        <time>2022-10-28T12:31:38Z</time>
      </trkpt>
      <trkpt lat="44.5053" lon="5.65202">
        <ele>1218.5</ele>
        <time>2022-10-28T12:31:39Z</time>
      </trkpt>
      <trkpt lat="44.50528" lon="5.65203">
        <ele>1218.6</ele>
        <time>2022-10-28T12:31:40Z</time>
      </trkpt>
      <trkpt lat="44.50527" lon="5.65204">
        <ele>1218.7</ele>
        <time>2022-10-28T12:31:41Z</time>
      </trkpt>
      <trkpt lat="44.50526" lon="5.65204">
        <ele>1218.7</ele>
        <time>2022-10-28T12:31:42Z</time>
      </trkpt>
      <trkpt lat="44.50525" lon="5.65205">
        <ele>1218.8</ele>
        <time>2022-10-28T12:31:43Z</time>
      </trkpt>
      <trkpt lat="44.50524" lon="5.65206">
        <ele>1218.9</ele>
        <time>2022-10-28T12:31:45Z</time>
      </trkpt>
      <trkpt lat="44.50522" lon="5.65207">
        <ele>1219</ele>
        <time>2022-10-28T12:31:46Z</time>
      </trkpt>
      <trkpt lat="44.5052" lon="5.65208">
        <ele>1219.1</ele>
        <time>2022-10-28T12:31:47Z</time>
      </trkpt>
      <trkpt lat="44.50519" lon="5.65209">
        <ele>1219.2</ele>
        <time>2022-10-28T12:31:48Z</time>
      </trkpt>
      <trkpt lat="44.50517" lon="5.6521">
        <ele>1219.3</ele>
        <time>2022-10-28T12:31:49Z</time>
      </trkpt>
      <trkpt lat="44.50514" lon="5.65211">
        <ele>1219.5</ele>
        <time>2022-10-28T12:31:51Z</time>
      </trkpt>
      <trkpt lat="44.50512" lon="5.65212">
        <ele>1219.7</ele>
        <time>2022-10-28T12:31:52Z</time>
      </trkpt>
      <trkpt lat="44.5051" lon="5.65213">
        <ele>1219.7</ele>
        <time>2022-10-28T12:31:53Z</time>
      </trkpt>
      <trkpt lat="44.50508" lon="5.65214">
        <ele>1219.9</ele>
        <time>2022-10-28T12:31:54Z</time>
      </trkpt>
      <trkpt lat="44.50506" lon="5.65215">
        <ele>1220</ele>
        <time>2022-10-28T12:31:56Z</time>
      </trkpt>
      <trkpt lat="44.50503" lon="5.65217">
        <ele>1220.2</ele>
        <time>2022-10-28T12:31:57Z</time>
      </trkpt>
      <trkpt lat="44.50503" lon="5.65218">
        <ele>1220.3</ele>
        <time>2022-10-28T12:31:58Z</time>
      </trkpt>
      <trkpt lat="44.505" lon="5.6522">
        <ele>1220.4</ele>
        <time>2022-10-28T12:31:59Z</time>
      </trkpt>
      <trkpt lat="44.50499" lon="5.6522">
        <ele>1220.5</ele>
        <time>2022-10-28T12:32:00Z</time>
      </trkpt>
      <trkpt lat="44.50497" lon="5.65222">
        <ele>1220.7</ele>
        <time>2022-10-28T12:32:02Z</time>
      </trkpt>
      <trkpt lat="44.50496" lon="5.65223">
        <ele>1220.7</ele>
        <time>2022-10-28T12:32:03Z</time>
      </trkpt>
      <trkpt lat="44.50493" lon="5.65224">
        <ele>1221</ele>
        <time>2022-10-28T12:32:04Z</time>
      </trkpt>
      <trkpt lat="44.50492" lon="5.65225">
        <ele>1221</ele>
        <time>2022-10-28T12:32:05Z</time>
      </trkpt>
      <trkpt lat="44.5049" lon="5.65225">
        <ele>1221.2</ele>
        <time>2022-10-28T12:32:06Z</time>
      </trkpt>
      <trkpt lat="44.50488" lon="5.65226">
        <ele>1221.3</ele>
        <time>2022-10-28T12:32:08Z</time>
      </trkpt>
      <trkpt lat="44.50485" lon="5.65227">
        <ele>1221.5</ele>
        <time>2022-10-28T12:32:09Z</time>
      </trkpt>
      <trkpt lat="44.50483" lon="5.65227">
        <ele>1221.6</ele>
        <time>2022-10-28T12:32:10Z</time>
      </trkpt>
      <trkpt lat="44.50482" lon="5.65227">
        <ele>1221.8</ele>
        <time>2022-10-28T12:32:11Z</time>
      </trkpt>
      <trkpt lat="44.50479" lon="5.65227">
        <ele>1222</ele>
        <time>2022-10-28T12:32:13Z</time>
      </trkpt>
      <trkpt lat="44.50475" lon="5.65226">
        <ele>1222.2</ele>
        <time>2022-10-28T12:32:14Z</time>
      </trkpt>
      <trkpt lat="44.50474" lon="5.65225">
        <ele>1222.3</ele>
        <time>2022-10-28T12:32:15Z</time>
      </trkpt>
      <trkpt lat="44.50473" lon="5.65225">
        <ele>1222.4</ele>
        <time>2022-10-28T12:32:16Z</time>
      </trkpt>
      <trkpt lat="44.50471" lon="5.65224">
        <ele>1222.5</ele>
        <time>2022-10-28T12:32:17Z</time>
      </trkpt>
      <trkpt lat="44.50468" lon="5.65223">
        <ele>1222.7</ele>
        <time>2022-10-28T12:32:18Z</time>
      </trkpt>
      <trkpt lat="44.50467" lon="5.65222">
        <ele>1222.8</ele>
        <time>2022-10-28T12:32:20Z</time>
      </trkpt>
      <trkpt lat="44.50466" lon="5.65221">
        <ele>1222.9</ele>
        <time>2022-10-28T12:32:21Z</time>
      </trkpt>
      <trkpt lat="44.50464" lon="5.6522">
        <ele>1223</ele>
        <time>2022-10-28T12:32:22Z</time>
      </trkpt>
      <trkpt lat="44.50461" lon="5.65219">
        <ele>1223.2</ele>
        <time>2022-10-28T12:32:24Z</time>
      </trkpt>
      <trkpt lat="44.50461" lon="5.65219">
        <ele>1223.3</ele>
        <time>2022-10-28T12:32:25Z</time>
      </trkpt>
      <trkpt lat="44.50458" lon="5.65217">
        <ele>1223.5</ele>
        <time>2022-10-28T12:32:26Z</time>
      </trkpt>
      <trkpt lat="44.50457" lon="5.65216">
        <ele>1223.6</ele>
        <time>2022-10-28T12:32:27Z</time>
      </trkpt>
      <trkpt lat="44.50455" lon="5.65215">
        <ele>1223.7</ele>
        <time>2022-10-28T12:32:28Z</time>
      </trkpt>
      <trkpt lat="44.50452" lon="5.65214">
        <ele>1223.9</ele>
        <time>2022-10-28T12:32:30Z</time>
      </trkpt>
      <trkpt lat="44.50449" lon="5.65214">
        <ele>1224.2</ele>
        <time>2022-10-28T12:32:31Z</time>
      </trkpt>
      <trkpt lat="44.50448" lon="5.65214">
        <ele>1224.2</ele>
        <time>2022-10-28T12:32:32Z</time>
      </trkpt>
      <trkpt lat="44.50446" lon="5.65214">
        <ele>1224.4</ele>
        <time>2022-10-28T12:32:33Z</time>
      </trkpt>
      <trkpt lat="44.50444" lon="5.65214">
        <ele>1224.5</ele>
        <time>2022-10-28T12:32:35Z</time>
      </trkpt>
      <trkpt lat="44.50441" lon="5.65214">
        <ele>1224.7</ele>
        <time>2022-10-28T12:32:36Z</time>
      </trkpt>
      <trkpt lat="44.5044" lon="5.65214">
        <ele>1224.8</ele>
        <time>2022-10-28T12:32:37Z</time>
      </trkpt>
      <trkpt lat="44.50437" lon="5.65215">
        <ele>1225.1</ele>
        <time>2022-10-28T12:32:39Z</time>
      </trkpt>
      <trkpt lat="44.50436" lon="5.65215">
        <ele>1225.2</ele>
        <time>2022-10-28T12:32:40Z</time>
      </trkpt>
      <trkpt lat="44.50434" lon="5.65216">
        <ele>1225.3</ele>
        <time>2022-10-28T12:32:41Z</time>
      </trkpt>
      <trkpt lat="44.50433" lon="5.65216">
        <ele>1225.4</ele>
        <time>2022-10-28T12:32:42Z</time>
      </trkpt>
      <trkpt lat="44.50431" lon="5.65217">
        <ele>1225.5</ele>
        <time>2022-10-28T12:32:43Z</time>
      </trkpt>
      <trkpt lat="44.5043" lon="5.65217">
        <ele>1225.6</ele>
        <time>2022-10-28T12:32:44Z</time>
      </trkpt>
      <trkpt lat="44.50425" lon="5.6522">
        <ele>1226</ele>
        <time>2022-10-28T12:32:46Z</time>
      </trkpt>
      <trkpt lat="44.50423" lon="5.65221">
        <ele>1226.1</ele>
        <time>2022-10-28T12:32:48Z</time>
      </trkpt>
      <trkpt lat="44.50422" lon="5.65222">
        <ele>1226.2</ele>
        <time>2022-10-28T12:32:49Z</time>
      </trkpt>
      <trkpt lat="44.5042" lon="5.65223">
        <ele>1226.3</ele>
        <time>2022-10-28T12:32:50Z</time>
      </trkpt>
      <trkpt lat="44.50418" lon="5.65225">
        <ele>1226.4</ele>
        <time>2022-10-28T12:32:51Z</time>
      </trkpt>
      <trkpt lat="44.50416" lon="5.65226">
        <ele>1226.6</ele>
        <time>2022-10-28T12:32:53Z</time>
      </trkpt>
      <trkpt lat="44.50413" lon="5.65227">
        <ele>1226.8</ele>
        <time>2022-10-28T12:32:54Z</time>
      </trkpt>
      <trkpt lat="44.50409" lon="5.6523">
        <ele>1227</ele>
        <time>2022-10-28T12:32:56Z</time>
      </trkpt>
      <trkpt lat="44.50408" lon="5.6523">
        <ele>1227</ele>
        <time>2022-10-28T12:32:57Z</time>
      </trkpt>
      <trkpt lat="44.50405" lon="5.65231">
        <ele>1227.2</ele>
        <time>2022-10-28T12:32:58Z</time>
      </trkpt>
      <trkpt lat="44.50404" lon="5.65232">
        <ele>1227.3</ele>
        <time>2022-10-28T12:32:59Z</time>
      </trkpt>
      <trkpt lat="44.50402" lon="5.65232">
        <ele>1227.4</ele>
        <time>2022-10-28T12:33:00Z</time>
      </trkpt>
      <trkpt lat="44.50401" lon="5.65233">
        <ele>1227.5</ele>
        <time>2022-10-28T12:33:01Z</time>
      </trkpt>
      <trkpt lat="44.50398" lon="5.65233">
        <ele>1227.6</ele>
        <time>2022-10-28T12:33:02Z</time>
      </trkpt>
      <trkpt lat="44.50397" lon="5.65234">
        <ele>1227.7</ele>
        <time>2022-10-28T12:33:03Z</time>
      </trkpt>
      <trkpt lat="44.50395" lon="5.65234">
        <ele>1227.8</ele>
        <time>2022-10-28T12:33:04Z</time>
      </trkpt>
      <trkpt lat="44.50393" lon="5.65234">
        <ele>1227.9</ele>
        <time>2022-10-28T12:33:05Z</time>
      </trkpt>
      <trkpt lat="44.5039" lon="5.65234">
        <ele>1228</ele>
        <time>2022-10-28T12:33:06Z</time>
      </trkpt>
      <trkpt lat="44.50389" lon="5.65234">
        <ele>1228.1</ele>
        <time>2022-10-28T12:33:07Z</time>
      </trkpt>
      <trkpt lat="44.50386" lon="5.65234">
        <ele>1228.3</ele>
        <time>2022-10-28T12:33:09Z</time>
      </trkpt>
      <trkpt lat="44.50385" lon="5.65233">
        <ele>1228.4</ele>
        <time>2022-10-28T12:33:10Z</time>
      </trkpt>
      <trkpt lat="44.50382" lon="5.65233">
        <ele>1228.5</ele>
        <time>2022-10-28T12:33:11Z</time>
      </trkpt>
      <trkpt lat="44.50381" lon="5.65233">
        <ele>1228.5</ele>
        <time>2022-10-28T12:33:12Z</time>
      </trkpt>
      <trkpt lat="44.50379" lon="5.65233">
        <ele>1228.7</ele>
        <time>2022-10-28T12:33:13Z</time>
      </trkpt>
      <trkpt lat="44.50378" lon="5.65233">
        <ele>1228.7</ele>
        <time>2022-10-28T12:33:14Z</time>
      </trkpt>
      <trkpt lat="44.50374" lon="5.65232">
        <ele>1228.9</ele>
        <time>2022-10-28T12:33:16Z</time>
      </trkpt>
      <trkpt lat="44.50373" lon="5.65232">
        <ele>1228.9</ele>
        <time>2022-10-28T12:33:17Z</time>
      </trkpt>
      <trkpt lat="44.5037" lon="5.65232">
        <ele>1229.2</ele>
        <time>2022-10-28T12:33:18Z</time>
      </trkpt>
      <trkpt lat="44.50369" lon="5.65232">
        <ele>1229.2</ele>
        <time>2022-10-28T12:33:20Z</time>
      </trkpt>
      <trkpt lat="44.50367" lon="5.65232">
        <ele>1229.2</ele>
        <time>2022-10-28T12:33:21Z</time>
      </trkpt>
      <trkpt lat="44.50366" lon="5.65231">
        <ele>1229.4</ele>
        <time>2022-10-28T12:33:22Z</time>
      </trkpt>
      <trkpt lat="44.50362" lon="5.65231">
        <ele>1229.5</ele>
        <time>2022-10-28T12:33:24Z</time>
      </trkpt>
      <trkpt lat="44.50362" lon="5.65231">
        <ele>1229.5</ele>
        <time>2022-10-28T12:33:25Z</time>
      </trkpt>
      <trkpt lat="44.5036" lon="5.65232">
        <ele>1229.7</ele>
        <time>2022-10-28T12:33:26Z</time>
      </trkpt>
      <trkpt lat="44.50358" lon="5.65232">
        <ele>1229.7</ele>
        <time>2022-10-28T12:33:27Z</time>
      </trkpt>
      <trkpt lat="44.50356" lon="5.65232">
        <ele>1229.8</ele>
        <time>2022-10-28T12:33:28Z</time>
      </trkpt>
      <trkpt lat="44.50355" lon="5.65232">
        <ele>1229.9</ele>
        <time>2022-10-28T12:33:29Z</time>
      </trkpt>
      <trkpt lat="44.50354" lon="5.65232">
        <ele>1229.9</ele>
        <time>2022-10-28T12:33:30Z</time>
      </trkpt>
      <trkpt lat="44.50352" lon="5.65232">
        <ele>1230</ele>
        <time>2022-10-28T12:33:31Z</time>
      </trkpt>
      <trkpt lat="44.5035" lon="5.65233">
        <ele>1230.1</ele>
        <time>2022-10-28T12:33:32Z</time>
      </trkpt>
      <trkpt lat="44.50347" lon="5.65234">
        <ele>1230.3</ele>
        <time>2022-10-28T12:33:34Z</time>
      </trkpt>
      <trkpt lat="44.50345" lon="5.65234">
        <ele>1230.5</ele>
        <time>2022-10-28T12:33:35Z</time>
      </trkpt>
      <trkpt lat="44.50344" lon="5.65235">
        <ele>1230.5</ele>
        <time>2022-10-28T12:33:37Z</time>
      </trkpt>
      <trkpt lat="44.50342" lon="5.65235">
        <ele>1230.6</ele>
        <time>2022-10-28T12:33:38Z</time>
      </trkpt>
      <trkpt lat="44.5034" lon="5.65236">
        <ele>1230.7</ele>
        <time>2022-10-28T12:33:39Z</time>
      </trkpt>
      <trkpt lat="44.50339" lon="5.65236">
        <ele>1230.8</ele>
        <time>2022-10-28T12:33:40Z</time>
      </trkpt>
      <trkpt lat="44.50336" lon="5.65238">
        <ele>1230.9</ele>
        <time>2022-10-28T12:33:41Z</time>
      </trkpt>
      <trkpt lat="44.50335" lon="5.65238">
        <ele>1230.9</ele>
        <time>2022-10-28T12:33:42Z</time>
      </trkpt>
      <trkpt lat="44.50334" lon="5.65239">
        <ele>1231</ele>
        <time>2022-10-28T12:33:43Z</time>
      </trkpt>
      <trkpt lat="44.50331" lon="5.6524">
        <ele>1231.1</ele>
        <time>2022-10-28T12:33:45Z</time>
      </trkpt>
      <trkpt lat="44.5033" lon="5.65241">
        <ele>1231.2</ele>
        <time>2022-10-28T12:33:46Z</time>
      </trkpt>
      <trkpt lat="44.50327" lon="5.65243">
        <ele>1231.3</ele>
        <time>2022-10-28T12:33:48Z</time>
      </trkpt>
      <trkpt lat="44.50326" lon="5.65245">
        <ele>1231.4</ele>
        <time>2022-10-28T12:33:49Z</time>
      </trkpt>
      <trkpt lat="44.50325" lon="5.65246">
        <ele>1231.5</ele>
        <time>2022-10-28T12:33:50Z</time>
      </trkpt>
      <trkpt lat="44.50322" lon="5.65248">
        <ele>1231.6</ele>
        <time>2022-10-28T12:33:51Z</time>
      </trkpt>
      <trkpt lat="44.50321" lon="5.65248">
        <ele>1231.6</ele>
        <time>2022-10-28T12:33:52Z</time>
      </trkpt>
      <trkpt lat="44.50318" lon="5.6525">
        <ele>1231.8</ele>
        <time>2022-10-28T12:33:53Z</time>
      </trkpt>
      <trkpt lat="44.50317" lon="5.65251">
        <ele>1231.9</ele>
        <time>2022-10-28T12:33:54Z</time>
      </trkpt>
      <trkpt lat="44.50315" lon="5.65252">
        <ele>1232</ele>
        <time>2022-10-28T12:33:55Z</time>
      </trkpt>
      <trkpt lat="44.50313" lon="5.65254">
        <ele>1232.1</ele>
        <time>2022-10-28T12:33:57Z</time>
      </trkpt>
      <trkpt lat="44.5031" lon="5.65255">
        <ele>1232.3</ele>
        <time>2022-10-28T12:33:58Z</time>
      </trkpt>
      <trkpt lat="44.50309" lon="5.65256">
        <ele>1232.3</ele>
        <time>2022-10-28T12:33:59Z</time>
      </trkpt>
      <trkpt lat="44.50308" lon="5.65257">
        <ele>1232.4</ele>
        <time>2022-10-28T12:34:00Z</time>
      </trkpt>
      <trkpt lat="44.50306" lon="5.65258">
        <ele>1232.5</ele>
        <time>2022-10-28T12:34:01Z</time>
      </trkpt>
      <trkpt lat="44.50303" lon="5.6526">
        <ele>1232.6</ele>
        <time>2022-10-28T12:34:03Z</time>
      </trkpt>
      <trkpt lat="44.50302" lon="5.65261">
        <ele>1232.6</ele>
        <time>2022-10-28T12:34:04Z</time>
      </trkpt>
      <trkpt lat="44.50299" lon="5.65263">
        <ele>1232.8</ele>
        <time>2022-10-28T12:34:05Z</time>
      </trkpt>
      <trkpt lat="44.50299" lon="5.65264">
        <ele>1232.9</ele>
        <time>2022-10-28T12:34:06Z</time>
      </trkpt>
      <trkpt lat="44.50298" lon="5.65264">
        <ele>1232.9</ele>
        <time>2022-10-28T12:34:07Z</time>
      </trkpt>
      <trkpt lat="44.50297" lon="5.65266">
        <ele>1232.9</ele>
        <time>2022-10-28T12:34:08Z</time>
      </trkpt>
      <trkpt lat="44.50295" lon="5.65268">
        <ele>1233.1</ele>
        <time>2022-10-28T12:34:10Z</time>
      </trkpt>
      <trkpt lat="44.50293" lon="5.6527">
        <ele>1233.2</ele>
        <time>2022-10-28T12:34:11Z</time>
      </trkpt>
      <trkpt lat="44.50292" lon="5.65271">
        <ele>1233.2</ele>
        <time>2022-10-28T12:34:12Z</time>
      </trkpt>
      <trkpt lat="44.50289" lon="5.65274">
        <ele>1233.4</ele>
        <time>2022-10-28T12:34:13Z</time>
      </trkpt>
      <trkpt lat="44.50288" lon="5.65274">
        <ele>1233.4</ele>
        <time>2022-10-28T12:34:14Z</time>
      </trkpt>
      <trkpt lat="44.50286" lon="5.65277">
        <ele>1233.6</ele>
        <time>2022-10-28T12:34:16Z</time>
      </trkpt>
      <trkpt lat="44.50285" lon="5.65278">
        <ele>1233.6</ele>
        <time>2022-10-28T12:34:17Z</time>
      </trkpt>
      <trkpt lat="44.50281" lon="5.65281">
        <ele>1233.8</ele>
        <time>2022-10-28T12:34:18Z</time>
      </trkpt>
      <trkpt lat="44.5028" lon="5.65282">
        <ele>1233.8</ele>
        <time>2022-10-28T12:34:19Z</time>
      </trkpt>
      <trkpt lat="44.50278" lon="5.65285">
        <ele>1234</ele>
        <time>2022-10-28T12:34:20Z</time>
      </trkpt>
      <trkpt lat="44.50277" lon="5.65286">
        <ele>1234</ele>
        <time>2022-10-28T12:34:21Z</time>
      </trkpt>
      <trkpt lat="44.50275" lon="5.65289">
        <ele>1234.2</ele>
        <time>2022-10-28T12:34:23Z</time>
      </trkpt>
      <trkpt lat="44.50274" lon="5.6529">
        <ele>1234.2</ele>
        <time>2022-10-28T12:34:24Z</time>
      </trkpt>
      <trkpt lat="44.50271" lon="5.65293">
        <ele>1234.4</ele>
        <time>2022-10-28T12:34:25Z</time>
      </trkpt>
      <trkpt lat="44.50271" lon="5.65295">
        <ele>1234.4</ele>
        <time>2022-10-28T12:34:26Z</time>
      </trkpt>
      <trkpt lat="44.50269" lon="5.65297">
        <ele>1234.5</ele>
        <time>2022-10-28T12:34:27Z</time>
      </trkpt>
      <trkpt lat="44.50267" lon="5.65299">
        <ele>1234.6</ele>
        <time>2022-10-28T12:34:29Z</time>
      </trkpt>
      <trkpt lat="44.50266" lon="5.653">
        <ele>1234.6</ele>
        <time>2022-10-28T12:34:30Z</time>
      </trkpt>
      <trkpt lat="44.50265" lon="5.65302">
        <ele>1234.7</ele>
        <time>2022-10-28T12:34:31Z</time>
      </trkpt>
      <trkpt lat="44.50264" lon="5.65303">
        <ele>1234.8</ele>
        <time>2022-10-28T12:34:32Z</time>
      </trkpt>
      <trkpt lat="44.50263" lon="5.65304">
        <ele>1234.8</ele>
        <time>2022-10-28T12:34:33Z</time>
      </trkpt>
      <trkpt lat="44.5026" lon="5.65307">
        <ele>1235</ele>
        <time>2022-10-28T12:34:34Z</time>
      </trkpt>
      <trkpt lat="44.5026" lon="5.65308">
        <ele>1234.9</ele>
        <time>2022-10-28T12:34:35Z</time>
      </trkpt>
      <trkpt lat="44.50259" lon="5.65309">
        <ele>1235</ele>
        <time>2022-10-28T12:34:36Z</time>
      </trkpt>
      <trkpt lat="44.50257" lon="5.65311">
        <ele>1235.1</ele>
        <time>2022-10-28T12:34:37Z</time>
      </trkpt>
      <trkpt lat="44.50255" lon="5.65314">
        <ele>1235.2</ele>
        <time>2022-10-28T12:34:38Z</time>
      </trkpt>
      <trkpt lat="44.50254" lon="5.65315">
        <ele>1235.3</ele>
        <time>2022-10-28T12:34:39Z</time>
      </trkpt>
      <trkpt lat="44.50252" lon="5.65318">
        <ele>1235.4</ele>
        <time>2022-10-28T12:34:41Z</time>
      </trkpt>
      <trkpt lat="44.50251" lon="5.65319">
        <ele>1235.5</ele>
        <time>2022-10-28T12:34:42Z</time>
      </trkpt>
      <trkpt lat="44.50248" lon="5.65322">
        <ele>1235.6</ele>
        <time>2022-10-28T12:34:43Z</time>
      </trkpt>
      <trkpt lat="44.50248" lon="5.65323">
        <ele>1235.6</ele>
        <time>2022-10-28T12:34:44Z</time>
      </trkpt>
      <trkpt lat="44.50245" lon="5.65326">
        <ele>1235.8</ele>
        <time>2022-10-28T12:34:45Z</time>
      </trkpt>
      <trkpt lat="44.50244" lon="5.65327">
        <ele>1235.9</ele>
        <time>2022-10-28T12:34:46Z</time>
      </trkpt>
      <trkpt lat="44.50243" lon="5.65328">
        <ele>1236</ele>
        <time>2022-10-28T12:34:47Z</time>
      </trkpt>
      <trkpt lat="44.50241" lon="5.6533">
        <ele>1236.1</ele>
        <time>2022-10-28T12:34:49Z</time>
      </trkpt>
      <trkpt lat="44.50237" lon="5.65333">
        <ele>1236.4</ele>
        <time>2022-10-28T12:34:50Z</time>
      </trkpt>
      <trkpt lat="44.50236" lon="5.65334">
        <ele>1236.4</ele>
        <time>2022-10-28T12:34:51Z</time>
      </trkpt>
      <trkpt lat="44.50235" lon="5.65335">
        <ele>1236.5</ele>
        <time>2022-10-28T12:34:52Z</time>
      </trkpt>
      <trkpt lat="44.50233" lon="5.65336">
        <ele>1236.6</ele>
        <time>2022-10-28T12:34:53Z</time>
      </trkpt>
      <trkpt lat="44.50231" lon="5.65337">
        <ele>1236.7</ele>
        <time>2022-10-28T12:34:54Z</time>
      </trkpt>
      <trkpt lat="44.5023" lon="5.65338">
        <ele>1236.8</ele>
        <time>2022-10-28T12:34:55Z</time>
      </trkpt>
      <trkpt lat="44.50227" lon="5.65339">
        <ele>1237</ele>
        <time>2022-10-28T12:34:57Z</time>
      </trkpt>
      <trkpt lat="44.50226" lon="5.6534">
        <ele>1237</ele>
        <time>2022-10-28T12:34:58Z</time>
      </trkpt>
      <trkpt lat="44.50224" lon="5.65341">
        <ele>1237.1</ele>
        <time>2022-10-28T12:34:59Z</time>
      </trkpt>
      <trkpt lat="44.50222" lon="5.65342">
        <ele>1237.2</ele>
        <time>2022-10-28T12:35:00Z</time>
      </trkpt>
      <trkpt lat="44.5022" lon="5.65343">
        <ele>1237.4</ele>
        <time>2022-10-28T12:35:01Z</time>
      </trkpt>
      <trkpt lat="44.50219" lon="5.65343">
        <ele>1237.4</ele>
        <time>2022-10-28T12:35:02Z</time>
      </trkpt>
      <trkpt lat="44.50217" lon="5.65344">
        <ele>1237.5</ele>
        <time>2022-10-28T12:35:03Z</time>
      </trkpt>
      <trkpt lat="44.50214" lon="5.65345">
        <ele>1237.7</ele>
        <time>2022-10-28T12:35:05Z</time>
      </trkpt>
      <trkpt lat="44.50211" lon="5.65347">
        <ele>1237.9</ele>
        <time>2022-10-28T12:35:06Z</time>
      </trkpt>
      <trkpt lat="44.5021" lon="5.65348">
        <ele>1237.9</ele>
        <time>2022-10-28T12:35:07Z</time>
      </trkpt>
      <trkpt lat="44.50207" lon="5.65349">
        <ele>1238.1</ele>
        <time>2022-10-28T12:35:09Z</time>
      </trkpt>
      <trkpt lat="44.50206" lon="5.6535">
        <ele>1238.1</ele>
        <time>2022-10-28T12:35:10Z</time>
      </trkpt>
      <trkpt lat="44.50203" lon="5.65351">
        <ele>1238.3</ele>
        <time>2022-10-28T12:35:11Z</time>
      </trkpt>
      <trkpt lat="44.50203" lon="5.65351">
        <ele>1238.3</ele>
        <time>2022-10-28T12:35:12Z</time>
      </trkpt>
      <trkpt lat="44.502" lon="5.65353">
        <ele>1238.5</ele>
        <time>2022-10-28T12:35:13Z</time>
      </trkpt>
      <trkpt lat="44.50199" lon="5.65353">
        <ele>1238.5</ele>
        <time>2022-10-28T12:35:14Z</time>
      </trkpt>
      <trkpt lat="44.50196" lon="5.65355">
        <ele>1238.7</ele>
        <time>2022-10-28T12:35:15Z</time>
      </trkpt>
      <trkpt lat="44.50196" lon="5.65355">
        <ele>1238.7</ele>
        <time>2022-10-28T12:35:16Z</time>
      </trkpt>
      <trkpt lat="44.50193" lon="5.65357">
        <ele>1238.9</ele>
        <time>2022-10-28T12:35:18Z</time>
      </trkpt>
      <trkpt lat="44.50192" lon="5.65358">
        <ele>1239</ele>
        <time>2022-10-28T12:35:19Z</time>
      </trkpt>
      <trkpt lat="44.5019" lon="5.65359">
        <ele>1239</ele>
        <time>2022-10-28T12:35:20Z</time>
      </trkpt>
      <trkpt lat="44.50187" lon="5.6536">
        <ele>1239.2</ele>
        <time>2022-10-28T12:35:21Z</time>
      </trkpt>
      <trkpt lat="44.50187" lon="5.6536">
        <ele>1239.2</ele>
        <time>2022-10-28T12:35:22Z</time>
      </trkpt>
      <trkpt lat="44.50185" lon="5.65361">
        <ele>1239.3</ele>
        <time>2022-10-28T12:35:23Z</time>
      </trkpt>
      <trkpt lat="44.50183" lon="5.65362">
        <ele>1239.4</ele>
        <time>2022-10-28T12:35:25Z</time>
      </trkpt>
      <trkpt lat="44.5018" lon="5.65363">
        <ele>1239.6</ele>
        <time>2022-10-28T12:35:26Z</time>
      </trkpt>
      <trkpt lat="44.50178" lon="5.65363">
        <ele>1239.6</ele>
        <time>2022-10-28T12:35:27Z</time>
      </trkpt>
      <trkpt lat="44.50175" lon="5.65363">
        <ele>1239.8</ele>
        <time>2022-10-28T12:35:28Z</time>
      </trkpt>
      <trkpt lat="44.50175" lon="5.65364">
        <ele>1239.8</ele>
        <time>2022-10-28T12:35:29Z</time>
      </trkpt>
      <trkpt lat="44.50173" lon="5.65364">
        <ele>1239.9</ele>
        <time>2022-10-28T12:35:30Z</time>
      </trkpt>
      <trkpt lat="44.5017" lon="5.65365">
        <ele>1240.1</ele>
        <time>2022-10-28T12:35:32Z</time>
      </trkpt>
      <trkpt lat="44.50167" lon="5.65365">
        <ele>1240.2</ele>
        <time>2022-10-28T12:35:33Z</time>
      </trkpt>
      <trkpt lat="44.50166" lon="5.65366">
        <ele>1240.2</ele>
        <time>2022-10-28T12:35:34Z</time>
      </trkpt>
      <trkpt lat="44.50163" lon="5.65366">
        <ele>1240.4</ele>
        <time>2022-10-28T12:35:35Z</time>
      </trkpt>
      <trkpt lat="44.50162" lon="5.65366">
        <ele>1240.4</ele>
        <time>2022-10-28T12:35:36Z</time>
      </trkpt>
      <trkpt lat="44.50159" lon="5.65366">
        <ele>1240.6</ele>
        <time>2022-10-28T12:35:38Z</time>
      </trkpt>
      <trkpt lat="44.50158" lon="5.65367">
        <ele>1240.7</ele>
        <time>2022-10-28T12:35:39Z</time>
      </trkpt>
      <trkpt lat="44.50155" lon="5.65367">
        <ele>1240.8</ele>
        <time>2022-10-28T12:35:40Z</time>
      </trkpt>
      <trkpt lat="44.50154" lon="5.65367">
        <ele>1240.9</ele>
        <time>2022-10-28T12:35:41Z</time>
      </trkpt>
      <trkpt lat="44.50151" lon="5.65367">
        <ele>1241</ele>
        <time>2022-10-28T12:35:43Z</time>
      </trkpt>
      <trkpt lat="44.50148" lon="5.65368">
        <ele>1241.2</ele>
        <time>2022-10-28T12:35:44Z</time>
      </trkpt>
      <trkpt lat="44.50147" lon="5.65368">
        <ele>1241.2</ele>
        <time>2022-10-28T12:35:45Z</time>
      </trkpt>
      <trkpt lat="44.50144" lon="5.65369">
        <ele>1241.4</ele>
        <time>2022-10-28T12:35:46Z</time>
      </trkpt>
      <trkpt lat="44.50143" lon="5.65369">
        <ele>1241.4</ele>
        <time>2022-10-28T12:35:47Z</time>
      </trkpt>
      <trkpt lat="44.5014" lon="5.6537">
        <ele>1241.6</ele>
        <time>2022-10-28T12:35:49Z</time>
      </trkpt>
      <trkpt lat="44.50136" lon="5.65371">
        <ele>1241.8</ele>
        <time>2022-10-28T12:35:50Z</time>
      </trkpt>
      <trkpt lat="44.50133" lon="5.65372">
        <ele>1242</ele>
        <time>2022-10-28T12:35:52Z</time>
      </trkpt>
      <trkpt lat="44.5013" lon="5.65373">
        <ele>1242.1</ele>
        <time>2022-10-28T12:35:53Z</time>
      </trkpt>
      <trkpt lat="44.50128" lon="5.65374">
        <ele>1242.2</ele>
        <time>2022-10-28T12:35:54Z</time>
      </trkpt>
      <trkpt lat="44.50125" lon="5.65375">
        <ele>1242.4</ele>
        <time>2022-10-28T12:35:56Z</time>
      </trkpt>
      <trkpt lat="44.50122" lon="5.65376">
        <ele>1242.5</ele>
        <time>2022-10-28T12:35:57Z</time>
      </trkpt>
      <trkpt lat="44.50119" lon="5.65377">
        <ele>1242.7</ele>
        <time>2022-10-28T12:35:58Z</time>
      </trkpt>
      <trkpt lat="44.50117" lon="5.65377">
        <ele>1242.8</ele>
        <time>2022-10-28T12:35:59Z</time>
      </trkpt>
      <trkpt lat="44.50115" lon="5.65378">
        <ele>1242.9</ele>
        <time>2022-10-28T12:36:00Z</time>
      </trkpt>
      <trkpt lat="44.50111" lon="5.65379">
        <ele>1243.1</ele>
        <time>2022-10-28T12:36:01Z</time>
      </trkpt>
      <trkpt lat="44.5011" lon="5.65379">
        <ele>1243.2</ele>
        <time>2022-10-28T12:36:02Z</time>
      </trkpt>
      <trkpt lat="44.50106" lon="5.6538">
        <ele>1243.4</ele>
        <time>2022-10-28T12:36:04Z</time>
      </trkpt>
      <trkpt lat="44.50104" lon="5.65381">
        <ele>1243.5</ele>
        <time>2022-10-28T12:36:05Z</time>
      </trkpt>
      <trkpt lat="44.50102" lon="5.65381">
        <ele>1243.6</ele>
        <time>2022-10-28T12:36:06Z</time>
      </trkpt>
      <trkpt lat="44.50099" lon="5.65382">
        <ele>1243.7</ele>
        <time>2022-10-28T12:36:07Z</time>
      </trkpt>
      <trkpt lat="44.50098" lon="5.65383">
        <ele>1243.8</ele>
        <time>2022-10-28T12:36:08Z</time>
      </trkpt>
      <trkpt lat="44.50096" lon="5.65383">
        <ele>1243.9</ele>
        <time>2022-10-28T12:36:09Z</time>
      </trkpt>
      <trkpt lat="44.50094" lon="5.65384">
        <ele>1244</ele>
        <time>2022-10-28T12:36:11Z</time>
      </trkpt>
      <trkpt lat="44.50091" lon="5.65385">
        <ele>1244.2</ele>
        <time>2022-10-28T12:36:12Z</time>
      </trkpt>
      <trkpt lat="44.5009" lon="5.65385">
        <ele>1244.2</ele>
        <time>2022-10-28T12:36:13Z</time>
      </trkpt>
      <trkpt lat="44.50085" lon="5.65386">
        <ele>1244.5</ele>
        <time>2022-10-28T12:36:15Z</time>
      </trkpt>
      <trkpt lat="44.50084" lon="5.65387">
        <ele>1244.5</ele>
        <time>2022-10-28T12:36:16Z</time>
      </trkpt>
      <trkpt lat="44.50081" lon="5.65389">
        <ele>1244.7</ele>
        <time>2022-10-28T12:36:18Z</time>
      </trkpt>
      <trkpt lat="44.5008" lon="5.65389">
        <ele>1244.8</ele>
        <time>2022-10-28T12:36:19Z</time>
      </trkpt>
      <trkpt lat="44.50077" lon="5.65391">
        <ele>1244.9</ele>
        <time>2022-10-28T12:36:20Z</time>
      </trkpt>
      <trkpt lat="44.50076" lon="5.65391">
        <ele>1245</ele>
        <time>2022-10-28T12:36:21Z</time>
      </trkpt>
      <trkpt lat="44.50074" lon="5.65391">
        <ele>1245.1</ele>
        <time>2022-10-28T12:36:22Z</time>
      </trkpt>
      <trkpt lat="44.50073" lon="5.65391">
        <ele>1245.1</ele>
        <time>2022-10-28T12:36:23Z</time>
      </trkpt>
      <trkpt lat="44.50073" lon="5.65391">
        <ele>1245.1</ele>
        <time>2022-10-28T12:36:24Z</time>
      </trkpt>
      <trkpt lat="44.50073" lon="5.65391">
        <ele>1245.2</ele>
        <time>2022-10-28T12:36:25Z</time>
      </trkpt>
      <trkpt lat="44.50073" lon="5.65391">
        <ele>1245.2</ele>
        <time>2022-10-28T12:36:26Z</time>
      </trkpt>
      <trkpt lat="44.50073" lon="5.65391">
        <ele>1245.2</ele>
        <time>2022-10-28T12:36:27Z</time>
      </trkpt>
      <trkpt lat="44.50073" lon="5.6539">
        <ele>1245.2</ele>
        <time>2022-10-28T12:36:28Z</time>
      </trkpt>
      <trkpt lat="44.50073" lon="5.6539">
        <ele>1245.2</ele>
        <time>2022-10-28T12:36:29Z</time>
      </trkpt>
      <trkpt lat="44.50073" lon="5.6539">
        <ele>1245.2</ele>
        <time>2022-10-28T12:36:30Z</time>
      </trkpt>
      <trkpt lat="44.50073" lon="5.6539">
        <ele>1245.2</ele>
        <time>2022-10-28T12:36:31Z</time>
      </trkpt>
      <trkpt lat="44.50073" lon="5.6539">
        <ele>1245.2</ele>
        <time>2022-10-28T12:36:32Z</time>
      </trkpt>
      <trkpt lat="44.50073" lon="5.6539">
        <ele>1245.2</ele>
        <time>2022-10-28T12:36:33Z</time>
      </trkpt>
      <trkpt lat="44.50073" lon="5.6539">
        <ele>1245.2</ele>
        <time>2022-10-28T12:36:34Z</time>
      </trkpt>
      <trkpt lat="44.50069" lon="5.65393">
        <ele>1245.4</ele>
        <time>2022-10-28T12:37:07Z</time>
      </trkpt>
      <trkpt lat="44.50067" lon="5.65395">
        <ele>1245.5</ele>
        <time>2022-10-28T12:37:08Z</time>
      </trkpt>
      <trkpt lat="44.50064" lon="5.65398">
        <ele>1245.7</ele>
        <time>2022-10-28T12:37:10Z</time>
      </trkpt>
      <trkpt lat="44.50062" lon="5.65399">
        <ele>1245.8</ele>
        <time>2022-10-28T12:37:11Z</time>
      </trkpt>
      <trkpt lat="44.50061" lon="5.654">
        <ele>1245.9</ele>
        <time>2022-10-28T12:37:12Z</time>
      </trkpt>
      <trkpt lat="44.5006" lon="5.65401">
        <ele>1245.9</ele>
        <time>2022-10-28T12:37:13Z</time>
      </trkpt>
      <trkpt lat="44.50058" lon="5.65402">
        <ele>1246</ele>
        <time>2022-10-28T12:37:15Z</time>
      </trkpt>
      <trkpt lat="44.50057" lon="5.65401">
        <ele>1246.1</ele>
        <time>2022-10-28T12:37:16Z</time>
      </trkpt>
      <trkpt lat="44.50056" lon="5.654">
        <ele>1246.2</ele>
        <time>2022-10-28T12:37:17Z</time>
      </trkpt>
      <trkpt lat="44.50056" lon="5.65399">
        <ele>1246.2</ele>
        <time>2022-10-28T12:37:18Z</time>
      </trkpt>
      <trkpt lat="44.50056" lon="5.65398">
        <ele>1246.2</ele>
        <time>2022-10-28T12:37:19Z</time>
      </trkpt>
      <trkpt lat="44.50056" lon="5.65399">
        <ele>1246.2</ele>
        <time>2022-10-28T12:37:20Z</time>
      </trkpt>
      <trkpt lat="44.50056" lon="5.65399">
        <ele>1246.2</ele>
        <time>2022-10-28T12:37:21Z</time>
      </trkpt>
      <trkpt lat="44.50056" lon="5.65399">
        <ele>1246.2</ele>
        <time>2022-10-28T12:37:22Z</time>
      </trkpt>
      <trkpt lat="44.50056" lon="5.65399">
        <ele>1246.2</ele>
        <time>2022-10-28T12:37:23Z</time>
      </trkpt>
      <trkpt lat="44.50056" lon="5.65399">
        <ele>1246.3</ele>
        <time>2022-10-28T12:37:24Z</time>
      </trkpt>
      <trkpt lat="44.50056" lon="5.65399">
        <ele>1246.3</ele>
        <time>2022-10-28T12:37:25Z</time>
      </trkpt>
      <trkpt lat="44.50056" lon="5.65399">
        <ele>1246.3</ele>
        <time>2022-10-28T12:37:26Z</time>
      </trkpt>
      <trkpt lat="44.50056" lon="5.65399">
        <ele>1246.3</ele>
        <time>2022-10-28T12:37:27Z</time>
      </trkpt>
      <trkpt lat="44.50055" lon="5.65399">
        <ele>1246.3</ele>
        <time>2022-10-28T12:37:28Z</time>
      </trkpt>
      <trkpt lat="44.50058" lon="5.654">
        <ele>1246.4</ele>
        <time>2022-10-28T12:37:44Z</time>
      </trkpt>
      <trkpt lat="44.50059" lon="5.654">
        <ele>1246.5</ele>
        <time>2022-10-28T12:37:45Z</time>
      </trkpt>
      <trkpt lat="44.50061" lon="5.65399">
        <ele>1246.6</ele>
        <time>2022-10-28T12:37:46Z</time>
      </trkpt>
      <trkpt lat="44.50063" lon="5.65397">
        <ele>1246.7</ele>
        <time>2022-10-28T12:37:47Z</time>
      </trkpt>
      <trkpt lat="44.50064" lon="5.65397">
        <ele>1246.7</ele>
        <time>2022-10-28T12:37:48Z</time>
      </trkpt>
      <trkpt lat="44.50065" lon="5.65396">
        <ele>1246.8</ele>
        <time>2022-10-28T12:37:49Z</time>
      </trkpt>
      <trkpt lat="44.50067" lon="5.65396">
        <ele>1246.9</ele>
        <time>2022-10-28T12:37:50Z</time>
      </trkpt>
      <trkpt lat="44.50069" lon="5.65395">
        <ele>1247</ele>
        <time>2022-10-28T12:37:51Z</time>
      </trkpt>
      <trkpt lat="44.50071" lon="5.65394">
        <ele>1247.1</ele>
        <time>2022-10-28T12:37:53Z</time>
      </trkpt>
      <trkpt lat="44.50073" lon="5.65393">
        <ele>1247.2</ele>
        <time>2022-10-28T12:37:54Z</time>
      </trkpt>
      <trkpt lat="44.50074" lon="5.65392">
        <ele>1247.2</ele>
        <time>2022-10-28T12:37:55Z</time>
      </trkpt>
      <trkpt lat="44.50075" lon="5.65391">
        <ele>1247.3</ele>
        <time>2022-10-28T12:37:57Z</time>
      </trkpt>
      <trkpt lat="44.50077" lon="5.6539">
        <ele>1247.4</ele>
        <time>2022-10-28T12:37:58Z</time>
      </trkpt>
      <trkpt lat="44.50079" lon="5.65389">
        <ele>1247.5</ele>
        <time>2022-10-28T12:37:59Z</time>
      </trkpt>
      <trkpt lat="44.50079" lon="5.65389">
        <ele>1247.5</ele>
        <time>2022-10-28T12:38:00Z</time>
      </trkpt>
      <trkpt lat="44.5008" lon="5.65388">
        <ele>1247.6</ele>
        <time>2022-10-28T12:38:01Z</time>
      </trkpt>
      <trkpt lat="44.50081" lon="5.65388">
        <ele>1247.6</ele>
        <time>2022-10-28T12:38:02Z</time>
      </trkpt>
      <trkpt lat="44.50082" lon="5.65387">
        <ele>1247.7</ele>
        <time>2022-10-28T12:38:03Z</time>
      </trkpt>
      <trkpt lat="44.50084" lon="5.65386">
        <ele>1247.7</ele>
        <time>2022-10-28T12:38:05Z</time>
      </trkpt>
      <trkpt lat="44.50085" lon="5.65386">
        <ele>1247.8</ele>
        <time>2022-10-28T12:38:06Z</time>
      </trkpt>
      <trkpt lat="44.50086" lon="5.65385">
        <ele>1247.9</ele>
        <time>2022-10-28T12:38:07Z</time>
      </trkpt>
      <trkpt lat="44.50088" lon="5.65385">
        <ele>1247.9</ele>
        <time>2022-10-28T12:38:08Z</time>
      </trkpt>
      <trkpt lat="44.50089" lon="5.65385">
        <ele>1248</ele>
        <time>2022-10-28T12:38:10Z</time>
      </trkpt>
      <trkpt lat="44.50091" lon="5.65385">
        <ele>1248.1</ele>
        <time>2022-10-28T12:38:11Z</time>
      </trkpt>
      <trkpt lat="44.50092" lon="5.65384">
        <ele>1248.2</ele>
        <time>2022-10-28T12:38:12Z</time>
      </trkpt>
      <trkpt lat="44.50093" lon="5.65384">
        <ele>1248.2</ele>
        <time>2022-10-28T12:38:14Z</time>
      </trkpt>
      <trkpt lat="44.50094" lon="5.65384">
        <ele>1248.3</ele>
        <time>2022-10-28T12:38:15Z</time>
      </trkpt>
      <trkpt lat="44.50095" lon="5.65384">
        <ele>1248.3</ele>
        <time>2022-10-28T12:38:16Z</time>
      </trkpt>
      <trkpt lat="44.50096" lon="5.65383">
        <ele>1248.4</ele>
        <time>2022-10-28T12:38:17Z</time>
      </trkpt>
      <trkpt lat="44.50098" lon="5.65383">
        <ele>1248.4</ele>
        <time>2022-10-28T12:38:18Z</time>
      </trkpt>
      <trkpt lat="44.50099" lon="5.65382">
        <ele>1248.5</ele>
        <time>2022-10-28T12:38:19Z</time>
      </trkpt>
      <trkpt lat="44.501" lon="5.65382">
        <ele>1248.6</ele>
        <time>2022-10-28T12:38:20Z</time>
      </trkpt>
      <trkpt lat="44.50101" lon="5.65382">
        <ele>1248.6</ele>
        <time>2022-10-28T12:38:22Z</time>
      </trkpt>
      <trkpt lat="44.50102" lon="5.65381">
        <ele>1248.7</ele>
        <time>2022-10-28T12:38:23Z</time>
      </trkpt>
      <trkpt lat="44.50104" lon="5.65381">
        <ele>1248.8</ele>
        <time>2022-10-28T12:38:24Z</time>
      </trkpt>
      <trkpt lat="44.50105" lon="5.65381">
        <ele>1248.8</ele>
        <time>2022-10-28T12:38:25Z</time>
      </trkpt>
      <trkpt lat="44.50106" lon="5.65381">
        <ele>1248.9</ele>
        <time>2022-10-28T12:38:26Z</time>
      </trkpt>
      <trkpt lat="44.50108" lon="5.6538">
        <ele>1249</ele>
        <time>2022-10-28T12:38:28Z</time>
      </trkpt>
      <trkpt lat="44.50109" lon="5.6538">
        <ele>1249</ele>
        <time>2022-10-28T12:38:29Z</time>
      </trkpt>
      <trkpt lat="44.5011" lon="5.65379">
        <ele>1249.1</ele>
        <time>2022-10-28T12:38:30Z</time>
      </trkpt>
      <trkpt lat="44.5011" lon="5.65379">
        <ele>1249.1</ele>
        <time>2022-10-28T12:38:31Z</time>
      </trkpt>
      <trkpt lat="44.5011" lon="5.65378">
        <ele>1249.2</ele>
        <time>2022-10-28T12:38:32Z</time>
      </trkpt>
      <trkpt lat="44.50109" lon="5.65377">
        <ele>1249.2</ele>
        <time>2022-10-28T12:38:33Z</time>
      </trkpt>
      <trkpt lat="44.50109" lon="5.65376">
        <ele>1249.3</ele>
        <time>2022-10-28T12:38:34Z</time>
      </trkpt>
      <trkpt lat="44.50108" lon="5.65375">
        <ele>1249.3</ele>
        <time>2022-10-28T12:38:36Z</time>
      </trkpt>
      <trkpt lat="44.50108" lon="5.65374">
        <ele>1249.3</ele>
        <time>2022-10-28T12:38:37Z</time>
      </trkpt>
      <trkpt lat="44.50108" lon="5.65373">
        <ele>1249.4</ele>
        <time>2022-10-28T12:38:38Z</time>
      </trkpt>
      <trkpt lat="44.50108" lon="5.65372">
        <ele>1249.4</ele>
        <time>2022-10-28T12:38:39Z</time>
      </trkpt>
      <trkpt lat="44.50109" lon="5.65371">
        <ele>1249.5</ele>
        <time>2022-10-28T12:38:40Z</time>
      </trkpt>
      <trkpt lat="44.50109" lon="5.6537">
        <ele>1249.5</ele>
        <time>2022-10-28T12:38:41Z</time>
      </trkpt>
      <trkpt lat="44.50109" lon="5.6537">
        <ele>1249.5</ele>
        <time>2022-10-28T12:38:42Z</time>
      </trkpt>
      <trkpt lat="44.50109" lon="5.6537">
        <ele>1249.5</ele>
        <time>2022-10-28T12:38:43Z</time>
      </trkpt>
      <trkpt lat="44.50108" lon="5.65371">
        <ele>1249.5</ele>
        <time>2022-10-28T12:38:44Z</time>
      </trkpt>
      <trkpt lat="44.50108" lon="5.65371">
        <ele>1249.5</ele>
        <time>2022-10-28T12:38:45Z</time>
      </trkpt>
      <trkpt lat="44.50108" lon="5.65371">
        <ele>1249.5</ele>
        <time>2022-10-28T12:38:46Z</time>
      </trkpt>
      <trkpt lat="44.50108" lon="5.65371">
        <ele>1249.5</ele>
        <time>2022-10-28T12:38:47Z</time>
      </trkpt>
      <trkpt lat="44.50108" lon="5.65372">
        <ele>1249.5</ele>
        <time>2022-10-28T12:38:48Z</time>
      </trkpt>
      <trkpt lat="44.50108" lon="5.65372">
        <ele>1249.6</ele>
        <time>2022-10-28T12:38:49Z</time>
      </trkpt>
      <trkpt lat="44.50108" lon="5.65372">
        <ele>1249.6</ele>
        <time>2022-10-28T12:38:50Z</time>
      </trkpt>
      <trkpt lat="44.50108" lon="5.65372">
        <ele>1249.6</ele>
        <time>2022-10-28T12:38:51Z</time>
      </trkpt>
      <trkpt lat="44.50107" lon="5.65372">
        <ele>1249.6</ele>
        <time>2022-10-28T12:38:52Z</time>
      </trkpt>
      <trkpt lat="44.50107" lon="5.65373">
        <ele>1249.6</ele>
        <time>2022-10-28T12:38:53Z</time>
      </trkpt>
      <trkpt lat="44.50107" lon="5.65373">
        <ele>1249.6</ele>
        <time>2022-10-28T12:38:54Z</time>
      </trkpt>
      <trkpt lat="44.50107" lon="5.65373">
        <ele>1249.6</ele>
        <time>2022-10-28T12:38:56Z</time>
      </trkpt>
      <trkpt lat="44.50107" lon="5.65373">
        <ele>1249.6</ele>
        <time>2022-10-28T12:38:57Z</time>
      </trkpt>
      <trkpt lat="44.50107" lon="5.65374">
        <ele>1249.6</ele>
        <time>2022-10-28T12:38:58Z</time>
      </trkpt>
      <trkpt lat="44.50107" lon="5.65374">
        <ele>1249.7</ele>
        <time>2022-10-28T12:38:59Z</time>
      </trkpt>
      <trkpt lat="44.50107" lon="5.65374">
        <ele>1249.7</ele>
        <time>2022-10-28T12:39:00Z</time>
      </trkpt>
      <trkpt lat="44.50106" lon="5.65374">
        <ele>1249.7</ele>
        <time>2022-10-28T12:39:01Z</time>
      </trkpt>
      <trkpt lat="44.50105" lon="5.65376">
        <ele>1249.8</ele>
        <time>2022-10-28T12:39:03Z</time>
      </trkpt>
      <trkpt lat="44.50104" lon="5.65377">
        <ele>1249.8</ele>
        <time>2022-10-28T12:39:04Z</time>
      </trkpt>
      <trkpt lat="44.50103" lon="5.65378">
        <ele>1249.9</ele>
        <time>2022-10-28T12:39:05Z</time>
      </trkpt>
      <trkpt lat="44.50102" lon="5.65379">
        <ele>1250</ele>
        <time>2022-10-28T12:39:06Z</time>
      </trkpt>
      <trkpt lat="44.501" lon="5.65379">
        <ele>1250.1</ele>
        <time>2022-10-28T12:39:07Z</time>
      </trkpt>
      <trkpt lat="44.50099" lon="5.65378">
        <ele>1250.1</ele>
        <time>2022-10-28T12:39:09Z</time>
      </trkpt>
      <trkpt lat="44.50098" lon="5.65378">
        <ele>1250.2</ele>
        <time>2022-10-28T12:39:10Z</time>
      </trkpt>
      <trkpt lat="44.50097" lon="5.65377">
        <ele>1250.2</ele>
        <time>2022-10-28T12:39:11Z</time>
      </trkpt>
      <trkpt lat="44.50096" lon="5.65377">
        <ele>1250.3</ele>
        <time>2022-10-28T12:39:12Z</time>
      </trkpt>
      <trkpt lat="44.50095" lon="5.65376">
        <ele>1250.4</ele>
        <time>2022-10-28T12:39:13Z</time>
      </trkpt>
      <trkpt lat="44.50094" lon="5.65375">
        <ele>1250.4</ele>
        <time>2022-10-28T12:39:14Z</time>
      </trkpt>
      <trkpt lat="44.50092" lon="5.65375">
        <ele>1250.5</ele>
        <time>2022-10-28T12:39:15Z</time>
      </trkpt>
      <trkpt lat="44.50091" lon="5.65375">
        <ele>1250.6</ele>
        <time>2022-10-28T12:39:16Z</time>
      </trkpt>
      <trkpt lat="44.5009" lon="5.65375">
        <ele>1250.6</ele>
        <time>2022-10-28T12:39:17Z</time>
      </trkpt>
      <trkpt lat="44.50089" lon="5.65376">
        <ele>1250.7</ele>
        <time>2022-10-28T12:39:18Z</time>
      </trkpt>
      <trkpt lat="44.50088" lon="5.65377">
        <ele>1250.8</ele>
        <time>2022-10-28T12:39:19Z</time>
      </trkpt>
      <trkpt lat="44.50086" lon="5.65378">
        <ele>1250.9</ele>
        <time>2022-10-28T12:39:20Z</time>
      </trkpt>
      <trkpt lat="44.50084" lon="5.65381">
        <ele>1251.1</ele>
        <time>2022-10-28T12:39:21Z</time>
      </trkpt>
      <trkpt lat="44.50083" lon="5.65382">
        <ele>1251.1</ele>
        <time>2022-10-28T12:39:22Z</time>
      </trkpt>
      <trkpt lat="44.50082" lon="5.65384">
        <ele>1251.2</ele>
        <time>2022-10-28T12:39:23Z</time>
      </trkpt>
      <trkpt lat="44.50081" lon="5.65385">
        <ele>1251.3</ele>
        <time>2022-10-28T12:39:24Z</time>
      </trkpt>
      <trkpt lat="44.50079" lon="5.65386">
        <ele>1251.4</ele>
        <time>2022-10-28T12:39:25Z</time>
      </trkpt>
      <trkpt lat="44.50078" lon="5.65387">
        <ele>1251.5</ele>
        <time>2022-10-28T12:39:26Z</time>
      </trkpt>
      <trkpt lat="44.50077" lon="5.65387">
        <ele>1251.5</ele>
        <time>2022-10-28T12:39:27Z</time>
      </trkpt>
      <trkpt lat="44.50076" lon="5.65388">
        <ele>1251.6</ele>
        <time>2022-10-28T12:39:28Z</time>
      </trkpt>
      <trkpt lat="44.50075" lon="5.65389">
        <ele>1251.7</ele>
        <time>2022-10-28T12:39:29Z</time>
      </trkpt>
      <trkpt lat="44.50074" lon="5.65389">
        <ele>1251.7</ele>
        <time>2022-10-28T12:39:30Z</time>
      </trkpt>
      <trkpt lat="44.50072" lon="5.6539">
        <ele>1251.9</ele>
        <time>2022-10-28T12:39:31Z</time>
      </trkpt>
      <trkpt lat="44.50072" lon="5.65391">
        <ele>1251.9</ele>
        <time>2022-10-28T12:39:32Z</time>
      </trkpt>
      <trkpt lat="44.50071" lon="5.65391">
        <ele>1252</ele>
        <time>2022-10-28T12:39:33Z</time>
      </trkpt>
      <trkpt lat="44.5007" lon="5.65392">
        <ele>1252</ele>
        <time>2022-10-28T12:39:34Z</time>
      </trkpt>
      <trkpt lat="44.50069" lon="5.65392">
        <ele>1252.1</ele>
        <time>2022-10-28T12:39:35Z</time>
      </trkpt>
      <trkpt lat="44.50068" lon="5.65392">
        <ele>1252.2</ele>
        <time>2022-10-28T12:39:36Z</time>
      </trkpt>
      <trkpt lat="44.50066" lon="5.65393">
        <ele>1252.3</ele>
        <time>2022-10-28T12:39:38Z</time>
      </trkpt>
      <trkpt lat="44.50065" lon="5.65393">
        <ele>1252.3</ele>
        <time>2022-10-28T12:39:39Z</time>
      </trkpt>
      <trkpt lat="44.50063" lon="5.65394">
        <ele>1252.5</ele>
        <time>2022-10-28T12:39:40Z</time>
      </trkpt>
      <trkpt lat="44.50062" lon="5.65394">
        <ele>1252.5</ele>
        <time>2022-10-28T12:39:41Z</time>
      </trkpt>
      <trkpt lat="44.50061" lon="5.65394">
        <ele>1252.5</ele>
        <time>2022-10-28T12:39:42Z</time>
      </trkpt>
      <trkpt lat="44.50061" lon="5.65395">
        <ele>1252.5</ele>
        <time>2022-10-28T12:39:43Z</time>
      </trkpt>
      <trkpt lat="44.5006" lon="5.65396">
        <ele>1252.4</ele>
        <time>2022-10-28T12:39:44Z</time>
      </trkpt>
      <trkpt lat="44.50059" lon="5.65397">
        <ele>1252.4</ele>
        <time>2022-10-28T12:39:45Z</time>
      </trkpt>
      <trkpt lat="44.50057" lon="5.65398">
        <ele>1252.3</ele>
        <time>2022-10-28T12:39:46Z</time>
      </trkpt>
      <trkpt lat="44.50056" lon="5.65398">
        <ele>1252.3</ele>
        <time>2022-10-28T12:39:47Z</time>
      </trkpt>
      <trkpt lat="44.50055" lon="5.65399">
        <ele>1252.3</ele>
        <time>2022-10-28T12:39:48Z</time>
      </trkpt>
      <trkpt lat="44.50054" lon="5.65399">
        <ele>1252.2</ele>
        <time>2022-10-28T12:39:49Z</time>
      </trkpt>
      <trkpt lat="44.50053" lon="5.65399">
        <ele>1252.2</ele>
        <time>2022-10-28T12:39:50Z</time>
      </trkpt>
      <trkpt lat="44.50054" lon="5.65399">
        <ele>1252.2</ele>
        <time>2022-10-28T12:39:51Z</time>
      </trkpt>
      <trkpt lat="44.50054" lon="5.65398">
        <ele>1252.2</ele>
        <time>2022-10-28T12:39:52Z</time>
      </trkpt>
      <trkpt lat="44.50054" lon="5.65398">
        <ele>1252.2</ele>
        <time>2022-10-28T12:39:53Z</time>
      </trkpt>
      <trkpt lat="44.50055" lon="5.65398">
        <ele>1252.1</ele>
        <time>2022-10-28T12:39:54Z</time>
      </trkpt>
      <trkpt lat="44.50055" lon="5.65399">
        <ele>1252.1</ele>
        <time>2022-10-28T12:39:55Z</time>
      </trkpt>
      <trkpt lat="44.50055" lon="5.65399">
        <ele>1252.1</ele>
        <time>2022-10-28T12:39:56Z</time>
      </trkpt>
      <trkpt lat="44.50055" lon="5.65399">
        <ele>1252.1</ele>
        <time>2022-10-28T12:39:57Z</time>
      </trkpt>
      <trkpt lat="44.50055" lon="5.65399">
        <ele>1252.1</ele>
        <time>2022-10-28T12:39:58Z</time>
      </trkpt>
      <trkpt lat="44.50056" lon="5.65399">
        <ele>1252.1</ele>
        <time>2022-10-28T12:39:59Z</time>
      </trkpt>
      <trkpt lat="44.50056" lon="5.65399">
        <ele>1252.1</ele>
        <time>2022-10-28T12:40:00Z</time>
      </trkpt>
      <trkpt lat="44.50056" lon="5.65399">
        <ele>1252.1</ele>
        <time>2022-10-28T12:40:01Z</time>
      </trkpt>
      <trkpt lat="44.50056" lon="5.65399">
        <ele>1252.1</ele>
        <time>2022-10-28T12:40:02Z</time>
      </trkpt>
      <trkpt lat="44.50056" lon="5.65399">
        <ele>1252.1</ele>
        <time>2022-10-28T12:40:03Z</time>
      </trkpt>
      <trkpt lat="44.50056" lon="5.65399">
        <ele>1252.1</ele>
        <time>2022-10-28T12:40:04Z</time>
      </trkpt>
      <trkpt lat="44.50056" lon="5.65399">
        <ele>1252.1</ele>
        <time>2022-10-28T12:40:05Z</time>
      </trkpt>
      <trkpt lat="44.50056" lon="5.65399">
        <ele>1252.1</ele>
        <time>2022-10-28T12:40:06Z</time>
      </trkpt>
      <trkpt lat="44.50056" lon="5.65399">
        <ele>1252.1</ele>
        <time>2022-10-28T12:40:07Z</time>
      </trkpt>
      <trkpt lat="44.50056" lon="5.65399">
        <ele>1252.1</ele>
        <time>2022-10-28T12:40:08Z</time>
      </trkpt>
      <trkpt lat="44.50056" lon="5.65405">
        <ele>1251.9</ele>
        <time>2022-10-28T12:40:40Z</time>
      </trkpt>
      <trkpt lat="44.50053" lon="5.65411">
        <ele>1251.7</ele>
        <time>2022-10-28T12:40:42Z</time>
      </trkpt>
      <trkpt lat="44.50052" lon="5.65414">
        <ele>1251.6</ele>
        <time>2022-10-28T12:40:43Z</time>
      </trkpt>
      <trkpt lat="44.5005" lon="5.65419">
        <ele>1251.5</ele>
        <time>2022-10-28T12:40:44Z</time>
      </trkpt>
      <trkpt lat="44.5005" lon="5.6542">
        <ele>1251.5</ele>
        <time>2022-10-28T12:40:45Z</time>
      </trkpt>
      <trkpt lat="44.50049" lon="5.65424">
        <ele>1251.3</ele>
        <time>2022-10-28T12:40:46Z</time>
      </trkpt>
      <trkpt lat="44.50048" lon="5.6543">
        <ele>1251.2</ele>
        <time>2022-10-28T12:40:48Z</time>
      </trkpt>
      <trkpt lat="44.50048" lon="5.65434">
        <ele>1251.1</ele>
        <time>2022-10-28T12:40:49Z</time>
      </trkpt>
      <trkpt lat="44.50048" lon="5.65439">
        <ele>1251</ele>
        <time>2022-10-28T12:40:50Z</time>
      </trkpt>
      <trkpt lat="44.50048" lon="5.65441">
        <ele>1250.9</ele>
        <time>2022-10-28T12:40:51Z</time>
      </trkpt>
      <trkpt lat="44.50049" lon="5.65446">
        <ele>1250.8</ele>
        <time>2022-10-28T12:40:52Z</time>
      </trkpt>
      <trkpt lat="44.50051" lon="5.65451">
        <ele>1250.6</ele>
        <time>2022-10-28T12:40:53Z</time>
      </trkpt>
      <trkpt lat="44.50052" lon="5.65454">
        <ele>1250.5</ele>
        <time>2022-10-28T12:40:54Z</time>
      </trkpt>
      <trkpt lat="44.50053" lon="5.65461">
        <ele>1250.3</ele>
        <time>2022-10-28T12:40:55Z</time>
      </trkpt>
      <trkpt lat="44.50054" lon="5.65467">
        <ele>1250.1</ele>
        <time>2022-10-28T12:40:56Z</time>
      </trkpt>
      <trkpt lat="44.50055" lon="5.65473">
        <ele>1249.9</ele>
        <time>2022-10-28T12:40:58Z</time>
      </trkpt>
      <trkpt lat="44.50056" lon="5.65482">
        <ele>1249.6</ele>
        <time>2022-10-28T12:40:59Z</time>
      </trkpt>
      <trkpt lat="44.50053" lon="5.65489">
        <ele>1249.4</ele>
        <time>2022-10-28T12:41:00Z</time>
      </trkpt>
      <trkpt lat="44.5005" lon="5.65495">
        <ele>1249.1</ele>
        <time>2022-10-28T12:41:01Z</time>
      </trkpt>
      <trkpt lat="44.50047" lon="5.65502">
        <ele>1248.9</ele>
        <time>2022-10-28T12:41:02Z</time>
      </trkpt>
      <trkpt lat="44.50044" lon="5.65506">
        <ele>1248.6</ele>
        <time>2022-10-28T12:41:03Z</time>
      </trkpt>
      <trkpt lat="44.50041" lon="5.65512">
        <ele>1248.4</ele>
        <time>2022-10-28T12:41:04Z</time>
      </trkpt>
      <trkpt lat="44.50039" lon="5.65518">
        <ele>1248.1</ele>
        <time>2022-10-28T12:41:05Z</time>
      </trkpt>
      <trkpt lat="44.50039" lon="5.65526">
        <ele>1247.9</ele>
        <time>2022-10-28T12:41:06Z</time>
      </trkpt>
      <trkpt lat="44.50039" lon="5.65534">
        <ele>1247.6</ele>
        <time>2022-10-28T12:41:07Z</time>
      </trkpt>
      <trkpt lat="44.5004" lon="5.65542">
        <ele>1247.2</ele>
        <time>2022-10-28T12:41:08Z</time>
      </trkpt>
      <trkpt lat="44.50045" lon="5.65549">
        <ele>1246.9</ele>
        <time>2022-10-28T12:41:09Z</time>
      </trkpt>
      <trkpt lat="44.5005" lon="5.65556">
        <ele>1246.5</ele>
        <time>2022-10-28T12:41:10Z</time>
      </trkpt>
      <trkpt lat="44.50052" lon="5.65564">
        <ele>1246.1</ele>
        <time>2022-10-28T12:41:11Z</time>
      </trkpt>
      <trkpt lat="44.50051" lon="5.65575">
        <ele>1245.7</ele>
        <time>2022-10-28T12:41:12Z</time>
      </trkpt>
      <trkpt lat="44.50049" lon="5.65584">
        <ele>1245.3</ele>
        <time>2022-10-28T12:41:13Z</time>
      </trkpt>
      <trkpt lat="44.50048" lon="5.65593">
        <ele>1244.9</ele>
        <time>2022-10-28T12:41:14Z</time>
      </trkpt>
      <trkpt lat="44.50045" lon="5.65603">
        <ele>1244.5</ele>
        <time>2022-10-28T12:41:15Z</time>
      </trkpt>
      <trkpt lat="44.50041" lon="5.65612">
        <ele>1244.1</ele>
        <time>2022-10-28T12:41:16Z</time>
      </trkpt>
      <trkpt lat="44.50037" lon="5.65622">
        <ele>1243.6</ele>
        <time>2022-10-28T12:41:17Z</time>
      </trkpt>
      <trkpt lat="44.50033" lon="5.65631">
        <ele>1243.2</ele>
        <time>2022-10-28T12:41:18Z</time>
      </trkpt>
      <trkpt lat="44.5003" lon="5.65639">
        <ele>1242.8</ele>
        <time>2022-10-28T12:41:19Z</time>
      </trkpt>
      <trkpt lat="44.50028" lon="5.65649">
        <ele>1242.4</ele>
        <time>2022-10-28T12:41:20Z</time>
      </trkpt>
      <trkpt lat="44.50025" lon="5.6566">
        <ele>1242</ele>
        <time>2022-10-28T12:41:21Z</time>
      </trkpt>
      <trkpt lat="44.50021" lon="5.6567">
        <ele>1241.6</ele>
        <time>2022-10-28T12:41:22Z</time>
      </trkpt>
      <trkpt lat="44.50017" lon="5.65681">
        <ele>1241.1</ele>
        <time>2022-10-28T12:41:23Z</time>
      </trkpt>
      <trkpt lat="44.50013" lon="5.65691">
        <ele>1240.6</ele>
        <time>2022-10-28T12:41:24Z</time>
      </trkpt>
      <trkpt lat="44.50009" lon="5.657">
        <ele>1240.2</ele>
        <time>2022-10-28T12:41:25Z</time>
      </trkpt>
      <trkpt lat="44.50006" lon="5.65709">
        <ele>1239.8</ele>
        <time>2022-10-28T12:41:26Z</time>
      </trkpt>
      <trkpt lat="44.50004" lon="5.65717">
        <ele>1239.4</ele>
        <time>2022-10-28T12:41:27Z</time>
      </trkpt>
      <trkpt lat="44.5" lon="5.65725">
        <ele>1239</ele>
        <time>2022-10-28T12:41:28Z</time>
      </trkpt>
      <trkpt lat="44.49995" lon="5.65733">
        <ele>1238.5</ele>
        <time>2022-10-28T12:41:29Z</time>
      </trkpt>
      <trkpt lat="44.4999" lon="5.65741">
        <ele>1238</ele>
        <time>2022-10-28T12:41:30Z</time>
      </trkpt>
      <trkpt lat="44.49983" lon="5.65748">
        <ele>1237.5</ele>
        <time>2022-10-28T12:41:31Z</time>
      </trkpt>
      <trkpt lat="44.49977" lon="5.65754">
        <ele>1237.1</ele>
        <time>2022-10-28T12:41:32Z</time>
      </trkpt>
      <trkpt lat="44.4997" lon="5.65759">
        <ele>1236.6</ele>
        <time>2022-10-28T12:41:33Z</time>
      </trkpt>
      <trkpt lat="44.49963" lon="5.65765">
        <ele>1236.1</ele>
        <time>2022-10-28T12:41:34Z</time>
      </trkpt>
      <trkpt lat="44.49956" lon="5.65771">
        <ele>1235.7</ele>
        <time>2022-10-28T12:41:35Z</time>
      </trkpt>
      <trkpt lat="44.49951" lon="5.6578">
        <ele>1235.2</ele>
        <time>2022-10-28T12:41:36Z</time>
      </trkpt>
      <trkpt lat="44.49947" lon="5.65789">
        <ele>1234.8</ele>
        <time>2022-10-28T12:41:37Z</time>
      </trkpt>
      <trkpt lat="44.49943" lon="5.65799">
        <ele>1234.4</ele>
        <time>2022-10-28T12:41:38Z</time>
      </trkpt>
      <trkpt lat="44.49939" lon="5.65808">
        <ele>1234</ele>
        <time>2022-10-28T12:41:39Z</time>
      </trkpt>
      <trkpt lat="44.49935" lon="5.65817">
        <ele>1233.6</ele>
        <time>2022-10-28T12:41:40Z</time>
      </trkpt>
      <trkpt lat="44.4993" lon="5.65827">
        <ele>1233.1</ele>
        <time>2022-10-28T12:41:41Z</time>
      </trkpt>
      <trkpt lat="44.49925" lon="5.65836">
        <ele>1232.7</ele>
        <time>2022-10-28T12:41:42Z</time>
      </trkpt>
      <trkpt lat="44.49921" lon="5.65847">
        <ele>1232.2</ele>
        <time>2022-10-28T12:41:43Z</time>
      </trkpt>
      <trkpt lat="44.49921" lon="5.65858">
        <ele>1231.8</ele>
        <time>2022-10-28T12:41:44Z</time>
      </trkpt>
      <trkpt lat="44.49921" lon="5.65867">
        <ele>1231.4</ele>
        <time>2022-10-28T12:41:45Z</time>
      </trkpt>
      <trkpt lat="44.49918" lon="5.65876">
        <ele>1231.1</ele>
        <time>2022-10-28T12:41:46Z</time>
      </trkpt>
      <trkpt lat="44.49913" lon="5.65883">
        <ele>1230.7</ele>
        <time>2022-10-28T12:41:47Z</time>
      </trkpt>
      <trkpt lat="44.49906" lon="5.65888">
        <ele>1230.3</ele>
        <time>2022-10-28T12:41:48Z</time>
      </trkpt>
      <trkpt lat="44.49899" lon="5.65892">
        <ele>1230</ele>
        <time>2022-10-28T12:41:49Z</time>
      </trkpt>
      <trkpt lat="44.49892" lon="5.65895">
        <ele>1229.6</ele>
        <time>2022-10-28T12:41:50Z</time>
      </trkpt>
      <trkpt lat="44.49885" lon="5.65899">
        <ele>1229.2</ele>
        <time>2022-10-28T12:41:51Z</time>
      </trkpt>
      <trkpt lat="44.49878" lon="5.65904">
        <ele>1228.8</ele>
        <time>2022-10-28T12:41:52Z</time>
      </trkpt>
      <trkpt lat="44.49871" lon="5.65908">
        <ele>1228.3</ele>
        <time>2022-10-28T12:41:53Z</time>
      </trkpt>
      <trkpt lat="44.49863" lon="5.65912">
        <ele>1227.8</ele>
        <time>2022-10-28T12:41:54Z</time>
      </trkpt>
      <trkpt lat="44.49855" lon="5.65916">
        <ele>1227.3</ele>
        <time>2022-10-28T12:41:55Z</time>
      </trkpt>
      <trkpt lat="44.49846" lon="5.6592">
        <ele>1226.8</ele>
        <time>2022-10-28T12:41:56Z</time>
      </trkpt>
      <trkpt lat="44.49838" lon="5.65925">
        <ele>1226.2</ele>
        <time>2022-10-28T12:41:57Z</time>
      </trkpt>
      <trkpt lat="44.4983" lon="5.6593">
        <ele>1225.7</ele>
        <time>2022-10-28T12:41:58Z</time>
      </trkpt>
      <trkpt lat="44.49822" lon="5.65935">
        <ele>1225.2</ele>
        <time>2022-10-28T12:41:59Z</time>
      </trkpt>
      <trkpt lat="44.49814" lon="5.6594">
        <ele>1224.7</ele>
        <time>2022-10-28T12:42:00Z</time>
      </trkpt>
      <trkpt lat="44.49804" lon="5.65943">
        <ele>1224.1</ele>
        <time>2022-10-28T12:42:01Z</time>
      </trkpt>
      <trkpt lat="44.49794" lon="5.65943">
        <ele>1223.5</ele>
        <time>2022-10-28T12:42:02Z</time>
      </trkpt>
      <trkpt lat="44.49785" lon="5.65944">
        <ele>1223</ele>
        <time>2022-10-28T12:42:03Z</time>
      </trkpt>
      <trkpt lat="44.49775" lon="5.65943">
        <ele>1222.4</ele>
        <time>2022-10-28T12:42:04Z</time>
      </trkpt>
      <trkpt lat="44.49765" lon="5.65942">
        <ele>1221.9</ele>
        <time>2022-10-28T12:42:05Z</time>
      </trkpt>
      <trkpt lat="44.49755" lon="5.65941">
        <ele>1221.3</ele>
        <time>2022-10-28T12:42:06Z</time>
      </trkpt>
      <trkpt lat="44.49745" lon="5.6594">
        <ele>1220.7</ele>
        <time>2022-10-28T12:42:07Z</time>
      </trkpt>
      <trkpt lat="44.49735" lon="5.6594">
        <ele>1220.2</ele>
        <time>2022-10-28T12:42:08Z</time>
      </trkpt>
      <trkpt lat="44.49725" lon="5.65941">
        <ele>1219.7</ele>
        <time>2022-10-28T12:42:09Z</time>
      </trkpt>
      <trkpt lat="44.49716" lon="5.65942">
        <ele>1219.2</ele>
        <time>2022-10-28T12:42:10Z</time>
      </trkpt>
      <trkpt lat="44.49706" lon="5.65944">
        <ele>1218.6</ele>
        <time>2022-10-28T12:42:11Z</time>
      </trkpt>
      <trkpt lat="44.49699" lon="5.65945">
        <ele>1218.2</ele>
        <time>2022-10-28T12:42:12Z</time>
      </trkpt>
      <trkpt lat="44.49692" lon="5.65947">
        <ele>1217.8</ele>
        <time>2022-10-28T12:42:13Z</time>
      </trkpt>
      <trkpt lat="44.49688" lon="5.65949">
        <ele>1217.6</ele>
        <time>2022-10-28T12:42:14Z</time>
      </trkpt>
      <trkpt lat="44.49685" lon="5.65952">
        <ele>1217.4</ele>
        <time>2022-10-28T12:42:15Z</time>
      </trkpt>
      <trkpt lat="44.49683" lon="5.65956">
        <ele>1217.2</ele>
        <time>2022-10-28T12:42:16Z</time>
      </trkpt>
      <trkpt lat="44.49681" lon="5.65959">
        <ele>1217</ele>
        <time>2022-10-28T12:42:17Z</time>
      </trkpt>
      <trkpt lat="44.49679" lon="5.65964">
        <ele>1216.8</ele>
        <time>2022-10-28T12:42:18Z</time>
      </trkpt>
      <trkpt lat="44.49676" lon="5.65968">
        <ele>1216.5</ele>
        <time>2022-10-28T12:42:19Z</time>
      </trkpt>
      <trkpt lat="44.49673" lon="5.65973">
        <ele>1216.3</ele>
        <time>2022-10-28T12:42:20Z</time>
      </trkpt>
      <trkpt lat="44.4967" lon="5.65978">
        <ele>1216</ele>
        <time>2022-10-28T12:42:21Z</time>
      </trkpt>
      <trkpt lat="44.49668" lon="5.65981">
        <ele>1215.9</ele>
        <time>2022-10-28T12:42:22Z</time>
      </trkpt>
      <trkpt lat="44.49666" lon="5.65984">
        <ele>1215.8</ele>
        <time>2022-10-28T12:42:24Z</time>
      </trkpt>
      <trkpt lat="44.49665" lon="5.65983">
        <ele>1215.7</ele>
        <time>2022-10-28T12:42:25Z</time>
      </trkpt>
      <trkpt lat="44.49664" lon="5.65984">
        <ele>1215.7</ele>
        <time>2022-10-28T12:42:26Z</time>
      </trkpt>
      <trkpt lat="44.49664" lon="5.65984">
        <ele>1215.6</ele>
        <time>2022-10-28T12:42:27Z</time>
      </trkpt>
      <trkpt lat="44.49664" lon="5.65985">
        <ele>1215.6</ele>
        <time>2022-10-28T12:42:28Z</time>
      </trkpt>
      <trkpt lat="44.49664" lon="5.65985">
        <ele>1215.6</ele>
        <time>2022-10-28T12:42:29Z</time>
      </trkpt>
      <trkpt lat="44.49664" lon="5.65986">
        <ele>1215.6</ele>
        <time>2022-10-28T12:42:30Z</time>
      </trkpt>
      <trkpt lat="44.49663" lon="5.65987">
        <ele>1215.5</ele>
        <time>2022-10-28T12:42:31Z</time>
      </trkpt>
      <trkpt lat="44.49663" lon="5.65987">
        <ele>1215.5</ele>
        <time>2022-10-28T12:42:32Z</time>
      </trkpt>
      <trkpt lat="44.49663" lon="5.65988">
        <ele>1215.5</ele>
        <time>2022-10-28T12:42:33Z</time>
      </trkpt>
      <trkpt lat="44.49663" lon="5.65989">
        <ele>1215.5</ele>
        <time>2022-10-28T12:42:34Z</time>
      </trkpt>
      <trkpt lat="44.49663" lon="5.65989">
        <ele>1215.4</ele>
        <time>2022-10-28T12:42:35Z</time>
      </trkpt>
      <trkpt lat="44.49663" lon="5.6599">
        <ele>1215.4</ele>
        <time>2022-10-28T12:42:36Z</time>
      </trkpt>
      <trkpt lat="44.49663" lon="5.65991">
        <ele>1215.4</ele>
        <time>2022-10-28T12:42:37Z</time>
      </trkpt>
      <trkpt lat="44.49662" lon="5.65991">
        <ele>1215.4</ele>
        <time>2022-10-28T12:43:22Z</time>
      </trkpt>
      <trkpt lat="44.49662" lon="5.65992">
        <ele>1215.3</ele>
        <time>2022-10-28T12:43:23Z</time>
      </trkpt>
      <trkpt lat="44.49662" lon="5.65993">
        <ele>1215.3</ele>
        <time>2022-10-28T12:43:24Z</time>
      </trkpt>
      <trkpt lat="44.49663" lon="5.65998">
        <ele>1215.1</ele>
        <time>2022-10-28T12:43:25Z</time>
      </trkpt>
      <trkpt lat="44.49664" lon="5.66007">
        <ele>1214.7</ele>
        <time>2022-10-28T12:43:26Z</time>
      </trkpt>
      <trkpt lat="44.49665" lon="5.66017">
        <ele>1214.2</ele>
        <time>2022-10-28T12:43:28Z</time>
      </trkpt>
      <trkpt lat="44.49667" lon="5.6603">
        <ele>1213.6</ele>
        <time>2022-10-28T12:43:29Z</time>
      </trkpt>
      <trkpt lat="44.49668" lon="5.66038">
        <ele>1213.2</ele>
        <time>2022-10-28T12:43:30Z</time>
      </trkpt>
      <trkpt lat="44.49668" lon="5.66046">
        <ele>1212.8</ele>
        <time>2022-10-28T12:43:31Z</time>
      </trkpt>
      <trkpt lat="44.49669" lon="5.66054">
        <ele>1212.4</ele>
        <time>2022-10-28T12:43:32Z</time>
      </trkpt>
      <trkpt lat="44.49671" lon="5.66063">
        <ele>1211.9</ele>
        <time>2022-10-28T12:43:33Z</time>
      </trkpt>
      <trkpt lat="44.49673" lon="5.66072">
        <ele>1211.4</ele>
        <time>2022-10-28T12:43:34Z</time>
      </trkpt>
      <trkpt lat="44.49675" lon="5.66081">
        <ele>1210.8</ele>
        <time>2022-10-28T12:43:35Z</time>
      </trkpt>
      <trkpt lat="44.49677" lon="5.66091">
        <ele>1210.2</ele>
        <time>2022-10-28T12:43:36Z</time>
      </trkpt>
      <trkpt lat="44.49679" lon="5.66101">
        <ele>1209.6</ele>
        <time>2022-10-28T12:43:37Z</time>
      </trkpt>
      <trkpt lat="44.4968" lon="5.66113">
        <ele>1209</ele>
        <time>2022-10-28T12:43:38Z</time>
      </trkpt>
      <trkpt lat="44.49682" lon="5.66124">
        <ele>1208.3</ele>
        <time>2022-10-28T12:43:39Z</time>
      </trkpt>
      <trkpt lat="44.49686" lon="5.66136">
        <ele>1207.7</ele>
        <time>2022-10-28T12:43:40Z</time>
      </trkpt>
      <trkpt lat="44.49691" lon="5.66147">
        <ele>1207.1</ele>
        <time>2022-10-28T12:43:41Z</time>
      </trkpt>
      <trkpt lat="44.49696" lon="5.66158">
        <ele>1206.5</ele>
        <time>2022-10-28T12:43:42Z</time>
      </trkpt>
      <trkpt lat="44.49702" lon="5.66168">
        <ele>1205.8</ele>
        <time>2022-10-28T12:43:43Z</time>
      </trkpt>
      <trkpt lat="44.49708" lon="5.66178">
        <ele>1205.2</ele>
        <time>2022-10-28T12:43:44Z</time>
      </trkpt>
      <trkpt lat="44.49715" lon="5.66189">
        <ele>1204.5</ele>
        <time>2022-10-28T12:43:45Z</time>
      </trkpt>
      <trkpt lat="44.49721" lon="5.66199">
        <ele>1203.8</ele>
        <time>2022-10-28T12:43:46Z</time>
      </trkpt>
      <trkpt lat="44.49726" lon="5.6621">
        <ele>1203.1</ele>
        <time>2022-10-28T12:43:47Z</time>
      </trkpt>
      <trkpt lat="44.49731" lon="5.6622">
        <ele>1202.5</ele>
        <time>2022-10-28T12:43:48Z</time>
      </trkpt>
      <trkpt lat="44.49736" lon="5.66231">
        <ele>1202</ele>
        <time>2022-10-28T12:43:49Z</time>
      </trkpt>
      <trkpt lat="44.49739" lon="5.66242">
        <ele>1201.5</ele>
        <time>2022-10-28T12:43:50Z</time>
      </trkpt>
      <trkpt lat="44.4974" lon="5.66254">
        <ele>1200.9</ele>
        <time>2022-10-28T12:43:51Z</time>
      </trkpt>
      <trkpt lat="44.49738" lon="5.66266">
        <ele>1200.4</ele>
        <time>2022-10-28T12:43:52Z</time>
      </trkpt>
      <trkpt lat="44.49735" lon="5.66278">
        <ele>1199.8</ele>
        <time>2022-10-28T12:43:53Z</time>
      </trkpt>
      <trkpt lat="44.49732" lon="5.66288">
        <ele>1199.3</ele>
        <time>2022-10-28T12:43:54Z</time>
      </trkpt>
      <trkpt lat="44.49729" lon="5.66296">
        <ele>1198.9</ele>
        <time>2022-10-28T12:43:55Z</time>
      </trkpt>
      <trkpt lat="44.49724" lon="5.66303">
        <ele>1198.5</ele>
        <time>2022-10-28T12:43:56Z</time>
      </trkpt>
      <trkpt lat="44.49717" lon="5.66307">
        <ele>1198</ele>
        <time>2022-10-28T12:43:57Z</time>
      </trkpt>
      <trkpt lat="44.4971" lon="5.66307">
        <ele>1197.6</ele>
        <time>2022-10-28T12:43:58Z</time>
      </trkpt>
      <trkpt lat="44.49702" lon="5.66306">
        <ele>1197.1</ele>
        <time>2022-10-28T12:43:59Z</time>
      </trkpt>
      <trkpt lat="44.49695" lon="5.66308">
        <ele>1196.6</ele>
        <time>2022-10-28T12:44:00Z</time>
      </trkpt>
      <trkpt lat="44.49687" lon="5.66312">
        <ele>1196</ele>
        <time>2022-10-28T12:44:01Z</time>
      </trkpt>
      <trkpt lat="44.49679" lon="5.66317">
        <ele>1195.3</ele>
        <time>2022-10-28T12:44:02Z</time>
      </trkpt>
      <trkpt lat="44.49671" lon="5.66323">
        <ele>1194.7</ele>
        <time>2022-10-28T12:44:03Z</time>
      </trkpt>
      <trkpt lat="44.49664" lon="5.6633">
        <ele>1194</ele>
        <time>2022-10-28T12:44:04Z</time>
      </trkpt>
      <trkpt lat="44.49657" lon="5.66338">
        <ele>1193.3</ele>
        <time>2022-10-28T12:44:05Z</time>
      </trkpt>
      <trkpt lat="44.49649" lon="5.66345">
        <ele>1192.7</ele>
        <time>2022-10-28T12:44:06Z</time>
      </trkpt>
      <trkpt lat="44.49641" lon="5.66352">
        <ele>1192</ele>
        <time>2022-10-28T12:44:07Z</time>
      </trkpt>
      <trkpt lat="44.49631" lon="5.66357">
        <ele>1191.4</ele>
        <time>2022-10-28T12:44:08Z</time>
      </trkpt>
      <trkpt lat="44.49622" lon="5.66362">
        <ele>1190.9</ele>
        <time>2022-10-28T12:44:09Z</time>
      </trkpt>
      <trkpt lat="44.49613" lon="5.66368">
        <ele>1190.3</ele>
        <time>2022-10-28T12:44:10Z</time>
      </trkpt>
      <trkpt lat="44.49604" lon="5.66373">
        <ele>1189.7</ele>
        <time>2022-10-28T12:44:11Z</time>
      </trkpt>
      <trkpt lat="44.49595" lon="5.66379">
        <ele>1189.1</ele>
        <time>2022-10-28T12:44:12Z</time>
      </trkpt>
      <trkpt lat="44.49587" lon="5.66385">
        <ele>1188.5</ele>
        <time>2022-10-28T12:44:13Z</time>
      </trkpt>
      <trkpt lat="44.49579" lon="5.66389">
        <ele>1188.1</ele>
        <time>2022-10-28T12:44:14Z</time>
      </trkpt>
      <trkpt lat="44.49573" lon="5.66393">
        <ele>1187.7</ele>
        <time>2022-10-28T12:44:15Z</time>
      </trkpt>
      <trkpt lat="44.49566" lon="5.66396">
        <ele>1187.2</ele>
        <time>2022-10-28T12:44:16Z</time>
      </trkpt>
      <trkpt lat="44.4956" lon="5.66398">
        <ele>1186.8</ele>
        <time>2022-10-28T12:44:17Z</time>
      </trkpt>
      <trkpt lat="44.49555" lon="5.66398">
        <ele>1186.5</ele>
        <time>2022-10-28T12:44:18Z</time>
      </trkpt>
      <trkpt lat="44.4955" lon="5.66393">
        <ele>1186.1</ele>
        <time>2022-10-28T12:44:19Z</time>
      </trkpt>
      <trkpt lat="44.49546" lon="5.66385">
        <ele>1185.6</ele>
        <time>2022-10-28T12:44:20Z</time>
      </trkpt>
      <trkpt lat="44.49542" lon="5.66377">
        <ele>1185.2</ele>
        <time>2022-10-28T12:44:21Z</time>
      </trkpt>
      <trkpt lat="44.49537" lon="5.6637">
        <ele>1184.7</ele>
        <time>2022-10-28T12:44:22Z</time>
      </trkpt>
      <trkpt lat="44.49531" lon="5.66363">
        <ele>1184.3</ele>
        <time>2022-10-28T12:44:23Z</time>
      </trkpt>
      <trkpt lat="44.49525" lon="5.66356">
        <ele>1183.8</ele>
        <time>2022-10-28T12:44:24Z</time>
      </trkpt>
      <trkpt lat="44.49518" lon="5.66351">
        <ele>1183.3</ele>
        <time>2022-10-28T12:44:25Z</time>
      </trkpt>
      <trkpt lat="44.49511" lon="5.66347">
        <ele>1183</ele>
        <time>2022-10-28T12:44:26Z</time>
      </trkpt>
      <trkpt lat="44.49505" lon="5.66343">
        <ele>1182.6</ele>
        <time>2022-10-28T12:44:27Z</time>
      </trkpt>
      <trkpt lat="44.49498" lon="5.66339">
        <ele>1182.2</ele>
        <time>2022-10-28T12:44:28Z</time>
      </trkpt>
      <trkpt lat="44.49489" lon="5.66336">
        <ele>1181.8</ele>
        <time>2022-10-28T12:44:29Z</time>
      </trkpt>
      <trkpt lat="44.49481" lon="5.66334">
        <ele>1181.4</ele>
        <time>2022-10-28T12:44:30Z</time>
      </trkpt>
      <trkpt lat="44.49471" lon="5.6633">
        <ele>1181</ele>
        <time>2022-10-28T12:44:31Z</time>
      </trkpt>
      <trkpt lat="44.49462" lon="5.66326">
        <ele>1180.5</ele>
        <time>2022-10-28T12:44:32Z</time>
      </trkpt>
      <trkpt lat="44.49453" lon="5.66323">
        <ele>1180.1</ele>
        <time>2022-10-28T12:44:33Z</time>
      </trkpt>
      <trkpt lat="44.49445" lon="5.6632">
        <ele>1179.7</ele>
        <time>2022-10-28T12:44:34Z</time>
      </trkpt>
      <trkpt lat="44.49436" lon="5.66317">
        <ele>1179.2</ele>
        <time>2022-10-28T12:44:35Z</time>
      </trkpt>
      <trkpt lat="44.49427" lon="5.66317">
        <ele>1178.8</ele>
        <time>2022-10-28T12:44:36Z</time>
      </trkpt>
      <trkpt lat="44.49418" lon="5.66317">
        <ele>1178.3</ele>
        <time>2022-10-28T12:44:37Z</time>
      </trkpt>
      <trkpt lat="44.49409" lon="5.66318">
        <ele>1177.9</ele>
        <time>2022-10-28T12:44:38Z</time>
      </trkpt>
      <trkpt lat="44.494" lon="5.66318">
        <ele>1177.5</ele>
        <time>2022-10-28T12:44:39Z</time>
      </trkpt>
      <trkpt lat="44.49392" lon="5.66317">
        <ele>1177.1</ele>
        <time>2022-10-28T12:44:40Z</time>
      </trkpt>
      <trkpt lat="44.49383" lon="5.66316">
        <ele>1176.8</ele>
        <time>2022-10-28T12:44:41Z</time>
      </trkpt>
      <trkpt lat="44.49374" lon="5.66316">
        <ele>1176.4</ele>
        <time>2022-10-28T12:44:42Z</time>
      </trkpt>
      <trkpt lat="44.49365" lon="5.66317">
        <ele>1175.9</ele>
        <time>2022-10-28T12:44:43Z</time>
      </trkpt>
      <trkpt lat="44.49356" lon="5.66319">
        <ele>1175.4</ele>
        <time>2022-10-28T12:44:44Z</time>
      </trkpt>
      <trkpt lat="44.49346" lon="5.66319">
        <ele>1174.9</ele>
        <time>2022-10-28T12:44:45Z</time>
      </trkpt>
      <trkpt lat="44.49336" lon="5.66321">
        <ele>1174.4</ele>
        <time>2022-10-28T12:44:46Z</time>
      </trkpt>
      <trkpt lat="44.49327" lon="5.66322">
        <ele>1173.8</ele>
        <time>2022-10-28T12:44:47Z</time>
      </trkpt>
      <trkpt lat="44.49317" lon="5.66322">
        <ele>1173.2</ele>
        <time>2022-10-28T12:44:48Z</time>
      </trkpt>
      <trkpt lat="44.49308" lon="5.66322">
        <ele>1172.6</ele>
        <time>2022-10-28T12:44:49Z</time>
      </trkpt>
      <trkpt lat="44.49299" lon="5.66322">
        <ele>1171.9</ele>
        <time>2022-10-28T12:44:50Z</time>
      </trkpt>
      <trkpt lat="44.4929" lon="5.66323">
        <ele>1171.1</ele>
        <time>2022-10-28T12:44:51Z</time>
      </trkpt>
      <trkpt lat="44.49281" lon="5.66324">
        <ele>1170.5</ele>
        <time>2022-10-28T12:44:52Z</time>
      </trkpt>
      <trkpt lat="44.49273" lon="5.66328">
        <ele>1169.9</ele>
        <time>2022-10-28T12:44:53Z</time>
      </trkpt>
      <trkpt lat="44.49264" lon="5.66329">
        <ele>1169.2</ele>
        <time>2022-10-28T12:44:54Z</time>
      </trkpt>
      <trkpt lat="44.49255" lon="5.66327">
        <ele>1168.7</ele>
        <time>2022-10-28T12:44:55Z</time>
      </trkpt>
      <trkpt lat="44.49246" lon="5.66325">
        <ele>1168.2</ele>
        <time>2022-10-28T12:44:56Z</time>
      </trkpt>
      <trkpt lat="44.49236" lon="5.66323">
        <ele>1167.7</ele>
        <time>2022-10-28T12:44:57Z</time>
      </trkpt>
      <trkpt lat="44.49227" lon="5.66323">
        <ele>1167.1</ele>
        <time>2022-10-28T12:44:58Z</time>
      </trkpt>
      <trkpt lat="44.49218" lon="5.66324">
        <ele>1166.5</ele>
        <time>2022-10-28T12:44:59Z</time>
      </trkpt>
      <trkpt lat="44.4921" lon="5.66327">
        <ele>1165.9</ele>
        <time>2022-10-28T12:45:00Z</time>
      </trkpt>
      <trkpt lat="44.49201" lon="5.66332">
        <ele>1165.2</ele>
        <time>2022-10-28T12:45:01Z</time>
      </trkpt>
      <trkpt lat="44.49193" lon="5.6634">
        <ele>1164.6</ele>
        <time>2022-10-28T12:45:02Z</time>
      </trkpt>
      <trkpt lat="44.49186" lon="5.66346">
        <ele>1163.9</ele>
        <time>2022-10-28T12:45:03Z</time>
      </trkpt>
      <trkpt lat="44.49177" lon="5.6635">
        <ele>1163.3</ele>
        <time>2022-10-28T12:45:04Z</time>
      </trkpt>
      <trkpt lat="44.49168" lon="5.6635">
        <ele>1162.8</ele>
        <time>2022-10-28T12:45:05Z</time>
      </trkpt>
      <trkpt lat="44.4916" lon="5.66347">
        <ele>1162.2</ele>
        <time>2022-10-28T12:45:06Z</time>
      </trkpt>
      <trkpt lat="44.49152" lon="5.66343">
        <ele>1161.6</ele>
        <time>2022-10-28T12:45:07Z</time>
      </trkpt>
      <trkpt lat="44.49143" lon="5.66342">
        <ele>1161</ele>
        <time>2022-10-28T12:45:08Z</time>
      </trkpt>
      <trkpt lat="44.49133" lon="5.66345">
        <ele>1160.3</ele>
        <time>2022-10-28T12:45:09Z</time>
      </trkpt>
      <trkpt lat="44.49124" lon="5.6635">
        <ele>1159.6</ele>
        <time>2022-10-28T12:45:10Z</time>
      </trkpt>
      <trkpt lat="44.49116" lon="5.66356">
        <ele>1159</ele>
        <time>2022-10-28T12:45:11Z</time>
      </trkpt>
      <trkpt lat="44.49108" lon="5.66364">
        <ele>1158.3</ele>
        <time>2022-10-28T12:45:12Z</time>
      </trkpt>
      <trkpt lat="44.49101" lon="5.66373">
        <ele>1157.8</ele>
        <time>2022-10-28T12:45:13Z</time>
      </trkpt>
      <trkpt lat="44.49095" lon="5.66384">
        <ele>1157.2</ele>
        <time>2022-10-28T12:45:14Z</time>
      </trkpt>
      <trkpt lat="44.49088" lon="5.66396">
        <ele>1156.6</ele>
        <time>2022-10-28T12:45:15Z</time>
      </trkpt>
      <trkpt lat="44.4908" lon="5.66405">
        <ele>1156.1</ele>
        <time>2022-10-28T12:45:16Z</time>
      </trkpt>
      <trkpt lat="44.49072" lon="5.66413">
        <ele>1155.5</ele>
        <time>2022-10-28T12:45:17Z</time>
      </trkpt>
      <trkpt lat="44.49063" lon="5.66417">
        <ele>1155</ele>
        <time>2022-10-28T12:45:18Z</time>
      </trkpt>
      <trkpt lat="44.49053" lon="5.66421">
        <ele>1154.4</ele>
        <time>2022-10-28T12:45:19Z</time>
      </trkpt>
      <trkpt lat="44.49044" lon="5.66427">
        <ele>1153.9</ele>
        <time>2022-10-28T12:45:20Z</time>
      </trkpt>
      <trkpt lat="44.49036" lon="5.66433">
        <ele>1153.3</ele>
        <time>2022-10-28T12:45:21Z</time>
      </trkpt>
      <trkpt lat="44.49027" lon="5.6644">
        <ele>1152.7</ele>
        <time>2022-10-28T12:45:22Z</time>
      </trkpt>
      <trkpt lat="44.49018" lon="5.66446">
        <ele>1152.1</ele>
        <time>2022-10-28T12:45:23Z</time>
      </trkpt>
      <trkpt lat="44.49008" lon="5.66449">
        <ele>1151.6</ele>
        <time>2022-10-28T12:45:24Z</time>
      </trkpt>
      <trkpt lat="44.48998" lon="5.66451">
        <ele>1151.2</ele>
        <time>2022-10-28T12:45:25Z</time>
      </trkpt>
      <trkpt lat="44.48989" lon="5.66453">
        <ele>1150.7</ele>
        <time>2022-10-28T12:45:26Z</time>
      </trkpt>
      <trkpt lat="44.48978" lon="5.66453">
        <ele>1150.1</ele>
        <time>2022-10-28T12:45:27Z</time>
      </trkpt>
      <trkpt lat="44.48969" lon="5.66454">
        <ele>1149.6</ele>
        <time>2022-10-28T12:45:28Z</time>
      </trkpt>
      <trkpt lat="44.4896" lon="5.66454">
        <ele>1149.2</ele>
        <time>2022-10-28T12:45:29Z</time>
      </trkpt>
      <trkpt lat="44.48953" lon="5.66455">
        <ele>1148.8</ele>
        <time>2022-10-28T12:45:30Z</time>
      </trkpt>
      <trkpt lat="44.48948" lon="5.66452">
        <ele>1148.4</ele>
        <time>2022-10-28T12:45:31Z</time>
      </trkpt>
      <trkpt lat="44.48945" lon="5.66442">
        <ele>1147.6</ele>
        <time>2022-10-28T12:45:32Z</time>
      </trkpt>
      <trkpt lat="44.48947" lon="5.66433">
        <ele>1147</ele>
        <time>2022-10-28T12:45:33Z</time>
      </trkpt>
      <trkpt lat="44.48952" lon="5.66426">
        <ele>1146.4</ele>
        <time>2022-10-28T12:45:34Z</time>
      </trkpt>
      <trkpt lat="44.48959" lon="5.66424">
        <ele>1145.8</ele>
        <time>2022-10-28T12:45:35Z</time>
      </trkpt>
      <trkpt lat="44.48967" lon="5.66421">
        <ele>1145.2</ele>
        <time>2022-10-28T12:45:36Z</time>
      </trkpt>
      <trkpt lat="44.48975" lon="5.66418">
        <ele>1144.5</ele>
        <time>2022-10-28T12:45:37Z</time>
      </trkpt>
      <trkpt lat="44.48982" lon="5.66414">
        <ele>1144</ele>
        <time>2022-10-28T12:45:38Z</time>
      </trkpt>
      <trkpt lat="44.4899" lon="5.6641">
        <ele>1143.4</ele>
        <time>2022-10-28T12:45:39Z</time>
      </trkpt>
      <trkpt lat="44.48998" lon="5.66404">
        <ele>1142.9</ele>
        <time>2022-10-28T12:45:40Z</time>
      </trkpt>
      <trkpt lat="44.49005" lon="5.66395">
        <ele>1142.4</ele>
        <time>2022-10-28T12:45:41Z</time>
      </trkpt>
      <trkpt lat="44.4901" lon="5.66385">
        <ele>1141.8</ele>
        <time>2022-10-28T12:45:42Z</time>
      </trkpt>
      <trkpt lat="44.49016" lon="5.66375">
        <ele>1141.3</ele>
        <time>2022-10-28T12:45:43Z</time>
      </trkpt>
      <trkpt lat="44.49023" lon="5.66368">
        <ele>1140.8</ele>
        <time>2022-10-28T12:45:44Z</time>
      </trkpt>
      <trkpt lat="44.49029" lon="5.66363">
        <ele>1140.4</ele>
        <time>2022-10-28T12:45:45Z</time>
      </trkpt>
      <trkpt lat="44.49037" lon="5.66362">
        <ele>1139.8</ele>
        <time>2022-10-28T12:45:46Z</time>
      </trkpt>
      <trkpt lat="44.49047" lon="5.66362">
        <ele>1139.2</ele>
        <time>2022-10-28T12:45:47Z</time>
      </trkpt>
      <trkpt lat="44.49056" lon="5.6636">
        <ele>1138.6</ele>
        <time>2022-10-28T12:45:48Z</time>
      </trkpt>
      <trkpt lat="44.49065" lon="5.66355">
        <ele>1138</ele>
        <time>2022-10-28T12:45:49Z</time>
      </trkpt>
      <trkpt lat="44.49073" lon="5.66349">
        <ele>1137.4</ele>
        <time>2022-10-28T12:45:50Z</time>
      </trkpt>
      <trkpt lat="44.4908" lon="5.6634">
        <ele>1136.9</ele>
        <time>2022-10-28T12:45:51Z</time>
      </trkpt>
      <trkpt lat="44.49087" lon="5.66332">
        <ele>1136.3</ele>
        <time>2022-10-28T12:45:52Z</time>
      </trkpt>
      <trkpt lat="44.49094" lon="5.66323">
        <ele>1135.7</ele>
        <time>2022-10-28T12:45:53Z</time>
      </trkpt>
      <trkpt lat="44.49101" lon="5.66313">
        <ele>1135.2</ele>
        <time>2022-10-28T12:45:54Z</time>
      </trkpt>
      <trkpt lat="44.49109" lon="5.66304">
        <ele>1134.7</ele>
        <time>2022-10-28T12:45:55Z</time>
      </trkpt>
      <trkpt lat="44.49116" lon="5.66296">
        <ele>1134.1</ele>
        <time>2022-10-28T12:45:56Z</time>
      </trkpt>
      <trkpt lat="44.49124" lon="5.66287">
        <ele>1133.6</ele>
        <time>2022-10-28T12:45:57Z</time>
      </trkpt>
      <trkpt lat="44.49134" lon="5.6628">
        <ele>1133</ele>
        <time>2022-10-28T12:45:58Z</time>
      </trkpt>
      <trkpt lat="44.49143" lon="5.66275">
        <ele>1132.4</ele>
        <time>2022-10-28T12:45:59Z</time>
      </trkpt>
      <trkpt lat="44.49153" lon="5.6627">
        <ele>1131.8</ele>
        <time>2022-10-28T12:46:00Z</time>
      </trkpt>
      <trkpt lat="44.49162" lon="5.66266">
        <ele>1131.2</ele>
        <time>2022-10-28T12:46:01Z</time>
      </trkpt>
      <trkpt lat="44.49171" lon="5.66261">
        <ele>1130.6</ele>
        <time>2022-10-28T12:46:02Z</time>
      </trkpt>
      <trkpt lat="44.4918" lon="5.66255">
        <ele>1130.1</ele>
        <time>2022-10-28T12:46:03Z</time>
      </trkpt>
      <trkpt lat="44.49189" lon="5.66248">
        <ele>1129.5</ele>
        <time>2022-10-28T12:46:04Z</time>
      </trkpt>
      <trkpt lat="44.49196" lon="5.66241">
        <ele>1129</ele>
        <time>2022-10-28T12:46:05Z</time>
      </trkpt>
      <trkpt lat="44.49205" lon="5.66238">
        <ele>1128.4</ele>
        <time>2022-10-28T12:46:06Z</time>
      </trkpt>
      <trkpt lat="44.49214" lon="5.66237">
        <ele>1127.8</ele>
        <time>2022-10-28T12:46:07Z</time>
      </trkpt>
      <trkpt lat="44.49223" lon="5.66236">
        <ele>1127.2</ele>
        <time>2022-10-28T12:46:08Z</time>
      </trkpt>
      <trkpt lat="44.49231" lon="5.66235">
        <ele>1126.7</ele>
        <time>2022-10-28T12:46:09Z</time>
      </trkpt>
      <trkpt lat="44.4924" lon="5.6623">
        <ele>1126</ele>
        <time>2022-10-28T12:46:10Z</time>
      </trkpt>
      <trkpt lat="44.49249" lon="5.66224">
        <ele>1125.3</ele>
        <time>2022-10-28T12:46:11Z</time>
      </trkpt>
      <trkpt lat="44.49259" lon="5.66218">
        <ele>1124.6</ele>
        <time>2022-10-28T12:46:12Z</time>
      </trkpt>
      <trkpt lat="44.49267" lon="5.66209">
        <ele>1124</ele>
        <time>2022-10-28T12:46:13Z</time>
      </trkpt>
      <trkpt lat="44.49275" lon="5.662">
        <ele>1123.5</ele>
        <time>2022-10-28T12:46:14Z</time>
      </trkpt>
      <trkpt lat="44.49283" lon="5.66191">
        <ele>1123</ele>
        <time>2022-10-28T12:46:15Z</time>
      </trkpt>
      <trkpt lat="44.4929" lon="5.66183">
        <ele>1122.5</ele>
        <time>2022-10-28T12:46:16Z</time>
      </trkpt>
      <trkpt lat="44.49297" lon="5.66174">
        <ele>1121.9</ele>
        <time>2022-10-28T12:46:17Z</time>
      </trkpt>
      <trkpt lat="44.49306" lon="5.66166">
        <ele>1121.1</ele>
        <time>2022-10-28T12:46:18Z</time>
      </trkpt>
      <trkpt lat="44.49315" lon="5.66158">
        <ele>1120.3</ele>
        <time>2022-10-28T12:46:19Z</time>
      </trkpt>
      <trkpt lat="44.49325" lon="5.66151">
        <ele>1119.7</ele>
        <time>2022-10-28T12:46:20Z</time>
      </trkpt>
      <trkpt lat="44.49335" lon="5.66147">
        <ele>1119.1</ele>
        <time>2022-10-28T12:46:21Z</time>
      </trkpt>
      <trkpt lat="44.49345" lon="5.66145">
        <ele>1118.7</ele>
        <time>2022-10-28T12:46:22Z</time>
      </trkpt>
      <trkpt lat="44.49354" lon="5.66143">
        <ele>1118.2</ele>
        <time>2022-10-28T12:46:23Z</time>
      </trkpt>
      <trkpt lat="44.49364" lon="5.66139">
        <ele>1117.6</ele>
        <time>2022-10-28T12:46:24Z</time>
      </trkpt>
      <trkpt lat="44.49373" lon="5.66133">
        <ele>1117</ele>
        <time>2022-10-28T12:46:25Z</time>
      </trkpt>
      <trkpt lat="44.49382" lon="5.66127">
        <ele>1116.3</ele>
        <time>2022-10-28T12:46:26Z</time>
      </trkpt>
      <trkpt lat="44.49392" lon="5.6612">
        <ele>1115.6</ele>
        <time>2022-10-28T12:46:27Z</time>
      </trkpt>
      <trkpt lat="44.49401" lon="5.66115">
        <ele>1115</ele>
        <time>2022-10-28T12:46:28Z</time>
      </trkpt>
      <trkpt lat="44.4941" lon="5.6611">
        <ele>1114.4</ele>
        <time>2022-10-28T12:46:29Z</time>
      </trkpt>
      <trkpt lat="44.49418" lon="5.66104">
        <ele>1113.9</ele>
        <time>2022-10-28T12:46:30Z</time>
      </trkpt>
      <trkpt lat="44.49425" lon="5.66095">
        <ele>1113.5</ele>
        <time>2022-10-28T12:46:31Z</time>
      </trkpt>
      <trkpt lat="44.4943" lon="5.66084">
        <ele>1113</ele>
        <time>2022-10-28T12:46:32Z</time>
      </trkpt>
      <trkpt lat="44.49435" lon="5.66073">
        <ele>1112.6</ele>
        <time>2022-10-28T12:46:33Z</time>
      </trkpt>
      <trkpt lat="44.49441" lon="5.66063">
        <ele>1112.2</ele>
        <time>2022-10-28T12:46:34Z</time>
      </trkpt>
      <trkpt lat="44.49448" lon="5.66056">
        <ele>1111.8</ele>
        <time>2022-10-28T12:46:35Z</time>
      </trkpt>
      <trkpt lat="44.49455" lon="5.66052">
        <ele>1111.4</ele>
        <time>2022-10-28T12:46:36Z</time>
      </trkpt>
      <trkpt lat="44.49459" lon="5.66047">
        <ele>1111.1</ele>
        <time>2022-10-28T12:46:37Z</time>
      </trkpt>
      <trkpt lat="44.49462" lon="5.6604">
        <ele>1110.7</ele>
        <time>2022-10-28T12:46:38Z</time>
      </trkpt>
      <trkpt lat="44.49461" lon="5.66033">
        <ele>1110.3</ele>
        <time>2022-10-28T12:46:39Z</time>
      </trkpt>
      <trkpt lat="44.49457" lon="5.66029">
        <ele>1109.9</ele>
        <time>2022-10-28T12:46:40Z</time>
      </trkpt>
      <trkpt lat="44.49451" lon="5.66029">
        <ele>1109.5</ele>
        <time>2022-10-28T12:46:41Z</time>
      </trkpt>
      <trkpt lat="44.49445" lon="5.66031">
        <ele>1109</ele>
        <time>2022-10-28T12:46:42Z</time>
      </trkpt>
      <trkpt lat="44.49439" lon="5.66037">
        <ele>1108.4</ele>
        <time>2022-10-28T12:46:43Z</time>
      </trkpt>
      <trkpt lat="44.49434" lon="5.66044">
        <ele>1107.8</ele>
        <time>2022-10-28T12:46:44Z</time>
      </trkpt>
      <trkpt lat="44.49429" lon="5.66052">
        <ele>1107.2</ele>
        <time>2022-10-28T12:46:45Z</time>
      </trkpt>
      <trkpt lat="44.49423" lon="5.66059">
        <ele>1106.6</ele>
        <time>2022-10-28T12:46:46Z</time>
      </trkpt>
      <trkpt lat="44.49416" lon="5.66065">
        <ele>1106</ele>
        <time>2022-10-28T12:46:47Z</time>
      </trkpt>
      <trkpt lat="44.49408" lon="5.66069">
        <ele>1105.3</ele>
        <time>2022-10-28T12:46:48Z</time>
      </trkpt>
      <trkpt lat="44.494" lon="5.66073">
        <ele>1104.6</ele>
        <time>2022-10-28T12:46:49Z</time>
      </trkpt>
      <trkpt lat="44.49391" lon="5.66076">
        <ele>1103.9</ele>
        <time>2022-10-28T12:46:50Z</time>
      </trkpt>
      <trkpt lat="44.49382" lon="5.66077">
        <ele>1103.2</ele>
        <time>2022-10-28T12:46:51Z</time>
      </trkpt>
      <trkpt lat="44.49372" lon="5.66079">
        <ele>1102.4</ele>
        <time>2022-10-28T12:46:52Z</time>
      </trkpt>
      <trkpt lat="44.49363" lon="5.66082">
        <ele>1101.6</ele>
        <time>2022-10-28T12:46:53Z</time>
      </trkpt>
      <trkpt lat="44.49353" lon="5.66086">
        <ele>1100.8</ele>
        <time>2022-10-28T12:46:54Z</time>
      </trkpt>
      <trkpt lat="44.49343" lon="5.66088">
        <ele>1099.9</ele>
        <time>2022-10-28T12:46:55Z</time>
      </trkpt>
      <trkpt lat="44.49332" lon="5.6609">
        <ele>1098.9</ele>
        <time>2022-10-28T12:46:56Z</time>
      </trkpt>
      <trkpt lat="44.49322" lon="5.66092">
        <ele>1098</ele>
        <time>2022-10-28T12:46:57Z</time>
      </trkpt>
      <trkpt lat="44.49311" lon="5.66096">
        <ele>1097.1</ele>
        <time>2022-10-28T12:46:58Z</time>
      </trkpt>
      <trkpt lat="44.493" lon="5.661">
        <ele>1096.3</ele>
        <time>2022-10-28T12:46:59Z</time>
      </trkpt>
      <trkpt lat="44.49289" lon="5.66105">
        <ele>1095.4</ele>
        <time>2022-10-28T12:47:00Z</time>
      </trkpt>
      <trkpt lat="44.4928" lon="5.66108">
        <ele>1094.5</ele>
        <time>2022-10-28T12:47:01Z</time>
      </trkpt>
      <trkpt lat="44.49269" lon="5.66111">
        <ele>1093.6</ele>
        <time>2022-10-28T12:47:02Z</time>
      </trkpt>
      <trkpt lat="44.49259" lon="5.66113">
        <ele>1092.6</ele>
        <time>2022-10-28T12:47:03Z</time>
      </trkpt>
      <trkpt lat="44.49248" lon="5.66113">
        <ele>1091.4</ele>
        <time>2022-10-28T12:47:04Z</time>
      </trkpt>
      <trkpt lat="44.49236" lon="5.66114">
        <ele>1090.3</ele>
        <time>2022-10-28T12:47:05Z</time>
      </trkpt>
      <trkpt lat="44.49224" lon="5.66116">
        <ele>1089.3</ele>
        <time>2022-10-28T12:47:06Z</time>
      </trkpt>
      <trkpt lat="44.49212" lon="5.66117">
        <ele>1088.4</ele>
        <time>2022-10-28T12:47:07Z</time>
      </trkpt>
      <trkpt lat="44.492" lon="5.66119">
        <ele>1087.4</ele>
        <time>2022-10-28T12:47:08Z</time>
      </trkpt>
      <trkpt lat="44.49188" lon="5.66121">
        <ele>1086.5</ele>
        <time>2022-10-28T12:47:09Z</time>
      </trkpt>
      <trkpt lat="44.49176" lon="5.66121">
        <ele>1085.6</ele>
        <time>2022-10-28T12:47:10Z</time>
      </trkpt>
      <trkpt lat="44.49163" lon="5.66117">
        <ele>1084.7</ele>
        <time>2022-10-28T12:47:11Z</time>
      </trkpt>
      <trkpt lat="44.49152" lon="5.66113">
        <ele>1083.7</ele>
        <time>2022-10-28T12:47:12Z</time>
      </trkpt>
      <trkpt lat="44.4914" lon="5.66112">
        <ele>1082.8</ele>
        <time>2022-10-28T12:47:13Z</time>
      </trkpt>
      <trkpt lat="44.49128" lon="5.66113">
        <ele>1081.8</ele>
        <time>2022-10-28T12:47:14Z</time>
      </trkpt>
      <trkpt lat="44.49116" lon="5.66115">
        <ele>1080.9</ele>
        <time>2022-10-28T12:47:15Z</time>
      </trkpt>
      <trkpt lat="44.49104" lon="5.66116">
        <ele>1080</ele>
        <time>2022-10-28T12:47:16Z</time>
      </trkpt>
      <trkpt lat="44.49091" lon="5.66116">
        <ele>1079</ele>
        <time>2022-10-28T12:47:17Z</time>
      </trkpt>
      <trkpt lat="44.4908" lon="5.66116">
        <ele>1078.1</ele>
        <time>2022-10-28T12:47:18Z</time>
      </trkpt>
      <trkpt lat="44.49068" lon="5.66116">
        <ele>1077.2</ele>
        <time>2022-10-28T12:47:19Z</time>
      </trkpt>
      <trkpt lat="44.49056" lon="5.66117">
        <ele>1076.3</ele>
        <time>2022-10-28T12:47:20Z</time>
      </trkpt>
      <trkpt lat="44.49044" lon="5.66118">
        <ele>1075.4</ele>
        <time>2022-10-28T12:47:21Z</time>
      </trkpt>
      <trkpt lat="44.49032" lon="5.6612">
        <ele>1074.4</ele>
        <time>2022-10-28T12:47:22Z</time>
      </trkpt>
      <trkpt lat="44.4902" lon="5.66124">
        <ele>1073.5</ele>
        <time>2022-10-28T12:47:23Z</time>
      </trkpt>
      <trkpt lat="44.49009" lon="5.66132">
        <ele>1072.5</ele>
        <time>2022-10-28T12:47:24Z</time>
      </trkpt>
      <trkpt lat="44.48999" lon="5.6614">
        <ele>1071.6</ele>
        <time>2022-10-28T12:47:25Z</time>
      </trkpt>
      <trkpt lat="44.48989" lon="5.66149">
        <ele>1070.7</ele>
        <time>2022-10-28T12:47:26Z</time>
      </trkpt>
      <trkpt lat="44.48979" lon="5.66157">
        <ele>1069.8</ele>
        <time>2022-10-28T12:47:27Z</time>
      </trkpt>
      <trkpt lat="44.48968" lon="5.66165">
        <ele>1068.8</ele>
        <time>2022-10-28T12:47:28Z</time>
      </trkpt>
      <trkpt lat="44.48958" lon="5.66172">
        <ele>1067.9</ele>
        <time>2022-10-28T12:47:29Z</time>
      </trkpt>
      <trkpt lat="44.48948" lon="5.66177">
        <ele>1067.2</ele>
        <time>2022-10-28T12:47:30Z</time>
      </trkpt>
      <trkpt lat="44.48938" lon="5.6618">
        <ele>1066.4</ele>
        <time>2022-10-28T12:47:31Z</time>
      </trkpt>
      <trkpt lat="44.48926" lon="5.6618">
        <ele>1065.6</ele>
        <time>2022-10-28T12:47:32Z</time>
      </trkpt>
      <trkpt lat="44.48915" lon="5.66179">
        <ele>1064.7</ele>
        <time>2022-10-28T12:47:33Z</time>
      </trkpt>
      <trkpt lat="44.48904" lon="5.66178">
        <ele>1063.8</ele>
        <time>2022-10-28T12:47:34Z</time>
      </trkpt>
      <trkpt lat="44.48893" lon="5.66176">
        <ele>1062.9</ele>
        <time>2022-10-28T12:47:35Z</time>
      </trkpt>
      <trkpt lat="44.48882" lon="5.66175">
        <ele>1061.9</ele>
        <time>2022-10-28T12:47:36Z</time>
      </trkpt>
      <trkpt lat="44.4887" lon="5.66174">
        <ele>1061</ele>
        <time>2022-10-28T12:47:37Z</time>
      </trkpt>
      <trkpt lat="44.48858" lon="5.66175">
        <ele>1060</ele>
        <time>2022-10-28T12:47:38Z</time>
      </trkpt>
      <trkpt lat="44.48847" lon="5.66175">
        <ele>1059.1</ele>
        <time>2022-10-28T12:47:39Z</time>
      </trkpt>
      <trkpt lat="44.48835" lon="5.66176">
        <ele>1058</ele>
        <time>2022-10-28T12:47:40Z</time>
      </trkpt>
      <trkpt lat="44.48822" lon="5.66178">
        <ele>1057</ele>
        <time>2022-10-28T12:47:41Z</time>
      </trkpt>
      <trkpt lat="44.4881" lon="5.66179">
        <ele>1056</ele>
        <time>2022-10-28T12:47:42Z</time>
      </trkpt>
      <trkpt lat="44.48798" lon="5.66181">
        <ele>1055</ele>
        <time>2022-10-28T12:47:43Z</time>
      </trkpt>
      <trkpt lat="44.48786" lon="5.66182">
        <ele>1054</ele>
        <time>2022-10-28T12:47:44Z</time>
      </trkpt>
      <trkpt lat="44.48774" lon="5.66185">
        <ele>1053</ele>
        <time>2022-10-28T12:47:45Z</time>
      </trkpt>
      <trkpt lat="44.48761" lon="5.66187">
        <ele>1051.9</ele>
        <time>2022-10-28T12:47:46Z</time>
      </trkpt>
      <trkpt lat="44.48749" lon="5.66187">
        <ele>1050.8</ele>
        <time>2022-10-28T12:47:47Z</time>
      </trkpt>
      <trkpt lat="44.48737" lon="5.66187">
        <ele>1049.8</ele>
        <time>2022-10-28T12:47:48Z</time>
      </trkpt>
      <trkpt lat="44.48724" lon="5.66186">
        <ele>1048.8</ele>
        <time>2022-10-28T12:47:49Z</time>
      </trkpt>
      <trkpt lat="44.48711" lon="5.66185">
        <ele>1047.8</ele>
        <time>2022-10-28T12:47:50Z</time>
      </trkpt>
      <trkpt lat="44.48699" lon="5.66183">
        <ele>1046.7</ele>
        <time>2022-10-28T12:47:51Z</time>
      </trkpt>
      <trkpt lat="44.48687" lon="5.66182">
        <ele>1045.6</ele>
        <time>2022-10-28T12:47:52Z</time>
      </trkpt>
      <trkpt lat="44.48674" lon="5.66182">
        <ele>1044.5</ele>
        <time>2022-10-28T12:47:53Z</time>
      </trkpt>
      <trkpt lat="44.48662" lon="5.66182">
        <ele>1043.5</ele>
        <time>2022-10-28T12:47:54Z</time>
      </trkpt>
      <trkpt lat="44.48651" lon="5.66182">
        <ele>1042.4</ele>
        <time>2022-10-28T12:47:55Z</time>
      </trkpt>
      <trkpt lat="44.48641" lon="5.66181">
        <ele>1041.5</ele>
        <time>2022-10-28T12:47:56Z</time>
      </trkpt>
      <trkpt lat="44.48631" lon="5.66178">
        <ele>1040.7</ele>
        <time>2022-10-28T12:47:57Z</time>
      </trkpt>
      <trkpt lat="44.48622" lon="5.66174">
        <ele>1039.8</ele>
        <time>2022-10-28T12:47:58Z</time>
      </trkpt>
      <trkpt lat="44.48615" lon="5.66169">
        <ele>1039</ele>
        <time>2022-10-28T12:47:59Z</time>
      </trkpt>
      <trkpt lat="44.48608" lon="5.66165">
        <ele>1038.4</ele>
        <time>2022-10-28T12:48:00Z</time>
      </trkpt>
      <trkpt lat="44.48601" lon="5.66162">
        <ele>1037.7</ele>
        <time>2022-10-28T12:48:01Z</time>
      </trkpt>
      <trkpt lat="44.48595" lon="5.66159">
        <ele>1037.1</ele>
        <time>2022-10-28T12:48:02Z</time>
      </trkpt>
      <trkpt lat="44.48587" lon="5.66159">
        <ele>1036.5</ele>
        <time>2022-10-28T12:48:03Z</time>
      </trkpt>
      <trkpt lat="44.4858" lon="5.66161">
        <ele>1036.1</ele>
        <time>2022-10-28T12:48:04Z</time>
      </trkpt>
      <trkpt lat="44.48574" lon="5.66164">
        <ele>1035.7</ele>
        <time>2022-10-28T12:48:05Z</time>
      </trkpt>
      <trkpt lat="44.48569" lon="5.66168">
        <ele>1035.4</ele>
        <time>2022-10-28T12:48:06Z</time>
      </trkpt>
      <trkpt lat="44.48562" lon="5.66168">
        <ele>1034.9</ele>
        <time>2022-10-28T12:48:07Z</time>
      </trkpt>
      <trkpt lat="44.48556" lon="5.66166">
        <ele>1034.5</ele>
        <time>2022-10-28T12:48:08Z</time>
      </trkpt>
      <trkpt lat="44.48549" lon="5.66163">
        <ele>1034</ele>
        <time>2022-10-28T12:48:09Z</time>
      </trkpt>
      <trkpt lat="44.48543" lon="5.6616">
        <ele>1033.5</ele>
        <time>2022-10-28T12:48:10Z</time>
      </trkpt>
      <trkpt lat="44.48538" lon="5.66157">
        <ele>1033</ele>
        <time>2022-10-28T12:48:11Z</time>
      </trkpt>
      <trkpt lat="44.48532" lon="5.66153">
        <ele>1032.6</ele>
        <time>2022-10-28T12:48:12Z</time>
      </trkpt>
      <trkpt lat="44.48527" lon="5.6615">
        <ele>1032.2</ele>
        <time>2022-10-28T12:48:13Z</time>
      </trkpt>
      <trkpt lat="44.48522" lon="5.66147">
        <ele>1031.8</ele>
        <time>2022-10-28T12:48:14Z</time>
      </trkpt>
      <trkpt lat="44.48516" lon="5.66144">
        <ele>1031.4</ele>
        <time>2022-10-28T12:48:15Z</time>
      </trkpt>
      <trkpt lat="44.48512" lon="5.66142">
        <ele>1031.1</ele>
        <time>2022-10-28T12:48:16Z</time>
      </trkpt>
      <trkpt lat="44.48507" lon="5.6614">
        <ele>1030.8</ele>
        <time>2022-10-28T12:48:17Z</time>
      </trkpt>
      <trkpt lat="44.48504" lon="5.66137">
        <ele>1030.6</ele>
        <time>2022-10-28T12:48:18Z</time>
      </trkpt>
      <trkpt lat="44.48504" lon="5.66132">
        <ele>1030.4</ele>
        <time>2022-10-28T12:48:19Z</time>
      </trkpt>
      <trkpt lat="44.48503" lon="5.6613">
        <ele>1030.3</ele>
        <time>2022-10-28T12:48:20Z</time>
      </trkpt>
      <trkpt lat="44.48507" lon="5.66124">
        <ele>1029.7</ele>
        <time>2022-10-28T12:48:21Z</time>
      </trkpt>
      <trkpt lat="44.4851" lon="5.66119">
        <ele>1029.1</ele>
        <time>2022-10-28T12:48:22Z</time>
      </trkpt>
      <trkpt lat="44.48514" lon="5.66116">
        <ele>1028.5</ele>
        <time>2022-10-28T12:48:23Z</time>
      </trkpt>
      <trkpt lat="44.48519" lon="5.66114">
        <ele>1027.9</ele>
        <time>2022-10-28T12:48:24Z</time>
      </trkpt>
      <trkpt lat="44.48524" lon="5.66112">
        <ele>1027.2</ele>
        <time>2022-10-28T12:48:25Z</time>
      </trkpt>
      <trkpt lat="44.48529" lon="5.66111">
        <ele>1026.7</ele>
        <time>2022-10-28T12:48:26Z</time>
      </trkpt>
      <trkpt lat="44.48533" lon="5.66109">
        <ele>1026.2</ele>
        <time>2022-10-28T12:48:27Z</time>
      </trkpt>
      <trkpt lat="44.48536" lon="5.66108">
        <ele>1025.9</ele>
        <time>2022-10-28T12:48:28Z</time>
      </trkpt>
      <trkpt lat="44.48539" lon="5.66108">
        <ele>1025.6</ele>
        <time>2022-10-28T12:48:29Z</time>
      </trkpt>
      <trkpt lat="44.4854" lon="5.66108">
        <ele>1025.6</ele>
        <time>2022-10-28T12:48:30Z</time>
      </trkpt>
      <trkpt lat="44.48541" lon="5.66107">
        <ele>1025.5</ele>
        <time>2022-10-28T12:48:31Z</time>
      </trkpt>
      <trkpt lat="44.48543" lon="5.66106">
        <ele>1025.4</ele>
        <time>2022-10-28T12:48:32Z</time>
      </trkpt>
      <trkpt lat="44.48544" lon="5.66106">
        <ele>1025.4</ele>
        <time>2022-10-28T12:48:33Z</time>
      </trkpt>
      <trkpt lat="44.48544" lon="5.66105">
        <ele>1025.4</ele>
        <time>2022-10-28T12:48:34Z</time>
      </trkpt>
      <trkpt lat="44.48545" lon="5.66105">
        <ele>1025.3</ele>
        <time>2022-10-28T12:48:35Z</time>
      </trkpt>
      <trkpt lat="44.48545" lon="5.66105">
        <ele>1025.3</ele>
        <time>2022-10-28T12:48:36Z</time>
      </trkpt>
      <trkpt lat="44.48546" lon="5.66105">
        <ele>1025.3</ele>
        <time>2022-10-28T12:48:37Z</time>
      </trkpt>
      <trkpt lat="44.48546" lon="5.66105">
        <ele>1025.3</ele>
        <time>2022-10-28T12:48:38Z</time>
      </trkpt>
      <trkpt lat="44.48547" lon="5.66104">
        <ele>1025.2</ele>
        <time>2022-10-28T12:48:39Z</time>
      </trkpt>
      <trkpt lat="44.48547" lon="5.66104">
        <ele>1025.2</ele>
        <time>2022-10-28T12:48:40Z</time>
      </trkpt>
      <trkpt lat="44.48548" lon="5.66104">
        <ele>1025.2</ele>
        <time>2022-10-28T12:48:41Z</time>
      </trkpt>
      <trkpt lat="44.48549" lon="5.66104">
        <ele>1025.2</ele>
        <time>2022-10-28T12:48:42Z</time>
      </trkpt>
      <trkpt lat="44.48549" lon="5.66104">
        <ele>1025.1</ele>
        <time>2022-10-28T12:48:43Z</time>
      </trkpt>
      <trkpt lat="44.4855" lon="5.66103">
        <ele>1025.1</ele>
        <time>2022-10-28T12:49:18Z</time>
      </trkpt>
      <trkpt lat="44.4855" lon="5.66103">
        <ele>1025.1</ele>
        <time>2022-10-28T12:49:19Z</time>
      </trkpt>
      <trkpt lat="44.48551" lon="5.66103">
        <ele>1025.1</ele>
        <time>2022-10-28T12:49:20Z</time>
      </trkpt>
      <trkpt lat="44.48554" lon="5.66102">
        <ele>1024.9</ele>
        <time>2022-10-28T12:49:21Z</time>
      </trkpt>
      <trkpt lat="44.48559" lon="5.66101">
        <ele>1024.7</ele>
        <time>2022-10-28T12:49:22Z</time>
      </trkpt>
      <trkpt lat="44.48564" lon="5.66098">
        <ele>1024.5</ele>
        <time>2022-10-28T12:49:23Z</time>
      </trkpt>
      <trkpt lat="44.48569" lon="5.66096">
        <ele>1023.9</ele>
        <time>2022-10-28T12:49:24Z</time>
      </trkpt>
      <trkpt lat="44.48575" lon="5.66094">
        <ele>1023.4</ele>
        <time>2022-10-28T12:49:25Z</time>
      </trkpt>
      <trkpt lat="44.48582" lon="5.66091">
        <ele>1022.8</ele>
        <time>2022-10-28T12:49:26Z</time>
      </trkpt>
      <trkpt lat="44.48588" lon="5.66088">
        <ele>1022.3</ele>
        <time>2022-10-28T12:49:27Z</time>
      </trkpt>
      <trkpt lat="44.48595" lon="5.66085">
        <ele>1021.6</ele>
        <time>2022-10-28T12:49:28Z</time>
      </trkpt>
      <trkpt lat="44.48602" lon="5.66083">
        <ele>1020.9</ele>
        <time>2022-10-28T12:49:29Z</time>
      </trkpt>
      <trkpt lat="44.4861" lon="5.66081">
        <ele>1020.2</ele>
        <time>2022-10-28T12:49:30Z</time>
      </trkpt>
      <trkpt lat="44.48617" lon="5.6608">
        <ele>1019.6</ele>
        <time>2022-10-28T12:49:31Z</time>
      </trkpt>
      <trkpt lat="44.48626" lon="5.66081">
        <ele>1018.8</ele>
        <time>2022-10-28T12:49:32Z</time>
      </trkpt>
      <trkpt lat="44.48634" lon="5.66082">
        <ele>1018.1</ele>
        <time>2022-10-28T12:49:33Z</time>
      </trkpt>
      <trkpt lat="44.48642" lon="5.66083">
        <ele>1017.3</ele>
        <time>2022-10-28T12:49:34Z</time>
      </trkpt>
      <trkpt lat="44.48651" lon="5.66082">
        <ele>1016.5</ele>
        <time>2022-10-28T12:49:35Z</time>
      </trkpt>
      <trkpt lat="44.4866" lon="5.6608">
        <ele>1015.6</ele>
        <time>2022-10-28T12:49:36Z</time>
      </trkpt>
      <trkpt lat="44.4867" lon="5.66078">
        <ele>1014.8</ele>
        <time>2022-10-28T12:49:37Z</time>
      </trkpt>
      <trkpt lat="44.48679" lon="5.66075">
        <ele>1013.9</ele>
        <time>2022-10-28T12:49:38Z</time>
      </trkpt>
      <trkpt lat="44.48689" lon="5.66071">
        <ele>1013</ele>
        <time>2022-10-28T12:49:39Z</time>
      </trkpt>
      <trkpt lat="44.48699" lon="5.66067">
        <ele>1012.1</ele>
        <time>2022-10-28T12:49:40Z</time>
      </trkpt>
      <trkpt lat="44.48709" lon="5.66063">
        <ele>1011.1</ele>
        <time>2022-10-28T12:49:41Z</time>
      </trkpt>
      <trkpt lat="44.48719" lon="5.66057">
        <ele>1010.2</ele>
        <time>2022-10-28T12:49:42Z</time>
      </trkpt>
      <trkpt lat="44.48729" lon="5.66051">
        <ele>1009.4</ele>
        <time>2022-10-28T12:49:43Z</time>
      </trkpt>
      <trkpt lat="44.4874" lon="5.66045">
        <ele>1008.6</ele>
        <time>2022-10-28T12:49:44Z</time>
      </trkpt>
      <trkpt lat="44.48749" lon="5.66037">
        <ele>1007.8</ele>
        <time>2022-10-28T12:49:45Z</time>
      </trkpt>
      <trkpt lat="44.48757" lon="5.6603">
        <ele>1007.2</ele>
        <time>2022-10-28T12:49:46Z</time>
      </trkpt>
      <trkpt lat="44.48765" lon="5.66022">
        <ele>1006.7</ele>
        <time>2022-10-28T12:49:47Z</time>
      </trkpt>
      <trkpt lat="44.48772" lon="5.66014">
        <ele>1006.2</ele>
        <time>2022-10-28T12:49:48Z</time>
      </trkpt>
      <trkpt lat="44.4878" lon="5.66008">
        <ele>1005.8</ele>
        <time>2022-10-28T12:49:49Z</time>
      </trkpt>
      <trkpt lat="44.48788" lon="5.66004">
        <ele>1005.3</ele>
        <time>2022-10-28T12:49:50Z</time>
      </trkpt>
      <trkpt lat="44.48795" lon="5.66001">
        <ele>1005</ele>
        <time>2022-10-28T12:49:51Z</time>
      </trkpt>
      <trkpt lat="44.48801" lon="5.65998">
        <ele>1004.6</ele>
        <time>2022-10-28T12:49:52Z</time>
      </trkpt>
      <trkpt lat="44.48807" lon="5.65994">
        <ele>1004.2</ele>
        <time>2022-10-28T12:49:53Z</time>
      </trkpt>
      <trkpt lat="44.4881" lon="5.65985">
        <ele>1003.7</ele>
        <time>2022-10-28T12:49:54Z</time>
      </trkpt>
      <trkpt lat="44.4881" lon="5.65975">
        <ele>1003.1</ele>
        <time>2022-10-28T12:49:55Z</time>
      </trkpt>
      <trkpt lat="44.48808" lon="5.65965">
        <ele>1002.6</ele>
        <time>2022-10-28T12:49:56Z</time>
      </trkpt>
      <trkpt lat="44.48803" lon="5.65956">
        <ele>1002</ele>
        <time>2022-10-28T12:49:57Z</time>
      </trkpt>
      <trkpt lat="44.48796" lon="5.65951">
        <ele>1001.4</ele>
        <time>2022-10-28T12:49:58Z</time>
      </trkpt>
      <trkpt lat="44.48788" lon="5.65948">
        <ele>1000.9</ele>
        <time>2022-10-28T12:49:59Z</time>
      </trkpt>
      <trkpt lat="44.48781" lon="5.65947">
        <ele>1000.3</ele>
        <time>2022-10-28T12:50:00Z</time>
      </trkpt>
      <trkpt lat="44.48774" lon="5.65946">
        <ele>999.7</ele>
        <time>2022-10-28T12:50:01Z</time>
      </trkpt>
      <trkpt lat="44.48767" lon="5.65948">
        <ele>999.1</ele>
        <time>2022-10-28T12:50:02Z</time>
      </trkpt>
      <trkpt lat="44.48761" lon="5.65951">
        <ele>998.6</ele>
        <time>2022-10-28T12:50:03Z</time>
      </trkpt>
      <trkpt lat="44.48755" lon="5.65956">
        <ele>998.1</ele>
        <time>2022-10-28T12:50:04Z</time>
      </trkpt>
      <trkpt lat="44.48748" lon="5.6596">
        <ele>997.5</ele>
        <time>2022-10-28T12:50:05Z</time>
      </trkpt>
      <trkpt lat="44.48741" lon="5.65963">
        <ele>997</ele>
        <time>2022-10-28T12:50:06Z</time>
      </trkpt>
      <trkpt lat="44.48733" lon="5.65964">
        <ele>996.4</ele>
        <time>2022-10-28T12:50:07Z</time>
      </trkpt>
      <trkpt lat="44.48725" lon="5.65963">
        <ele>995.7</ele>
        <time>2022-10-28T12:50:08Z</time>
      </trkpt>
      <trkpt lat="44.48716" lon="5.65963">
        <ele>995</ele>
        <time>2022-10-28T12:50:09Z</time>
      </trkpt>
      <trkpt lat="44.48707" lon="5.65963">
        <ele>994.3</ele>
        <time>2022-10-28T12:50:10Z</time>
      </trkpt>
      <trkpt lat="44.48698" lon="5.65965">
        <ele>993.6</ele>
        <time>2022-10-28T12:50:11Z</time>
      </trkpt>
      <trkpt lat="44.48689" lon="5.65965">
        <ele>992.9</ele>
        <time>2022-10-28T12:50:12Z</time>
      </trkpt>
      <trkpt lat="44.48679" lon="5.65964">
        <ele>992.2</ele>
        <time>2022-10-28T12:50:13Z</time>
      </trkpt>
      <trkpt lat="44.4867" lon="5.6596">
        <ele>991.5</ele>
        <time>2022-10-28T12:50:14Z</time>
      </trkpt>
      <trkpt lat="44.48661" lon="5.65954">
        <ele>990.7</ele>
        <time>2022-10-28T12:50:15Z</time>
      </trkpt>
      <trkpt lat="44.48652" lon="5.65949">
        <ele>990</ele>
        <time>2022-10-28T12:50:16Z</time>
      </trkpt>
      <trkpt lat="44.48644" lon="5.65943">
        <ele>989.2</ele>
        <time>2022-10-28T12:50:17Z</time>
      </trkpt>
      <trkpt lat="44.48635" lon="5.65936">
        <ele>988.4</ele>
        <time>2022-10-28T12:50:18Z</time>
      </trkpt>
      <trkpt lat="44.48626" lon="5.65929">
        <ele>987.6</ele>
        <time>2022-10-28T12:50:19Z</time>
      </trkpt>
      <trkpt lat="44.48617" lon="5.6592">
        <ele>986.8</ele>
        <time>2022-10-28T12:50:20Z</time>
      </trkpt>
      <trkpt lat="44.48609" lon="5.65911">
        <ele>986</ele>
        <time>2022-10-28T12:50:21Z</time>
      </trkpt>
      <trkpt lat="44.48601" lon="5.65902">
        <ele>985.3</ele>
        <time>2022-10-28T12:50:22Z</time>
      </trkpt>
      <trkpt lat="44.48593" lon="5.65892">
        <ele>984.6</ele>
        <time>2022-10-28T12:50:23Z</time>
      </trkpt>
      <trkpt lat="44.48585" lon="5.65883">
        <ele>983.9</ele>
        <time>2022-10-28T12:50:24Z</time>
      </trkpt>
      <trkpt lat="44.48577" lon="5.65874">
        <ele>983.4</ele>
        <time>2022-10-28T12:50:25Z</time>
      </trkpt>
      <trkpt lat="44.4857" lon="5.65865">
        <ele>982.9</ele>
        <time>2022-10-28T12:50:26Z</time>
      </trkpt>
      <trkpt lat="44.48562" lon="5.65857">
        <ele>982.6</ele>
        <time>2022-10-28T12:50:27Z</time>
      </trkpt>
      <trkpt lat="44.48556" lon="5.65848">
        <ele>982.3</ele>
        <time>2022-10-28T12:50:28Z</time>
      </trkpt>
      <trkpt lat="44.48549" lon="5.65841">
        <ele>982.1</ele>
        <time>2022-10-28T12:50:29Z</time>
      </trkpt>
      <trkpt lat="44.48543" lon="5.65835">
        <ele>981.9</ele>
        <time>2022-10-28T12:50:30Z</time>
      </trkpt>
      <trkpt lat="44.48538" lon="5.6583">
        <ele>981.9</ele>
        <time>2022-10-28T12:50:31Z</time>
      </trkpt>
      <trkpt lat="44.48533" lon="5.65827">
        <ele>981.6</ele>
        <time>2022-10-28T12:50:32Z</time>
      </trkpt>
      <trkpt lat="44.48527" lon="5.65829">
        <ele>981.4</ele>
        <time>2022-10-28T12:50:33Z</time>
      </trkpt>
      <trkpt lat="44.4852" lon="5.65833">
        <ele>981.1</ele>
        <time>2022-10-28T12:50:34Z</time>
      </trkpt>
      <trkpt lat="44.48515" lon="5.65837">
        <ele>980.8</ele>
        <time>2022-10-28T12:50:35Z</time>
      </trkpt>
      <trkpt lat="44.48509" lon="5.65841">
        <ele>980.4</ele>
        <time>2022-10-28T12:50:36Z</time>
      </trkpt>
      <trkpt lat="44.48502" lon="5.65846">
        <ele>979.9</ele>
        <time>2022-10-28T12:50:37Z</time>
      </trkpt>
      <trkpt lat="44.48496" lon="5.65852">
        <ele>979.4</ele>
        <time>2022-10-28T12:50:38Z</time>
      </trkpt>
      <trkpt lat="44.4849" lon="5.65858">
        <ele>978.9</ele>
        <time>2022-10-28T12:50:39Z</time>
      </trkpt>
      <trkpt lat="44.48482" lon="5.65862">
        <ele>978.3</ele>
        <time>2022-10-28T12:50:40Z</time>
      </trkpt>
      <trkpt lat="44.48474" lon="5.65865">
        <ele>977.7</ele>
        <time>2022-10-28T12:50:41Z</time>
      </trkpt>
      <trkpt lat="44.48466" lon="5.65867">
        <ele>977.1</ele>
        <time>2022-10-28T12:50:42Z</time>
      </trkpt>
      <trkpt lat="44.48457" lon="5.65871">
        <ele>976.5</ele>
        <time>2022-10-28T12:50:43Z</time>
      </trkpt>
      <trkpt lat="44.48448" lon="5.65876">
        <ele>975.9</ele>
        <time>2022-10-28T12:50:44Z</time>
      </trkpt>
      <trkpt lat="44.48439" lon="5.65881">
        <ele>975.2</ele>
        <time>2022-10-28T12:50:45Z</time>
      </trkpt>
      <trkpt lat="44.48431" lon="5.65885">
        <ele>974.6</ele>
        <time>2022-10-28T12:50:46Z</time>
      </trkpt>
      <trkpt lat="44.48422" lon="5.65887">
        <ele>974</ele>
        <time>2022-10-28T12:50:47Z</time>
      </trkpt>
      <trkpt lat="44.48414" lon="5.65889">
        <ele>973.4</ele>
        <time>2022-10-28T12:50:48Z</time>
      </trkpt>
      <trkpt lat="44.48406" lon="5.65892">
        <ele>972.7</ele>
        <time>2022-10-28T12:50:49Z</time>
      </trkpt>
      <trkpt lat="44.48399" lon="5.65895">
        <ele>971.9</ele>
        <time>2022-10-28T12:50:50Z</time>
      </trkpt>
      <trkpt lat="44.4839" lon="5.65894">
        <ele>971</ele>
        <time>2022-10-28T12:50:51Z</time>
      </trkpt>
      <trkpt lat="44.48382" lon="5.65892">
        <ele>970.2</ele>
        <time>2022-10-28T12:50:52Z</time>
      </trkpt>
      <trkpt lat="44.48374" lon="5.65891">
        <ele>969.3</ele>
        <time>2022-10-28T12:50:53Z</time>
      </trkpt>
      <trkpt lat="44.48366" lon="5.65889">
        <ele>968.4</ele>
        <time>2022-10-28T12:50:54Z</time>
      </trkpt>
      <trkpt lat="44.48359" lon="5.65885">
        <ele>967.6</ele>
        <time>2022-10-28T12:50:55Z</time>
      </trkpt>
      <trkpt lat="44.48353" lon="5.6588">
        <ele>966.9</ele>
        <time>2022-10-28T12:50:56Z</time>
      </trkpt>
      <trkpt lat="44.48348" lon="5.65874">
        <ele>966.2</ele>
        <time>2022-10-28T12:50:57Z</time>
      </trkpt>
      <trkpt lat="44.48345" lon="5.65865">
        <ele>965.5</ele>
        <time>2022-10-28T12:50:58Z</time>
      </trkpt>
      <trkpt lat="44.48341" lon="5.65857">
        <ele>964.9</ele>
        <time>2022-10-28T12:50:59Z</time>
      </trkpt>
      <trkpt lat="44.48336" lon="5.6585">
        <ele>964.2</ele>
        <time>2022-10-28T12:51:00Z</time>
      </trkpt>
      <trkpt lat="44.4833" lon="5.65847">
        <ele>963.6</ele>
        <time>2022-10-28T12:51:01Z</time>
      </trkpt>
      <trkpt lat="44.48324" lon="5.65844">
        <ele>963</ele>
        <time>2022-10-28T12:51:02Z</time>
      </trkpt>
      <trkpt lat="44.48317" lon="5.65842">
        <ele>962.3</ele>
        <time>2022-10-28T12:51:03Z</time>
      </trkpt>
      <trkpt lat="44.4831" lon="5.65838">
        <ele>961.6</ele>
        <time>2022-10-28T12:51:04Z</time>
      </trkpt>
      <trkpt lat="44.48304" lon="5.65836">
        <ele>961</ele>
        <time>2022-10-28T12:51:05Z</time>
      </trkpt>
      <trkpt lat="44.48297" lon="5.65835">
        <ele>960.4</ele>
        <time>2022-10-28T12:51:06Z</time>
      </trkpt>
      <trkpt lat="44.48291" lon="5.65835">
        <ele>959.8</ele>
        <time>2022-10-28T12:51:07Z</time>
      </trkpt>
      <trkpt lat="44.48289" lon="5.65834">
        <ele>959.6</ele>
        <time>2022-10-28T12:51:08Z</time>
      </trkpt>
      <trkpt lat="44.48288" lon="5.65833">
        <ele>959.5</ele>
        <time>2022-10-28T12:51:09Z</time>
      </trkpt>
      <trkpt lat="44.48287" lon="5.65832">
        <ele>959.3</ele>
        <time>2022-10-28T12:51:10Z</time>
      </trkpt>
      <trkpt lat="44.48287" lon="5.65831">
        <ele>959.2</ele>
        <time>2022-10-28T12:51:11Z</time>
      </trkpt>
      <trkpt lat="44.48288" lon="5.6583">
        <ele>959.1</ele>
        <time>2022-10-28T12:51:12Z</time>
      </trkpt>
      <trkpt lat="44.48288" lon="5.6583">
        <ele>959.1</ele>
        <time>2022-10-28T12:51:13Z</time>
      </trkpt>
      <trkpt lat="44.48288" lon="5.65829">
        <ele>959</ele>
        <time>2022-10-28T12:51:14Z</time>
      </trkpt>
      <trkpt lat="44.48288" lon="5.65829">
        <ele>959</ele>
        <time>2022-10-28T12:51:15Z</time>
      </trkpt>
      <trkpt lat="44.48288" lon="5.65828">
        <ele>958.9</ele>
        <time>2022-10-28T12:51:16Z</time>
      </trkpt>
      <trkpt lat="44.48289" lon="5.65828">
        <ele>958.9</ele>
        <time>2022-10-28T12:51:17Z</time>
      </trkpt>
      <trkpt lat="44.48289" lon="5.65828">
        <ele>958.9</ele>
        <time>2022-10-28T12:51:18Z</time>
      </trkpt>
      <trkpt lat="44.48289" lon="5.65828">
        <ele>958.9</ele>
        <time>2022-10-28T12:51:19Z</time>
      </trkpt>
      <trkpt lat="44.48289" lon="5.65828">
        <ele>958.8</ele>
        <time>2022-10-28T12:51:20Z</time>
      </trkpt>
      <trkpt lat="44.48289" lon="5.65828">
        <ele>958.8</ele>
        <time>2022-10-28T12:51:21Z</time>
      </trkpt>
      <trkpt lat="44.48288" lon="5.65828">
        <ele>958.8</ele>
        <time>2022-10-28T12:51:22Z</time>
      </trkpt>
      <trkpt lat="44.48288" lon="5.65828">
        <ele>958.8</ele>
        <time>2022-10-28T12:51:23Z</time>
      </trkpt>
      <trkpt lat="44.48288" lon="5.65828">
        <ele>958.7</ele>
        <time>2022-10-28T12:51:24Z</time>
      </trkpt>
      <trkpt lat="44.48287" lon="5.65828">
        <ele>958.7</ele>
        <time>2022-10-28T12:51:25Z</time>
      </trkpt>
      <trkpt lat="44.48285" lon="5.65828">
        <ele>958.5</ele>
        <time>2022-10-28T12:51:55Z</time>
      </trkpt>
      <trkpt lat="44.48284" lon="5.65828">
        <ele>958.4</ele>
        <time>2022-10-28T12:51:56Z</time>
      </trkpt>
      <trkpt lat="44.48282" lon="5.65829">
        <ele>958.2</ele>
        <time>2022-10-28T12:51:57Z</time>
      </trkpt>
      <trkpt lat="44.48279" lon="5.65829">
        <ele>957.9</ele>
        <time>2022-10-28T12:51:58Z</time>
      </trkpt>
      <trkpt lat="44.48275" lon="5.65829">
        <ele>957.5</ele>
        <time>2022-10-28T12:51:59Z</time>
      </trkpt>
      <trkpt lat="44.48269" lon="5.65828">
        <ele>957</ele>
        <time>2022-10-28T12:52:00Z</time>
      </trkpt>
      <trkpt lat="44.48263" lon="5.65825">
        <ele>956.5</ele>
        <time>2022-10-28T12:52:01Z</time>
      </trkpt>
      <trkpt lat="44.48256" lon="5.65823">
        <ele>956</ele>
        <time>2022-10-28T12:52:02Z</time>
      </trkpt>
      <trkpt lat="44.4825" lon="5.65823">
        <ele>955.5</ele>
        <time>2022-10-28T12:52:03Z</time>
      </trkpt>
      <trkpt lat="44.48244" lon="5.65825">
        <ele>954.9</ele>
        <time>2022-10-28T12:52:04Z</time>
      </trkpt>
      <trkpt lat="44.48238" lon="5.65828">
        <ele>954.4</ele>
        <time>2022-10-28T12:52:05Z</time>
      </trkpt>
      <trkpt lat="44.48231" lon="5.65831">
        <ele>953.8</ele>
        <time>2022-10-28T12:52:06Z</time>
      </trkpt>
      <trkpt lat="44.48225" lon="5.65833">
        <ele>953.2</ele>
        <time>2022-10-28T12:52:07Z</time>
      </trkpt>
      <trkpt lat="44.4822" lon="5.65836">
        <ele>952.7</ele>
        <time>2022-10-28T12:52:08Z</time>
      </trkpt>
      <trkpt lat="44.48215" lon="5.65837">
        <ele>952.2</ele>
        <time>2022-10-28T12:52:09Z</time>
      </trkpt>
      <trkpt lat="44.4821" lon="5.65838">
        <ele>951.8</ele>
        <time>2022-10-28T12:52:10Z</time>
      </trkpt>
      <trkpt lat="44.48206" lon="5.65839">
        <ele>951.5</ele>
        <time>2022-10-28T12:52:11Z</time>
      </trkpt>
      <trkpt lat="44.48202" lon="5.65839">
        <ele>951.1</ele>
        <time>2022-10-28T12:52:12Z</time>
      </trkpt>
      <trkpt lat="44.48201" lon="5.65839">
        <ele>950.9</ele>
        <time>2022-10-28T12:52:13Z</time>
      </trkpt>
      <trkpt lat="44.48198" lon="5.6584">
        <ele>950.7</ele>
        <time>2022-10-28T12:52:14Z</time>
      </trkpt>
      <trkpt lat="44.48195" lon="5.6584">
        <ele>950.4</ele>
        <time>2022-10-28T12:52:15Z</time>
      </trkpt>
      <trkpt lat="44.4819" lon="5.65841">
        <ele>950</ele>
        <time>2022-10-28T12:52:16Z</time>
      </trkpt>
      <trkpt lat="44.48185" lon="5.65841">
        <ele>949.5</ele>
        <time>2022-10-28T12:52:17Z</time>
      </trkpt>
      <trkpt lat="44.4818" lon="5.65841">
        <ele>949</ele>
        <time>2022-10-28T12:52:18Z</time>
      </trkpt>
      <trkpt lat="44.48175" lon="5.65842">
        <ele>948.6</ele>
        <time>2022-10-28T12:52:19Z</time>
      </trkpt>
      <trkpt lat="44.4817" lon="5.65842">
        <ele>948.2</ele>
        <time>2022-10-28T12:52:20Z</time>
      </trkpt>
      <trkpt lat="44.48165" lon="5.65844">
        <ele>947.7</ele>
        <time>2022-10-28T12:52:21Z</time>
      </trkpt>
      <trkpt lat="44.48159" lon="5.65845">
        <ele>947.2</ele>
        <time>2022-10-28T12:52:22Z</time>
      </trkpt>
      <trkpt lat="44.48153" lon="5.65848">
        <ele>946.7</ele>
        <time>2022-10-28T12:52:23Z</time>
      </trkpt>
      <trkpt lat="44.48148" lon="5.65851">
        <ele>946.2</ele>
        <time>2022-10-28T12:52:24Z</time>
      </trkpt>
      <trkpt lat="44.48142" lon="5.65853">
        <ele>945.8</ele>
        <time>2022-10-28T12:52:25Z</time>
      </trkpt>
      <trkpt lat="44.48137" lon="5.65853">
        <ele>945.3</ele>
        <time>2022-10-28T12:52:26Z</time>
      </trkpt>
      <trkpt lat="44.48131" lon="5.65851">
        <ele>944.9</ele>
        <time>2022-10-28T12:52:27Z</time>
      </trkpt>
      <trkpt lat="44.48125" lon="5.6585">
        <ele>944.4</ele>
        <time>2022-10-28T12:52:28Z</time>
      </trkpt>
      <trkpt lat="44.48119" lon="5.65847">
        <ele>943.9</ele>
        <time>2022-10-28T12:52:29Z</time>
      </trkpt>
      <trkpt lat="44.48114" lon="5.65847">
        <ele>943.5</ele>
        <time>2022-10-28T12:52:30Z</time>
      </trkpt>
      <trkpt lat="44.48108" lon="5.65848">
        <ele>943</ele>
        <time>2022-10-28T12:52:31Z</time>
      </trkpt>
      <trkpt lat="44.48103" lon="5.65852">
        <ele>942.4</ele>
        <time>2022-10-28T12:52:32Z</time>
      </trkpt>
      <trkpt lat="44.48097" lon="5.65858">
        <ele>941.7</ele>
        <time>2022-10-28T12:52:33Z</time>
      </trkpt>
      <trkpt lat="44.48093" lon="5.65862">
        <ele>941.2</ele>
        <time>2022-10-28T12:52:34Z</time>
      </trkpt>
      <trkpt lat="44.48088" lon="5.65865">
        <ele>940.7</ele>
        <time>2022-10-28T12:52:35Z</time>
      </trkpt>
      <trkpt lat="44.48083" lon="5.65868">
        <ele>940.2</ele>
        <time>2022-10-28T12:52:36Z</time>
      </trkpt>
      <trkpt lat="44.48078" lon="5.6587">
        <ele>939.6</ele>
        <time>2022-10-28T12:52:37Z</time>
      </trkpt>
      <trkpt lat="44.48073" lon="5.65872">
        <ele>939.1</ele>
        <time>2022-10-28T12:52:38Z</time>
      </trkpt>
      <trkpt lat="44.48067" lon="5.65873">
        <ele>938.5</ele>
        <time>2022-10-28T12:52:39Z</time>
      </trkpt>
      <trkpt lat="44.4806" lon="5.65876">
        <ele>937.8</ele>
        <time>2022-10-28T12:52:40Z</time>
      </trkpt>
      <trkpt lat="44.48055" lon="5.65878">
        <ele>937.3</ele>
        <time>2022-10-28T12:52:41Z</time>
      </trkpt>
      <trkpt lat="44.4805" lon="5.65882">
        <ele>936.8</ele>
        <time>2022-10-28T12:52:42Z</time>
      </trkpt>
      <trkpt lat="44.48046" lon="5.65885">
        <ele>936.4</ele>
        <time>2022-10-28T12:52:43Z</time>
      </trkpt>
      <trkpt lat="44.48045" lon="5.65887">
        <ele>936.1</ele>
        <time>2022-10-28T12:52:44Z</time>
      </trkpt>
      <trkpt lat="44.48044" lon="5.65888">
        <ele>936</ele>
        <time>2022-10-28T12:52:45Z</time>
      </trkpt>
      <trkpt lat="44.48042" lon="5.65888">
        <ele>935.9</ele>
        <time>2022-10-28T12:52:46Z</time>
      </trkpt>
      <trkpt lat="44.48042" lon="5.65887">
        <ele>935.9</ele>
        <time>2022-10-28T12:52:47Z</time>
      </trkpt>
      <trkpt lat="44.48041" lon="5.65887">
        <ele>935.8</ele>
        <time>2022-10-28T12:52:48Z</time>
      </trkpt>
      <trkpt lat="44.48041" lon="5.65887">
        <ele>935.8</ele>
        <time>2022-10-28T12:52:49Z</time>
      </trkpt>
      <trkpt lat="44.4804" lon="5.65887">
        <ele>935.7</ele>
        <time>2022-10-28T12:52:50Z</time>
      </trkpt>
      <trkpt lat="44.4804" lon="5.65887">
        <ele>935.7</ele>
        <time>2022-10-28T12:52:51Z</time>
      </trkpt>
      <trkpt lat="44.48039" lon="5.65886">
        <ele>935.6</ele>
        <time>2022-10-28T12:52:52Z</time>
      </trkpt>
      <trkpt lat="44.48039" lon="5.65886">
        <ele>935.6</ele>
        <time>2022-10-28T12:52:53Z</time>
      </trkpt>
      <trkpt lat="44.48038" lon="5.65886">
        <ele>935.6</ele>
        <time>2022-10-28T12:52:54Z</time>
      </trkpt>
      <trkpt lat="44.48038" lon="5.65886">
        <ele>935.5</ele>
        <time>2022-10-28T12:52:55Z</time>
      </trkpt>
      <trkpt lat="44.48038" lon="5.65885">
        <ele>935.5</ele>
        <time>2022-10-28T12:52:56Z</time>
      </trkpt>
      <trkpt lat="44.48037" lon="5.65885">
        <ele>935.4</ele>
        <time>2022-10-28T12:52:57Z</time>
      </trkpt>
      <trkpt lat="44.48037" lon="5.65885">
        <ele>935.4</ele>
        <time>2022-10-28T12:52:58Z</time>
      </trkpt>
      <trkpt lat="44.48036" lon="5.65885">
        <ele>935.3</ele>
        <time>2022-10-28T12:53:46Z</time>
      </trkpt>
      <trkpt lat="44.48036" lon="5.65884">
        <ele>935.3</ele>
        <time>2022-10-28T12:53:47Z</time>
      </trkpt>
      <trkpt lat="44.48035" lon="5.65884">
        <ele>935.3</ele>
        <time>2022-10-28T12:53:48Z</time>
      </trkpt>
      <trkpt lat="44.48033" lon="5.65883">
        <ele>935</ele>
        <time>2022-10-28T12:53:49Z</time>
      </trkpt>
      <trkpt lat="44.48029" lon="5.65882">
        <ele>934.7</ele>
        <time>2022-10-28T12:53:50Z</time>
      </trkpt>
      <trkpt lat="44.48025" lon="5.65881">
        <ele>934.3</ele>
        <time>2022-10-28T12:53:51Z</time>
      </trkpt>
      <trkpt lat="44.48019" lon="5.6588">
        <ele>933.9</ele>
        <time>2022-10-28T12:53:52Z</time>
      </trkpt>
      <trkpt lat="44.48014" lon="5.6588">
        <ele>933.4</ele>
        <time>2022-10-28T12:53:53Z</time>
      </trkpt>
      <trkpt lat="44.48008" lon="5.6588">
        <ele>932.9</ele>
        <time>2022-10-28T12:53:54Z</time>
      </trkpt>
      <trkpt lat="44.48002" lon="5.65881">
        <ele>932.4</ele>
        <time>2022-10-28T12:53:55Z</time>
      </trkpt>
      <trkpt lat="44.47996" lon="5.65883">
        <ele>931.9</ele>
        <time>2022-10-28T12:53:56Z</time>
      </trkpt>
      <trkpt lat="44.4799" lon="5.65886">
        <ele>931.4</ele>
        <time>2022-10-28T12:53:57Z</time>
      </trkpt>
      <trkpt lat="44.47983" lon="5.65891">
        <ele>930.8</ele>
        <time>2022-10-28T12:53:58Z</time>
      </trkpt>
      <trkpt lat="44.47976" lon="5.65895">
        <ele>930.2</ele>
        <time>2022-10-28T12:53:59Z</time>
      </trkpt>
      <trkpt lat="44.47969" lon="5.65898">
        <ele>929.6</ele>
        <time>2022-10-28T12:54:00Z</time>
      </trkpt>
      <trkpt lat="44.4796" lon="5.659">
        <ele>929.1</ele>
        <time>2022-10-28T12:54:01Z</time>
      </trkpt>
      <trkpt lat="44.47951" lon="5.659">
        <ele>928.7</ele>
        <time>2022-10-28T12:54:02Z</time>
      </trkpt>
      <trkpt lat="44.47943" lon="5.659">
        <ele>928.3</ele>
        <time>2022-10-28T12:54:03Z</time>
      </trkpt>
      <trkpt lat="44.47936" lon="5.659">
        <ele>928</ele>
        <time>2022-10-28T12:54:04Z</time>
      </trkpt>
      <trkpt lat="44.47929" lon="5.65899">
        <ele>927.7</ele>
        <time>2022-10-28T12:54:05Z</time>
      </trkpt>
      <trkpt lat="44.47923" lon="5.65898">
        <ele>927.4</ele>
        <time>2022-10-28T12:54:06Z</time>
      </trkpt>
      <trkpt lat="44.47917" lon="5.65896">
        <ele>927.1</ele>
        <time>2022-10-28T12:54:07Z</time>
      </trkpt>
      <trkpt lat="44.47911" lon="5.65894">
        <ele>926.9</ele>
        <time>2022-10-28T12:54:08Z</time>
      </trkpt>
      <trkpt lat="44.47906" lon="5.65892">
        <ele>926.6</ele>
        <time>2022-10-28T12:54:09Z</time>
      </trkpt>
      <trkpt lat="44.479" lon="5.65892">
        <ele>926.3</ele>
        <time>2022-10-28T12:54:10Z</time>
      </trkpt>
      <trkpt lat="44.47895" lon="5.65892">
        <ele>925.9</ele>
        <time>2022-10-28T12:54:11Z</time>
      </trkpt>
      <trkpt lat="44.4789" lon="5.65893">
        <ele>925.6</ele>
        <time>2022-10-28T12:54:12Z</time>
      </trkpt>
      <trkpt lat="44.47885" lon="5.65897">
        <ele>925.2</ele>
        <time>2022-10-28T12:54:13Z</time>
      </trkpt>
      <trkpt lat="44.47881" lon="5.65904">
        <ele>924.7</ele>
        <time>2022-10-28T12:54:14Z</time>
      </trkpt>
      <trkpt lat="44.47879" lon="5.65912">
        <ele>924.2</ele>
        <time>2022-10-28T12:54:15Z</time>
      </trkpt>
      <trkpt lat="44.47877" lon="5.65922">
        <ele>923.7</ele>
        <time>2022-10-28T12:54:16Z</time>
      </trkpt>
      <trkpt lat="44.47876" lon="5.65931">
        <ele>923.1</ele>
        <time>2022-10-28T12:54:17Z</time>
      </trkpt>
      <trkpt lat="44.47875" lon="5.65942">
        <ele>922.5</ele>
        <time>2022-10-28T12:54:18Z</time>
      </trkpt>
      <trkpt lat="44.47873" lon="5.65952">
        <ele>921.9</ele>
        <time>2022-10-28T12:54:19Z</time>
      </trkpt>
      <trkpt lat="44.47871" lon="5.65963">
        <ele>921.3</ele>
        <time>2022-10-28T12:54:20Z</time>
      </trkpt>
      <trkpt lat="44.47869" lon="5.65975">
        <ele>920.6</ele>
        <time>2022-10-28T12:54:21Z</time>
      </trkpt>
      <trkpt lat="44.47868" lon="5.65987">
        <ele>919.9</ele>
        <time>2022-10-28T12:54:22Z</time>
      </trkpt>
      <trkpt lat="44.47867" lon="5.65998">
        <ele>919.3</ele>
        <time>2022-10-28T12:54:23Z</time>
      </trkpt>
      <trkpt lat="44.47866" lon="5.66008">
        <ele>918.7</ele>
        <time>2022-10-28T12:54:24Z</time>
      </trkpt>
      <trkpt lat="44.47866" lon="5.66017">
        <ele>918.2</ele>
        <time>2022-10-28T12:54:25Z</time>
      </trkpt>
      <trkpt lat="44.47867" lon="5.66024">
        <ele>917.8</ele>
        <time>2022-10-28T12:54:26Z</time>
      </trkpt>
      <trkpt lat="44.47868" lon="5.66031">
        <ele>917.4</ele>
        <time>2022-10-28T12:54:27Z</time>
      </trkpt>
      <trkpt lat="44.47868" lon="5.66039">
        <ele>916.9</ele>
        <time>2022-10-28T12:54:28Z</time>
      </trkpt>
      <trkpt lat="44.47867" lon="5.66046">
        <ele>916.5</ele>
        <time>2022-10-28T12:54:29Z</time>
      </trkpt>
      <trkpt lat="44.47866" lon="5.66054">
        <ele>916</ele>
        <time>2022-10-28T12:54:30Z</time>
      </trkpt>
      <trkpt lat="44.47861" lon="5.66062">
        <ele>915.4</ele>
        <time>2022-10-28T12:54:31Z</time>
      </trkpt>
      <trkpt lat="44.47855" lon="5.66067">
        <ele>914.8</ele>
        <time>2022-10-28T12:54:32Z</time>
      </trkpt>
      <trkpt lat="44.47848" lon="5.6607">
        <ele>914.2</ele>
        <time>2022-10-28T12:54:33Z</time>
      </trkpt>
      <trkpt lat="44.47841" lon="5.66071">
        <ele>913.7</ele>
        <time>2022-10-28T12:54:34Z</time>
      </trkpt>
      <trkpt lat="44.47836" lon="5.66068">
        <ele>913.3</ele>
        <time>2022-10-28T12:54:35Z</time>
      </trkpt>
      <trkpt lat="44.47831" lon="5.66063">
        <ele>912.7</ele>
        <time>2022-10-28T12:54:36Z</time>
      </trkpt>
      <trkpt lat="44.47827" lon="5.66053">
        <ele>912.1</ele>
        <time>2022-10-28T12:54:37Z</time>
      </trkpt>
      <trkpt lat="44.47826" lon="5.66043">
        <ele>911.4</ele>
        <time>2022-10-28T12:54:38Z</time>
      </trkpt>
      <trkpt lat="44.47824" lon="5.66033">
        <ele>910.7</ele>
        <time>2022-10-28T12:54:39Z</time>
      </trkpt>
      <trkpt lat="44.4782" lon="5.66024">
        <ele>910</ele>
        <time>2022-10-28T12:54:40Z</time>
      </trkpt>
      <trkpt lat="44.47815" lon="5.66015">
        <ele>909.3</ele>
        <time>2022-10-28T12:54:41Z</time>
      </trkpt>
      <trkpt lat="44.47809" lon="5.66007">
        <ele>908.5</ele>
        <time>2022-10-28T12:54:42Z</time>
      </trkpt>
      <trkpt lat="44.47803" lon="5.65998">
        <ele>907.8</ele>
        <time>2022-10-28T12:54:43Z</time>
      </trkpt>
      <trkpt lat="44.47797" lon="5.6599">
        <ele>907.1</ele>
        <time>2022-10-28T12:54:44Z</time>
      </trkpt>
      <trkpt lat="44.47791" lon="5.6598">
        <ele>906.4</ele>
        <time>2022-10-28T12:54:45Z</time>
      </trkpt>
      <trkpt lat="44.47789" lon="5.65971">
        <ele>905.9</ele>
        <time>2022-10-28T12:54:46Z</time>
      </trkpt>
      <trkpt lat="44.47786" lon="5.65962">
        <ele>905.3</ele>
        <time>2022-10-28T12:54:47Z</time>
      </trkpt>
      <trkpt lat="44.47781" lon="5.65955">
        <ele>904.7</ele>
        <time>2022-10-28T12:54:48Z</time>
      </trkpt>
      <trkpt lat="44.47775" lon="5.6595">
        <ele>904.1</ele>
        <time>2022-10-28T12:54:49Z</time>
      </trkpt>
      <trkpt lat="44.47767" lon="5.65948">
        <ele>903.4</ele>
        <time>2022-10-28T12:54:50Z</time>
      </trkpt>
      <trkpt lat="44.4776" lon="5.65947">
        <ele>902.7</ele>
        <time>2022-10-28T12:54:51Z</time>
      </trkpt>
      <trkpt lat="44.47752" lon="5.65946">
        <ele>902.1</ele>
        <time>2022-10-28T12:54:52Z</time>
      </trkpt>
      <trkpt lat="44.47744" lon="5.65946">
        <ele>901.4</ele>
        <time>2022-10-28T12:54:53Z</time>
      </trkpt>
      <trkpt lat="44.47736" lon="5.65946">
        <ele>900.7</ele>
        <time>2022-10-28T12:54:54Z</time>
      </trkpt>
      <trkpt lat="44.47727" lon="5.65947">
        <ele>900</ele>
        <time>2022-10-28T12:54:55Z</time>
      </trkpt>
      <trkpt lat="44.47719" lon="5.65946">
        <ele>899.4</ele>
        <time>2022-10-28T12:54:56Z</time>
      </trkpt>
      <trkpt lat="44.47712" lon="5.65942">
        <ele>898.7</ele>
        <time>2022-10-28T12:54:57Z</time>
      </trkpt>
      <trkpt lat="44.47705" lon="5.65935">
        <ele>897.9</ele>
        <time>2022-10-28T12:54:58Z</time>
      </trkpt>
      <trkpt lat="44.47699" lon="5.65926">
        <ele>897.2</ele>
        <time>2022-10-28T12:54:59Z</time>
      </trkpt>
      <trkpt lat="44.47696" lon="5.65915">
        <ele>896.6</ele>
        <time>2022-10-28T12:55:00Z</time>
      </trkpt>
      <trkpt lat="44.47696" lon="5.65905">
        <ele>896.1</ele>
        <time>2022-10-28T12:55:01Z</time>
      </trkpt>
      <trkpt lat="44.477" lon="5.65896">
        <ele>895.5</ele>
        <time>2022-10-28T12:55:02Z</time>
      </trkpt>
      <trkpt lat="44.47706" lon="5.65889">
        <ele>894.8</ele>
        <time>2022-10-28T12:55:03Z</time>
      </trkpt>
      <trkpt lat="44.47712" lon="5.65884">
        <ele>894.1</ele>
        <time>2022-10-28T12:55:04Z</time>
      </trkpt>
      <trkpt lat="44.47719" lon="5.65878">
        <ele>893.5</ele>
        <time>2022-10-28T12:55:05Z</time>
      </trkpt>
      <trkpt lat="44.47724" lon="5.65871">
        <ele>892.9</ele>
        <time>2022-10-28T12:55:06Z</time>
      </trkpt>
      <trkpt lat="44.47726" lon="5.65862">
        <ele>892.3</ele>
        <time>2022-10-28T12:55:07Z</time>
      </trkpt>
      <trkpt lat="44.47725" lon="5.65853">
        <ele>891.7</ele>
        <time>2022-10-28T12:55:08Z</time>
      </trkpt>
      <trkpt lat="44.47724" lon="5.65844">
        <ele>891.1</ele>
        <time>2022-10-28T12:55:09Z</time>
      </trkpt>
      <trkpt lat="44.47723" lon="5.65836">
        <ele>890.5</ele>
        <time>2022-10-28T12:55:10Z</time>
      </trkpt>
      <trkpt lat="44.47719" lon="5.65828">
        <ele>889.9</ele>
        <time>2022-10-28T12:55:11Z</time>
      </trkpt>
      <trkpt lat="44.47715" lon="5.6582">
        <ele>889.2</ele>
        <time>2022-10-28T12:55:12Z</time>
      </trkpt>
      <trkpt lat="44.47709" lon="5.65813">
        <ele>888.4</ele>
        <time>2022-10-28T12:55:13Z</time>
      </trkpt>
      <trkpt lat="44.47703" lon="5.65805">
        <ele>887.7</ele>
        <time>2022-10-28T12:55:14Z</time>
      </trkpt>
      <trkpt lat="44.47696" lon="5.65798">
        <ele>887</ele>
        <time>2022-10-28T12:55:15Z</time>
      </trkpt>
      <trkpt lat="44.4769" lon="5.6579">
        <ele>886.3</ele>
        <time>2022-10-28T12:55:16Z</time>
      </trkpt>
      <trkpt lat="44.47685" lon="5.65783">
        <ele>885.7</ele>
        <time>2022-10-28T12:55:17Z</time>
      </trkpt>
      <trkpt lat="44.4768" lon="5.65777">
        <ele>885.2</ele>
        <time>2022-10-28T12:55:18Z</time>
      </trkpt>
      <trkpt lat="44.47676" lon="5.65771">
        <ele>884.5</ele>
        <time>2022-10-28T12:55:19Z</time>
      </trkpt>
      <trkpt lat="44.47672" lon="5.65766">
        <ele>883.9</ele>
        <time>2022-10-28T12:55:20Z</time>
      </trkpt>
      <trkpt lat="44.47667" lon="5.65761">
        <ele>883.4</ele>
        <time>2022-10-28T12:55:21Z</time>
      </trkpt>
      <trkpt lat="44.47662" lon="5.65756">
        <ele>882.9</ele>
        <time>2022-10-28T12:55:22Z</time>
      </trkpt>
      <trkpt lat="44.47658" lon="5.65752">
        <ele>882.5</ele>
        <time>2022-10-28T12:55:23Z</time>
      </trkpt>
      <trkpt lat="44.47653" lon="5.65748">
        <ele>882.1</ele>
        <time>2022-10-28T12:55:24Z</time>
      </trkpt>
      <trkpt lat="44.47648" lon="5.65744">
        <ele>881.8</ele>
        <time>2022-10-28T12:55:25Z</time>
      </trkpt>
      <trkpt lat="44.47643" lon="5.65739">
        <ele>881.5</ele>
        <time>2022-10-28T12:55:26Z</time>
      </trkpt>
      <trkpt lat="44.47639" lon="5.65733">
        <ele>881.3</ele>
        <time>2022-10-28T12:55:27Z</time>
      </trkpt>
      <trkpt lat="44.47635" lon="5.65727">
        <ele>881.2</ele>
        <time>2022-10-28T12:55:28Z</time>
      </trkpt>
      <trkpt lat="44.4763" lon="5.65721">
        <ele>881.1</ele>
        <time>2022-10-28T12:55:29Z</time>
      </trkpt>
      <trkpt lat="44.47625" lon="5.65716">
        <ele>881</ele>
        <time>2022-10-28T12:55:30Z</time>
      </trkpt>
      <trkpt lat="44.47622" lon="5.6571">
        <ele>880.9</ele>
        <time>2022-10-28T12:55:31Z</time>
      </trkpt>
      <trkpt lat="44.47618" lon="5.65705">
        <ele>880.7</ele>
        <time>2022-10-28T12:55:32Z</time>
      </trkpt>
      <trkpt lat="44.47615" lon="5.65699">
        <ele>880.5</ele>
        <time>2022-10-28T12:55:33Z</time>
      </trkpt>
      <trkpt lat="44.47612" lon="5.65691">
        <ele>880.3</ele>
        <time>2022-10-28T12:55:34Z</time>
      </trkpt>
      <trkpt lat="44.4761" lon="5.65684">
        <ele>880</ele>
        <time>2022-10-28T12:55:35Z</time>
      </trkpt>
      <trkpt lat="44.47606" lon="5.65676">
        <ele>879.8</ele>
        <time>2022-10-28T12:55:36Z</time>
      </trkpt>
      <trkpt lat="44.47602" lon="5.65668">
        <ele>879.6</ele>
        <time>2022-10-28T12:55:37Z</time>
      </trkpt>
      <trkpt lat="44.47598" lon="5.65661">
        <ele>879.6</ele>
        <time>2022-10-28T12:55:38Z</time>
      </trkpt>
      <trkpt lat="44.47594" lon="5.65654">
        <ele>879.5</ele>
        <time>2022-10-28T12:55:39Z</time>
      </trkpt>
      <trkpt lat="44.4759" lon="5.65647">
        <ele>879.5</ele>
        <time>2022-10-28T12:55:40Z</time>
      </trkpt>
      <trkpt lat="44.47586" lon="5.6564">
        <ele>879.5</ele>
        <time>2022-10-28T12:55:41Z</time>
      </trkpt>
      <trkpt lat="44.47582" lon="5.65634">
        <ele>879.6</ele>
        <time>2022-10-28T12:55:42Z</time>
      </trkpt>
      <trkpt lat="44.47579" lon="5.65627">
        <ele>879.6</ele>
        <time>2022-10-28T12:55:43Z</time>
      </trkpt>
      <trkpt lat="44.47576" lon="5.65621">
        <ele>879.8</ele>
        <time>2022-10-28T12:55:44Z</time>
      </trkpt>
      <trkpt lat="44.47572" lon="5.65614">
        <ele>879.9</ele>
        <time>2022-10-28T12:55:45Z</time>
      </trkpt>
      <trkpt lat="44.47569" lon="5.65608">
        <ele>880.1</ele>
        <time>2022-10-28T12:55:46Z</time>
      </trkpt>
      <trkpt lat="44.47566" lon="5.65602">
        <ele>880.3</ele>
        <time>2022-10-28T12:55:47Z</time>
      </trkpt>
      <trkpt lat="44.47563" lon="5.65597">
        <ele>880.5</ele>
        <time>2022-10-28T12:55:48Z</time>
      </trkpt>
      <trkpt lat="44.4756" lon="5.65592">
        <ele>880.7</ele>
        <time>2022-10-28T12:55:49Z</time>
      </trkpt>
      <trkpt lat="44.47557" lon="5.65587">
        <ele>880.8</ele>
        <time>2022-10-28T12:55:50Z</time>
      </trkpt>
      <trkpt lat="44.47554" lon="5.65585">
        <ele>880.9</ele>
        <time>2022-10-28T12:55:51Z</time>
      </trkpt>
      <trkpt lat="44.47551" lon="5.6558">
        <ele>880.9</ele>
        <time>2022-10-28T12:55:52Z</time>
      </trkpt>
      <trkpt lat="44.47549" lon="5.65577">
        <ele>880.9</ele>
        <time>2022-10-28T12:55:53Z</time>
      </trkpt>
      <trkpt lat="44.47546" lon="5.65571">
        <ele>880.8</ele>
        <time>2022-10-28T12:55:54Z</time>
      </trkpt>
      <trkpt lat="44.47544" lon="5.65567">
        <ele>880.7</ele>
        <time>2022-10-28T12:55:55Z</time>
      </trkpt>
      <trkpt lat="44.47541" lon="5.65562">
        <ele>880.5</ele>
        <time>2022-10-28T12:55:56Z</time>
      </trkpt>
      <trkpt lat="44.47538" lon="5.65555">
        <ele>880.2</ele>
        <time>2022-10-28T12:55:57Z</time>
      </trkpt>
      <trkpt lat="44.47536" lon="5.65549">
        <ele>879.9</ele>
        <time>2022-10-28T12:55:58Z</time>
      </trkpt>
      <trkpt lat="44.47533" lon="5.65543">
        <ele>879.6</ele>
        <time>2022-10-28T12:55:59Z</time>
      </trkpt>
      <trkpt lat="44.47531" lon="5.65538">
        <ele>879.3</ele>
        <time>2022-10-28T12:56:00Z</time>
      </trkpt>
      <trkpt lat="44.47529" lon="5.65535">
        <ele>878.9</ele>
        <time>2022-10-28T12:56:01Z</time>
      </trkpt>
      <trkpt lat="44.47524" lon="5.65535">
        <ele>878.3</ele>
        <time>2022-10-28T12:56:02Z</time>
      </trkpt>
      <trkpt lat="44.47521" lon="5.65535">
        <ele>878</ele>
        <time>2022-10-28T12:56:03Z</time>
      </trkpt>
      <trkpt lat="44.47515" lon="5.65538">
        <ele>877.3</ele>
        <time>2022-10-28T12:56:04Z</time>
      </trkpt>
      <trkpt lat="44.4751" lon="5.65544">
        <ele>876.5</ele>
        <time>2022-10-28T12:56:05Z</time>
      </trkpt>
      <trkpt lat="44.47504" lon="5.65551">
        <ele>875.7</ele>
        <time>2022-10-28T12:56:06Z</time>
      </trkpt>
      <trkpt lat="44.47499" lon="5.65557">
        <ele>874.8</ele>
        <time>2022-10-28T12:56:07Z</time>
      </trkpt>
      <trkpt lat="44.47492" lon="5.65565">
        <ele>873.9</ele>
        <time>2022-10-28T12:56:08Z</time>
      </trkpt>
      <trkpt lat="44.47486" lon="5.65573">
        <ele>873</ele>
        <time>2022-10-28T12:56:09Z</time>
      </trkpt>
      <trkpt lat="44.47479" lon="5.65582">
        <ele>872</ele>
        <time>2022-10-28T12:56:10Z</time>
      </trkpt>
      <trkpt lat="44.47471" lon="5.65591">
        <ele>871.1</ele>
        <time>2022-10-28T12:56:11Z</time>
      </trkpt>
      <trkpt lat="44.47463" lon="5.656">
        <ele>870.1</ele>
        <time>2022-10-28T12:56:12Z</time>
      </trkpt>
      <trkpt lat="44.47456" lon="5.6561">
        <ele>869.1</ele>
        <time>2022-10-28T12:56:13Z</time>
      </trkpt>
      <trkpt lat="44.47448" lon="5.6562">
        <ele>868.1</ele>
        <time>2022-10-28T12:56:14Z</time>
      </trkpt>
      <trkpt lat="44.4744" lon="5.65631">
        <ele>867.1</ele>
        <time>2022-10-28T12:56:15Z</time>
      </trkpt>
      <trkpt lat="44.47432" lon="5.65641">
        <ele>866.1</ele>
        <time>2022-10-28T12:56:16Z</time>
      </trkpt>
      <trkpt lat="44.47423" lon="5.65651">
        <ele>865.2</ele>
        <time>2022-10-28T12:56:17Z</time>
      </trkpt>
      <trkpt lat="44.47414" lon="5.65661">
        <ele>864.2</ele>
        <time>2022-10-28T12:56:18Z</time>
      </trkpt>
      <trkpt lat="44.47406" lon="5.65672">
        <ele>863.2</ele>
        <time>2022-10-28T12:56:19Z</time>
      </trkpt>
      <trkpt lat="44.47397" lon="5.65681">
        <ele>862.3</ele>
        <time>2022-10-28T12:56:20Z</time>
      </trkpt>
      <trkpt lat="44.47388" lon="5.65691">
        <ele>861.4</ele>
        <time>2022-10-28T12:56:21Z</time>
      </trkpt>
      <trkpt lat="44.4738" lon="5.65702">
        <ele>860.5</ele>
        <time>2022-10-28T12:56:22Z</time>
      </trkpt>
      <trkpt lat="44.47371" lon="5.65713">
        <ele>859.6</ele>
        <time>2022-10-28T12:56:23Z</time>
      </trkpt>
      <trkpt lat="44.47362" lon="5.65724">
        <ele>858.7</ele>
        <time>2022-10-28T12:56:24Z</time>
      </trkpt>
      <trkpt lat="44.47353" lon="5.65735">
        <ele>857.7</ele>
        <time>2022-10-28T12:56:25Z</time>
      </trkpt>
      <trkpt lat="44.47344" lon="5.65746">
        <ele>856.7</ele>
        <time>2022-10-28T12:56:26Z</time>
      </trkpt>
      <trkpt lat="44.47336" lon="5.65757">
        <ele>855.6</ele>
        <time>2022-10-28T12:56:27Z</time>
      </trkpt>
      <trkpt lat="44.47327" lon="5.65769">
        <ele>854.6</ele>
        <time>2022-10-28T12:56:28Z</time>
      </trkpt>
      <trkpt lat="44.47318" lon="5.65781">
        <ele>853.5</ele>
        <time>2022-10-28T12:56:29Z</time>
      </trkpt>
      <trkpt lat="44.4731" lon="5.65793">
        <ele>852.5</ele>
        <time>2022-10-28T12:56:30Z</time>
      </trkpt>
      <trkpt lat="44.47301" lon="5.65805">
        <ele>851.5</ele>
        <time>2022-10-28T12:56:31Z</time>
      </trkpt>
      <trkpt lat="44.47292" lon="5.65817">
        <ele>850.4</ele>
        <time>2022-10-28T12:56:32Z</time>
      </trkpt>
      <trkpt lat="44.47283" lon="5.6583">
        <ele>849.4</ele>
        <time>2022-10-28T12:56:33Z</time>
      </trkpt>
      <trkpt lat="44.47275" lon="5.65842">
        <ele>848.3</ele>
        <time>2022-10-28T12:56:34Z</time>
      </trkpt>
      <trkpt lat="44.47266" lon="5.65854">
        <ele>847.3</ele>
        <time>2022-10-28T12:56:35Z</time>
      </trkpt>
      <trkpt lat="44.47258" lon="5.65868">
        <ele>846.3</ele>
        <time>2022-10-28T12:56:36Z</time>
      </trkpt>
      <trkpt lat="44.47251" lon="5.65882">
        <ele>845.4</ele>
        <time>2022-10-28T12:56:37Z</time>
      </trkpt>
      <trkpt lat="44.47245" lon="5.65897">
        <ele>844.6</ele>
        <time>2022-10-28T12:56:38Z</time>
      </trkpt>
      <trkpt lat="44.4724" lon="5.65913">
        <ele>843.9</ele>
        <time>2022-10-28T12:56:39Z</time>
      </trkpt>
      <trkpt lat="44.47236" lon="5.65929">
        <ele>843.3</ele>
        <time>2022-10-28T12:56:40Z</time>
      </trkpt>
      <trkpt lat="44.47232" lon="5.65945">
        <ele>842.7</ele>
        <time>2022-10-28T12:56:41Z</time>
      </trkpt>
      <trkpt lat="44.47228" lon="5.65961">
        <ele>842.2</ele>
        <time>2022-10-28T12:56:42Z</time>
      </trkpt>
      <trkpt lat="44.47224" lon="5.65977">
        <ele>841.7</ele>
        <time>2022-10-28T12:56:43Z</time>
      </trkpt>
      <trkpt lat="44.4722" lon="5.65992">
        <ele>841.1</ele>
        <time>2022-10-28T12:56:44Z</time>
      </trkpt>
      <trkpt lat="44.47217" lon="5.66006">
        <ele>840.6</ele>
        <time>2022-10-28T12:56:45Z</time>
      </trkpt>
      <trkpt lat="44.47213" lon="5.66021">
        <ele>839.9</ele>
        <time>2022-10-28T12:56:46Z</time>
      </trkpt>
      <trkpt lat="44.47209" lon="5.66036">
        <ele>839.3</ele>
        <time>2022-10-28T12:56:47Z</time>
      </trkpt>
      <trkpt lat="44.47205" lon="5.66051">
        <ele>838.7</ele>
        <time>2022-10-28T12:56:48Z</time>
      </trkpt>
      <trkpt lat="44.47201" lon="5.66065">
        <ele>838</ele>
        <time>2022-10-28T12:56:49Z</time>
      </trkpt>
      <trkpt lat="44.47197" lon="5.6608">
        <ele>837.4</ele>
        <time>2022-10-28T12:56:50Z</time>
      </trkpt>
      <trkpt lat="44.47194" lon="5.66095">
        <ele>836.8</ele>
        <time>2022-10-28T12:56:51Z</time>
      </trkpt>
      <trkpt lat="44.4719" lon="5.66109">
        <ele>836.3</ele>
        <time>2022-10-28T12:56:52Z</time>
      </trkpt>
      <trkpt lat="44.47187" lon="5.66124">
        <ele>835.7</ele>
        <time>2022-10-28T12:56:53Z</time>
      </trkpt>
      <trkpt lat="44.47183" lon="5.66138">
        <ele>835.1</ele>
        <time>2022-10-28T12:56:54Z</time>
      </trkpt>
      <trkpt lat="44.47179" lon="5.66152">
        <ele>834.4</ele>
        <time>2022-10-28T12:56:55Z</time>
      </trkpt>
      <trkpt lat="44.47175" lon="5.66166">
        <ele>833.7</ele>
        <time>2022-10-28T12:56:56Z</time>
      </trkpt>
      <trkpt lat="44.47172" lon="5.6618">
        <ele>833</ele>
        <time>2022-10-28T12:56:57Z</time>
      </trkpt>
      <trkpt lat="44.47168" lon="5.66195">
        <ele>832.3</ele>
        <time>2022-10-28T12:56:58Z</time>
      </trkpt>
      <trkpt lat="44.47164" lon="5.66209">
        <ele>831.8</ele>
        <time>2022-10-28T12:56:59Z</time>
      </trkpt>
      <trkpt lat="44.47162" lon="5.66222">
        <ele>831.3</ele>
        <time>2022-10-28T12:57:00Z</time>
      </trkpt>
      <trkpt lat="44.47161" lon="5.66233">
        <ele>830.9</ele>
        <time>2022-10-28T12:57:01Z</time>
      </trkpt>
      <trkpt lat="44.47162" lon="5.66245">
        <ele>830.5</ele>
        <time>2022-10-28T12:57:02Z</time>
      </trkpt>
      <trkpt lat="44.47168" lon="5.66254">
        <ele>830</ele>
        <time>2022-10-28T12:57:03Z</time>
      </trkpt>
      <trkpt lat="44.47175" lon="5.66261">
        <ele>829.6</ele>
        <time>2022-10-28T12:57:04Z</time>
      </trkpt>
      <trkpt lat="44.47183" lon="5.66265">
        <ele>829.1</ele>
        <time>2022-10-28T12:57:05Z</time>
      </trkpt>
      <trkpt lat="44.47192" lon="5.66267">
        <ele>828.6</ele>
        <time>2022-10-28T12:57:06Z</time>
      </trkpt>
      <trkpt lat="44.472" lon="5.66269">
        <ele>828.1</ele>
        <time>2022-10-28T12:57:07Z</time>
      </trkpt>
      <trkpt lat="44.47209" lon="5.6627">
        <ele>827.7</ele>
        <time>2022-10-28T12:57:08Z</time>
      </trkpt>
      <trkpt lat="44.47218" lon="5.66272">
        <ele>827.3</ele>
        <time>2022-10-28T12:57:09Z</time>
      </trkpt>
      <trkpt lat="44.47227" lon="5.66273">
        <ele>826.8</ele>
        <time>2022-10-28T12:57:10Z</time>
      </trkpt>
      <trkpt lat="44.47235" lon="5.66275">
        <ele>826.3</ele>
        <time>2022-10-28T12:57:11Z</time>
      </trkpt>
      <trkpt lat="44.47242" lon="5.66279">
        <ele>825.8</ele>
        <time>2022-10-28T12:57:12Z</time>
      </trkpt>
      <trkpt lat="44.47248" lon="5.66288">
        <ele>825.2</ele>
        <time>2022-10-28T12:57:13Z</time>
      </trkpt>
      <trkpt lat="44.47251" lon="5.66299">
        <ele>824.5</ele>
        <time>2022-10-28T12:57:14Z</time>
      </trkpt>
      <trkpt lat="44.47253" lon="5.66311">
        <ele>823.9</ele>
        <time>2022-10-28T12:57:15Z</time>
      </trkpt>
      <trkpt lat="44.47256" lon="5.66323">
        <ele>823.3</ele>
        <time>2022-10-28T12:57:16Z</time>
      </trkpt>
      <trkpt lat="44.4726" lon="5.66335">
        <ele>822.9</ele>
        <time>2022-10-28T12:57:17Z</time>
      </trkpt>
      <trkpt lat="44.47264" lon="5.66346">
        <ele>822.5</ele>
        <time>2022-10-28T12:57:18Z</time>
      </trkpt>
      <trkpt lat="44.47269" lon="5.66357">
        <ele>822.2</ele>
        <time>2022-10-28T12:57:19Z</time>
      </trkpt>
      <trkpt lat="44.47274" lon="5.66369">
        <ele>822</ele>
        <time>2022-10-28T12:57:20Z</time>
      </trkpt>
      <trkpt lat="44.47278" lon="5.6638">
        <ele>821.7</ele>
        <time>2022-10-28T12:57:21Z</time>
      </trkpt>
      <trkpt lat="44.47279" lon="5.66392">
        <ele>821.5</ele>
        <time>2022-10-28T12:57:22Z</time>
      </trkpt>
      <trkpt lat="44.47277" lon="5.66403">
        <ele>821.2</ele>
        <time>2022-10-28T12:57:23Z</time>
      </trkpt>
      <trkpt lat="44.47272" lon="5.66413">
        <ele>820.9</ele>
        <time>2022-10-28T12:57:24Z</time>
      </trkpt>
      <trkpt lat="44.47267" lon="5.66423">
        <ele>820.5</ele>
        <time>2022-10-28T12:57:25Z</time>
      </trkpt>
      <trkpt lat="44.47262" lon="5.66432">
        <ele>820.1</ele>
        <time>2022-10-28T12:57:26Z</time>
      </trkpt>
      <trkpt lat="44.47256" lon="5.66441">
        <ele>819.7</ele>
        <time>2022-10-28T12:57:27Z</time>
      </trkpt>
      <trkpt lat="44.47251" lon="5.6645">
        <ele>819.3</ele>
        <time>2022-10-28T12:57:28Z</time>
      </trkpt>
      <trkpt lat="44.47246" lon="5.6646">
        <ele>818.9</ele>
        <time>2022-10-28T12:57:29Z</time>
      </trkpt>
      <trkpt lat="44.4724" lon="5.6647">
        <ele>818.6</ele>
        <time>2022-10-28T12:57:30Z</time>
      </trkpt>
      <trkpt lat="44.47234" lon="5.66478">
        <ele>818.3</ele>
        <time>2022-10-28T12:57:31Z</time>
      </trkpt>
      <trkpt lat="44.47228" lon="5.66487">
        <ele>818.1</ele>
        <time>2022-10-28T12:57:32Z</time>
      </trkpt>
      <trkpt lat="44.47221" lon="5.66494">
        <ele>817.8</ele>
        <time>2022-10-28T12:57:33Z</time>
      </trkpt>
      <trkpt lat="44.47213" lon="5.66498">
        <ele>817.6</ele>
        <time>2022-10-28T12:57:34Z</time>
      </trkpt>
      <trkpt lat="44.47204" lon="5.66502">
        <ele>817.4</ele>
        <time>2022-10-28T12:57:35Z</time>
      </trkpt>
      <trkpt lat="44.47197" lon="5.66508">
        <ele>817.1</ele>
        <time>2022-10-28T12:57:36Z</time>
      </trkpt>
      <trkpt lat="44.47189" lon="5.66514">
        <ele>816.9</ele>
        <time>2022-10-28T12:57:37Z</time>
      </trkpt>
      <trkpt lat="44.47182" lon="5.66521">
        <ele>816.7</ele>
        <time>2022-10-28T12:57:38Z</time>
      </trkpt>
      <trkpt lat="44.47175" lon="5.66529">
        <ele>816.5</ele>
        <time>2022-10-28T12:57:39Z</time>
      </trkpt>
      <trkpt lat="44.4717" lon="5.66537">
        <ele>816.4</ele>
        <time>2022-10-28T12:57:40Z</time>
      </trkpt>
      <trkpt lat="44.47165" lon="5.66547">
        <ele>816.3</ele>
        <time>2022-10-28T12:57:41Z</time>
      </trkpt>
      <trkpt lat="44.47162" lon="5.66557">
        <ele>816.3</ele>
        <time>2022-10-28T12:57:42Z</time>
      </trkpt>
      <trkpt lat="44.47158" lon="5.66568">
        <ele>816.4</ele>
        <time>2022-10-28T12:57:43Z</time>
      </trkpt>
      <trkpt lat="44.47155" lon="5.66577">
        <ele>816.5</ele>
        <time>2022-10-28T12:57:44Z</time>
      </trkpt>
      <trkpt lat="44.47149" lon="5.66585">
        <ele>816.6</ele>
        <time>2022-10-28T12:57:45Z</time>
      </trkpt>
      <trkpt lat="44.47142" lon="5.66588">
        <ele>816.7</ele>
        <time>2022-10-28T12:57:46Z</time>
      </trkpt>
      <trkpt lat="44.47135" lon="5.6659">
        <ele>816.9</ele>
        <time>2022-10-28T12:57:47Z</time>
      </trkpt>
      <trkpt lat="44.47128" lon="5.66592">
        <ele>817.1</ele>
        <time>2022-10-28T12:57:48Z</time>
      </trkpt>
      <trkpt lat="44.47122" lon="5.66595">
        <ele>817.2</ele>
        <time>2022-10-28T12:57:49Z</time>
      </trkpt>
      <trkpt lat="44.47116" lon="5.66598">
        <ele>817.4</ele>
        <time>2022-10-28T12:57:50Z</time>
      </trkpt>
      <trkpt lat="44.4711" lon="5.66601">
        <ele>817.6</ele>
        <time>2022-10-28T12:57:51Z</time>
      </trkpt>
      <trkpt lat="44.47105" lon="5.66603">
        <ele>817.8</ele>
        <time>2022-10-28T12:57:52Z</time>
      </trkpt>
      <trkpt lat="44.47099" lon="5.66605">
        <ele>818</ele>
        <time>2022-10-28T12:57:53Z</time>
      </trkpt>
      <trkpt lat="44.47094" lon="5.66607">
        <ele>818.3</ele>
        <time>2022-10-28T12:57:54Z</time>
      </trkpt>
      <trkpt lat="44.47089" lon="5.66609">
        <ele>818.5</ele>
        <time>2022-10-28T12:57:55Z</time>
      </trkpt>
      <trkpt lat="44.47085" lon="5.66611">
        <ele>818.7</ele>
        <time>2022-10-28T12:57:56Z</time>
      </trkpt>
      <trkpt lat="44.4708" lon="5.66613">
        <ele>818.9</ele>
        <time>2022-10-28T12:57:57Z</time>
      </trkpt>
      <trkpt lat="44.47076" lon="5.66615">
        <ele>819</ele>
        <time>2022-10-28T12:57:58Z</time>
      </trkpt>
      <trkpt lat="44.47072" lon="5.66617">
        <ele>819.2</ele>
        <time>2022-10-28T12:57:59Z</time>
      </trkpt>
      <trkpt lat="44.47068" lon="5.66619">
        <ele>819.3</ele>
        <time>2022-10-28T12:58:00Z</time>
      </trkpt>
      <trkpt lat="44.47065" lon="5.66621">
        <ele>819.4</ele>
        <time>2022-10-28T12:58:01Z</time>
      </trkpt>
      <trkpt lat="44.4706" lon="5.66624">
        <ele>819.6</ele>
        <time>2022-10-28T12:58:02Z</time>
      </trkpt>
      <trkpt lat="44.47057" lon="5.66627">
        <ele>819.7</ele>
        <time>2022-10-28T12:58:03Z</time>
      </trkpt>
      <trkpt lat="44.47053" lon="5.6663">
        <ele>819.8</ele>
        <time>2022-10-28T12:58:04Z</time>
      </trkpt>
      <trkpt lat="44.47049" lon="5.66633">
        <ele>819.8</ele>
        <time>2022-10-28T12:58:05Z</time>
      </trkpt>
      <trkpt lat="44.47045" lon="5.66636">
        <ele>819.9</ele>
        <time>2022-10-28T12:58:06Z</time>
      </trkpt>
      <trkpt lat="44.47041" lon="5.66639">
        <ele>819.9</ele>
        <time>2022-10-28T12:58:07Z</time>
      </trkpt>
      <trkpt lat="44.47037" lon="5.66643">
        <ele>820</ele>
        <time>2022-10-28T12:58:08Z</time>
      </trkpt>
      <trkpt lat="44.47033" lon="5.66648">
        <ele>820</ele>
        <time>2022-10-28T12:58:09Z</time>
      </trkpt>
      <trkpt lat="44.47029" lon="5.66652">
        <ele>820</ele>
        <time>2022-10-28T12:58:10Z</time>
      </trkpt>
      <trkpt lat="44.47025" lon="5.66656">
        <ele>820</ele>
        <time>2022-10-28T12:58:11Z</time>
      </trkpt>
      <trkpt lat="44.47021" lon="5.6666">
        <ele>820</ele>
        <time>2022-10-28T12:58:12Z</time>
      </trkpt>
      <trkpt lat="44.47017" lon="5.66665">
        <ele>820</ele>
        <time>2022-10-28T12:58:13Z</time>
      </trkpt>
      <trkpt lat="44.47014" lon="5.66669">
        <ele>820</ele>
        <time>2022-10-28T12:58:14Z</time>
      </trkpt>
      <trkpt lat="44.4701" lon="5.66674">
        <ele>820</ele>
        <time>2022-10-28T12:58:15Z</time>
      </trkpt>
      <trkpt lat="44.47007" lon="5.66679">
        <ele>820</ele>
        <time>2022-10-28T12:58:16Z</time>
      </trkpt>
      <trkpt lat="44.47003" lon="5.66683">
        <ele>820</ele>
        <time>2022-10-28T12:58:17Z</time>
      </trkpt>
      <trkpt lat="44.47" lon="5.66689">
        <ele>819.9</ele>
        <time>2022-10-28T12:58:18Z</time>
      </trkpt>
      <trkpt lat="44.46997" lon="5.66694">
        <ele>819.9</ele>
        <time>2022-10-28T12:58:19Z</time>
      </trkpt>
      <trkpt lat="44.46994" lon="5.667">
        <ele>819.9</ele>
        <time>2022-10-28T12:58:20Z</time>
      </trkpt>
      <trkpt lat="44.46992" lon="5.66706">
        <ele>819.9</ele>
        <time>2022-10-28T12:58:21Z</time>
      </trkpt>
      <trkpt lat="44.46989" lon="5.66712">
        <ele>819.8</ele>
        <time>2022-10-28T12:58:22Z</time>
      </trkpt>
      <trkpt lat="44.46987" lon="5.66719">
        <ele>819.8</ele>
        <time>2022-10-28T12:58:23Z</time>
      </trkpt>
      <trkpt lat="44.46985" lon="5.66725">
        <ele>819.7</ele>
        <time>2022-10-28T12:58:24Z</time>
      </trkpt>
      <trkpt lat="44.46984" lon="5.66732">
        <ele>819.7</ele>
        <time>2022-10-28T12:58:25Z</time>
      </trkpt>
      <trkpt lat="44.46982" lon="5.66739">
        <ele>819.6</ele>
        <time>2022-10-28T12:58:26Z</time>
      </trkpt>
      <trkpt lat="44.46981" lon="5.66745">
        <ele>819.5</ele>
        <time>2022-10-28T12:58:27Z</time>
      </trkpt>
      <trkpt lat="44.4698" lon="5.66752">
        <ele>819.5</ele>
        <time>2022-10-28T12:58:28Z</time>
      </trkpt>
      <trkpt lat="44.46979" lon="5.66759">
        <ele>819.4</ele>
        <time>2022-10-28T12:58:29Z</time>
      </trkpt>
      <trkpt lat="44.46977" lon="5.66766">
        <ele>819.4</ele>
        <time>2022-10-28T12:58:30Z</time>
      </trkpt>
      <trkpt lat="44.46976" lon="5.66773">
        <ele>819.3</ele>
        <time>2022-10-28T12:58:31Z</time>
      </trkpt>
      <trkpt lat="44.46974" lon="5.6678">
        <ele>819.3</ele>
        <time>2022-10-28T12:58:32Z</time>
      </trkpt>
      <trkpt lat="44.46971" lon="5.66787">
        <ele>819.2</ele>
        <time>2022-10-28T12:58:33Z</time>
      </trkpt>
      <trkpt lat="44.46969" lon="5.66793">
        <ele>819.2</ele>
        <time>2022-10-28T12:58:34Z</time>
      </trkpt>
      <trkpt lat="44.46966" lon="5.66799">
        <ele>819.2</ele>
        <time>2022-10-28T12:58:35Z</time>
      </trkpt>
      <trkpt lat="44.46963" lon="5.66805">
        <ele>819.1</ele>
        <time>2022-10-28T12:58:36Z</time>
      </trkpt>
      <trkpt lat="44.46959" lon="5.6681">
        <ele>819.1</ele>
        <time>2022-10-28T12:58:37Z</time>
      </trkpt>
      <trkpt lat="44.46955" lon="5.66815">
        <ele>819</ele>
        <time>2022-10-28T12:58:38Z</time>
      </trkpt>
      <trkpt lat="44.46952" lon="5.6682">
        <ele>818.9</ele>
        <time>2022-10-28T12:58:39Z</time>
      </trkpt>
      <trkpt lat="44.46948" lon="5.66826">
        <ele>818.9</ele>
        <time>2022-10-28T12:58:40Z</time>
      </trkpt>
      <trkpt lat="44.46944" lon="5.66831">
        <ele>818.8</ele>
        <time>2022-10-28T12:58:41Z</time>
      </trkpt>
      <trkpt lat="44.4694" lon="5.66836">
        <ele>818.8</ele>
        <time>2022-10-28T12:58:42Z</time>
      </trkpt>
      <trkpt lat="44.46936" lon="5.66841">
        <ele>818.7</ele>
        <time>2022-10-28T12:58:43Z</time>
      </trkpt>
      <trkpt lat="44.46933" lon="5.66847">
        <ele>818.6</ele>
        <time>2022-10-28T12:58:44Z</time>
      </trkpt>
      <trkpt lat="44.46929" lon="5.66852">
        <ele>818.5</ele>
        <time>2022-10-28T12:58:45Z</time>
      </trkpt>
      <trkpt lat="44.46926" lon="5.66858">
        <ele>818.5</ele>
        <time>2022-10-28T12:58:46Z</time>
      </trkpt>
      <trkpt lat="44.46923" lon="5.66865">
        <ele>818.3</ele>
        <time>2022-10-28T12:58:47Z</time>
      </trkpt>
      <trkpt lat="44.46919" lon="5.66872">
        <ele>818.2</ele>
        <time>2022-10-28T12:58:48Z</time>
      </trkpt>
      <trkpt lat="44.46916" lon="5.66879">
        <ele>818.1</ele>
        <time>2022-10-28T12:58:49Z</time>
      </trkpt>
      <trkpt lat="44.46914" lon="5.66885">
        <ele>817.9</ele>
        <time>2022-10-28T12:58:50Z</time>
      </trkpt>
      <trkpt lat="44.46911" lon="5.66892">
        <ele>817.6</ele>
        <time>2022-10-28T12:58:51Z</time>
      </trkpt>
      <trkpt lat="44.46909" lon="5.66899">
        <ele>817.3</ele>
        <time>2022-10-28T12:58:52Z</time>
      </trkpt>
      <trkpt lat="44.46907" lon="5.66907">
        <ele>817</ele>
        <time>2022-10-28T12:58:53Z</time>
      </trkpt>
      <trkpt lat="44.46905" lon="5.66915">
        <ele>816.7</ele>
        <time>2022-10-28T12:58:54Z</time>
      </trkpt>
      <trkpt lat="44.46903" lon="5.66924">
        <ele>816.3</ele>
        <time>2022-10-28T12:58:55Z</time>
      </trkpt>
      <trkpt lat="44.46901" lon="5.66933">
        <ele>815.9</ele>
        <time>2022-10-28T12:58:56Z</time>
      </trkpt>
      <trkpt lat="44.46899" lon="5.66942">
        <ele>815.5</ele>
        <time>2022-10-28T12:58:57Z</time>
      </trkpt>
      <trkpt lat="44.46898" lon="5.66952">
        <ele>815.1</ele>
        <time>2022-10-28T12:58:58Z</time>
      </trkpt>
      <trkpt lat="44.46896" lon="5.66962">
        <ele>814.6</ele>
        <time>2022-10-28T12:58:59Z</time>
      </trkpt>
      <trkpt lat="44.46894" lon="5.66973">
        <ele>814</ele>
        <time>2022-10-28T12:59:00Z</time>
      </trkpt>
      <trkpt lat="44.46893" lon="5.66984">
        <ele>813.5</ele>
        <time>2022-10-28T12:59:01Z</time>
      </trkpt>
      <trkpt lat="44.46892" lon="5.66995">
        <ele>812.9</ele>
        <time>2022-10-28T12:59:02Z</time>
      </trkpt>
      <trkpt lat="44.46893" lon="5.67007">
        <ele>812.4</ele>
        <time>2022-10-28T12:59:03Z</time>
      </trkpt>
      <trkpt lat="44.46893" lon="5.67019">
        <ele>811.8</ele>
        <time>2022-10-28T12:59:04Z</time>
      </trkpt>
      <trkpt lat="44.46893" lon="5.67032">
        <ele>811.3</ele>
        <time>2022-10-28T12:59:05Z</time>
      </trkpt>
      <trkpt lat="44.46893" lon="5.67044">
        <ele>810.8</ele>
        <time>2022-10-28T12:59:06Z</time>
      </trkpt>
      <trkpt lat="44.46891" lon="5.67057">
        <ele>810.3</ele>
        <time>2022-10-28T12:59:07Z</time>
      </trkpt>
      <trkpt lat="44.46888" lon="5.67069">
        <ele>809.8</ele>
        <time>2022-10-28T12:59:08Z</time>
      </trkpt>
      <trkpt lat="44.46884" lon="5.6708">
        <ele>809.2</ele>
        <time>2022-10-28T12:59:09Z</time>
      </trkpt>
      <trkpt lat="44.4688" lon="5.67091">
        <ele>808.7</ele>
        <time>2022-10-28T12:59:10Z</time>
      </trkpt>
      <trkpt lat="44.46874" lon="5.67103">
        <ele>808.2</ele>
        <time>2022-10-28T12:59:11Z</time>
      </trkpt>
      <trkpt lat="44.46869" lon="5.67114">
        <ele>807.7</ele>
        <time>2022-10-28T12:59:12Z</time>
      </trkpt>
      <trkpt lat="44.46863" lon="5.67125">
        <ele>807.2</ele>
        <time>2022-10-28T12:59:13Z</time>
      </trkpt>
      <trkpt lat="44.46856" lon="5.67135">
        <ele>806.7</ele>
        <time>2022-10-28T12:59:14Z</time>
      </trkpt>
      <trkpt lat="44.4685" lon="5.67145">
        <ele>806.1</ele>
        <time>2022-10-28T12:59:15Z</time>
      </trkpt>
      <trkpt lat="44.46844" lon="5.67155">
        <ele>805.6</ele>
        <time>2022-10-28T12:59:16Z</time>
      </trkpt>
      <trkpt lat="44.46838" lon="5.67165">
        <ele>805</ele>
        <time>2022-10-28T12:59:17Z</time>
      </trkpt>
      <trkpt lat="44.46833" lon="5.67177">
        <ele>804.4</ele>
        <time>2022-10-28T12:59:18Z</time>
      </trkpt>
      <trkpt lat="44.46828" lon="5.67188">
        <ele>803.9</ele>
        <time>2022-10-28T12:59:19Z</time>
      </trkpt>
      <trkpt lat="44.46823" lon="5.672">
        <ele>803.4</ele>
        <time>2022-10-28T12:59:20Z</time>
      </trkpt>
      <trkpt lat="44.46818" lon="5.67212">
        <ele>802.8</ele>
        <time>2022-10-28T12:59:21Z</time>
      </trkpt>
      <trkpt lat="44.46813" lon="5.67224">
        <ele>802.3</ele>
        <time>2022-10-28T12:59:22Z</time>
      </trkpt>
      <trkpt lat="44.46808" lon="5.67236">
        <ele>801.7</ele>
        <time>2022-10-28T12:59:23Z</time>
      </trkpt>
      <trkpt lat="44.46803" lon="5.67248">
        <ele>801.1</ele>
        <time>2022-10-28T12:59:24Z</time>
      </trkpt>
      <trkpt lat="44.46798" lon="5.6726">
        <ele>800.6</ele>
        <time>2022-10-28T12:59:25Z</time>
      </trkpt>
      <trkpt lat="44.46792" lon="5.67271">
        <ele>800</ele>
        <time>2022-10-28T12:59:26Z</time>
      </trkpt>
      <trkpt lat="44.46787" lon="5.67284">
        <ele>799.5</ele>
        <time>2022-10-28T12:59:27Z</time>
      </trkpt>
      <trkpt lat="44.46782" lon="5.67296">
        <ele>798.9</ele>
        <time>2022-10-28T12:59:28Z</time>
      </trkpt>
      <trkpt lat="44.46777" lon="5.67308">
        <ele>798.4</ele>
        <time>2022-10-28T12:59:29Z</time>
      </trkpt>
      <trkpt lat="44.46772" lon="5.67319">
        <ele>797.9</ele>
        <time>2022-10-28T12:59:30Z</time>
      </trkpt>
      <trkpt lat="44.46765" lon="5.67329">
        <ele>797.4</ele>
        <time>2022-10-28T12:59:31Z</time>
      </trkpt>
      <trkpt lat="44.46757" lon="5.67337">
        <ele>797</ele>
        <time>2022-10-28T12:59:32Z</time>
      </trkpt>
      <trkpt lat="44.46749" lon="5.67347">
        <ele>796.5</ele>
        <time>2022-10-28T12:59:33Z</time>
      </trkpt>
      <trkpt lat="44.46743" lon="5.67357">
        <ele>796.2</ele>
        <time>2022-10-28T12:59:34Z</time>
      </trkpt>
      <trkpt lat="44.46737" lon="5.67368">
        <ele>795.9</ele>
        <time>2022-10-28T12:59:35Z</time>
      </trkpt>
      <trkpt lat="44.46731" lon="5.67379">
        <ele>795.7</ele>
        <time>2022-10-28T12:59:36Z</time>
      </trkpt>
      <trkpt lat="44.46727" lon="5.67391">
        <ele>795.5</ele>
        <time>2022-10-28T12:59:37Z</time>
      </trkpt>
      <trkpt lat="44.46722" lon="5.67402">
        <ele>795.3</ele>
        <time>2022-10-28T12:59:38Z</time>
      </trkpt>
      <trkpt lat="44.46718" lon="5.67413">
        <ele>795</ele>
        <time>2022-10-28T12:59:39Z</time>
      </trkpt>
      <trkpt lat="44.46714" lon="5.67424">
        <ele>794.7</ele>
        <time>2022-10-28T12:59:40Z</time>
      </trkpt>
      <trkpt lat="44.4671" lon="5.67436">
        <ele>794.4</ele>
        <time>2022-10-28T12:59:41Z</time>
      </trkpt>
      <trkpt lat="44.46707" lon="5.67447">
        <ele>794.1</ele>
        <time>2022-10-28T12:59:42Z</time>
      </trkpt>
      <trkpt lat="44.46703" lon="5.67458">
        <ele>793.8</ele>
        <time>2022-10-28T12:59:43Z</time>
      </trkpt>
      <trkpt lat="44.46699" lon="5.67469">
        <ele>793.5</ele>
        <time>2022-10-28T12:59:44Z</time>
      </trkpt>
      <trkpt lat="44.46694" lon="5.6748">
        <ele>793.2</ele>
        <time>2022-10-28T12:59:45Z</time>
      </trkpt>
      <trkpt lat="44.4669" lon="5.6749">
        <ele>793</ele>
        <time>2022-10-28T12:59:46Z</time>
      </trkpt>
      <trkpt lat="44.46685" lon="5.675">
        <ele>792.7</ele>
        <time>2022-10-28T12:59:47Z</time>
      </trkpt>
      <trkpt lat="44.46679" lon="5.67508">
        <ele>792.5</ele>
        <time>2022-10-28T12:59:48Z</time>
      </trkpt>
      <trkpt lat="44.46672" lon="5.67515">
        <ele>792.2</ele>
        <time>2022-10-28T12:59:49Z</time>
      </trkpt>
      <trkpt lat="44.46665" lon="5.67523">
        <ele>792</ele>
        <time>2022-10-28T12:59:50Z</time>
      </trkpt>
      <trkpt lat="44.46659" lon="5.67531">
        <ele>791.7</ele>
        <time>2022-10-28T12:59:51Z</time>
      </trkpt>
      <trkpt lat="44.46653" lon="5.67539">
        <ele>791.4</ele>
        <time>2022-10-28T12:59:52Z</time>
      </trkpt>
      <trkpt lat="44.46648" lon="5.67549">
        <ele>791.2</ele>
        <time>2022-10-28T12:59:53Z</time>
      </trkpt>
      <trkpt lat="44.46643" lon="5.67559">
        <ele>790.9</ele>
        <time>2022-10-28T12:59:54Z</time>
      </trkpt>
      <trkpt lat="44.46638" lon="5.67569">
        <ele>790.6</ele>
        <time>2022-10-28T12:59:55Z</time>
      </trkpt>
      <trkpt lat="44.46633" lon="5.67579">
        <ele>790.3</ele>
        <time>2022-10-28T12:59:56Z</time>
      </trkpt>
      <trkpt lat="44.46629" lon="5.6759">
        <ele>790</ele>
        <time>2022-10-28T12:59:57Z</time>
      </trkpt>
      <trkpt lat="44.46624" lon="5.676">
        <ele>789.7</ele>
        <time>2022-10-28T12:59:58Z</time>
      </trkpt>
      <trkpt lat="44.46621" lon="5.67611">
        <ele>789.3</ele>
        <time>2022-10-28T12:59:59Z</time>
      </trkpt>
      <trkpt lat="44.46618" lon="5.67622">
        <ele>789</ele>
        <time>2022-10-28T13:00:00Z</time>
      </trkpt>
      <trkpt lat="44.46617" lon="5.67634">
        <ele>788.7</ele>
        <time>2022-10-28T13:00:01Z</time>
      </trkpt>
      <trkpt lat="44.46617" lon="5.67646">
        <ele>788.4</ele>
        <time>2022-10-28T13:00:02Z</time>
      </trkpt>
      <trkpt lat="44.46619" lon="5.67659">
        <ele>788</ele>
        <time>2022-10-28T13:00:03Z</time>
      </trkpt>
      <trkpt lat="44.4662" lon="5.67671">
        <ele>787.6</ele>
        <time>2022-10-28T13:00:04Z</time>
      </trkpt>
      <trkpt lat="44.46622" lon="5.67683">
        <ele>787.2</ele>
        <time>2022-10-28T13:00:05Z</time>
      </trkpt>
      <trkpt lat="44.46624" lon="5.67695">
        <ele>786.9</ele>
        <time>2022-10-28T13:00:06Z</time>
      </trkpt>
      <trkpt lat="44.46625" lon="5.67708">
        <ele>786.6</ele>
        <time>2022-10-28T13:00:07Z</time>
      </trkpt>
      <trkpt lat="44.46626" lon="5.6772">
        <ele>786.3</ele>
        <time>2022-10-28T13:00:08Z</time>
      </trkpt>
      <trkpt lat="44.46626" lon="5.67733">
        <ele>786</ele>
        <time>2022-10-28T13:00:09Z</time>
      </trkpt>
      <trkpt lat="44.46626" lon="5.67745">
        <ele>785.7</ele>
        <time>2022-10-28T13:00:10Z</time>
      </trkpt>
      <trkpt lat="44.46625" lon="5.67757">
        <ele>785.4</ele>
        <time>2022-10-28T13:00:11Z</time>
      </trkpt>
      <trkpt lat="44.46623" lon="5.67769">
        <ele>785.1</ele>
        <time>2022-10-28T13:00:12Z</time>
      </trkpt>
      <trkpt lat="44.46621" lon="5.67781">
        <ele>784.8</ele>
        <time>2022-10-28T13:00:13Z</time>
      </trkpt>
      <trkpt lat="44.46619" lon="5.67794">
        <ele>784.5</ele>
        <time>2022-10-28T13:00:14Z</time>
      </trkpt>
      <trkpt lat="44.46617" lon="5.67806">
        <ele>784.2</ele>
        <time>2022-10-28T13:00:15Z</time>
      </trkpt>
      <trkpt lat="44.46613" lon="5.67817">
        <ele>783.9</ele>
        <time>2022-10-28T13:00:16Z</time>
      </trkpt>
      <trkpt lat="44.46609" lon="5.67828">
        <ele>783.6</ele>
        <time>2022-10-28T13:00:17Z</time>
      </trkpt>
      <trkpt lat="44.46605" lon="5.67838">
        <ele>783.3</ele>
        <time>2022-10-28T13:00:18Z</time>
      </trkpt>
      <trkpt lat="44.46602" lon="5.67848">
        <ele>783</ele>
        <time>2022-10-28T13:00:19Z</time>
      </trkpt>
      <trkpt lat="44.46598" lon="5.67859">
        <ele>782.7</ele>
        <time>2022-10-28T13:00:20Z</time>
      </trkpt>
      <trkpt lat="44.46595" lon="5.6787">
        <ele>782.5</ele>
        <time>2022-10-28T13:00:21Z</time>
      </trkpt>
      <trkpt lat="44.46591" lon="5.67882">
        <ele>782.2</ele>
        <time>2022-10-28T13:00:22Z</time>
      </trkpt>
      <trkpt lat="44.46587" lon="5.67893">
        <ele>782.1</ele>
        <time>2022-10-28T13:00:23Z</time>
      </trkpt>
      <trkpt lat="44.46583" lon="5.67903">
        <ele>782</ele>
        <time>2022-10-28T13:00:24Z</time>
      </trkpt>
      <trkpt lat="44.46579" lon="5.67914">
        <ele>781.9</ele>
        <time>2022-10-28T13:00:25Z</time>
      </trkpt>
      <trkpt lat="44.46576" lon="5.67925">
        <ele>781.8</ele>
        <time>2022-10-28T13:00:26Z</time>
      </trkpt>
      <trkpt lat="44.46572" lon="5.67935">
        <ele>781.8</ele>
        <time>2022-10-28T13:00:27Z</time>
      </trkpt>
      <trkpt lat="44.46569" lon="5.67945">
        <ele>781.7</ele>
        <time>2022-10-28T13:00:28Z</time>
      </trkpt>
      <trkpt lat="44.46566" lon="5.67956">
        <ele>781.7</ele>
        <time>2022-10-28T13:00:29Z</time>
      </trkpt>
      <trkpt lat="44.46563" lon="5.67966">
        <ele>781.7</ele>
        <time>2022-10-28T13:00:30Z</time>
      </trkpt>
      <trkpt lat="44.46559" lon="5.67976">
        <ele>781.7</ele>
        <time>2022-10-28T13:00:31Z</time>
      </trkpt>
      <trkpt lat="44.46556" lon="5.67986">
        <ele>781.8</ele>
        <time>2022-10-28T13:00:32Z</time>
      </trkpt>
      <trkpt lat="44.46554" lon="5.67995">
        <ele>781.9</ele>
        <time>2022-10-28T13:00:33Z</time>
      </trkpt>
      <trkpt lat="44.46552" lon="5.68005">
        <ele>782.1</ele>
        <time>2022-10-28T13:00:34Z</time>
      </trkpt>
      <trkpt lat="44.46551" lon="5.68015">
        <ele>782.2</ele>
        <time>2022-10-28T13:00:35Z</time>
      </trkpt>
      <trkpt lat="44.46552" lon="5.68024">
        <ele>782.3</ele>
        <time>2022-10-28T13:00:36Z</time>
      </trkpt>
      <trkpt lat="44.46554" lon="5.68033">
        <ele>782.4</ele>
        <time>2022-10-28T13:00:37Z</time>
      </trkpt>
      <trkpt lat="44.46556" lon="5.68042">
        <ele>782.5</ele>
        <time>2022-10-28T13:00:38Z</time>
      </trkpt>
      <trkpt lat="44.46557" lon="5.68051">
        <ele>782.6</ele>
        <time>2022-10-28T13:00:39Z</time>
      </trkpt>
      <trkpt lat="44.46558" lon="5.6806">
        <ele>782.6</ele>
        <time>2022-10-28T13:00:40Z</time>
      </trkpt>
      <trkpt lat="44.46557" lon="5.68068">
        <ele>782.7</ele>
        <time>2022-10-28T13:00:41Z</time>
      </trkpt>
      <trkpt lat="44.46555" lon="5.68077">
        <ele>782.7</ele>
        <time>2022-10-28T13:00:42Z</time>
      </trkpt>
      <trkpt lat="44.46554" lon="5.68086">
        <ele>782.7</ele>
        <time>2022-10-28T13:00:43Z</time>
      </trkpt>
      <trkpt lat="44.46551" lon="5.68094">
        <ele>782.7</ele>
        <time>2022-10-28T13:00:44Z</time>
      </trkpt>
      <trkpt lat="44.4655" lon="5.68102">
        <ele>782.6</ele>
        <time>2022-10-28T13:00:45Z</time>
      </trkpt>
      <trkpt lat="44.46548" lon="5.6811">
        <ele>782.5</ele>
        <time>2022-10-28T13:00:46Z</time>
      </trkpt>
      <trkpt lat="44.46546" lon="5.68118">
        <ele>782.4</ele>
        <time>2022-10-28T13:00:47Z</time>
      </trkpt>
      <trkpt lat="44.46544" lon="5.68126">
        <ele>782.3</ele>
        <time>2022-10-28T13:00:48Z</time>
      </trkpt>
      <trkpt lat="44.46541" lon="5.68134">
        <ele>782.1</ele>
        <time>2022-10-28T13:00:49Z</time>
      </trkpt>
      <trkpt lat="44.46538" lon="5.68143">
        <ele>781.9</ele>
        <time>2022-10-28T13:00:50Z</time>
      </trkpt>
      <trkpt lat="44.46535" lon="5.68152">
        <ele>781.6</ele>
        <time>2022-10-28T13:00:51Z</time>
      </trkpt>
      <trkpt lat="44.46531" lon="5.68161">
        <ele>781.4</ele>
        <time>2022-10-28T13:00:52Z</time>
      </trkpt>
      <trkpt lat="44.46526" lon="5.68167">
        <ele>781.2</ele>
        <time>2022-10-28T13:00:53Z</time>
      </trkpt>
      <trkpt lat="44.4652" lon="5.68173">
        <ele>780.8</ele>
        <time>2022-10-28T13:00:54Z</time>
      </trkpt>
      <trkpt lat="44.46514" lon="5.68179">
        <ele>780.5</ele>
        <time>2022-10-28T13:00:55Z</time>
      </trkpt>
      <trkpt lat="44.46508" lon="5.68186">
        <ele>780.1</ele>
        <time>2022-10-28T13:00:56Z</time>
      </trkpt>
      <trkpt lat="44.46502" lon="5.68193">
        <ele>779.7</ele>
        <time>2022-10-28T13:00:57Z</time>
      </trkpt>
      <trkpt lat="44.46497" lon="5.68201">
        <ele>779.3</ele>
        <time>2022-10-28T13:00:58Z</time>
      </trkpt>
      <trkpt lat="44.46493" lon="5.6821">
        <ele>778.9</ele>
        <time>2022-10-28T13:00:59Z</time>
      </trkpt>
      <trkpt lat="44.4649" lon="5.6822">
        <ele>778.6</ele>
        <time>2022-10-28T13:01:00Z</time>
      </trkpt>
      <trkpt lat="44.46487" lon="5.68231">
        <ele>778.3</ele>
        <time>2022-10-28T13:01:01Z</time>
      </trkpt>
      <trkpt lat="44.46485" lon="5.68242">
        <ele>778.1</ele>
        <time>2022-10-28T13:01:02Z</time>
      </trkpt>
      <trkpt lat="44.46483" lon="5.68253">
        <ele>777.8</ele>
        <time>2022-10-28T13:01:03Z</time>
      </trkpt>
      <trkpt lat="44.46481" lon="5.68264">
        <ele>777.5</ele>
        <time>2022-10-28T13:01:04Z</time>
      </trkpt>
      <trkpt lat="44.46479" lon="5.68276">
        <ele>777.3</ele>
        <time>2022-10-28T13:01:05Z</time>
      </trkpt>
      <trkpt lat="44.46478" lon="5.68288">
        <ele>777</ele>
        <time>2022-10-28T13:01:06Z</time>
      </trkpt>
      <trkpt lat="44.46476" lon="5.68299">
        <ele>776.8</ele>
        <time>2022-10-28T13:01:07Z</time>
      </trkpt>
      <trkpt lat="44.46474" lon="5.6831">
        <ele>776.7</ele>
        <time>2022-10-28T13:01:08Z</time>
      </trkpt>
      <trkpt lat="44.46472" lon="5.68322">
        <ele>776.6</ele>
        <time>2022-10-28T13:01:09Z</time>
      </trkpt>
      <trkpt lat="44.4647" lon="5.68333">
        <ele>776.5</ele>
        <time>2022-10-28T13:01:10Z</time>
      </trkpt>
      <trkpt lat="44.46468" lon="5.68344">
        <ele>776.4</ele>
        <time>2022-10-28T13:01:11Z</time>
      </trkpt>
      <trkpt lat="44.46467" lon="5.68355">
        <ele>776.3</ele>
        <time>2022-10-28T13:01:12Z</time>
      </trkpt>
      <trkpt lat="44.46465" lon="5.68366">
        <ele>776.3</ele>
        <time>2022-10-28T13:01:13Z</time>
      </trkpt>
      <trkpt lat="44.46463" lon="5.68377">
        <ele>776.2</ele>
        <time>2022-10-28T13:01:14Z</time>
      </trkpt>
      <trkpt lat="44.46461" lon="5.68387">
        <ele>776.1</ele>
        <time>2022-10-28T13:01:15Z</time>
      </trkpt>
      <trkpt lat="44.4646" lon="5.68398">
        <ele>775.9</ele>
        <time>2022-10-28T13:01:16Z</time>
      </trkpt>
      <trkpt lat="44.46458" lon="5.68409">
        <ele>775.7</ele>
        <time>2022-10-28T13:01:17Z</time>
      </trkpt>
      <trkpt lat="44.46457" lon="5.68419">
        <ele>775.5</ele>
        <time>2022-10-28T13:01:18Z</time>
      </trkpt>
      <trkpt lat="44.46455" lon="5.68429">
        <ele>775.2</ele>
        <time>2022-10-28T13:01:19Z</time>
      </trkpt>
      <trkpt lat="44.46454" lon="5.6844">
        <ele>774.8</ele>
        <time>2022-10-28T13:01:20Z</time>
      </trkpt>
      <trkpt lat="44.46453" lon="5.6845">
        <ele>774.3</ele>
        <time>2022-10-28T13:01:21Z</time>
      </trkpt>
      <trkpt lat="44.46453" lon="5.68459">
        <ele>773.9</ele>
        <time>2022-10-28T13:01:22Z</time>
      </trkpt>
      <trkpt lat="44.46453" lon="5.68465">
        <ele>773.7</ele>
        <time>2022-10-28T13:01:23Z</time>
      </trkpt>
      <trkpt lat="44.46453" lon="5.68468">
        <ele>773.5</ele>
        <time>2022-10-28T13:01:24Z</time>
      </trkpt>
      <trkpt lat="44.46453" lon="5.6847">
        <ele>773.4</ele>
        <time>2022-10-28T13:01:25Z</time>
      </trkpt>
      <trkpt lat="44.46453" lon="5.6847">
        <ele>773.4</ele>
        <time>2022-10-28T13:01:26Z</time>
      </trkpt>
      <trkpt lat="44.46453" lon="5.68471">
        <ele>773.3</ele>
        <time>2022-10-28T13:01:27Z</time>
      </trkpt>
      <trkpt lat="44.46453" lon="5.68472">
        <ele>773.3</ele>
        <time>2022-10-28T13:01:28Z</time>
      </trkpt>
      <trkpt lat="44.46453" lon="5.68473">
        <ele>773.3</ele>
        <time>2022-10-28T13:01:29Z</time>
      </trkpt>
      <trkpt lat="44.46453" lon="5.68474">
        <ele>773.2</ele>
        <time>2022-10-28T13:01:30Z</time>
      </trkpt>
      <trkpt lat="44.46454" lon="5.68474">
        <ele>773.2</ele>
        <time>2022-10-28T13:01:31Z</time>
      </trkpt>
      <trkpt lat="44.46454" lon="5.68475">
        <ele>773.2</ele>
        <time>2022-10-28T13:01:32Z</time>
      </trkpt>
      <trkpt lat="44.46454" lon="5.68476">
        <ele>773.1</ele>
        <time>2022-10-28T13:01:33Z</time>
      </trkpt>
      <trkpt lat="44.46454" lon="5.68477">
        <ele>773.1</ele>
        <time>2022-10-28T13:01:34Z</time>
      </trkpt>
      <trkpt lat="44.46454" lon="5.68478">
        <ele>773</ele>
        <time>2022-10-28T13:01:35Z</time>
      </trkpt>
      <trkpt lat="44.46454" lon="5.68478">
        <ele>773</ele>
        <time>2022-10-28T13:01:36Z</time>
      </trkpt>
      <trkpt lat="44.46454" lon="5.68479">
        <ele>773</ele>
        <time>2022-10-28T13:01:37Z</time>
      </trkpt>
      <trkpt lat="44.46454" lon="5.6848">
        <ele>772.9</ele>
        <time>2022-10-28T13:01:38Z</time>
      </trkpt>
      <trkpt lat="44.46454" lon="5.68481">
        <ele>772.9</ele>
        <time>2022-10-28T13:01:39Z</time>
      </trkpt>
      <trkpt lat="44.46454" lon="5.68482">
        <ele>772.8</ele>
        <time>2022-10-28T13:01:40Z</time>
      </trkpt>
      <trkpt lat="44.46454" lon="5.68482">
        <ele>772.8</ele>
        <time>2022-10-28T13:01:59Z</time>
      </trkpt>
      <trkpt lat="44.46454" lon="5.68483">
        <ele>772.8</ele>
        <time>2022-10-28T13:02:00Z</time>
      </trkpt>
      <trkpt lat="44.46454" lon="5.68491">
        <ele>772.4</ele>
        <time>2022-10-28T13:02:01Z</time>
      </trkpt>
      <trkpt lat="44.46453" lon="5.68506">
        <ele>771.7</ele>
        <time>2022-10-28T13:02:03Z</time>
      </trkpt>
      <trkpt lat="44.46454" lon="5.68514">
        <ele>771.3</ele>
        <time>2022-10-28T13:02:04Z</time>
      </trkpt>
      <trkpt lat="44.46454" lon="5.68523">
        <ele>771</ele>
        <time>2022-10-28T13:02:05Z</time>
      </trkpt>
      <trkpt lat="44.46453" lon="5.68531">
        <ele>770.6</ele>
        <time>2022-10-28T13:02:06Z</time>
      </trkpt>
      <trkpt lat="44.46452" lon="5.6854">
        <ele>770.1</ele>
        <time>2022-10-28T13:02:07Z</time>
      </trkpt>
      <trkpt lat="44.4645" lon="5.68549">
        <ele>769.7</ele>
        <time>2022-10-28T13:02:08Z</time>
      </trkpt>
      <trkpt lat="44.46448" lon="5.68559">
        <ele>769.3</ele>
        <time>2022-10-28T13:02:09Z</time>
      </trkpt>
      <trkpt lat="44.46446" lon="5.68568">
        <ele>768.9</ele>
        <time>2022-10-28T13:02:10Z</time>
      </trkpt>
      <trkpt lat="44.46444" lon="5.68578">
        <ele>768.5</ele>
        <time>2022-10-28T13:02:11Z</time>
      </trkpt>
      <trkpt lat="44.46442" lon="5.68589">
        <ele>768.1</ele>
        <time>2022-10-28T13:02:12Z</time>
      </trkpt>
      <trkpt lat="44.4644" lon="5.68599">
        <ele>767.7</ele>
        <time>2022-10-28T13:02:13Z</time>
      </trkpt>
      <trkpt lat="44.46438" lon="5.6861">
        <ele>767.3</ele>
        <time>2022-10-28T13:02:14Z</time>
      </trkpt>
      <trkpt lat="44.46437" lon="5.6862">
        <ele>767</ele>
        <time>2022-10-28T13:02:15Z</time>
      </trkpt>
      <trkpt lat="44.46436" lon="5.68631">
        <ele>766.6</ele>
        <time>2022-10-28T13:02:16Z</time>
      </trkpt>
      <trkpt lat="44.46435" lon="5.68642">
        <ele>766.2</ele>
        <time>2022-10-28T13:02:17Z</time>
      </trkpt>
      <trkpt lat="44.46434" lon="5.68654">
        <ele>765.8</ele>
        <time>2022-10-28T13:02:18Z</time>
      </trkpt>
      <trkpt lat="44.46434" lon="5.68665">
        <ele>765.3</ele>
        <time>2022-10-28T13:02:19Z</time>
      </trkpt>
      <trkpt lat="44.46433" lon="5.68677">
        <ele>764.8</ele>
        <time>2022-10-28T13:02:20Z</time>
      </trkpt>
      <trkpt lat="44.46432" lon="5.6869">
        <ele>764.3</ele>
        <time>2022-10-28T13:02:21Z</time>
      </trkpt>
      <trkpt lat="44.4643" lon="5.68702">
        <ele>763.8</ele>
        <time>2022-10-28T13:02:22Z</time>
      </trkpt>
      <trkpt lat="44.46427" lon="5.68714">
        <ele>763.4</ele>
        <time>2022-10-28T13:02:23Z</time>
      </trkpt>
      <trkpt lat="44.46423" lon="5.68727">
        <ele>762.9</ele>
        <time>2022-10-28T13:02:24Z</time>
      </trkpt>
      <trkpt lat="44.46419" lon="5.68738">
        <ele>762.5</ele>
        <time>2022-10-28T13:02:25Z</time>
      </trkpt>
      <trkpt lat="44.46414" lon="5.68749">
        <ele>762.2</ele>
        <time>2022-10-28T13:02:26Z</time>
      </trkpt>
      <trkpt lat="44.46409" lon="5.68759">
        <ele>761.8</ele>
        <time>2022-10-28T13:02:27Z</time>
      </trkpt>
      <trkpt lat="44.46404" lon="5.68769">
        <ele>761.5</ele>
        <time>2022-10-28T13:02:28Z</time>
      </trkpt>
      <trkpt lat="44.46399" lon="5.6878">
        <ele>761.2</ele>
        <time>2022-10-28T13:02:29Z</time>
      </trkpt>
      <trkpt lat="44.46394" lon="5.6879">
        <ele>761</ele>
        <time>2022-10-28T13:02:30Z</time>
      </trkpt>
      <trkpt lat="44.46389" lon="5.688">
        <ele>760.8</ele>
        <time>2022-10-28T13:02:31Z</time>
      </trkpt>
      <trkpt lat="44.46383" lon="5.6881">
        <ele>760.6</ele>
        <time>2022-10-28T13:02:32Z</time>
      </trkpt>
      <trkpt lat="44.46377" lon="5.68819">
        <ele>760.4</ele>
        <time>2022-10-28T13:02:33Z</time>
      </trkpt>
      <trkpt lat="44.46372" lon="5.68829">
        <ele>760.2</ele>
        <time>2022-10-28T13:02:34Z</time>
      </trkpt>
      <trkpt lat="44.46366" lon="5.68839">
        <ele>760</ele>
        <time>2022-10-28T13:02:35Z</time>
      </trkpt>
      <trkpt lat="44.46361" lon="5.68849">
        <ele>759.8</ele>
        <time>2022-10-28T13:02:36Z</time>
      </trkpt>
      <trkpt lat="44.46355" lon="5.68859">
        <ele>759.6</ele>
        <time>2022-10-28T13:02:37Z</time>
      </trkpt>
      <trkpt lat="44.4635" lon="5.68869">
        <ele>759.3</ele>
        <time>2022-10-28T13:02:38Z</time>
      </trkpt>
      <trkpt lat="44.46345" lon="5.68879">
        <ele>759.1</ele>
        <time>2022-10-28T13:02:39Z</time>
      </trkpt>
      <trkpt lat="44.46339" lon="5.6889">
        <ele>758.8</ele>
        <time>2022-10-28T13:02:40Z</time>
      </trkpt>
      <trkpt lat="44.46334" lon="5.689">
        <ele>758.6</ele>
        <time>2022-10-28T13:02:41Z</time>
      </trkpt>
      <trkpt lat="44.46329" lon="5.6891">
        <ele>758.4</ele>
        <time>2022-10-28T13:02:42Z</time>
      </trkpt>
      <trkpt lat="44.46323" lon="5.6892">
        <ele>758.1</ele>
        <time>2022-10-28T13:02:43Z</time>
      </trkpt>
      <trkpt lat="44.46317" lon="5.68929">
        <ele>757.9</ele>
        <time>2022-10-28T13:02:44Z</time>
      </trkpt>
      <trkpt lat="44.46311" lon="5.68937">
        <ele>757.6</ele>
        <time>2022-10-28T13:02:45Z</time>
      </trkpt>
      <trkpt lat="44.46304" lon="5.68946">
        <ele>757.2</ele>
        <time>2022-10-28T13:02:46Z</time>
      </trkpt>
      <trkpt lat="44.46296" lon="5.68954">
        <ele>756.9</ele>
        <time>2022-10-28T13:02:47Z</time>
      </trkpt>
      <trkpt lat="44.46288" lon="5.68962">
        <ele>756.5</ele>
        <time>2022-10-28T13:02:48Z</time>
      </trkpt>
      <trkpt lat="44.4628" lon="5.68968">
        <ele>756.1</ele>
        <time>2022-10-28T13:02:49Z</time>
      </trkpt>
      <trkpt lat="44.46271" lon="5.68974">
        <ele>755.8</ele>
        <time>2022-10-28T13:02:50Z</time>
      </trkpt>
      <trkpt lat="44.46263" lon="5.68981">
        <ele>755.4</ele>
        <time>2022-10-28T13:02:51Z</time>
      </trkpt>
      <trkpt lat="44.46255" lon="5.68987">
        <ele>755.1</ele>
        <time>2022-10-28T13:02:52Z</time>
      </trkpt>
      <trkpt lat="44.46246" lon="5.68994">
        <ele>754.8</ele>
        <time>2022-10-28T13:02:53Z</time>
      </trkpt>
      <trkpt lat="44.46238" lon="5.69">
        <ele>754.4</ele>
        <time>2022-10-28T13:02:54Z</time>
      </trkpt>
      <trkpt lat="44.4623" lon="5.69007">
        <ele>754</ele>
        <time>2022-10-28T13:02:55Z</time>
      </trkpt>
      <trkpt lat="44.46222" lon="5.69013">
        <ele>753.5</ele>
        <time>2022-10-28T13:02:56Z</time>
      </trkpt>
      <trkpt lat="44.46215" lon="5.69021">
        <ele>753.1</ele>
        <time>2022-10-28T13:02:57Z</time>
      </trkpt>
      <trkpt lat="44.46207" lon="5.69029">
        <ele>752.7</ele>
        <time>2022-10-28T13:02:58Z</time>
      </trkpt>
      <trkpt lat="44.46201" lon="5.69038">
        <ele>752.4</ele>
        <time>2022-10-28T13:02:59Z</time>
      </trkpt>
      <trkpt lat="44.46196" lon="5.69048">
        <ele>752.1</ele>
        <time>2022-10-28T13:03:00Z</time>
      </trkpt>
      <trkpt lat="44.46191" lon="5.69059">
        <ele>751.8</ele>
        <time>2022-10-28T13:03:01Z</time>
      </trkpt>
      <trkpt lat="44.46186" lon="5.6907">
        <ele>751.6</ele>
        <time>2022-10-28T13:03:02Z</time>
      </trkpt>
      <trkpt lat="44.46181" lon="5.69081">
        <ele>751.3</ele>
        <time>2022-10-28T13:03:03Z</time>
      </trkpt>
      <trkpt lat="44.46176" lon="5.69092">
        <ele>751</ele>
        <time>2022-10-28T13:03:04Z</time>
      </trkpt>
      <trkpt lat="44.46172" lon="5.69103">
        <ele>750.7</ele>
        <time>2022-10-28T13:03:05Z</time>
      </trkpt>
      <trkpt lat="44.46167" lon="5.69114">
        <ele>750.5</ele>
        <time>2022-10-28T13:03:06Z</time>
      </trkpt>
      <trkpt lat="44.46162" lon="5.69124">
        <ele>750.3</ele>
        <time>2022-10-28T13:03:07Z</time>
      </trkpt>
      <trkpt lat="44.46157" lon="5.69135">
        <ele>750.1</ele>
        <time>2022-10-28T13:03:08Z</time>
      </trkpt>
      <trkpt lat="44.46152" lon="5.69146">
        <ele>749.9</ele>
        <time>2022-10-28T13:03:09Z</time>
      </trkpt>
      <trkpt lat="44.46147" lon="5.69156">
        <ele>749.8</ele>
        <time>2022-10-28T13:03:10Z</time>
      </trkpt>
      <trkpt lat="44.46143" lon="5.69167">
        <ele>749.7</ele>
        <time>2022-10-28T13:03:11Z</time>
      </trkpt>
      <trkpt lat="44.46138" lon="5.69177">
        <ele>749.5</ele>
        <time>2022-10-28T13:03:12Z</time>
      </trkpt>
      <trkpt lat="44.46134" lon="5.69187">
        <ele>749.4</ele>
        <time>2022-10-28T13:03:13Z</time>
      </trkpt>
      <trkpt lat="44.4613" lon="5.69197">
        <ele>749.2</ele>
        <time>2022-10-28T13:03:14Z</time>
      </trkpt>
      <trkpt lat="44.46126" lon="5.69207">
        <ele>749.1</ele>
        <time>2022-10-28T13:03:15Z</time>
      </trkpt>
      <trkpt lat="44.46121" lon="5.69217">
        <ele>748.9</ele>
        <time>2022-10-28T13:03:16Z</time>
      </trkpt>
      <trkpt lat="44.46117" lon="5.69227">
        <ele>748.7</ele>
        <time>2022-10-28T13:03:17Z</time>
      </trkpt>
      <trkpt lat="44.46112" lon="5.69236">
        <ele>748.4</ele>
        <time>2022-10-28T13:03:18Z</time>
      </trkpt>
      <trkpt lat="44.46108" lon="5.69246">
        <ele>748.3</ele>
        <time>2022-10-28T13:03:19Z</time>
      </trkpt>
      <trkpt lat="44.46103" lon="5.69255">
        <ele>748.1</ele>
        <time>2022-10-28T13:03:20Z</time>
      </trkpt>
      <trkpt lat="44.46099" lon="5.69263">
        <ele>748</ele>
        <time>2022-10-28T13:03:21Z</time>
      </trkpt>
      <trkpt lat="44.46095" lon="5.69269">
        <ele>747.9</ele>
        <time>2022-10-28T13:03:22Z</time>
      </trkpt>
      <trkpt lat="44.46093" lon="5.69272">
        <ele>747.8</ele>
        <time>2022-10-28T13:03:23Z</time>
      </trkpt>
      <trkpt lat="44.46092" lon="5.69273">
        <ele>747.8</ele>
        <time>2022-10-28T13:03:24Z</time>
      </trkpt>
      <trkpt lat="44.46092" lon="5.69273">
        <ele>747.8</ele>
        <time>2022-10-28T13:03:25Z</time>
      </trkpt>
      <trkpt lat="44.46092" lon="5.69273">
        <ele>747.8</ele>
        <time>2022-10-28T13:03:26Z</time>
      </trkpt>
      <trkpt lat="44.46091" lon="5.69274">
        <ele>747.7</ele>
        <time>2022-10-28T13:03:27Z</time>
      </trkpt>
      <trkpt lat="44.46091" lon="5.69274">
        <ele>747.7</ele>
        <time>2022-10-28T13:03:28Z</time>
      </trkpt>
      <trkpt lat="44.46091" lon="5.69275">
        <ele>747.7</ele>
        <time>2022-10-28T13:03:29Z</time>
      </trkpt>
      <trkpt lat="44.46091" lon="5.69275">
        <ele>747.7</ele>
        <time>2022-10-28T13:03:30Z</time>
      </trkpt>
      <trkpt lat="44.46091" lon="5.69275">
        <ele>747.7</ele>
        <time>2022-10-28T13:03:31Z</time>
      </trkpt>
      <trkpt lat="44.4609" lon="5.69276">
        <ele>747.7</ele>
        <time>2022-10-28T13:03:32Z</time>
      </trkpt>
      <trkpt lat="44.4609" lon="5.69276">
        <ele>747.7</ele>
        <time>2022-10-28T13:03:33Z</time>
      </trkpt>
      <trkpt lat="44.4609" lon="5.69277">
        <ele>747.7</ele>
        <time>2022-10-28T13:03:34Z</time>
      </trkpt>
      <trkpt lat="44.4609" lon="5.69277">
        <ele>747.7</ele>
        <time>2022-10-28T13:03:35Z</time>
      </trkpt>
      <trkpt lat="44.4609" lon="5.69277">
        <ele>747.7</ele>
        <time>2022-10-28T13:03:36Z</time>
      </trkpt>
      <trkpt lat="44.46089" lon="5.69278">
        <ele>747.7</ele>
        <time>2022-10-28T13:03:37Z</time>
      </trkpt>
      <trkpt lat="44.46089" lon="5.69278">
        <ele>747.7</ele>
        <time>2022-10-28T13:03:38Z</time>
      </trkpt>
      <trkpt lat="44.46089" lon="5.69279">
        <ele>747.7</ele>
        <time>2022-10-28T13:03:39Z</time>
      </trkpt>
      <trkpt lat="44.46089" lon="5.69279">
        <ele>747.7</ele>
        <time>2022-10-28T13:03:40Z</time>
      </trkpt>
      <trkpt lat="44.46089" lon="5.69279">
        <ele>747.6</ele>
        <time>2022-10-28T13:04:09Z</time>
      </trkpt>
      <trkpt lat="44.46088" lon="5.6928">
        <ele>747.6</ele>
        <time>2022-10-28T13:04:10Z</time>
      </trkpt>
      <trkpt lat="44.46088" lon="5.6928">
        <ele>747.6</ele>
        <time>2022-10-28T13:04:11Z</time>
      </trkpt>
      <trkpt lat="44.46085" lon="5.69283">
        <ele>747.6</ele>
        <time>2022-10-28T13:04:12Z</time>
      </trkpt>
      <trkpt lat="44.46084" lon="5.69284">
        <ele>747.5</ele>
        <time>2022-10-28T13:04:13Z</time>
      </trkpt>
      <trkpt lat="44.46082" lon="5.69286">
        <ele>747.5</ele>
        <time>2022-10-28T13:04:14Z</time>
      </trkpt>
      <trkpt lat="44.46079" lon="5.69288">
        <ele>747.4</ele>
        <time>2022-10-28T13:04:15Z</time>
      </trkpt>
      <trkpt lat="44.46076" lon="5.69291">
        <ele>747.3</ele>
        <time>2022-10-28T13:04:16Z</time>
      </trkpt>
      <trkpt lat="44.46073" lon="5.69293">
        <ele>747.3</ele>
        <time>2022-10-28T13:04:17Z</time>
      </trkpt>
      <trkpt lat="44.4607" lon="5.69294">
        <ele>747.2</ele>
        <time>2022-10-28T13:04:18Z</time>
      </trkpt>
      <trkpt lat="44.46066" lon="5.69296">
        <ele>747.1</ele>
        <time>2022-10-28T13:04:19Z</time>
      </trkpt>
      <trkpt lat="44.46061" lon="5.69298">
        <ele>747.1</ele>
        <time>2022-10-28T13:04:20Z</time>
      </trkpt>
      <trkpt lat="44.46057" lon="5.69301">
        <ele>747</ele>
        <time>2022-10-28T13:04:21Z</time>
      </trkpt>
      <trkpt lat="44.46054" lon="5.69305">
        <ele>746.9</ele>
        <time>2022-10-28T13:04:22Z</time>
      </trkpt>
      <trkpt lat="44.4605" lon="5.69309">
        <ele>746.8</ele>
        <time>2022-10-28T13:04:23Z</time>
      </trkpt>
      <trkpt lat="44.46045" lon="5.69312">
        <ele>746.7</ele>
        <time>2022-10-28T13:04:24Z</time>
      </trkpt>
      <trkpt lat="44.46041" lon="5.69316">
        <ele>746.7</ele>
        <time>2022-10-28T13:04:25Z</time>
      </trkpt>
      <trkpt lat="44.46038" lon="5.6932">
        <ele>746.6</ele>
        <time>2022-10-28T13:04:26Z</time>
      </trkpt>
      <trkpt lat="44.46034" lon="5.69324">
        <ele>746.5</ele>
        <time>2022-10-28T13:04:27Z</time>
      </trkpt>
      <trkpt lat="44.4603" lon="5.69329">
        <ele>746.5</ele>
        <time>2022-10-28T13:04:28Z</time>
      </trkpt>
      <trkpt lat="44.46027" lon="5.69334">
        <ele>746.4</ele>
        <time>2022-10-28T13:04:29Z</time>
      </trkpt>
      <trkpt lat="44.46023" lon="5.6934">
        <ele>746.3</ele>
        <time>2022-10-28T13:04:30Z</time>
      </trkpt>
      <trkpt lat="44.4602" lon="5.69346">
        <ele>746.2</ele>
        <time>2022-10-28T13:04:31Z</time>
      </trkpt>
      <trkpt lat="44.46016" lon="5.69352">
        <ele>746.2</ele>
        <time>2022-10-28T13:04:32Z</time>
      </trkpt>
      <trkpt lat="44.46013" lon="5.69359">
        <ele>746.1</ele>
        <time>2022-10-28T13:04:33Z</time>
      </trkpt>
      <trkpt lat="44.4601" lon="5.69366">
        <ele>746</ele>
        <time>2022-10-28T13:04:34Z</time>
      </trkpt>
      <trkpt lat="44.46007" lon="5.69373">
        <ele>746</ele>
        <time>2022-10-28T13:04:35Z</time>
      </trkpt>
      <trkpt lat="44.46004" lon="5.69381">
        <ele>745.9</ele>
        <time>2022-10-28T13:04:36Z</time>
      </trkpt>
      <trkpt lat="44.46" lon="5.69387">
        <ele>745.9</ele>
        <time>2022-10-28T13:04:37Z</time>
      </trkpt>
      <trkpt lat="44.45997" lon="5.69394">
        <ele>746</ele>
        <time>2022-10-28T13:04:38Z</time>
      </trkpt>
      <trkpt lat="44.45993" lon="5.69401">
        <ele>746</ele>
        <time>2022-10-28T13:04:39Z</time>
      </trkpt>
      <trkpt lat="44.45989" lon="5.69409">
        <ele>746.1</ele>
        <time>2022-10-28T13:04:40Z</time>
      </trkpt>
      <trkpt lat="44.45985" lon="5.69415">
        <ele>746.2</ele>
        <time>2022-10-28T13:04:41Z</time>
      </trkpt>
      <trkpt lat="44.45982" lon="5.69422">
        <ele>746.3</ele>
        <time>2022-10-28T13:04:42Z</time>
      </trkpt>
      <trkpt lat="44.45977" lon="5.69426">
        <ele>746.4</ele>
        <time>2022-10-28T13:04:43Z</time>
      </trkpt>
      <trkpt lat="44.45972" lon="5.69427">
        <ele>746.5</ele>
        <time>2022-10-28T13:04:44Z</time>
      </trkpt>
      <trkpt lat="44.45967" lon="5.69423">
        <ele>746.3</ele>
        <time>2022-10-28T13:04:45Z</time>
      </trkpt>
      <trkpt lat="44.45963" lon="5.69418">
        <ele>746.2</ele>
        <time>2022-10-28T13:04:46Z</time>
      </trkpt>
      <trkpt lat="44.45958" lon="5.69415">
        <ele>746</ele>
        <time>2022-10-28T13:04:47Z</time>
      </trkpt>
      <trkpt lat="44.45953" lon="5.69413">
        <ele>745.8</ele>
        <time>2022-10-28T13:04:48Z</time>
      </trkpt>
      <trkpt lat="44.45947" lon="5.69413">
        <ele>745.6</ele>
        <time>2022-10-28T13:04:49Z</time>
      </trkpt>
      <trkpt lat="44.45941" lon="5.69414">
        <ele>745.3</ele>
        <time>2022-10-28T13:04:50Z</time>
      </trkpt>
      <trkpt lat="44.45935" lon="5.69415">
        <ele>745.1</ele>
        <time>2022-10-28T13:04:51Z</time>
      </trkpt>
      <trkpt lat="44.45928" lon="5.69417">
        <ele>744.8</ele>
        <time>2022-10-28T13:04:52Z</time>
      </trkpt>
      <trkpt lat="44.45922" lon="5.69419">
        <ele>744.6</ele>
        <time>2022-10-28T13:04:53Z</time>
      </trkpt>
      <trkpt lat="44.45915" lon="5.6942">
        <ele>744.4</ele>
        <time>2022-10-28T13:04:54Z</time>
      </trkpt>
      <trkpt lat="44.45908" lon="5.6942">
        <ele>744.2</ele>
        <time>2022-10-28T13:04:55Z</time>
      </trkpt>
      <trkpt lat="44.45902" lon="5.6942">
        <ele>744</ele>
        <time>2022-10-28T13:04:56Z</time>
      </trkpt>
      <trkpt lat="44.45895" lon="5.69419">
        <ele>743.9</ele>
        <time>2022-10-28T13:04:57Z</time>
      </trkpt>
      <trkpt lat="44.45888" lon="5.69419">
        <ele>743.7</ele>
        <time>2022-10-28T13:04:58Z</time>
      </trkpt>
      <trkpt lat="44.45881" lon="5.69418">
        <ele>743.5</ele>
        <time>2022-10-28T13:04:59Z</time>
      </trkpt>
      <trkpt lat="44.45874" lon="5.69416">
        <ele>743.4</ele>
        <time>2022-10-28T13:05:00Z</time>
      </trkpt>
      <trkpt lat="44.45867" lon="5.69415">
        <ele>743.2</ele>
        <time>2022-10-28T13:05:01Z</time>
      </trkpt>
      <trkpt lat="44.4586" lon="5.69414">
        <ele>743.1</ele>
        <time>2022-10-28T13:05:02Z</time>
      </trkpt>
      <trkpt lat="44.45853" lon="5.69411">
        <ele>743</ele>
        <time>2022-10-28T13:05:03Z</time>
      </trkpt>
      <trkpt lat="44.45846" lon="5.69408">
        <ele>742.9</ele>
        <time>2022-10-28T13:05:04Z</time>
      </trkpt>
      <trkpt lat="44.45839" lon="5.69405">
        <ele>742.9</ele>
        <time>2022-10-28T13:05:05Z</time>
      </trkpt>
      <trkpt lat="44.45833" lon="5.69402">
        <ele>742.8</ele>
        <time>2022-10-28T13:05:06Z</time>
      </trkpt>
      <trkpt lat="44.45827" lon="5.69398">
        <ele>742.8</ele>
        <time>2022-10-28T13:05:07Z</time>
      </trkpt>
      <trkpt lat="44.4582" lon="5.69395">
        <ele>742.7</ele>
        <time>2022-10-28T13:05:08Z</time>
      </trkpt>
      <trkpt lat="44.45814" lon="5.69392">
        <ele>742.6</ele>
        <time>2022-10-28T13:05:09Z</time>
      </trkpt>
      <trkpt lat="44.45808" lon="5.69391">
        <ele>742.5</ele>
        <time>2022-10-28T13:05:10Z</time>
      </trkpt>
      <trkpt lat="44.45801" lon="5.6939">
        <ele>742.4</ele>
        <time>2022-10-28T13:05:11Z</time>
      </trkpt>
      <trkpt lat="44.45795" lon="5.69392">
        <ele>742.1</ele>
        <time>2022-10-28T13:05:12Z</time>
      </trkpt>
      <trkpt lat="44.45789" lon="5.69396">
        <ele>741.9</ele>
        <time>2022-10-28T13:05:13Z</time>
      </trkpt>
      <trkpt lat="44.45783" lon="5.69402">
        <ele>741.6</ele>
        <time>2022-10-28T13:05:14Z</time>
      </trkpt>
      <trkpt lat="44.45778" lon="5.69409">
        <ele>741.3</ele>
        <time>2022-10-28T13:05:15Z</time>
      </trkpt>
      <trkpt lat="44.45773" lon="5.69418">
        <ele>741.1</ele>
        <time>2022-10-28T13:05:16Z</time>
      </trkpt>
      <trkpt lat="44.45768" lon="5.69426">
        <ele>740.8</ele>
        <time>2022-10-28T13:05:17Z</time>
      </trkpt>
      <trkpt lat="44.45763" lon="5.69434">
        <ele>740.6</ele>
        <time>2022-10-28T13:05:18Z</time>
      </trkpt>
      <trkpt lat="44.45757" lon="5.69442">
        <ele>740.4</ele>
        <time>2022-10-28T13:05:19Z</time>
      </trkpt>
      <trkpt lat="44.4575" lon="5.69449">
        <ele>740.2</ele>
        <time>2022-10-28T13:05:20Z</time>
      </trkpt>
      <trkpt lat="44.45742" lon="5.69452">
        <ele>740</ele>
        <time>2022-10-28T13:05:21Z</time>
      </trkpt>
      <trkpt lat="44.45734" lon="5.69452">
        <ele>739.8</ele>
        <time>2022-10-28T13:05:22Z</time>
      </trkpt>
      <trkpt lat="44.45727" lon="5.69448">
        <ele>739.5</ele>
        <time>2022-10-28T13:05:23Z</time>
      </trkpt>
      <trkpt lat="44.4572" lon="5.69441">
        <ele>739.1</ele>
        <time>2022-10-28T13:05:24Z</time>
      </trkpt>
      <trkpt lat="44.45715" lon="5.69433">
        <ele>738.7</ele>
        <time>2022-10-28T13:05:25Z</time>
      </trkpt>
      <trkpt lat="44.4571" lon="5.69423">
        <ele>738.3</ele>
        <time>2022-10-28T13:05:26Z</time>
      </trkpt>
      <trkpt lat="44.45707" lon="5.69412">
        <ele>737.9</ele>
        <time>2022-10-28T13:05:27Z</time>
      </trkpt>
      <trkpt lat="44.45703" lon="5.69402">
        <ele>737.4</ele>
        <time>2022-10-28T13:05:28Z</time>
      </trkpt>
      <trkpt lat="44.45699" lon="5.69392">
        <ele>737</ele>
        <time>2022-10-28T13:05:29Z</time>
      </trkpt>
      <trkpt lat="44.45693" lon="5.69384">
        <ele>736.6</ele>
        <time>2022-10-28T13:05:30Z</time>
      </trkpt>
      <trkpt lat="44.45686" lon="5.69377">
        <ele>736.2</ele>
        <time>2022-10-28T13:05:31Z</time>
      </trkpt>
      <trkpt lat="44.45679" lon="5.69373">
        <ele>735.8</ele>
        <time>2022-10-28T13:05:32Z</time>
      </trkpt>
      <trkpt lat="44.45671" lon="5.6937">
        <ele>735.3</ele>
        <time>2022-10-28T13:05:33Z</time>
      </trkpt>
      <trkpt lat="44.45663" lon="5.69369">
        <ele>734.8</ele>
        <time>2022-10-28T13:05:34Z</time>
      </trkpt>
      <trkpt lat="44.45655" lon="5.69368">
        <ele>734.2</ele>
        <time>2022-10-28T13:05:35Z</time>
      </trkpt>
      <trkpt lat="44.45646" lon="5.69368">
        <ele>733.6</ele>
        <time>2022-10-28T13:05:36Z</time>
      </trkpt>
      <trkpt lat="44.45638" lon="5.69366">
        <ele>732.9</ele>
        <time>2022-10-28T13:05:37Z</time>
      </trkpt>
      <trkpt lat="44.4563" lon="5.6936">
        <ele>732.1</ele>
        <time>2022-10-28T13:05:38Z</time>
      </trkpt>
      <trkpt lat="44.45623" lon="5.69352">
        <ele>731.3</ele>
        <time>2022-10-28T13:05:39Z</time>
      </trkpt>
      <trkpt lat="44.45616" lon="5.69342">
        <ele>730.4</ele>
        <time>2022-10-28T13:05:40Z</time>
      </trkpt>
      <trkpt lat="44.45609" lon="5.69333">
        <ele>729.5</ele>
        <time>2022-10-28T13:05:41Z</time>
      </trkpt>
      <trkpt lat="44.45601" lon="5.69326">
        <ele>728.7</ele>
        <time>2022-10-28T13:05:42Z</time>
      </trkpt>
      <trkpt lat="44.45592" lon="5.69322">
        <ele>727.9</ele>
        <time>2022-10-28T13:05:43Z</time>
      </trkpt>
      <trkpt lat="44.45582" lon="5.69319">
        <ele>727.2</ele>
        <time>2022-10-28T13:05:44Z</time>
      </trkpt>
      <trkpt lat="44.45573" lon="5.69319">
        <ele>726.5</ele>
        <time>2022-10-28T13:05:45Z</time>
      </trkpt>
      <trkpt lat="44.45562" lon="5.6932">
        <ele>725.8</ele>
        <time>2022-10-28T13:05:46Z</time>
      </trkpt>
      <trkpt lat="44.45551" lon="5.69322">
        <ele>725.3</ele>
        <time>2022-10-28T13:05:47Z</time>
      </trkpt>
      <trkpt lat="44.45541" lon="5.69324">
        <ele>724.9</ele>
        <time>2022-10-28T13:05:48Z</time>
      </trkpt>
      <trkpt lat="44.4553" lon="5.69326">
        <ele>724.6</ele>
        <time>2022-10-28T13:05:49Z</time>
      </trkpt>
      <trkpt lat="44.45519" lon="5.69328">
        <ele>724.3</ele>
        <time>2022-10-28T13:05:50Z</time>
      </trkpt>
      <trkpt lat="44.45509" lon="5.69329">
        <ele>724.1</ele>
        <time>2022-10-28T13:05:51Z</time>
      </trkpt>
      <trkpt lat="44.45499" lon="5.69332">
        <ele>724</ele>
        <time>2022-10-28T13:05:52Z</time>
      </trkpt>
      <trkpt lat="44.45491" lon="5.69334">
        <ele>724</ele>
        <time>2022-10-28T13:05:53Z</time>
      </trkpt>
      <trkpt lat="44.45484" lon="5.69336">
        <ele>724</ele>
        <time>2022-10-28T13:05:54Z</time>
      </trkpt>
      <trkpt lat="44.45476" lon="5.69337">
        <ele>723.9</ele>
        <time>2022-10-28T13:05:55Z</time>
      </trkpt>
      <trkpt lat="44.45468" lon="5.69336">
        <ele>723.8</ele>
        <time>2022-10-28T13:05:56Z</time>
      </trkpt>
      <trkpt lat="44.4546" lon="5.69336">
        <ele>723.7</ele>
        <time>2022-10-28T13:05:57Z</time>
      </trkpt>
      <trkpt lat="44.45453" lon="5.69335">
        <ele>723.6</ele>
        <time>2022-10-28T13:05:58Z</time>
      </trkpt>
      <trkpt lat="44.45445" lon="5.69334">
        <ele>723.5</ele>
        <time>2022-10-28T13:05:59Z</time>
      </trkpt>
      <trkpt lat="44.45438" lon="5.69332">
        <ele>723.3</ele>
        <time>2022-10-28T13:06:00Z</time>
      </trkpt>
      <trkpt lat="44.45431" lon="5.69331">
        <ele>723.2</ele>
        <time>2022-10-28T13:06:01Z</time>
      </trkpt>
      <trkpt lat="44.45424" lon="5.6933">
        <ele>723</ele>
        <time>2022-10-28T13:06:02Z</time>
      </trkpt>
      <trkpt lat="44.45416" lon="5.69328">
        <ele>722.9</ele>
        <time>2022-10-28T13:06:03Z</time>
      </trkpt>
      <trkpt lat="44.45408" lon="5.69326">
        <ele>722.7</ele>
        <time>2022-10-28T13:06:04Z</time>
      </trkpt>
      <trkpt lat="44.454" lon="5.69325">
        <ele>722.5</ele>
        <time>2022-10-28T13:06:05Z</time>
      </trkpt>
      <trkpt lat="44.45392" lon="5.69324">
        <ele>722.3</ele>
        <time>2022-10-28T13:06:06Z</time>
      </trkpt>
      <trkpt lat="44.45384" lon="5.69324">
        <ele>722.2</ele>
        <time>2022-10-28T13:06:07Z</time>
      </trkpt>
      <trkpt lat="44.45376" lon="5.69323">
        <ele>722.1</ele>
        <time>2022-10-28T13:06:08Z</time>
      </trkpt>
      <trkpt lat="44.45367" lon="5.69322">
        <ele>722</ele>
        <time>2022-10-28T13:06:09Z</time>
      </trkpt>
      <trkpt lat="44.45359" lon="5.69321">
        <ele>722</ele>
        <time>2022-10-28T13:06:10Z</time>
      </trkpt>
      <trkpt lat="44.45351" lon="5.6932">
        <ele>721.9</ele>
        <time>2022-10-28T13:06:11Z</time>
      </trkpt>
      <trkpt lat="44.45344" lon="5.6932">
        <ele>721.9</ele>
        <time>2022-10-28T13:06:12Z</time>
      </trkpt>
      <trkpt lat="44.45336" lon="5.69319">
        <ele>721.8</ele>
        <time>2022-10-28T13:06:13Z</time>
      </trkpt>
      <trkpt lat="44.45329" lon="5.6932">
        <ele>721.7</ele>
        <time>2022-10-28T13:06:14Z</time>
      </trkpt>
      <trkpt lat="44.45321" lon="5.6932">
        <ele>721.7</ele>
        <time>2022-10-28T13:06:15Z</time>
      </trkpt>
      <trkpt lat="44.45313" lon="5.69321">
        <ele>721.6</ele>
        <time>2022-10-28T13:06:16Z</time>
      </trkpt>
      <trkpt lat="44.45306" lon="5.69324">
        <ele>721.5</ele>
        <time>2022-10-28T13:06:17Z</time>
      </trkpt>
      <trkpt lat="44.45299" lon="5.69327">
        <ele>721.4</ele>
        <time>2022-10-28T13:06:18Z</time>
      </trkpt>
      <trkpt lat="44.45292" lon="5.69332">
        <ele>721.4</ele>
        <time>2022-10-28T13:06:19Z</time>
      </trkpt>
      <trkpt lat="44.45286" lon="5.69337">
        <ele>721.3</ele>
        <time>2022-10-28T13:06:20Z</time>
      </trkpt>
      <trkpt lat="44.4528" lon="5.69344">
        <ele>721.3</ele>
        <time>2022-10-28T13:06:21Z</time>
      </trkpt>
      <trkpt lat="44.45275" lon="5.69351">
        <ele>721.2</ele>
        <time>2022-10-28T13:06:22Z</time>
      </trkpt>
      <trkpt lat="44.45269" lon="5.69358">
        <ele>721.2</ele>
        <time>2022-10-28T13:06:23Z</time>
      </trkpt>
      <trkpt lat="44.45264" lon="5.69365">
        <ele>721.1</ele>
        <time>2022-10-28T13:06:24Z</time>
      </trkpt>
      <trkpt lat="44.45259" lon="5.69373">
        <ele>721</ele>
        <time>2022-10-28T13:06:25Z</time>
      </trkpt>
      <trkpt lat="44.45254" lon="5.6938">
        <ele>721</ele>
        <time>2022-10-28T13:06:26Z</time>
      </trkpt>
      <trkpt lat="44.45248" lon="5.69386">
        <ele>720.9</ele>
        <time>2022-10-28T13:06:27Z</time>
      </trkpt>
      <trkpt lat="44.45242" lon="5.69391">
        <ele>720.8</ele>
        <time>2022-10-28T13:06:28Z</time>
      </trkpt>
      <trkpt lat="44.45236" lon="5.69397">
        <ele>720.7</ele>
        <time>2022-10-28T13:06:29Z</time>
      </trkpt>
      <trkpt lat="44.4523" lon="5.69402">
        <ele>720.5</ele>
        <time>2022-10-28T13:06:30Z</time>
      </trkpt>
      <trkpt lat="44.45224" lon="5.69406">
        <ele>720.4</ele>
        <time>2022-10-28T13:06:31Z</time>
      </trkpt>
      <trkpt lat="44.45217" lon="5.6941">
        <ele>720.2</ele>
        <time>2022-10-28T13:06:32Z</time>
      </trkpt>
      <trkpt lat="44.4521" lon="5.69413">
        <ele>720</ele>
        <time>2022-10-28T13:06:33Z</time>
      </trkpt>
      <trkpt lat="44.45204" lon="5.69415">
        <ele>719.9</ele>
        <time>2022-10-28T13:06:34Z</time>
      </trkpt>
      <trkpt lat="44.45198" lon="5.69418">
        <ele>719.8</ele>
        <time>2022-10-28T13:06:35Z</time>
      </trkpt>
      <trkpt lat="44.45192" lon="5.69421">
        <ele>719.7</ele>
        <time>2022-10-28T13:06:36Z</time>
      </trkpt>
      <trkpt lat="44.45185" lon="5.69425">
        <ele>719.5</ele>
        <time>2022-10-28T13:06:37Z</time>
      </trkpt>
      <trkpt lat="44.45178" lon="5.69428">
        <ele>719.4</ele>
        <time>2022-10-28T13:06:38Z</time>
      </trkpt>
      <trkpt lat="44.45172" lon="5.69432">
        <ele>719.4</ele>
        <time>2022-10-28T13:06:39Z</time>
      </trkpt>
      <trkpt lat="44.45165" lon="5.69435">
        <ele>719.3</ele>
        <time>2022-10-28T13:06:40Z</time>
      </trkpt>
      <trkpt lat="44.45159" lon="5.69438">
        <ele>719.2</ele>
        <time>2022-10-28T13:06:41Z</time>
      </trkpt>
      <trkpt lat="44.45153" lon="5.69441">
        <ele>719.1</ele>
        <time>2022-10-28T13:06:42Z</time>
      </trkpt>
      <trkpt lat="44.45146" lon="5.69444">
        <ele>719.1</ele>
        <time>2022-10-28T13:06:43Z</time>
      </trkpt>
      <trkpt lat="44.4514" lon="5.69448">
        <ele>719</ele>
        <time>2022-10-28T13:06:44Z</time>
      </trkpt>
      <trkpt lat="44.45133" lon="5.69452">
        <ele>718.9</ele>
        <time>2022-10-28T13:06:45Z</time>
      </trkpt>
      <trkpt lat="44.45127" lon="5.69457">
        <ele>718.7</ele>
        <time>2022-10-28T13:06:46Z</time>
      </trkpt>
      <trkpt lat="44.45122" lon="5.69461">
        <ele>718.5</ele>
        <time>2022-10-28T13:06:47Z</time>
      </trkpt>
      <trkpt lat="44.45115" lon="5.69466">
        <ele>718.3</ele>
        <time>2022-10-28T13:06:48Z</time>
      </trkpt>
      <trkpt lat="44.45109" lon="5.69472">
        <ele>718.1</ele>
        <time>2022-10-28T13:06:49Z</time>
      </trkpt>
      <trkpt lat="44.45103" lon="5.69478">
        <ele>717.8</ele>
        <time>2022-10-28T13:06:50Z</time>
      </trkpt>
      <trkpt lat="44.45098" lon="5.69486">
        <ele>717.6</ele>
        <time>2022-10-28T13:06:51Z</time>
      </trkpt>
      <trkpt lat="44.45093" lon="5.69494">
        <ele>717.3</ele>
        <time>2022-10-28T13:06:52Z</time>
      </trkpt>
      <trkpt lat="44.45087" lon="5.69501">
        <ele>717</ele>
        <time>2022-10-28T13:06:53Z</time>
      </trkpt>
      <trkpt lat="44.45081" lon="5.69508">
        <ele>716.7</ele>
        <time>2022-10-28T13:06:54Z</time>
      </trkpt>
      <trkpt lat="44.45074" lon="5.69514">
        <ele>716.4</ele>
        <time>2022-10-28T13:06:55Z</time>
      </trkpt>
      <trkpt lat="44.45068" lon="5.6952">
        <ele>716.2</ele>
        <time>2022-10-28T13:06:56Z</time>
      </trkpt>
      <trkpt lat="44.45061" lon="5.69525">
        <ele>715.9</ele>
        <time>2022-10-28T13:06:57Z</time>
      </trkpt>
      <trkpt lat="44.45054" lon="5.6953">
        <ele>715.6</ele>
        <time>2022-10-28T13:06:58Z</time>
      </trkpt>
      <trkpt lat="44.45047" lon="5.69534">
        <ele>715.4</ele>
        <time>2022-10-28T13:06:59Z</time>
      </trkpt>
      <trkpt lat="44.4504" lon="5.69539">
        <ele>715.1</ele>
        <time>2022-10-28T13:07:00Z</time>
      </trkpt>
      <trkpt lat="44.45034" lon="5.69544">
        <ele>714.8</ele>
        <time>2022-10-28T13:07:01Z</time>
      </trkpt>
      <trkpt lat="44.45027" lon="5.69549">
        <ele>714.6</ele>
        <time>2022-10-28T13:07:02Z</time>
      </trkpt>
      <trkpt lat="44.4502" lon="5.69555">
        <ele>714.3</ele>
        <time>2022-10-28T13:07:03Z</time>
      </trkpt>
      <trkpt lat="44.45013" lon="5.6956">
        <ele>714</ele>
        <time>2022-10-28T13:07:04Z</time>
      </trkpt>
      <trkpt lat="44.45005" lon="5.69564">
        <ele>713.8</ele>
        <time>2022-10-28T13:07:05Z</time>
      </trkpt>
      <trkpt lat="44.44999" lon="5.6957">
        <ele>713.5</ele>
        <time>2022-10-28T13:07:06Z</time>
      </trkpt>
      <trkpt lat="44.44991" lon="5.69575">
        <ele>713.3</ele>
        <time>2022-10-28T13:07:07Z</time>
      </trkpt>
      <trkpt lat="44.44985" lon="5.69582">
        <ele>713.1</ele>
        <time>2022-10-28T13:07:08Z</time>
      </trkpt>
      <trkpt lat="44.44978" lon="5.69588">
        <ele>713</ele>
        <time>2022-10-28T13:07:09Z</time>
      </trkpt>
      <trkpt lat="44.44972" lon="5.69594">
        <ele>712.8</ele>
        <time>2022-10-28T13:07:10Z</time>
      </trkpt>
      <trkpt lat="44.44965" lon="5.69599">
        <ele>712.7</ele>
        <time>2022-10-28T13:07:11Z</time>
      </trkpt>
      <trkpt lat="44.44959" lon="5.69606">
        <ele>712.6</ele>
        <time>2022-10-28T13:07:12Z</time>
      </trkpt>
      <trkpt lat="44.44953" lon="5.69612">
        <ele>712.5</ele>
        <time>2022-10-28T13:07:13Z</time>
      </trkpt>
      <trkpt lat="44.44948" lon="5.69619">
        <ele>712.4</ele>
        <time>2022-10-28T13:07:14Z</time>
      </trkpt>
      <trkpt lat="44.44942" lon="5.69626">
        <ele>712.3</ele>
        <time>2022-10-28T13:07:15Z</time>
      </trkpt>
      <trkpt lat="44.44938" lon="5.69635">
        <ele>712.2</ele>
        <time>2022-10-28T13:07:16Z</time>
      </trkpt>
      <trkpt lat="44.44933" lon="5.69643">
        <ele>712.1</ele>
        <time>2022-10-28T13:07:17Z</time>
      </trkpt>
      <trkpt lat="44.44928" lon="5.69652">
        <ele>712</ele>
        <time>2022-10-28T13:07:18Z</time>
      </trkpt>
      <trkpt lat="44.44924" lon="5.6966">
        <ele>711.9</ele>
        <time>2022-10-28T13:07:19Z</time>
      </trkpt>
      <trkpt lat="44.4492" lon="5.69667">
        <ele>711.8</ele>
        <time>2022-10-28T13:07:20Z</time>
      </trkpt>
      <trkpt lat="44.44916" lon="5.69675">
        <ele>711.7</ele>
        <time>2022-10-28T13:07:21Z</time>
      </trkpt>
      <trkpt lat="44.44913" lon="5.69684">
        <ele>711.6</ele>
        <time>2022-10-28T13:07:22Z</time>
      </trkpt>
      <trkpt lat="44.4491" lon="5.69692">
        <ele>711.5</ele>
        <time>2022-10-28T13:07:23Z</time>
      </trkpt>
      <trkpt lat="44.44907" lon="5.69701">
        <ele>711.4</ele>
        <time>2022-10-28T13:07:24Z</time>
      </trkpt>
      <trkpt lat="44.44903" lon="5.6971">
        <ele>711.3</ele>
        <time>2022-10-28T13:07:25Z</time>
      </trkpt>
      <trkpt lat="44.449" lon="5.6972">
        <ele>711.2</ele>
        <time>2022-10-28T13:07:26Z</time>
      </trkpt>
      <trkpt lat="44.44898" lon="5.69729">
        <ele>711.1</ele>
        <time>2022-10-28T13:07:27Z</time>
      </trkpt>
      <trkpt lat="44.44895" lon="5.69738">
        <ele>711</ele>
        <time>2022-10-28T13:07:28Z</time>
      </trkpt>
      <trkpt lat="44.44893" lon="5.69748">
        <ele>711</ele>
        <time>2022-10-28T13:07:29Z</time>
      </trkpt>
      <trkpt lat="44.4489" lon="5.69757">
        <ele>710.9</ele>
        <time>2022-10-28T13:07:30Z</time>
      </trkpt>
      <trkpt lat="44.44886" lon="5.69764">
        <ele>710.9</ele>
        <time>2022-10-28T13:07:31Z</time>
      </trkpt>
      <trkpt lat="44.44882" lon="5.69772">
        <ele>710.9</ele>
        <time>2022-10-28T13:07:32Z</time>
      </trkpt>
      <trkpt lat="44.44879" lon="5.6978">
        <ele>710.9</ele>
        <time>2022-10-28T13:07:33Z</time>
      </trkpt>
      <trkpt lat="44.44875" lon="5.69788">
        <ele>710.9</ele>
        <time>2022-10-28T13:07:34Z</time>
      </trkpt>
      <trkpt lat="44.44871" lon="5.69797">
        <ele>710.9</ele>
        <time>2022-10-28T13:07:35Z</time>
      </trkpt>
      <trkpt lat="44.44868" lon="5.69805">
        <ele>710.9</ele>
        <time>2022-10-28T13:07:36Z</time>
      </trkpt>
      <trkpt lat="44.44865" lon="5.69813">
        <ele>710.9</ele>
        <time>2022-10-28T13:07:37Z</time>
      </trkpt>
      <trkpt lat="44.44862" lon="5.69821">
        <ele>710.9</ele>
        <time>2022-10-28T13:07:38Z</time>
      </trkpt>
      <trkpt lat="44.4486" lon="5.69829">
        <ele>710.9</ele>
        <time>2022-10-28T13:07:39Z</time>
      </trkpt>
      <trkpt lat="44.44858" lon="5.69838">
        <ele>710.9</ele>
        <time>2022-10-28T13:07:40Z</time>
      </trkpt>
      <trkpt lat="44.44857" lon="5.69847">
        <ele>710.9</ele>
        <time>2022-10-28T13:07:41Z</time>
      </trkpt>
      <trkpt lat="44.44855" lon="5.69855">
        <ele>710.9</ele>
        <time>2022-10-28T13:07:42Z</time>
      </trkpt>
      <trkpt lat="44.44854" lon="5.69863">
        <ele>711</ele>
        <time>2022-10-28T13:07:43Z</time>
      </trkpt>
      <trkpt lat="44.44852" lon="5.69871">
        <ele>711</ele>
        <time>2022-10-28T13:07:44Z</time>
      </trkpt>
      <trkpt lat="44.4485" lon="5.69879">
        <ele>711.1</ele>
        <time>2022-10-28T13:07:45Z</time>
      </trkpt>
      <trkpt lat="44.44847" lon="5.69887">
        <ele>711.2</ele>
        <time>2022-10-28T13:07:46Z</time>
      </trkpt>
      <trkpt lat="44.44845" lon="5.69894">
        <ele>711.2</ele>
        <time>2022-10-28T13:07:47Z</time>
      </trkpt>
      <trkpt lat="44.44842" lon="5.69901">
        <ele>711.2</ele>
        <time>2022-10-28T13:07:48Z</time>
      </trkpt>
      <trkpt lat="44.44839" lon="5.69907">
        <ele>711.1</ele>
        <time>2022-10-28T13:07:49Z</time>
      </trkpt>
      <trkpt lat="44.44836" lon="5.69913">
        <ele>711</ele>
        <time>2022-10-28T13:07:50Z</time>
      </trkpt>
      <trkpt lat="44.44831" lon="5.69918">
        <ele>710.8</ele>
        <time>2022-10-28T13:07:51Z</time>
      </trkpt>
      <trkpt lat="44.44827" lon="5.69924">
        <ele>710.6</ele>
        <time>2022-10-28T13:07:52Z</time>
      </trkpt>
      <trkpt lat="44.44821" lon="5.69929">
        <ele>710.4</ele>
        <time>2022-10-28T13:07:53Z</time>
      </trkpt>
      <trkpt lat="44.44815" lon="5.69933">
        <ele>710.2</ele>
        <time>2022-10-28T13:07:54Z</time>
      </trkpt>
      <trkpt lat="44.4481" lon="5.69937">
        <ele>710.1</ele>
        <time>2022-10-28T13:07:55Z</time>
      </trkpt>
      <trkpt lat="44.44804" lon="5.6994">
        <ele>709.9</ele>
        <time>2022-10-28T13:07:56Z</time>
      </trkpt>
      <trkpt lat="44.44797" lon="5.69944">
        <ele>709.7</ele>
        <time>2022-10-28T13:07:57Z</time>
      </trkpt>
      <trkpt lat="44.44791" lon="5.69948">
        <ele>709.5</ele>
        <time>2022-10-28T13:07:58Z</time>
      </trkpt>
      <trkpt lat="44.44785" lon="5.69952">
        <ele>709.3</ele>
        <time>2022-10-28T13:07:59Z</time>
      </trkpt>
      <trkpt lat="44.44778" lon="5.69956">
        <ele>709.1</ele>
        <time>2022-10-28T13:08:00Z</time>
      </trkpt>
      <trkpt lat="44.44771" lon="5.69959">
        <ele>708.9</ele>
        <time>2022-10-28T13:08:01Z</time>
      </trkpt>
      <trkpt lat="44.44764" lon="5.69963">
        <ele>708.7</ele>
        <time>2022-10-28T13:08:02Z</time>
      </trkpt>
      <trkpt lat="44.44758" lon="5.69967">
        <ele>708.5</ele>
        <time>2022-10-28T13:08:03Z</time>
      </trkpt>
      <trkpt lat="44.44751" lon="5.69971">
        <ele>708.3</ele>
        <time>2022-10-28T13:08:04Z</time>
      </trkpt>
      <trkpt lat="44.44744" lon="5.69975">
        <ele>708</ele>
        <time>2022-10-28T13:08:05Z</time>
      </trkpt>
      <trkpt lat="44.44737" lon="5.6998">
        <ele>707.8</ele>
        <time>2022-10-28T13:08:06Z</time>
      </trkpt>
      <trkpt lat="44.4473" lon="5.69985">
        <ele>707.6</ele>
        <time>2022-10-28T13:08:07Z</time>
      </trkpt>
      <trkpt lat="44.44723" lon="5.6999">
        <ele>707.4</ele>
        <time>2022-10-28T13:08:08Z</time>
      </trkpt>
      <trkpt lat="44.44717" lon="5.69996">
        <ele>707.2</ele>
        <time>2022-10-28T13:08:09Z</time>
      </trkpt>
      <trkpt lat="44.44711" lon="5.70001">
        <ele>707</ele>
        <time>2022-10-28T13:08:10Z</time>
      </trkpt>
      <trkpt lat="44.44705" lon="5.70006">
        <ele>706.8</ele>
        <time>2022-10-28T13:08:11Z</time>
      </trkpt>
      <trkpt lat="44.44698" lon="5.70012">
        <ele>706.6</ele>
        <time>2022-10-28T13:08:12Z</time>
      </trkpt>
      <trkpt lat="44.44691" lon="5.70018">
        <ele>706.5</ele>
        <time>2022-10-28T13:08:13Z</time>
      </trkpt>
      <trkpt lat="44.44685" lon="5.70024">
        <ele>706.3</ele>
        <time>2022-10-28T13:08:14Z</time>
      </trkpt>
      <trkpt lat="44.44678" lon="5.70029">
        <ele>706.2</ele>
        <time>2022-10-28T13:08:15Z</time>
      </trkpt>
      <trkpt lat="44.44672" lon="5.70036">
        <ele>706.1</ele>
        <time>2022-10-28T13:08:16Z</time>
      </trkpt>
      <trkpt lat="44.44665" lon="5.70042">
        <ele>706</ele>
        <time>2022-10-28T13:08:17Z</time>
      </trkpt>
      <trkpt lat="44.44659" lon="5.70047">
        <ele>705.9</ele>
        <time>2022-10-28T13:08:18Z</time>
      </trkpt>
      <trkpt lat="44.44652" lon="5.70054">
        <ele>705.8</ele>
        <time>2022-10-28T13:08:19Z</time>
      </trkpt>
      <trkpt lat="44.44646" lon="5.70061">
        <ele>705.6</ele>
        <time>2022-10-28T13:08:20Z</time>
      </trkpt>
      <trkpt lat="44.4464" lon="5.70067">
        <ele>705.4</ele>
        <time>2022-10-28T13:08:21Z</time>
      </trkpt>
      <trkpt lat="44.44635" lon="5.70074">
        <ele>705.2</ele>
        <time>2022-10-28T13:08:22Z</time>
      </trkpt>
      <trkpt lat="44.4463" lon="5.70081">
        <ele>704.9</ele>
        <time>2022-10-28T13:08:23Z</time>
      </trkpt>
      <trkpt lat="44.44625" lon="5.70088">
        <ele>704.7</ele>
        <time>2022-10-28T13:08:24Z</time>
      </trkpt>
      <trkpt lat="44.4462" lon="5.70097">
        <ele>704.5</ele>
        <time>2022-10-28T13:08:25Z</time>
      </trkpt>
      <trkpt lat="44.44616" lon="5.70107">
        <ele>704.3</ele>
        <time>2022-10-28T13:08:26Z</time>
      </trkpt>
      <trkpt lat="44.44614" lon="5.70117">
        <ele>704.1</ele>
        <time>2022-10-28T13:08:27Z</time>
      </trkpt>
      <trkpt lat="44.44612" lon="5.70127">
        <ele>703.9</ele>
        <time>2022-10-28T13:08:28Z</time>
      </trkpt>
      <trkpt lat="44.44611" lon="5.70137">
        <ele>703.7</ele>
        <time>2022-10-28T13:08:29Z</time>
      </trkpt>
      <trkpt lat="44.44611" lon="5.70147">
        <ele>703.4</ele>
        <time>2022-10-28T13:08:30Z</time>
      </trkpt>
      <trkpt lat="44.4461" lon="5.70158">
        <ele>703.2</ele>
        <time>2022-10-28T13:08:31Z</time>
      </trkpt>
      <trkpt lat="44.44609" lon="5.70168">
        <ele>702.9</ele>
        <time>2022-10-28T13:08:32Z</time>
      </trkpt>
      <trkpt lat="44.44608" lon="5.70178">
        <ele>702.7</ele>
        <time>2022-10-28T13:08:33Z</time>
      </trkpt>
      <trkpt lat="44.44607" lon="5.70189">
        <ele>702.4</ele>
        <time>2022-10-28T13:08:34Z</time>
      </trkpt>
      <trkpt lat="44.44605" lon="5.702">
        <ele>702.1</ele>
        <time>2022-10-28T13:08:35Z</time>
      </trkpt>
      <trkpt lat="44.44602" lon="5.7021">
        <ele>701.8</ele>
        <time>2022-10-28T13:08:36Z</time>
      </trkpt>
      <trkpt lat="44.446" lon="5.7022">
        <ele>701.5</ele>
        <time>2022-10-28T13:08:37Z</time>
      </trkpt>
      <trkpt lat="44.44598" lon="5.7023">
        <ele>701.3</ele>
        <time>2022-10-28T13:08:38Z</time>
      </trkpt>
      <trkpt lat="44.44595" lon="5.7024">
        <ele>701</ele>
        <time>2022-10-28T13:08:39Z</time>
      </trkpt>
      <trkpt lat="44.4459" lon="5.70249">
        <ele>700.7</ele>
        <time>2022-10-28T13:08:40Z</time>
      </trkpt>
      <trkpt lat="44.44586" lon="5.70259">
        <ele>700.5</ele>
        <time>2022-10-28T13:08:41Z</time>
      </trkpt>
      <trkpt lat="44.4458" lon="5.70267">
        <ele>700.2</ele>
        <time>2022-10-28T13:08:42Z</time>
      </trkpt>
      <trkpt lat="44.44574" lon="5.70274">
        <ele>699.9</ele>
        <time>2022-10-28T13:08:43Z</time>
      </trkpt>
      <trkpt lat="44.44568" lon="5.70281">
        <ele>699.7</ele>
        <time>2022-10-28T13:08:44Z</time>
      </trkpt>
      <trkpt lat="44.44562" lon="5.70288">
        <ele>699.4</ele>
        <time>2022-10-28T13:08:45Z</time>
      </trkpt>
      <trkpt lat="44.44556" lon="5.70294">
        <ele>699.1</ele>
        <time>2022-10-28T13:08:46Z</time>
      </trkpt>
      <trkpt lat="44.4455" lon="5.703">
        <ele>698.8</ele>
        <time>2022-10-28T13:08:47Z</time>
      </trkpt>
      <trkpt lat="44.44544" lon="5.70306">
        <ele>698.6</ele>
        <time>2022-10-28T13:08:48Z</time>
      </trkpt>
      <trkpt lat="44.44537" lon="5.70312">
        <ele>698.3</ele>
        <time>2022-10-28T13:08:49Z</time>
      </trkpt>
      <trkpt lat="44.44531" lon="5.70318">
        <ele>698</ele>
        <time>2022-10-28T13:08:50Z</time>
      </trkpt>
      <trkpt lat="44.44524" lon="5.70323">
        <ele>697.8</ele>
        <time>2022-10-28T13:08:51Z</time>
      </trkpt>
      <trkpt lat="44.44517" lon="5.70327">
        <ele>697.5</ele>
        <time>2022-10-28T13:08:52Z</time>
      </trkpt>
      <trkpt lat="44.44509" lon="5.7033">
        <ele>697.3</ele>
        <time>2022-10-28T13:08:53Z</time>
      </trkpt>
      <trkpt lat="44.44502" lon="5.70333">
        <ele>697.1</ele>
        <time>2022-10-28T13:08:54Z</time>
      </trkpt>
      <trkpt lat="44.44494" lon="5.70334">
        <ele>696.9</ele>
        <time>2022-10-28T13:08:55Z</time>
      </trkpt>
      <trkpt lat="44.44486" lon="5.70335">
        <ele>696.8</ele>
        <time>2022-10-28T13:08:56Z</time>
      </trkpt>
      <trkpt lat="44.44479" lon="5.70335">
        <ele>696.6</ele>
        <time>2022-10-28T13:08:57Z</time>
      </trkpt>
      <trkpt lat="44.44471" lon="5.70334">
        <ele>696.5</ele>
        <time>2022-10-28T13:08:58Z</time>
      </trkpt>
      <trkpt lat="44.44464" lon="5.70334">
        <ele>696.4</ele>
        <time>2022-10-28T13:08:59Z</time>
      </trkpt>
      <trkpt lat="44.44456" lon="5.70334">
        <ele>696.3</ele>
        <time>2022-10-28T13:09:00Z</time>
      </trkpt>
      <trkpt lat="44.44449" lon="5.70335">
        <ele>696.3</ele>
        <time>2022-10-28T13:09:01Z</time>
      </trkpt>
      <trkpt lat="44.44441" lon="5.70336">
        <ele>696.3</ele>
        <time>2022-10-28T13:09:02Z</time>
      </trkpt>
      <trkpt lat="44.44434" lon="5.70339">
        <ele>696.3</ele>
        <time>2022-10-28T13:09:03Z</time>
      </trkpt>
      <trkpt lat="44.44428" lon="5.70341">
        <ele>696.3</ele>
        <time>2022-10-28T13:09:04Z</time>
      </trkpt>
      <trkpt lat="44.44421" lon="5.70344">
        <ele>696.3</ele>
        <time>2022-10-28T13:09:05Z</time>
      </trkpt>
      <trkpt lat="44.44413" lon="5.70348">
        <ele>696.4</ele>
        <time>2022-10-28T13:09:06Z</time>
      </trkpt>
      <trkpt lat="44.44407" lon="5.70352">
        <ele>696.4</ele>
        <time>2022-10-28T13:09:07Z</time>
      </trkpt>
      <trkpt lat="44.444" lon="5.70355">
        <ele>696.5</ele>
        <time>2022-10-28T13:09:08Z</time>
      </trkpt>
      <trkpt lat="44.44394" lon="5.70357">
        <ele>696.5</ele>
        <time>2022-10-28T13:09:09Z</time>
      </trkpt>
      <trkpt lat="44.44388" lon="5.7036">
        <ele>696.6</ele>
        <time>2022-10-28T13:09:10Z</time>
      </trkpt>
      <trkpt lat="44.44382" lon="5.70363">
        <ele>696.6</ele>
        <time>2022-10-28T13:09:11Z</time>
      </trkpt>
      <trkpt lat="44.44377" lon="5.70367">
        <ele>696.6</ele>
        <time>2022-10-28T13:09:12Z</time>
      </trkpt>
      <trkpt lat="44.44371" lon="5.70369">
        <ele>696.7</ele>
        <time>2022-10-28T13:09:13Z</time>
      </trkpt>
      <trkpt lat="44.44365" lon="5.70372">
        <ele>696.7</ele>
        <time>2022-10-28T13:09:14Z</time>
      </trkpt>
      <trkpt lat="44.44359" lon="5.70376">
        <ele>696.8</ele>
        <time>2022-10-28T13:09:15Z</time>
      </trkpt>
      <trkpt lat="44.44354" lon="5.7038">
        <ele>696.8</ele>
        <time>2022-10-28T13:09:16Z</time>
      </trkpt>
      <trkpt lat="44.44349" lon="5.70385">
        <ele>696.8</ele>
        <time>2022-10-28T13:09:17Z</time>
      </trkpt>
      <trkpt lat="44.44345" lon="5.70391">
        <ele>696.7</ele>
        <time>2022-10-28T13:09:18Z</time>
      </trkpt>
      <trkpt lat="44.44341" lon="5.70399">
        <ele>696.7</ele>
        <time>2022-10-28T13:09:19Z</time>
      </trkpt>
      <trkpt lat="44.44338" lon="5.70406">
        <ele>696.6</ele>
        <time>2022-10-28T13:09:20Z</time>
      </trkpt>
      <trkpt lat="44.44335" lon="5.70414">
        <ele>696.4</ele>
        <time>2022-10-28T13:09:21Z</time>
      </trkpt>
      <trkpt lat="44.44332" lon="5.70421">
        <ele>696.2</ele>
        <time>2022-10-28T13:09:22Z</time>
      </trkpt>
      <trkpt lat="44.44328" lon="5.70429">
        <ele>696</ele>
        <time>2022-10-28T13:09:23Z</time>
      </trkpt>
      <trkpt lat="44.44325" lon="5.70436">
        <ele>695.8</ele>
        <time>2022-10-28T13:09:24Z</time>
      </trkpt>
      <trkpt lat="44.44321" lon="5.70444">
        <ele>695.6</ele>
        <time>2022-10-28T13:09:25Z</time>
      </trkpt>
      <trkpt lat="44.44316" lon="5.70451">
        <ele>695.5</ele>
        <time>2022-10-28T13:09:26Z</time>
      </trkpt>
      <trkpt lat="44.4431" lon="5.70457">
        <ele>695.3</ele>
        <time>2022-10-28T13:09:27Z</time>
      </trkpt>
      <trkpt lat="44.44304" lon="5.70461">
        <ele>695.2</ele>
        <time>2022-10-28T13:09:28Z</time>
      </trkpt>
      <trkpt lat="44.44298" lon="5.70465">
        <ele>695.1</ele>
        <time>2022-10-28T13:09:29Z</time>
      </trkpt>
      <trkpt lat="44.44291" lon="5.70469">
        <ele>695</ele>
        <time>2022-10-28T13:09:30Z</time>
      </trkpt>
      <trkpt lat="44.44285" lon="5.70473">
        <ele>694.9</ele>
        <time>2022-10-28T13:09:31Z</time>
      </trkpt>
      <trkpt lat="44.44279" lon="5.70476">
        <ele>694.8</ele>
        <time>2022-10-28T13:09:32Z</time>
      </trkpt>
      <trkpt lat="44.44273" lon="5.7048">
        <ele>694.7</ele>
        <time>2022-10-28T13:09:33Z</time>
      </trkpt>
      <trkpt lat="44.44266" lon="5.70483">
        <ele>694.7</ele>
        <time>2022-10-28T13:09:34Z</time>
      </trkpt>
      <trkpt lat="44.4426" lon="5.70487">
        <ele>694.6</ele>
        <time>2022-10-28T13:09:35Z</time>
      </trkpt>
      <trkpt lat="44.44254" lon="5.70492">
        <ele>694.5</ele>
        <time>2022-10-28T13:09:36Z</time>
      </trkpt>
      <trkpt lat="44.44248" lon="5.70495">
        <ele>694.4</ele>
        <time>2022-10-28T13:09:37Z</time>
      </trkpt>
      <trkpt lat="44.44242" lon="5.70499">
        <ele>694.4</ele>
        <time>2022-10-28T13:09:38Z</time>
      </trkpt>
      <trkpt lat="44.44236" lon="5.70502">
        <ele>694.3</ele>
        <time>2022-10-28T13:09:39Z</time>
      </trkpt>
      <trkpt lat="44.4423" lon="5.70507">
        <ele>694.3</ele>
        <time>2022-10-28T13:09:40Z</time>
      </trkpt>
      <trkpt lat="44.44224" lon="5.70511">
        <ele>694.2</ele>
        <time>2022-10-28T13:09:41Z</time>
      </trkpt>
      <trkpt lat="44.44219" lon="5.70516">
        <ele>694.2</ele>
        <time>2022-10-28T13:09:42Z</time>
      </trkpt>
      <trkpt lat="44.44213" lon="5.70521">
        <ele>694.2</ele>
        <time>2022-10-28T13:09:43Z</time>
      </trkpt>
      <trkpt lat="44.44209" lon="5.70527">
        <ele>694.2</ele>
        <time>2022-10-28T13:09:44Z</time>
      </trkpt>
      <trkpt lat="44.44205" lon="5.70533">
        <ele>694.2</ele>
        <time>2022-10-28T13:09:45Z</time>
      </trkpt>
      <trkpt lat="44.44202" lon="5.70541">
        <ele>694.1</ele>
        <time>2022-10-28T13:09:46Z</time>
      </trkpt>
      <trkpt lat="44.44198" lon="5.70549">
        <ele>694.1</ele>
        <time>2022-10-28T13:09:47Z</time>
      </trkpt>
      <trkpt lat="44.44195" lon="5.70557">
        <ele>694</ele>
        <time>2022-10-28T13:09:48Z</time>
      </trkpt>
      <trkpt lat="44.44193" lon="5.70566">
        <ele>693.9</ele>
        <time>2022-10-28T13:09:49Z</time>
      </trkpt>
      <trkpt lat="44.4419" lon="5.70573">
        <ele>693.9</ele>
        <time>2022-10-28T13:09:50Z</time>
      </trkpt>
      <trkpt lat="44.44187" lon="5.7058">
        <ele>693.8</ele>
        <time>2022-10-28T13:09:51Z</time>
      </trkpt>
      <trkpt lat="44.44183" lon="5.70586">
        <ele>693.7</ele>
        <time>2022-10-28T13:09:52Z</time>
      </trkpt>
      <trkpt lat="44.44178" lon="5.70593">
        <ele>693.6</ele>
        <time>2022-10-28T13:09:53Z</time>
      </trkpt>
      <trkpt lat="44.44173" lon="5.70599">
        <ele>693.5</ele>
        <time>2022-10-28T13:09:54Z</time>
      </trkpt>
      <trkpt lat="44.44168" lon="5.70605">
        <ele>693.4</ele>
        <time>2022-10-28T13:09:55Z</time>
      </trkpt>
      <trkpt lat="44.44162" lon="5.7061">
        <ele>693.3</ele>
        <time>2022-10-28T13:09:56Z</time>
      </trkpt>
      <trkpt lat="44.44157" lon="5.70616">
        <ele>693.3</ele>
        <time>2022-10-28T13:09:57Z</time>
      </trkpt>
      <trkpt lat="44.44151" lon="5.70621">
        <ele>693.2</ele>
        <time>2022-10-28T13:09:58Z</time>
      </trkpt>
      <trkpt lat="44.44146" lon="5.70625">
        <ele>693.1</ele>
        <time>2022-10-28T13:09:59Z</time>
      </trkpt>
      <trkpt lat="44.4414" lon="5.70629">
        <ele>693.1</ele>
        <time>2022-10-28T13:10:00Z</time>
      </trkpt>
      <trkpt lat="44.44134" lon="5.70633">
        <ele>693</ele>
        <time>2022-10-28T13:10:01Z</time>
      </trkpt>
      <trkpt lat="44.44128" lon="5.70635">
        <ele>692.9</ele>
        <time>2022-10-28T13:10:02Z</time>
      </trkpt>
      <trkpt lat="44.44121" lon="5.70637">
        <ele>692.8</ele>
        <time>2022-10-28T13:10:03Z</time>
      </trkpt>
      <trkpt lat="44.44115" lon="5.70638">
        <ele>692.6</ele>
        <time>2022-10-28T13:10:04Z</time>
      </trkpt>
      <trkpt lat="44.44109" lon="5.70639">
        <ele>692.5</ele>
        <time>2022-10-28T13:10:05Z</time>
      </trkpt>
      <trkpt lat="44.44103" lon="5.70639">
        <ele>692.3</ele>
        <time>2022-10-28T13:10:06Z</time>
      </trkpt>
      <trkpt lat="44.44097" lon="5.7064">
        <ele>692.2</ele>
        <time>2022-10-28T13:10:07Z</time>
      </trkpt>
      <trkpt lat="44.4409" lon="5.7064">
        <ele>692.1</ele>
        <time>2022-10-28T13:10:08Z</time>
      </trkpt>
      <trkpt lat="44.44084" lon="5.70641">
        <ele>692</ele>
        <time>2022-10-28T13:10:09Z</time>
      </trkpt>
      <trkpt lat="44.44078" lon="5.70642">
        <ele>691.9</ele>
        <time>2022-10-28T13:10:10Z</time>
      </trkpt>
      <trkpt lat="44.44072" lon="5.70644">
        <ele>691.9</ele>
        <time>2022-10-28T13:10:11Z</time>
      </trkpt>
      <trkpt lat="44.44066" lon="5.70647">
        <ele>691.8</ele>
        <time>2022-10-28T13:10:12Z</time>
      </trkpt>
      <trkpt lat="44.4406" lon="5.7065">
        <ele>691.7</ele>
        <time>2022-10-28T13:10:13Z</time>
      </trkpt>
      <trkpt lat="44.44054" lon="5.70653">
        <ele>691.7</ele>
        <time>2022-10-28T13:10:14Z</time>
      </trkpt>
      <trkpt lat="44.44047" lon="5.70657">
        <ele>691.6</ele>
        <time>2022-10-28T13:10:15Z</time>
      </trkpt>
      <trkpt lat="44.44041" lon="5.70662">
        <ele>691.6</ele>
        <time>2022-10-28T13:10:16Z</time>
      </trkpt>
      <trkpt lat="44.44036" lon="5.70667">
        <ele>691.5</ele>
        <time>2022-10-28T13:10:17Z</time>
      </trkpt>
      <trkpt lat="44.44031" lon="5.70672">
        <ele>691.5</ele>
        <time>2022-10-28T13:10:18Z</time>
      </trkpt>
      <trkpt lat="44.44026" lon="5.70678">
        <ele>691.4</ele>
        <time>2022-10-28T13:10:19Z</time>
      </trkpt>
      <trkpt lat="44.44021" lon="5.70684">
        <ele>691.4</ele>
        <time>2022-10-28T13:10:20Z</time>
      </trkpt>
      <trkpt lat="44.44016" lon="5.7069">
        <ele>691.3</ele>
        <time>2022-10-28T13:10:21Z</time>
      </trkpt>
      <trkpt lat="44.44011" lon="5.70695">
        <ele>691.2</ele>
        <time>2022-10-28T13:10:22Z</time>
      </trkpt>
      <trkpt lat="44.44006" lon="5.70701">
        <ele>691.2</ele>
        <time>2022-10-28T13:10:23Z</time>
      </trkpt>
      <trkpt lat="44.44001" lon="5.70708">
        <ele>691.1</ele>
        <time>2022-10-28T13:10:24Z</time>
      </trkpt>
      <trkpt lat="44.43997" lon="5.70715">
        <ele>691.1</ele>
        <time>2022-10-28T13:10:25Z</time>
      </trkpt>
      <trkpt lat="44.43994" lon="5.70723">
        <ele>691.1</ele>
        <time>2022-10-28T13:10:26Z</time>
      </trkpt>
      <trkpt lat="44.43991" lon="5.70731">
        <ele>691</ele>
        <time>2022-10-28T13:10:27Z</time>
      </trkpt>
      <trkpt lat="44.43989" lon="5.70739">
        <ele>691</ele>
        <time>2022-10-28T13:10:28Z</time>
      </trkpt>
      <trkpt lat="44.43986" lon="5.70748">
        <ele>691</ele>
        <time>2022-10-28T13:10:29Z</time>
      </trkpt>
      <trkpt lat="44.43984" lon="5.70756">
        <ele>690.9</ele>
        <time>2022-10-28T13:10:30Z</time>
      </trkpt>
      <trkpt lat="44.4398" lon="5.70763">
        <ele>690.9</ele>
        <time>2022-10-28T13:10:31Z</time>
      </trkpt>
      <trkpt lat="44.43976" lon="5.7077">
        <ele>690.9</ele>
        <time>2022-10-28T13:10:32Z</time>
      </trkpt>
      <trkpt lat="44.43971" lon="5.70776">
        <ele>690.9</ele>
        <time>2022-10-28T13:10:33Z</time>
      </trkpt>
      <trkpt lat="44.43966" lon="5.70781">
        <ele>690.9</ele>
        <time>2022-10-28T13:10:34Z</time>
      </trkpt>
      <trkpt lat="44.4396" lon="5.70787">
        <ele>690.9</ele>
        <time>2022-10-28T13:10:35Z</time>
      </trkpt>
      <trkpt lat="44.43955" lon="5.70792">
        <ele>690.9</ele>
        <time>2022-10-28T13:10:36Z</time>
      </trkpt>
      <trkpt lat="44.4395" lon="5.70797">
        <ele>690.8</ele>
        <time>2022-10-28T13:10:37Z</time>
      </trkpt>
      <trkpt lat="44.43945" lon="5.70802">
        <ele>690.8</ele>
        <time>2022-10-28T13:10:38Z</time>
      </trkpt>
      <trkpt lat="44.4394" lon="5.70806">
        <ele>690.8</ele>
        <time>2022-10-28T13:10:39Z</time>
      </trkpt>
      <trkpt lat="44.43935" lon="5.70811">
        <ele>690.7</ele>
        <time>2022-10-28T13:10:40Z</time>
      </trkpt>
      <trkpt lat="44.4393" lon="5.70815">
        <ele>690.6</ele>
        <time>2022-10-28T13:10:41Z</time>
      </trkpt>
      <trkpt lat="44.43925" lon="5.7082">
        <ele>690.6</ele>
        <time>2022-10-28T13:10:42Z</time>
      </trkpt>
      <trkpt lat="44.43919" lon="5.70824">
        <ele>690.5</ele>
        <time>2022-10-28T13:10:43Z</time>
      </trkpt>
      <trkpt lat="44.43914" lon="5.70827">
        <ele>690.4</ele>
        <time>2022-10-28T13:10:44Z</time>
      </trkpt>
      <trkpt lat="44.43909" lon="5.70831">
        <ele>690.4</ele>
        <time>2022-10-28T13:10:45Z</time>
      </trkpt>
      <trkpt lat="44.43903" lon="5.70834">
        <ele>690.3</ele>
        <time>2022-10-28T13:10:46Z</time>
      </trkpt>
      <trkpt lat="44.43897" lon="5.70838">
        <ele>690.2</ele>
        <time>2022-10-28T13:10:47Z</time>
      </trkpt>
      <trkpt lat="44.43891" lon="5.7084">
        <ele>690.2</ele>
        <time>2022-10-28T13:10:48Z</time>
      </trkpt>
      <trkpt lat="44.43886" lon="5.70842">
        <ele>690.1</ele>
        <time>2022-10-28T13:10:49Z</time>
      </trkpt>
      <trkpt lat="44.4388" lon="5.70846">
        <ele>690</ele>
        <time>2022-10-28T13:10:50Z</time>
      </trkpt>
      <trkpt lat="44.43874" lon="5.70849">
        <ele>689.8</ele>
        <time>2022-10-28T13:10:51Z</time>
      </trkpt>
      <trkpt lat="44.43868" lon="5.70853">
        <ele>689.7</ele>
        <time>2022-10-28T13:10:52Z</time>
      </trkpt>
      <trkpt lat="44.43862" lon="5.70857">
        <ele>689.5</ele>
        <time>2022-10-28T13:10:53Z</time>
      </trkpt>
      <trkpt lat="44.43857" lon="5.70861">
        <ele>689.4</ele>
        <time>2022-10-28T13:10:54Z</time>
      </trkpt>
      <trkpt lat="44.43851" lon="5.70865">
        <ele>689.3</ele>
        <time>2022-10-28T13:10:55Z</time>
      </trkpt>
      <trkpt lat="44.43845" lon="5.70868">
        <ele>689.2</ele>
        <time>2022-10-28T13:10:56Z</time>
      </trkpt>
      <trkpt lat="44.43839" lon="5.70872">
        <ele>689</ele>
        <time>2022-10-28T13:10:57Z</time>
      </trkpt>
      <trkpt lat="44.43834" lon="5.70876">
        <ele>688.9</ele>
        <time>2022-10-28T13:10:58Z</time>
      </trkpt>
      <trkpt lat="44.43828" lon="5.70879">
        <ele>688.8</ele>
        <time>2022-10-28T13:10:59Z</time>
      </trkpt>
      <trkpt lat="44.43823" lon="5.70884">
        <ele>688.7</ele>
        <time>2022-10-28T13:11:00Z</time>
      </trkpt>
      <trkpt lat="44.43818" lon="5.70889">
        <ele>688.7</ele>
        <time>2022-10-28T13:11:01Z</time>
      </trkpt>
      <trkpt lat="44.43813" lon="5.70894">
        <ele>688.6</ele>
        <time>2022-10-28T13:11:02Z</time>
      </trkpt>
      <trkpt lat="44.43808" lon="5.70899">
        <ele>688.6</ele>
        <time>2022-10-28T13:11:03Z</time>
      </trkpt>
      <trkpt lat="44.43802" lon="5.70903">
        <ele>688.6</ele>
        <time>2022-10-28T13:11:04Z</time>
      </trkpt>
      <trkpt lat="44.43797" lon="5.70908">
        <ele>688.7</ele>
        <time>2022-10-28T13:11:05Z</time>
      </trkpt>
      <trkpt lat="44.43793" lon="5.70913">
        <ele>688.8</ele>
        <time>2022-10-28T13:11:06Z</time>
      </trkpt>
      <trkpt lat="44.43788" lon="5.70917">
        <ele>688.9</ele>
        <time>2022-10-28T13:11:07Z</time>
      </trkpt>
      <trkpt lat="44.43784" lon="5.70921">
        <ele>689.1</ele>
        <time>2022-10-28T13:11:08Z</time>
      </trkpt>
      <trkpt lat="44.4378" lon="5.70926">
        <ele>689.3</ele>
        <time>2022-10-28T13:11:09Z</time>
      </trkpt>
      <trkpt lat="44.43775" lon="5.70929">
        <ele>689.5</ele>
        <time>2022-10-28T13:11:10Z</time>
      </trkpt>
      <trkpt lat="44.43771" lon="5.70933">
        <ele>689.8</ele>
        <time>2022-10-28T13:11:11Z</time>
      </trkpt>
      <trkpt lat="44.43767" lon="5.70936">
        <ele>690</ele>
        <time>2022-10-28T13:11:12Z</time>
      </trkpt>
      <trkpt lat="44.43763" lon="5.70938">
        <ele>690.2</ele>
        <time>2022-10-28T13:11:13Z</time>
      </trkpt>
      <trkpt lat="44.43759" lon="5.70941">
        <ele>690.5</ele>
        <time>2022-10-28T13:11:14Z</time>
      </trkpt>
      <trkpt lat="44.43758" lon="5.70942">
        <ele>690.5</ele>
        <time>2022-10-28T13:11:15Z</time>
      </trkpt>
      <trkpt lat="44.43754" lon="5.70944">
        <ele>690.8</ele>
        <time>2022-10-28T13:11:16Z</time>
      </trkpt>
      <trkpt lat="44.43751" lon="5.70947">
        <ele>690.9</ele>
        <time>2022-10-28T13:11:17Z</time>
      </trkpt>
      <trkpt lat="44.43748" lon="5.7095">
        <ele>691.1</ele>
        <time>2022-10-28T13:11:18Z</time>
      </trkpt>
      <trkpt lat="44.43745" lon="5.70952">
        <ele>691.2</ele>
        <time>2022-10-28T13:11:19Z</time>
      </trkpt>
      <trkpt lat="44.43743" lon="5.70953">
        <ele>691.3</ele>
        <time>2022-10-28T13:11:20Z</time>
      </trkpt>
      <trkpt lat="44.4374" lon="5.70954">
        <ele>691.4</ele>
        <time>2022-10-28T13:11:21Z</time>
      </trkpt>
      <trkpt lat="44.43739" lon="5.70955">
        <ele>691.5</ele>
        <time>2022-10-28T13:11:22Z</time>
      </trkpt>
      <trkpt lat="44.43735" lon="5.70957">
        <ele>691.7</ele>
        <time>2022-10-28T13:11:23Z</time>
      </trkpt>
      <trkpt lat="44.43732" lon="5.70959">
        <ele>691.8</ele>
        <time>2022-10-28T13:11:24Z</time>
      </trkpt>
      <trkpt lat="44.4373" lon="5.70961">
        <ele>691.9</ele>
        <time>2022-10-28T13:11:25Z</time>
      </trkpt>
      <trkpt lat="44.43727" lon="5.70963">
        <ele>692</ele>
        <time>2022-10-28T13:11:26Z</time>
      </trkpt>
      <trkpt lat="44.43724" lon="5.70965">
        <ele>692.2</ele>
        <time>2022-10-28T13:11:27Z</time>
      </trkpt>
      <trkpt lat="44.43721" lon="5.70967">
        <ele>692.3</ele>
        <time>2022-10-28T13:11:28Z</time>
      </trkpt>
      <trkpt lat="44.4372" lon="5.70967">
        <ele>692.4</ele>
        <time>2022-10-28T13:11:29Z</time>
      </trkpt>
      <trkpt lat="44.43716" lon="5.7097">
        <ele>692.5</ele>
        <time>2022-10-28T13:11:30Z</time>
      </trkpt>
      <trkpt lat="44.43715" lon="5.7097">
        <ele>692.6</ele>
        <time>2022-10-28T13:11:31Z</time>
      </trkpt>
      <trkpt lat="44.43712" lon="5.70972">
        <ele>692.7</ele>
        <time>2022-10-28T13:11:32Z</time>
      </trkpt>
      <trkpt lat="44.43707" lon="5.70975">
        <ele>692.8</ele>
        <time>2022-10-28T13:11:34Z</time>
      </trkpt>
      <trkpt lat="44.43704" lon="5.70976">
        <ele>692.9</ele>
        <time>2022-10-28T13:11:35Z</time>
      </trkpt>
      <trkpt lat="44.43701" lon="5.70977">
        <ele>693</ele>
        <time>2022-10-28T13:11:36Z</time>
      </trkpt>
      <trkpt lat="44.43697" lon="5.70978">
        <ele>693.1</ele>
        <time>2022-10-28T13:11:37Z</time>
      </trkpt>
      <trkpt lat="44.43693" lon="5.70979">
        <ele>693.2</ele>
        <time>2022-10-28T13:11:39Z</time>
      </trkpt>
      <trkpt lat="44.43689" lon="5.70979">
        <ele>693.2</ele>
        <time>2022-10-28T13:11:40Z</time>
      </trkpt>
      <trkpt lat="44.43686" lon="5.70979">
        <ele>693.3</ele>
        <time>2022-10-28T13:11:41Z</time>
      </trkpt>
      <trkpt lat="44.43682" lon="5.7098">
        <ele>693.3</ele>
        <time>2022-10-28T13:11:43Z</time>
      </trkpt>
      <trkpt lat="44.43679" lon="5.7098">
        <ele>693.3</ele>
        <time>2022-10-28T13:11:44Z</time>
      </trkpt>
      <trkpt lat="44.43675" lon="5.70982">
        <ele>693.4</ele>
        <time>2022-10-28T13:11:45Z</time>
      </trkpt>
      <trkpt lat="44.43671" lon="5.70982">
        <ele>693.4</ele>
        <time>2022-10-28T13:11:46Z</time>
      </trkpt>
      <trkpt lat="44.43668" lon="5.70983">
        <ele>693.4</ele>
        <time>2022-10-28T13:11:48Z</time>
      </trkpt>
      <trkpt lat="44.43662" lon="5.70984">
        <ele>693.4</ele>
        <time>2022-10-28T13:11:49Z</time>
      </trkpt>
      <trkpt lat="44.43659" lon="5.70985">
        <ele>693.4</ele>
        <time>2022-10-28T13:11:50Z</time>
      </trkpt>
      <trkpt lat="44.43656" lon="5.70985">
        <ele>693.3</ele>
        <time>2022-10-28T13:11:51Z</time>
      </trkpt>
      <trkpt lat="44.43651" lon="5.70986">
        <ele>693.3</ele>
        <time>2022-10-28T13:11:53Z</time>
      </trkpt>
      <trkpt lat="44.43647" lon="5.70986">
        <ele>693.3</ele>
        <time>2022-10-28T13:11:54Z</time>
      </trkpt>
      <trkpt lat="44.43642" lon="5.70988">
        <ele>693.2</ele>
        <time>2022-10-28T13:11:55Z</time>
      </trkpt>
      <trkpt lat="44.43638" lon="5.70988">
        <ele>693.1</ele>
        <time>2022-10-28T13:11:56Z</time>
      </trkpt>
      <trkpt lat="44.43634" lon="5.70989">
        <ele>693</ele>
        <time>2022-10-28T13:11:57Z</time>
      </trkpt>
      <trkpt lat="44.43629" lon="5.7099">
        <ele>692.9</ele>
        <time>2022-10-28T13:11:58Z</time>
      </trkpt>
      <trkpt lat="44.43625" lon="5.70991">
        <ele>692.8</ele>
        <time>2022-10-28T13:11:59Z</time>
      </trkpt>
      <trkpt lat="44.43621" lon="5.70991">
        <ele>692.7</ele>
        <time>2022-10-28T13:12:00Z</time>
      </trkpt>
      <trkpt lat="44.43613" lon="5.70993">
        <ele>692.5</ele>
        <time>2022-10-28T13:12:02Z</time>
      </trkpt>
      <trkpt lat="44.43606" lon="5.70994">
        <ele>692.3</ele>
        <time>2022-10-28T13:12:03Z</time>
      </trkpt>
      <trkpt lat="44.43601" lon="5.70994">
        <ele>692.1</ele>
        <time>2022-10-28T13:12:04Z</time>
      </trkpt>
      <trkpt lat="44.43596" lon="5.70995">
        <ele>692</ele>
        <time>2022-10-28T13:12:05Z</time>
      </trkpt>
      <trkpt lat="44.43591" lon="5.70995">
        <ele>691.8</ele>
        <time>2022-10-28T13:12:06Z</time>
      </trkpt>
      <trkpt lat="44.43586" lon="5.70996">
        <ele>691.7</ele>
        <time>2022-10-28T13:12:07Z</time>
      </trkpt>
      <trkpt lat="44.43581" lon="5.70997">
        <ele>691.5</ele>
        <time>2022-10-28T13:12:08Z</time>
      </trkpt>
      <trkpt lat="44.43576" lon="5.70999">
        <ele>691.4</ele>
        <time>2022-10-28T13:12:09Z</time>
      </trkpt>
      <trkpt lat="44.4357" lon="5.71">
        <ele>691.2</ele>
        <time>2022-10-28T13:12:10Z</time>
      </trkpt>
      <trkpt lat="44.43565" lon="5.71001">
        <ele>691.1</ele>
        <time>2022-10-28T13:12:11Z</time>
      </trkpt>
      <trkpt lat="44.4356" lon="5.71002">
        <ele>691</ele>
        <time>2022-10-28T13:12:12Z</time>
      </trkpt>
      <trkpt lat="44.43555" lon="5.71003">
        <ele>690.8</ele>
        <time>2022-10-28T13:12:13Z</time>
      </trkpt>
      <trkpt lat="44.43549" lon="5.71005">
        <ele>690.6</ele>
        <time>2022-10-28T13:12:14Z</time>
      </trkpt>
      <trkpt lat="44.43543" lon="5.71006">
        <ele>690.5</ele>
        <time>2022-10-28T13:12:15Z</time>
      </trkpt>
      <trkpt lat="44.43537" lon="5.71007">
        <ele>690.3</ele>
        <time>2022-10-28T13:12:16Z</time>
      </trkpt>
      <trkpt lat="44.43532" lon="5.71008">
        <ele>690.2</ele>
        <time>2022-10-28T13:12:17Z</time>
      </trkpt>
      <trkpt lat="44.43526" lon="5.7101">
        <ele>690</ele>
        <time>2022-10-28T13:12:18Z</time>
      </trkpt>
      <trkpt lat="44.43521" lon="5.71012">
        <ele>689.8</ele>
        <time>2022-10-28T13:12:19Z</time>
      </trkpt>
      <trkpt lat="44.43515" lon="5.71014">
        <ele>689.5</ele>
        <time>2022-10-28T13:12:20Z</time>
      </trkpt>
      <trkpt lat="44.43509" lon="5.71016">
        <ele>689.2</ele>
        <time>2022-10-28T13:12:21Z</time>
      </trkpt>
      <trkpt lat="44.43503" lon="5.71019">
        <ele>688.8</ele>
        <time>2022-10-28T13:12:22Z</time>
      </trkpt>
      <trkpt lat="44.43497" lon="5.71022">
        <ele>688.5</ele>
        <time>2022-10-28T13:12:23Z</time>
      </trkpt>
      <trkpt lat="44.4349" lon="5.71024">
        <ele>688.1</ele>
        <time>2022-10-28T13:12:24Z</time>
      </trkpt>
      <trkpt lat="44.43483" lon="5.71026">
        <ele>687.6</ele>
        <time>2022-10-28T13:12:25Z</time>
      </trkpt>
      <trkpt lat="44.43476" lon="5.71029">
        <ele>687.2</ele>
        <time>2022-10-28T13:12:26Z</time>
      </trkpt>
      <trkpt lat="44.43469" lon="5.71032">
        <ele>686.8</ele>
        <time>2022-10-28T13:12:27Z</time>
      </trkpt>
      <trkpt lat="44.43461" lon="5.71036">
        <ele>686.3</ele>
        <time>2022-10-28T13:12:28Z</time>
      </trkpt>
      <trkpt lat="44.43453" lon="5.71039">
        <ele>685.8</ele>
        <time>2022-10-28T13:12:29Z</time>
      </trkpt>
      <trkpt lat="44.43445" lon="5.71044">
        <ele>685.3</ele>
        <time>2022-10-28T13:12:30Z</time>
      </trkpt>
      <trkpt lat="44.43438" lon="5.71049">
        <ele>684.9</ele>
        <time>2022-10-28T13:12:31Z</time>
      </trkpt>
      <trkpt lat="44.4343" lon="5.71055">
        <ele>684.3</ele>
        <time>2022-10-28T13:12:32Z</time>
      </trkpt>
      <trkpt lat="44.43422" lon="5.71059">
        <ele>683.8</ele>
        <time>2022-10-28T13:12:33Z</time>
      </trkpt>
      <trkpt lat="44.43414" lon="5.71064">
        <ele>683.2</ele>
        <time>2022-10-28T13:12:34Z</time>
      </trkpt>
      <trkpt lat="44.43406" lon="5.71068">
        <ele>682.7</ele>
        <time>2022-10-28T13:12:35Z</time>
      </trkpt>
      <trkpt lat="44.43398" lon="5.71073">
        <ele>682.1</ele>
        <time>2022-10-28T13:12:36Z</time>
      </trkpt>
      <trkpt lat="44.43389" lon="5.71078">
        <ele>681.5</ele>
        <time>2022-10-28T13:12:37Z</time>
      </trkpt>
      <trkpt lat="44.43381" lon="5.71082">
        <ele>680.8</ele>
        <time>2022-10-28T13:12:38Z</time>
      </trkpt>
      <trkpt lat="44.43371" lon="5.71086">
        <ele>680.1</ele>
        <time>2022-10-28T13:12:39Z</time>
      </trkpt>
      <trkpt lat="44.43362" lon="5.71091">
        <ele>679.3</ele>
        <time>2022-10-28T13:12:40Z</time>
      </trkpt>
      <trkpt lat="44.43352" lon="5.71097">
        <ele>678.6</ele>
        <time>2022-10-28T13:12:41Z</time>
      </trkpt>
      <trkpt lat="44.43343" lon="5.71102">
        <ele>677.9</ele>
        <time>2022-10-28T13:12:42Z</time>
      </trkpt>
      <trkpt lat="44.43334" lon="5.71108">
        <ele>677.1</ele>
        <time>2022-10-28T13:12:43Z</time>
      </trkpt>
      <trkpt lat="44.43325" lon="5.71114">
        <ele>676.3</ele>
        <time>2022-10-28T13:12:44Z</time>
      </trkpt>
      <trkpt lat="44.43316" lon="5.71122">
        <ele>675.5</ele>
        <time>2022-10-28T13:12:45Z</time>
      </trkpt>
      <trkpt lat="44.43306" lon="5.71129">
        <ele>674.8</ele>
        <time>2022-10-28T13:12:46Z</time>
      </trkpt>
      <trkpt lat="44.43298" lon="5.71138">
        <ele>674.1</ele>
        <time>2022-10-28T13:12:47Z</time>
      </trkpt>
      <trkpt lat="44.43289" lon="5.71147">
        <ele>673.5</ele>
        <time>2022-10-28T13:12:48Z</time>
      </trkpt>
      <trkpt lat="44.43282" lon="5.71158">
        <ele>673</ele>
        <time>2022-10-28T13:12:49Z</time>
      </trkpt>
      <trkpt lat="44.43276" lon="5.71171">
        <ele>672.6</ele>
        <time>2022-10-28T13:12:50Z</time>
      </trkpt>
      <trkpt lat="44.43271" lon="5.71184">
        <ele>672.2</ele>
        <time>2022-10-28T13:12:51Z</time>
      </trkpt>
      <trkpt lat="44.43267" lon="5.71197">
        <ele>671.8</ele>
        <time>2022-10-28T13:12:52Z</time>
      </trkpt>
      <trkpt lat="44.43263" lon="5.71209">
        <ele>671.4</ele>
        <time>2022-10-28T13:12:53Z</time>
      </trkpt>
      <trkpt lat="44.43257" lon="5.71221">
        <ele>671.1</ele>
        <time>2022-10-28T13:12:54Z</time>
      </trkpt>
      <trkpt lat="44.43251" lon="5.71232">
        <ele>670.8</ele>
        <time>2022-10-28T13:12:55Z</time>
      </trkpt>
      <trkpt lat="44.43246" lon="5.71243">
        <ele>670.7</ele>
        <time>2022-10-28T13:12:56Z</time>
      </trkpt>
      <trkpt lat="44.4324" lon="5.71253">
        <ele>670.6</ele>
        <time>2022-10-28T13:12:57Z</time>
      </trkpt>
      <trkpt lat="44.43234" lon="5.71262">
        <ele>670.5</ele>
        <time>2022-10-28T13:12:58Z</time>
      </trkpt>
      <trkpt lat="44.43228" lon="5.71271">
        <ele>670.5</ele>
        <time>2022-10-28T13:12:59Z</time>
      </trkpt>
      <trkpt lat="44.43222" lon="5.71281">
        <ele>670.6</ele>
        <time>2022-10-28T13:13:00Z</time>
      </trkpt>
      <trkpt lat="44.43217" lon="5.7129">
        <ele>670.6</ele>
        <time>2022-10-28T13:13:01Z</time>
      </trkpt>
      <trkpt lat="44.43213" lon="5.71298">
        <ele>670.6</ele>
        <time>2022-10-28T13:13:02Z</time>
      </trkpt>
      <trkpt lat="44.43208" lon="5.71304">
        <ele>670.6</ele>
        <time>2022-10-28T13:13:03Z</time>
      </trkpt>
      <trkpt lat="44.43203" lon="5.71307">
        <ele>670.6</ele>
        <time>2022-10-28T13:13:04Z</time>
      </trkpt>
      <trkpt lat="44.43197" lon="5.71308">
        <ele>670.6</ele>
        <time>2022-10-28T13:13:05Z</time>
      </trkpt>
      <trkpt lat="44.43192" lon="5.71307">
        <ele>670.6</ele>
        <time>2022-10-28T13:13:06Z</time>
      </trkpt>
      <trkpt lat="44.43188" lon="5.71306">
        <ele>670.6</ele>
        <time>2022-10-28T13:13:07Z</time>
      </trkpt>
      <trkpt lat="44.43185" lon="5.71306">
        <ele>670.6</ele>
        <time>2022-10-28T13:13:08Z</time>
      </trkpt>
      <trkpt lat="44.43182" lon="5.71307">
        <ele>670.6</ele>
        <time>2022-10-28T13:13:09Z</time>
      </trkpt>
      <trkpt lat="44.43181" lon="5.71308">
        <ele>670.6</ele>
        <time>2022-10-28T13:13:10Z</time>
      </trkpt>
      <trkpt lat="44.43178" lon="5.71309">
        <ele>670.6</ele>
        <time>2022-10-28T13:13:11Z</time>
      </trkpt>
      <trkpt lat="44.43175" lon="5.7131">
        <ele>670.6</ele>
        <time>2022-10-28T13:13:12Z</time>
      </trkpt>
      <trkpt lat="44.43171" lon="5.71312">
        <ele>670.6</ele>
        <time>2022-10-28T13:13:13Z</time>
      </trkpt>
      <trkpt lat="44.43167" lon="5.71314">
        <ele>670.7</ele>
        <time>2022-10-28T13:13:14Z</time>
      </trkpt>
      <trkpt lat="44.43163" lon="5.71316">
        <ele>670.7</ele>
        <time>2022-10-28T13:13:15Z</time>
      </trkpt>
      <trkpt lat="44.4316" lon="5.7132">
        <ele>670.7</ele>
        <time>2022-10-28T13:13:16Z</time>
      </trkpt>
      <trkpt lat="44.43154" lon="5.71324">
        <ele>670.7</ele>
        <time>2022-10-28T13:13:17Z</time>
      </trkpt>
      <trkpt lat="44.4315" lon="5.71329">
        <ele>670.7</ele>
        <time>2022-10-28T13:13:18Z</time>
      </trkpt>
      <trkpt lat="44.43145" lon="5.71333">
        <ele>670.7</ele>
        <time>2022-10-28T13:13:19Z</time>
      </trkpt>
      <trkpt lat="44.43141" lon="5.71338">
        <ele>670.7</ele>
        <time>2022-10-28T13:13:20Z</time>
      </trkpt>
      <trkpt lat="44.43138" lon="5.71343">
        <ele>670.7</ele>
        <time>2022-10-28T13:13:21Z</time>
      </trkpt>
      <trkpt lat="44.43135" lon="5.71349">
        <ele>670.7</ele>
        <time>2022-10-28T13:13:22Z</time>
      </trkpt>
      <trkpt lat="44.43133" lon="5.71356">
        <ele>670.7</ele>
        <time>2022-10-28T13:13:23Z</time>
      </trkpt>
      <trkpt lat="44.4313" lon="5.71362">
        <ele>670.7</ele>
        <time>2022-10-28T13:13:24Z</time>
      </trkpt>
      <trkpt lat="44.43128" lon="5.71369">
        <ele>670.8</ele>
        <time>2022-10-28T13:13:25Z</time>
      </trkpt>
      <trkpt lat="44.43125" lon="5.71376">
        <ele>670.8</ele>
        <time>2022-10-28T13:13:26Z</time>
      </trkpt>
      <trkpt lat="44.43123" lon="5.71383">
        <ele>670.8</ele>
        <time>2022-10-28T13:13:27Z</time>
      </trkpt>
      <trkpt lat="44.4312" lon="5.71389">
        <ele>670.9</ele>
        <time>2022-10-28T13:13:28Z</time>
      </trkpt>
      <trkpt lat="44.43118" lon="5.71396">
        <ele>670.9</ele>
        <time>2022-10-28T13:13:29Z</time>
      </trkpt>
      <trkpt lat="44.43115" lon="5.71404">
        <ele>670.9</ele>
        <time>2022-10-28T13:13:30Z</time>
      </trkpt>
      <trkpt lat="44.43113" lon="5.71411">
        <ele>670.9</ele>
        <time>2022-10-28T13:13:31Z</time>
      </trkpt>
      <trkpt lat="44.4311" lon="5.71417">
        <ele>670.9</ele>
        <time>2022-10-28T13:13:32Z</time>
      </trkpt>
      <trkpt lat="44.43108" lon="5.71422">
        <ele>670.9</ele>
        <time>2022-10-28T13:13:33Z</time>
      </trkpt>
      <trkpt lat="44.43106" lon="5.71426">
        <ele>670.9</ele>
        <time>2022-10-28T13:13:34Z</time>
      </trkpt>
      <trkpt lat="44.43105" lon="5.71428">
        <ele>670.9</ele>
        <time>2022-10-28T13:13:35Z</time>
      </trkpt>
      <trkpt lat="44.43106" lon="5.71429">
        <ele>670.9</ele>
        <time>2022-10-28T13:13:36Z</time>
      </trkpt>
      <trkpt lat="44.43106" lon="5.7143">
        <ele>670.9</ele>
        <time>2022-10-28T13:13:37Z</time>
      </trkpt>
      <trkpt lat="44.43104" lon="5.71434">
        <ele>670.9</ele>
        <time>2022-10-28T13:13:38Z</time>
      </trkpt>
      <trkpt lat="44.43104" lon="5.71435">
        <ele>670.9</ele>
        <time>2022-10-28T13:13:39Z</time>
      </trkpt>
      <trkpt lat="44.43102" lon="5.71439">
        <ele>671</ele>
        <time>2022-10-28T13:13:40Z</time>
      </trkpt>
      <trkpt lat="44.43101" lon="5.7144">
        <ele>671</ele>
        <time>2022-10-28T13:13:41Z</time>
      </trkpt>
      <trkpt lat="44.431" lon="5.71443">
        <ele>671</ele>
        <time>2022-10-28T13:13:42Z</time>
      </trkpt>
      <trkpt lat="44.43098" lon="5.71447">
        <ele>671</ele>
        <time>2022-10-28T13:13:43Z</time>
      </trkpt>
      <trkpt lat="44.43096" lon="5.71451">
        <ele>671</ele>
        <time>2022-10-28T13:13:44Z</time>
      </trkpt>
      <trkpt lat="44.43094" lon="5.71455">
        <ele>671</ele>
        <time>2022-10-28T13:13:45Z</time>
      </trkpt>
      <trkpt lat="44.43092" lon="5.71458">
        <ele>671.1</ele>
        <time>2022-10-28T13:13:46Z</time>
      </trkpt>
      <trkpt lat="44.4309" lon="5.71462">
        <ele>671.1</ele>
        <time>2022-10-28T13:13:47Z</time>
      </trkpt>
      <trkpt lat="44.43088" lon="5.71468">
        <ele>671.1</ele>
        <time>2022-10-28T13:13:48Z</time>
      </trkpt>
      <trkpt lat="44.43085" lon="5.71473">
        <ele>671.2</ele>
        <time>2022-10-28T13:13:49Z</time>
      </trkpt>
      <trkpt lat="44.43083" lon="5.71478">
        <ele>671.2</ele>
        <time>2022-10-28T13:13:50Z</time>
      </trkpt>
      <trkpt lat="44.4308" lon="5.71484">
        <ele>671.2</ele>
        <time>2022-10-28T13:13:51Z</time>
      </trkpt>
      <trkpt lat="44.43079" lon="5.71488">
        <ele>671.2</ele>
        <time>2022-10-28T13:13:52Z</time>
      </trkpt>
      <trkpt lat="44.43076" lon="5.71494">
        <ele>671.3</ele>
        <time>2022-10-28T13:13:53Z</time>
      </trkpt>
      <trkpt lat="44.43074" lon="5.71498">
        <ele>671.3</ele>
        <time>2022-10-28T13:13:54Z</time>
      </trkpt>
      <trkpt lat="44.43072" lon="5.71502">
        <ele>671.3</ele>
        <time>2022-10-28T13:13:55Z</time>
      </trkpt>
      <trkpt lat="44.43069" lon="5.71506">
        <ele>671.4</ele>
        <time>2022-10-28T13:13:56Z</time>
      </trkpt>
      <trkpt lat="44.43067" lon="5.71507">
        <ele>671.4</ele>
        <time>2022-10-28T13:13:57Z</time>
      </trkpt>
      <trkpt lat="44.43066" lon="5.71507">
        <ele>671.4</ele>
        <time>2022-10-28T13:13:58Z</time>
      </trkpt>
      <trkpt lat="44.43066" lon="5.71507">
        <ele>671.4</ele>
        <time>2022-10-28T13:13:59Z</time>
      </trkpt>
      <trkpt lat="44.43066" lon="5.71508">
        <ele>671.4</ele>
        <time>2022-10-28T13:14:00Z</time>
      </trkpt>
      <trkpt lat="44.43066" lon="5.71508">
        <ele>671.4</ele>
        <time>2022-10-28T13:14:01Z</time>
      </trkpt>
      <trkpt lat="44.43066" lon="5.71509">
        <ele>671.4</ele>
        <time>2022-10-28T13:14:02Z</time>
      </trkpt>
      <trkpt lat="44.43066" lon="5.71509">
        <ele>671.4</ele>
        <time>2022-10-28T13:14:03Z</time>
      </trkpt>
      <trkpt lat="44.43065" lon="5.71509">
        <ele>671.4</ele>
        <time>2022-10-28T13:14:04Z</time>
      </trkpt>
      <trkpt lat="44.43065" lon="5.71509">
        <ele>671.4</ele>
        <time>2022-10-28T13:14:05Z</time>
      </trkpt>
      <trkpt lat="44.43065" lon="5.71509">
        <ele>671.4</ele>
        <time>2022-10-28T13:14:06Z</time>
      </trkpt>
      <trkpt lat="44.43065" lon="5.71509">
        <ele>671.4</ele>
        <time>2022-10-28T13:14:07Z</time>
      </trkpt>
      <trkpt lat="44.43065" lon="5.71509">
        <ele>671.4</ele>
        <time>2022-10-28T13:14:08Z</time>
      </trkpt>
      <trkpt lat="44.43065" lon="5.71509">
        <ele>671.4</ele>
        <time>2022-10-28T13:14:09Z</time>
      </trkpt>
      <trkpt lat="44.43065" lon="5.71509">
        <ele>671.4</ele>
        <time>2022-10-28T13:14:10Z</time>
      </trkpt>
      <trkpt lat="44.43065" lon="5.71508">
        <ele>671.4</ele>
        <time>2022-10-28T13:14:11Z</time>
      </trkpt>
      <trkpt lat="44.43065" lon="5.71508">
        <ele>671.4</ele>
        <time>2022-10-28T13:14:12Z</time>
      </trkpt>
      <trkpt lat="44.43065" lon="5.71509">
        <ele>671.4</ele>
        <time>2022-10-28T13:14:13Z</time>
      </trkpt>
      <trkpt lat="44.43065" lon="5.71509">
        <ele>671.4</ele>
        <time>2022-10-28T13:14:14Z</time>
      </trkpt>
      <trkpt lat="44.43064" lon="5.71511">
        <ele>671.4</ele>
        <time>2022-10-28T13:14:15Z</time>
      </trkpt>
      <trkpt lat="44.43064" lon="5.71513">
        <ele>671.4</ele>
        <time>2022-10-28T13:14:16Z</time>
      </trkpt>
      <trkpt lat="44.43064" lon="5.71515">
        <ele>671.5</ele>
        <time>2022-10-28T13:14:17Z</time>
      </trkpt>
      <trkpt lat="44.43063" lon="5.71516">
        <ele>671.5</ele>
        <time>2022-10-28T13:14:18Z</time>
      </trkpt>
      <trkpt lat="44.43061" lon="5.7152">
        <ele>671.5</ele>
        <time>2022-10-28T13:14:19Z</time>
      </trkpt>
      <trkpt lat="44.4306" lon="5.71523">
        <ele>671.5</ele>
        <time>2022-10-28T13:14:20Z</time>
      </trkpt>
      <trkpt lat="44.43058" lon="5.71528">
        <ele>671.5</ele>
        <time>2022-10-28T13:14:21Z</time>
      </trkpt>
      <trkpt lat="44.43057" lon="5.71534">
        <ele>671.5</ele>
        <time>2022-10-28T13:14:22Z</time>
      </trkpt>
      <trkpt lat="44.43056" lon="5.71539">
        <ele>671.5</ele>
        <time>2022-10-28T13:14:23Z</time>
      </trkpt>
      <trkpt lat="44.43055" lon="5.71544">
        <ele>671.4</ele>
        <time>2022-10-28T13:14:24Z</time>
      </trkpt>
      <trkpt lat="44.43054" lon="5.7155">
        <ele>671.3</ele>
        <time>2022-10-28T13:14:25Z</time>
      </trkpt>
      <trkpt lat="44.43053" lon="5.71558">
        <ele>671.2</ele>
        <time>2022-10-28T13:14:27Z</time>
      </trkpt>
      <trkpt lat="44.43051" lon="5.71566">
        <ele>671.1</ele>
        <time>2022-10-28T13:14:28Z</time>
      </trkpt>
      <trkpt lat="44.4305" lon="5.71575">
        <ele>670.9</ele>
        <time>2022-10-28T13:14:29Z</time>
      </trkpt>
      <trkpt lat="44.43048" lon="5.71583">
        <ele>670.8</ele>
        <time>2022-10-28T13:14:30Z</time>
      </trkpt>
      <trkpt lat="44.43047" lon="5.71591">
        <ele>670.6</ele>
        <time>2022-10-28T13:14:31Z</time>
      </trkpt>
      <trkpt lat="44.43045" lon="5.71598">
        <ele>670.5</ele>
        <time>2022-10-28T13:14:32Z</time>
      </trkpt>
      <trkpt lat="44.43044" lon="5.71606">
        <ele>670.3</ele>
        <time>2022-10-28T13:14:33Z</time>
      </trkpt>
      <trkpt lat="44.43042" lon="5.71613">
        <ele>670.2</ele>
        <time>2022-10-28T13:14:34Z</time>
      </trkpt>
      <trkpt lat="44.4304" lon="5.7162">
        <ele>670.1</ele>
        <time>2022-10-28T13:14:35Z</time>
      </trkpt>
      <trkpt lat="44.43038" lon="5.71627">
        <ele>669.9</ele>
        <time>2022-10-28T13:14:36Z</time>
      </trkpt>
      <trkpt lat="44.43035" lon="5.71634">
        <ele>669.8</ele>
        <time>2022-10-28T13:14:37Z</time>
      </trkpt>
      <trkpt lat="44.43033" lon="5.71642">
        <ele>669.6</ele>
        <time>2022-10-28T13:14:38Z</time>
      </trkpt>
      <trkpt lat="44.4303" lon="5.7165">
        <ele>669.4</ele>
        <time>2022-10-28T13:14:39Z</time>
      </trkpt>
      <trkpt lat="44.43027" lon="5.71656">
        <ele>669.3</ele>
        <time>2022-10-28T13:14:40Z</time>
      </trkpt>
      <trkpt lat="44.43025" lon="5.71661">
        <ele>669.1</ele>
        <time>2022-10-28T13:14:41Z</time>
      </trkpt>
      <trkpt lat="44.43023" lon="5.71667">
        <ele>669</ele>
        <time>2022-10-28T13:14:42Z</time>
      </trkpt>
      <trkpt lat="44.43022" lon="5.71669">
        <ele>668.9</ele>
        <time>2022-10-28T13:14:43Z</time>
      </trkpt>
      <trkpt lat="44.4302" lon="5.71673">
        <ele>668.8</ele>
        <time>2022-10-28T13:14:44Z</time>
      </trkpt>
      <trkpt lat="44.43018" lon="5.71678">
        <ele>668.7</ele>
        <time>2022-10-28T13:14:45Z</time>
      </trkpt>
      <trkpt lat="44.43017" lon="5.71682">
        <ele>668.7</ele>
        <time>2022-10-28T13:14:46Z</time>
      </trkpt>
      <trkpt lat="44.43015" lon="5.71685">
        <ele>668.6</ele>
        <time>2022-10-28T13:14:47Z</time>
      </trkpt>
      <trkpt lat="44.43013" lon="5.7169">
        <ele>668.6</ele>
        <time>2022-10-28T13:14:48Z</time>
      </trkpt>
      <trkpt lat="44.43012" lon="5.71695">
        <ele>668.5</ele>
        <time>2022-10-28T13:14:49Z</time>
      </trkpt>
      <trkpt lat="44.4301" lon="5.717">
        <ele>668.4</ele>
        <time>2022-10-28T13:14:50Z</time>
      </trkpt>
      <trkpt lat="44.43007" lon="5.71707">
        <ele>668.2</ele>
        <time>2022-10-28T13:14:51Z</time>
      </trkpt>
      <trkpt lat="44.43005" lon="5.71712">
        <ele>668</ele>
        <time>2022-10-28T13:14:52Z</time>
      </trkpt>
      <trkpt lat="44.43003" lon="5.71717">
        <ele>667.8</ele>
        <time>2022-10-28T13:14:54Z</time>
      </trkpt>
      <trkpt lat="44.42999" lon="5.71722">
        <ele>667.6</ele>
        <time>2022-10-28T13:14:55Z</time>
      </trkpt>
      <trkpt lat="44.42995" lon="5.71727">
        <ele>667.4</ele>
        <time>2022-10-28T13:14:56Z</time>
      </trkpt>
      <trkpt lat="44.42993" lon="5.7173">
        <ele>667.3</ele>
        <time>2022-10-28T13:14:57Z</time>
      </trkpt>
      <trkpt lat="44.4299" lon="5.71732">
        <ele>667.2</ele>
        <time>2022-10-28T13:14:58Z</time>
      </trkpt>
      <trkpt lat="44.42989" lon="5.71733">
        <ele>667.2</ele>
        <time>2022-10-28T13:14:59Z</time>
      </trkpt>
      <trkpt lat="44.42987" lon="5.71733">
        <ele>667.1</ele>
        <time>2022-10-28T13:15:00Z</time>
      </trkpt>
      <trkpt lat="44.42984" lon="5.71734">
        <ele>667</ele>
        <time>2022-10-28T13:15:02Z</time>
      </trkpt>
      <trkpt lat="44.42979" lon="5.71736">
        <ele>666.8</ele>
        <time>2022-10-28T13:15:03Z</time>
      </trkpt>
      <trkpt lat="44.42976" lon="5.71737">
        <ele>666.8</ele>
        <time>2022-10-28T13:15:04Z</time>
      </trkpt>
      <trkpt lat="44.42973" lon="5.71738">
        <ele>666.7</ele>
        <time>2022-10-28T13:15:05Z</time>
      </trkpt>
      <trkpt lat="44.42968" lon="5.71738">
        <ele>666.6</ele>
        <time>2022-10-28T13:15:06Z</time>
      </trkpt>
      <trkpt lat="44.42964" lon="5.71739">
        <ele>666.6</ele>
        <time>2022-10-28T13:15:07Z</time>
      </trkpt>
      <trkpt lat="44.42961" lon="5.71739">
        <ele>666.5</ele>
        <time>2022-10-28T13:15:08Z</time>
      </trkpt>
      <trkpt lat="44.42957" lon="5.71738">
        <ele>666.4</ele>
        <time>2022-10-28T13:15:09Z</time>
      </trkpt>
      <trkpt lat="44.42956" lon="5.71738">
        <ele>666.4</ele>
        <time>2022-10-28T13:15:10Z</time>
      </trkpt>
      <trkpt lat="44.42954" lon="5.71737">
        <ele>666.4</ele>
        <time>2022-10-28T13:15:11Z</time>
      </trkpt>
      <trkpt lat="44.42953" lon="5.71737">
        <ele>666.4</ele>
        <time>2022-10-28T13:15:12Z</time>
      </trkpt>
      <trkpt lat="44.42952" lon="5.71737">
        <ele>666.4</ele>
        <time>2022-10-28T13:15:13Z</time>
      </trkpt>
      <trkpt lat="44.4295" lon="5.71737">
        <ele>666.3</ele>
        <time>2022-10-28T13:15:14Z</time>
      </trkpt>
      <trkpt lat="44.42947" lon="5.71736">
        <ele>666.3</ele>
        <time>2022-10-28T13:15:15Z</time>
      </trkpt>
      <trkpt lat="44.42944" lon="5.71734">
        <ele>666.2</ele>
        <time>2022-10-28T13:15:16Z</time>
      </trkpt>
      <trkpt lat="44.42943" lon="5.71734">
        <ele>666.2</ele>
        <time>2022-10-28T13:15:17Z</time>
      </trkpt>
      <trkpt lat="44.42939" lon="5.71732">
        <ele>666.2</ele>
        <time>2022-10-28T13:15:18Z</time>
      </trkpt>
      <trkpt lat="44.42938" lon="5.71732">
        <ele>666.1</ele>
        <time>2022-10-28T13:15:19Z</time>
      </trkpt>
      <trkpt lat="44.42935" lon="5.7173">
        <ele>666.1</ele>
        <time>2022-10-28T13:15:20Z</time>
      </trkpt>
      <trkpt lat="44.42934" lon="5.7173">
        <ele>666</ele>
        <time>2022-10-28T13:15:21Z</time>
      </trkpt>
      <trkpt lat="44.42931" lon="5.71728">
        <ele>666</ele>
        <time>2022-10-28T13:15:22Z</time>
      </trkpt>
      <trkpt lat="44.4293" lon="5.71727">
        <ele>665.9</ele>
        <time>2022-10-28T13:15:23Z</time>
      </trkpt>
      <trkpt lat="44.42927" lon="5.71724">
        <ele>665.9</ele>
        <time>2022-10-28T13:15:24Z</time>
      </trkpt>
      <trkpt lat="44.42925" lon="5.7172">
        <ele>666</ele>
        <time>2022-10-28T13:15:26Z</time>
      </trkpt>
      <trkpt lat="44.42922" lon="5.71716">
        <ele>666</ele>
        <time>2022-10-28T13:15:27Z</time>
      </trkpt>
      <trkpt lat="44.42921" lon="5.71712">
        <ele>666</ele>
        <time>2022-10-28T13:15:28Z</time>
      </trkpt>
      <trkpt lat="44.4292" lon="5.71706">
        <ele>666</ele>
        <time>2022-10-28T13:15:30Z</time>
      </trkpt>
      <trkpt lat="44.4292" lon="5.71704">
        <ele>666</ele>
        <time>2022-10-28T13:15:31Z</time>
      </trkpt>
      <trkpt lat="44.4292" lon="5.71703">
        <ele>666.1</ele>
        <time>2022-10-28T13:15:32Z</time>
      </trkpt>
      <trkpt lat="44.4292" lon="5.71701">
        <ele>666.1</ele>
        <time>2022-10-28T13:15:33Z</time>
      </trkpt>
      <trkpt lat="44.4292" lon="5.71701">
        <ele>666.1</ele>
        <time>2022-10-28T13:15:34Z</time>
      </trkpt>
      <trkpt lat="44.42921" lon="5.717">
        <ele>666.1</ele>
        <time>2022-10-28T13:15:35Z</time>
      </trkpt>
      <trkpt lat="44.42921" lon="5.717">
        <ele>666.1</ele>
        <time>2022-10-28T13:15:36Z</time>
      </trkpt>
      <trkpt lat="44.42921" lon="5.717">
        <ele>666.1</ele>
        <time>2022-10-28T13:15:37Z</time>
      </trkpt>
      <trkpt lat="44.42921" lon="5.717">
        <ele>666.1</ele>
        <time>2022-10-28T13:15:38Z</time>
      </trkpt>
      <trkpt lat="44.42921" lon="5.717">
        <ele>666.1</ele>
        <time>2022-10-28T13:15:39Z</time>
      </trkpt>
      <trkpt lat="44.42921" lon="5.71699">
        <ele>666.1</ele>
        <time>2022-10-28T13:15:40Z</time>
      </trkpt>
      <trkpt lat="44.42921" lon="5.71699">
        <ele>666.1</ele>
        <time>2022-10-28T13:15:41Z</time>
      </trkpt>
      <trkpt lat="44.42921" lon="5.71699">
        <ele>666.1</ele>
        <time>2022-10-28T13:15:42Z</time>
      </trkpt>
      <trkpt lat="44.42922" lon="5.71699">
        <ele>666.1</ele>
        <time>2022-10-28T13:15:43Z</time>
      </trkpt>
      <trkpt lat="44.42922" lon="5.71698">
        <ele>666.1</ele>
        <time>2022-10-28T13:15:44Z</time>
      </trkpt>
      <trkpt lat="44.42922" lon="5.71698">
        <ele>666.1</ele>
        <time>2022-10-28T13:15:45Z</time>
      </trkpt>
      <trkpt lat="44.42925" lon="5.71699">
        <ele>666.2</ele>
        <time>2022-10-28T13:16:07Z</time>
      </trkpt>
      <trkpt lat="44.42926" lon="5.717">
        <ele>666.2</ele>
        <time>2022-10-28T13:16:08Z</time>
      </trkpt>
      <trkpt lat="44.42926" lon="5.71701">
        <ele>666.2</ele>
        <time>2022-10-28T13:16:09Z</time>
      </trkpt>
      <trkpt lat="44.42926" lon="5.717">
        <ele>666.3</ele>
        <time>2022-10-28T13:16:10Z</time>
      </trkpt>
      <trkpt lat="44.42926" lon="5.71701">
        <ele>666.3</ele>
        <time>2022-10-28T13:16:11Z</time>
      </trkpt>
      <trkpt lat="44.42927" lon="5.71702">
        <ele>666.3</ele>
        <time>2022-10-28T13:16:12Z</time>
      </trkpt>
      <trkpt lat="44.42928" lon="5.71704">
        <ele>666.3</ele>
        <time>2022-10-28T13:16:13Z</time>
      </trkpt>
      <trkpt lat="44.42929" lon="5.71704">
        <ele>666.4</ele>
        <time>2022-10-28T13:16:14Z</time>
      </trkpt>
      <trkpt lat="44.42929" lon="5.71705">
        <ele>666.4</ele>
        <time>2022-10-28T13:16:15Z</time>
      </trkpt>
      <trkpt lat="44.4293" lon="5.71705">
        <ele>666.4</ele>
        <time>2022-10-28T13:16:16Z</time>
      </trkpt>
      <trkpt lat="44.4293" lon="5.71705">
        <ele>666.4</ele>
        <time>2022-10-28T13:16:17Z</time>
      </trkpt>
      <trkpt lat="44.4293" lon="5.71705">
        <ele>666.4</ele>
        <time>2022-10-28T13:16:18Z</time>
      </trkpt>
      <trkpt lat="44.4293" lon="5.71705">
        <ele>666.4</ele>
        <time>2022-10-28T13:16:19Z</time>
      </trkpt>
      <trkpt lat="44.4293" lon="5.71705">
        <ele>666.4</ele>
        <time>2022-10-28T13:16:20Z</time>
      </trkpt>
      <trkpt lat="44.4293" lon="5.71705">
        <ele>666.4</ele>
        <time>2022-10-28T13:16:21Z</time>
      </trkpt>
      <trkpt lat="44.4293" lon="5.71706">
        <ele>666.4</ele>
        <time>2022-10-28T13:16:22Z</time>
      </trkpt>
      <trkpt lat="44.4293" lon="5.71706">
        <ele>666.4</ele>
        <time>2022-10-28T13:16:23Z</time>
      </trkpt>
      <trkpt lat="44.4293" lon="5.71706">
        <ele>666.4</ele>
        <time>2022-10-28T13:16:24Z</time>
      </trkpt>
      <trkpt lat="44.42929" lon="5.71705">
        <ele>666.4</ele>
        <time>2022-10-28T13:16:25Z</time>
      </trkpt>
      <trkpt lat="44.42928" lon="5.71704">
        <ele>666.4</ele>
        <time>2022-10-28T13:16:27Z</time>
      </trkpt>
      <trkpt lat="44.42928" lon="5.71702">
        <ele>666.4</ele>
        <time>2022-10-28T13:16:28Z</time>
      </trkpt>
      <trkpt lat="44.42927" lon="5.71701">
        <ele>666.4</ele>
        <time>2022-10-28T13:16:29Z</time>
      </trkpt>
      <trkpt lat="44.42926" lon="5.717">
        <ele>666.4</ele>
        <time>2022-10-28T13:16:30Z</time>
      </trkpt>
      <trkpt lat="44.42925" lon="5.71697">
        <ele>666.4</ele>
        <time>2022-10-28T13:16:32Z</time>
      </trkpt>
      <trkpt lat="44.42925" lon="5.71695">
        <ele>666.4</ele>
        <time>2022-10-28T13:16:33Z</time>
      </trkpt>
      <trkpt lat="44.42924" lon="5.71694">
        <ele>666.4</ele>
        <time>2022-10-28T13:16:34Z</time>
      </trkpt>
      <trkpt lat="44.42924" lon="5.71692">
        <ele>666.4</ele>
        <time>2022-10-28T13:16:35Z</time>
      </trkpt>
      <trkpt lat="44.42924" lon="5.71691">
        <ele>666.4</ele>
        <time>2022-10-28T13:16:36Z</time>
      </trkpt>
      <trkpt lat="44.42924" lon="5.7169">
        <ele>666.4</ele>
        <time>2022-10-28T13:16:37Z</time>
      </trkpt>
      <trkpt lat="44.42924" lon="5.7169">
        <ele>666.4</ele>
        <time>2022-10-28T13:16:38Z</time>
      </trkpt>
      <trkpt lat="44.42923" lon="5.7169">
        <ele>666.4</ele>
        <time>2022-10-28T13:16:39Z</time>
      </trkpt>
      <trkpt lat="44.42923" lon="5.7169">
        <ele>666.4</ele>
        <time>2022-10-28T13:16:40Z</time>
      </trkpt>
      <trkpt lat="44.42923" lon="5.7169">
        <ele>666.4</ele>
        <time>2022-10-28T13:16:41Z</time>
      </trkpt>
      <trkpt lat="44.42923" lon="5.7169">
        <ele>666.4</ele>
        <time>2022-10-28T13:16:42Z</time>
      </trkpt>
      <trkpt lat="44.42923" lon="5.7169">
        <ele>666.4</ele>
        <time>2022-10-28T13:16:43Z</time>
      </trkpt>
      <trkpt lat="44.42923" lon="5.71689">
        <ele>666.4</ele>
        <time>2022-10-28T13:16:44Z</time>
      </trkpt>
      <trkpt lat="44.42923" lon="5.71689">
        <ele>666.4</ele>
        <time>2022-10-28T13:16:45Z</time>
      </trkpt>
      <trkpt lat="44.42924" lon="5.71689">
        <ele>666.4</ele>
        <time>2022-10-28T13:16:47Z</time>
      </trkpt>
      <trkpt lat="44.42925" lon="5.71688">
        <ele>666.4</ele>
        <time>2022-10-28T13:16:48Z</time>
      </trkpt>
      <trkpt lat="44.42926" lon="5.71688">
        <ele>666.4</ele>
        <time>2022-10-28T13:16:49Z</time>
      </trkpt>
      <trkpt lat="44.42926" lon="5.71688">
        <ele>666.4</ele>
        <time>2022-10-28T13:16:50Z</time>
      </trkpt>
      <trkpt lat="44.42927" lon="5.71688">
        <ele>666.4</ele>
        <time>2022-10-28T13:16:51Z</time>
      </trkpt>
      <trkpt lat="44.42927" lon="5.71688">
        <ele>666.4</ele>
        <time>2022-10-28T13:16:52Z</time>
      </trkpt>
      <trkpt lat="44.42929" lon="5.71688">
        <ele>666.4</ele>
        <time>2022-10-28T13:16:53Z</time>
      </trkpt>
      <trkpt lat="44.42929" lon="5.71688">
        <ele>666.4</ele>
        <time>2022-10-28T13:16:54Z</time>
      </trkpt>
      <trkpt lat="44.4293" lon="5.71689">
        <ele>666.4</ele>
        <time>2022-10-28T13:16:55Z</time>
      </trkpt>
      <trkpt lat="44.4293" lon="5.71689">
        <ele>666.4</ele>
        <time>2022-10-28T13:16:56Z</time>
      </trkpt>
      <trkpt lat="44.42931" lon="5.71689">
        <ele>666.4</ele>
        <time>2022-10-28T13:16:57Z</time>
      </trkpt>
      <trkpt lat="44.42931" lon="5.71689">
        <ele>666.4</ele>
        <time>2022-10-28T13:16:58Z</time>
      </trkpt>
      <trkpt lat="44.42931" lon="5.71688">
        <ele>666.4</ele>
        <time>2022-10-28T13:16:59Z</time>
      </trkpt>
      <trkpt lat="44.42932" lon="5.71688">
        <ele>666.4</ele>
        <time>2022-10-28T13:17:00Z</time>
      </trkpt>
      <trkpt lat="44.42932" lon="5.71689">
        <ele>666.4</ele>
        <time>2022-10-28T13:17:01Z</time>
      </trkpt>
      <trkpt lat="44.42932" lon="5.71689">
        <ele>666.4</ele>
        <time>2022-10-28T13:17:02Z</time>
      </trkpt>
      <trkpt lat="44.42932" lon="5.71689">
        <ele>666.4</ele>
        <time>2022-10-28T13:17:03Z</time>
      </trkpt>
      <trkpt lat="44.42933" lon="5.71689">
        <ele>666.4</ele>
        <time>2022-10-28T13:17:04Z</time>
      </trkpt>
      <trkpt lat="44.42933" lon="5.71689">
        <ele>666.4</ele>
        <time>2022-10-28T13:17:05Z</time>
      </trkpt>
      <trkpt lat="44.42933" lon="5.71694">
        <ele>666.4</ele>
        <time>2022-10-28T13:17:13Z</time>
      </trkpt>
      <trkpt lat="44.42933" lon="5.71694">
        <ele>666.4</ele>
        <time>2022-10-28T13:17:14Z</time>
      </trkpt>
      <trkpt lat="44.42933" lon="5.71694">
        <ele>666.4</ele>
        <time>2022-10-28T13:17:15Z</time>
      </trkpt>
      <trkpt lat="44.42934" lon="5.71694">
        <ele>666.4</ele>
        <time>2022-10-28T13:17:16Z</time>
      </trkpt>
      <trkpt lat="44.42933" lon="5.71695">
        <ele>666.4</ele>
        <time>2022-10-28T13:17:17Z</time>
      </trkpt>
      <trkpt lat="44.42933" lon="5.71695">
        <ele>666.4</ele>
        <time>2022-10-28T13:17:18Z</time>
      </trkpt>
      <trkpt lat="44.42933" lon="5.71696">
        <ele>666.4</ele>
        <time>2022-10-28T13:17:19Z</time>
      </trkpt>
      <trkpt lat="44.42934" lon="5.71695">
        <ele>666.4</ele>
        <time>2022-10-28T13:17:20Z</time>
      </trkpt>
      <trkpt lat="44.42934" lon="5.71696">
        <ele>666.4</ele>
        <time>2022-10-28T13:17:22Z</time>
      </trkpt>
      <trkpt lat="44.42935" lon="5.71697">
        <ele>666.4</ele>
        <time>2022-10-28T13:17:23Z</time>
      </trkpt>
      <trkpt lat="44.42935" lon="5.71699">
        <ele>666.4</ele>
        <time>2022-10-28T13:17:24Z</time>
      </trkpt>
      <trkpt lat="44.42935" lon="5.717">
        <ele>666.4</ele>
        <time>2022-10-28T13:17:25Z</time>
      </trkpt>
      <trkpt lat="44.42936" lon="5.71701">
        <ele>666.4</ele>
        <time>2022-10-28T13:17:26Z</time>
      </trkpt>
      <trkpt lat="44.42936" lon="5.71701">
        <ele>666.4</ele>
        <time>2022-10-28T13:17:27Z</time>
      </trkpt>
      <trkpt lat="44.42935" lon="5.71701">
        <ele>666.4</ele>
        <time>2022-10-28T13:17:28Z</time>
      </trkpt>
      <trkpt lat="44.42935" lon="5.71701">
        <ele>666.4</ele>
        <time>2022-10-28T13:17:29Z</time>
      </trkpt>
      <trkpt lat="44.42934" lon="5.71701">
        <ele>666.4</ele>
        <time>2022-10-28T13:17:30Z</time>
      </trkpt>
      <trkpt lat="44.42934" lon="5.71701">
        <ele>666.4</ele>
        <time>2022-10-28T13:17:31Z</time>
      </trkpt>
      <trkpt lat="44.42934" lon="5.71701">
        <ele>666.4</ele>
        <time>2022-10-28T13:17:32Z</time>
      </trkpt>
      <trkpt lat="44.42933" lon="5.71701">
        <ele>666.4</ele>
        <time>2022-10-28T13:17:33Z</time>
      </trkpt>
      <trkpt lat="44.42933" lon="5.71701">
        <ele>666.4</ele>
        <time>2022-10-28T13:17:34Z</time>
      </trkpt>
      <trkpt lat="44.42933" lon="5.71701">
        <ele>666.4</ele>
        <time>2022-10-28T13:17:35Z</time>
      </trkpt>
      <trkpt lat="44.42932" lon="5.71701">
        <ele>666.4</ele>
        <time>2022-10-28T13:17:36Z</time>
      </trkpt>
      <trkpt lat="44.42932" lon="5.71701">
        <ele>666.4</ele>
        <time>2022-10-28T13:17:37Z</time>
      </trkpt>
      <trkpt lat="44.42932" lon="5.71701">
        <ele>666.4</ele>
        <time>2022-10-28T13:17:38Z</time>
      </trkpt>
      <trkpt lat="44.42931" lon="5.71701">
        <ele>666.4</ele>
        <time>2022-10-28T13:17:39Z</time>
      </trkpt>
      <trkpt lat="44.42931" lon="5.71701">
        <ele>666.4</ele>
        <time>2022-10-28T13:17:40Z</time>
      </trkpt>
      <trkpt lat="44.4293" lon="5.71701">
        <ele>666.4</ele>
        <time>2022-10-28T13:17:41Z</time>
      </trkpt>
      <trkpt lat="44.4293" lon="5.71701">
        <ele>666.4</ele>
        <time>2022-10-28T13:17:42Z</time>
      </trkpt>
      <trkpt lat="44.4293" lon="5.71701">
        <ele>666.4</ele>
        <time>2022-10-28T13:39:26Z</time>
      </trkpt>
      <trkpt lat="44.42929" lon="5.71701">
        <ele>666.4</ele>
        <time>2022-10-28T13:39:27Z</time>
      </trkpt>
      <trkpt lat="44.42929" lon="5.71701">
        <ele>666.4</ele>
        <time>2022-10-28T13:39:28Z</time>
      </trkpt>
      <trkpt lat="44.42929" lon="5.71701">
        <ele>666.4</ele>
        <time>2022-10-28T13:39:29Z</time>
      </trkpt>
      <trkpt lat="44.42928" lon="5.717">
        <ele>666.4</ele>
        <time>2022-10-28T13:39:31Z</time>
      </trkpt>
      <trkpt lat="44.42928" lon="5.717">
        <ele>666.4</ele>
        <time>2022-10-28T13:39:32Z</time>
      </trkpt>
      <trkpt lat="44.42928" lon="5.717">
        <ele>666.4</ele>
        <time>2022-10-28T13:39:33Z</time>
      </trkpt>
      <trkpt lat="44.42928" lon="5.717">
        <ele>666.4</ele>
        <time>2022-10-28T13:39:34Z</time>
      </trkpt>
      <trkpt lat="44.42928" lon="5.71699">
        <ele>666.4</ele>
        <time>2022-10-28T13:39:35Z</time>
      </trkpt>
      <trkpt lat="44.42929" lon="5.71698">
        <ele>666.4</ele>
        <time>2022-10-28T13:39:36Z</time>
      </trkpt>
      <trkpt lat="44.42928" lon="5.71697">
        <ele>666.4</ele>
        <time>2022-10-28T13:39:37Z</time>
      </trkpt>
      <trkpt lat="44.42928" lon="5.71695">
        <ele>666.4</ele>
        <time>2022-10-28T13:39:39Z</time>
      </trkpt>
      <trkpt lat="44.42929" lon="5.71694">
        <ele>666.4</ele>
        <time>2022-10-28T13:39:40Z</time>
      </trkpt>
      <trkpt lat="44.42928" lon="5.71694">
        <ele>666.4</ele>
        <time>2022-10-28T13:39:41Z</time>
      </trkpt>
      <trkpt lat="44.42928" lon="5.71694">
        <ele>666.4</ele>
        <time>2022-10-28T13:39:43Z</time>
      </trkpt>
      <trkpt lat="44.42928" lon="5.71694">
        <ele>666.4</ele>
        <time>2022-10-28T13:39:44Z</time>
      </trkpt>
      <trkpt lat="44.42929" lon="5.71694">
        <ele>666.4</ele>
        <time>2022-10-28T13:39:45Z</time>
      </trkpt>
      <trkpt lat="44.42929" lon="5.71694">
        <ele>666.4</ele>
        <time>2022-10-28T13:39:46Z</time>
      </trkpt>
      <trkpt lat="44.42929" lon="5.71694">
        <ele>666.4</ele>
        <time>2022-10-28T13:39:48Z</time>
      </trkpt>
      <trkpt lat="44.42929" lon="5.71694">
        <ele>666.4</ele>
        <time>2022-10-28T13:39:49Z</time>
      </trkpt>
      <trkpt lat="44.42929" lon="5.71694">
        <ele>666.4</ele>
        <time>2022-10-28T13:39:50Z</time>
      </trkpt>
      <trkpt lat="44.42931" lon="5.71693">
        <ele>666.4</ele>
        <time>2022-10-28T13:41:44Z</time>
      </trkpt>
      <trkpt lat="44.42931" lon="5.71692">
        <ele>666.4</ele>
        <time>2022-10-28T13:41:45Z</time>
      </trkpt>
      <trkpt lat="44.4293" lon="5.71691">
        <ele>666.4</ele>
        <time>2022-10-28T13:41:46Z</time>
      </trkpt>
      <trkpt lat="44.4293" lon="5.71691">
        <ele>666.4</ele>
        <time>2022-10-28T13:41:47Z</time>
      </trkpt>
      <trkpt lat="44.42929" lon="5.71691">
        <ele>666.4</ele>
        <time>2022-10-28T13:41:48Z</time>
      </trkpt>
      <trkpt lat="44.42929" lon="5.71691">
        <ele>666.4</ele>
        <time>2022-10-28T13:41:49Z</time>
      </trkpt>
      <trkpt lat="44.42929" lon="5.7169">
        <ele>666.4</ele>
        <time>2022-10-28T13:41:50Z</time>
      </trkpt>
      <trkpt lat="44.42929" lon="5.7169">
        <ele>666.4</ele>
        <time>2022-10-28T13:41:51Z</time>
      </trkpt>
      <trkpt lat="44.42928" lon="5.7169">
        <ele>666.4</ele>
        <time>2022-10-28T13:41:52Z</time>
      </trkpt>
      <trkpt lat="44.42927" lon="5.7169">
        <ele>666.4</ele>
        <time>2022-10-28T13:41:53Z</time>
      </trkpt>
      <trkpt lat="44.42927" lon="5.7169">
        <ele>666.4</ele>
        <time>2022-10-28T13:41:54Z</time>
      </trkpt>
      <trkpt lat="44.42926" lon="5.7169">
        <ele>666.4</ele>
        <time>2022-10-28T13:41:55Z</time>
      </trkpt>
      <trkpt lat="44.42925" lon="5.7169">
        <ele>666.4</ele>
        <time>2022-10-28T13:41:57Z</time>
      </trkpt>
      <trkpt lat="44.42924" lon="5.7169">
        <ele>666.4</ele>
        <time>2022-10-28T13:41:58Z</time>
      </trkpt>
      <trkpt lat="44.4292" lon="5.7169">
        <ele>666.4</ele>
        <time>2022-10-28T13:41:59Z</time>
      </trkpt>
      <trkpt lat="44.42917" lon="5.71688">
        <ele>666.4</ele>
        <time>2022-10-28T13:42:00Z</time>
      </trkpt>
      <trkpt lat="44.42913" lon="5.71684">
        <ele>666.3</ele>
        <time>2022-10-28T13:42:01Z</time>
      </trkpt>
      <trkpt lat="44.42911" lon="5.71677">
        <ele>666.2</ele>
        <time>2022-10-28T13:42:03Z</time>
      </trkpt>
      <trkpt lat="44.42908" lon="5.71671">
        <ele>666.2</ele>
        <time>2022-10-28T13:42:04Z</time>
      </trkpt>
      <trkpt lat="44.42906" lon="5.71667">
        <ele>666.2</ele>
        <time>2022-10-28T13:42:05Z</time>
      </trkpt>
      <trkpt lat="44.42904" lon="5.71662">
        <ele>666.2</ele>
        <time>2022-10-28T13:42:06Z</time>
      </trkpt>
      <trkpt lat="44.42902" lon="5.71658">
        <ele>666.3</ele>
        <time>2022-10-28T13:42:07Z</time>
      </trkpt>
      <trkpt lat="44.429" lon="5.71654">
        <ele>666.3</ele>
        <time>2022-10-28T13:42:08Z</time>
      </trkpt>
      <trkpt lat="44.42898" lon="5.7165">
        <ele>666.4</ele>
        <time>2022-10-28T13:42:10Z</time>
      </trkpt>
      <trkpt lat="44.42896" lon="5.71646">
        <ele>666.5</ele>
        <time>2022-10-28T13:42:11Z</time>
      </trkpt>
      <trkpt lat="44.42894" lon="5.71643">
        <ele>666.6</ele>
        <time>2022-10-28T13:42:12Z</time>
      </trkpt>
      <trkpt lat="44.42891" lon="5.71638">
        <ele>666.7</ele>
        <time>2022-10-28T13:42:13Z</time>
      </trkpt>
      <trkpt lat="44.42889" lon="5.71634">
        <ele>666.8</ele>
        <time>2022-10-28T13:42:15Z</time>
      </trkpt>
      <trkpt lat="44.42886" lon="5.71629">
        <ele>667</ele>
        <time>2022-10-28T13:42:16Z</time>
      </trkpt>
      <trkpt lat="44.42884" lon="5.71625">
        <ele>667.2</ele>
        <time>2022-10-28T13:42:17Z</time>
      </trkpt>
      <trkpt lat="44.42883" lon="5.71624">
        <ele>667.2</ele>
        <time>2022-10-28T13:42:18Z</time>
      </trkpt>
      <trkpt lat="44.42881" lon="5.71621">
        <ele>667.3</ele>
        <time>2022-10-28T13:42:19Z</time>
      </trkpt>
      <trkpt lat="44.42879" lon="5.71618">
        <ele>667.5</ele>
        <time>2022-10-28T13:42:21Z</time>
      </trkpt>
      <trkpt lat="44.42877" lon="5.71614">
        <ele>667.6</ele>
        <time>2022-10-28T13:42:22Z</time>
      </trkpt>
      <trkpt lat="44.42875" lon="5.71611">
        <ele>667.7</ele>
        <time>2022-10-28T13:42:23Z</time>
      </trkpt>
      <trkpt lat="44.42872" lon="5.71607">
        <ele>667.9</ele>
        <time>2022-10-28T13:42:25Z</time>
      </trkpt>
      <trkpt lat="44.4287" lon="5.71603">
        <ele>668</ele>
        <time>2022-10-28T13:42:26Z</time>
      </trkpt>
      <trkpt lat="44.42869" lon="5.71601">
        <ele>668.1</ele>
        <time>2022-10-28T13:42:27Z</time>
      </trkpt>
      <trkpt lat="44.42867" lon="5.71596">
        <ele>668.2</ele>
        <time>2022-10-28T13:42:29Z</time>
      </trkpt>
      <trkpt lat="44.42865" lon="5.71592">
        <ele>668.4</ele>
        <time>2022-10-28T13:42:30Z</time>
      </trkpt>
      <trkpt lat="44.42864" lon="5.71588">
        <ele>668.5</ele>
        <time>2022-10-28T13:42:32Z</time>
      </trkpt>
      <trkpt lat="44.42864" lon="5.71586">
        <ele>668.6</ele>
        <time>2022-10-28T13:42:33Z</time>
      </trkpt>
      <trkpt lat="44.42861" lon="5.71581">
        <ele>668.7</ele>
        <time>2022-10-28T13:42:35Z</time>
      </trkpt>
      <trkpt lat="44.42859" lon="5.71577">
        <ele>668.9</ele>
        <time>2022-10-28T13:42:36Z</time>
      </trkpt>
      <trkpt lat="44.42858" lon="5.71576">
        <ele>669</ele>
        <time>2022-10-28T13:42:37Z</time>
      </trkpt>
      <trkpt lat="44.42857" lon="5.71574">
        <ele>669.2</ele>
        <time>2022-10-28T13:42:38Z</time>
      </trkpt>
      <trkpt lat="44.42856" lon="5.71572">
        <ele>669.3</ele>
        <time>2022-10-28T13:42:39Z</time>
      </trkpt>
      <trkpt lat="44.42854" lon="5.71569">
        <ele>669.4</ele>
        <time>2022-10-28T13:42:41Z</time>
      </trkpt>
      <trkpt lat="44.42852" lon="5.71566">
        <ele>669.5</ele>
        <time>2022-10-28T13:42:42Z</time>
      </trkpt>
      <trkpt lat="44.42851" lon="5.71562">
        <ele>669.6</ele>
        <time>2022-10-28T13:42:43Z</time>
      </trkpt>
      <trkpt lat="44.4285" lon="5.71561">
        <ele>669.6</ele>
        <time>2022-10-28T13:42:44Z</time>
      </trkpt>
      <trkpt lat="44.42848" lon="5.71557">
        <ele>669.8</ele>
        <time>2022-10-28T13:42:45Z</time>
      </trkpt>
      <trkpt lat="44.42848" lon="5.71556">
        <ele>669.8</ele>
        <time>2022-10-28T13:42:46Z</time>
      </trkpt>
      <trkpt lat="44.42846" lon="5.71552">
        <ele>669.9</ele>
        <time>2022-10-28T13:42:47Z</time>
      </trkpt>
      <trkpt lat="44.42846" lon="5.7155">
        <ele>670</ele>
        <time>2022-10-28T13:42:48Z</time>
      </trkpt>
      <trkpt lat="44.42845" lon="5.71548">
        <ele>670</ele>
        <time>2022-10-28T13:42:49Z</time>
      </trkpt>
      <trkpt lat="44.42843" lon="5.71544">
        <ele>670.2</ele>
        <time>2022-10-28T13:42:51Z</time>
      </trkpt>
      <trkpt lat="44.4284" lon="5.7154">
        <ele>670.4</ele>
        <time>2022-10-28T13:42:52Z</time>
      </trkpt>
      <trkpt lat="44.42838" lon="5.71536">
        <ele>670.5</ele>
        <time>2022-10-28T13:42:53Z</time>
      </trkpt>
      <trkpt lat="44.42838" lon="5.71535">
        <ele>670.5</ele>
        <time>2022-10-28T13:42:54Z</time>
      </trkpt>
      <trkpt lat="44.42836" lon="5.71531">
        <ele>670.6</ele>
        <time>2022-10-28T13:42:55Z</time>
      </trkpt>
      <trkpt lat="44.42835" lon="5.7153">
        <ele>670.6</ele>
        <time>2022-10-28T13:42:56Z</time>
      </trkpt>
      <trkpt lat="44.42833" lon="5.71525">
        <ele>670.8</ele>
        <time>2022-10-28T13:42:58Z</time>
      </trkpt>
      <trkpt lat="44.42833" lon="5.71524">
        <ele>670.8</ele>
        <time>2022-10-28T13:42:59Z</time>
      </trkpt>
      <trkpt lat="44.42831" lon="5.71519">
        <ele>671</ele>
        <time>2022-10-28T13:43:00Z</time>
      </trkpt>
      <trkpt lat="44.42831" lon="5.71518">
        <ele>671</ele>
        <time>2022-10-28T13:43:01Z</time>
      </trkpt>
      <trkpt lat="44.42829" lon="5.71514">
        <ele>671.1</ele>
        <time>2022-10-28T13:43:02Z</time>
      </trkpt>
      <trkpt lat="44.42828" lon="5.7151">
        <ele>671.3</ele>
        <time>2022-10-28T13:43:04Z</time>
      </trkpt>
      <trkpt lat="44.42828" lon="5.71509">
        <ele>671.3</ele>
        <time>2022-10-28T13:43:05Z</time>
      </trkpt>
      <trkpt lat="44.42827" lon="5.71504">
        <ele>671.4</ele>
        <time>2022-10-28T13:43:06Z</time>
      </trkpt>
      <trkpt lat="44.42827" lon="5.71502">
        <ele>671.5</ele>
        <time>2022-10-28T13:43:07Z</time>
      </trkpt>
      <trkpt lat="44.42826" lon="5.71497">
        <ele>671.6</ele>
        <time>2022-10-28T13:43:08Z</time>
      </trkpt>
      <trkpt lat="44.42825" lon="5.71496">
        <ele>671.6</ele>
        <time>2022-10-28T13:43:09Z</time>
      </trkpt>
      <trkpt lat="44.42824" lon="5.7149">
        <ele>671.8</ele>
        <time>2022-10-28T13:43:11Z</time>
      </trkpt>
      <trkpt lat="44.42823" lon="5.71485">
        <ele>671.9</ele>
        <time>2022-10-28T13:43:13Z</time>
      </trkpt>
      <trkpt lat="44.42822" lon="5.7148">
        <ele>672</ele>
        <time>2022-10-28T13:43:14Z</time>
      </trkpt>
      <trkpt lat="44.42821" lon="5.71477">
        <ele>672.1</ele>
        <time>2022-10-28T13:43:16Z</time>
      </trkpt>
      <trkpt lat="44.42821" lon="5.71473">
        <ele>672.1</ele>
        <time>2022-10-28T13:43:17Z</time>
      </trkpt>
      <trkpt lat="44.42819" lon="5.71468">
        <ele>672.2</ele>
        <time>2022-10-28T13:43:18Z</time>
      </trkpt>
      <trkpt lat="44.42819" lon="5.71466">
        <ele>672.2</ele>
        <time>2022-10-28T13:43:19Z</time>
      </trkpt>
      <trkpt lat="44.42817" lon="5.71461">
        <ele>672.3</ele>
        <time>2022-10-28T13:43:20Z</time>
      </trkpt>
      <trkpt lat="44.42817" lon="5.71459">
        <ele>672.3</ele>
        <time>2022-10-28T13:43:21Z</time>
      </trkpt>
      <trkpt lat="44.42816" lon="5.71454">
        <ele>672.3</ele>
        <time>2022-10-28T13:43:23Z</time>
      </trkpt>
      <trkpt lat="44.42814" lon="5.71449">
        <ele>672.3</ele>
        <time>2022-10-28T13:43:24Z</time>
      </trkpt>
      <trkpt lat="44.42813" lon="5.71444">
        <ele>672.4</ele>
        <time>2022-10-28T13:43:25Z</time>
      </trkpt>
      <trkpt lat="44.42811" lon="5.71437">
        <ele>672.4</ele>
        <time>2022-10-28T13:43:27Z</time>
      </trkpt>
      <trkpt lat="44.4281" lon="5.71432">
        <ele>672.4</ele>
        <time>2022-10-28T13:43:28Z</time>
      </trkpt>
      <trkpt lat="44.42809" lon="5.71426">
        <ele>672.4</ele>
        <time>2022-10-28T13:43:29Z</time>
      </trkpt>
      <trkpt lat="44.42807" lon="5.7142">
        <ele>672.4</ele>
        <time>2022-10-28T13:43:30Z</time>
      </trkpt>
      <trkpt lat="44.42806" lon="5.71415">
        <ele>672.4</ele>
        <time>2022-10-28T13:43:31Z</time>
      </trkpt>
      <trkpt lat="44.42805" lon="5.71408">
        <ele>672.4</ele>
        <time>2022-10-28T13:43:33Z</time>
      </trkpt>
      <trkpt lat="44.42803" lon="5.71399">
        <ele>672.4</ele>
        <time>2022-10-28T13:43:34Z</time>
      </trkpt>
      <trkpt lat="44.42802" lon="5.71392">
        <ele>672.5</ele>
        <time>2022-10-28T13:43:35Z</time>
      </trkpt>
      <trkpt lat="44.42801" lon="5.71385">
        <ele>672.5</ele>
        <time>2022-10-28T13:43:37Z</time>
      </trkpt>
      <trkpt lat="44.428" lon="5.71377">
        <ele>672.6</ele>
        <time>2022-10-28T13:43:38Z</time>
      </trkpt>
      <trkpt lat="44.42799" lon="5.71371">
        <ele>672.7</ele>
        <time>2022-10-28T13:43:39Z</time>
      </trkpt>
      <trkpt lat="44.42798" lon="5.71365">
        <ele>672.8</ele>
        <time>2022-10-28T13:43:41Z</time>
      </trkpt>
      <trkpt lat="44.42797" lon="5.71359">
        <ele>672.9</ele>
        <time>2022-10-28T13:43:42Z</time>
      </trkpt>
      <trkpt lat="44.42797" lon="5.71352">
        <ele>672.9</ele>
        <time>2022-10-28T13:43:43Z</time>
      </trkpt>
      <trkpt lat="44.42796" lon="5.71343">
        <ele>672.9</ele>
        <time>2022-10-28T13:43:45Z</time>
      </trkpt>
      <trkpt lat="44.42795" lon="5.71339">
        <ele>672.9</ele>
        <time>2022-10-28T13:43:46Z</time>
      </trkpt>
      <trkpt lat="44.42794" lon="5.71334">
        <ele>672.9</ele>
        <time>2022-10-28T13:43:47Z</time>
      </trkpt>
      <trkpt lat="44.42793" lon="5.7133">
        <ele>672.9</ele>
        <time>2022-10-28T13:43:48Z</time>
      </trkpt>
      <trkpt lat="44.42792" lon="5.71323">
        <ele>672.8</ele>
        <time>2022-10-28T13:43:49Z</time>
      </trkpt>
      <trkpt lat="44.42791" lon="5.71317">
        <ele>672.8</ele>
        <time>2022-10-28T13:43:50Z</time>
      </trkpt>
      <trkpt lat="44.4279" lon="5.71311">
        <ele>672.8</ele>
        <time>2022-10-28T13:43:52Z</time>
      </trkpt>
      <trkpt lat="44.42788" lon="5.71304">
        <ele>672.8</ele>
        <time>2022-10-28T13:43:53Z</time>
      </trkpt>
      <trkpt lat="44.42787" lon="5.71297">
        <ele>672.7</ele>
        <time>2022-10-28T13:43:54Z</time>
      </trkpt>
      <trkpt lat="44.42785" lon="5.71292">
        <ele>672.7</ele>
        <time>2022-10-28T13:43:55Z</time>
      </trkpt>
      <trkpt lat="44.42783" lon="5.71286">
        <ele>672.7</ele>
        <time>2022-10-28T13:43:56Z</time>
      </trkpt>
      <trkpt lat="44.4278" lon="5.7128">
        <ele>672.6</ele>
        <time>2022-10-28T13:43:57Z</time>
      </trkpt>
      <trkpt lat="44.42777" lon="5.71272">
        <ele>672.6</ele>
        <time>2022-10-28T13:43:59Z</time>
      </trkpt>
      <trkpt lat="44.42774" lon="5.71265">
        <ele>672.6</ele>
        <time>2022-10-28T13:44:00Z</time>
      </trkpt>
      <trkpt lat="44.42772" lon="5.71259">
        <ele>672.5</ele>
        <time>2022-10-28T13:44:01Z</time>
      </trkpt>
      <trkpt lat="44.4277" lon="5.71252">
        <ele>672.5</ele>
        <time>2022-10-28T13:44:02Z</time>
      </trkpt>
      <trkpt lat="44.42767" lon="5.71246">
        <ele>672.5</ele>
        <time>2022-10-28T13:44:03Z</time>
      </trkpt>
      <trkpt lat="44.42765" lon="5.7124">
        <ele>672.4</ele>
        <time>2022-10-28T13:44:04Z</time>
      </trkpt>
      <trkpt lat="44.42763" lon="5.71234">
        <ele>672.4</ele>
        <time>2022-10-28T13:44:05Z</time>
      </trkpt>
      <trkpt lat="44.42761" lon="5.71228">
        <ele>672.4</ele>
        <time>2022-10-28T13:44:06Z</time>
      </trkpt>
      <trkpt lat="44.4276" lon="5.71222">
        <ele>672.4</ele>
        <time>2022-10-28T13:44:07Z</time>
      </trkpt>
      <trkpt lat="44.42758" lon="5.71216">
        <ele>672.3</ele>
        <time>2022-10-28T13:44:08Z</time>
      </trkpt>
      <trkpt lat="44.42756" lon="5.7121">
        <ele>672.3</ele>
        <time>2022-10-28T13:44:09Z</time>
      </trkpt>
      <trkpt lat="44.42752" lon="5.71204">
        <ele>672.3</ele>
        <time>2022-10-28T13:44:11Z</time>
      </trkpt>
      <trkpt lat="44.42749" lon="5.71196">
        <ele>672.3</ele>
        <time>2022-10-28T13:44:12Z</time>
      </trkpt>
      <trkpt lat="44.42747" lon="5.7119">
        <ele>672.2</ele>
        <time>2022-10-28T13:44:13Z</time>
      </trkpt>
      <trkpt lat="44.42745" lon="5.71186">
        <ele>672.2</ele>
        <time>2022-10-28T13:44:14Z</time>
      </trkpt>
      <trkpt lat="44.42743" lon="5.71181">
        <ele>672.2</ele>
        <time>2022-10-28T13:44:15Z</time>
      </trkpt>
      <trkpt lat="44.4274" lon="5.71177">
        <ele>672.2</ele>
        <time>2022-10-28T13:44:16Z</time>
      </trkpt>
      <trkpt lat="44.42738" lon="5.71171">
        <ele>672.2</ele>
        <time>2022-10-28T13:44:17Z</time>
      </trkpt>
      <trkpt lat="44.42736" lon="5.71167">
        <ele>672.1</ele>
        <time>2022-10-28T13:44:18Z</time>
      </trkpt>
      <trkpt lat="44.42732" lon="5.71161">
        <ele>672.1</ele>
        <time>2022-10-28T13:44:19Z</time>
      </trkpt>
      <trkpt lat="44.42729" lon="5.71155">
        <ele>672</ele>
        <time>2022-10-28T13:44:21Z</time>
      </trkpt>
      <trkpt lat="44.42724" lon="5.71148">
        <ele>672</ele>
        <time>2022-10-28T13:44:22Z</time>
      </trkpt>
      <trkpt lat="44.42721" lon="5.71144">
        <ele>671.9</ele>
        <time>2022-10-28T13:44:23Z</time>
      </trkpt>
      <trkpt lat="44.42718" lon="5.71139">
        <ele>671.9</ele>
        <time>2022-10-28T13:44:24Z</time>
      </trkpt>
      <trkpt lat="44.42715" lon="5.71134">
        <ele>671.8</ele>
        <time>2022-10-28T13:44:25Z</time>
      </trkpt>
      <trkpt lat="44.42712" lon="5.71129">
        <ele>671.8</ele>
        <time>2022-10-28T13:44:26Z</time>
      </trkpt>
      <trkpt lat="44.42709" lon="5.71124">
        <ele>671.7</ele>
        <time>2022-10-28T13:44:27Z</time>
      </trkpt>
      <trkpt lat="44.42706" lon="5.71119">
        <ele>671.7</ele>
        <time>2022-10-28T13:44:28Z</time>
      </trkpt>
      <trkpt lat="44.42703" lon="5.71114">
        <ele>671.7</ele>
        <time>2022-10-28T13:44:29Z</time>
      </trkpt>
      <trkpt lat="44.42699" lon="5.71109">
        <ele>671.6</ele>
        <time>2022-10-28T13:44:30Z</time>
      </trkpt>
      <trkpt lat="44.42696" lon="5.71105">
        <ele>671.6</ele>
        <time>2022-10-28T13:44:31Z</time>
      </trkpt>
      <trkpt lat="44.42693" lon="5.711">
        <ele>671.5</ele>
        <time>2022-10-28T13:44:32Z</time>
      </trkpt>
      <trkpt lat="44.42689" lon="5.71095">
        <ele>671.5</ele>
        <time>2022-10-28T13:44:33Z</time>
      </trkpt>
      <trkpt lat="44.42686" lon="5.71089">
        <ele>671.5</ele>
        <time>2022-10-28T13:44:34Z</time>
      </trkpt>
      <trkpt lat="44.42683" lon="5.71084">
        <ele>671.4</ele>
        <time>2022-10-28T13:44:35Z</time>
      </trkpt>
      <trkpt lat="44.4268" lon="5.71079">
        <ele>671.4</ele>
        <time>2022-10-28T13:44:36Z</time>
      </trkpt>
      <trkpt lat="44.42678" lon="5.71075">
        <ele>671.3</ele>
        <time>2022-10-28T13:44:37Z</time>
      </trkpt>
      <trkpt lat="44.42675" lon="5.7107">
        <ele>671.3</ele>
        <time>2022-10-28T13:44:38Z</time>
      </trkpt>
      <trkpt lat="44.42671" lon="5.71064">
        <ele>671.2</ele>
        <time>2022-10-28T13:44:39Z</time>
      </trkpt>
      <trkpt lat="44.42667" lon="5.71059">
        <ele>671.2</ele>
        <time>2022-10-28T13:44:40Z</time>
      </trkpt>
      <trkpt lat="44.42663" lon="5.71055">
        <ele>671.1</ele>
        <time>2022-10-28T13:44:41Z</time>
      </trkpt>
      <trkpt lat="44.42658" lon="5.71051">
        <ele>671.1</ele>
        <time>2022-10-28T13:44:42Z</time>
      </trkpt>
      <trkpt lat="44.42654" lon="5.71047">
        <ele>671</ele>
        <time>2022-10-28T13:44:43Z</time>
      </trkpt>
      <trkpt lat="44.4265" lon="5.71043">
        <ele>670.9</ele>
        <time>2022-10-28T13:44:44Z</time>
      </trkpt>
      <trkpt lat="44.42646" lon="5.71038">
        <ele>670.9</ele>
        <time>2022-10-28T13:44:45Z</time>
      </trkpt>
      <trkpt lat="44.42643" lon="5.71034">
        <ele>670.8</ele>
        <time>2022-10-28T13:44:46Z</time>
      </trkpt>
      <trkpt lat="44.42639" lon="5.7103">
        <ele>670.7</ele>
        <time>2022-10-28T13:44:47Z</time>
      </trkpt>
      <trkpt lat="44.42634" lon="5.71026">
        <ele>670.7</ele>
        <time>2022-10-28T13:44:48Z</time>
      </trkpt>
      <trkpt lat="44.4263" lon="5.71023">
        <ele>670.6</ele>
        <time>2022-10-28T13:44:49Z</time>
      </trkpt>
      <trkpt lat="44.42626" lon="5.7102">
        <ele>670.6</ele>
        <time>2022-10-28T13:44:50Z</time>
      </trkpt>
      <trkpt lat="44.42622" lon="5.71016">
        <ele>670.5</ele>
        <time>2022-10-28T13:44:51Z</time>
      </trkpt>
      <trkpt lat="44.42617" lon="5.71013">
        <ele>670.5</ele>
        <time>2022-10-28T13:44:52Z</time>
      </trkpt>
      <trkpt lat="44.42613" lon="5.71011">
        <ele>670.4</ele>
        <time>2022-10-28T13:44:53Z</time>
      </trkpt>
      <trkpt lat="44.4261" lon="5.7101">
        <ele>670.4</ele>
        <time>2022-10-28T13:44:54Z</time>
      </trkpt>
      <trkpt lat="44.42606" lon="5.71009">
        <ele>670.3</ele>
        <time>2022-10-28T13:44:55Z</time>
      </trkpt>
      <trkpt lat="44.42602" lon="5.71008">
        <ele>670.3</ele>
        <time>2022-10-28T13:44:56Z</time>
      </trkpt>
      <trkpt lat="44.42597" lon="5.71008">
        <ele>670.1</ele>
        <time>2022-10-28T13:44:57Z</time>
      </trkpt>
      <trkpt lat="44.42592" lon="5.71008">
        <ele>669.8</ele>
        <time>2022-10-28T13:44:58Z</time>
      </trkpt>
      <trkpt lat="44.42587" lon="5.71009">
        <ele>669.5</ele>
        <time>2022-10-28T13:44:59Z</time>
      </trkpt>
      <trkpt lat="44.42581" lon="5.71009">
        <ele>669.2</ele>
        <time>2022-10-28T13:45:00Z</time>
      </trkpt>
      <trkpt lat="44.42576" lon="5.71009">
        <ele>668.8</ele>
        <time>2022-10-28T13:45:01Z</time>
      </trkpt>
      <trkpt lat="44.42569" lon="5.71009">
        <ele>668.5</ele>
        <time>2022-10-28T13:45:02Z</time>
      </trkpt>
      <trkpt lat="44.42563" lon="5.7101">
        <ele>668.2</ele>
        <time>2022-10-28T13:45:03Z</time>
      </trkpt>
      <trkpt lat="44.42556" lon="5.71013">
        <ele>667.8</ele>
        <time>2022-10-28T13:45:04Z</time>
      </trkpt>
      <trkpt lat="44.42549" lon="5.71015">
        <ele>667.5</ele>
        <time>2022-10-28T13:45:05Z</time>
      </trkpt>
      <trkpt lat="44.42542" lon="5.71017">
        <ele>667.3</ele>
        <time>2022-10-28T13:45:06Z</time>
      </trkpt>
      <trkpt lat="44.42535" lon="5.71018">
        <ele>667</ele>
        <time>2022-10-28T13:45:07Z</time>
      </trkpt>
      <trkpt lat="44.42528" lon="5.7102">
        <ele>666.8</ele>
        <time>2022-10-28T13:45:08Z</time>
      </trkpt>
      <trkpt lat="44.42522" lon="5.71022">
        <ele>666.6</ele>
        <time>2022-10-28T13:45:09Z</time>
      </trkpt>
      <trkpt lat="44.42515" lon="5.71025">
        <ele>666.4</ele>
        <time>2022-10-28T13:45:10Z</time>
      </trkpt>
      <trkpt lat="44.42508" lon="5.71025">
        <ele>666.2</ele>
        <time>2022-10-28T13:45:11Z</time>
      </trkpt>
      <trkpt lat="44.42502" lon="5.71024">
        <ele>666</ele>
        <time>2022-10-28T13:45:12Z</time>
      </trkpt>
      <trkpt lat="44.42495" lon="5.71023">
        <ele>665.9</ele>
        <time>2022-10-28T13:45:13Z</time>
      </trkpt>
      <trkpt lat="44.42489" lon="5.7102">
        <ele>665.6</ele>
        <time>2022-10-28T13:45:14Z</time>
      </trkpt>
      <trkpt lat="44.42484" lon="5.71016">
        <ele>665.3</ele>
        <time>2022-10-28T13:45:15Z</time>
      </trkpt>
      <trkpt lat="44.42478" lon="5.71011">
        <ele>665.1</ele>
        <time>2022-10-28T13:45:16Z</time>
      </trkpt>
      <trkpt lat="44.42472" lon="5.71006">
        <ele>664.8</ele>
        <time>2022-10-28T13:45:17Z</time>
      </trkpt>
      <trkpt lat="44.42467" lon="5.71">
        <ele>664.5</ele>
        <time>2022-10-28T13:45:18Z</time>
      </trkpt>
      <trkpt lat="44.42461" lon="5.70995">
        <ele>664.2</ele>
        <time>2022-10-28T13:45:19Z</time>
      </trkpt>
      <trkpt lat="44.42455" lon="5.7099">
        <ele>664</ele>
        <time>2022-10-28T13:45:20Z</time>
      </trkpt>
      <trkpt lat="44.42449" lon="5.70985">
        <ele>663.7</ele>
        <time>2022-10-28T13:45:21Z</time>
      </trkpt>
      <trkpt lat="44.42443" lon="5.70981">
        <ele>663.5</ele>
        <time>2022-10-28T13:45:22Z</time>
      </trkpt>
      <trkpt lat="44.42436" lon="5.70976">
        <ele>663.2</ele>
        <time>2022-10-28T13:45:23Z</time>
      </trkpt>
      <trkpt lat="44.4243" lon="5.70973">
        <ele>662.9</ele>
        <time>2022-10-28T13:45:24Z</time>
      </trkpt>
      <trkpt lat="44.42423" lon="5.70971">
        <ele>662.6</ele>
        <time>2022-10-28T13:45:25Z</time>
      </trkpt>
      <trkpt lat="44.42415" lon="5.70971">
        <ele>662.2</ele>
        <time>2022-10-28T13:45:26Z</time>
      </trkpt>
      <trkpt lat="44.42408" lon="5.70971">
        <ele>661.8</ele>
        <time>2022-10-28T13:45:27Z</time>
      </trkpt>
      <trkpt lat="44.42401" lon="5.70971">
        <ele>661.4</ele>
        <time>2022-10-28T13:45:28Z</time>
      </trkpt>
      <trkpt lat="44.42393" lon="5.70972">
        <ele>661</ele>
        <time>2022-10-28T13:45:29Z</time>
      </trkpt>
      <trkpt lat="44.42386" lon="5.70973">
        <ele>660.5</ele>
        <time>2022-10-28T13:45:30Z</time>
      </trkpt>
      <trkpt lat="44.42378" lon="5.70975">
        <ele>660</ele>
        <time>2022-10-28T13:45:31Z</time>
      </trkpt>
      <trkpt lat="44.42369" lon="5.70976">
        <ele>659.5</ele>
        <time>2022-10-28T13:45:32Z</time>
      </trkpt>
      <trkpt lat="44.42361" lon="5.70977">
        <ele>659</ele>
        <time>2022-10-28T13:45:33Z</time>
      </trkpt>
      <trkpt lat="44.42353" lon="5.70979">
        <ele>658.6</ele>
        <time>2022-10-28T13:45:34Z</time>
      </trkpt>
      <trkpt lat="44.42345" lon="5.70981">
        <ele>658.3</ele>
        <time>2022-10-28T13:45:35Z</time>
      </trkpt>
      <trkpt lat="44.42337" lon="5.70982">
        <ele>657.9</ele>
        <time>2022-10-28T13:45:36Z</time>
      </trkpt>
      <trkpt lat="44.42328" lon="5.70983">
        <ele>657.6</ele>
        <time>2022-10-28T13:45:37Z</time>
      </trkpt>
      <trkpt lat="44.4232" lon="5.70985">
        <ele>657.3</ele>
        <time>2022-10-28T13:45:38Z</time>
      </trkpt>
      <trkpt lat="44.42312" lon="5.70986">
        <ele>657.1</ele>
        <time>2022-10-28T13:45:39Z</time>
      </trkpt>
      <trkpt lat="44.42304" lon="5.70988">
        <ele>656.9</ele>
        <time>2022-10-28T13:45:40Z</time>
      </trkpt>
      <trkpt lat="44.42296" lon="5.7099">
        <ele>656.7</ele>
        <time>2022-10-28T13:45:41Z</time>
      </trkpt>
      <trkpt lat="44.42288" lon="5.70993">
        <ele>656.6</ele>
        <time>2022-10-28T13:45:42Z</time>
      </trkpt>
      <trkpt lat="44.42281" lon="5.70995">
        <ele>656.4</ele>
        <time>2022-10-28T13:45:43Z</time>
      </trkpt>
      <trkpt lat="44.42273" lon="5.70997">
        <ele>656.3</ele>
        <time>2022-10-28T13:45:44Z</time>
      </trkpt>
      <trkpt lat="44.42265" lon="5.70999">
        <ele>656.2</ele>
        <time>2022-10-28T13:45:45Z</time>
      </trkpt>
      <trkpt lat="44.42258" lon="5.71001">
        <ele>656.1</ele>
        <time>2022-10-28T13:45:46Z</time>
      </trkpt>
      <trkpt lat="44.42251" lon="5.71004">
        <ele>656</ele>
        <time>2022-10-28T13:45:47Z</time>
      </trkpt>
      <trkpt lat="44.42243" lon="5.71006">
        <ele>655.9</ele>
        <time>2022-10-28T13:45:48Z</time>
      </trkpt>
      <trkpt lat="44.42236" lon="5.71008">
        <ele>655.7</ele>
        <time>2022-10-28T13:45:49Z</time>
      </trkpt>
      <trkpt lat="44.42228" lon="5.71009">
        <ele>655.6</ele>
        <time>2022-10-28T13:45:50Z</time>
      </trkpt>
      <trkpt lat="44.42221" lon="5.71011">
        <ele>655.5</ele>
        <time>2022-10-28T13:45:51Z</time>
      </trkpt>
      <trkpt lat="44.42213" lon="5.71012">
        <ele>655.5</ele>
        <time>2022-10-28T13:45:52Z</time>
      </trkpt>
      <trkpt lat="44.42205" lon="5.71012">
        <ele>655.4</ele>
        <time>2022-10-28T13:45:53Z</time>
      </trkpt>
      <trkpt lat="44.42198" lon="5.71012">
        <ele>655.2</ele>
        <time>2022-10-28T13:45:54Z</time>
      </trkpt>
      <trkpt lat="44.4219" lon="5.71012">
        <ele>655.2</ele>
        <time>2022-10-28T13:45:55Z</time>
      </trkpt>
      <trkpt lat="44.42182" lon="5.71011">
        <ele>655.1</ele>
        <time>2022-10-28T13:45:56Z</time>
      </trkpt>
      <trkpt lat="44.42175" lon="5.71011">
        <ele>655</ele>
        <time>2022-10-28T13:45:57Z</time>
      </trkpt>
      <trkpt lat="44.42167" lon="5.7101">
        <ele>655</ele>
        <time>2022-10-28T13:45:58Z</time>
      </trkpt>
      <trkpt lat="44.4216" lon="5.7101">
        <ele>655</ele>
        <time>2022-10-28T13:45:59Z</time>
      </trkpt>
      <trkpt lat="44.42153" lon="5.71009">
        <ele>654.9</ele>
        <time>2022-10-28T13:46:00Z</time>
      </trkpt>
      <trkpt lat="44.42147" lon="5.71009">
        <ele>654.9</ele>
        <time>2022-10-28T13:46:01Z</time>
      </trkpt>
      <trkpt lat="44.4214" lon="5.71008">
        <ele>654.9</ele>
        <time>2022-10-28T13:46:02Z</time>
      </trkpt>
      <trkpt lat="44.42133" lon="5.71007">
        <ele>654.9</ele>
        <time>2022-10-28T13:46:03Z</time>
      </trkpt>
      <trkpt lat="44.42126" lon="5.71007">
        <ele>655</ele>
        <time>2022-10-28T13:46:04Z</time>
      </trkpt>
      <trkpt lat="44.42119" lon="5.71006">
        <ele>655</ele>
        <time>2022-10-28T13:46:05Z</time>
      </trkpt>
      <trkpt lat="44.42113" lon="5.71006">
        <ele>655</ele>
        <time>2022-10-28T13:46:06Z</time>
      </trkpt>
      <trkpt lat="44.42106" lon="5.71005">
        <ele>655.1</ele>
        <time>2022-10-28T13:46:07Z</time>
      </trkpt>
      <trkpt lat="44.421" lon="5.71005">
        <ele>655.1</ele>
        <time>2022-10-28T13:46:08Z</time>
      </trkpt>
      <trkpt lat="44.42094" lon="5.71005">
        <ele>655.2</ele>
        <time>2022-10-28T13:46:09Z</time>
      </trkpt>
      <trkpt lat="44.42088" lon="5.71004">
        <ele>655.3</ele>
        <time>2022-10-28T13:46:10Z</time>
      </trkpt>
      <trkpt lat="44.42083" lon="5.71004">
        <ele>655.3</ele>
        <time>2022-10-28T13:46:11Z</time>
      </trkpt>
      <trkpt lat="44.42077" lon="5.71003">
        <ele>655.4</ele>
        <time>2022-10-28T13:46:12Z</time>
      </trkpt>
      <trkpt lat="44.42071" lon="5.71003">
        <ele>655.4</ele>
        <time>2022-10-28T13:46:13Z</time>
      </trkpt>
      <trkpt lat="44.42066" lon="5.71003">
        <ele>655.5</ele>
        <time>2022-10-28T13:46:14Z</time>
      </trkpt>
      <trkpt lat="44.42061" lon="5.71003">
        <ele>655.4</ele>
        <time>2022-10-28T13:46:15Z</time>
      </trkpt>
      <trkpt lat="44.42056" lon="5.71003">
        <ele>655.4</ele>
        <time>2022-10-28T13:46:16Z</time>
      </trkpt>
      <trkpt lat="44.42051" lon="5.71004">
        <ele>655.4</ele>
        <time>2022-10-28T13:46:17Z</time>
      </trkpt>
      <trkpt lat="44.42046" lon="5.71004">
        <ele>655.4</ele>
        <time>2022-10-28T13:46:18Z</time>
      </trkpt>
      <trkpt lat="44.42041" lon="5.71004">
        <ele>655.3</ele>
        <time>2022-10-28T13:46:19Z</time>
      </trkpt>
      <trkpt lat="44.42036" lon="5.71005">
        <ele>655.3</ele>
        <time>2022-10-28T13:46:20Z</time>
      </trkpt>
      <trkpt lat="44.42031" lon="5.71006">
        <ele>655.3</ele>
        <time>2022-10-28T13:46:21Z</time>
      </trkpt>
      <trkpt lat="44.42026" lon="5.71007">
        <ele>655.2</ele>
        <time>2022-10-28T13:46:22Z</time>
      </trkpt>
      <trkpt lat="44.42021" lon="5.71009">
        <ele>655.2</ele>
        <time>2022-10-28T13:46:23Z</time>
      </trkpt>
      <trkpt lat="44.42016" lon="5.7101">
        <ele>655.1</ele>
        <time>2022-10-28T13:46:24Z</time>
      </trkpt>
      <trkpt lat="44.4201" lon="5.71011">
        <ele>655.1</ele>
        <time>2022-10-28T13:46:25Z</time>
      </trkpt>
      <trkpt lat="44.42005" lon="5.71013">
        <ele>655</ele>
        <time>2022-10-28T13:46:26Z</time>
      </trkpt>
      <trkpt lat="44.41999" lon="5.71016">
        <ele>654.9</ele>
        <time>2022-10-28T13:46:27Z</time>
      </trkpt>
      <trkpt lat="44.41994" lon="5.71018">
        <ele>654.8</ele>
        <time>2022-10-28T13:46:28Z</time>
      </trkpt>
      <trkpt lat="44.41988" lon="5.71021">
        <ele>654.7</ele>
        <time>2022-10-28T13:46:29Z</time>
      </trkpt>
      <trkpt lat="44.41983" lon="5.71025">
        <ele>654.6</ele>
        <time>2022-10-28T13:46:30Z</time>
      </trkpt>
      <trkpt lat="44.41978" lon="5.71028">
        <ele>654.5</ele>
        <time>2022-10-28T13:46:31Z</time>
      </trkpt>
      <trkpt lat="44.41973" lon="5.71032">
        <ele>654.4</ele>
        <time>2022-10-28T13:46:32Z</time>
      </trkpt>
      <trkpt lat="44.41968" lon="5.71035">
        <ele>654.3</ele>
        <time>2022-10-28T13:46:33Z</time>
      </trkpt>
      <trkpt lat="44.41962" lon="5.71039">
        <ele>654.2</ele>
        <time>2022-10-28T13:46:34Z</time>
      </trkpt>
      <trkpt lat="44.41957" lon="5.71043">
        <ele>654.2</ele>
        <time>2022-10-28T13:46:35Z</time>
      </trkpt>
      <trkpt lat="44.41951" lon="5.71048">
        <ele>654.1</ele>
        <time>2022-10-28T13:46:36Z</time>
      </trkpt>
      <trkpt lat="44.41946" lon="5.71053">
        <ele>654</ele>
        <time>2022-10-28T13:46:37Z</time>
      </trkpt>
      <trkpt lat="44.41941" lon="5.71057">
        <ele>653.9</ele>
        <time>2022-10-28T13:46:38Z</time>
      </trkpt>
      <trkpt lat="44.41936" lon="5.71062">
        <ele>653.9</ele>
        <time>2022-10-28T13:46:39Z</time>
      </trkpt>
      <trkpt lat="44.4193" lon="5.71066">
        <ele>653.8</ele>
        <time>2022-10-28T13:46:40Z</time>
      </trkpt>
      <trkpt lat="44.41925" lon="5.71071">
        <ele>653.7</ele>
        <time>2022-10-28T13:46:41Z</time>
      </trkpt>
      <trkpt lat="44.4192" lon="5.71076">
        <ele>653.6</ele>
        <time>2022-10-28T13:46:42Z</time>
      </trkpt>
      <trkpt lat="44.41915" lon="5.71081">
        <ele>653.5</ele>
        <time>2022-10-28T13:46:43Z</time>
      </trkpt>
      <trkpt lat="44.4191" lon="5.71085">
        <ele>653.5</ele>
        <time>2022-10-28T13:46:44Z</time>
      </trkpt>
      <trkpt lat="44.41904" lon="5.7109">
        <ele>653.4</ele>
        <time>2022-10-28T13:46:45Z</time>
      </trkpt>
      <trkpt lat="44.41899" lon="5.71094">
        <ele>653.4</ele>
        <time>2022-10-28T13:46:46Z</time>
      </trkpt>
      <trkpt lat="44.41894" lon="5.71098">
        <ele>653.4</ele>
        <time>2022-10-28T13:46:47Z</time>
      </trkpt>
      <trkpt lat="44.41888" lon="5.71102">
        <ele>653.4</ele>
        <time>2022-10-28T13:46:48Z</time>
      </trkpt>
      <trkpt lat="44.41883" lon="5.71107">
        <ele>653.4</ele>
        <time>2022-10-28T13:46:49Z</time>
      </trkpt>
      <trkpt lat="44.41878" lon="5.71111">
        <ele>653.4</ele>
        <time>2022-10-28T13:46:50Z</time>
      </trkpt>
      <trkpt lat="44.41873" lon="5.71116">
        <ele>653.4</ele>
        <time>2022-10-28T13:46:51Z</time>
      </trkpt>
      <trkpt lat="44.41868" lon="5.71121">
        <ele>653.4</ele>
        <time>2022-10-28T13:46:52Z</time>
      </trkpt>
      <trkpt lat="44.41864" lon="5.71125">
        <ele>653.4</ele>
        <time>2022-10-28T13:46:53Z</time>
      </trkpt>
      <trkpt lat="44.41858" lon="5.71129">
        <ele>653.3</ele>
        <time>2022-10-28T13:46:54Z</time>
      </trkpt>
      <trkpt lat="44.41854" lon="5.71133">
        <ele>653.3</ele>
        <time>2022-10-28T13:46:55Z</time>
      </trkpt>
      <trkpt lat="44.41849" lon="5.71137">
        <ele>653.3</ele>
        <time>2022-10-28T13:46:56Z</time>
      </trkpt>
      <trkpt lat="44.41844" lon="5.71141">
        <ele>653.3</ele>
        <time>2022-10-28T13:46:57Z</time>
      </trkpt>
      <trkpt lat="44.41839" lon="5.71145">
        <ele>653.3</ele>
        <time>2022-10-28T13:46:58Z</time>
      </trkpt>
      <trkpt lat="44.41835" lon="5.71149">
        <ele>653.3</ele>
        <time>2022-10-28T13:46:59Z</time>
      </trkpt>
      <trkpt lat="44.4183" lon="5.71153">
        <ele>653.3</ele>
        <time>2022-10-28T13:47:00Z</time>
      </trkpt>
      <trkpt lat="44.41825" lon="5.71158">
        <ele>653.3</ele>
        <time>2022-10-28T13:47:01Z</time>
      </trkpt>
      <trkpt lat="44.4182" lon="5.71162">
        <ele>653.3</ele>
        <time>2022-10-28T13:47:02Z</time>
      </trkpt>
      <trkpt lat="44.41815" lon="5.71166">
        <ele>653.3</ele>
        <time>2022-10-28T13:47:03Z</time>
      </trkpt>
      <trkpt lat="44.4181" lon="5.71169">
        <ele>653.3</ele>
        <time>2022-10-28T13:47:04Z</time>
      </trkpt>
      <trkpt lat="44.41805" lon="5.71174">
        <ele>653.4</ele>
        <time>2022-10-28T13:47:05Z</time>
      </trkpt>
      <trkpt lat="44.41801" lon="5.71178">
        <ele>653.4</ele>
        <time>2022-10-28T13:47:06Z</time>
      </trkpt>
      <trkpt lat="44.41797" lon="5.71182">
        <ele>653.5</ele>
        <time>2022-10-28T13:47:07Z</time>
      </trkpt>
      <trkpt lat="44.41792" lon="5.71186">
        <ele>653.6</ele>
        <time>2022-10-28T13:47:08Z</time>
      </trkpt>
      <trkpt lat="44.41788" lon="5.7119">
        <ele>653.6</ele>
        <time>2022-10-28T13:47:09Z</time>
      </trkpt>
      <trkpt lat="44.41783" lon="5.71193">
        <ele>653.7</ele>
        <time>2022-10-28T13:47:10Z</time>
      </trkpt>
      <trkpt lat="44.41778" lon="5.71196">
        <ele>653.9</ele>
        <time>2022-10-28T13:47:11Z</time>
      </trkpt>
      <trkpt lat="44.41773" lon="5.71199">
        <ele>654</ele>
        <time>2022-10-28T13:47:12Z</time>
      </trkpt>
      <trkpt lat="44.41768" lon="5.71202">
        <ele>654.1</ele>
        <time>2022-10-28T13:47:13Z</time>
      </trkpt>
      <trkpt lat="44.41764" lon="5.71203">
        <ele>654.3</ele>
        <time>2022-10-28T13:47:14Z</time>
      </trkpt>
      <trkpt lat="44.41759" lon="5.71204">
        <ele>654.4</ele>
        <time>2022-10-28T13:47:15Z</time>
      </trkpt>
      <trkpt lat="44.41754" lon="5.71205">
        <ele>654.6</ele>
        <time>2022-10-28T13:47:16Z</time>
      </trkpt>
      <trkpt lat="44.4175" lon="5.71206">
        <ele>654.7</ele>
        <time>2022-10-28T13:47:17Z</time>
      </trkpt>
      <trkpt lat="44.41746" lon="5.71206">
        <ele>654.8</ele>
        <time>2022-10-28T13:47:18Z</time>
      </trkpt>
      <trkpt lat="44.41743" lon="5.71206">
        <ele>654.9</ele>
        <time>2022-10-28T13:47:19Z</time>
      </trkpt>
      <trkpt lat="44.4174" lon="5.71206">
        <ele>654.9</ele>
        <time>2022-10-28T13:47:20Z</time>
      </trkpt>
      <trkpt lat="44.41735" lon="5.71206">
        <ele>655.1</ele>
        <time>2022-10-28T13:47:21Z</time>
      </trkpt>
      <trkpt lat="44.41732" lon="5.71205">
        <ele>655.1</ele>
        <time>2022-10-28T13:47:22Z</time>
      </trkpt>
      <trkpt lat="44.41729" lon="5.71204">
        <ele>655.2</ele>
        <time>2022-10-28T13:47:23Z</time>
      </trkpt>
      <trkpt lat="44.41726" lon="5.71204">
        <ele>655.2</ele>
        <time>2022-10-28T13:47:24Z</time>
      </trkpt>
      <trkpt lat="44.41723" lon="5.71204">
        <ele>655.2</ele>
        <time>2022-10-28T13:47:25Z</time>
      </trkpt>
      <trkpt lat="44.41717" lon="5.712">
        <ele>655.2</ele>
        <time>2022-10-28T13:47:26Z</time>
      </trkpt>
      <trkpt lat="44.41712" lon="5.712">
        <ele>655.2</ele>
        <time>2022-10-28T13:47:27Z</time>
      </trkpt>
      <trkpt lat="44.41709" lon="5.71199">
        <ele>655.2</ele>
        <time>2022-10-28T13:47:28Z</time>
      </trkpt>
      <trkpt lat="44.41703" lon="5.71196">
        <ele>655.1</ele>
        <time>2022-10-28T13:47:29Z</time>
      </trkpt>
      <trkpt lat="44.41698" lon="5.71194">
        <ele>655</ele>
        <time>2022-10-28T13:47:30Z</time>
      </trkpt>
      <trkpt lat="44.41693" lon="5.71193">
        <ele>654.9</ele>
        <time>2022-10-28T13:47:31Z</time>
      </trkpt>
      <trkpt lat="44.41688" lon="5.71191">
        <ele>654.8</ele>
        <time>2022-10-28T13:47:32Z</time>
      </trkpt>
      <trkpt lat="44.41683" lon="5.7119">
        <ele>654.6</ele>
        <time>2022-10-28T13:47:33Z</time>
      </trkpt>
      <trkpt lat="44.41678" lon="5.71189">
        <ele>654.5</ele>
        <time>2022-10-28T13:47:34Z</time>
      </trkpt>
      <trkpt lat="44.41673" lon="5.7119">
        <ele>654.4</ele>
        <time>2022-10-28T13:47:35Z</time>
      </trkpt>
      <trkpt lat="44.41667" lon="5.7119">
        <ele>654.3</ele>
        <time>2022-10-28T13:47:36Z</time>
      </trkpt>
      <trkpt lat="44.41661" lon="5.7119">
        <ele>654.2</ele>
        <time>2022-10-28T13:47:37Z</time>
      </trkpt>
      <trkpt lat="44.41655" lon="5.7119">
        <ele>654.2</ele>
        <time>2022-10-28T13:47:38Z</time>
      </trkpt>
      <trkpt lat="44.41649" lon="5.71191">
        <ele>654.1</ele>
        <time>2022-10-28T13:47:39Z</time>
      </trkpt>
      <trkpt lat="44.41643" lon="5.71192">
        <ele>654.1</ele>
        <time>2022-10-28T13:47:40Z</time>
      </trkpt>
      <trkpt lat="44.41638" lon="5.71193">
        <ele>654.1</ele>
        <time>2022-10-28T13:47:41Z</time>
      </trkpt>
      <trkpt lat="44.41632" lon="5.71193">
        <ele>654.1</ele>
        <time>2022-10-28T13:47:42Z</time>
      </trkpt>
      <trkpt lat="44.41627" lon="5.71194">
        <ele>654.1</ele>
        <time>2022-10-28T13:47:43Z</time>
      </trkpt>
      <trkpt lat="44.41621" lon="5.71196">
        <ele>654.1</ele>
        <time>2022-10-28T13:47:44Z</time>
      </trkpt>
      <trkpt lat="44.41615" lon="5.71197">
        <ele>654.1</ele>
        <time>2022-10-28T13:47:45Z</time>
      </trkpt>
      <trkpt lat="44.4161" lon="5.71198">
        <ele>654.1</ele>
        <time>2022-10-28T13:47:46Z</time>
      </trkpt>
      <trkpt lat="44.41605" lon="5.71198">
        <ele>654.2</ele>
        <time>2022-10-28T13:47:47Z</time>
      </trkpt>
      <trkpt lat="44.416" lon="5.71199">
        <ele>654.2</ele>
        <time>2022-10-28T13:47:48Z</time>
      </trkpt>
      <trkpt lat="44.41595" lon="5.712">
        <ele>654.2</ele>
        <time>2022-10-28T13:47:49Z</time>
      </trkpt>
      <trkpt lat="44.4159" lon="5.712">
        <ele>654.3</ele>
        <time>2022-10-28T13:47:50Z</time>
      </trkpt>
      <trkpt lat="44.41584" lon="5.71201">
        <ele>654.3</ele>
        <time>2022-10-28T13:47:51Z</time>
      </trkpt>
      <trkpt lat="44.41579" lon="5.71202">
        <ele>654.4</ele>
        <time>2022-10-28T13:47:52Z</time>
      </trkpt>
      <trkpt lat="44.41575" lon="5.71202">
        <ele>654.4</ele>
        <time>2022-10-28T13:47:53Z</time>
      </trkpt>
      <trkpt lat="44.4157" lon="5.71203">
        <ele>654.5</ele>
        <time>2022-10-28T13:47:54Z</time>
      </trkpt>
      <trkpt lat="44.41565" lon="5.71204">
        <ele>654.5</ele>
        <time>2022-10-28T13:47:55Z</time>
      </trkpt>
      <trkpt lat="44.4156" lon="5.71204">
        <ele>654.5</ele>
        <time>2022-10-28T13:47:56Z</time>
      </trkpt>
      <trkpt lat="44.41556" lon="5.71205">
        <ele>654.6</ele>
        <time>2022-10-28T13:47:57Z</time>
      </trkpt>
      <trkpt lat="44.41551" lon="5.71206">
        <ele>654.5</ele>
        <time>2022-10-28T13:47:58Z</time>
      </trkpt>
      <trkpt lat="44.41547" lon="5.71207">
        <ele>654.5</ele>
        <time>2022-10-28T13:47:59Z</time>
      </trkpt>
      <trkpt lat="44.41542" lon="5.71208">
        <ele>654.4</ele>
        <time>2022-10-28T13:48:00Z</time>
      </trkpt>
      <trkpt lat="44.41536" lon="5.71209">
        <ele>654.4</ele>
        <time>2022-10-28T13:48:01Z</time>
      </trkpt>
      <trkpt lat="44.41531" lon="5.71209">
        <ele>654.3</ele>
        <time>2022-10-28T13:48:02Z</time>
      </trkpt>
      <trkpt lat="44.41526" lon="5.7121">
        <ele>654.3</ele>
        <time>2022-10-28T13:48:03Z</time>
      </trkpt>
      <trkpt lat="44.41521" lon="5.71211">
        <ele>654.3</ele>
        <time>2022-10-28T13:48:04Z</time>
      </trkpt>
      <trkpt lat="44.41515" lon="5.71211">
        <ele>654.2</ele>
        <time>2022-10-28T13:48:05Z</time>
      </trkpt>
      <trkpt lat="44.4151" lon="5.71211">
        <ele>654.2</ele>
        <time>2022-10-28T13:48:06Z</time>
      </trkpt>
      <trkpt lat="44.41504" lon="5.71212">
        <ele>654.2</ele>
        <time>2022-10-28T13:48:07Z</time>
      </trkpt>
      <trkpt lat="44.41499" lon="5.71213">
        <ele>654.2</ele>
        <time>2022-10-28T13:48:08Z</time>
      </trkpt>
      <trkpt lat="44.41494" lon="5.71214">
        <ele>654.2</ele>
        <time>2022-10-28T13:48:09Z</time>
      </trkpt>
      <trkpt lat="44.41489" lon="5.71215">
        <ele>654.2</ele>
        <time>2022-10-28T13:48:10Z</time>
      </trkpt>
      <trkpt lat="44.41484" lon="5.71215">
        <ele>654.2</ele>
        <time>2022-10-28T13:48:11Z</time>
      </trkpt>
      <trkpt lat="44.41479" lon="5.71216">
        <ele>654.2</ele>
        <time>2022-10-28T13:48:12Z</time>
      </trkpt>
      <trkpt lat="44.41474" lon="5.71216">
        <ele>654.1</ele>
        <time>2022-10-28T13:48:13Z</time>
      </trkpt>
      <trkpt lat="44.41469" lon="5.71217">
        <ele>654.1</ele>
        <time>2022-10-28T13:48:14Z</time>
      </trkpt>
      <trkpt lat="44.41463" lon="5.71218">
        <ele>654.1</ele>
        <time>2022-10-28T13:48:15Z</time>
      </trkpt>
      <trkpt lat="44.41458" lon="5.71218">
        <ele>654</ele>
        <time>2022-10-28T13:48:16Z</time>
      </trkpt>
      <trkpt lat="44.41453" lon="5.7122">
        <ele>654</ele>
        <time>2022-10-28T13:48:17Z</time>
      </trkpt>
      <trkpt lat="44.41448" lon="5.71221">
        <ele>653.9</ele>
        <time>2022-10-28T13:48:18Z</time>
      </trkpt>
      <trkpt lat="44.41442" lon="5.71222">
        <ele>653.9</ele>
        <time>2022-10-28T13:48:19Z</time>
      </trkpt>
      <trkpt lat="44.41437" lon="5.71224">
        <ele>653.8</ele>
        <time>2022-10-28T13:48:20Z</time>
      </trkpt>
      <trkpt lat="44.41432" lon="5.71225">
        <ele>653.7</ele>
        <time>2022-10-28T13:48:21Z</time>
      </trkpt>
      <trkpt lat="44.41426" lon="5.71226">
        <ele>653.7</ele>
        <time>2022-10-28T13:48:22Z</time>
      </trkpt>
      <trkpt lat="44.4142" lon="5.71227">
        <ele>653.6</ele>
        <time>2022-10-28T13:48:23Z</time>
      </trkpt>
      <trkpt lat="44.41415" lon="5.71229">
        <ele>653.6</ele>
        <time>2022-10-28T13:48:24Z</time>
      </trkpt>
      <trkpt lat="44.41409" lon="5.7123">
        <ele>653.6</ele>
        <time>2022-10-28T13:48:25Z</time>
      </trkpt>
      <trkpt lat="44.41403" lon="5.71232">
        <ele>653.6</ele>
        <time>2022-10-28T13:48:26Z</time>
      </trkpt>
      <trkpt lat="44.41398" lon="5.71233">
        <ele>653.6</ele>
        <time>2022-10-28T13:48:27Z</time>
      </trkpt>
      <trkpt lat="44.41393" lon="5.71235">
        <ele>653.6</ele>
        <time>2022-10-28T13:48:28Z</time>
      </trkpt>
      <trkpt lat="44.41387" lon="5.71236">
        <ele>653.6</ele>
        <time>2022-10-28T13:48:29Z</time>
      </trkpt>
      <trkpt lat="44.41382" lon="5.71237">
        <ele>653.6</ele>
        <time>2022-10-28T13:48:30Z</time>
      </trkpt>
      <trkpt lat="44.41377" lon="5.71239">
        <ele>653.6</ele>
        <time>2022-10-28T13:48:31Z</time>
      </trkpt>
      <trkpt lat="44.41372" lon="5.7124">
        <ele>653.6</ele>
        <time>2022-10-28T13:48:32Z</time>
      </trkpt>
      <trkpt lat="44.41367" lon="5.71242">
        <ele>653.5</ele>
        <time>2022-10-28T13:48:33Z</time>
      </trkpt>
      <trkpt lat="44.41362" lon="5.71244">
        <ele>653.5</ele>
        <time>2022-10-28T13:48:34Z</time>
      </trkpt>
      <trkpt lat="44.41357" lon="5.71246">
        <ele>653.5</ele>
        <time>2022-10-28T13:48:35Z</time>
      </trkpt>
      <trkpt lat="44.41352" lon="5.71247">
        <ele>653.5</ele>
        <time>2022-10-28T13:48:36Z</time>
      </trkpt>
      <trkpt lat="44.41347" lon="5.71249">
        <ele>653.5</ele>
        <time>2022-10-28T13:48:37Z</time>
      </trkpt>
      <trkpt lat="44.41342" lon="5.71251">
        <ele>653.5</ele>
        <time>2022-10-28T13:48:38Z</time>
      </trkpt>
      <trkpt lat="44.41337" lon="5.71253">
        <ele>653.5</ele>
        <time>2022-10-28T13:48:39Z</time>
      </trkpt>
      <trkpt lat="44.41332" lon="5.71255">
        <ele>653.4</ele>
        <time>2022-10-28T13:48:40Z</time>
      </trkpt>
      <trkpt lat="44.41327" lon="5.71258">
        <ele>653.4</ele>
        <time>2022-10-28T13:48:41Z</time>
      </trkpt>
      <trkpt lat="44.41322" lon="5.71261">
        <ele>653.3</ele>
        <time>2022-10-28T13:48:42Z</time>
      </trkpt>
      <trkpt lat="44.41318" lon="5.71265">
        <ele>653.3</ele>
        <time>2022-10-28T13:48:43Z</time>
      </trkpt>
      <trkpt lat="44.41313" lon="5.7127">
        <ele>653.2</ele>
        <time>2022-10-28T13:48:44Z</time>
      </trkpt>
      <trkpt lat="44.41308" lon="5.71274">
        <ele>653.1</ele>
        <time>2022-10-28T13:48:45Z</time>
      </trkpt>
      <trkpt lat="44.41304" lon="5.71278">
        <ele>653</ele>
        <time>2022-10-28T13:48:46Z</time>
      </trkpt>
      <trkpt lat="44.41299" lon="5.71282">
        <ele>652.9</ele>
        <time>2022-10-28T13:48:47Z</time>
      </trkpt>
      <trkpt lat="44.41293" lon="5.71286">
        <ele>652.8</ele>
        <time>2022-10-28T13:48:48Z</time>
      </trkpt>
      <trkpt lat="44.41288" lon="5.7129">
        <ele>652.7</ele>
        <time>2022-10-28T13:48:49Z</time>
      </trkpt>
      <trkpt lat="44.41283" lon="5.71294">
        <ele>652.7</ele>
        <time>2022-10-28T13:48:50Z</time>
      </trkpt>
      <trkpt lat="44.41278" lon="5.71299">
        <ele>652.6</ele>
        <time>2022-10-28T13:48:51Z</time>
      </trkpt>
      <trkpt lat="44.41273" lon="5.71303">
        <ele>652.5</ele>
        <time>2022-10-28T13:48:52Z</time>
      </trkpt>
      <trkpt lat="44.41268" lon="5.71308">
        <ele>652.4</ele>
        <time>2022-10-28T13:48:53Z</time>
      </trkpt>
      <trkpt lat="44.41263" lon="5.71312">
        <ele>652.3</ele>
        <time>2022-10-28T13:48:54Z</time>
      </trkpt>
      <trkpt lat="44.41258" lon="5.71316">
        <ele>652.3</ele>
        <time>2022-10-28T13:48:55Z</time>
      </trkpt>
      <trkpt lat="44.41253" lon="5.71319">
        <ele>652.2</ele>
        <time>2022-10-28T13:48:56Z</time>
      </trkpt>
      <trkpt lat="44.41248" lon="5.71324">
        <ele>652.1</ele>
        <time>2022-10-28T13:48:57Z</time>
      </trkpt>
      <trkpt lat="44.41243" lon="5.71328">
        <ele>652.1</ele>
        <time>2022-10-28T13:48:58Z</time>
      </trkpt>
      <trkpt lat="44.41238" lon="5.71332">
        <ele>652</ele>
        <time>2022-10-28T13:48:59Z</time>
      </trkpt>
      <trkpt lat="44.41234" lon="5.71336">
        <ele>652</ele>
        <time>2022-10-28T13:49:00Z</time>
      </trkpt>
      <trkpt lat="44.41229" lon="5.7134">
        <ele>651.9</ele>
        <time>2022-10-28T13:49:01Z</time>
      </trkpt>
      <trkpt lat="44.41224" lon="5.71344">
        <ele>651.8</ele>
        <time>2022-10-28T13:49:02Z</time>
      </trkpt>
      <trkpt lat="44.41219" lon="5.71348">
        <ele>651.8</ele>
        <time>2022-10-28T13:49:03Z</time>
      </trkpt>
      <trkpt lat="44.41215" lon="5.71352">
        <ele>651.7</ele>
        <time>2022-10-28T13:49:04Z</time>
      </trkpt>
      <trkpt lat="44.4121" lon="5.71355">
        <ele>651.6</ele>
        <time>2022-10-28T13:49:05Z</time>
      </trkpt>
      <trkpt lat="44.41205" lon="5.71359">
        <ele>651.5</ele>
        <time>2022-10-28T13:49:06Z</time>
      </trkpt>
      <trkpt lat="44.412" lon="5.71363">
        <ele>651.4</ele>
        <time>2022-10-28T13:49:07Z</time>
      </trkpt>
      <trkpt lat="44.41195" lon="5.71367">
        <ele>651.3</ele>
        <time>2022-10-28T13:49:08Z</time>
      </trkpt>
      <trkpt lat="44.4119" lon="5.71371">
        <ele>651.3</ele>
        <time>2022-10-28T13:49:09Z</time>
      </trkpt>
      <trkpt lat="44.41185" lon="5.71375">
        <ele>651.2</ele>
        <time>2022-10-28T13:49:10Z</time>
      </trkpt>
      <trkpt lat="44.4118" lon="5.71379">
        <ele>651.2</ele>
        <time>2022-10-28T13:49:11Z</time>
      </trkpt>
      <trkpt lat="44.41175" lon="5.71383">
        <ele>651.1</ele>
        <time>2022-10-28T13:49:12Z</time>
      </trkpt>
      <trkpt lat="44.4117" lon="5.71388">
        <ele>651.1</ele>
        <time>2022-10-28T13:49:13Z</time>
      </trkpt>
      <trkpt lat="44.41165" lon="5.71392">
        <ele>651.1</ele>
        <time>2022-10-28T13:49:14Z</time>
      </trkpt>
      <trkpt lat="44.4116" lon="5.71395">
        <ele>651.1</ele>
        <time>2022-10-28T13:49:15Z</time>
      </trkpt>
      <trkpt lat="44.41155" lon="5.71399">
        <ele>651.2</ele>
        <time>2022-10-28T13:49:16Z</time>
      </trkpt>
      <trkpt lat="44.4115" lon="5.71402">
        <ele>651.2</ele>
        <time>2022-10-28T13:49:17Z</time>
      </trkpt>
      <trkpt lat="44.41145" lon="5.71404">
        <ele>651.3</ele>
        <time>2022-10-28T13:49:18Z</time>
      </trkpt>
      <trkpt lat="44.4114" lon="5.71406">
        <ele>651.4</ele>
        <time>2022-10-28T13:49:19Z</time>
      </trkpt>
      <trkpt lat="44.41135" lon="5.71408">
        <ele>651.5</ele>
        <time>2022-10-28T13:49:20Z</time>
      </trkpt>
      <trkpt lat="44.4113" lon="5.7141">
        <ele>651.6</ele>
        <time>2022-10-28T13:49:21Z</time>
      </trkpt>
      <trkpt lat="44.41126" lon="5.71413">
        <ele>651.7</ele>
        <time>2022-10-28T13:49:22Z</time>
      </trkpt>
      <trkpt lat="44.41121" lon="5.71415">
        <ele>651.8</ele>
        <time>2022-10-28T13:49:23Z</time>
      </trkpt>
      <trkpt lat="44.41117" lon="5.71417">
        <ele>652</ele>
        <time>2022-10-28T13:49:24Z</time>
      </trkpt>
      <trkpt lat="44.41113" lon="5.71418">
        <ele>652.1</ele>
        <time>2022-10-28T13:49:25Z</time>
      </trkpt>
      <trkpt lat="44.4111" lon="5.71419">
        <ele>652.2</ele>
        <time>2022-10-28T13:49:26Z</time>
      </trkpt>
      <trkpt lat="44.41106" lon="5.7142">
        <ele>652.3</ele>
        <time>2022-10-28T13:49:27Z</time>
      </trkpt>
      <trkpt lat="44.41102" lon="5.71422">
        <ele>652.5</ele>
        <time>2022-10-28T13:49:28Z</time>
      </trkpt>
      <trkpt lat="44.41098" lon="5.71423">
        <ele>652.6</ele>
        <time>2022-10-28T13:49:29Z</time>
      </trkpt>
      <trkpt lat="44.41094" lon="5.71425">
        <ele>652.7</ele>
        <time>2022-10-28T13:49:30Z</time>
      </trkpt>
      <trkpt lat="44.4109" lon="5.71426">
        <ele>652.9</ele>
        <time>2022-10-28T13:49:31Z</time>
      </trkpt>
      <trkpt lat="44.41087" lon="5.71428">
        <ele>653</ele>
        <time>2022-10-28T13:49:32Z</time>
      </trkpt>
      <trkpt lat="44.41086" lon="5.71429">
        <ele>653.1</ele>
        <time>2022-10-28T13:49:33Z</time>
      </trkpt>
      <trkpt lat="44.41081" lon="5.7143">
        <ele>653.3</ele>
        <time>2022-10-28T13:49:34Z</time>
      </trkpt>
      <trkpt lat="44.41077" lon="5.71432">
        <ele>653.5</ele>
        <time>2022-10-28T13:49:35Z</time>
      </trkpt>
      <trkpt lat="44.41073" lon="5.71434">
        <ele>653.8</ele>
        <time>2022-10-28T13:49:36Z</time>
      </trkpt>
      <trkpt lat="44.41069" lon="5.71435">
        <ele>654</ele>
        <time>2022-10-28T13:49:37Z</time>
      </trkpt>
      <trkpt lat="44.41066" lon="5.71437">
        <ele>654.2</ele>
        <time>2022-10-28T13:49:39Z</time>
      </trkpt>
      <trkpt lat="44.41061" lon="5.71439">
        <ele>654.4</ele>
        <time>2022-10-28T13:49:40Z</time>
      </trkpt>
      <trkpt lat="44.41057" lon="5.7144">
        <ele>654.7</ele>
        <time>2022-10-28T13:49:42Z</time>
      </trkpt>
      <trkpt lat="44.41053" lon="5.71442">
        <ele>654.9</ele>
        <time>2022-10-28T13:49:43Z</time>
      </trkpt>
      <trkpt lat="44.4105" lon="5.71444">
        <ele>655.1</ele>
        <time>2022-10-28T13:49:45Z</time>
      </trkpt>
      <trkpt lat="44.41045" lon="5.71446">
        <ele>655.4</ele>
        <time>2022-10-28T13:49:46Z</time>
      </trkpt>
      <trkpt lat="44.41042" lon="5.71448">
        <ele>655.6</ele>
        <time>2022-10-28T13:49:47Z</time>
      </trkpt>
      <trkpt lat="44.41039" lon="5.71449">
        <ele>655.7</ele>
        <time>2022-10-28T13:49:49Z</time>
      </trkpt>
      <trkpt lat="44.41036" lon="5.7145">
        <ele>655.8</ele>
        <time>2022-10-28T13:49:50Z</time>
      </trkpt>
      <trkpt lat="44.41033" lon="5.71451">
        <ele>655.9</ele>
        <time>2022-10-28T13:49:51Z</time>
      </trkpt>
      <trkpt lat="44.4103" lon="5.71452">
        <ele>656</ele>
        <time>2022-10-28T13:49:52Z</time>
      </trkpt>
      <trkpt lat="44.41027" lon="5.71453">
        <ele>656.1</ele>
        <time>2022-10-28T13:49:53Z</time>
      </trkpt>
      <trkpt lat="44.41024" lon="5.71455">
        <ele>656.2</ele>
        <time>2022-10-28T13:49:54Z</time>
      </trkpt>
      <trkpt lat="44.41021" lon="5.71457">
        <ele>656.2</ele>
        <time>2022-10-28T13:49:56Z</time>
      </trkpt>
      <trkpt lat="44.41017" lon="5.71458">
        <ele>656.2</ele>
        <time>2022-10-28T13:49:57Z</time>
      </trkpt>
      <trkpt lat="44.41013" lon="5.71459">
        <ele>656.2</ele>
        <time>2022-10-28T13:49:58Z</time>
      </trkpt>
      <trkpt lat="44.41009" lon="5.7146">
        <ele>656.2</ele>
        <time>2022-10-28T13:49:59Z</time>
      </trkpt>
      <trkpt lat="44.41005" lon="5.71461">
        <ele>656.1</ele>
        <time>2022-10-28T13:50:00Z</time>
      </trkpt>
      <trkpt lat="44.41002" lon="5.71462">
        <ele>656</ele>
        <time>2022-10-28T13:50:01Z</time>
      </trkpt>
      <trkpt lat="44.40999" lon="5.71463">
        <ele>655.9</ele>
        <time>2022-10-28T13:50:02Z</time>
      </trkpt>
      <trkpt lat="44.40994" lon="5.71465">
        <ele>655.8</ele>
        <time>2022-10-28T13:50:03Z</time>
      </trkpt>
      <trkpt lat="44.40991" lon="5.71466">
        <ele>655.7</ele>
        <time>2022-10-28T13:50:04Z</time>
      </trkpt>
      <trkpt lat="44.40985" lon="5.71468">
        <ele>655.4</ele>
        <time>2022-10-28T13:50:06Z</time>
      </trkpt>
      <trkpt lat="44.40979" lon="5.71469">
        <ele>655.2</ele>
        <time>2022-10-28T13:50:07Z</time>
      </trkpt>
      <trkpt lat="44.40972" lon="5.7147">
        <ele>655</ele>
        <time>2022-10-28T13:50:08Z</time>
      </trkpt>
      <trkpt lat="44.40967" lon="5.7147">
        <ele>654.8</ele>
        <time>2022-10-28T13:50:09Z</time>
      </trkpt>
      <trkpt lat="44.40962" lon="5.71471">
        <ele>654.6</ele>
        <time>2022-10-28T13:50:10Z</time>
      </trkpt>
      <trkpt lat="44.40957" lon="5.71473">
        <ele>654.4</ele>
        <time>2022-10-28T13:50:11Z</time>
      </trkpt>
      <trkpt lat="44.40951" lon="5.71474">
        <ele>654.2</ele>
        <time>2022-10-28T13:50:12Z</time>
      </trkpt>
      <trkpt lat="44.40945" lon="5.71475">
        <ele>654</ele>
        <time>2022-10-28T13:50:13Z</time>
      </trkpt>
      <trkpt lat="44.40939" lon="5.71476">
        <ele>653.8</ele>
        <time>2022-10-28T13:50:14Z</time>
      </trkpt>
      <trkpt lat="44.40933" lon="5.71478">
        <ele>653.5</ele>
        <time>2022-10-28T13:50:15Z</time>
      </trkpt>
      <trkpt lat="44.40927" lon="5.71479">
        <ele>653.3</ele>
        <time>2022-10-28T13:50:16Z</time>
      </trkpt>
      <trkpt lat="44.40921" lon="5.71481">
        <ele>653.1</ele>
        <time>2022-10-28T13:50:17Z</time>
      </trkpt>
      <trkpt lat="44.40914" lon="5.71482">
        <ele>652.8</ele>
        <time>2022-10-28T13:50:18Z</time>
      </trkpt>
      <trkpt lat="44.40908" lon="5.71484">
        <ele>652.6</ele>
        <time>2022-10-28T13:50:19Z</time>
      </trkpt>
      <trkpt lat="44.40901" lon="5.71486">
        <ele>652.4</ele>
        <time>2022-10-28T13:50:20Z</time>
      </trkpt>
      <trkpt lat="44.40895" lon="5.71488">
        <ele>652.3</ele>
        <time>2022-10-28T13:50:21Z</time>
      </trkpt>
      <trkpt lat="44.40889" lon="5.7149">
        <ele>652.1</ele>
        <time>2022-10-28T13:50:22Z</time>
      </trkpt>
      <trkpt lat="44.40882" lon="5.71492">
        <ele>652</ele>
        <time>2022-10-28T13:50:23Z</time>
      </trkpt>
      <trkpt lat="44.40876" lon="5.71493">
        <ele>651.9</ele>
        <time>2022-10-28T13:50:24Z</time>
      </trkpt>
      <trkpt lat="44.40869" lon="5.71495">
        <ele>651.8</ele>
        <time>2022-10-28T13:50:25Z</time>
      </trkpt>
      <trkpt lat="44.40862" lon="5.71496">
        <ele>651.7</ele>
        <time>2022-10-28T13:50:26Z</time>
      </trkpt>
      <trkpt lat="44.40856" lon="5.71498">
        <ele>651.7</ele>
        <time>2022-10-28T13:50:27Z</time>
      </trkpt>
      <trkpt lat="44.4085" lon="5.715">
        <ele>651.7</ele>
        <time>2022-10-28T13:50:28Z</time>
      </trkpt>
      <trkpt lat="44.40844" lon="5.71501">
        <ele>651.7</ele>
        <time>2022-10-28T13:50:29Z</time>
      </trkpt>
      <trkpt lat="44.40838" lon="5.71502">
        <ele>651.7</ele>
        <time>2022-10-28T13:50:30Z</time>
      </trkpt>
      <trkpt lat="44.40832" lon="5.71504">
        <ele>651.7</ele>
        <time>2022-10-28T13:50:31Z</time>
      </trkpt>
      <trkpt lat="44.40826" lon="5.71505">
        <ele>651.8</ele>
        <time>2022-10-28T13:50:32Z</time>
      </trkpt>
      <trkpt lat="44.40819" lon="5.71507">
        <ele>651.8</ele>
        <time>2022-10-28T13:50:33Z</time>
      </trkpt>
      <trkpt lat="44.40814" lon="5.71508">
        <ele>651.9</ele>
        <time>2022-10-28T13:50:34Z</time>
      </trkpt>
      <trkpt lat="44.40808" lon="5.71509">
        <ele>651.9</ele>
        <time>2022-10-28T13:50:35Z</time>
      </trkpt>
      <trkpt lat="44.40803" lon="5.7151">
        <ele>652</ele>
        <time>2022-10-28T13:50:36Z</time>
      </trkpt>
      <trkpt lat="44.40797" lon="5.71512">
        <ele>652.1</ele>
        <time>2022-10-28T13:50:37Z</time>
      </trkpt>
      <trkpt lat="44.40792" lon="5.71514">
        <ele>652.1</ele>
        <time>2022-10-28T13:50:38Z</time>
      </trkpt>
      <trkpt lat="44.40786" lon="5.71515">
        <ele>652.2</ele>
        <time>2022-10-28T13:50:39Z</time>
      </trkpt>
      <trkpt lat="44.40781" lon="5.71517">
        <ele>652.3</ele>
        <time>2022-10-28T13:50:40Z</time>
      </trkpt>
      <trkpt lat="44.40776" lon="5.71519">
        <ele>652.4</ele>
        <time>2022-10-28T13:50:41Z</time>
      </trkpt>
      <trkpt lat="44.40771" lon="5.71521">
        <ele>652.6</ele>
        <time>2022-10-28T13:50:42Z</time>
      </trkpt>
      <trkpt lat="44.40766" lon="5.71523">
        <ele>652.7</ele>
        <time>2022-10-28T13:50:43Z</time>
      </trkpt>
      <trkpt lat="44.40761" lon="5.71524">
        <ele>652.9</ele>
        <time>2022-10-28T13:50:44Z</time>
      </trkpt>
      <trkpt lat="44.40756" lon="5.71527">
        <ele>653.1</ele>
        <time>2022-10-28T13:50:45Z</time>
      </trkpt>
      <trkpt lat="44.40752" lon="5.71529">
        <ele>653.3</ele>
        <time>2022-10-28T13:50:46Z</time>
      </trkpt>
      <trkpt lat="44.40748" lon="5.71532">
        <ele>653.5</ele>
        <time>2022-10-28T13:50:47Z</time>
      </trkpt>
      <trkpt lat="44.40743" lon="5.71535">
        <ele>653.7</ele>
        <time>2022-10-28T13:50:48Z</time>
      </trkpt>
      <trkpt lat="44.40739" lon="5.71537">
        <ele>654</ele>
        <time>2022-10-28T13:50:49Z</time>
      </trkpt>
      <trkpt lat="44.40735" lon="5.7154">
        <ele>654.2</ele>
        <time>2022-10-28T13:50:50Z</time>
      </trkpt>
      <trkpt lat="44.40733" lon="5.71543">
        <ele>654.4</ele>
        <time>2022-10-28T13:50:51Z</time>
      </trkpt>
      <trkpt lat="44.40729" lon="5.71547">
        <ele>654.6</ele>
        <time>2022-10-28T13:50:52Z</time>
      </trkpt>
      <trkpt lat="44.40726" lon="5.7155">
        <ele>654.9</ele>
        <time>2022-10-28T13:50:53Z</time>
      </trkpt>
      <trkpt lat="44.40722" lon="5.71554">
        <ele>655.1</ele>
        <time>2022-10-28T13:50:54Z</time>
      </trkpt>
      <trkpt lat="44.40719" lon="5.71559">
        <ele>655.3</ele>
        <time>2022-10-28T13:50:55Z</time>
      </trkpt>
      <trkpt lat="44.40716" lon="5.71563">
        <ele>655.5</ele>
        <time>2022-10-28T13:50:56Z</time>
      </trkpt>
      <trkpt lat="44.40713" lon="5.71567">
        <ele>655.7</ele>
        <time>2022-10-28T13:50:57Z</time>
      </trkpt>
      <trkpt lat="44.40708" lon="5.71572">
        <ele>655.9</ele>
        <time>2022-10-28T13:50:58Z</time>
      </trkpt>
      <trkpt lat="44.40703" lon="5.71578">
        <ele>656.2</ele>
        <time>2022-10-28T13:51:00Z</time>
      </trkpt>
      <trkpt lat="44.40699" lon="5.71583">
        <ele>656.3</ele>
        <time>2022-10-28T13:51:01Z</time>
      </trkpt>
      <trkpt lat="44.40695" lon="5.71587">
        <ele>656.3</ele>
        <time>2022-10-28T13:51:02Z</time>
      </trkpt>
      <trkpt lat="44.40692" lon="5.71591">
        <ele>656.3</ele>
        <time>2022-10-28T13:51:03Z</time>
      </trkpt>
      <trkpt lat="44.40687" lon="5.71596">
        <ele>656.3</ele>
        <time>2022-10-28T13:51:04Z</time>
      </trkpt>
      <trkpt lat="44.40684" lon="5.716">
        <ele>656.2</ele>
        <time>2022-10-28T13:51:05Z</time>
      </trkpt>
      <trkpt lat="44.4068" lon="5.71603">
        <ele>656.2</ele>
        <time>2022-10-28T13:51:06Z</time>
      </trkpt>
      <trkpt lat="44.40676" lon="5.71607">
        <ele>656</ele>
        <time>2022-10-28T13:51:07Z</time>
      </trkpt>
      <trkpt lat="44.40672" lon="5.71612">
        <ele>655.9</ele>
        <time>2022-10-28T13:51:08Z</time>
      </trkpt>
      <trkpt lat="44.40668" lon="5.71616">
        <ele>655.7</ele>
        <time>2022-10-28T13:51:09Z</time>
      </trkpt>
      <trkpt lat="44.40664" lon="5.71621">
        <ele>655.5</ele>
        <time>2022-10-28T13:51:10Z</time>
      </trkpt>
      <trkpt lat="44.40659" lon="5.71626">
        <ele>655.3</ele>
        <time>2022-10-28T13:51:11Z</time>
      </trkpt>
      <trkpt lat="44.40655" lon="5.71631">
        <ele>655</ele>
        <time>2022-10-28T13:51:12Z</time>
      </trkpt>
      <trkpt lat="44.4065" lon="5.71636">
        <ele>654.8</ele>
        <time>2022-10-28T13:51:13Z</time>
      </trkpt>
      <trkpt lat="44.40645" lon="5.71642">
        <ele>654.6</ele>
        <time>2022-10-28T13:51:14Z</time>
      </trkpt>
      <trkpt lat="44.4064" lon="5.71647">
        <ele>654.4</ele>
        <time>2022-10-28T13:51:15Z</time>
      </trkpt>
      <trkpt lat="44.40634" lon="5.71654">
        <ele>654.3</ele>
        <time>2022-10-28T13:51:16Z</time>
      </trkpt>
      <trkpt lat="44.40629" lon="5.71659">
        <ele>654.2</ele>
        <time>2022-10-28T13:51:17Z</time>
      </trkpt>
      <trkpt lat="44.40624" lon="5.71665">
        <ele>654.1</ele>
        <time>2022-10-28T13:51:18Z</time>
      </trkpt>
      <trkpt lat="44.40619" lon="5.7167">
        <ele>654.1</ele>
        <time>2022-10-28T13:51:19Z</time>
      </trkpt>
      <trkpt lat="44.40614" lon="5.71676">
        <ele>654.1</ele>
        <time>2022-10-28T13:51:20Z</time>
      </trkpt>
      <trkpt lat="44.4061" lon="5.71681">
        <ele>654.2</ele>
        <time>2022-10-28T13:51:21Z</time>
      </trkpt>
      <trkpt lat="44.40605" lon="5.71687">
        <ele>654.2</ele>
        <time>2022-10-28T13:51:22Z</time>
      </trkpt>
      <trkpt lat="44.40601" lon="5.71692">
        <ele>654.2</ele>
        <time>2022-10-28T13:51:23Z</time>
      </trkpt>
      <trkpt lat="44.40596" lon="5.71697">
        <ele>654.2</ele>
        <time>2022-10-28T13:51:24Z</time>
      </trkpt>
      <trkpt lat="44.40592" lon="5.71703">
        <ele>654.2</ele>
        <time>2022-10-28T13:51:25Z</time>
      </trkpt>
      <trkpt lat="44.40587" lon="5.71708">
        <ele>654.1</ele>
        <time>2022-10-28T13:51:26Z</time>
      </trkpt>
      <trkpt lat="44.40583" lon="5.71714">
        <ele>654.1</ele>
        <time>2022-10-28T13:51:27Z</time>
      </trkpt>
      <trkpt lat="44.40579" lon="5.71719">
        <ele>654.2</ele>
        <time>2022-10-28T13:51:28Z</time>
      </trkpt>
      <trkpt lat="44.40575" lon="5.71724">
        <ele>654.2</ele>
        <time>2022-10-28T13:51:29Z</time>
      </trkpt>
      <trkpt lat="44.40572" lon="5.7173">
        <ele>654.2</ele>
        <time>2022-10-28T13:51:30Z</time>
      </trkpt>
      <trkpt lat="44.40568" lon="5.71735">
        <ele>654.2</ele>
        <time>2022-10-28T13:51:31Z</time>
      </trkpt>
      <trkpt lat="44.40564" lon="5.71741">
        <ele>654.2</ele>
        <time>2022-10-28T13:51:32Z</time>
      </trkpt>
      <trkpt lat="44.4056" lon="5.71746">
        <ele>654.2</ele>
        <time>2022-10-28T13:51:33Z</time>
      </trkpt>
      <trkpt lat="44.40557" lon="5.71751">
        <ele>654.2</ele>
        <time>2022-10-28T13:51:34Z</time>
      </trkpt>
      <trkpt lat="44.40553" lon="5.71756">
        <ele>654.2</ele>
        <time>2022-10-28T13:51:35Z</time>
      </trkpt>
      <trkpt lat="44.40549" lon="5.71761">
        <ele>654.2</ele>
        <time>2022-10-28T13:51:36Z</time>
      </trkpt>
      <trkpt lat="44.40546" lon="5.71767">
        <ele>654.2</ele>
        <time>2022-10-28T13:51:37Z</time>
      </trkpt>
      <trkpt lat="44.40542" lon="5.71773">
        <ele>654.2</ele>
        <time>2022-10-28T13:51:38Z</time>
      </trkpt>
      <trkpt lat="44.40538" lon="5.71779">
        <ele>654.2</ele>
        <time>2022-10-28T13:51:39Z</time>
      </trkpt>
      <trkpt lat="44.40535" lon="5.71785">
        <ele>654.1</ele>
        <time>2022-10-28T13:51:40Z</time>
      </trkpt>
      <trkpt lat="44.40531" lon="5.7179">
        <ele>654.1</ele>
        <time>2022-10-28T13:51:41Z</time>
      </trkpt>
      <trkpt lat="44.40527" lon="5.71796">
        <ele>654.1</ele>
        <time>2022-10-28T13:51:42Z</time>
      </trkpt>
      <trkpt lat="44.40523" lon="5.71801">
        <ele>654.1</ele>
        <time>2022-10-28T13:51:43Z</time>
      </trkpt>
      <trkpt lat="44.40519" lon="5.71807">
        <ele>654.1</ele>
        <time>2022-10-28T13:51:44Z</time>
      </trkpt>
      <trkpt lat="44.40515" lon="5.71812">
        <ele>654.1</ele>
        <time>2022-10-28T13:51:45Z</time>
      </trkpt>
      <trkpt lat="44.40511" lon="5.71818">
        <ele>654.1</ele>
        <time>2022-10-28T13:51:46Z</time>
      </trkpt>
      <trkpt lat="44.40507" lon="5.71824">
        <ele>654.1</ele>
        <time>2022-10-28T13:51:47Z</time>
      </trkpt>
      <trkpt lat="44.40504" lon="5.7183">
        <ele>654.1</ele>
        <time>2022-10-28T13:51:48Z</time>
      </trkpt>
      <trkpt lat="44.405" lon="5.71836">
        <ele>654.1</ele>
        <time>2022-10-28T13:51:49Z</time>
      </trkpt>
      <trkpt lat="44.40496" lon="5.71842">
        <ele>654.1</ele>
        <time>2022-10-28T13:51:50Z</time>
      </trkpt>
      <trkpt lat="44.40492" lon="5.71848">
        <ele>654.1</ele>
        <time>2022-10-28T13:51:51Z</time>
      </trkpt>
      <trkpt lat="44.40488" lon="5.71853">
        <ele>654</ele>
        <time>2022-10-28T13:51:52Z</time>
      </trkpt>
      <trkpt lat="44.40484" lon="5.71859">
        <ele>654</ele>
        <time>2022-10-28T13:51:53Z</time>
      </trkpt>
      <trkpt lat="44.4048" lon="5.71864">
        <ele>654</ele>
        <time>2022-10-28T13:51:54Z</time>
      </trkpt>
      <trkpt lat="44.40476" lon="5.7187">
        <ele>653.9</ele>
        <time>2022-10-28T13:51:55Z</time>
      </trkpt>
      <trkpt lat="44.40472" lon="5.71875">
        <ele>653.8</ele>
        <time>2022-10-28T13:51:56Z</time>
      </trkpt>
      <trkpt lat="44.40467" lon="5.7188">
        <ele>653.7</ele>
        <time>2022-10-28T13:51:57Z</time>
      </trkpt>
      <trkpt lat="44.40463" lon="5.71885">
        <ele>653.6</ele>
        <time>2022-10-28T13:51:58Z</time>
      </trkpt>
      <trkpt lat="44.40458" lon="5.7189">
        <ele>653.5</ele>
        <time>2022-10-28T13:51:59Z</time>
      </trkpt>
      <trkpt lat="44.40454" lon="5.71895">
        <ele>653.4</ele>
        <time>2022-10-28T13:52:00Z</time>
      </trkpt>
      <trkpt lat="44.40449" lon="5.719">
        <ele>653.3</ele>
        <time>2022-10-28T13:52:01Z</time>
      </trkpt>
      <trkpt lat="44.40444" lon="5.71905">
        <ele>653.2</ele>
        <time>2022-10-28T13:52:02Z</time>
      </trkpt>
      <trkpt lat="44.40439" lon="5.7191">
        <ele>653.1</ele>
        <time>2022-10-28T13:52:03Z</time>
      </trkpt>
      <trkpt lat="44.40434" lon="5.71915">
        <ele>653</ele>
        <time>2022-10-28T13:52:04Z</time>
      </trkpt>
      <trkpt lat="44.40429" lon="5.71921">
        <ele>652.9</ele>
        <time>2022-10-28T13:52:05Z</time>
      </trkpt>
      <trkpt lat="44.40424" lon="5.71926">
        <ele>652.8</ele>
        <time>2022-10-28T13:52:06Z</time>
      </trkpt>
      <trkpt lat="44.40419" lon="5.71931">
        <ele>652.7</ele>
        <time>2022-10-28T13:52:07Z</time>
      </trkpt>
      <trkpt lat="44.40415" lon="5.71936">
        <ele>652.6</ele>
        <time>2022-10-28T13:52:08Z</time>
      </trkpt>
      <trkpt lat="44.4041" lon="5.71941">
        <ele>652.5</ele>
        <time>2022-10-28T13:52:09Z</time>
      </trkpt>
      <trkpt lat="44.40405" lon="5.71946">
        <ele>652.4</ele>
        <time>2022-10-28T13:52:10Z</time>
      </trkpt>
      <trkpt lat="44.404" lon="5.71951">
        <ele>652.4</ele>
        <time>2022-10-28T13:52:11Z</time>
      </trkpt>
      <trkpt lat="44.40395" lon="5.71956">
        <ele>652.3</ele>
        <time>2022-10-28T13:52:12Z</time>
      </trkpt>
      <trkpt lat="44.4039" lon="5.7196">
        <ele>652.2</ele>
        <time>2022-10-28T13:52:13Z</time>
      </trkpt>
      <trkpt lat="44.40385" lon="5.71965">
        <ele>652.2</ele>
        <time>2022-10-28T13:52:14Z</time>
      </trkpt>
      <trkpt lat="44.40381" lon="5.71971">
        <ele>652.2</ele>
        <time>2022-10-28T13:52:15Z</time>
      </trkpt>
      <trkpt lat="44.40376" lon="5.71976">
        <ele>652.1</ele>
        <time>2022-10-28T13:52:16Z</time>
      </trkpt>
      <trkpt lat="44.40372" lon="5.71981">
        <ele>652.1</ele>
        <time>2022-10-28T13:52:17Z</time>
      </trkpt>
      <trkpt lat="44.40367" lon="5.71987">
        <ele>652.1</ele>
        <time>2022-10-28T13:52:18Z</time>
      </trkpt>
      <trkpt lat="44.40363" lon="5.71992">
        <ele>652.1</ele>
        <time>2022-10-28T13:52:19Z</time>
      </trkpt>
      <trkpt lat="44.40358" lon="5.71997">
        <ele>652.1</ele>
        <time>2022-10-28T13:52:20Z</time>
      </trkpt>
      <trkpt lat="44.40354" lon="5.72003">
        <ele>652.1</ele>
        <time>2022-10-28T13:52:21Z</time>
      </trkpt>
      <trkpt lat="44.4035" lon="5.72008">
        <ele>652.2</ele>
        <time>2022-10-28T13:52:22Z</time>
      </trkpt>
      <trkpt lat="44.40346" lon="5.72013">
        <ele>652.2</ele>
        <time>2022-10-28T13:52:23Z</time>
      </trkpt>
      <trkpt lat="44.40341" lon="5.72019">
        <ele>652.2</ele>
        <time>2022-10-28T13:52:24Z</time>
      </trkpt>
      <trkpt lat="44.40337" lon="5.72024">
        <ele>652.2</ele>
        <time>2022-10-28T13:52:25Z</time>
      </trkpt>
      <trkpt lat="44.40333" lon="5.72029">
        <ele>652.3</ele>
        <time>2022-10-28T13:52:26Z</time>
      </trkpt>
      <trkpt lat="44.40329" lon="5.72034">
        <ele>652.3</ele>
        <time>2022-10-28T13:52:27Z</time>
      </trkpt>
      <trkpt lat="44.40325" lon="5.72039">
        <ele>652.3</ele>
        <time>2022-10-28T13:52:28Z</time>
      </trkpt>
      <trkpt lat="44.40321" lon="5.72045">
        <ele>652.4</ele>
        <time>2022-10-28T13:52:29Z</time>
      </trkpt>
      <trkpt lat="44.40317" lon="5.7205">
        <ele>652.4</ele>
        <time>2022-10-28T13:52:30Z</time>
      </trkpt>
      <trkpt lat="44.40313" lon="5.72055">
        <ele>652.4</ele>
        <time>2022-10-28T13:52:31Z</time>
      </trkpt>
      <trkpt lat="44.40309" lon="5.7206">
        <ele>652.5</ele>
        <time>2022-10-28T13:52:32Z</time>
      </trkpt>
      <trkpt lat="44.40305" lon="5.72065">
        <ele>652.5</ele>
        <time>2022-10-28T13:52:33Z</time>
      </trkpt>
      <trkpt lat="44.40301" lon="5.7207">
        <ele>652.5</ele>
        <time>2022-10-28T13:52:34Z</time>
      </trkpt>
      <trkpt lat="44.40298" lon="5.72075">
        <ele>652.5</ele>
        <time>2022-10-28T13:52:35Z</time>
      </trkpt>
      <trkpt lat="44.40294" lon="5.7208">
        <ele>652.5</ele>
        <time>2022-10-28T13:52:36Z</time>
      </trkpt>
      <trkpt lat="44.4029" lon="5.72085">
        <ele>652.5</ele>
        <time>2022-10-28T13:52:37Z</time>
      </trkpt>
      <trkpt lat="44.40286" lon="5.7209">
        <ele>652.5</ele>
        <time>2022-10-28T13:52:38Z</time>
      </trkpt>
      <trkpt lat="44.40282" lon="5.72095">
        <ele>652.5</ele>
        <time>2022-10-28T13:52:39Z</time>
      </trkpt>
      <trkpt lat="44.40278" lon="5.721">
        <ele>652.5</ele>
        <time>2022-10-28T13:52:40Z</time>
      </trkpt>
      <trkpt lat="44.40274" lon="5.72106">
        <ele>652.5</ele>
        <time>2022-10-28T13:52:41Z</time>
      </trkpt>
      <trkpt lat="44.4027" lon="5.72111">
        <ele>652.4</ele>
        <time>2022-10-28T13:52:42Z</time>
      </trkpt>
      <trkpt lat="44.40266" lon="5.72116">
        <ele>652.4</ele>
        <time>2022-10-28T13:52:43Z</time>
      </trkpt>
      <trkpt lat="44.40262" lon="5.72121">
        <ele>652.3</ele>
        <time>2022-10-28T13:52:44Z</time>
      </trkpt>
      <trkpt lat="44.40258" lon="5.72126">
        <ele>652.3</ele>
        <time>2022-10-28T13:52:45Z</time>
      </trkpt>
      <trkpt lat="44.40254" lon="5.72131">
        <ele>652.3</ele>
        <time>2022-10-28T13:52:46Z</time>
      </trkpt>
      <trkpt lat="44.4025" lon="5.72136">
        <ele>652.2</ele>
        <time>2022-10-28T13:52:47Z</time>
      </trkpt>
      <trkpt lat="44.40245" lon="5.72141">
        <ele>652.2</ele>
        <time>2022-10-28T13:52:48Z</time>
      </trkpt>
      <trkpt lat="44.40241" lon="5.72146">
        <ele>652.1</ele>
        <time>2022-10-28T13:52:49Z</time>
      </trkpt>
      <trkpt lat="44.40237" lon="5.72151">
        <ele>652</ele>
        <time>2022-10-28T13:52:50Z</time>
      </trkpt>
      <trkpt lat="44.40232" lon="5.72156">
        <ele>651.9</ele>
        <time>2022-10-28T13:52:51Z</time>
      </trkpt>
      <trkpt lat="44.40227" lon="5.72161">
        <ele>651.8</ele>
        <time>2022-10-28T13:52:52Z</time>
      </trkpt>
      <trkpt lat="44.40222" lon="5.72167">
        <ele>651.7</ele>
        <time>2022-10-28T13:52:53Z</time>
      </trkpt>
      <trkpt lat="44.40217" lon="5.72172">
        <ele>651.6</ele>
        <time>2022-10-28T13:52:54Z</time>
      </trkpt>
      <trkpt lat="44.40212" lon="5.72177">
        <ele>651.4</ele>
        <time>2022-10-28T13:52:55Z</time>
      </trkpt>
      <trkpt lat="44.40207" lon="5.72182">
        <ele>651.3</ele>
        <time>2022-10-28T13:52:56Z</time>
      </trkpt>
      <trkpt lat="44.40203" lon="5.72188">
        <ele>651.2</ele>
        <time>2022-10-28T13:52:57Z</time>
      </trkpt>
      <trkpt lat="44.40197" lon="5.72193">
        <ele>651.1</ele>
        <time>2022-10-28T13:52:58Z</time>
      </trkpt>
      <trkpt lat="44.40192" lon="5.72199">
        <ele>651</ele>
        <time>2022-10-28T13:52:59Z</time>
      </trkpt>
      <trkpt lat="44.40187" lon="5.72204">
        <ele>650.9</ele>
        <time>2022-10-28T13:53:00Z</time>
      </trkpt>
      <trkpt lat="44.40181" lon="5.7221">
        <ele>650.8</ele>
        <time>2022-10-28T13:53:01Z</time>
      </trkpt>
      <trkpt lat="44.40175" lon="5.72215">
        <ele>650.8</ele>
        <time>2022-10-28T13:53:02Z</time>
      </trkpt>
      <trkpt lat="44.4017" lon="5.7222">
        <ele>650.8</ele>
        <time>2022-10-28T13:53:03Z</time>
      </trkpt>
      <trkpt lat="44.40165" lon="5.72225">
        <ele>650.7</ele>
        <time>2022-10-28T13:53:04Z</time>
      </trkpt>
      <trkpt lat="44.4016" lon="5.7223">
        <ele>650.7</ele>
        <time>2022-10-28T13:53:05Z</time>
      </trkpt>
      <trkpt lat="44.40155" lon="5.72236">
        <ele>650.6</ele>
        <time>2022-10-28T13:53:06Z</time>
      </trkpt>
      <trkpt lat="44.4015" lon="5.72241">
        <ele>650.6</ele>
        <time>2022-10-28T13:53:07Z</time>
      </trkpt>
      <trkpt lat="44.40145" lon="5.72246">
        <ele>650.5</ele>
        <time>2022-10-28T13:53:08Z</time>
      </trkpt>
      <trkpt lat="44.4014" lon="5.72251">
        <ele>650.4</ele>
        <time>2022-10-28T13:53:09Z</time>
      </trkpt>
      <trkpt lat="44.40135" lon="5.72256">
        <ele>650.3</ele>
        <time>2022-10-28T13:53:10Z</time>
      </trkpt>
      <trkpt lat="44.4013" lon="5.7226">
        <ele>650.2</ele>
        <time>2022-10-28T13:53:11Z</time>
      </trkpt>
      <trkpt lat="44.40124" lon="5.72265">
        <ele>650</ele>
        <time>2022-10-28T13:53:12Z</time>
      </trkpt>
      <trkpt lat="44.40119" lon="5.7227">
        <ele>649.9</ele>
        <time>2022-10-28T13:53:13Z</time>
      </trkpt>
      <trkpt lat="44.40114" lon="5.72275">
        <ele>649.7</ele>
        <time>2022-10-28T13:53:14Z</time>
      </trkpt>
      <trkpt lat="44.40108" lon="5.7228">
        <ele>649.5</ele>
        <time>2022-10-28T13:53:15Z</time>
      </trkpt>
      <trkpt lat="44.40103" lon="5.72285">
        <ele>649.4</ele>
        <time>2022-10-28T13:53:16Z</time>
      </trkpt>
      <trkpt lat="44.40097" lon="5.7229">
        <ele>649.2</ele>
        <time>2022-10-28T13:53:17Z</time>
      </trkpt>
      <trkpt lat="44.40091" lon="5.72296">
        <ele>649</ele>
        <time>2022-10-28T13:53:18Z</time>
      </trkpt>
      <trkpt lat="44.40085" lon="5.72301">
        <ele>648.8</ele>
        <time>2022-10-28T13:53:19Z</time>
      </trkpt>
      <trkpt lat="44.40079" lon="5.72307">
        <ele>648.6</ele>
        <time>2022-10-28T13:53:20Z</time>
      </trkpt>
      <trkpt lat="44.40073" lon="5.72313">
        <ele>648.4</ele>
        <time>2022-10-28T13:53:21Z</time>
      </trkpt>
      <trkpt lat="44.40067" lon="5.72319">
        <ele>648.2</ele>
        <time>2022-10-28T13:53:22Z</time>
      </trkpt>
      <trkpt lat="44.40061" lon="5.72324">
        <ele>648.1</ele>
        <time>2022-10-28T13:53:23Z</time>
      </trkpt>
      <trkpt lat="44.40055" lon="5.7233">
        <ele>648</ele>
        <time>2022-10-28T13:53:24Z</time>
      </trkpt>
      <trkpt lat="44.40049" lon="5.72336">
        <ele>647.9</ele>
        <time>2022-10-28T13:53:25Z</time>
      </trkpt>
      <trkpt lat="44.40042" lon="5.72341">
        <ele>647.7</ele>
        <time>2022-10-28T13:53:26Z</time>
      </trkpt>
      <trkpt lat="44.40036" lon="5.72346">
        <ele>647.6</ele>
        <time>2022-10-28T13:53:27Z</time>
      </trkpt>
      <trkpt lat="44.4003" lon="5.72352">
        <ele>647.5</ele>
        <time>2022-10-28T13:53:28Z</time>
      </trkpt>
      <trkpt lat="44.40024" lon="5.72357">
        <ele>647.4</ele>
        <time>2022-10-28T13:53:29Z</time>
      </trkpt>
      <trkpt lat="44.40018" lon="5.72362">
        <ele>647.2</ele>
        <time>2022-10-28T13:53:30Z</time>
      </trkpt>
      <trkpt lat="44.40013" lon="5.72368">
        <ele>647.1</ele>
        <time>2022-10-28T13:53:31Z</time>
      </trkpt>
      <trkpt lat="44.40007" lon="5.72374">
        <ele>646.9</ele>
        <time>2022-10-28T13:53:32Z</time>
      </trkpt>
      <trkpt lat="44.40001" lon="5.7238">
        <ele>646.7</ele>
        <time>2022-10-28T13:53:33Z</time>
      </trkpt>
      <trkpt lat="44.39995" lon="5.72386">
        <ele>646.6</ele>
        <time>2022-10-28T13:53:34Z</time>
      </trkpt>
      <trkpt lat="44.39989" lon="5.72392">
        <ele>646.4</ele>
        <time>2022-10-28T13:53:35Z</time>
      </trkpt>
      <trkpt lat="44.39983" lon="5.72399">
        <ele>646.2</ele>
        <time>2022-10-28T13:53:36Z</time>
      </trkpt>
      <trkpt lat="44.39978" lon="5.72405">
        <ele>646.1</ele>
        <time>2022-10-28T13:53:37Z</time>
      </trkpt>
      <trkpt lat="44.39972" lon="5.72413">
        <ele>646</ele>
        <time>2022-10-28T13:53:38Z</time>
      </trkpt>
      <trkpt lat="44.39968" lon="5.7242">
        <ele>645.9</ele>
        <time>2022-10-28T13:53:39Z</time>
      </trkpt>
      <trkpt lat="44.39963" lon="5.72428">
        <ele>645.8</ele>
        <time>2022-10-28T13:53:40Z</time>
      </trkpt>
      <trkpt lat="44.39959" lon="5.72436">
        <ele>645.8</ele>
        <time>2022-10-28T13:53:41Z</time>
      </trkpt>
      <trkpt lat="44.39954" lon="5.72444">
        <ele>645.8</ele>
        <time>2022-10-28T13:53:42Z</time>
      </trkpt>
      <trkpt lat="44.3995" lon="5.72452">
        <ele>645.8</ele>
        <time>2022-10-28T13:53:43Z</time>
      </trkpt>
      <trkpt lat="44.39946" lon="5.7246">
        <ele>645.7</ele>
        <time>2022-10-28T13:53:44Z</time>
      </trkpt>
      <trkpt lat="44.39941" lon="5.72468">
        <ele>645.7</ele>
        <time>2022-10-28T13:53:45Z</time>
      </trkpt>
      <trkpt lat="44.39937" lon="5.72475">
        <ele>645.7</ele>
        <time>2022-10-28T13:53:46Z</time>
      </trkpt>
      <trkpt lat="44.39932" lon="5.72482">
        <ele>645.7</ele>
        <time>2022-10-28T13:53:47Z</time>
      </trkpt>
      <trkpt lat="44.39928" lon="5.72489">
        <ele>645.7</ele>
        <time>2022-10-28T13:53:48Z</time>
      </trkpt>
      <trkpt lat="44.39924" lon="5.72496">
        <ele>645.7</ele>
        <time>2022-10-28T13:53:49Z</time>
      </trkpt>
      <trkpt lat="44.3992" lon="5.72503">
        <ele>645.7</ele>
        <time>2022-10-28T13:53:50Z</time>
      </trkpt>
      <trkpt lat="44.39915" lon="5.7251">
        <ele>645.7</ele>
        <time>2022-10-28T13:53:51Z</time>
      </trkpt>
      <trkpt lat="44.39911" lon="5.72516">
        <ele>645.7</ele>
        <time>2022-10-28T13:53:52Z</time>
      </trkpt>
      <trkpt lat="44.39906" lon="5.72522">
        <ele>645.7</ele>
        <time>2022-10-28T13:53:53Z</time>
      </trkpt>
      <trkpt lat="44.39902" lon="5.72529">
        <ele>645.7</ele>
        <time>2022-10-28T13:53:54Z</time>
      </trkpt>
      <trkpt lat="44.39897" lon="5.72534">
        <ele>645.7</ele>
        <time>2022-10-28T13:53:55Z</time>
      </trkpt>
      <trkpt lat="44.39892" lon="5.7254">
        <ele>645.7</ele>
        <time>2022-10-28T13:53:56Z</time>
      </trkpt>
      <trkpt lat="44.39888" lon="5.72546">
        <ele>645.7</ele>
        <time>2022-10-28T13:53:57Z</time>
      </trkpt>
      <trkpt lat="44.39883" lon="5.72551">
        <ele>645.8</ele>
        <time>2022-10-28T13:53:58Z</time>
      </trkpt>
      <trkpt lat="44.39878" lon="5.72557">
        <ele>645.8</ele>
        <time>2022-10-28T13:53:59Z</time>
      </trkpt>
      <trkpt lat="44.39874" lon="5.72563">
        <ele>645.8</ele>
        <time>2022-10-28T13:54:00Z</time>
      </trkpt>
      <trkpt lat="44.39869" lon="5.72568">
        <ele>645.8</ele>
        <time>2022-10-28T13:54:01Z</time>
      </trkpt>
      <trkpt lat="44.39865" lon="5.72574">
        <ele>645.8</ele>
        <time>2022-10-28T13:54:02Z</time>
      </trkpt>
      <trkpt lat="44.3986" lon="5.72579">
        <ele>645.8</ele>
        <time>2022-10-28T13:54:03Z</time>
      </trkpt>
      <trkpt lat="44.39856" lon="5.72585">
        <ele>645.9</ele>
        <time>2022-10-28T13:54:04Z</time>
      </trkpt>
      <trkpt lat="44.39852" lon="5.72591">
        <ele>645.9</ele>
        <time>2022-10-28T13:54:05Z</time>
      </trkpt>
      <trkpt lat="44.39848" lon="5.72596">
        <ele>645.9</ele>
        <time>2022-10-28T13:54:06Z</time>
      </trkpt>
      <trkpt lat="44.39844" lon="5.72602">
        <ele>645.9</ele>
        <time>2022-10-28T13:54:07Z</time>
      </trkpt>
      <trkpt lat="44.3984" lon="5.72608">
        <ele>645.9</ele>
        <time>2022-10-28T13:54:08Z</time>
      </trkpt>
      <trkpt lat="44.39836" lon="5.72614">
        <ele>645.9</ele>
        <time>2022-10-28T13:54:09Z</time>
      </trkpt>
      <trkpt lat="44.39832" lon="5.7262">
        <ele>645.9</ele>
        <time>2022-10-28T13:54:10Z</time>
      </trkpt>
      <trkpt lat="44.39828" lon="5.72625">
        <ele>645.9</ele>
        <time>2022-10-28T13:54:11Z</time>
      </trkpt>
      <trkpt lat="44.39824" lon="5.72631">
        <ele>645.9</ele>
        <time>2022-10-28T13:54:12Z</time>
      </trkpt>
      <trkpt lat="44.3982" lon="5.72637">
        <ele>645.9</ele>
        <time>2022-10-28T13:54:13Z</time>
      </trkpt>
      <trkpt lat="44.39816" lon="5.72643">
        <ele>645.8</ele>
        <time>2022-10-28T13:54:14Z</time>
      </trkpt>
      <trkpt lat="44.39812" lon="5.72648">
        <ele>645.8</ele>
        <time>2022-10-28T13:54:15Z</time>
      </trkpt>
      <trkpt lat="44.39808" lon="5.72654">
        <ele>645.8</ele>
        <time>2022-10-28T13:54:16Z</time>
      </trkpt>
      <trkpt lat="44.39804" lon="5.72659">
        <ele>645.9</ele>
        <time>2022-10-28T13:54:17Z</time>
      </trkpt>
      <trkpt lat="44.398" lon="5.72665">
        <ele>645.9</ele>
        <time>2022-10-28T13:54:18Z</time>
      </trkpt>
      <trkpt lat="44.39797" lon="5.7267">
        <ele>645.9</ele>
        <time>2022-10-28T13:54:19Z</time>
      </trkpt>
      <trkpt lat="44.39793" lon="5.72676">
        <ele>645.9</ele>
        <time>2022-10-28T13:54:20Z</time>
      </trkpt>
      <trkpt lat="44.39789" lon="5.72681">
        <ele>645.9</ele>
        <time>2022-10-28T13:54:21Z</time>
      </trkpt>
      <trkpt lat="44.39785" lon="5.72687">
        <ele>646</ele>
        <time>2022-10-28T13:54:22Z</time>
      </trkpt>
      <trkpt lat="44.39781" lon="5.72692">
        <ele>646</ele>
        <time>2022-10-28T13:54:23Z</time>
      </trkpt>
      <trkpt lat="44.39777" lon="5.72697">
        <ele>646</ele>
        <time>2022-10-28T13:54:24Z</time>
      </trkpt>
      <trkpt lat="44.39774" lon="5.72703">
        <ele>646</ele>
        <time>2022-10-28T13:54:25Z</time>
      </trkpt>
      <trkpt lat="44.3977" lon="5.72708">
        <ele>646</ele>
        <time>2022-10-28T13:54:26Z</time>
      </trkpt>
      <trkpt lat="44.39766" lon="5.72714">
        <ele>646</ele>
        <time>2022-10-28T13:54:27Z</time>
      </trkpt>
      <trkpt lat="44.39762" lon="5.72719">
        <ele>646</ele>
        <time>2022-10-28T13:54:28Z</time>
      </trkpt>
      <trkpt lat="44.39757" lon="5.72724">
        <ele>646.1</ele>
        <time>2022-10-28T13:54:29Z</time>
      </trkpt>
      <trkpt lat="44.39753" lon="5.7273">
        <ele>646.1</ele>
        <time>2022-10-28T13:54:30Z</time>
      </trkpt>
      <trkpt lat="44.39749" lon="5.72735">
        <ele>646.1</ele>
        <time>2022-10-28T13:54:31Z</time>
      </trkpt>
      <trkpt lat="44.39746" lon="5.7274">
        <ele>646.1</ele>
        <time>2022-10-28T13:54:32Z</time>
      </trkpt>
      <trkpt lat="44.39742" lon="5.72745">
        <ele>646.1</ele>
        <time>2022-10-28T13:54:33Z</time>
      </trkpt>
      <trkpt lat="44.39737" lon="5.7275">
        <ele>646.1</ele>
        <time>2022-10-28T13:54:34Z</time>
      </trkpt>
      <trkpt lat="44.39733" lon="5.72755">
        <ele>646.1</ele>
        <time>2022-10-28T13:54:35Z</time>
      </trkpt>
      <trkpt lat="44.39729" lon="5.7276">
        <ele>646.1</ele>
        <time>2022-10-28T13:54:36Z</time>
      </trkpt>
      <trkpt lat="44.39724" lon="5.72765">
        <ele>646</ele>
        <time>2022-10-28T13:54:37Z</time>
      </trkpt>
      <trkpt lat="44.3972" lon="5.7277">
        <ele>646</ele>
        <time>2022-10-28T13:54:38Z</time>
      </trkpt>
      <trkpt lat="44.39716" lon="5.72775">
        <ele>646</ele>
        <time>2022-10-28T13:54:39Z</time>
      </trkpt>
      <trkpt lat="44.39711" lon="5.72781">
        <ele>646</ele>
        <time>2022-10-28T13:54:40Z</time>
      </trkpt>
      <trkpt lat="44.39707" lon="5.72786">
        <ele>646</ele>
        <time>2022-10-28T13:54:41Z</time>
      </trkpt>
      <trkpt lat="44.39703" lon="5.72791">
        <ele>646</ele>
        <time>2022-10-28T13:54:42Z</time>
      </trkpt>
      <trkpt lat="44.39699" lon="5.72796">
        <ele>645.9</ele>
        <time>2022-10-28T13:54:43Z</time>
      </trkpt>
      <trkpt lat="44.39695" lon="5.72801">
        <ele>645.9</ele>
        <time>2022-10-28T13:54:44Z</time>
      </trkpt>
      <trkpt lat="44.39691" lon="5.72806">
        <ele>645.9</ele>
        <time>2022-10-28T13:54:45Z</time>
      </trkpt>
      <trkpt lat="44.39687" lon="5.72811">
        <ele>645.9</ele>
        <time>2022-10-28T13:54:46Z</time>
      </trkpt>
      <trkpt lat="44.39683" lon="5.72816">
        <ele>645.8</ele>
        <time>2022-10-28T13:54:47Z</time>
      </trkpt>
      <trkpt lat="44.39679" lon="5.72821">
        <ele>645.8</ele>
        <time>2022-10-28T13:54:48Z</time>
      </trkpt>
      <trkpt lat="44.39674" lon="5.72826">
        <ele>645.8</ele>
        <time>2022-10-28T13:54:49Z</time>
      </trkpt>
      <trkpt lat="44.3967" lon="5.72831">
        <ele>645.8</ele>
        <time>2022-10-28T13:54:50Z</time>
      </trkpt>
      <trkpt lat="44.39666" lon="5.72836">
        <ele>645.7</ele>
        <time>2022-10-28T13:54:51Z</time>
      </trkpt>
      <trkpt lat="44.39662" lon="5.72841">
        <ele>645.7</ele>
        <time>2022-10-28T13:54:52Z</time>
      </trkpt>
      <trkpt lat="44.39657" lon="5.72846">
        <ele>645.7</ele>
        <time>2022-10-28T13:54:53Z</time>
      </trkpt>
      <trkpt lat="44.39653" lon="5.7285">
        <ele>645.7</ele>
        <time>2022-10-28T13:54:54Z</time>
      </trkpt>
      <trkpt lat="44.39648" lon="5.72855">
        <ele>645.7</ele>
        <time>2022-10-28T13:54:55Z</time>
      </trkpt>
      <trkpt lat="44.39644" lon="5.7286">
        <ele>645.7</ele>
        <time>2022-10-28T13:54:56Z</time>
      </trkpt>
      <trkpt lat="44.3964" lon="5.72864">
        <ele>645.7</ele>
        <time>2022-10-28T13:54:57Z</time>
      </trkpt>
      <trkpt lat="44.39635" lon="5.72869">
        <ele>645.7</ele>
        <time>2022-10-28T13:54:58Z</time>
      </trkpt>
      <trkpt lat="44.39631" lon="5.72874">
        <ele>645.7</ele>
        <time>2022-10-28T13:54:59Z</time>
      </trkpt>
      <trkpt lat="44.39626" lon="5.72878">
        <ele>645.6</ele>
        <time>2022-10-28T13:55:00Z</time>
      </trkpt>
      <trkpt lat="44.39622" lon="5.72883">
        <ele>645.5</ele>
        <time>2022-10-28T13:55:01Z</time>
      </trkpt>
      <trkpt lat="44.39618" lon="5.72888">
        <ele>645.4</ele>
        <time>2022-10-28T13:55:02Z</time>
      </trkpt>
      <trkpt lat="44.39613" lon="5.72893">
        <ele>645.2</ele>
        <time>2022-10-28T13:55:03Z</time>
      </trkpt>
      <trkpt lat="44.39609" lon="5.72898">
        <ele>645.1</ele>
        <time>2022-10-28T13:55:04Z</time>
      </trkpt>
      <trkpt lat="44.39605" lon="5.72903">
        <ele>644.9</ele>
        <time>2022-10-28T13:55:05Z</time>
      </trkpt>
      <trkpt lat="44.396" lon="5.72908">
        <ele>644.7</ele>
        <time>2022-10-28T13:55:06Z</time>
      </trkpt>
      <trkpt lat="44.39595" lon="5.72913">
        <ele>644.5</ele>
        <time>2022-10-28T13:55:07Z</time>
      </trkpt>
      <trkpt lat="44.3959" lon="5.72918">
        <ele>644.3</ele>
        <time>2022-10-28T13:55:08Z</time>
      </trkpt>
      <trkpt lat="44.39585" lon="5.72924">
        <ele>644</ele>
        <time>2022-10-28T13:55:09Z</time>
      </trkpt>
      <trkpt lat="44.3958" lon="5.72929">
        <ele>643.7</ele>
        <time>2022-10-28T13:55:10Z</time>
      </trkpt>
      <trkpt lat="44.39575" lon="5.72935">
        <ele>643.4</ele>
        <time>2022-10-28T13:55:11Z</time>
      </trkpt>
      <trkpt lat="44.39569" lon="5.72941">
        <ele>643.1</ele>
        <time>2022-10-28T13:55:12Z</time>
      </trkpt>
      <trkpt lat="44.39563" lon="5.72947">
        <ele>642.8</ele>
        <time>2022-10-28T13:55:13Z</time>
      </trkpt>
      <trkpt lat="44.39557" lon="5.72952">
        <ele>642.4</ele>
        <time>2022-10-28T13:55:14Z</time>
      </trkpt>
      <trkpt lat="44.3955" lon="5.72957">
        <ele>642.1</ele>
        <time>2022-10-28T13:55:15Z</time>
      </trkpt>
      <trkpt lat="44.39543" lon="5.72962">
        <ele>641.7</ele>
        <time>2022-10-28T13:55:16Z</time>
      </trkpt>
      <trkpt lat="44.39535" lon="5.72966">
        <ele>641.3</ele>
        <time>2022-10-28T13:55:17Z</time>
      </trkpt>
      <trkpt lat="44.39527" lon="5.7297">
        <ele>640.8</ele>
        <time>2022-10-28T13:55:18Z</time>
      </trkpt>
      <trkpt lat="44.39519" lon="5.72974">
        <ele>640.5</ele>
        <time>2022-10-28T13:55:19Z</time>
      </trkpt>
      <trkpt lat="44.39511" lon="5.72977">
        <ele>640.2</ele>
        <time>2022-10-28T13:55:20Z</time>
      </trkpt>
      <trkpt lat="44.39503" lon="5.7298">
        <ele>639.8</ele>
        <time>2022-10-28T13:55:21Z</time>
      </trkpt>
      <trkpt lat="44.39495" lon="5.72982">
        <ele>639.5</ele>
        <time>2022-10-28T13:55:22Z</time>
      </trkpt>
      <trkpt lat="44.39486" lon="5.72985">
        <ele>639.2</ele>
        <time>2022-10-28T13:55:23Z</time>
      </trkpt>
      <trkpt lat="44.39478" lon="5.72988">
        <ele>638.8</ele>
        <time>2022-10-28T13:55:24Z</time>
      </trkpt>
      <trkpt lat="44.3947" lon="5.72992">
        <ele>638.5</ele>
        <time>2022-10-28T13:55:25Z</time>
      </trkpt>
      <trkpt lat="44.39461" lon="5.72996">
        <ele>638.2</ele>
        <time>2022-10-28T13:55:26Z</time>
      </trkpt>
      <trkpt lat="44.39453" lon="5.73">
        <ele>637.9</ele>
        <time>2022-10-28T13:55:27Z</time>
      </trkpt>
      <trkpt lat="44.39445" lon="5.73006">
        <ele>637.7</ele>
        <time>2022-10-28T13:55:28Z</time>
      </trkpt>
      <trkpt lat="44.39438" lon="5.73011">
        <ele>637.4</ele>
        <time>2022-10-28T13:55:29Z</time>
      </trkpt>
      <trkpt lat="44.3943" lon="5.73017">
        <ele>637.1</ele>
        <time>2022-10-28T13:55:30Z</time>
      </trkpt>
      <trkpt lat="44.39423" lon="5.73023">
        <ele>636.9</ele>
        <time>2022-10-28T13:55:31Z</time>
      </trkpt>
      <trkpt lat="44.39415" lon="5.73028">
        <ele>636.6</ele>
        <time>2022-10-28T13:55:32Z</time>
      </trkpt>
      <trkpt lat="44.39407" lon="5.73033">
        <ele>636.3</ele>
        <time>2022-10-28T13:55:33Z</time>
      </trkpt>
      <trkpt lat="44.39399" lon="5.73037">
        <ele>636.1</ele>
        <time>2022-10-28T13:55:34Z</time>
      </trkpt>
      <trkpt lat="44.39391" lon="5.73041">
        <ele>635.8</ele>
        <time>2022-10-28T13:55:35Z</time>
      </trkpt>
      <trkpt lat="44.39383" lon="5.73045">
        <ele>635.6</ele>
        <time>2022-10-28T13:55:36Z</time>
      </trkpt>
      <trkpt lat="44.39375" lon="5.73048">
        <ele>635.4</ele>
        <time>2022-10-28T13:55:37Z</time>
      </trkpt>
      <trkpt lat="44.39366" lon="5.7305">
        <ele>635.2</ele>
        <time>2022-10-28T13:55:38Z</time>
      </trkpt>
      <trkpt lat="44.39358" lon="5.73052">
        <ele>635.1</ele>
        <time>2022-10-28T13:55:39Z</time>
      </trkpt>
      <trkpt lat="44.3935" lon="5.73055">
        <ele>635</ele>
        <time>2022-10-28T13:55:40Z</time>
      </trkpt>
      <trkpt lat="44.39342" lon="5.73057">
        <ele>634.9</ele>
        <time>2022-10-28T13:55:41Z</time>
      </trkpt>
      <trkpt lat="44.39335" lon="5.7306">
        <ele>634.9</ele>
        <time>2022-10-28T13:55:42Z</time>
      </trkpt>
      <trkpt lat="44.39327" lon="5.73063">
        <ele>634.8</ele>
        <time>2022-10-28T13:55:43Z</time>
      </trkpt>
      <trkpt lat="44.3932" lon="5.73066">
        <ele>634.8</ele>
        <time>2022-10-28T13:55:44Z</time>
      </trkpt>
      <trkpt lat="44.39313" lon="5.73069">
        <ele>634.8</ele>
        <time>2022-10-28T13:55:45Z</time>
      </trkpt>
      <trkpt lat="44.39306" lon="5.73071">
        <ele>634.8</ele>
        <time>2022-10-28T13:55:46Z</time>
      </trkpt>
      <trkpt lat="44.39299" lon="5.73074">
        <ele>634.8</ele>
        <time>2022-10-28T13:55:47Z</time>
      </trkpt>
      <trkpt lat="44.39293" lon="5.73076">
        <ele>634.8</ele>
        <time>2022-10-28T13:55:48Z</time>
      </trkpt>
      <trkpt lat="44.39286" lon="5.73079">
        <ele>634.8</ele>
        <time>2022-10-28T13:55:49Z</time>
      </trkpt>
      <trkpt lat="44.3928" lon="5.73081">
        <ele>634.8</ele>
        <time>2022-10-28T13:55:50Z</time>
      </trkpt>
      <trkpt lat="44.39274" lon="5.73083">
        <ele>634.9</ele>
        <time>2022-10-28T13:55:51Z</time>
      </trkpt>
      <trkpt lat="44.39267" lon="5.73085">
        <ele>634.9</ele>
        <time>2022-10-28T13:55:52Z</time>
      </trkpt>
      <trkpt lat="44.39261" lon="5.73087">
        <ele>635</ele>
        <time>2022-10-28T13:55:53Z</time>
      </trkpt>
      <trkpt lat="44.39255" lon="5.73088">
        <ele>635</ele>
        <time>2022-10-28T13:55:54Z</time>
      </trkpt>
      <trkpt lat="44.39249" lon="5.73089">
        <ele>635</ele>
        <time>2022-10-28T13:55:55Z</time>
      </trkpt>
      <trkpt lat="44.39242" lon="5.7309">
        <ele>635</ele>
        <time>2022-10-28T13:55:56Z</time>
      </trkpt>
      <trkpt lat="44.39236" lon="5.7309">
        <ele>634.9</ele>
        <time>2022-10-28T13:55:57Z</time>
      </trkpt>
      <trkpt lat="44.3923" lon="5.7309">
        <ele>634.9</ele>
        <time>2022-10-28T13:55:58Z</time>
      </trkpt>
      <trkpt lat="44.39225" lon="5.73089">
        <ele>634.9</ele>
        <time>2022-10-28T13:55:59Z</time>
      </trkpt>
      <trkpt lat="44.39219" lon="5.73088">
        <ele>634.9</ele>
        <time>2022-10-28T13:56:00Z</time>
      </trkpt>
      <trkpt lat="44.39213" lon="5.73087">
        <ele>634.9</ele>
        <time>2022-10-28T13:56:01Z</time>
      </trkpt>
      <trkpt lat="44.39207" lon="5.73085">
        <ele>634.9</ele>
        <time>2022-10-28T13:56:02Z</time>
      </trkpt>
      <trkpt lat="44.39202" lon="5.73083">
        <ele>634.8</ele>
        <time>2022-10-28T13:56:03Z</time>
      </trkpt>
      <trkpt lat="44.39196" lon="5.7308">
        <ele>634.8</ele>
        <time>2022-10-28T13:56:04Z</time>
      </trkpt>
      <trkpt lat="44.3919" lon="5.73077">
        <ele>634.7</ele>
        <time>2022-10-28T13:56:05Z</time>
      </trkpt>
      <trkpt lat="44.39185" lon="5.73074">
        <ele>634.7</ele>
        <time>2022-10-28T13:56:06Z</time>
      </trkpt>
      <trkpt lat="44.3918" lon="5.7307">
        <ele>634.6</ele>
        <time>2022-10-28T13:56:07Z</time>
      </trkpt>
      <trkpt lat="44.39175" lon="5.73066">
        <ele>634.5</ele>
        <time>2022-10-28T13:56:08Z</time>
      </trkpt>
      <trkpt lat="44.39169" lon="5.73061">
        <ele>634.5</ele>
        <time>2022-10-28T13:56:09Z</time>
      </trkpt>
      <trkpt lat="44.39164" lon="5.73057">
        <ele>634.4</ele>
        <time>2022-10-28T13:56:10Z</time>
      </trkpt>
      <trkpt lat="44.3916" lon="5.73052">
        <ele>634.4</ele>
        <time>2022-10-28T13:56:11Z</time>
      </trkpt>
      <trkpt lat="44.39155" lon="5.73048">
        <ele>634.4</ele>
        <time>2022-10-28T13:56:12Z</time>
      </trkpt>
      <trkpt lat="44.3915" lon="5.73043">
        <ele>634.4</ele>
        <time>2022-10-28T13:56:13Z</time>
      </trkpt>
      <trkpt lat="44.39145" lon="5.73039">
        <ele>634.4</ele>
        <time>2022-10-28T13:56:14Z</time>
      </trkpt>
      <trkpt lat="44.39141" lon="5.73035">
        <ele>634.4</ele>
        <time>2022-10-28T13:56:15Z</time>
      </trkpt>
      <trkpt lat="44.39136" lon="5.73031">
        <ele>634.5</ele>
        <time>2022-10-28T13:56:16Z</time>
      </trkpt>
      <trkpt lat="44.39132" lon="5.73027">
        <ele>634.5</ele>
        <time>2022-10-28T13:56:17Z</time>
      </trkpt>
      <trkpt lat="44.39127" lon="5.73023">
        <ele>634.6</ele>
        <time>2022-10-28T13:56:18Z</time>
      </trkpt>
      <trkpt lat="44.39123" lon="5.73019">
        <ele>634.7</ele>
        <time>2022-10-28T13:56:19Z</time>
      </trkpt>
      <trkpt lat="44.39119" lon="5.73015">
        <ele>634.8</ele>
        <time>2022-10-28T13:56:20Z</time>
      </trkpt>
      <trkpt lat="44.39115" lon="5.73012">
        <ele>634.8</ele>
        <time>2022-10-28T13:56:21Z</time>
      </trkpt>
      <trkpt lat="44.39111" lon="5.73008">
        <ele>634.9</ele>
        <time>2022-10-28T13:56:22Z</time>
      </trkpt>
      <trkpt lat="44.39106" lon="5.73005">
        <ele>635</ele>
        <time>2022-10-28T13:56:23Z</time>
      </trkpt>
      <trkpt lat="44.39102" lon="5.73003">
        <ele>635.1</ele>
        <time>2022-10-28T13:56:24Z</time>
      </trkpt>
      <trkpt lat="44.39098" lon="5.73001">
        <ele>635.1</ele>
        <time>2022-10-28T13:56:25Z</time>
      </trkpt>
      <trkpt lat="44.39093" lon="5.72999">
        <ele>635.2</ele>
        <time>2022-10-28T13:56:26Z</time>
      </trkpt>
      <trkpt lat="44.39089" lon="5.72997">
        <ele>635.2</ele>
        <time>2022-10-28T13:56:27Z</time>
      </trkpt>
      <trkpt lat="44.39084" lon="5.72996">
        <ele>635.2</ele>
        <time>2022-10-28T13:56:28Z</time>
      </trkpt>
      <trkpt lat="44.3908" lon="5.72994">
        <ele>635.3</ele>
        <time>2022-10-28T13:56:29Z</time>
      </trkpt>
      <trkpt lat="44.39075" lon="5.72993">
        <ele>635.3</ele>
        <time>2022-10-28T13:56:30Z</time>
      </trkpt>
      <trkpt lat="44.3907" lon="5.72993">
        <ele>635.3</ele>
        <time>2022-10-28T13:56:31Z</time>
      </trkpt>
      <trkpt lat="44.39065" lon="5.72992">
        <ele>635.2</ele>
        <time>2022-10-28T13:56:32Z</time>
      </trkpt>
      <trkpt lat="44.39061" lon="5.72992">
        <ele>635.1</ele>
        <time>2022-10-28T13:56:33Z</time>
      </trkpt>
      <trkpt lat="44.39055" lon="5.72992">
        <ele>635</ele>
        <time>2022-10-28T13:56:34Z</time>
      </trkpt>
      <trkpt lat="44.3905" lon="5.72992">
        <ele>634.9</ele>
        <time>2022-10-28T13:56:35Z</time>
      </trkpt>
      <trkpt lat="44.39045" lon="5.72993">
        <ele>634.7</ele>
        <time>2022-10-28T13:56:36Z</time>
      </trkpt>
      <trkpt lat="44.39039" lon="5.72994">
        <ele>634.5</ele>
        <time>2022-10-28T13:56:37Z</time>
      </trkpt>
      <trkpt lat="44.39033" lon="5.72996">
        <ele>634.3</ele>
        <time>2022-10-28T13:56:38Z</time>
      </trkpt>
      <trkpt lat="44.39027" lon="5.72998">
        <ele>634</ele>
        <time>2022-10-28T13:56:39Z</time>
      </trkpt>
      <trkpt lat="44.39021" lon="5.73">
        <ele>633.8</ele>
        <time>2022-10-28T13:56:40Z</time>
      </trkpt>
      <trkpt lat="44.39015" lon="5.73005">
        <ele>633.5</ele>
        <time>2022-10-28T13:56:41Z</time>
      </trkpt>
      <trkpt lat="44.39009" lon="5.73009">
        <ele>633.1</ele>
        <time>2022-10-28T13:56:42Z</time>
      </trkpt>
      <trkpt lat="44.39003" lon="5.73014">
        <ele>632.7</ele>
        <time>2022-10-28T13:56:43Z</time>
      </trkpt>
      <trkpt lat="44.38997" lon="5.73019">
        <ele>632.3</ele>
        <time>2022-10-28T13:56:44Z</time>
      </trkpt>
      <trkpt lat="44.3899" lon="5.73024">
        <ele>631.9</ele>
        <time>2022-10-28T13:56:45Z</time>
      </trkpt>
      <trkpt lat="44.38984" lon="5.7303">
        <ele>631.5</ele>
        <time>2022-10-28T13:56:46Z</time>
      </trkpt>
      <trkpt lat="44.38977" lon="5.73036">
        <ele>631.1</ele>
        <time>2022-10-28T13:56:47Z</time>
      </trkpt>
      <trkpt lat="44.3897" lon="5.73042">
        <ele>630.8</ele>
        <time>2022-10-28T13:56:48Z</time>
      </trkpt>
      <trkpt lat="44.38964" lon="5.73048">
        <ele>630.5</ele>
        <time>2022-10-28T13:56:49Z</time>
      </trkpt>
      <trkpt lat="44.38957" lon="5.73053">
        <ele>630.3</ele>
        <time>2022-10-28T13:56:50Z</time>
      </trkpt>
      <trkpt lat="44.3895" lon="5.7306">
        <ele>630.1</ele>
        <time>2022-10-28T13:56:51Z</time>
      </trkpt>
      <trkpt lat="44.38945" lon="5.73067">
        <ele>630</ele>
        <time>2022-10-28T13:56:52Z</time>
      </trkpt>
      <trkpt lat="44.38938" lon="5.73073">
        <ele>629.8</ele>
        <time>2022-10-28T13:56:53Z</time>
      </trkpt>
      <trkpt lat="44.38931" lon="5.73079">
        <ele>629.7</ele>
        <time>2022-10-28T13:56:54Z</time>
      </trkpt>
      <trkpt lat="44.38925" lon="5.73084">
        <ele>629.6</ele>
        <time>2022-10-28T13:56:55Z</time>
      </trkpt>
      <trkpt lat="44.38918" lon="5.73089">
        <ele>629.5</ele>
        <time>2022-10-28T13:56:56Z</time>
      </trkpt>
      <trkpt lat="44.38912" lon="5.73095">
        <ele>629.4</ele>
        <time>2022-10-28T13:56:57Z</time>
      </trkpt>
      <trkpt lat="44.38906" lon="5.731">
        <ele>629.3</ele>
        <time>2022-10-28T13:56:58Z</time>
      </trkpt>
      <trkpt lat="44.389" lon="5.73105">
        <ele>629.2</ele>
        <time>2022-10-28T13:56:59Z</time>
      </trkpt>
      <trkpt lat="44.38893" lon="5.73109">
        <ele>629.1</ele>
        <time>2022-10-28T13:57:00Z</time>
      </trkpt>
      <trkpt lat="44.38887" lon="5.73113">
        <ele>629.1</ele>
        <time>2022-10-28T13:57:01Z</time>
      </trkpt>
      <trkpt lat="44.38881" lon="5.73117">
        <ele>629</ele>
        <time>2022-10-28T13:57:02Z</time>
      </trkpt>
      <trkpt lat="44.38875" lon="5.73122">
        <ele>629</ele>
        <time>2022-10-28T13:57:03Z</time>
      </trkpt>
      <trkpt lat="44.38868" lon="5.73126">
        <ele>628.9</ele>
        <time>2022-10-28T13:57:04Z</time>
      </trkpt>
      <trkpt lat="44.38862" lon="5.73131">
        <ele>628.8</ele>
        <time>2022-10-28T13:57:05Z</time>
      </trkpt>
      <trkpt lat="44.38856" lon="5.73134">
        <ele>628.8</ele>
        <time>2022-10-28T13:57:06Z</time>
      </trkpt>
      <trkpt lat="44.3885" lon="5.73138">
        <ele>628.7</ele>
        <time>2022-10-28T13:57:07Z</time>
      </trkpt>
      <trkpt lat="44.38844" lon="5.73141">
        <ele>628.6</ele>
        <time>2022-10-28T13:57:08Z</time>
      </trkpt>
      <trkpt lat="44.38838" lon="5.73144">
        <ele>628.6</ele>
        <time>2022-10-28T13:57:09Z</time>
      </trkpt>
      <trkpt lat="44.38832" lon="5.73147">
        <ele>628.6</ele>
        <time>2022-10-28T13:57:10Z</time>
      </trkpt>
      <trkpt lat="44.38826" lon="5.73151">
        <ele>628.5</ele>
        <time>2022-10-28T13:57:11Z</time>
      </trkpt>
      <trkpt lat="44.3882" lon="5.73154">
        <ele>628.5</ele>
        <time>2022-10-28T13:57:12Z</time>
      </trkpt>
      <trkpt lat="44.38815" lon="5.73157">
        <ele>628.5</ele>
        <time>2022-10-28T13:57:13Z</time>
      </trkpt>
      <trkpt lat="44.38809" lon="5.73161">
        <ele>628.4</ele>
        <time>2022-10-28T13:57:14Z</time>
      </trkpt>
      <trkpt lat="44.38803" lon="5.73164">
        <ele>628.3</ele>
        <time>2022-10-28T13:57:15Z</time>
      </trkpt>
      <trkpt lat="44.38798" lon="5.73168">
        <ele>628.3</ele>
        <time>2022-10-28T13:57:16Z</time>
      </trkpt>
      <trkpt lat="44.38792" lon="5.73172">
        <ele>628.2</ele>
        <time>2022-10-28T13:57:17Z</time>
      </trkpt>
      <trkpt lat="44.38787" lon="5.73176">
        <ele>628.1</ele>
        <time>2022-10-28T13:57:18Z</time>
      </trkpt>
      <trkpt lat="44.38782" lon="5.7318">
        <ele>628</ele>
        <time>2022-10-28T13:57:19Z</time>
      </trkpt>
      <trkpt lat="44.38776" lon="5.73184">
        <ele>628</ele>
        <time>2022-10-28T13:57:20Z</time>
      </trkpt>
      <trkpt lat="44.38771" lon="5.73189">
        <ele>627.9</ele>
        <time>2022-10-28T13:57:21Z</time>
      </trkpt>
      <trkpt lat="44.38766" lon="5.73193">
        <ele>627.9</ele>
        <time>2022-10-28T13:57:22Z</time>
      </trkpt>
      <trkpt lat="44.38761" lon="5.73198">
        <ele>627.8</ele>
        <time>2022-10-28T13:57:23Z</time>
      </trkpt>
      <trkpt lat="44.38756" lon="5.73202">
        <ele>627.8</ele>
        <time>2022-10-28T13:57:24Z</time>
      </trkpt>
      <trkpt lat="44.38751" lon="5.73207">
        <ele>627.7</ele>
        <time>2022-10-28T13:57:25Z</time>
      </trkpt>
      <trkpt lat="44.38745" lon="5.73211">
        <ele>627.6</ele>
        <time>2022-10-28T13:57:26Z</time>
      </trkpt>
      <trkpt lat="44.3874" lon="5.73215">
        <ele>627.6</ele>
        <time>2022-10-28T13:57:27Z</time>
      </trkpt>
      <trkpt lat="44.38734" lon="5.73219">
        <ele>627.5</ele>
        <time>2022-10-28T13:57:28Z</time>
      </trkpt>
      <trkpt lat="44.38729" lon="5.73224">
        <ele>627.5</ele>
        <time>2022-10-28T13:57:29Z</time>
      </trkpt>
      <trkpt lat="44.38724" lon="5.73228">
        <ele>627.4</ele>
        <time>2022-10-28T13:57:30Z</time>
      </trkpt>
      <trkpt lat="44.38719" lon="5.73233">
        <ele>627.3</ele>
        <time>2022-10-28T13:57:31Z</time>
      </trkpt>
      <trkpt lat="44.38713" lon="5.73236">
        <ele>627.3</ele>
        <time>2022-10-28T13:57:32Z</time>
      </trkpt>
      <trkpt lat="44.38707" lon="5.7324">
        <ele>627.2</ele>
        <time>2022-10-28T13:57:33Z</time>
      </trkpt>
      <trkpt lat="44.38701" lon="5.73243">
        <ele>627.1</ele>
        <time>2022-10-28T13:57:34Z</time>
      </trkpt>
      <trkpt lat="44.38696" lon="5.73247">
        <ele>627</ele>
        <time>2022-10-28T13:57:35Z</time>
      </trkpt>
      <trkpt lat="44.3869" lon="5.73251">
        <ele>626.9</ele>
        <time>2022-10-28T13:57:36Z</time>
      </trkpt>
      <trkpt lat="44.38685" lon="5.73255">
        <ele>626.8</ele>
        <time>2022-10-28T13:57:37Z</time>
      </trkpt>
      <trkpt lat="44.38679" lon="5.73259">
        <ele>626.7</ele>
        <time>2022-10-28T13:57:38Z</time>
      </trkpt>
      <trkpt lat="44.38673" lon="5.73263">
        <ele>626.6</ele>
        <time>2022-10-28T13:57:39Z</time>
      </trkpt>
      <trkpt lat="44.38667" lon="5.73267">
        <ele>626.5</ele>
        <time>2022-10-28T13:57:40Z</time>
      </trkpt>
      <trkpt lat="44.38662" lon="5.73272">
        <ele>626.4</ele>
        <time>2022-10-28T13:57:41Z</time>
      </trkpt>
      <trkpt lat="44.38656" lon="5.73276">
        <ele>626.4</ele>
        <time>2022-10-28T13:57:42Z</time>
      </trkpt>
      <trkpt lat="44.38651" lon="5.7328">
        <ele>626.4</ele>
        <time>2022-10-28T13:57:43Z</time>
      </trkpt>
      <trkpt lat="44.38646" lon="5.73284">
        <ele>626.3</ele>
        <time>2022-10-28T13:57:44Z</time>
      </trkpt>
      <trkpt lat="44.3864" lon="5.73287">
        <ele>626.4</ele>
        <time>2022-10-28T13:57:45Z</time>
      </trkpt>
      <trkpt lat="44.38635" lon="5.73291">
        <ele>626.4</ele>
        <time>2022-10-28T13:57:46Z</time>
      </trkpt>
      <trkpt lat="44.3863" lon="5.73295">
        <ele>626.4</ele>
        <time>2022-10-28T13:57:47Z</time>
      </trkpt>
      <trkpt lat="44.38625" lon="5.73298">
        <ele>626.5</ele>
        <time>2022-10-28T13:57:48Z</time>
      </trkpt>
      <trkpt lat="44.38619" lon="5.73301">
        <ele>626.5</ele>
        <time>2022-10-28T13:57:49Z</time>
      </trkpt>
      <trkpt lat="44.38614" lon="5.73304">
        <ele>626.6</ele>
        <time>2022-10-28T13:57:50Z</time>
      </trkpt>
      <trkpt lat="44.38609" lon="5.73308">
        <ele>626.8</ele>
        <time>2022-10-28T13:57:51Z</time>
      </trkpt>
      <trkpt lat="44.38605" lon="5.73311">
        <ele>626.9</ele>
        <time>2022-10-28T13:57:52Z</time>
      </trkpt>
      <trkpt lat="44.386" lon="5.73314">
        <ele>627.1</ele>
        <time>2022-10-28T13:57:53Z</time>
      </trkpt>
      <trkpt lat="44.38595" lon="5.73317">
        <ele>627.3</ele>
        <time>2022-10-28T13:57:54Z</time>
      </trkpt>
      <trkpt lat="44.38591" lon="5.7332">
        <ele>627.5</ele>
        <time>2022-10-28T13:57:55Z</time>
      </trkpt>
      <trkpt lat="44.38586" lon="5.73323">
        <ele>627.8</ele>
        <time>2022-10-28T13:57:56Z</time>
      </trkpt>
      <trkpt lat="44.38582" lon="5.73326">
        <ele>628</ele>
        <time>2022-10-28T13:57:57Z</time>
      </trkpt>
      <trkpt lat="44.38578" lon="5.73328">
        <ele>628.2</ele>
        <time>2022-10-28T13:57:58Z</time>
      </trkpt>
      <trkpt lat="44.38576" lon="5.7333">
        <ele>628.4</ele>
        <time>2022-10-28T13:57:59Z</time>
      </trkpt>
      <trkpt lat="44.38573" lon="5.73333">
        <ele>628.6</ele>
        <time>2022-10-28T13:58:00Z</time>
      </trkpt>
      <trkpt lat="44.38569" lon="5.73334">
        <ele>628.9</ele>
        <time>2022-10-28T13:58:01Z</time>
      </trkpt>
      <trkpt lat="44.38564" lon="5.73337">
        <ele>629.2</ele>
        <time>2022-10-28T13:58:02Z</time>
      </trkpt>
      <trkpt lat="44.38561" lon="5.73338">
        <ele>629.5</ele>
        <time>2022-10-28T13:58:03Z</time>
      </trkpt>
      <trkpt lat="44.38558" lon="5.73339">
        <ele>629.7</ele>
        <time>2022-10-28T13:58:04Z</time>
      </trkpt>
      <trkpt lat="44.38556" lon="5.7334">
        <ele>629.9</ele>
        <time>2022-10-28T13:58:05Z</time>
      </trkpt>
      <trkpt lat="44.38551" lon="5.73343">
        <ele>630.3</ele>
        <time>2022-10-28T13:58:07Z</time>
      </trkpt>
      <trkpt lat="44.38547" lon="5.73346">
        <ele>630.7</ele>
        <time>2022-10-28T13:58:08Z</time>
      </trkpt>
      <trkpt lat="44.38544" lon="5.73347">
        <ele>630.9</ele>
        <time>2022-10-28T13:58:09Z</time>
      </trkpt>
      <trkpt lat="44.3854" lon="5.73347">
        <ele>631.3</ele>
        <time>2022-10-28T13:58:11Z</time>
      </trkpt>
      <trkpt lat="44.38537" lon="5.73348">
        <ele>631.5</ele>
        <time>2022-10-28T13:58:12Z</time>
      </trkpt>
      <trkpt lat="44.38533" lon="5.7335">
        <ele>631.9</ele>
        <time>2022-10-28T13:58:13Z</time>
      </trkpt>
      <trkpt lat="44.38532" lon="5.7335">
        <ele>632</ele>
        <time>2022-10-28T13:58:14Z</time>
      </trkpt>
      <trkpt lat="44.38529" lon="5.73351">
        <ele>632.2</ele>
        <time>2022-10-28T13:58:15Z</time>
      </trkpt>
      <trkpt lat="44.38525" lon="5.73351">
        <ele>632.5</ele>
        <time>2022-10-28T13:58:17Z</time>
      </trkpt>
      <trkpt lat="44.38523" lon="5.73351">
        <ele>632.7</ele>
        <time>2022-10-28T13:58:18Z</time>
      </trkpt>
      <trkpt lat="44.38521" lon="5.73351">
        <ele>632.8</ele>
        <time>2022-10-28T13:58:19Z</time>
      </trkpt>
      <trkpt lat="44.38519" lon="5.73351">
        <ele>633</ele>
        <time>2022-10-28T13:58:21Z</time>
      </trkpt>
      <trkpt lat="44.38516" lon="5.73351">
        <ele>633.2</ele>
        <time>2022-10-28T13:58:22Z</time>
      </trkpt>
      <trkpt lat="44.38514" lon="5.7335">
        <ele>633.3</ele>
        <time>2022-10-28T13:58:23Z</time>
      </trkpt>
      <trkpt lat="44.38511" lon="5.7335">
        <ele>633.5</ele>
        <time>2022-10-28T13:58:24Z</time>
      </trkpt>
      <trkpt lat="44.3851" lon="5.7335">
        <ele>633.6</ele>
        <time>2022-10-28T13:58:25Z</time>
      </trkpt>
      <trkpt lat="44.38507" lon="5.73349">
        <ele>633.8</ele>
        <time>2022-10-28T13:58:26Z</time>
      </trkpt>
      <trkpt lat="44.38506" lon="5.73349">
        <ele>633.9</ele>
        <time>2022-10-28T13:58:27Z</time>
      </trkpt>
      <trkpt lat="44.38504" lon="5.73348">
        <ele>634</ele>
        <time>2022-10-28T13:58:28Z</time>
      </trkpt>
      <trkpt lat="44.38502" lon="5.73347">
        <ele>634.2</ele>
        <time>2022-10-28T13:58:30Z</time>
      </trkpt>
      <trkpt lat="44.38498" lon="5.73346">
        <ele>634.4</ele>
        <time>2022-10-28T13:58:31Z</time>
      </trkpt>
      <trkpt lat="44.38497" lon="5.73346">
        <ele>634.5</ele>
        <time>2022-10-28T13:58:32Z</time>
      </trkpt>
      <trkpt lat="44.38495" lon="5.73346">
        <ele>634.6</ele>
        <time>2022-10-28T13:58:33Z</time>
      </trkpt>
      <trkpt lat="44.38493" lon="5.73346">
        <ele>634.8</ele>
        <time>2022-10-28T13:58:34Z</time>
      </trkpt>
      <trkpt lat="44.3849" lon="5.73346">
        <ele>635</ele>
        <time>2022-10-28T13:58:36Z</time>
      </trkpt>
      <trkpt lat="44.38487" lon="5.73347">
        <ele>635.3</ele>
        <time>2022-10-28T13:58:37Z</time>
      </trkpt>
      <trkpt lat="44.38485" lon="5.73347">
        <ele>635.4</ele>
        <time>2022-10-28T13:58:38Z</time>
      </trkpt>
      <trkpt lat="44.38483" lon="5.73347">
        <ele>635.5</ele>
        <time>2022-10-28T13:58:39Z</time>
      </trkpt>
      <trkpt lat="44.38481" lon="5.73349">
        <ele>635.7</ele>
        <time>2022-10-28T13:58:41Z</time>
      </trkpt>
      <trkpt lat="44.38477" lon="5.73349">
        <ele>636</ele>
        <time>2022-10-28T13:58:42Z</time>
      </trkpt>
      <trkpt lat="44.38476" lon="5.7335">
        <ele>636.1</ele>
        <time>2022-10-28T13:58:43Z</time>
      </trkpt>
      <trkpt lat="44.38473" lon="5.73351">
        <ele>636.3</ele>
        <time>2022-10-28T13:58:44Z</time>
      </trkpt>
      <trkpt lat="44.38472" lon="5.73352">
        <ele>636.4</ele>
        <time>2022-10-28T13:58:45Z</time>
      </trkpt>
      <trkpt lat="44.38469" lon="5.73352">
        <ele>636.6</ele>
        <time>2022-10-28T13:58:46Z</time>
      </trkpt>
      <trkpt lat="44.38466" lon="5.73355">
        <ele>636.9</ele>
        <time>2022-10-28T13:58:48Z</time>
      </trkpt>
      <trkpt lat="44.38464" lon="5.73356">
        <ele>637</ele>
        <time>2022-10-28T13:58:49Z</time>
      </trkpt>
      <trkpt lat="44.38462" lon="5.73358">
        <ele>637.2</ele>
        <time>2022-10-28T13:58:50Z</time>
      </trkpt>
      <trkpt lat="44.38461" lon="5.73359">
        <ele>637.3</ele>
        <time>2022-10-28T13:58:51Z</time>
      </trkpt>
      <trkpt lat="44.38458" lon="5.73363">
        <ele>637.6</ele>
        <time>2022-10-28T13:58:53Z</time>
      </trkpt>
      <trkpt lat="44.38456" lon="5.73365">
        <ele>637.7</ele>
        <time>2022-10-28T13:58:54Z</time>
      </trkpt>
      <trkpt lat="44.38455" lon="5.73366">
        <ele>637.8</ele>
        <time>2022-10-28T13:58:55Z</time>
      </trkpt>
      <trkpt lat="44.38454" lon="5.73368">
        <ele>638</ele>
        <time>2022-10-28T13:58:56Z</time>
      </trkpt>
      <trkpt lat="44.38452" lon="5.73371">
        <ele>638.1</ele>
        <time>2022-10-28T13:58:58Z</time>
      </trkpt>
      <trkpt lat="44.3845" lon="5.73375">
        <ele>638.4</ele>
        <time>2022-10-28T13:58:59Z</time>
      </trkpt>
      <trkpt lat="44.38449" lon="5.73376">
        <ele>638.4</ele>
        <time>2022-10-28T13:59:00Z</time>
      </trkpt>
      <trkpt lat="44.38447" lon="5.7338">
        <ele>638.6</ele>
        <time>2022-10-28T13:59:01Z</time>
      </trkpt>
      <trkpt lat="44.38447" lon="5.73382">
        <ele>638.7</ele>
        <time>2022-10-28T13:59:02Z</time>
      </trkpt>
      <trkpt lat="44.38445" lon="5.73383">
        <ele>638.8</ele>
        <time>2022-10-28T13:59:03Z</time>
      </trkpt>
      <trkpt lat="44.38443" lon="5.73388">
        <ele>639</ele>
        <time>2022-10-28T13:59:05Z</time>
      </trkpt>
      <trkpt lat="44.38441" lon="5.73392">
        <ele>639.2</ele>
        <time>2022-10-28T13:59:06Z</time>
      </trkpt>
      <trkpt lat="44.3844" lon="5.73394">
        <ele>639.3</ele>
        <time>2022-10-28T13:59:07Z</time>
      </trkpt>
      <trkpt lat="44.38439" lon="5.73398">
        <ele>639.4</ele>
        <time>2022-10-28T13:59:08Z</time>
      </trkpt>
      <trkpt lat="44.38438" lon="5.73399">
        <ele>639.4</ele>
        <time>2022-10-28T13:59:09Z</time>
      </trkpt>
      <trkpt lat="44.38436" lon="5.73403">
        <ele>639.6</ele>
        <time>2022-10-28T13:59:10Z</time>
      </trkpt>
      <trkpt lat="44.38435" lon="5.73404">
        <ele>639.6</ele>
        <time>2022-10-28T13:59:11Z</time>
      </trkpt>
      <trkpt lat="44.38434" lon="5.73408">
        <ele>639.7</ele>
        <time>2022-10-28T13:59:12Z</time>
      </trkpt>
      <trkpt lat="44.38433" lon="5.7341">
        <ele>639.8</ele>
        <time>2022-10-28T13:59:13Z</time>
      </trkpt>
      <trkpt lat="44.38431" lon="5.73414">
        <ele>639.8</ele>
        <time>2022-10-28T13:59:15Z</time>
      </trkpt>
      <trkpt lat="44.38429" lon="5.73417">
        <ele>639.9</ele>
        <time>2022-10-28T13:59:16Z</time>
      </trkpt>
      <trkpt lat="44.38427" lon="5.73421">
        <ele>639.9</ele>
        <time>2022-10-28T13:59:17Z</time>
      </trkpt>
      <trkpt lat="44.38425" lon="5.73423">
        <ele>639.9</ele>
        <time>2022-10-28T13:59:19Z</time>
      </trkpt>
      <trkpt lat="44.38423" lon="5.73427">
        <ele>639.9</ele>
        <time>2022-10-28T13:59:20Z</time>
      </trkpt>
      <trkpt lat="44.38421" lon="5.7343">
        <ele>639.9</ele>
        <time>2022-10-28T13:59:21Z</time>
      </trkpt>
      <trkpt lat="44.38418" lon="5.73433">
        <ele>639.9</ele>
        <time>2022-10-28T13:59:22Z</time>
      </trkpt>
      <trkpt lat="44.38413" lon="5.73435">
        <ele>639.8</ele>
        <time>2022-10-28T13:59:23Z</time>
      </trkpt>
      <trkpt lat="44.3841" lon="5.73436">
        <ele>639.8</ele>
        <time>2022-10-28T13:59:24Z</time>
      </trkpt>
      <trkpt lat="44.38405" lon="5.73437">
        <ele>639.7</ele>
        <time>2022-10-28T13:59:26Z</time>
      </trkpt>
      <trkpt lat="44.384" lon="5.73436">
        <ele>639.6</ele>
        <time>2022-10-28T13:59:27Z</time>
      </trkpt>
      <trkpt lat="44.38394" lon="5.7343">
        <ele>639.4</ele>
        <time>2022-10-28T13:59:28Z</time>
      </trkpt>
      <trkpt lat="44.38388" lon="5.73426">
        <ele>639.3</ele>
        <time>2022-10-28T13:59:29Z</time>
      </trkpt>
      <trkpt lat="44.38383" lon="5.73424">
        <ele>639.2</ele>
        <time>2022-10-28T13:59:30Z</time>
      </trkpt>
      <trkpt lat="44.38376" lon="5.7342">
        <ele>639</ele>
        <time>2022-10-28T13:59:32Z</time>
      </trkpt>
      <trkpt lat="44.38368" lon="5.73417">
        <ele>638.7</ele>
        <time>2022-10-28T13:59:33Z</time>
      </trkpt>
      <trkpt lat="44.38363" lon="5.73416">
        <ele>638.6</ele>
        <time>2022-10-28T13:59:34Z</time>
      </trkpt>
      <trkpt lat="44.38357" lon="5.73416">
        <ele>638.4</ele>
        <time>2022-10-28T13:59:35Z</time>
      </trkpt>
      <trkpt lat="44.38352" lon="5.73415">
        <ele>638.3</ele>
        <time>2022-10-28T13:59:36Z</time>
      </trkpt>
      <trkpt lat="44.38347" lon="5.73414">
        <ele>638.1</ele>
        <time>2022-10-28T13:59:37Z</time>
      </trkpt>
      <trkpt lat="44.38341" lon="5.73413">
        <ele>637.9</ele>
        <time>2022-10-28T13:59:38Z</time>
      </trkpt>
      <trkpt lat="44.38336" lon="5.73412">
        <ele>637.8</ele>
        <time>2022-10-28T13:59:39Z</time>
      </trkpt>
      <trkpt lat="44.3833" lon="5.73411">
        <ele>637.6</ele>
        <time>2022-10-28T13:59:40Z</time>
      </trkpt>
      <trkpt lat="44.38325" lon="5.73411">
        <ele>637.4</ele>
        <time>2022-10-28T13:59:41Z</time>
      </trkpt>
      <trkpt lat="44.38319" lon="5.7341">
        <ele>637.1</ele>
        <time>2022-10-28T13:59:42Z</time>
      </trkpt>
      <trkpt lat="44.38314" lon="5.73409">
        <ele>636.9</ele>
        <time>2022-10-28T13:59:43Z</time>
      </trkpt>
      <trkpt lat="44.38309" lon="5.73407">
        <ele>636.7</ele>
        <time>2022-10-28T13:59:44Z</time>
      </trkpt>
      <trkpt lat="44.38303" lon="5.73406">
        <ele>636.5</ele>
        <time>2022-10-28T13:59:45Z</time>
      </trkpt>
      <trkpt lat="44.38297" lon="5.73406">
        <ele>636.2</ele>
        <time>2022-10-28T13:59:46Z</time>
      </trkpt>
      <trkpt lat="44.38292" lon="5.73405">
        <ele>636</ele>
        <time>2022-10-28T13:59:47Z</time>
      </trkpt>
      <trkpt lat="44.38286" lon="5.73405">
        <ele>635.8</ele>
        <time>2022-10-28T13:59:48Z</time>
      </trkpt>
      <trkpt lat="44.38279" lon="5.73404">
        <ele>635.6</ele>
        <time>2022-10-28T13:59:49Z</time>
      </trkpt>
      <trkpt lat="44.38273" lon="5.73404">
        <ele>635.3</ele>
        <time>2022-10-28T13:59:50Z</time>
      </trkpt>
      <trkpt lat="44.38267" lon="5.73403">
        <ele>635.1</ele>
        <time>2022-10-28T13:59:51Z</time>
      </trkpt>
      <trkpt lat="44.3826" lon="5.73402">
        <ele>634.9</ele>
        <time>2022-10-28T13:59:52Z</time>
      </trkpt>
      <trkpt lat="44.38254" lon="5.734">
        <ele>634.7</ele>
        <time>2022-10-28T13:59:53Z</time>
      </trkpt>
      <trkpt lat="44.38247" lon="5.73399">
        <ele>634.4</ele>
        <time>2022-10-28T13:59:54Z</time>
      </trkpt>
      <trkpt lat="44.38241" lon="5.73398">
        <ele>634.2</ele>
        <time>2022-10-28T13:59:55Z</time>
      </trkpt>
      <trkpt lat="44.38234" lon="5.73397">
        <ele>634</ele>
        <time>2022-10-28T13:59:56Z</time>
      </trkpt>
      <trkpt lat="44.38227" lon="5.73396">
        <ele>633.9</ele>
        <time>2022-10-28T13:59:57Z</time>
      </trkpt>
      <trkpt lat="44.3822" lon="5.73395">
        <ele>633.7</ele>
        <time>2022-10-28T13:59:58Z</time>
      </trkpt>
      <trkpt lat="44.38213" lon="5.73394">
        <ele>633.6</ele>
        <time>2022-10-28T13:59:59Z</time>
      </trkpt>
      <trkpt lat="44.38206" lon="5.73392">
        <ele>633.5</ele>
        <time>2022-10-28T14:00:00Z</time>
      </trkpt>
      <trkpt lat="44.38199" lon="5.73391">
        <ele>633.5</ele>
        <time>2022-10-28T14:00:01Z</time>
      </trkpt>
      <trkpt lat="44.38193" lon="5.7339">
        <ele>633.5</ele>
        <time>2022-10-28T14:00:02Z</time>
      </trkpt>
      <trkpt lat="44.38186" lon="5.73388">
        <ele>633.5</ele>
        <time>2022-10-28T14:00:03Z</time>
      </trkpt>
      <trkpt lat="44.3818" lon="5.73387">
        <ele>633.5</ele>
        <time>2022-10-28T14:00:04Z</time>
      </trkpt>
      <trkpt lat="44.38173" lon="5.73386">
        <ele>633.6</ele>
        <time>2022-10-28T14:00:05Z</time>
      </trkpt>
      <trkpt lat="44.38167" lon="5.73385">
        <ele>633.8</ele>
        <time>2022-10-28T14:00:06Z</time>
      </trkpt>
      <trkpt lat="44.38161" lon="5.73383">
        <ele>633.9</ele>
        <time>2022-10-28T14:00:07Z</time>
      </trkpt>
      <trkpt lat="44.38156" lon="5.73383">
        <ele>634</ele>
        <time>2022-10-28T14:00:08Z</time>
      </trkpt>
      <trkpt lat="44.3815" lon="5.73382">
        <ele>634.2</ele>
        <time>2022-10-28T14:00:09Z</time>
      </trkpt>
      <trkpt lat="44.38145" lon="5.73381">
        <ele>634.3</ele>
        <time>2022-10-28T14:00:10Z</time>
      </trkpt>
      <trkpt lat="44.38139" lon="5.7338">
        <ele>634.4</ele>
        <time>2022-10-28T14:00:11Z</time>
      </trkpt>
      <trkpt lat="44.38134" lon="5.73379">
        <ele>634.6</ele>
        <time>2022-10-28T14:00:12Z</time>
      </trkpt>
      <trkpt lat="44.38129" lon="5.73378">
        <ele>634.7</ele>
        <time>2022-10-28T14:00:13Z</time>
      </trkpt>
      <trkpt lat="44.38124" lon="5.73378">
        <ele>634.9</ele>
        <time>2022-10-28T14:00:14Z</time>
      </trkpt>
      <trkpt lat="44.38119" lon="5.73378">
        <ele>635</ele>
        <time>2022-10-28T14:00:15Z</time>
      </trkpt>
      <trkpt lat="44.38114" lon="5.73378">
        <ele>635.2</ele>
        <time>2022-10-28T14:00:16Z</time>
      </trkpt>
      <trkpt lat="44.38109" lon="5.73377">
        <ele>635.3</ele>
        <time>2022-10-28T14:00:17Z</time>
      </trkpt>
      <trkpt lat="44.38105" lon="5.73377">
        <ele>635.5</ele>
        <time>2022-10-28T14:00:18Z</time>
      </trkpt>
      <trkpt lat="44.381" lon="5.73376">
        <ele>635.6</ele>
        <time>2022-10-28T14:00:19Z</time>
      </trkpt>
      <trkpt lat="44.38097" lon="5.73376">
        <ele>635.7</ele>
        <time>2022-10-28T14:00:20Z</time>
      </trkpt>
      <trkpt lat="44.38094" lon="5.73376">
        <ele>635.7</ele>
        <time>2022-10-28T14:00:21Z</time>
      </trkpt>
      <trkpt lat="44.38089" lon="5.73376">
        <ele>635.8</ele>
        <time>2022-10-28T14:00:22Z</time>
      </trkpt>
      <trkpt lat="44.38085" lon="5.73376">
        <ele>635.9</ele>
        <time>2022-10-28T14:00:23Z</time>
      </trkpt>
      <trkpt lat="44.38081" lon="5.73376">
        <ele>636</ele>
        <time>2022-10-28T14:00:24Z</time>
      </trkpt>
      <trkpt lat="44.38077" lon="5.73375">
        <ele>636</ele>
        <time>2022-10-28T14:00:25Z</time>
      </trkpt>
      <trkpt lat="44.38075" lon="5.73375">
        <ele>636.1</ele>
        <time>2022-10-28T14:00:26Z</time>
      </trkpt>
      <trkpt lat="44.3807" lon="5.73374">
        <ele>636.1</ele>
        <time>2022-10-28T14:00:28Z</time>
      </trkpt>
      <trkpt lat="44.38064" lon="5.73374">
        <ele>636.2</ele>
        <time>2022-10-28T14:00:29Z</time>
      </trkpt>
      <trkpt lat="44.38059" lon="5.73373">
        <ele>636.3</ele>
        <time>2022-10-28T14:00:30Z</time>
      </trkpt>
      <trkpt lat="44.38055" lon="5.73371">
        <ele>636.4</ele>
        <time>2022-10-28T14:00:31Z</time>
      </trkpt>
      <trkpt lat="44.38051" lon="5.7337">
        <ele>636.4</ele>
        <time>2022-10-28T14:00:32Z</time>
      </trkpt>
      <trkpt lat="44.38047" lon="5.7337">
        <ele>636.4</ele>
        <time>2022-10-28T14:00:33Z</time>
      </trkpt>
      <trkpt lat="44.38043" lon="5.73369">
        <ele>636.4</ele>
        <time>2022-10-28T14:00:35Z</time>
      </trkpt>
      <trkpt lat="44.38038" lon="5.73368">
        <ele>636.5</ele>
        <time>2022-10-28T14:00:36Z</time>
      </trkpt>
      <trkpt lat="44.38034" lon="5.73367">
        <ele>636.5</ele>
        <time>2022-10-28T14:00:37Z</time>
      </trkpt>
      <trkpt lat="44.3803" lon="5.73366">
        <ele>636.5</ele>
        <time>2022-10-28T14:00:38Z</time>
      </trkpt>
      <trkpt lat="44.38026" lon="5.73365">
        <ele>636.5</ele>
        <time>2022-10-28T14:00:39Z</time>
      </trkpt>
      <trkpt lat="44.38022" lon="5.73363">
        <ele>636.4</ele>
        <time>2022-10-28T14:00:40Z</time>
      </trkpt>
      <trkpt lat="44.38018" lon="5.73362">
        <ele>636.4</ele>
        <time>2022-10-28T14:00:41Z</time>
      </trkpt>
      <trkpt lat="44.38013" lon="5.73361">
        <ele>636.4</ele>
        <time>2022-10-28T14:00:43Z</time>
      </trkpt>
      <trkpt lat="44.38007" lon="5.73359">
        <ele>636.3</ele>
        <time>2022-10-28T14:00:44Z</time>
      </trkpt>
      <trkpt lat="44.38001" lon="5.73358">
        <ele>636.2</ele>
        <time>2022-10-28T14:00:45Z</time>
      </trkpt>
      <trkpt lat="44.37996" lon="5.73357">
        <ele>636.2</ele>
        <time>2022-10-28T14:00:46Z</time>
      </trkpt>
      <trkpt lat="44.37991" lon="5.73355">
        <ele>636.1</ele>
        <time>2022-10-28T14:00:47Z</time>
      </trkpt>
      <trkpt lat="44.37986" lon="5.73354">
        <ele>636</ele>
        <time>2022-10-28T14:00:48Z</time>
      </trkpt>
      <trkpt lat="44.37981" lon="5.73353">
        <ele>635.9</ele>
        <time>2022-10-28T14:00:49Z</time>
      </trkpt>
      <trkpt lat="44.37975" lon="5.73351">
        <ele>635.8</ele>
        <time>2022-10-28T14:00:50Z</time>
      </trkpt>
      <trkpt lat="44.37971" lon="5.7335">
        <ele>635.8</ele>
        <time>2022-10-28T14:00:51Z</time>
      </trkpt>
      <trkpt lat="44.37966" lon="5.7335">
        <ele>635.7</ele>
        <time>2022-10-28T14:00:52Z</time>
      </trkpt>
      <trkpt lat="44.37963" lon="5.73348">
        <ele>635.6</ele>
        <time>2022-10-28T14:00:54Z</time>
      </trkpt>
      <trkpt lat="44.3796" lon="5.73347">
        <ele>635.6</ele>
        <time>2022-10-28T14:00:55Z</time>
      </trkpt>
      <trkpt lat="44.37959" lon="5.73347">
        <ele>635.6</ele>
        <time>2022-10-28T14:00:56Z</time>
      </trkpt>
      <trkpt lat="44.37958" lon="5.73348">
        <ele>635.6</ele>
        <time>2022-10-28T14:00:57Z</time>
      </trkpt>
      <trkpt lat="44.37958" lon="5.73348">
        <ele>635.5</ele>
        <time>2022-10-28T14:00:58Z</time>
      </trkpt>
      <trkpt lat="44.37957" lon="5.73349">
        <ele>635.5</ele>
        <time>2022-10-28T14:01:00Z</time>
      </trkpt>
      <trkpt lat="44.37957" lon="5.73349">
        <ele>635.5</ele>
        <time>2022-10-28T14:01:01Z</time>
      </trkpt>
      <trkpt lat="44.37957" lon="5.73349">
        <ele>635.5</ele>
        <time>2022-10-28T14:01:02Z</time>
      </trkpt>
      <trkpt lat="44.37956" lon="5.7335">
        <ele>635.5</ele>
        <time>2022-10-28T14:01:03Z</time>
      </trkpt>
      <trkpt lat="44.37956" lon="5.7335">
        <ele>635.5</ele>
        <time>2022-10-28T14:01:04Z</time>
      </trkpt>
      <trkpt lat="44.37955" lon="5.73351">
        <ele>635.5</ele>
        <time>2022-10-28T14:01:05Z</time>
      </trkpt>
      <trkpt lat="44.37955" lon="5.73351">
        <ele>635.5</ele>
        <time>2022-10-28T14:01:06Z</time>
      </trkpt>
      <trkpt lat="44.37955" lon="5.73352">
        <ele>635.5</ele>
        <time>2022-10-28T14:01:57Z</time>
      </trkpt>
      <trkpt lat="44.37954" lon="5.73352">
        <ele>635.5</ele>
        <time>2022-10-28T14:01:58Z</time>
      </trkpt>
      <trkpt lat="44.37954" lon="5.73352">
        <ele>635.5</ele>
        <time>2022-10-28T14:01:59Z</time>
      </trkpt>
      <trkpt lat="44.37951" lon="5.73356">
        <ele>635.1</ele>
        <time>2022-10-28T14:02:01Z</time>
      </trkpt>
      <trkpt lat="44.37947" lon="5.73361">
        <ele>634.8</ele>
        <time>2022-10-28T14:02:02Z</time>
      </trkpt>
      <trkpt lat="44.37943" lon="5.73366">
        <ele>634.5</ele>
        <time>2022-10-28T14:02:03Z</time>
      </trkpt>
      <trkpt lat="44.37937" lon="5.73371">
        <ele>634.1</ele>
        <time>2022-10-28T14:02:04Z</time>
      </trkpt>
      <trkpt lat="44.37932" lon="5.73376">
        <ele>633.8</ele>
        <time>2022-10-28T14:02:05Z</time>
      </trkpt>
      <trkpt lat="44.37927" lon="5.73382">
        <ele>633.5</ele>
        <time>2022-10-28T14:02:06Z</time>
      </trkpt>
      <trkpt lat="44.37922" lon="5.73388">
        <ele>633.3</ele>
        <time>2022-10-28T14:02:07Z</time>
      </trkpt>
      <trkpt lat="44.37917" lon="5.73394">
        <ele>633.1</ele>
        <time>2022-10-28T14:02:08Z</time>
      </trkpt>
      <trkpt lat="44.37912" lon="5.734">
        <ele>632.9</ele>
        <time>2022-10-28T14:02:09Z</time>
      </trkpt>
      <trkpt lat="44.37907" lon="5.73406">
        <ele>632.8</ele>
        <time>2022-10-28T14:02:10Z</time>
      </trkpt>
      <trkpt lat="44.37903" lon="5.73412">
        <ele>632.7</ele>
        <time>2022-10-28T14:02:11Z</time>
      </trkpt>
      <trkpt lat="44.37898" lon="5.73417">
        <ele>632.6</ele>
        <time>2022-10-28T14:02:12Z</time>
      </trkpt>
      <trkpt lat="44.37893" lon="5.73422">
        <ele>632.6</ele>
        <time>2022-10-28T14:02:13Z</time>
      </trkpt>
      <trkpt lat="44.37889" lon="5.73427">
        <ele>632.5</ele>
        <time>2022-10-28T14:02:14Z</time>
      </trkpt>
      <trkpt lat="44.37884" lon="5.73432">
        <ele>632.4</ele>
        <time>2022-10-28T14:02:15Z</time>
      </trkpt>
      <trkpt lat="44.37879" lon="5.73438">
        <ele>632.3</ele>
        <time>2022-10-28T14:02:16Z</time>
      </trkpt>
      <trkpt lat="44.37874" lon="5.73443">
        <ele>632.2</ele>
        <time>2022-10-28T14:02:17Z</time>
      </trkpt>
      <trkpt lat="44.37869" lon="5.73448">
        <ele>632.2</ele>
        <time>2022-10-28T14:02:18Z</time>
      </trkpt>
      <trkpt lat="44.37865" lon="5.73453">
        <ele>632.1</ele>
        <time>2022-10-28T14:02:19Z</time>
      </trkpt>
      <trkpt lat="44.3786" lon="5.73459">
        <ele>632</ele>
        <time>2022-10-28T14:02:20Z</time>
      </trkpt>
      <trkpt lat="44.37855" lon="5.73464">
        <ele>632</ele>
        <time>2022-10-28T14:02:21Z</time>
      </trkpt>
      <trkpt lat="44.37851" lon="5.73469">
        <ele>631.9</ele>
        <time>2022-10-28T14:02:22Z</time>
      </trkpt>
      <trkpt lat="44.37846" lon="5.73474">
        <ele>631.9</ele>
        <time>2022-10-28T14:02:23Z</time>
      </trkpt>
      <trkpt lat="44.37842" lon="5.7348">
        <ele>631.8</ele>
        <time>2022-10-28T14:02:24Z</time>
      </trkpt>
      <trkpt lat="44.37837" lon="5.73485">
        <ele>631.8</ele>
        <time>2022-10-28T14:02:25Z</time>
      </trkpt>
      <trkpt lat="44.37833" lon="5.7349">
        <ele>631.7</ele>
        <time>2022-10-28T14:02:26Z</time>
      </trkpt>
      <trkpt lat="44.37828" lon="5.73495">
        <ele>631.7</ele>
        <time>2022-10-28T14:02:27Z</time>
      </trkpt>
      <trkpt lat="44.37824" lon="5.735">
        <ele>631.7</ele>
        <time>2022-10-28T14:02:28Z</time>
      </trkpt>
      <trkpt lat="44.37819" lon="5.73505">
        <ele>631.6</ele>
        <time>2022-10-28T14:02:29Z</time>
      </trkpt>
      <trkpt lat="44.37815" lon="5.7351">
        <ele>631.6</ele>
        <time>2022-10-28T14:02:30Z</time>
      </trkpt>
      <trkpt lat="44.3781" lon="5.73516">
        <ele>631.6</ele>
        <time>2022-10-28T14:02:31Z</time>
      </trkpt>
      <trkpt lat="44.37806" lon="5.73521">
        <ele>631.5</ele>
        <time>2022-10-28T14:02:32Z</time>
      </trkpt>
      <trkpt lat="44.37801" lon="5.73526">
        <ele>631.5</ele>
        <time>2022-10-28T14:02:33Z</time>
      </trkpt>
      <trkpt lat="44.37797" lon="5.73531">
        <ele>631.5</ele>
        <time>2022-10-28T14:02:34Z</time>
      </trkpt>
      <trkpt lat="44.37793" lon="5.73537">
        <ele>631.4</ele>
        <time>2022-10-28T14:02:35Z</time>
      </trkpt>
      <trkpt lat="44.37788" lon="5.73542">
        <ele>631.4</ele>
        <time>2022-10-28T14:02:36Z</time>
      </trkpt>
      <trkpt lat="44.37783" lon="5.73548">
        <ele>631.3</ele>
        <time>2022-10-28T14:02:37Z</time>
      </trkpt>
      <trkpt lat="44.37779" lon="5.73553">
        <ele>631.3</ele>
        <time>2022-10-28T14:02:38Z</time>
      </trkpt>
      <trkpt lat="44.37775" lon="5.73558">
        <ele>631.3</ele>
        <time>2022-10-28T14:02:39Z</time>
      </trkpt>
      <trkpt lat="44.3777" lon="5.73562">
        <ele>631.2</ele>
        <time>2022-10-28T14:02:40Z</time>
      </trkpt>
      <trkpt lat="44.37766" lon="5.73568">
        <ele>631.1</ele>
        <time>2022-10-28T14:02:41Z</time>
      </trkpt>
      <trkpt lat="44.37762" lon="5.73573">
        <ele>631.1</ele>
        <time>2022-10-28T14:02:42Z</time>
      </trkpt>
      <trkpt lat="44.37757" lon="5.73578">
        <ele>631</ele>
        <time>2022-10-28T14:02:43Z</time>
      </trkpt>
      <trkpt lat="44.37752" lon="5.73584">
        <ele>631</ele>
        <time>2022-10-28T14:02:44Z</time>
      </trkpt>
      <trkpt lat="44.37748" lon="5.73589">
        <ele>630.9</ele>
        <time>2022-10-28T14:02:45Z</time>
      </trkpt>
      <trkpt lat="44.37743" lon="5.73592">
        <ele>630.9</ele>
        <time>2022-10-28T14:02:46Z</time>
      </trkpt>
      <trkpt lat="44.37738" lon="5.73597">
        <ele>630.8</ele>
        <time>2022-10-28T14:02:47Z</time>
      </trkpt>
      <trkpt lat="44.37733" lon="5.73602">
        <ele>630.8</ele>
        <time>2022-10-28T14:02:48Z</time>
      </trkpt>
      <trkpt lat="44.37729" lon="5.73606">
        <ele>630.7</ele>
        <time>2022-10-28T14:02:49Z</time>
      </trkpt>
      <trkpt lat="44.37724" lon="5.73609">
        <ele>630.7</ele>
        <time>2022-10-28T14:02:50Z</time>
      </trkpt>
      <trkpt lat="44.37719" lon="5.73613">
        <ele>630.7</ele>
        <time>2022-10-28T14:02:51Z</time>
      </trkpt>
      <trkpt lat="44.37714" lon="5.73616">
        <ele>630.7</ele>
        <time>2022-10-28T14:02:52Z</time>
      </trkpt>
      <trkpt lat="44.37709" lon="5.73619">
        <ele>630.7</ele>
        <time>2022-10-28T14:02:53Z</time>
      </trkpt>
      <trkpt lat="44.37705" lon="5.73622">
        <ele>630.7</ele>
        <time>2022-10-28T14:02:54Z</time>
      </trkpt>
      <trkpt lat="44.377" lon="5.73625">
        <ele>630.8</ele>
        <time>2022-10-28T14:02:55Z</time>
      </trkpt>
      <trkpt lat="44.37695" lon="5.73628">
        <ele>630.8</ele>
        <time>2022-10-28T14:02:56Z</time>
      </trkpt>
      <trkpt lat="44.37689" lon="5.7363">
        <ele>630.8</ele>
        <time>2022-10-28T14:02:57Z</time>
      </trkpt>
      <trkpt lat="44.37685" lon="5.73633">
        <ele>630.8</ele>
        <time>2022-10-28T14:02:58Z</time>
      </trkpt>
      <trkpt lat="44.3768" lon="5.73635">
        <ele>630.9</ele>
        <time>2022-10-28T14:02:59Z</time>
      </trkpt>
      <trkpt lat="44.37675" lon="5.73638">
        <ele>630.9</ele>
        <time>2022-10-28T14:03:00Z</time>
      </trkpt>
      <trkpt lat="44.3767" lon="5.7364">
        <ele>630.9</ele>
        <time>2022-10-28T14:03:01Z</time>
      </trkpt>
      <trkpt lat="44.37665" lon="5.73642">
        <ele>630.8</ele>
        <time>2022-10-28T14:03:02Z</time>
      </trkpt>
      <trkpt lat="44.3766" lon="5.73644">
        <ele>630.8</ele>
        <time>2022-10-28T14:03:03Z</time>
      </trkpt>
      <trkpt lat="44.37656" lon="5.73647">
        <ele>630.8</ele>
        <time>2022-10-28T14:03:04Z</time>
      </trkpt>
      <trkpt lat="44.37651" lon="5.7365">
        <ele>630.7</ele>
        <time>2022-10-28T14:03:05Z</time>
      </trkpt>
      <trkpt lat="44.37646" lon="5.73653">
        <ele>630.6</ele>
        <time>2022-10-28T14:03:06Z</time>
      </trkpt>
      <trkpt lat="44.37641" lon="5.73655">
        <ele>630.6</ele>
        <time>2022-10-28T14:03:07Z</time>
      </trkpt>
      <trkpt lat="44.37636" lon="5.73658">
        <ele>630.5</ele>
        <time>2022-10-28T14:03:08Z</time>
      </trkpt>
      <trkpt lat="44.37631" lon="5.73661">
        <ele>630.5</ele>
        <time>2022-10-28T14:03:09Z</time>
      </trkpt>
      <trkpt lat="44.37626" lon="5.73663">
        <ele>630.4</ele>
        <time>2022-10-28T14:03:10Z</time>
      </trkpt>
      <trkpt lat="44.37621" lon="5.73667">
        <ele>630.3</ele>
        <time>2022-10-28T14:03:11Z</time>
      </trkpt>
      <trkpt lat="44.37617" lon="5.7367">
        <ele>630.3</ele>
        <time>2022-10-28T14:03:12Z</time>
      </trkpt>
      <trkpt lat="44.37612" lon="5.73673">
        <ele>630.2</ele>
        <time>2022-10-28T14:03:13Z</time>
      </trkpt>
      <trkpt lat="44.37607" lon="5.73676">
        <ele>630.2</ele>
        <time>2022-10-28T14:03:14Z</time>
      </trkpt>
      <trkpt lat="44.37602" lon="5.7368">
        <ele>630.1</ele>
        <time>2022-10-28T14:03:15Z</time>
      </trkpt>
      <trkpt lat="44.37596" lon="5.73682">
        <ele>630.1</ele>
        <time>2022-10-28T14:03:16Z</time>
      </trkpt>
      <trkpt lat="44.37591" lon="5.73685">
        <ele>630</ele>
        <time>2022-10-28T14:03:17Z</time>
      </trkpt>
      <trkpt lat="44.37585" lon="5.73688">
        <ele>630</ele>
        <time>2022-10-28T14:03:18Z</time>
      </trkpt>
      <trkpt lat="44.3758" lon="5.7369">
        <ele>629.9</ele>
        <time>2022-10-28T14:03:19Z</time>
      </trkpt>
      <trkpt lat="44.37574" lon="5.73692">
        <ele>629.9</ele>
        <time>2022-10-28T14:03:20Z</time>
      </trkpt>
      <trkpt lat="44.37569" lon="5.73695">
        <ele>629.9</ele>
        <time>2022-10-28T14:03:21Z</time>
      </trkpt>
      <trkpt lat="44.37564" lon="5.73698">
        <ele>629.9</ele>
        <time>2022-10-28T14:03:22Z</time>
      </trkpt>
      <trkpt lat="44.37559" lon="5.73702">
        <ele>629.9</ele>
        <time>2022-10-28T14:03:23Z</time>
      </trkpt>
      <trkpt lat="44.37554" lon="5.73706">
        <ele>629.9</ele>
        <time>2022-10-28T14:03:24Z</time>
      </trkpt>
      <trkpt lat="44.37551" lon="5.73712">
        <ele>629.9</ele>
        <time>2022-10-28T14:03:25Z</time>
      </trkpt>
      <trkpt lat="44.37547" lon="5.73718">
        <ele>629.9</ele>
        <time>2022-10-28T14:03:26Z</time>
      </trkpt>
      <trkpt lat="44.37544" lon="5.73724">
        <ele>629.9</ele>
        <time>2022-10-28T14:03:27Z</time>
      </trkpt>
      <trkpt lat="44.37541" lon="5.7373">
        <ele>629.9</ele>
        <time>2022-10-28T14:03:28Z</time>
      </trkpt>
      <trkpt lat="44.37538" lon="5.73737">
        <ele>629.8</ele>
        <time>2022-10-28T14:03:29Z</time>
      </trkpt>
      <trkpt lat="44.37535" lon="5.73743">
        <ele>629.7</ele>
        <time>2022-10-28T14:03:30Z</time>
      </trkpt>
      <trkpt lat="44.3753" lon="5.73748">
        <ele>629.6</ele>
        <time>2022-10-28T14:03:31Z</time>
      </trkpt>
      <trkpt lat="44.37525" lon="5.73753">
        <ele>629.4</ele>
        <time>2022-10-28T14:03:32Z</time>
      </trkpt>
      <trkpt lat="44.3752" lon="5.73755">
        <ele>629.2</ele>
        <time>2022-10-28T14:03:33Z</time>
      </trkpt>
      <trkpt lat="44.37513" lon="5.73756">
        <ele>629.1</ele>
        <time>2022-10-28T14:03:34Z</time>
      </trkpt>
      <trkpt lat="44.37506" lon="5.73757">
        <ele>629</ele>
        <time>2022-10-28T14:03:35Z</time>
      </trkpt>
      <trkpt lat="44.375" lon="5.73759">
        <ele>629</ele>
        <time>2022-10-28T14:03:36Z</time>
      </trkpt>
      <trkpt lat="44.37493" lon="5.73762">
        <ele>629.1</ele>
        <time>2022-10-28T14:03:37Z</time>
      </trkpt>
      <trkpt lat="44.37487" lon="5.73767">
        <ele>629.2</ele>
        <time>2022-10-28T14:03:38Z</time>
      </trkpt>
      <trkpt lat="44.37483" lon="5.73773">
        <ele>629.3</ele>
        <time>2022-10-28T14:03:39Z</time>
      </trkpt>
      <trkpt lat="44.3748" lon="5.73778">
        <ele>629.4</ele>
        <time>2022-10-28T14:03:40Z</time>
      </trkpt>
      <trkpt lat="44.37476" lon="5.73783">
        <ele>629.5</ele>
        <time>2022-10-28T14:03:41Z</time>
      </trkpt>
      <trkpt lat="44.37472" lon="5.73788">
        <ele>629.6</ele>
        <time>2022-10-28T14:03:42Z</time>
      </trkpt>
      <trkpt lat="44.37468" lon="5.73791">
        <ele>629.6</ele>
        <time>2022-10-28T14:03:43Z</time>
      </trkpt>
      <trkpt lat="44.37464" lon="5.73794">
        <ele>629.6</ele>
        <time>2022-10-28T14:03:44Z</time>
      </trkpt>
      <trkpt lat="44.37458" lon="5.73797">
        <ele>629.6</ele>
        <time>2022-10-28T14:03:45Z</time>
      </trkpt>
      <trkpt lat="44.37454" lon="5.73799">
        <ele>629.6</ele>
        <time>2022-10-28T14:03:46Z</time>
      </trkpt>
      <trkpt lat="44.37449" lon="5.73801">
        <ele>629.6</ele>
        <time>2022-10-28T14:03:47Z</time>
      </trkpt>
      <trkpt lat="44.37444" lon="5.73803">
        <ele>629.5</ele>
        <time>2022-10-28T14:03:48Z</time>
      </trkpt>
      <trkpt lat="44.37439" lon="5.73805">
        <ele>629.5</ele>
        <time>2022-10-28T14:03:49Z</time>
      </trkpt>
      <trkpt lat="44.37435" lon="5.73807">
        <ele>629.5</ele>
        <time>2022-10-28T14:03:50Z</time>
      </trkpt>
      <trkpt lat="44.3743" lon="5.73809">
        <ele>629.4</ele>
        <time>2022-10-28T14:03:51Z</time>
      </trkpt>
      <trkpt lat="44.37425" lon="5.73812">
        <ele>629.4</ele>
        <time>2022-10-28T14:03:52Z</time>
      </trkpt>
      <trkpt lat="44.37419" lon="5.73815">
        <ele>629.4</ele>
        <time>2022-10-28T14:03:53Z</time>
      </trkpt>
      <trkpt lat="44.37414" lon="5.73817">
        <ele>629.3</ele>
        <time>2022-10-28T14:03:54Z</time>
      </trkpt>
      <trkpt lat="44.37409" lon="5.7382">
        <ele>629.3</ele>
        <time>2022-10-28T14:03:55Z</time>
      </trkpt>
      <trkpt lat="44.37405" lon="5.73824">
        <ele>629.3</ele>
        <time>2022-10-28T14:03:56Z</time>
      </trkpt>
      <trkpt lat="44.374" lon="5.73827">
        <ele>629.2</ele>
        <time>2022-10-28T14:03:57Z</time>
      </trkpt>
      <trkpt lat="44.37395" lon="5.73831">
        <ele>629.2</ele>
        <time>2022-10-28T14:03:58Z</time>
      </trkpt>
      <trkpt lat="44.37391" lon="5.73834">
        <ele>629.2</ele>
        <time>2022-10-28T14:03:59Z</time>
      </trkpt>
      <trkpt lat="44.37386" lon="5.73837">
        <ele>629.1</ele>
        <time>2022-10-28T14:04:00Z</time>
      </trkpt>
      <trkpt lat="44.37381" lon="5.7384">
        <ele>629.1</ele>
        <time>2022-10-28T14:04:01Z</time>
      </trkpt>
      <trkpt lat="44.37376" lon="5.73842">
        <ele>629.1</ele>
        <time>2022-10-28T14:04:02Z</time>
      </trkpt>
      <trkpt lat="44.37371" lon="5.73845">
        <ele>629.1</ele>
        <time>2022-10-28T14:04:03Z</time>
      </trkpt>
      <trkpt lat="44.37366" lon="5.73848">
        <ele>629.1</ele>
        <time>2022-10-28T14:04:04Z</time>
      </trkpt>
      <trkpt lat="44.37361" lon="5.73851">
        <ele>629.1</ele>
        <time>2022-10-28T14:04:05Z</time>
      </trkpt>
      <trkpt lat="44.37356" lon="5.73854">
        <ele>629</ele>
        <time>2022-10-28T14:04:06Z</time>
      </trkpt>
      <trkpt lat="44.37351" lon="5.73856">
        <ele>629</ele>
        <time>2022-10-28T14:04:07Z</time>
      </trkpt>
      <trkpt lat="44.37346" lon="5.73858">
        <ele>629</ele>
        <time>2022-10-28T14:04:08Z</time>
      </trkpt>
      <trkpt lat="44.37341" lon="5.7386">
        <ele>629</ele>
        <time>2022-10-28T14:04:09Z</time>
      </trkpt>
      <trkpt lat="44.37336" lon="5.73862">
        <ele>628.9</ele>
        <time>2022-10-28T14:04:10Z</time>
      </trkpt>
      <trkpt lat="44.37331" lon="5.73864">
        <ele>628.9</ele>
        <time>2022-10-28T14:04:11Z</time>
      </trkpt>
      <trkpt lat="44.37325" lon="5.73866">
        <ele>628.8</ele>
        <time>2022-10-28T14:04:12Z</time>
      </trkpt>
      <trkpt lat="44.3732" lon="5.73867">
        <ele>628.7</ele>
        <time>2022-10-28T14:04:13Z</time>
      </trkpt>
      <trkpt lat="44.37314" lon="5.73869">
        <ele>628.5</ele>
        <time>2022-10-28T14:04:14Z</time>
      </trkpt>
      <trkpt lat="44.37309" lon="5.7387">
        <ele>628.4</ele>
        <time>2022-10-28T14:04:15Z</time>
      </trkpt>
      <trkpt lat="44.37303" lon="5.73872">
        <ele>628.2</ele>
        <time>2022-10-28T14:04:16Z</time>
      </trkpt>
      <trkpt lat="44.37297" lon="5.73873">
        <ele>628.1</ele>
        <time>2022-10-28T14:04:17Z</time>
      </trkpt>
      <trkpt lat="44.37292" lon="5.73875">
        <ele>627.9</ele>
        <time>2022-10-28T14:04:18Z</time>
      </trkpt>
      <trkpt lat="44.37286" lon="5.73877">
        <ele>627.7</ele>
        <time>2022-10-28T14:04:19Z</time>
      </trkpt>
      <trkpt lat="44.37279" lon="5.73878">
        <ele>627.5</ele>
        <time>2022-10-28T14:04:20Z</time>
      </trkpt>
      <trkpt lat="44.37273" lon="5.7388">
        <ele>627.3</ele>
        <time>2022-10-28T14:04:21Z</time>
      </trkpt>
      <trkpt lat="44.37267" lon="5.73882">
        <ele>627.1</ele>
        <time>2022-10-28T14:04:22Z</time>
      </trkpt>
      <trkpt lat="44.37261" lon="5.73884">
        <ele>626.9</ele>
        <time>2022-10-28T14:04:23Z</time>
      </trkpt>
      <trkpt lat="44.37255" lon="5.73885">
        <ele>626.6</ele>
        <time>2022-10-28T14:04:24Z</time>
      </trkpt>
      <trkpt lat="44.37248" lon="5.73887">
        <ele>626.4</ele>
        <time>2022-10-28T14:04:25Z</time>
      </trkpt>
      <trkpt lat="44.37242" lon="5.73888">
        <ele>626.1</ele>
        <time>2022-10-28T14:04:26Z</time>
      </trkpt>
      <trkpt lat="44.37235" lon="5.7389">
        <ele>625.9</ele>
        <time>2022-10-28T14:04:27Z</time>
      </trkpt>
      <trkpt lat="44.37228" lon="5.73892">
        <ele>625.6</ele>
        <time>2022-10-28T14:04:28Z</time>
      </trkpt>
      <trkpt lat="44.37221" lon="5.73894">
        <ele>625.3</ele>
        <time>2022-10-28T14:04:29Z</time>
      </trkpt>
      <trkpt lat="44.37214" lon="5.73896">
        <ele>625.1</ele>
        <time>2022-10-28T14:04:30Z</time>
      </trkpt>
      <trkpt lat="44.37207" lon="5.73898">
        <ele>624.8</ele>
        <time>2022-10-28T14:04:31Z</time>
      </trkpt>
      <trkpt lat="44.372" lon="5.739">
        <ele>624.5</ele>
        <time>2022-10-28T14:04:32Z</time>
      </trkpt>
      <trkpt lat="44.37193" lon="5.73903">
        <ele>624.3</ele>
        <time>2022-10-28T14:04:33Z</time>
      </trkpt>
      <trkpt lat="44.37187" lon="5.73906">
        <ele>624.1</ele>
        <time>2022-10-28T14:04:34Z</time>
      </trkpt>
      <trkpt lat="44.37181" lon="5.73911">
        <ele>623.9</ele>
        <time>2022-10-28T14:04:35Z</time>
      </trkpt>
      <trkpt lat="44.37175" lon="5.73917">
        <ele>623.9</ele>
        <time>2022-10-28T14:04:36Z</time>
      </trkpt>
      <trkpt lat="44.37171" lon="5.73924">
        <ele>623.9</ele>
        <time>2022-10-28T14:04:37Z</time>
      </trkpt>
      <trkpt lat="44.37167" lon="5.73933">
        <ele>623.9</ele>
        <time>2022-10-28T14:04:38Z</time>
      </trkpt>
      <trkpt lat="44.37163" lon="5.73941">
        <ele>623.9</ele>
        <time>2022-10-28T14:04:39Z</time>
      </trkpt>
      <trkpt lat="44.37159" lon="5.73948">
        <ele>623.9</ele>
        <time>2022-10-28T14:04:40Z</time>
      </trkpt>
      <trkpt lat="44.37155" lon="5.73956">
        <ele>623.9</ele>
        <time>2022-10-28T14:04:41Z</time>
      </trkpt>
      <trkpt lat="44.37151" lon="5.73963">
        <ele>623.9</ele>
        <time>2022-10-28T14:04:42Z</time>
      </trkpt>
      <trkpt lat="44.37148" lon="5.7397">
        <ele>624</ele>
        <time>2022-10-28T14:04:43Z</time>
      </trkpt>
      <trkpt lat="44.37144" lon="5.73977">
        <ele>624</ele>
        <time>2022-10-28T14:04:44Z</time>
      </trkpt>
      <trkpt lat="44.3714" lon="5.73984">
        <ele>624</ele>
        <time>2022-10-28T14:04:45Z</time>
      </trkpt>
      <trkpt lat="44.37137" lon="5.73991">
        <ele>624.1</ele>
        <time>2022-10-28T14:04:46Z</time>
      </trkpt>
      <trkpt lat="44.37134" lon="5.73997">
        <ele>624.1</ele>
        <time>2022-10-28T14:04:47Z</time>
      </trkpt>
      <trkpt lat="44.37131" lon="5.74003">
        <ele>624.2</ele>
        <time>2022-10-28T14:04:48Z</time>
      </trkpt>
      <trkpt lat="44.37128" lon="5.74009">
        <ele>624.3</ele>
        <time>2022-10-28T14:04:49Z</time>
      </trkpt>
      <trkpt lat="44.37125" lon="5.74015">
        <ele>624.4</ele>
        <time>2022-10-28T14:04:50Z</time>
      </trkpt>
      <trkpt lat="44.37122" lon="5.74021">
        <ele>624.5</ele>
        <time>2022-10-28T14:04:51Z</time>
      </trkpt>
      <trkpt lat="44.37119" lon="5.74027">
        <ele>624.6</ele>
        <time>2022-10-28T14:04:52Z</time>
      </trkpt>
      <trkpt lat="44.37116" lon="5.74032">
        <ele>624.7</ele>
        <time>2022-10-28T14:04:53Z</time>
      </trkpt>
      <trkpt lat="44.37114" lon="5.74037">
        <ele>624.8</ele>
        <time>2022-10-28T14:04:54Z</time>
      </trkpt>
      <trkpt lat="44.37111" lon="5.74042">
        <ele>624.9</ele>
        <time>2022-10-28T14:04:55Z</time>
      </trkpt>
      <trkpt lat="44.37108" lon="5.74047">
        <ele>625</ele>
        <time>2022-10-28T14:04:56Z</time>
      </trkpt>
      <trkpt lat="44.37106" lon="5.74051">
        <ele>625.1</ele>
        <time>2022-10-28T14:04:57Z</time>
      </trkpt>
      <trkpt lat="44.37104" lon="5.74055">
        <ele>625.2</ele>
        <time>2022-10-28T14:04:58Z</time>
      </trkpt>
      <trkpt lat="44.37101" lon="5.7406">
        <ele>625.3</ele>
        <time>2022-10-28T14:04:59Z</time>
      </trkpt>
      <trkpt lat="44.37099" lon="5.74064">
        <ele>625.4</ele>
        <time>2022-10-28T14:05:00Z</time>
      </trkpt>
      <trkpt lat="44.37096" lon="5.74069">
        <ele>625.5</ele>
        <time>2022-10-28T14:05:01Z</time>
      </trkpt>
      <trkpt lat="44.37094" lon="5.74073">
        <ele>625.5</ele>
        <time>2022-10-28T14:05:02Z</time>
      </trkpt>
      <trkpt lat="44.37092" lon="5.74077">
        <ele>625.6</ele>
        <time>2022-10-28T14:05:03Z</time>
      </trkpt>
      <trkpt lat="44.37091" lon="5.74081">
        <ele>625.6</ele>
        <time>2022-10-28T14:05:04Z</time>
      </trkpt>
      <trkpt lat="44.37088" lon="5.74087">
        <ele>625.7</ele>
        <time>2022-10-28T14:05:06Z</time>
      </trkpt>
      <trkpt lat="44.37084" lon="5.74093">
        <ele>625.7</ele>
        <time>2022-10-28T14:05:07Z</time>
      </trkpt>
      <trkpt lat="44.37082" lon="5.74098">
        <ele>625.7</ele>
        <time>2022-10-28T14:05:08Z</time>
      </trkpt>
      <trkpt lat="44.37079" lon="5.74103">
        <ele>625.7</ele>
        <time>2022-10-28T14:05:09Z</time>
      </trkpt>
      <trkpt lat="44.37076" lon="5.74109">
        <ele>625.6</ele>
        <time>2022-10-28T14:05:10Z</time>
      </trkpt>
      <trkpt lat="44.37073" lon="5.74114">
        <ele>625.6</ele>
        <time>2022-10-28T14:05:11Z</time>
      </trkpt>
      <trkpt lat="44.3707" lon="5.7412">
        <ele>625.5</ele>
        <time>2022-10-28T14:05:12Z</time>
      </trkpt>
      <trkpt lat="44.37067" lon="5.74125">
        <ele>625.4</ele>
        <time>2022-10-28T14:05:13Z</time>
      </trkpt>
      <trkpt lat="44.37064" lon="5.74131">
        <ele>625.4</ele>
        <time>2022-10-28T14:05:14Z</time>
      </trkpt>
      <trkpt lat="44.37061" lon="5.74136">
        <ele>625.3</ele>
        <time>2022-10-28T14:05:15Z</time>
      </trkpt>
      <trkpt lat="44.37058" lon="5.74142">
        <ele>625.2</ele>
        <time>2022-10-28T14:05:16Z</time>
      </trkpt>
      <trkpt lat="44.37055" lon="5.74147">
        <ele>625.2</ele>
        <time>2022-10-28T14:05:17Z</time>
      </trkpt>
      <trkpt lat="44.37052" lon="5.74153">
        <ele>625.1</ele>
        <time>2022-10-28T14:05:18Z</time>
      </trkpt>
      <trkpt lat="44.37049" lon="5.74159">
        <ele>625</ele>
        <time>2022-10-28T14:05:19Z</time>
      </trkpt>
      <trkpt lat="44.37046" lon="5.74165">
        <ele>624.9</ele>
        <time>2022-10-28T14:05:20Z</time>
      </trkpt>
      <trkpt lat="44.37043" lon="5.74171">
        <ele>624.9</ele>
        <time>2022-10-28T14:05:21Z</time>
      </trkpt>
      <trkpt lat="44.37039" lon="5.74177">
        <ele>624.8</ele>
        <time>2022-10-28T14:05:22Z</time>
      </trkpt>
      <trkpt lat="44.37036" lon="5.74182">
        <ele>624.8</ele>
        <time>2022-10-28T14:05:23Z</time>
      </trkpt>
      <trkpt lat="44.37033" lon="5.74188">
        <ele>624.7</ele>
        <time>2022-10-28T14:05:24Z</time>
      </trkpt>
      <trkpt lat="44.37029" lon="5.74194">
        <ele>624.6</ele>
        <time>2022-10-28T14:05:25Z</time>
      </trkpt>
      <trkpt lat="44.37026" lon="5.74199">
        <ele>624.6</ele>
        <time>2022-10-28T14:05:26Z</time>
      </trkpt>
      <trkpt lat="44.37022" lon="5.74205">
        <ele>624.6</ele>
        <time>2022-10-28T14:05:27Z</time>
      </trkpt>
      <trkpt lat="44.37018" lon="5.7421">
        <ele>624.5</ele>
        <time>2022-10-28T14:05:28Z</time>
      </trkpt>
      <trkpt lat="44.37015" lon="5.74216">
        <ele>624.5</ele>
        <time>2022-10-28T14:05:29Z</time>
      </trkpt>
      <trkpt lat="44.37011" lon="5.74221">
        <ele>624.5</ele>
        <time>2022-10-28T14:05:30Z</time>
      </trkpt>
      <trkpt lat="44.37007" lon="5.74226">
        <ele>624.5</ele>
        <time>2022-10-28T14:05:31Z</time>
      </trkpt>
      <trkpt lat="44.37003" lon="5.74231">
        <ele>624.4</ele>
        <time>2022-10-28T14:05:32Z</time>
      </trkpt>
      <trkpt lat="44.36999" lon="5.74235">
        <ele>624.4</ele>
        <time>2022-10-28T14:05:33Z</time>
      </trkpt>
      <trkpt lat="44.36994" lon="5.74239">
        <ele>624.3</ele>
        <time>2022-10-28T14:05:34Z</time>
      </trkpt>
      <trkpt lat="44.36989" lon="5.74242">
        <ele>624.2</ele>
        <time>2022-10-28T14:05:35Z</time>
      </trkpt>
      <trkpt lat="44.36984" lon="5.74244">
        <ele>624.1</ele>
        <time>2022-10-28T14:05:36Z</time>
      </trkpt>
      <trkpt lat="44.36979" lon="5.74246">
        <ele>624</ele>
        <time>2022-10-28T14:05:37Z</time>
      </trkpt>
      <trkpt lat="44.36974" lon="5.74248">
        <ele>623.9</ele>
        <time>2022-10-28T14:05:38Z</time>
      </trkpt>
      <trkpt lat="44.36969" lon="5.74251">
        <ele>623.7</ele>
        <time>2022-10-28T14:05:39Z</time>
      </trkpt>
      <trkpt lat="44.36963" lon="5.74253">
        <ele>623.6</ele>
        <time>2022-10-28T14:05:40Z</time>
      </trkpt>
      <trkpt lat="44.36957" lon="5.74255">
        <ele>623.5</ele>
        <time>2022-10-28T14:05:41Z</time>
      </trkpt>
      <trkpt lat="44.36952" lon="5.74258">
        <ele>623.4</ele>
        <time>2022-10-28T14:05:42Z</time>
      </trkpt>
      <trkpt lat="44.36946" lon="5.7426">
        <ele>623.4</ele>
        <time>2022-10-28T14:05:43Z</time>
      </trkpt>
      <trkpt lat="44.36941" lon="5.74263">
        <ele>623.3</ele>
        <time>2022-10-28T14:05:44Z</time>
      </trkpt>
      <trkpt lat="44.36935" lon="5.74266">
        <ele>623.2</ele>
        <time>2022-10-28T14:05:45Z</time>
      </trkpt>
      <trkpt lat="44.3693" lon="5.74269">
        <ele>623.2</ele>
        <time>2022-10-28T14:05:46Z</time>
      </trkpt>
      <trkpt lat="44.36924" lon="5.74271">
        <ele>623.2</ele>
        <time>2022-10-28T14:05:47Z</time>
      </trkpt>
      <trkpt lat="44.36918" lon="5.74272">
        <ele>623.2</ele>
        <time>2022-10-28T14:05:48Z</time>
      </trkpt>
      <trkpt lat="44.36913" lon="5.74275">
        <ele>623.2</ele>
        <time>2022-10-28T14:05:49Z</time>
      </trkpt>
      <trkpt lat="44.36907" lon="5.74277">
        <ele>623.2</ele>
        <time>2022-10-28T14:05:50Z</time>
      </trkpt>
      <trkpt lat="44.36902" lon="5.74279">
        <ele>623.3</ele>
        <time>2022-10-28T14:05:51Z</time>
      </trkpt>
      <trkpt lat="44.36897" lon="5.74281">
        <ele>623.3</ele>
        <time>2022-10-28T14:05:52Z</time>
      </trkpt>
      <trkpt lat="44.36892" lon="5.74282">
        <ele>623.4</ele>
        <time>2022-10-28T14:05:53Z</time>
      </trkpt>
      <trkpt lat="44.36887" lon="5.74283">
        <ele>623.4</ele>
        <time>2022-10-28T14:05:54Z</time>
      </trkpt>
      <trkpt lat="44.36882" lon="5.74285">
        <ele>623.5</ele>
        <time>2022-10-28T14:05:55Z</time>
      </trkpt>
      <trkpt lat="44.36877" lon="5.74286">
        <ele>623.5</ele>
        <time>2022-10-28T14:05:56Z</time>
      </trkpt>
      <trkpt lat="44.36873" lon="5.74287">
        <ele>623.6</ele>
        <time>2022-10-28T14:05:57Z</time>
      </trkpt>
      <trkpt lat="44.36868" lon="5.74288">
        <ele>623.6</ele>
        <time>2022-10-28T14:05:58Z</time>
      </trkpt>
      <trkpt lat="44.36863" lon="5.74289">
        <ele>623.6</ele>
        <time>2022-10-28T14:05:59Z</time>
      </trkpt>
      <trkpt lat="44.36859" lon="5.74289">
        <ele>623.6</ele>
        <time>2022-10-28T14:06:00Z</time>
      </trkpt>
      <trkpt lat="44.36854" lon="5.7429">
        <ele>623.6</ele>
        <time>2022-10-28T14:06:01Z</time>
      </trkpt>
      <trkpt lat="44.36849" lon="5.74291">
        <ele>623.6</ele>
        <time>2022-10-28T14:06:02Z</time>
      </trkpt>
      <trkpt lat="44.36844" lon="5.74292">
        <ele>623.6</ele>
        <time>2022-10-28T14:06:03Z</time>
      </trkpt>
      <trkpt lat="44.36839" lon="5.74293">
        <ele>623.6</ele>
        <time>2022-10-28T14:06:04Z</time>
      </trkpt>
      <trkpt lat="44.36835" lon="5.74294">
        <ele>623.6</ele>
        <time>2022-10-28T14:06:05Z</time>
      </trkpt>
      <trkpt lat="44.3683" lon="5.74295">
        <ele>623.5</ele>
        <time>2022-10-28T14:06:06Z</time>
      </trkpt>
      <trkpt lat="44.36825" lon="5.74297">
        <ele>623.5</ele>
        <time>2022-10-28T14:06:07Z</time>
      </trkpt>
      <trkpt lat="44.3682" lon="5.743">
        <ele>623.5</ele>
        <time>2022-10-28T14:06:08Z</time>
      </trkpt>
      <trkpt lat="44.36816" lon="5.74304">
        <ele>623.5</ele>
        <time>2022-10-28T14:06:09Z</time>
      </trkpt>
      <trkpt lat="44.36812" lon="5.74308">
        <ele>623.5</ele>
        <time>2022-10-28T14:06:10Z</time>
      </trkpt>
      <trkpt lat="44.36808" lon="5.74313">
        <ele>623.4</ele>
        <time>2022-10-28T14:06:11Z</time>
      </trkpt>
      <trkpt lat="44.36805" lon="5.74318">
        <ele>623.4</ele>
        <time>2022-10-28T14:06:12Z</time>
      </trkpt>
      <trkpt lat="44.36801" lon="5.74324">
        <ele>623.3</ele>
        <time>2022-10-28T14:06:13Z</time>
      </trkpt>
      <trkpt lat="44.36798" lon="5.74329">
        <ele>623.3</ele>
        <time>2022-10-28T14:06:14Z</time>
      </trkpt>
      <trkpt lat="44.36794" lon="5.74336">
        <ele>623.2</ele>
        <time>2022-10-28T14:06:15Z</time>
      </trkpt>
      <trkpt lat="44.36791" lon="5.74342">
        <ele>623.1</ele>
        <time>2022-10-28T14:06:16Z</time>
      </trkpt>
      <trkpt lat="44.36788" lon="5.74349">
        <ele>623.1</ele>
        <time>2022-10-28T14:06:17Z</time>
      </trkpt>
      <trkpt lat="44.36785" lon="5.74355">
        <ele>623</ele>
        <time>2022-10-28T14:06:18Z</time>
      </trkpt>
      <trkpt lat="44.36781" lon="5.74362">
        <ele>622.9</ele>
        <time>2022-10-28T14:06:19Z</time>
      </trkpt>
      <trkpt lat="44.36778" lon="5.74369">
        <ele>622.9</ele>
        <time>2022-10-28T14:06:20Z</time>
      </trkpt>
      <trkpt lat="44.36774" lon="5.74376">
        <ele>622.8</ele>
        <time>2022-10-28T14:06:21Z</time>
      </trkpt>
      <trkpt lat="44.36771" lon="5.74382">
        <ele>622.8</ele>
        <time>2022-10-28T14:06:22Z</time>
      </trkpt>
      <trkpt lat="44.36767" lon="5.74388">
        <ele>622.7</ele>
        <time>2022-10-28T14:06:23Z</time>
      </trkpt>
      <trkpt lat="44.36763" lon="5.74394">
        <ele>622.7</ele>
        <time>2022-10-28T14:06:24Z</time>
      </trkpt>
      <trkpt lat="44.36758" lon="5.74399">
        <ele>622.6</ele>
        <time>2022-10-28T14:06:25Z</time>
      </trkpt>
      <trkpt lat="44.36753" lon="5.74404">
        <ele>622.6</ele>
        <time>2022-10-28T14:06:26Z</time>
      </trkpt>
      <trkpt lat="44.36748" lon="5.74408">
        <ele>622.6</ele>
        <time>2022-10-28T14:06:27Z</time>
      </trkpt>
      <trkpt lat="44.36743" lon="5.74411">
        <ele>622.5</ele>
        <time>2022-10-28T14:06:28Z</time>
      </trkpt>
      <trkpt lat="44.36738" lon="5.74414">
        <ele>622.5</ele>
        <time>2022-10-28T14:06:29Z</time>
      </trkpt>
      <trkpt lat="44.36733" lon="5.74416">
        <ele>622.5</ele>
        <time>2022-10-28T14:06:30Z</time>
      </trkpt>
      <trkpt lat="44.36727" lon="5.74419">
        <ele>622.5</ele>
        <time>2022-10-28T14:06:31Z</time>
      </trkpt>
      <trkpt lat="44.36722" lon="5.74421">
        <ele>622.4</ele>
        <time>2022-10-28T14:06:32Z</time>
      </trkpt>
      <trkpt lat="44.36717" lon="5.74424">
        <ele>622.4</ele>
        <time>2022-10-28T14:06:33Z</time>
      </trkpt>
      <trkpt lat="44.36712" lon="5.74427">
        <ele>622.4</ele>
        <time>2022-10-28T14:06:34Z</time>
      </trkpt>
      <trkpt lat="44.36707" lon="5.74429">
        <ele>622.4</ele>
        <time>2022-10-28T14:06:35Z</time>
      </trkpt>
      <trkpt lat="44.36702" lon="5.74432">
        <ele>622.4</ele>
        <time>2022-10-28T14:06:36Z</time>
      </trkpt>
      <trkpt lat="44.36697" lon="5.74435">
        <ele>622.4</ele>
        <time>2022-10-28T14:06:37Z</time>
      </trkpt>
      <trkpt lat="44.36692" lon="5.74438">
        <ele>622.4</ele>
        <time>2022-10-28T14:06:38Z</time>
      </trkpt>
      <trkpt lat="44.36688" lon="5.74441">
        <ele>622.4</ele>
        <time>2022-10-28T14:06:39Z</time>
      </trkpt>
      <trkpt lat="44.36683" lon="5.74444">
        <ele>622.4</ele>
        <time>2022-10-28T14:06:40Z</time>
      </trkpt>
      <trkpt lat="44.36678" lon="5.74447">
        <ele>622.4</ele>
        <time>2022-10-28T14:06:41Z</time>
      </trkpt>
      <trkpt lat="44.36673" lon="5.74451">
        <ele>622.5</ele>
        <time>2022-10-28T14:06:42Z</time>
      </trkpt>
      <trkpt lat="44.36668" lon="5.74454">
        <ele>622.5</ele>
        <time>2022-10-28T14:06:43Z</time>
      </trkpt>
      <trkpt lat="44.36663" lon="5.74457">
        <ele>622.6</ele>
        <time>2022-10-28T14:06:44Z</time>
      </trkpt>
      <trkpt lat="44.36658" lon="5.74461">
        <ele>622.6</ele>
        <time>2022-10-28T14:06:45Z</time>
      </trkpt>
      <trkpt lat="44.36654" lon="5.74465">
        <ele>622.6</ele>
        <time>2022-10-28T14:06:46Z</time>
      </trkpt>
      <trkpt lat="44.36649" lon="5.74469">
        <ele>622.5</ele>
        <time>2022-10-28T14:06:47Z</time>
      </trkpt>
      <trkpt lat="44.36645" lon="5.74474">
        <ele>622.5</ele>
        <time>2022-10-28T14:06:48Z</time>
      </trkpt>
      <trkpt lat="44.3664" lon="5.74478">
        <ele>622.5</ele>
        <time>2022-10-28T14:06:49Z</time>
      </trkpt>
      <trkpt lat="44.36636" lon="5.74482">
        <ele>622.4</ele>
        <time>2022-10-28T14:06:50Z</time>
      </trkpt>
      <trkpt lat="44.36631" lon="5.74487">
        <ele>622.4</ele>
        <time>2022-10-28T14:06:51Z</time>
      </trkpt>
      <trkpt lat="44.36627" lon="5.74492">
        <ele>622.4</ele>
        <time>2022-10-28T14:06:52Z</time>
      </trkpt>
      <trkpt lat="44.36623" lon="5.74497">
        <ele>622.3</ele>
        <time>2022-10-28T14:06:53Z</time>
      </trkpt>
      <trkpt lat="44.36619" lon="5.74502">
        <ele>622.3</ele>
        <time>2022-10-28T14:06:54Z</time>
      </trkpt>
      <trkpt lat="44.36614" lon="5.74507">
        <ele>622.3</ele>
        <time>2022-10-28T14:06:55Z</time>
      </trkpt>
      <trkpt lat="44.3661" lon="5.74512">
        <ele>622.3</ele>
        <time>2022-10-28T14:06:56Z</time>
      </trkpt>
      <trkpt lat="44.36605" lon="5.74516">
        <ele>622.2</ele>
        <time>2022-10-28T14:06:57Z</time>
      </trkpt>
      <trkpt lat="44.36601" lon="5.74521">
        <ele>622.2</ele>
        <time>2022-10-28T14:06:58Z</time>
      </trkpt>
      <trkpt lat="44.36597" lon="5.74526">
        <ele>622.2</ele>
        <time>2022-10-28T14:06:59Z</time>
      </trkpt>
      <trkpt lat="44.36592" lon="5.74531">
        <ele>622.2</ele>
        <time>2022-10-28T14:07:00Z</time>
      </trkpt>
      <trkpt lat="44.36588" lon="5.74535">
        <ele>622.2</ele>
        <time>2022-10-28T14:07:01Z</time>
      </trkpt>
      <trkpt lat="44.36583" lon="5.74539">
        <ele>622.2</ele>
        <time>2022-10-28T14:07:02Z</time>
      </trkpt>
      <trkpt lat="44.36579" lon="5.74544">
        <ele>622.2</ele>
        <time>2022-10-28T14:07:03Z</time>
      </trkpt>
      <trkpt lat="44.36575" lon="5.74549">
        <ele>622.2</ele>
        <time>2022-10-28T14:07:04Z</time>
      </trkpt>
      <trkpt lat="44.3657" lon="5.74554">
        <ele>622.1</ele>
        <time>2022-10-28T14:07:05Z</time>
      </trkpt>
      <trkpt lat="44.36566" lon="5.74559">
        <ele>622.1</ele>
        <time>2022-10-28T14:07:06Z</time>
      </trkpt>
      <trkpt lat="44.36561" lon="5.74564">
        <ele>622.1</ele>
        <time>2022-10-28T14:07:07Z</time>
      </trkpt>
      <trkpt lat="44.36557" lon="5.74568">
        <ele>622.1</ele>
        <time>2022-10-28T14:07:08Z</time>
      </trkpt>
      <trkpt lat="44.36553" lon="5.74573">
        <ele>622</ele>
        <time>2022-10-28T14:07:09Z</time>
      </trkpt>
      <trkpt lat="44.36549" lon="5.74577">
        <ele>622</ele>
        <time>2022-10-28T14:07:10Z</time>
      </trkpt>
      <trkpt lat="44.36544" lon="5.74582">
        <ele>622</ele>
        <time>2022-10-28T14:07:11Z</time>
      </trkpt>
      <trkpt lat="44.3654" lon="5.74586">
        <ele>621.9</ele>
        <time>2022-10-28T14:07:12Z</time>
      </trkpt>
      <trkpt lat="44.36536" lon="5.74591">
        <ele>621.9</ele>
        <time>2022-10-28T14:07:13Z</time>
      </trkpt>
      <trkpt lat="44.36531" lon="5.74595">
        <ele>621.8</ele>
        <time>2022-10-28T14:07:14Z</time>
      </trkpt>
      <trkpt lat="44.36526" lon="5.74599">
        <ele>621.7</ele>
        <time>2022-10-28T14:07:15Z</time>
      </trkpt>
      <trkpt lat="44.36521" lon="5.74603">
        <ele>621.6</ele>
        <time>2022-10-28T14:07:16Z</time>
      </trkpt>
      <trkpt lat="44.36516" lon="5.74607">
        <ele>621.5</ele>
        <time>2022-10-28T14:07:17Z</time>
      </trkpt>
      <trkpt lat="44.36512" lon="5.74612">
        <ele>621.4</ele>
        <time>2022-10-28T14:07:18Z</time>
      </trkpt>
      <trkpt lat="44.36507" lon="5.74616">
        <ele>621.3</ele>
        <time>2022-10-28T14:07:19Z</time>
      </trkpt>
      <trkpt lat="44.36502" lon="5.7462">
        <ele>621.2</ele>
        <time>2022-10-28T14:07:20Z</time>
      </trkpt>
      <trkpt lat="44.36497" lon="5.74625">
        <ele>621.2</ele>
        <time>2022-10-28T14:07:21Z</time>
      </trkpt>
      <trkpt lat="44.36492" lon="5.74629">
        <ele>621.1</ele>
        <time>2022-10-28T14:07:22Z</time>
      </trkpt>
      <trkpt lat="44.36487" lon="5.74633">
        <ele>621</ele>
        <time>2022-10-28T14:07:23Z</time>
      </trkpt>
      <trkpt lat="44.36481" lon="5.74637">
        <ele>620.9</ele>
        <time>2022-10-28T14:07:24Z</time>
      </trkpt>
      <trkpt lat="44.36475" lon="5.74641">
        <ele>620.8</ele>
        <time>2022-10-28T14:07:25Z</time>
      </trkpt>
      <trkpt lat="44.3647" lon="5.74644">
        <ele>620.7</ele>
        <time>2022-10-28T14:07:26Z</time>
      </trkpt>
      <trkpt lat="44.36465" lon="5.74648">
        <ele>620.6</ele>
        <time>2022-10-28T14:07:27Z</time>
      </trkpt>
      <trkpt lat="44.36459" lon="5.74651">
        <ele>620.5</ele>
        <time>2022-10-28T14:07:28Z</time>
      </trkpt>
      <trkpt lat="44.36453" lon="5.74655">
        <ele>620.5</ele>
        <time>2022-10-28T14:07:29Z</time>
      </trkpt>
      <trkpt lat="44.36447" lon="5.74658">
        <ele>620.4</ele>
        <time>2022-10-28T14:07:30Z</time>
      </trkpt>
      <trkpt lat="44.36442" lon="5.74662">
        <ele>620.3</ele>
        <time>2022-10-28T14:07:31Z</time>
      </trkpt>
      <trkpt lat="44.36437" lon="5.74666">
        <ele>620.3</ele>
        <time>2022-10-28T14:07:32Z</time>
      </trkpt>
      <trkpt lat="44.36431" lon="5.7467">
        <ele>620.2</ele>
        <time>2022-10-28T14:07:33Z</time>
      </trkpt>
      <trkpt lat="44.36426" lon="5.74674">
        <ele>620.1</ele>
        <time>2022-10-28T14:07:34Z</time>
      </trkpt>
      <trkpt lat="44.36421" lon="5.74678">
        <ele>620.1</ele>
        <time>2022-10-28T14:07:35Z</time>
      </trkpt>
      <trkpt lat="44.36415" lon="5.74681">
        <ele>620</ele>
        <time>2022-10-28T14:07:36Z</time>
      </trkpt>
      <trkpt lat="44.3641" lon="5.74684">
        <ele>620</ele>
        <time>2022-10-28T14:07:37Z</time>
      </trkpt>
      <trkpt lat="44.36405" lon="5.74688">
        <ele>620</ele>
        <time>2022-10-28T14:07:38Z</time>
      </trkpt>
      <trkpt lat="44.364" lon="5.74692">
        <ele>619.9</ele>
        <time>2022-10-28T14:07:39Z</time>
      </trkpt>
      <trkpt lat="44.36395" lon="5.74695">
        <ele>619.9</ele>
        <time>2022-10-28T14:07:40Z</time>
      </trkpt>
      <trkpt lat="44.36389" lon="5.74698">
        <ele>619.9</ele>
        <time>2022-10-28T14:07:41Z</time>
      </trkpt>
      <trkpt lat="44.36384" lon="5.74702">
        <ele>619.8</ele>
        <time>2022-10-28T14:07:42Z</time>
      </trkpt>
      <trkpt lat="44.36379" lon="5.74706">
        <ele>619.8</ele>
        <time>2022-10-28T14:07:43Z</time>
      </trkpt>
      <trkpt lat="44.36374" lon="5.74709">
        <ele>619.8</ele>
        <time>2022-10-28T14:07:44Z</time>
      </trkpt>
      <trkpt lat="44.36369" lon="5.74712">
        <ele>619.8</ele>
        <time>2022-10-28T14:07:45Z</time>
      </trkpt>
      <trkpt lat="44.36364" lon="5.74716">
        <ele>619.8</ele>
        <time>2022-10-28T14:07:46Z</time>
      </trkpt>
      <trkpt lat="44.36359" lon="5.74719">
        <ele>619.8</ele>
        <time>2022-10-28T14:07:47Z</time>
      </trkpt>
      <trkpt lat="44.36354" lon="5.74722">
        <ele>619.8</ele>
        <time>2022-10-28T14:07:48Z</time>
      </trkpt>
      <trkpt lat="44.36349" lon="5.74726">
        <ele>619.9</ele>
        <time>2022-10-28T14:07:49Z</time>
      </trkpt>
      <trkpt lat="44.36344" lon="5.7473">
        <ele>619.9</ele>
        <time>2022-10-28T14:07:50Z</time>
      </trkpt>
      <trkpt lat="44.3634" lon="5.74734">
        <ele>619.9</ele>
        <time>2022-10-28T14:07:51Z</time>
      </trkpt>
      <trkpt lat="44.36336" lon="5.74738">
        <ele>619.9</ele>
        <time>2022-10-28T14:07:52Z</time>
      </trkpt>
      <trkpt lat="44.36332" lon="5.74742">
        <ele>619.9</ele>
        <time>2022-10-28T14:07:53Z</time>
      </trkpt>
      <trkpt lat="44.36328" lon="5.74746">
        <ele>619.9</ele>
        <time>2022-10-28T14:07:54Z</time>
      </trkpt>
      <trkpt lat="44.36324" lon="5.7475">
        <ele>619.9</ele>
        <time>2022-10-28T14:07:55Z</time>
      </trkpt>
      <trkpt lat="44.3632" lon="5.74755">
        <ele>619.8</ele>
        <time>2022-10-28T14:07:56Z</time>
      </trkpt>
      <trkpt lat="44.36315" lon="5.7476">
        <ele>619.8</ele>
        <time>2022-10-28T14:07:57Z</time>
      </trkpt>
      <trkpt lat="44.36311" lon="5.74765">
        <ele>619.7</ele>
        <time>2022-10-28T14:07:58Z</time>
      </trkpt>
      <trkpt lat="44.36307" lon="5.74769">
        <ele>619.7</ele>
        <time>2022-10-28T14:07:59Z</time>
      </trkpt>
      <trkpt lat="44.36302" lon="5.74774">
        <ele>619.6</ele>
        <time>2022-10-28T14:08:00Z</time>
      </trkpt>
      <trkpt lat="44.36298" lon="5.74779">
        <ele>619.6</ele>
        <time>2022-10-28T14:08:01Z</time>
      </trkpt>
      <trkpt lat="44.36294" lon="5.74784">
        <ele>619.5</ele>
        <time>2022-10-28T14:08:02Z</time>
      </trkpt>
      <trkpt lat="44.3629" lon="5.74789">
        <ele>619.5</ele>
        <time>2022-10-28T14:08:03Z</time>
      </trkpt>
      <trkpt lat="44.36285" lon="5.74794">
        <ele>619.4</ele>
        <time>2022-10-28T14:08:04Z</time>
      </trkpt>
      <trkpt lat="44.36281" lon="5.74799">
        <ele>619.4</ele>
        <time>2022-10-28T14:08:05Z</time>
      </trkpt>
      <trkpt lat="44.36276" lon="5.74804">
        <ele>619.3</ele>
        <time>2022-10-28T14:08:06Z</time>
      </trkpt>
      <trkpt lat="44.36271" lon="5.74808">
        <ele>619.2</ele>
        <time>2022-10-28T14:08:07Z</time>
      </trkpt>
      <trkpt lat="44.36267" lon="5.74814">
        <ele>619.2</ele>
        <time>2022-10-28T14:08:08Z</time>
      </trkpt>
      <trkpt lat="44.36262" lon="5.74819">
        <ele>619.1</ele>
        <time>2022-10-28T14:08:09Z</time>
      </trkpt>
      <trkpt lat="44.36257" lon="5.74824">
        <ele>619</ele>
        <time>2022-10-28T14:08:10Z</time>
      </trkpt>
      <trkpt lat="44.36252" lon="5.74829">
        <ele>618.9</ele>
        <time>2022-10-28T14:08:11Z</time>
      </trkpt>
      <trkpt lat="44.36247" lon="5.74835">
        <ele>618.9</ele>
        <time>2022-10-28T14:08:12Z</time>
      </trkpt>
      <trkpt lat="44.36242" lon="5.74839">
        <ele>618.8</ele>
        <time>2022-10-28T14:08:13Z</time>
      </trkpt>
      <trkpt lat="44.36237" lon="5.74844">
        <ele>618.7</ele>
        <time>2022-10-28T14:08:14Z</time>
      </trkpt>
      <trkpt lat="44.36232" lon="5.74848">
        <ele>618.6</ele>
        <time>2022-10-28T14:08:15Z</time>
      </trkpt>
      <trkpt lat="44.36226" lon="5.74853">
        <ele>618.6</ele>
        <time>2022-10-28T14:08:16Z</time>
      </trkpt>
      <trkpt lat="44.36221" lon="5.74859">
        <ele>618.6</ele>
        <time>2022-10-28T14:08:17Z</time>
      </trkpt>
      <trkpt lat="44.36216" lon="5.74864">
        <ele>618.6</ele>
        <time>2022-10-28T14:08:18Z</time>
      </trkpt>
      <trkpt lat="44.36211" lon="5.74869">
        <ele>618.6</ele>
        <time>2022-10-28T14:08:19Z</time>
      </trkpt>
      <trkpt lat="44.36207" lon="5.74874">
        <ele>618.7</ele>
        <time>2022-10-28T14:08:20Z</time>
      </trkpt>
      <trkpt lat="44.36202" lon="5.74878">
        <ele>618.7</ele>
        <time>2022-10-28T14:08:21Z</time>
      </trkpt>
      <trkpt lat="44.36197" lon="5.74882">
        <ele>618.7</ele>
        <time>2022-10-28T14:08:22Z</time>
      </trkpt>
      <trkpt lat="44.36193" lon="5.74887">
        <ele>618.7</ele>
        <time>2022-10-28T14:08:23Z</time>
      </trkpt>
      <trkpt lat="44.36188" lon="5.74891">
        <ele>618.7</ele>
        <time>2022-10-28T14:08:24Z</time>
      </trkpt>
      <trkpt lat="44.36183" lon="5.74895">
        <ele>618.7</ele>
        <time>2022-10-28T14:08:25Z</time>
      </trkpt>
      <trkpt lat="44.36179" lon="5.749">
        <ele>618.7</ele>
        <time>2022-10-28T14:08:26Z</time>
      </trkpt>
      <trkpt lat="44.36174" lon="5.74904">
        <ele>618.7</ele>
        <time>2022-10-28T14:08:27Z</time>
      </trkpt>
      <trkpt lat="44.3617" lon="5.74907">
        <ele>618.7</ele>
        <time>2022-10-28T14:08:28Z</time>
      </trkpt>
      <trkpt lat="44.36165" lon="5.74911">
        <ele>618.6</ele>
        <time>2022-10-28T14:08:29Z</time>
      </trkpt>
      <trkpt lat="44.3616" lon="5.74916">
        <ele>618.6</ele>
        <time>2022-10-28T14:08:30Z</time>
      </trkpt>
      <trkpt lat="44.36155" lon="5.7492">
        <ele>618.6</ele>
        <time>2022-10-28T14:08:31Z</time>
      </trkpt>
      <trkpt lat="44.3615" lon="5.74923">
        <ele>618.6</ele>
        <time>2022-10-28T14:08:32Z</time>
      </trkpt>
      <trkpt lat="44.36146" lon="5.74927">
        <ele>618.6</ele>
        <time>2022-10-28T14:08:33Z</time>
      </trkpt>
      <trkpt lat="44.36141" lon="5.74931">
        <ele>618.6</ele>
        <time>2022-10-28T14:08:34Z</time>
      </trkpt>
      <trkpt lat="44.36136" lon="5.74935">
        <ele>618.6</ele>
        <time>2022-10-28T14:08:35Z</time>
      </trkpt>
      <trkpt lat="44.36131" lon="5.74939">
        <ele>618.6</ele>
        <time>2022-10-28T14:08:36Z</time>
      </trkpt>
      <trkpt lat="44.36126" lon="5.74943">
        <ele>618.6</ele>
        <time>2022-10-28T14:08:37Z</time>
      </trkpt>
      <trkpt lat="44.36122" lon="5.74947">
        <ele>618.6</ele>
        <time>2022-10-28T14:08:38Z</time>
      </trkpt>
      <trkpt lat="44.36117" lon="5.74951">
        <ele>618.6</ele>
        <time>2022-10-28T14:08:39Z</time>
      </trkpt>
      <trkpt lat="44.36112" lon="5.74955">
        <ele>618.5</ele>
        <time>2022-10-28T14:08:40Z</time>
      </trkpt>
      <trkpt lat="44.36107" lon="5.74959">
        <ele>618.5</ele>
        <time>2022-10-28T14:08:41Z</time>
      </trkpt>
      <trkpt lat="44.36102" lon="5.74963">
        <ele>618.5</ele>
        <time>2022-10-28T14:08:42Z</time>
      </trkpt>
      <trkpt lat="44.36098" lon="5.74967">
        <ele>618.5</ele>
        <time>2022-10-28T14:08:43Z</time>
      </trkpt>
      <trkpt lat="44.36093" lon="5.74971">
        <ele>618.5</ele>
        <time>2022-10-28T14:08:44Z</time>
      </trkpt>
      <trkpt lat="44.36088" lon="5.74974">
        <ele>618.5</ele>
        <time>2022-10-28T14:08:45Z</time>
      </trkpt>
      <trkpt lat="44.36083" lon="5.74978">
        <ele>618.4</ele>
        <time>2022-10-28T14:08:46Z</time>
      </trkpt>
      <trkpt lat="44.36078" lon="5.74982">
        <ele>618.4</ele>
        <time>2022-10-28T14:08:47Z</time>
      </trkpt>
      <trkpt lat="44.36073" lon="5.74986">
        <ele>618.3</ele>
        <time>2022-10-28T14:08:48Z</time>
      </trkpt>
      <trkpt lat="44.36068" lon="5.7499">
        <ele>618.3</ele>
        <time>2022-10-28T14:08:49Z</time>
      </trkpt>
      <trkpt lat="44.36063" lon="5.74993">
        <ele>618.2</ele>
        <time>2022-10-28T14:08:50Z</time>
      </trkpt>
      <trkpt lat="44.36058" lon="5.74997">
        <ele>618.2</ele>
        <time>2022-10-28T14:08:51Z</time>
      </trkpt>
      <trkpt lat="44.36052" lon="5.75">
        <ele>618.1</ele>
        <time>2022-10-28T14:08:52Z</time>
      </trkpt>
      <trkpt lat="44.36047" lon="5.75004">
        <ele>618</ele>
        <time>2022-10-28T14:08:53Z</time>
      </trkpt>
      <trkpt lat="44.36041" lon="5.75007">
        <ele>618</ele>
        <time>2022-10-28T14:08:54Z</time>
      </trkpt>
      <trkpt lat="44.36036" lon="5.7501">
        <ele>617.9</ele>
        <time>2022-10-28T14:08:55Z</time>
      </trkpt>
      <trkpt lat="44.36031" lon="5.75013">
        <ele>617.8</ele>
        <time>2022-10-28T14:08:56Z</time>
      </trkpt>
      <trkpt lat="44.36026" lon="5.75017">
        <ele>617.8</ele>
        <time>2022-10-28T14:08:57Z</time>
      </trkpt>
      <trkpt lat="44.36021" lon="5.75021">
        <ele>617.7</ele>
        <time>2022-10-28T14:08:58Z</time>
      </trkpt>
      <trkpt lat="44.36015" lon="5.75025">
        <ele>617.6</ele>
        <time>2022-10-28T14:08:59Z</time>
      </trkpt>
      <trkpt lat="44.3601" lon="5.75028">
        <ele>617.5</ele>
        <time>2022-10-28T14:09:00Z</time>
      </trkpt>
      <trkpt lat="44.36004" lon="5.75032">
        <ele>617.4</ele>
        <time>2022-10-28T14:09:01Z</time>
      </trkpt>
      <trkpt lat="44.35998" lon="5.75036">
        <ele>617.3</ele>
        <time>2022-10-28T14:09:02Z</time>
      </trkpt>
      <trkpt lat="44.35993" lon="5.7504">
        <ele>617.2</ele>
        <time>2022-10-28T14:09:03Z</time>
      </trkpt>
      <trkpt lat="44.35987" lon="5.75044">
        <ele>617.2</ele>
        <time>2022-10-28T14:09:04Z</time>
      </trkpt>
      <trkpt lat="44.35982" lon="5.75048">
        <ele>617.1</ele>
        <time>2022-10-28T14:09:05Z</time>
      </trkpt>
      <trkpt lat="44.35976" lon="5.75052">
        <ele>617.1</ele>
        <time>2022-10-28T14:09:06Z</time>
      </trkpt>
      <trkpt lat="44.35971" lon="5.75055">
        <ele>617.1</ele>
        <time>2022-10-28T14:09:07Z</time>
      </trkpt>
      <trkpt lat="44.35965" lon="5.75059">
        <ele>617.1</ele>
        <time>2022-10-28T14:09:08Z</time>
      </trkpt>
      <trkpt lat="44.35959" lon="5.75063">
        <ele>617.1</ele>
        <time>2022-10-28T14:09:09Z</time>
      </trkpt>
      <trkpt lat="44.35954" lon="5.75067">
        <ele>617.1</ele>
        <time>2022-10-28T14:09:10Z</time>
      </trkpt>
      <trkpt lat="44.35949" lon="5.75071">
        <ele>617.1</ele>
        <time>2022-10-28T14:09:11Z</time>
      </trkpt>
      <trkpt lat="44.35944" lon="5.75075">
        <ele>617.1</ele>
        <time>2022-10-28T14:09:12Z</time>
      </trkpt>
      <trkpt lat="44.3594" lon="5.75079">
        <ele>617.1</ele>
        <time>2022-10-28T14:09:13Z</time>
      </trkpt>
      <trkpt lat="44.35935" lon="5.75083">
        <ele>617.1</ele>
        <time>2022-10-28T14:09:14Z</time>
      </trkpt>
      <trkpt lat="44.35931" lon="5.75088">
        <ele>617.1</ele>
        <time>2022-10-28T14:09:15Z</time>
      </trkpt>
      <trkpt lat="44.35927" lon="5.75093">
        <ele>617.1</ele>
        <time>2022-10-28T14:09:16Z</time>
      </trkpt>
      <trkpt lat="44.35922" lon="5.75097">
        <ele>617.1</ele>
        <time>2022-10-28T14:09:17Z</time>
      </trkpt>
      <trkpt lat="44.35917" lon="5.75101">
        <ele>617.1</ele>
        <time>2022-10-28T14:09:18Z</time>
      </trkpt>
      <trkpt lat="44.35913" lon="5.75105">
        <ele>617</ele>
        <time>2022-10-28T14:09:19Z</time>
      </trkpt>
      <trkpt lat="44.35908" lon="5.7511">
        <ele>616.9</ele>
        <time>2022-10-28T14:09:20Z</time>
      </trkpt>
      <trkpt lat="44.35904" lon="5.75115">
        <ele>616.8</ele>
        <time>2022-10-28T14:09:21Z</time>
      </trkpt>
      <trkpt lat="44.35899" lon="5.7512">
        <ele>616.8</ele>
        <time>2022-10-28T14:09:22Z</time>
      </trkpt>
      <trkpt lat="44.35894" lon="5.75125">
        <ele>616.7</ele>
        <time>2022-10-28T14:09:23Z</time>
      </trkpt>
      <trkpt lat="44.35889" lon="5.75129">
        <ele>616.7</ele>
        <time>2022-10-28T14:09:24Z</time>
      </trkpt>
      <trkpt lat="44.35884" lon="5.75133">
        <ele>616.7</ele>
        <time>2022-10-28T14:09:25Z</time>
      </trkpt>
      <trkpt lat="44.35878" lon="5.75136">
        <ele>616.7</ele>
        <time>2022-10-28T14:09:26Z</time>
      </trkpt>
      <trkpt lat="44.35873" lon="5.7514">
        <ele>616.6</ele>
        <time>2022-10-28T14:09:27Z</time>
      </trkpt>
      <trkpt lat="44.35868" lon="5.75144">
        <ele>616.6</ele>
        <time>2022-10-28T14:09:28Z</time>
      </trkpt>
      <trkpt lat="44.35863" lon="5.75147">
        <ele>616.6</ele>
        <time>2022-10-28T14:09:29Z</time>
      </trkpt>
      <trkpt lat="44.35858" lon="5.75151">
        <ele>616.6</ele>
        <time>2022-10-28T14:09:30Z</time>
      </trkpt>
      <trkpt lat="44.35853" lon="5.75155">
        <ele>616.6</ele>
        <time>2022-10-28T14:09:31Z</time>
      </trkpt>
      <trkpt lat="44.35847" lon="5.75159">
        <ele>616.5</ele>
        <time>2022-10-28T14:09:32Z</time>
      </trkpt>
      <trkpt lat="44.35842" lon="5.75162">
        <ele>616.5</ele>
        <time>2022-10-28T14:09:33Z</time>
      </trkpt>
      <trkpt lat="44.35837" lon="5.75165">
        <ele>616.5</ele>
        <time>2022-10-28T14:09:34Z</time>
      </trkpt>
      <trkpt lat="44.35832" lon="5.75168">
        <ele>616.5</ele>
        <time>2022-10-28T14:09:35Z</time>
      </trkpt>
      <trkpt lat="44.35827" lon="5.75172">
        <ele>616.6</ele>
        <time>2022-10-28T14:09:36Z</time>
      </trkpt>
      <trkpt lat="44.35821" lon="5.75174">
        <ele>616.6</ele>
        <time>2022-10-28T14:09:37Z</time>
      </trkpt>
      <trkpt lat="44.35816" lon="5.75176">
        <ele>616.6</ele>
        <time>2022-10-28T14:09:38Z</time>
      </trkpt>
      <trkpt lat="44.35811" lon="5.75178">
        <ele>616.6</ele>
        <time>2022-10-28T14:09:39Z</time>
      </trkpt>
      <trkpt lat="44.35805" lon="5.75179">
        <ele>616.5</ele>
        <time>2022-10-28T14:09:40Z</time>
      </trkpt>
      <trkpt lat="44.358" lon="5.7518">
        <ele>616.5</ele>
        <time>2022-10-28T14:09:41Z</time>
      </trkpt>
      <trkpt lat="44.35795" lon="5.7518">
        <ele>616.4</ele>
        <time>2022-10-28T14:09:42Z</time>
      </trkpt>
      <trkpt lat="44.3579" lon="5.75181">
        <ele>616.3</ele>
        <time>2022-10-28T14:09:43Z</time>
      </trkpt>
      <trkpt lat="44.35785" lon="5.75182">
        <ele>616.1</ele>
        <time>2022-10-28T14:09:44Z</time>
      </trkpt>
      <trkpt lat="44.3578" lon="5.75183">
        <ele>615.9</ele>
        <time>2022-10-28T14:09:45Z</time>
      </trkpt>
      <trkpt lat="44.35774" lon="5.75184">
        <ele>615.8</ele>
        <time>2022-10-28T14:09:46Z</time>
      </trkpt>
      <trkpt lat="44.35768" lon="5.75186">
        <ele>615.6</ele>
        <time>2022-10-28T14:09:47Z</time>
      </trkpt>
      <trkpt lat="44.35761" lon="5.75188">
        <ele>615.5</ele>
        <time>2022-10-28T14:09:48Z</time>
      </trkpt>
      <trkpt lat="44.35755" lon="5.75191">
        <ele>615.4</ele>
        <time>2022-10-28T14:09:49Z</time>
      </trkpt>
      <trkpt lat="44.35748" lon="5.75193">
        <ele>615.4</ele>
        <time>2022-10-28T14:09:50Z</time>
      </trkpt>
      <trkpt lat="44.35743" lon="5.75197">
        <ele>615.5</ele>
        <time>2022-10-28T14:09:51Z</time>
      </trkpt>
      <trkpt lat="44.35738" lon="5.75202">
        <ele>615.6</ele>
        <time>2022-10-28T14:09:52Z</time>
      </trkpt>
      <trkpt lat="44.35732" lon="5.75206">
        <ele>615.7</ele>
        <time>2022-10-28T14:09:53Z</time>
      </trkpt>
      <trkpt lat="44.35728" lon="5.75212">
        <ele>615.9</ele>
        <time>2022-10-28T14:09:54Z</time>
      </trkpt>
      <trkpt lat="44.35724" lon="5.75217">
        <ele>616.1</ele>
        <time>2022-10-28T14:09:55Z</time>
      </trkpt>
      <trkpt lat="44.3572" lon="5.75221">
        <ele>616.2</ele>
        <time>2022-10-28T14:09:56Z</time>
      </trkpt>
      <trkpt lat="44.35716" lon="5.75224">
        <ele>616.3</ele>
        <time>2022-10-28T14:09:57Z</time>
      </trkpt>
      <trkpt lat="44.35713" lon="5.75226">
        <ele>616.3</ele>
        <time>2022-10-28T14:09:58Z</time>
      </trkpt>
      <trkpt lat="44.3571" lon="5.75231">
        <ele>616.4</ele>
        <time>2022-10-28T14:09:59Z</time>
      </trkpt>
      <trkpt lat="44.35707" lon="5.75234">
        <ele>616.4</ele>
        <time>2022-10-28T14:10:00Z</time>
      </trkpt>
      <trkpt lat="44.35702" lon="5.75238">
        <ele>616.3</ele>
        <time>2022-10-28T14:10:01Z</time>
      </trkpt>
      <trkpt lat="44.35698" lon="5.75243">
        <ele>616.2</ele>
        <time>2022-10-28T14:10:02Z</time>
      </trkpt>
      <trkpt lat="44.35694" lon="5.75247">
        <ele>616.1</ele>
        <time>2022-10-28T14:10:03Z</time>
      </trkpt>
      <trkpt lat="44.3569" lon="5.75251">
        <ele>616</ele>
        <time>2022-10-28T14:10:04Z</time>
      </trkpt>
      <trkpt lat="44.35686" lon="5.75255">
        <ele>615.9</ele>
        <time>2022-10-28T14:10:05Z</time>
      </trkpt>
      <trkpt lat="44.35681" lon="5.7526">
        <ele>615.7</ele>
        <time>2022-10-28T14:10:06Z</time>
      </trkpt>
      <trkpt lat="44.35677" lon="5.75265">
        <ele>615.6</ele>
        <time>2022-10-28T14:10:07Z</time>
      </trkpt>
      <trkpt lat="44.35672" lon="5.7527">
        <ele>615.4</ele>
        <time>2022-10-28T14:10:08Z</time>
      </trkpt>
      <trkpt lat="44.35667" lon="5.75276">
        <ele>615.3</ele>
        <time>2022-10-28T14:10:09Z</time>
      </trkpt>
      <trkpt lat="44.35663" lon="5.75281">
        <ele>615.2</ele>
        <time>2022-10-28T14:10:10Z</time>
      </trkpt>
      <trkpt lat="44.35658" lon="5.75286">
        <ele>615.1</ele>
        <time>2022-10-28T14:10:11Z</time>
      </trkpt>
      <trkpt lat="44.35653" lon="5.75291">
        <ele>615</ele>
        <time>2022-10-28T14:10:12Z</time>
      </trkpt>
      <trkpt lat="44.35648" lon="5.75296">
        <ele>614.9</ele>
        <time>2022-10-28T14:10:13Z</time>
      </trkpt>
      <trkpt lat="44.35644" lon="5.75302">
        <ele>614.8</ele>
        <time>2022-10-28T14:10:14Z</time>
      </trkpt>
      <trkpt lat="44.35639" lon="5.75307">
        <ele>614.6</ele>
        <time>2022-10-28T14:10:15Z</time>
      </trkpt>
      <trkpt lat="44.35634" lon="5.75313">
        <ele>614.5</ele>
        <time>2022-10-28T14:10:16Z</time>
      </trkpt>
      <trkpt lat="44.35629" lon="5.75318">
        <ele>614.4</ele>
        <time>2022-10-28T14:10:17Z</time>
      </trkpt>
      <trkpt lat="44.35624" lon="5.75322">
        <ele>614.3</ele>
        <time>2022-10-28T14:10:18Z</time>
      </trkpt>
      <trkpt lat="44.35619" lon="5.75327">
        <ele>614.1</ele>
        <time>2022-10-28T14:10:19Z</time>
      </trkpt>
      <trkpt lat="44.35613" lon="5.75331">
        <ele>613.9</ele>
        <time>2022-10-28T14:10:20Z</time>
      </trkpt>
      <trkpt lat="44.35607" lon="5.75335">
        <ele>613.8</ele>
        <time>2022-10-28T14:10:21Z</time>
      </trkpt>
      <trkpt lat="44.35601" lon="5.75339">
        <ele>613.5</ele>
        <time>2022-10-28T14:10:22Z</time>
      </trkpt>
      <trkpt lat="44.35594" lon="5.75342">
        <ele>613.3</ele>
        <time>2022-10-28T14:10:23Z</time>
      </trkpt>
      <trkpt lat="44.35588" lon="5.75345">
        <ele>613</ele>
        <time>2022-10-28T14:10:24Z</time>
      </trkpt>
      <trkpt lat="44.35581" lon="5.75348">
        <ele>612.8</ele>
        <time>2022-10-28T14:10:25Z</time>
      </trkpt>
      <trkpt lat="44.35575" lon="5.75349">
        <ele>612.5</ele>
        <time>2022-10-28T14:10:26Z</time>
      </trkpt>
      <trkpt lat="44.35568" lon="5.75352">
        <ele>612.3</ele>
        <time>2022-10-28T14:10:27Z</time>
      </trkpt>
      <trkpt lat="44.35562" lon="5.75357">
        <ele>612</ele>
        <time>2022-10-28T14:10:28Z</time>
      </trkpt>
      <trkpt lat="44.35556" lon="5.75362">
        <ele>611.7</ele>
        <time>2022-10-28T14:10:29Z</time>
      </trkpt>
      <trkpt lat="44.35549" lon="5.75366">
        <ele>611.5</ele>
        <time>2022-10-28T14:10:30Z</time>
      </trkpt>
      <trkpt lat="44.35542" lon="5.75371">
        <ele>611.1</ele>
        <time>2022-10-28T14:10:31Z</time>
      </trkpt>
      <trkpt lat="44.35535" lon="5.75375">
        <ele>610.8</ele>
        <time>2022-10-28T14:10:32Z</time>
      </trkpt>
      <trkpt lat="44.35529" lon="5.75379">
        <ele>610.4</ele>
        <time>2022-10-28T14:10:33Z</time>
      </trkpt>
      <trkpt lat="44.35522" lon="5.75384">
        <ele>609.9</ele>
        <time>2022-10-28T14:10:34Z</time>
      </trkpt>
      <trkpt lat="44.35515" lon="5.75388">
        <ele>609.4</ele>
        <time>2022-10-28T14:10:35Z</time>
      </trkpt>
      <trkpt lat="44.35508" lon="5.75394">
        <ele>608.8</ele>
        <time>2022-10-28T14:10:36Z</time>
      </trkpt>
      <trkpt lat="44.35501" lon="5.754">
        <ele>608.3</ele>
        <time>2022-10-28T14:10:37Z</time>
      </trkpt>
      <trkpt lat="44.35493" lon="5.75405">
        <ele>607.8</ele>
        <time>2022-10-28T14:10:38Z</time>
      </trkpt>
      <trkpt lat="44.35485" lon="5.7541">
        <ele>607.3</ele>
        <time>2022-10-28T14:10:39Z</time>
      </trkpt>
      <trkpt lat="44.35478" lon="5.75415">
        <ele>606.9</ele>
        <time>2022-10-28T14:10:40Z</time>
      </trkpt>
      <trkpt lat="44.35471" lon="5.75421">
        <ele>606.6</ele>
        <time>2022-10-28T14:10:41Z</time>
      </trkpt>
      <trkpt lat="44.35465" lon="5.75428">
        <ele>606.3</ele>
        <time>2022-10-28T14:10:42Z</time>
      </trkpt>
      <trkpt lat="44.35458" lon="5.75435">
        <ele>606</ele>
        <time>2022-10-28T14:10:43Z</time>
      </trkpt>
      <trkpt lat="44.35452" lon="5.75442">
        <ele>605.8</ele>
        <time>2022-10-28T14:10:44Z</time>
      </trkpt>
      <trkpt lat="44.35445" lon="5.75449">
        <ele>605.7</ele>
        <time>2022-10-28T14:10:45Z</time>
      </trkpt>
      <trkpt lat="44.35439" lon="5.75455">
        <ele>605.5</ele>
        <time>2022-10-28T14:10:46Z</time>
      </trkpt>
      <trkpt lat="44.35432" lon="5.7546">
        <ele>605.4</ele>
        <time>2022-10-28T14:10:47Z</time>
      </trkpt>
      <trkpt lat="44.35425" lon="5.75465">
        <ele>605.3</ele>
        <time>2022-10-28T14:10:48Z</time>
      </trkpt>
      <trkpt lat="44.35419" lon="5.7547">
        <ele>605.2</ele>
        <time>2022-10-28T14:10:49Z</time>
      </trkpt>
      <trkpt lat="44.35412" lon="5.75475">
        <ele>605.1</ele>
        <time>2022-10-28T14:10:50Z</time>
      </trkpt>
      <trkpt lat="44.35406" lon="5.7548">
        <ele>605</ele>
        <time>2022-10-28T14:10:51Z</time>
      </trkpt>
      <trkpt lat="44.35399" lon="5.75485">
        <ele>604.9</ele>
        <time>2022-10-28T14:10:52Z</time>
      </trkpt>
      <trkpt lat="44.35393" lon="5.7549">
        <ele>604.8</ele>
        <time>2022-10-28T14:10:53Z</time>
      </trkpt>
      <trkpt lat="44.35386" lon="5.75494">
        <ele>604.7</ele>
        <time>2022-10-28T14:10:54Z</time>
      </trkpt>
      <trkpt lat="44.3538" lon="5.75499">
        <ele>604.6</ele>
        <time>2022-10-28T14:10:55Z</time>
      </trkpt>
      <trkpt lat="44.35373" lon="5.75503">
        <ele>604.6</ele>
        <time>2022-10-28T14:10:56Z</time>
      </trkpt>
      <trkpt lat="44.35367" lon="5.75508">
        <ele>604.5</ele>
        <time>2022-10-28T14:10:57Z</time>
      </trkpt>
      <trkpt lat="44.3536" lon="5.75512">
        <ele>604.5</ele>
        <time>2022-10-28T14:10:58Z</time>
      </trkpt>
      <trkpt lat="44.35354" lon="5.75516">
        <ele>604.5</ele>
        <time>2022-10-28T14:10:59Z</time>
      </trkpt>
      <trkpt lat="44.35347" lon="5.75519">
        <ele>604.5</ele>
        <time>2022-10-28T14:11:00Z</time>
      </trkpt>
      <trkpt lat="44.35341" lon="5.75523">
        <ele>604.5</ele>
        <time>2022-10-28T14:11:01Z</time>
      </trkpt>
      <trkpt lat="44.35335" lon="5.75527">
        <ele>604.4</ele>
        <time>2022-10-28T14:11:02Z</time>
      </trkpt>
      <trkpt lat="44.35328" lon="5.7553">
        <ele>604.4</ele>
        <time>2022-10-28T14:11:03Z</time>
      </trkpt>
      <trkpt lat="44.35322" lon="5.75533">
        <ele>604.4</ele>
        <time>2022-10-28T14:11:04Z</time>
      </trkpt>
      <trkpt lat="44.35315" lon="5.75536">
        <ele>604.4</ele>
        <time>2022-10-28T14:11:05Z</time>
      </trkpt>
      <trkpt lat="44.35309" lon="5.75539">
        <ele>604.3</ele>
        <time>2022-10-28T14:11:06Z</time>
      </trkpt>
      <trkpt lat="44.35303" lon="5.75543">
        <ele>604.3</ele>
        <time>2022-10-28T14:11:07Z</time>
      </trkpt>
      <trkpt lat="44.35297" lon="5.75547">
        <ele>604.2</ele>
        <time>2022-10-28T14:11:08Z</time>
      </trkpt>
      <trkpt lat="44.35291" lon="5.75551">
        <ele>604.2</ele>
        <time>2022-10-28T14:11:09Z</time>
      </trkpt>
      <trkpt lat="44.35285" lon="5.75555">
        <ele>604.1</ele>
        <time>2022-10-28T14:11:10Z</time>
      </trkpt>
      <trkpt lat="44.35279" lon="5.75559">
        <ele>604</ele>
        <time>2022-10-28T14:11:11Z</time>
      </trkpt>
      <trkpt lat="44.35273" lon="5.75563">
        <ele>603.9</ele>
        <time>2022-10-28T14:11:12Z</time>
      </trkpt>
      <trkpt lat="44.35267" lon="5.75567">
        <ele>603.9</ele>
        <time>2022-10-28T14:11:13Z</time>
      </trkpt>
      <trkpt lat="44.35261" lon="5.75571">
        <ele>603.9</ele>
        <time>2022-10-28T14:11:14Z</time>
      </trkpt>
      <trkpt lat="44.35255" lon="5.75575">
        <ele>603.9</ele>
        <time>2022-10-28T14:11:15Z</time>
      </trkpt>
      <trkpt lat="44.35249" lon="5.7558">
        <ele>603.8</ele>
        <time>2022-10-28T14:11:16Z</time>
      </trkpt>
      <trkpt lat="44.35243" lon="5.75584">
        <ele>603.8</ele>
        <time>2022-10-28T14:11:17Z</time>
      </trkpt>
      <trkpt lat="44.35237" lon="5.75588">
        <ele>603.8</ele>
        <time>2022-10-28T14:11:18Z</time>
      </trkpt>
      <trkpt lat="44.3523" lon="5.75592">
        <ele>603.8</ele>
        <time>2022-10-28T14:11:19Z</time>
      </trkpt>
      <trkpt lat="44.35225" lon="5.75597">
        <ele>603.8</ele>
        <time>2022-10-28T14:11:20Z</time>
      </trkpt>
      <trkpt lat="44.35219" lon="5.75601">
        <ele>603.8</ele>
        <time>2022-10-28T14:11:21Z</time>
      </trkpt>
      <trkpt lat="44.35213" lon="5.75605">
        <ele>603.8</ele>
        <time>2022-10-28T14:11:22Z</time>
      </trkpt>
      <trkpt lat="44.35208" lon="5.7561">
        <ele>603.8</ele>
        <time>2022-10-28T14:11:23Z</time>
      </trkpt>
      <trkpt lat="44.35202" lon="5.75614">
        <ele>603.8</ele>
        <time>2022-10-28T14:11:24Z</time>
      </trkpt>
      <trkpt lat="44.35196" lon="5.75619">
        <ele>603.9</ele>
        <time>2022-10-28T14:11:25Z</time>
      </trkpt>
      <trkpt lat="44.35191" lon="5.75623">
        <ele>603.9</ele>
        <time>2022-10-28T14:11:26Z</time>
      </trkpt>
      <trkpt lat="44.35186" lon="5.75628">
        <ele>603.9</ele>
        <time>2022-10-28T14:11:27Z</time>
      </trkpt>
      <trkpt lat="44.3518" lon="5.75633">
        <ele>604</ele>
        <time>2022-10-28T14:11:28Z</time>
      </trkpt>
      <trkpt lat="44.35175" lon="5.75638">
        <ele>604</ele>
        <time>2022-10-28T14:11:29Z</time>
      </trkpt>
      <trkpt lat="44.3517" lon="5.75643">
        <ele>604</ele>
        <time>2022-10-28T14:11:30Z</time>
      </trkpt>
      <trkpt lat="44.35165" lon="5.75648">
        <ele>604.1</ele>
        <time>2022-10-28T14:11:31Z</time>
      </trkpt>
      <trkpt lat="44.3516" lon="5.75653">
        <ele>604.1</ele>
        <time>2022-10-28T14:11:32Z</time>
      </trkpt>
      <trkpt lat="44.35155" lon="5.75658">
        <ele>604.1</ele>
        <time>2022-10-28T14:11:33Z</time>
      </trkpt>
      <trkpt lat="44.3515" lon="5.75663">
        <ele>604.1</ele>
        <time>2022-10-28T14:11:34Z</time>
      </trkpt>
      <trkpt lat="44.35145" lon="5.75668">
        <ele>604.1</ele>
        <time>2022-10-28T14:11:35Z</time>
      </trkpt>
      <trkpt lat="44.3514" lon="5.75673">
        <ele>604.1</ele>
        <time>2022-10-28T14:11:36Z</time>
      </trkpt>
      <trkpt lat="44.35136" lon="5.75678">
        <ele>604.2</ele>
        <time>2022-10-28T14:11:37Z</time>
      </trkpt>
      <trkpt lat="44.35131" lon="5.75682">
        <ele>604.2</ele>
        <time>2022-10-28T14:11:38Z</time>
      </trkpt>
      <trkpt lat="44.35126" lon="5.75687">
        <ele>604.1</ele>
        <time>2022-10-28T14:11:39Z</time>
      </trkpt>
      <trkpt lat="44.35121" lon="5.75691">
        <ele>604.1</ele>
        <time>2022-10-28T14:11:40Z</time>
      </trkpt>
      <trkpt lat="44.35116" lon="5.75696">
        <ele>604.1</ele>
        <time>2022-10-28T14:11:41Z</time>
      </trkpt>
      <trkpt lat="44.35111" lon="5.757">
        <ele>604.1</ele>
        <time>2022-10-28T14:11:42Z</time>
      </trkpt>
      <trkpt lat="44.35107" lon="5.75704">
        <ele>604.1</ele>
        <time>2022-10-28T14:11:43Z</time>
      </trkpt>
      <trkpt lat="44.35102" lon="5.75708">
        <ele>604</ele>
        <time>2022-10-28T14:11:44Z</time>
      </trkpt>
      <trkpt lat="44.35097" lon="5.75713">
        <ele>604</ele>
        <time>2022-10-28T14:11:45Z</time>
      </trkpt>
      <trkpt lat="44.35092" lon="5.75717">
        <ele>604</ele>
        <time>2022-10-28T14:11:46Z</time>
      </trkpt>
      <trkpt lat="44.35088" lon="5.75721">
        <ele>604</ele>
        <time>2022-10-28T14:11:47Z</time>
      </trkpt>
      <trkpt lat="44.35084" lon="5.75726">
        <ele>604</ele>
        <time>2022-10-28T14:11:48Z</time>
      </trkpt>
      <trkpt lat="44.35079" lon="5.75731">
        <ele>603.9</ele>
        <time>2022-10-28T14:11:49Z</time>
      </trkpt>
      <trkpt lat="44.35075" lon="5.75736">
        <ele>603.8</ele>
        <time>2022-10-28T14:11:50Z</time>
      </trkpt>
      <trkpt lat="44.3507" lon="5.75741">
        <ele>603.8</ele>
        <time>2022-10-28T14:11:51Z</time>
      </trkpt>
      <trkpt lat="44.35066" lon="5.75746">
        <ele>603.7</ele>
        <time>2022-10-28T14:11:52Z</time>
      </trkpt>
      <trkpt lat="44.35061" lon="5.75751">
        <ele>603.6</ele>
        <time>2022-10-28T14:11:53Z</time>
      </trkpt>
      <trkpt lat="44.35056" lon="5.75756">
        <ele>603.6</ele>
        <time>2022-10-28T14:11:54Z</time>
      </trkpt>
      <trkpt lat="44.35051" lon="5.7576">
        <ele>603.5</ele>
        <time>2022-10-28T14:11:55Z</time>
      </trkpt>
      <trkpt lat="44.35046" lon="5.75764">
        <ele>603.4</ele>
        <time>2022-10-28T14:11:56Z</time>
      </trkpt>
      <trkpt lat="44.35041" lon="5.75769">
        <ele>603.4</ele>
        <time>2022-10-28T14:11:57Z</time>
      </trkpt>
      <trkpt lat="44.35036" lon="5.75773">
        <ele>603.3</ele>
        <time>2022-10-28T14:11:58Z</time>
      </trkpt>
      <trkpt lat="44.35031" lon="5.75777">
        <ele>603.2</ele>
        <time>2022-10-28T14:11:59Z</time>
      </trkpt>
      <trkpt lat="44.35026" lon="5.75781">
        <ele>603.2</ele>
        <time>2022-10-28T14:12:00Z</time>
      </trkpt>
      <trkpt lat="44.3502" lon="5.75785">
        <ele>603.1</ele>
        <time>2022-10-28T14:12:01Z</time>
      </trkpt>
      <trkpt lat="44.35015" lon="5.75789">
        <ele>603.1</ele>
        <time>2022-10-28T14:12:02Z</time>
      </trkpt>
      <trkpt lat="44.3501" lon="5.75793">
        <ele>603</ele>
        <time>2022-10-28T14:12:03Z</time>
      </trkpt>
      <trkpt lat="44.35005" lon="5.75796">
        <ele>603</ele>
        <time>2022-10-28T14:12:04Z</time>
      </trkpt>
      <trkpt lat="44.35" lon="5.758">
        <ele>603</ele>
        <time>2022-10-28T14:12:05Z</time>
      </trkpt>
      <trkpt lat="44.34995" lon="5.75804">
        <ele>602.9</ele>
        <time>2022-10-28T14:12:06Z</time>
      </trkpt>
      <trkpt lat="44.3499" lon="5.75807">
        <ele>602.9</ele>
        <time>2022-10-28T14:12:07Z</time>
      </trkpt>
      <trkpt lat="44.34985" lon="5.75811">
        <ele>602.9</ele>
        <time>2022-10-28T14:12:08Z</time>
      </trkpt>
      <trkpt lat="44.34979" lon="5.75816">
        <ele>602.8</ele>
        <time>2022-10-28T14:12:09Z</time>
      </trkpt>
      <trkpt lat="44.34975" lon="5.7582">
        <ele>602.8</ele>
        <time>2022-10-28T14:12:10Z</time>
      </trkpt>
      <trkpt lat="44.3497" lon="5.75824">
        <ele>602.8</ele>
        <time>2022-10-28T14:12:11Z</time>
      </trkpt>
      <trkpt lat="44.34965" lon="5.75828">
        <ele>602.7</ele>
        <time>2022-10-28T14:12:12Z</time>
      </trkpt>
      <trkpt lat="44.3496" lon="5.75833">
        <ele>602.7</ele>
        <time>2022-10-28T14:12:13Z</time>
      </trkpt>
      <trkpt lat="44.34955" lon="5.75838">
        <ele>602.6</ele>
        <time>2022-10-28T14:12:14Z</time>
      </trkpt>
      <trkpt lat="44.3495" lon="5.75842">
        <ele>602.6</ele>
        <time>2022-10-28T14:12:15Z</time>
      </trkpt>
      <trkpt lat="44.34945" lon="5.75847">
        <ele>602.5</ele>
        <time>2022-10-28T14:12:16Z</time>
      </trkpt>
      <trkpt lat="44.3494" lon="5.75851">
        <ele>602.5</ele>
        <time>2022-10-28T14:12:17Z</time>
      </trkpt>
      <trkpt lat="44.34935" lon="5.75856">
        <ele>602.4</ele>
        <time>2022-10-28T14:12:18Z</time>
      </trkpt>
      <trkpt lat="44.3493" lon="5.7586">
        <ele>602.3</ele>
        <time>2022-10-28T14:12:19Z</time>
      </trkpt>
      <trkpt lat="44.34925" lon="5.75864">
        <ele>602.3</ele>
        <time>2022-10-28T14:12:20Z</time>
      </trkpt>
      <trkpt lat="44.3492" lon="5.75868">
        <ele>602.2</ele>
        <time>2022-10-28T14:12:21Z</time>
      </trkpt>
      <trkpt lat="44.34914" lon="5.75872">
        <ele>602.1</ele>
        <time>2022-10-28T14:12:22Z</time>
      </trkpt>
      <trkpt lat="44.34909" lon="5.75876">
        <ele>602.1</ele>
        <time>2022-10-28T14:12:23Z</time>
      </trkpt>
      <trkpt lat="44.34904" lon="5.7588">
        <ele>602</ele>
        <time>2022-10-28T14:12:24Z</time>
      </trkpt>
      <trkpt lat="44.34899" lon="5.75883">
        <ele>602</ele>
        <time>2022-10-28T14:12:25Z</time>
      </trkpt>
      <trkpt lat="44.34893" lon="5.75887">
        <ele>602</ele>
        <time>2022-10-28T14:12:26Z</time>
      </trkpt>
      <trkpt lat="44.34888" lon="5.7589">
        <ele>601.9</ele>
        <time>2022-10-28T14:12:27Z</time>
      </trkpt>
      <trkpt lat="44.34883" lon="5.75894">
        <ele>601.9</ele>
        <time>2022-10-28T14:12:28Z</time>
      </trkpt>
      <trkpt lat="44.34878" lon="5.75897">
        <ele>601.9</ele>
        <time>2022-10-28T14:12:29Z</time>
      </trkpt>
      <trkpt lat="44.34873" lon="5.75901">
        <ele>601.8</ele>
        <time>2022-10-28T14:12:30Z</time>
      </trkpt>
      <trkpt lat="44.34868" lon="5.75905">
        <ele>601.8</ele>
        <time>2022-10-28T14:12:31Z</time>
      </trkpt>
      <trkpt lat="44.34863" lon="5.75909">
        <ele>601.8</ele>
        <time>2022-10-28T14:12:32Z</time>
      </trkpt>
      <trkpt lat="44.34858" lon="5.75913">
        <ele>601.8</ele>
        <time>2022-10-28T14:12:33Z</time>
      </trkpt>
      <trkpt lat="44.34853" lon="5.75917">
        <ele>601.7</ele>
        <time>2022-10-28T14:12:34Z</time>
      </trkpt>
      <trkpt lat="44.34848" lon="5.75921">
        <ele>601.7</ele>
        <time>2022-10-28T14:12:35Z</time>
      </trkpt>
      <trkpt lat="44.34843" lon="5.75925">
        <ele>601.7</ele>
        <time>2022-10-28T14:12:36Z</time>
      </trkpt>
      <trkpt lat="44.34838" lon="5.75929">
        <ele>601.6</ele>
        <time>2022-10-28T14:12:37Z</time>
      </trkpt>
      <trkpt lat="44.34833" lon="5.75933">
        <ele>601.6</ele>
        <time>2022-10-28T14:12:38Z</time>
      </trkpt>
      <trkpt lat="44.34828" lon="5.75938">
        <ele>601.6</ele>
        <time>2022-10-28T14:12:39Z</time>
      </trkpt>
      <trkpt lat="44.34824" lon="5.75942">
        <ele>601.6</ele>
        <time>2022-10-28T14:12:40Z</time>
      </trkpt>
      <trkpt lat="44.34819" lon="5.75946">
        <ele>601.6</ele>
        <time>2022-10-28T14:12:41Z</time>
      </trkpt>
      <trkpt lat="44.34815" lon="5.7595">
        <ele>601.6</ele>
        <time>2022-10-28T14:12:42Z</time>
      </trkpt>
      <trkpt lat="44.3481" lon="5.75954">
        <ele>601.6</ele>
        <time>2022-10-28T14:12:43Z</time>
      </trkpt>
      <trkpt lat="44.34805" lon="5.75958">
        <ele>601.6</ele>
        <time>2022-10-28T14:12:44Z</time>
      </trkpt>
      <trkpt lat="44.348" lon="5.75961">
        <ele>601.5</ele>
        <time>2022-10-28T14:12:45Z</time>
      </trkpt>
      <trkpt lat="44.34795" lon="5.75965">
        <ele>601.5</ele>
        <time>2022-10-28T14:12:46Z</time>
      </trkpt>
      <trkpt lat="44.3479" lon="5.75968">
        <ele>601.5</ele>
        <time>2022-10-28T14:12:47Z</time>
      </trkpt>
      <trkpt lat="44.34785" lon="5.75971">
        <ele>601.5</ele>
        <time>2022-10-28T14:12:48Z</time>
      </trkpt>
      <trkpt lat="44.3478" lon="5.75973">
        <ele>601.5</ele>
        <time>2022-10-28T14:12:49Z</time>
      </trkpt>
      <trkpt lat="44.34775" lon="5.75976">
        <ele>601.5</ele>
        <time>2022-10-28T14:12:50Z</time>
      </trkpt>
      <trkpt lat="44.3477" lon="5.75979">
        <ele>601.5</ele>
        <time>2022-10-28T14:12:51Z</time>
      </trkpt>
      <trkpt lat="44.34765" lon="5.75981">
        <ele>601.5</ele>
        <time>2022-10-28T14:12:52Z</time>
      </trkpt>
      <trkpt lat="44.34761" lon="5.75983">
        <ele>601.5</ele>
        <time>2022-10-28T14:12:53Z</time>
      </trkpt>
      <trkpt lat="44.34756" lon="5.75986">
        <ele>601.6</ele>
        <time>2022-10-28T14:12:54Z</time>
      </trkpt>
      <trkpt lat="44.34752" lon="5.7599">
        <ele>601.6</ele>
        <time>2022-10-28T14:12:55Z</time>
      </trkpt>
      <trkpt lat="44.34748" lon="5.75994">
        <ele>601.7</ele>
        <time>2022-10-28T14:12:56Z</time>
      </trkpt>
      <trkpt lat="44.34744" lon="5.75997">
        <ele>601.8</ele>
        <time>2022-10-28T14:12:57Z</time>
      </trkpt>
      <trkpt lat="44.3474" lon="5.76001">
        <ele>601.8</ele>
        <time>2022-10-28T14:12:58Z</time>
      </trkpt>
      <trkpt lat="44.34736" lon="5.76006">
        <ele>601.9</ele>
        <time>2022-10-28T14:12:59Z</time>
      </trkpt>
      <trkpt lat="44.34733" lon="5.7601">
        <ele>602</ele>
        <time>2022-10-28T14:13:00Z</time>
      </trkpt>
      <trkpt lat="44.34729" lon="5.76014">
        <ele>602</ele>
        <time>2022-10-28T14:13:01Z</time>
      </trkpt>
      <trkpt lat="44.34725" lon="5.76018">
        <ele>602.1</ele>
        <time>2022-10-28T14:13:02Z</time>
      </trkpt>
      <trkpt lat="44.34721" lon="5.76022">
        <ele>602.2</ele>
        <time>2022-10-28T14:13:03Z</time>
      </trkpt>
      <trkpt lat="44.34718" lon="5.76027">
        <ele>602.3</ele>
        <time>2022-10-28T14:13:04Z</time>
      </trkpt>
      <trkpt lat="44.34714" lon="5.76031">
        <ele>602.4</ele>
        <time>2022-10-28T14:13:05Z</time>
      </trkpt>
      <trkpt lat="44.3471" lon="5.76036">
        <ele>602.6</ele>
        <time>2022-10-28T14:13:06Z</time>
      </trkpt>
      <trkpt lat="44.34706" lon="5.76039">
        <ele>602.7</ele>
        <time>2022-10-28T14:13:07Z</time>
      </trkpt>
      <trkpt lat="44.34703" lon="5.76043">
        <ele>602.8</ele>
        <time>2022-10-28T14:13:08Z</time>
      </trkpt>
      <trkpt lat="44.347" lon="5.76045">
        <ele>603</ele>
        <time>2022-10-28T14:13:09Z</time>
      </trkpt>
      <trkpt lat="44.34696" lon="5.76047">
        <ele>603.1</ele>
        <time>2022-10-28T14:13:10Z</time>
      </trkpt>
      <trkpt lat="44.34693" lon="5.76049">
        <ele>603.3</ele>
        <time>2022-10-28T14:13:11Z</time>
      </trkpt>
      <trkpt lat="44.3469" lon="5.76051">
        <ele>603.4</ele>
        <time>2022-10-28T14:13:12Z</time>
      </trkpt>
      <trkpt lat="44.34687" lon="5.76053">
        <ele>603.6</ele>
        <time>2022-10-28T14:13:13Z</time>
      </trkpt>
      <trkpt lat="44.34684" lon="5.76054">
        <ele>603.7</ele>
        <time>2022-10-28T14:13:14Z</time>
      </trkpt>
      <trkpt lat="44.3468" lon="5.76055">
        <ele>603.9</ele>
        <time>2022-10-28T14:13:15Z</time>
      </trkpt>
      <trkpt lat="44.34679" lon="5.76056">
        <ele>604</ele>
        <time>2022-10-28T14:13:16Z</time>
      </trkpt>
      <trkpt lat="44.34676" lon="5.76058">
        <ele>604.1</ele>
        <time>2022-10-28T14:13:17Z</time>
      </trkpt>
      <trkpt lat="44.34672" lon="5.76059">
        <ele>604.3</ele>
        <time>2022-10-28T14:13:18Z</time>
      </trkpt>
      <trkpt lat="44.34666" lon="5.76062">
        <ele>604.6</ele>
        <time>2022-10-28T14:13:20Z</time>
      </trkpt>
      <trkpt lat="44.34662" lon="5.76064">
        <ele>604.7</ele>
        <time>2022-10-28T14:13:21Z</time>
      </trkpt>
      <trkpt lat="44.34659" lon="5.76065">
        <ele>604.8</ele>
        <time>2022-10-28T14:13:22Z</time>
      </trkpt>
      <trkpt lat="44.34655" lon="5.76066">
        <ele>605</ele>
        <time>2022-10-28T14:13:24Z</time>
      </trkpt>
      <trkpt lat="44.34651" lon="5.76068">
        <ele>605.1</ele>
        <time>2022-10-28T14:13:25Z</time>
      </trkpt>
      <trkpt lat="44.34648" lon="5.7607">
        <ele>605.3</ele>
        <time>2022-10-28T14:13:26Z</time>
      </trkpt>
      <trkpt lat="44.34644" lon="5.76072">
        <ele>605.4</ele>
        <time>2022-10-28T14:13:27Z</time>
      </trkpt>
      <trkpt lat="44.34641" lon="5.76074">
        <ele>605.6</ele>
        <time>2022-10-28T14:13:28Z</time>
      </trkpt>
      <trkpt lat="44.34638" lon="5.76075">
        <ele>605.7</ele>
        <time>2022-10-28T14:13:29Z</time>
      </trkpt>
      <trkpt lat="44.34635" lon="5.76077">
        <ele>605.9</ele>
        <time>2022-10-28T14:13:30Z</time>
      </trkpt>
      <trkpt lat="44.34632" lon="5.76079">
        <ele>606</ele>
        <time>2022-10-28T14:13:31Z</time>
      </trkpt>
      <trkpt lat="44.34629" lon="5.7608">
        <ele>606.2</ele>
        <time>2022-10-28T14:13:32Z</time>
      </trkpt>
      <trkpt lat="44.34626" lon="5.76081">
        <ele>606.4</ele>
        <time>2022-10-28T14:13:33Z</time>
      </trkpt>
      <trkpt lat="44.34623" lon="5.76082">
        <ele>606.5</ele>
        <time>2022-10-28T14:13:35Z</time>
      </trkpt>
      <trkpt lat="44.3462" lon="5.76084">
        <ele>606.7</ele>
        <time>2022-10-28T14:13:36Z</time>
      </trkpt>
      <trkpt lat="44.34617" lon="5.76086">
        <ele>606.9</ele>
        <time>2022-10-28T14:13:37Z</time>
      </trkpt>
      <trkpt lat="44.34614" lon="5.76088">
        <ele>607.1</ele>
        <time>2022-10-28T14:13:38Z</time>
      </trkpt>
      <trkpt lat="44.34613" lon="5.76089">
        <ele>607.1</ele>
        <time>2022-10-28T14:13:39Z</time>
      </trkpt>
      <trkpt lat="44.34611" lon="5.76091">
        <ele>607.3</ele>
        <time>2022-10-28T14:13:41Z</time>
      </trkpt>
      <trkpt lat="44.34607" lon="5.76093">
        <ele>607.5</ele>
        <time>2022-10-28T14:13:42Z</time>
      </trkpt>
      <trkpt lat="44.34605" lon="5.76094">
        <ele>607.6</ele>
        <time>2022-10-28T14:13:43Z</time>
      </trkpt>
      <trkpt lat="44.34603" lon="5.76096">
        <ele>607.7</ele>
        <time>2022-10-28T14:13:45Z</time>
      </trkpt>
      <trkpt lat="44.34599" lon="5.76098">
        <ele>607.9</ele>
        <time>2022-10-28T14:13:46Z</time>
      </trkpt>
      <trkpt lat="44.34598" lon="5.76099">
        <ele>608</ele>
        <time>2022-10-28T14:13:47Z</time>
      </trkpt>
      <trkpt lat="44.34594" lon="5.76103">
        <ele>608.2</ele>
        <time>2022-10-28T14:13:49Z</time>
      </trkpt>
      <trkpt lat="44.34592" lon="5.76104">
        <ele>608.3</ele>
        <time>2022-10-28T14:13:50Z</time>
      </trkpt>
      <trkpt lat="44.34589" lon="5.76107">
        <ele>608.4</ele>
        <time>2022-10-28T14:13:51Z</time>
      </trkpt>
      <trkpt lat="44.34588" lon="5.76108">
        <ele>608.5</ele>
        <time>2022-10-28T14:13:52Z</time>
      </trkpt>
      <trkpt lat="44.34585" lon="5.76111">
        <ele>608.6</ele>
        <time>2022-10-28T14:13:54Z</time>
      </trkpt>
      <trkpt lat="44.34582" lon="5.76113">
        <ele>608.8</ele>
        <time>2022-10-28T14:13:55Z</time>
      </trkpt>
      <trkpt lat="44.34581" lon="5.76114">
        <ele>608.8</ele>
        <time>2022-10-28T14:13:56Z</time>
      </trkpt>
      <trkpt lat="44.34577" lon="5.76116">
        <ele>609</ele>
        <time>2022-10-28T14:13:58Z</time>
      </trkpt>
      <trkpt lat="44.34575" lon="5.76119">
        <ele>609.1</ele>
        <time>2022-10-28T14:13:59Z</time>
      </trkpt>
      <trkpt lat="44.34572" lon="5.76121">
        <ele>609.2</ele>
        <time>2022-10-28T14:14:00Z</time>
      </trkpt>
      <trkpt lat="44.34571" lon="5.76122">
        <ele>609.3</ele>
        <time>2022-10-28T14:14:01Z</time>
      </trkpt>
      <trkpt lat="44.34568" lon="5.76124">
        <ele>609.4</ele>
        <time>2022-10-28T14:14:02Z</time>
      </trkpt>
      <trkpt lat="44.34565" lon="5.76126">
        <ele>609.5</ele>
        <time>2022-10-28T14:14:04Z</time>
      </trkpt>
      <trkpt lat="44.34561" lon="5.76129">
        <ele>609.7</ele>
        <time>2022-10-28T14:14:05Z</time>
      </trkpt>
      <trkpt lat="44.34559" lon="5.7613">
        <ele>609.8</ele>
        <time>2022-10-28T14:14:06Z</time>
      </trkpt>
      <trkpt lat="44.34556" lon="5.76132">
        <ele>609.8</ele>
        <time>2022-10-28T14:14:08Z</time>
      </trkpt>
      <trkpt lat="44.34553" lon="5.76134">
        <ele>609.9</ele>
        <time>2022-10-28T14:14:09Z</time>
      </trkpt>
      <trkpt lat="44.3455" lon="5.76136">
        <ele>610</ele>
        <time>2022-10-28T14:14:10Z</time>
      </trkpt>
      <trkpt lat="44.34547" lon="5.76138">
        <ele>610.1</ele>
        <time>2022-10-28T14:14:12Z</time>
      </trkpt>
      <trkpt lat="44.34544" lon="5.7614">
        <ele>610.1</ele>
        <time>2022-10-28T14:14:13Z</time>
      </trkpt>
      <trkpt lat="44.34541" lon="5.76142">
        <ele>610.2</ele>
        <time>2022-10-28T14:14:14Z</time>
      </trkpt>
      <trkpt lat="44.34537" lon="5.76145">
        <ele>610.2</ele>
        <time>2022-10-28T14:14:15Z</time>
      </trkpt>
      <trkpt lat="44.34533" lon="5.76148">
        <ele>610.3</ele>
        <time>2022-10-28T14:14:17Z</time>
      </trkpt>
      <trkpt lat="44.34529" lon="5.76151">
        <ele>610.3</ele>
        <time>2022-10-28T14:14:18Z</time>
      </trkpt>
      <trkpt lat="44.34526" lon="5.76153">
        <ele>610.3</ele>
        <time>2022-10-28T14:14:19Z</time>
      </trkpt>
      <trkpt lat="44.34524" lon="5.76154">
        <ele>610.3</ele>
        <time>2022-10-28T14:14:20Z</time>
      </trkpt>
      <trkpt lat="44.34519" lon="5.76157">
        <ele>610.3</ele>
        <time>2022-10-28T14:14:22Z</time>
      </trkpt>
      <trkpt lat="44.34515" lon="5.7616">
        <ele>610.3</ele>
        <time>2022-10-28T14:14:23Z</time>
      </trkpt>
      <trkpt lat="44.34512" lon="5.76163">
        <ele>610.3</ele>
        <time>2022-10-28T14:14:24Z</time>
      </trkpt>
      <trkpt lat="44.34508" lon="5.76166">
        <ele>610.3</ele>
        <time>2022-10-28T14:14:25Z</time>
      </trkpt>
      <trkpt lat="44.34506" lon="5.76169">
        <ele>610.2</ele>
        <time>2022-10-28T14:14:26Z</time>
      </trkpt>
      <trkpt lat="44.34502" lon="5.76171">
        <ele>610.2</ele>
        <time>2022-10-28T14:14:27Z</time>
      </trkpt>
      <trkpt lat="44.34498" lon="5.76175">
        <ele>610.1</ele>
        <time>2022-10-28T14:14:28Z</time>
      </trkpt>
      <trkpt lat="44.34494" lon="5.76178">
        <ele>610</ele>
        <time>2022-10-28T14:14:29Z</time>
      </trkpt>
      <trkpt lat="44.3449" lon="5.76182">
        <ele>609.9</ele>
        <time>2022-10-28T14:14:31Z</time>
      </trkpt>
      <trkpt lat="44.34486" lon="5.76186">
        <ele>609.7</ele>
        <time>2022-10-28T14:14:32Z</time>
      </trkpt>
      <trkpt lat="44.34482" lon="5.76189">
        <ele>609.5</ele>
        <time>2022-10-28T14:14:33Z</time>
      </trkpt>
      <trkpt lat="44.34477" lon="5.76192">
        <ele>609.2</ele>
        <time>2022-10-28T14:14:34Z</time>
      </trkpt>
      <trkpt lat="44.34472" lon="5.76195">
        <ele>608.9</ele>
        <time>2022-10-28T14:14:35Z</time>
      </trkpt>
      <trkpt lat="44.34467" lon="5.76198">
        <ele>608.6</ele>
        <time>2022-10-28T14:14:36Z</time>
      </trkpt>
      <trkpt lat="44.34462" lon="5.76201">
        <ele>608.3</ele>
        <time>2022-10-28T14:14:37Z</time>
      </trkpt>
      <trkpt lat="44.34456" lon="5.76203">
        <ele>608</ele>
        <time>2022-10-28T14:14:38Z</time>
      </trkpt>
      <trkpt lat="44.3445" lon="5.76204">
        <ele>607.7</ele>
        <time>2022-10-28T14:14:39Z</time>
      </trkpt>
      <trkpt lat="44.34444" lon="5.76206">
        <ele>607.4</ele>
        <time>2022-10-28T14:14:40Z</time>
      </trkpt>
      <trkpt lat="44.34438" lon="5.76208">
        <ele>607.1</ele>
        <time>2022-10-28T14:14:41Z</time>
      </trkpt>
      <trkpt lat="44.34432" lon="5.76209">
        <ele>606.8</ele>
        <time>2022-10-28T14:14:42Z</time>
      </trkpt>
      <trkpt lat="44.34425" lon="5.76211">
        <ele>606.5</ele>
        <time>2022-10-28T14:14:43Z</time>
      </trkpt>
      <trkpt lat="44.34419" lon="5.76211">
        <ele>606.2</ele>
        <time>2022-10-28T14:14:44Z</time>
      </trkpt>
      <trkpt lat="44.34412" lon="5.76211">
        <ele>605.8</ele>
        <time>2022-10-28T14:14:45Z</time>
      </trkpt>
      <trkpt lat="44.34405" lon="5.76209">
        <ele>605.5</ele>
        <time>2022-10-28T14:14:46Z</time>
      </trkpt>
      <trkpt lat="44.34399" lon="5.76204">
        <ele>605.2</ele>
        <time>2022-10-28T14:14:47Z</time>
      </trkpt>
      <trkpt lat="44.34394" lon="5.76202">
        <ele>604.9</ele>
        <time>2022-10-28T14:14:48Z</time>
      </trkpt>
      <trkpt lat="44.34388" lon="5.76199">
        <ele>604.6</ele>
        <time>2022-10-28T14:14:49Z</time>
      </trkpt>
      <trkpt lat="44.34383" lon="5.76196">
        <ele>604.2</ele>
        <time>2022-10-28T14:14:50Z</time>
      </trkpt>
      <trkpt lat="44.34376" lon="5.76194">
        <ele>604</ele>
        <time>2022-10-28T14:14:51Z</time>
      </trkpt>
      <trkpt lat="44.3437" lon="5.76191">
        <ele>603.9</ele>
        <time>2022-10-28T14:14:52Z</time>
      </trkpt>
      <trkpt lat="44.34363" lon="5.76189">
        <ele>603.8</ele>
        <time>2022-10-28T14:14:53Z</time>
      </trkpt>
      <trkpt lat="44.34357" lon="5.76185">
        <ele>603.7</ele>
        <time>2022-10-28T14:14:54Z</time>
      </trkpt>
      <trkpt lat="44.3435" lon="5.76182">
        <ele>603.7</ele>
        <time>2022-10-28T14:14:55Z</time>
      </trkpt>
      <trkpt lat="44.34343" lon="5.76178">
        <ele>603.7</ele>
        <time>2022-10-28T14:14:56Z</time>
      </trkpt>
      <trkpt lat="44.34337" lon="5.76175">
        <ele>603.7</ele>
        <time>2022-10-28T14:14:57Z</time>
      </trkpt>
      <trkpt lat="44.3433" lon="5.76171">
        <ele>603.8</ele>
        <time>2022-10-28T14:14:58Z</time>
      </trkpt>
      <trkpt lat="44.34324" lon="5.76168">
        <ele>603.8</ele>
        <time>2022-10-28T14:14:59Z</time>
      </trkpt>
      <trkpt lat="44.34318" lon="5.76165">
        <ele>603.8</ele>
        <time>2022-10-28T14:15:00Z</time>
      </trkpt>
      <trkpt lat="44.34312" lon="5.76162">
        <ele>603.8</ele>
        <time>2022-10-28T14:15:01Z</time>
      </trkpt>
      <trkpt lat="44.34306" lon="5.76158">
        <ele>603.8</ele>
        <time>2022-10-28T14:15:02Z</time>
      </trkpt>
      <trkpt lat="44.343" lon="5.76156">
        <ele>603.9</ele>
        <time>2022-10-28T14:15:03Z</time>
      </trkpt>
      <trkpt lat="44.34295" lon="5.76153">
        <ele>603.9</ele>
        <time>2022-10-28T14:15:04Z</time>
      </trkpt>
      <trkpt lat="44.34289" lon="5.76151">
        <ele>604</ele>
        <time>2022-10-28T14:15:05Z</time>
      </trkpt>
      <trkpt lat="44.34284" lon="5.7615">
        <ele>604.1</ele>
        <time>2022-10-28T14:15:06Z</time>
      </trkpt>
      <trkpt lat="44.34279" lon="5.76148">
        <ele>604.2</ele>
        <time>2022-10-28T14:15:07Z</time>
      </trkpt>
      <trkpt lat="44.34274" lon="5.76147">
        <ele>604.3</ele>
        <time>2022-10-28T14:15:08Z</time>
      </trkpt>
      <trkpt lat="44.3427" lon="5.76146">
        <ele>604.4</ele>
        <time>2022-10-28T14:15:09Z</time>
      </trkpt>
      <trkpt lat="44.34266" lon="5.76145">
        <ele>604.5</ele>
        <time>2022-10-28T14:15:10Z</time>
      </trkpt>
      <trkpt lat="44.34263" lon="5.76144">
        <ele>604.6</ele>
        <time>2022-10-28T14:15:11Z</time>
      </trkpt>
      <trkpt lat="44.34259" lon="5.76143">
        <ele>604.7</ele>
        <time>2022-10-28T14:15:12Z</time>
      </trkpt>
      <trkpt lat="44.34255" lon="5.76142">
        <ele>604.8</ele>
        <time>2022-10-28T14:15:13Z</time>
      </trkpt>
      <trkpt lat="44.34253" lon="5.76141">
        <ele>604.8</ele>
        <time>2022-10-28T14:15:14Z</time>
      </trkpt>
      <trkpt lat="44.3425" lon="5.76141">
        <ele>604.8</ele>
        <time>2022-10-28T14:15:15Z</time>
      </trkpt>
      <trkpt lat="44.34248" lon="5.7614">
        <ele>604.8</ele>
        <time>2022-10-28T14:15:16Z</time>
      </trkpt>
      <trkpt lat="44.34244" lon="5.76139">
        <ele>604.9</ele>
        <time>2022-10-28T14:15:18Z</time>
      </trkpt>
      <trkpt lat="44.34241" lon="5.7614">
        <ele>604.9</ele>
        <time>2022-10-28T14:15:19Z</time>
      </trkpt>
      <trkpt lat="44.34241" lon="5.7614">
        <ele>604.9</ele>
        <time>2022-10-28T14:15:20Z</time>
      </trkpt>
      <trkpt lat="44.34242" lon="5.7614">
        <ele>604.9</ele>
        <time>2022-10-28T14:15:21Z</time>
      </trkpt>
      <trkpt lat="44.34242" lon="5.7614">
        <ele>604.9</ele>
        <time>2022-10-28T14:15:22Z</time>
      </trkpt>
      <trkpt lat="44.34242" lon="5.7614">
        <ele>604.9</ele>
        <time>2022-10-28T14:15:23Z</time>
      </trkpt>
      <trkpt lat="44.34242" lon="5.7614">
        <ele>604.9</ele>
        <time>2022-10-28T14:15:24Z</time>
      </trkpt>
      <trkpt lat="44.34242" lon="5.7614">
        <ele>604.9</ele>
        <time>2022-10-28T14:15:25Z</time>
      </trkpt>
      <trkpt lat="44.34242" lon="5.7614">
        <ele>604.9</ele>
        <time>2022-10-28T14:15:26Z</time>
      </trkpt>
      <trkpt lat="44.34242" lon="5.7614">
        <ele>605</ele>
        <time>2022-10-28T14:15:28Z</time>
      </trkpt>
      <trkpt lat="44.34242" lon="5.7614">
        <ele>605</ele>
        <time>2022-10-28T14:15:29Z</time>
      </trkpt>
      <trkpt lat="44.34242" lon="5.7614">
        <ele>605</ele>
        <time>2022-10-28T14:15:30Z</time>
      </trkpt>
      <trkpt lat="44.34238" lon="5.76144">
        <ele>605</ele>
        <time>2022-10-28T14:16:49Z</time>
      </trkpt>
      <trkpt lat="44.34236" lon="5.76145">
        <ele>605</ele>
        <time>2022-10-28T14:16:50Z</time>
      </trkpt>
      <trkpt lat="44.34232" lon="5.76148">
        <ele>605</ele>
        <time>2022-10-28T14:16:51Z</time>
      </trkpt>
      <trkpt lat="44.34231" lon="5.76149">
        <ele>605</ele>
        <time>2022-10-28T14:16:52Z</time>
      </trkpt>
      <trkpt lat="44.34228" lon="5.7615">
        <ele>605</ele>
        <time>2022-10-28T14:16:53Z</time>
      </trkpt>
      <trkpt lat="44.34226" lon="5.76151">
        <ele>605</ele>
        <time>2022-10-28T14:16:54Z</time>
      </trkpt>
      <trkpt lat="44.34223" lon="5.76154">
        <ele>605</ele>
        <time>2022-10-28T14:16:55Z</time>
      </trkpt>
      <trkpt lat="44.34218" lon="5.76157">
        <ele>604.9</ele>
        <time>2022-10-28T14:16:56Z</time>
      </trkpt>
      <trkpt lat="44.34216" lon="5.76159">
        <ele>604.9</ele>
        <time>2022-10-28T14:16:57Z</time>
      </trkpt>
      <trkpt lat="44.34212" lon="5.76164">
        <ele>604.8</ele>
        <time>2022-10-28T14:16:59Z</time>
      </trkpt>
      <trkpt lat="44.34208" lon="5.76168">
        <ele>604.8</ele>
        <time>2022-10-28T14:17:00Z</time>
      </trkpt>
      <trkpt lat="44.34203" lon="5.76172">
        <ele>604.7</ele>
        <time>2022-10-28T14:17:01Z</time>
      </trkpt>
      <trkpt lat="44.34199" lon="5.76175">
        <ele>604.6</ele>
        <time>2022-10-28T14:17:02Z</time>
      </trkpt>
      <trkpt lat="44.34195" lon="5.7618">
        <ele>604.5</ele>
        <time>2022-10-28T14:17:03Z</time>
      </trkpt>
      <trkpt lat="44.34192" lon="5.76184">
        <ele>604.3</ele>
        <time>2022-10-28T14:17:04Z</time>
      </trkpt>
      <trkpt lat="44.3419" lon="5.76188">
        <ele>604.2</ele>
        <time>2022-10-28T14:17:05Z</time>
      </trkpt>
      <trkpt lat="44.34185" lon="5.76195">
        <ele>604</ele>
        <time>2022-10-28T14:17:06Z</time>
      </trkpt>
      <trkpt lat="44.34182" lon="5.76201">
        <ele>603.8</ele>
        <time>2022-10-28T14:17:07Z</time>
      </trkpt>
      <trkpt lat="44.34179" lon="5.76207">
        <ele>603.5</ele>
        <time>2022-10-28T14:17:08Z</time>
      </trkpt>
      <trkpt lat="44.34177" lon="5.76214">
        <ele>603.2</ele>
        <time>2022-10-28T14:17:09Z</time>
      </trkpt>
      <trkpt lat="44.34174" lon="5.76222">
        <ele>602.9</ele>
        <time>2022-10-28T14:17:10Z</time>
      </trkpt>
      <trkpt lat="44.34172" lon="5.7623">
        <ele>602.6</ele>
        <time>2022-10-28T14:17:11Z</time>
      </trkpt>
      <trkpt lat="44.34169" lon="5.76238">
        <ele>602.3</ele>
        <time>2022-10-28T14:17:12Z</time>
      </trkpt>
      <trkpt lat="44.34167" lon="5.76247">
        <ele>602</ele>
        <time>2022-10-28T14:17:13Z</time>
      </trkpt>
      <trkpt lat="44.34164" lon="5.76256">
        <ele>601.8</ele>
        <time>2022-10-28T14:17:14Z</time>
      </trkpt>
      <trkpt lat="44.3416" lon="5.76264">
        <ele>601.6</ele>
        <time>2022-10-28T14:17:15Z</time>
      </trkpt>
      <trkpt lat="44.34156" lon="5.76273">
        <ele>601.5</ele>
        <time>2022-10-28T14:17:16Z</time>
      </trkpt>
      <trkpt lat="44.34154" lon="5.76282">
        <ele>601.4</ele>
        <time>2022-10-28T14:17:17Z</time>
      </trkpt>
      <trkpt lat="44.34151" lon="5.7629">
        <ele>601.4</ele>
        <time>2022-10-28T14:17:18Z</time>
      </trkpt>
      <trkpt lat="44.34148" lon="5.76299">
        <ele>601.4</ele>
        <time>2022-10-28T14:17:19Z</time>
      </trkpt>
      <trkpt lat="44.34147" lon="5.76308">
        <ele>601.3</ele>
        <time>2022-10-28T14:17:20Z</time>
      </trkpt>
      <trkpt lat="44.34145" lon="5.76316">
        <ele>601.3</ele>
        <time>2022-10-28T14:17:21Z</time>
      </trkpt>
      <trkpt lat="44.34143" lon="5.76323">
        <ele>601.3</ele>
        <time>2022-10-28T14:17:22Z</time>
      </trkpt>
      <trkpt lat="44.3414" lon="5.7633">
        <ele>601.3</ele>
        <time>2022-10-28T14:17:23Z</time>
      </trkpt>
      <trkpt lat="44.34138" lon="5.76337">
        <ele>601.4</ele>
        <time>2022-10-28T14:17:24Z</time>
      </trkpt>
      <trkpt lat="44.34135" lon="5.76343">
        <ele>601.5</ele>
        <time>2022-10-28T14:17:25Z</time>
      </trkpt>
      <trkpt lat="44.34132" lon="5.76348">
        <ele>601.6</ele>
        <time>2022-10-28T14:17:26Z</time>
      </trkpt>
      <trkpt lat="44.34127" lon="5.76351">
        <ele>601.8</ele>
        <time>2022-10-28T14:17:27Z</time>
      </trkpt>
      <trkpt lat="44.34122" lon="5.76353">
        <ele>602</ele>
        <time>2022-10-28T14:17:28Z</time>
      </trkpt>
      <trkpt lat="44.34118" lon="5.76357">
        <ele>602.1</ele>
        <time>2022-10-28T14:17:29Z</time>
      </trkpt>
      <trkpt lat="44.34116" lon="5.76362">
        <ele>602.3</ele>
        <time>2022-10-28T14:17:30Z</time>
      </trkpt>
      <trkpt lat="44.34116" lon="5.76369">
        <ele>602.2</ele>
        <time>2022-10-28T14:17:31Z</time>
      </trkpt>
      <trkpt lat="44.34118" lon="5.76376">
        <ele>601.9</ele>
        <time>2022-10-28T14:17:32Z</time>
      </trkpt>
      <trkpt lat="44.34122" lon="5.76381">
        <ele>601.6</ele>
        <time>2022-10-28T14:17:33Z</time>
      </trkpt>
      <trkpt lat="44.34127" lon="5.76384">
        <ele>601.2</ele>
        <time>2022-10-28T14:17:34Z</time>
      </trkpt>
      <trkpt lat="44.34132" lon="5.76386">
        <ele>600.9</ele>
        <time>2022-10-28T14:17:35Z</time>
      </trkpt>
      <trkpt lat="44.34136" lon="5.76391">
        <ele>600.6</ele>
        <time>2022-10-28T14:17:36Z</time>
      </trkpt>
      <trkpt lat="44.3414" lon="5.76398">
        <ele>600.3</ele>
        <time>2022-10-28T14:17:37Z</time>
      </trkpt>
      <trkpt lat="44.34143" lon="5.76405">
        <ele>600.1</ele>
        <time>2022-10-28T14:17:38Z</time>
      </trkpt>
      <trkpt lat="44.34146" lon="5.76412">
        <ele>599.9</ele>
        <time>2022-10-28T14:17:39Z</time>
      </trkpt>
      <trkpt lat="44.3415" lon="5.76419">
        <ele>599.6</ele>
        <time>2022-10-28T14:17:40Z</time>
      </trkpt>
      <trkpt lat="44.34154" lon="5.76427">
        <ele>599.4</ele>
        <time>2022-10-28T14:17:41Z</time>
      </trkpt>
      <trkpt lat="44.34158" lon="5.76434">
        <ele>599.2</ele>
        <time>2022-10-28T14:17:42Z</time>
      </trkpt>
      <trkpt lat="44.34162" lon="5.76442">
        <ele>599.1</ele>
        <time>2022-10-28T14:17:43Z</time>
      </trkpt>
      <trkpt lat="44.34165" lon="5.7645">
        <ele>599</ele>
        <time>2022-10-28T14:17:44Z</time>
      </trkpt>
      <trkpt lat="44.34169" lon="5.76458">
        <ele>598.8</ele>
        <time>2022-10-28T14:17:45Z</time>
      </trkpt>
      <trkpt lat="44.34173" lon="5.76466">
        <ele>598.6</ele>
        <time>2022-10-28T14:17:46Z</time>
      </trkpt>
      <trkpt lat="44.34177" lon="5.76474">
        <ele>598.4</ele>
        <time>2022-10-28T14:17:47Z</time>
      </trkpt>
      <trkpt lat="44.34181" lon="5.76482">
        <ele>598.2</ele>
        <time>2022-10-28T14:17:48Z</time>
      </trkpt>
      <trkpt lat="44.34185" lon="5.76491">
        <ele>598.1</ele>
        <time>2022-10-28T14:17:49Z</time>
      </trkpt>
      <trkpt lat="44.34189" lon="5.76499">
        <ele>597.9</ele>
        <time>2022-10-28T14:17:50Z</time>
      </trkpt>
      <trkpt lat="44.34193" lon="5.76507">
        <ele>597.8</ele>
        <time>2022-10-28T14:17:51Z</time>
      </trkpt>
      <trkpt lat="44.34197" lon="5.76515">
        <ele>597.7</ele>
        <time>2022-10-28T14:17:52Z</time>
      </trkpt>
      <trkpt lat="44.34201" lon="5.76523">
        <ele>597.6</ele>
        <time>2022-10-28T14:17:53Z</time>
      </trkpt>
      <trkpt lat="44.34205" lon="5.76531">
        <ele>597.5</ele>
        <time>2022-10-28T14:17:54Z</time>
      </trkpt>
      <trkpt lat="44.34209" lon="5.76539">
        <ele>597.4</ele>
        <time>2022-10-28T14:17:55Z</time>
      </trkpt>
      <trkpt lat="44.34212" lon="5.76547">
        <ele>597.3</ele>
        <time>2022-10-28T14:17:56Z</time>
      </trkpt>
      <trkpt lat="44.34216" lon="5.76554">
        <ele>597.3</ele>
        <time>2022-10-28T14:17:57Z</time>
      </trkpt>
      <trkpt lat="44.34219" lon="5.76562">
        <ele>597.2</ele>
        <time>2022-10-28T14:17:58Z</time>
      </trkpt>
      <trkpt lat="44.34223" lon="5.7657">
        <ele>597.2</ele>
        <time>2022-10-28T14:17:59Z</time>
      </trkpt>
      <trkpt lat="44.34227" lon="5.76577">
        <ele>597.1</ele>
        <time>2022-10-28T14:18:00Z</time>
      </trkpt>
      <trkpt lat="44.34231" lon="5.76585">
        <ele>597.1</ele>
        <time>2022-10-28T14:18:01Z</time>
      </trkpt>
      <trkpt lat="44.34234" lon="5.76592">
        <ele>597.1</ele>
        <time>2022-10-28T14:18:02Z</time>
      </trkpt>
      <trkpt lat="44.34238" lon="5.766">
        <ele>597.1</ele>
        <time>2022-10-28T14:18:03Z</time>
      </trkpt>
      <trkpt lat="44.3424" lon="5.76608">
        <ele>597.1</ele>
        <time>2022-10-28T14:18:04Z</time>
      </trkpt>
      <trkpt lat="44.34243" lon="5.76616">
        <ele>597.1</ele>
        <time>2022-10-28T14:18:05Z</time>
      </trkpt>
      <trkpt lat="44.34246" lon="5.76624">
        <ele>597.1</ele>
        <time>2022-10-28T14:18:06Z</time>
      </trkpt>
      <trkpt lat="44.34249" lon="5.76632">
        <ele>597.1</ele>
        <time>2022-10-28T14:18:07Z</time>
      </trkpt>
      <trkpt lat="44.34253" lon="5.76639">
        <ele>597.2</ele>
        <time>2022-10-28T14:18:08Z</time>
      </trkpt>
      <trkpt lat="44.34257" lon="5.76647">
        <ele>597.2</ele>
        <time>2022-10-28T14:18:09Z</time>
      </trkpt>
      <trkpt lat="44.3426" lon="5.76654">
        <ele>597.1</ele>
        <time>2022-10-28T14:18:10Z</time>
      </trkpt>
      <trkpt lat="44.34264" lon="5.76661">
        <ele>597.1</ele>
        <time>2022-10-28T14:18:11Z</time>
      </trkpt>
      <trkpt lat="44.34268" lon="5.76668">
        <ele>597</ele>
        <time>2022-10-28T14:18:12Z</time>
      </trkpt>
      <trkpt lat="44.34271" lon="5.76674">
        <ele>596.9</ele>
        <time>2022-10-28T14:18:13Z</time>
      </trkpt>
      <trkpt lat="44.34275" lon="5.76681">
        <ele>596.9</ele>
        <time>2022-10-28T14:18:14Z</time>
      </trkpt>
      <trkpt lat="44.34278" lon="5.76687">
        <ele>596.8</ele>
        <time>2022-10-28T14:18:15Z</time>
      </trkpt>
      <trkpt lat="44.34282" lon="5.76693">
        <ele>596.8</ele>
        <time>2022-10-28T14:18:16Z</time>
      </trkpt>
      <trkpt lat="44.34286" lon="5.76699">
        <ele>596.7</ele>
        <time>2022-10-28T14:18:17Z</time>
      </trkpt>
      <trkpt lat="44.3429" lon="5.76706">
        <ele>596.7</ele>
        <time>2022-10-28T14:18:18Z</time>
      </trkpt>
      <trkpt lat="44.34293" lon="5.76713">
        <ele>596.6</ele>
        <time>2022-10-28T14:18:19Z</time>
      </trkpt>
      <trkpt lat="44.34296" lon="5.7672">
        <ele>596.6</ele>
        <time>2022-10-28T14:18:20Z</time>
      </trkpt>
      <trkpt lat="44.34299" lon="5.76727">
        <ele>596.5</ele>
        <time>2022-10-28T14:18:21Z</time>
      </trkpt>
      <trkpt lat="44.34303" lon="5.76733">
        <ele>596.4</ele>
        <time>2022-10-28T14:18:22Z</time>
      </trkpt>
      <trkpt lat="44.34306" lon="5.7674">
        <ele>596.4</ele>
        <time>2022-10-28T14:18:23Z</time>
      </trkpt>
      <trkpt lat="44.34309" lon="5.76746">
        <ele>596.3</ele>
        <time>2022-10-28T14:18:24Z</time>
      </trkpt>
      <trkpt lat="44.34313" lon="5.76753">
        <ele>596.3</ele>
        <time>2022-10-28T14:18:25Z</time>
      </trkpt>
      <trkpt lat="44.34316" lon="5.76759">
        <ele>596.2</ele>
        <time>2022-10-28T14:18:26Z</time>
      </trkpt>
      <trkpt lat="44.34319" lon="5.76765">
        <ele>596.1</ele>
        <time>2022-10-28T14:18:27Z</time>
      </trkpt>
      <trkpt lat="44.34322" lon="5.76771">
        <ele>596.1</ele>
        <time>2022-10-28T14:18:28Z</time>
      </trkpt>
      <trkpt lat="44.34325" lon="5.76778">
        <ele>596</ele>
        <time>2022-10-28T14:18:29Z</time>
      </trkpt>
      <trkpt lat="44.34328" lon="5.76784">
        <ele>596</ele>
        <time>2022-10-28T14:18:30Z</time>
      </trkpt>
      <trkpt lat="44.34331" lon="5.76791">
        <ele>595.9</ele>
        <time>2022-10-28T14:18:31Z</time>
      </trkpt>
      <trkpt lat="44.34335" lon="5.76797">
        <ele>595.8</ele>
        <time>2022-10-28T14:18:32Z</time>
      </trkpt>
      <trkpt lat="44.34338" lon="5.76804">
        <ele>595.8</ele>
        <time>2022-10-28T14:18:33Z</time>
      </trkpt>
      <trkpt lat="44.34341" lon="5.76811">
        <ele>595.7</ele>
        <time>2022-10-28T14:18:34Z</time>
      </trkpt>
      <trkpt lat="44.34344" lon="5.76818">
        <ele>595.7</ele>
        <time>2022-10-28T14:18:35Z</time>
      </trkpt>
      <trkpt lat="44.34348" lon="5.76824">
        <ele>595.6</ele>
        <time>2022-10-28T14:18:36Z</time>
      </trkpt>
      <trkpt lat="44.34351" lon="5.76831">
        <ele>595.6</ele>
        <time>2022-10-28T14:18:37Z</time>
      </trkpt>
      <trkpt lat="44.34354" lon="5.76838">
        <ele>595.5</ele>
        <time>2022-10-28T14:18:38Z</time>
      </trkpt>
      <trkpt lat="44.34357" lon="5.76845">
        <ele>595.5</ele>
        <time>2022-10-28T14:18:39Z</time>
      </trkpt>
      <trkpt lat="44.3436" lon="5.76852">
        <ele>595.4</ele>
        <time>2022-10-28T14:18:40Z</time>
      </trkpt>
      <trkpt lat="44.34363" lon="5.76859">
        <ele>595.4</ele>
        <time>2022-10-28T14:18:41Z</time>
      </trkpt>
      <trkpt lat="44.34367" lon="5.76865">
        <ele>595.3</ele>
        <time>2022-10-28T14:18:42Z</time>
      </trkpt>
      <trkpt lat="44.3437" lon="5.76872">
        <ele>595.3</ele>
        <time>2022-10-28T14:18:43Z</time>
      </trkpt>
      <trkpt lat="44.34374" lon="5.76878">
        <ele>595.2</ele>
        <time>2022-10-28T14:18:44Z</time>
      </trkpt>
      <trkpt lat="44.34377" lon="5.76885">
        <ele>595.2</ele>
        <time>2022-10-28T14:18:45Z</time>
      </trkpt>
      <trkpt lat="44.34381" lon="5.76891">
        <ele>595.1</ele>
        <time>2022-10-28T14:18:46Z</time>
      </trkpt>
      <trkpt lat="44.34384" lon="5.76898">
        <ele>595.1</ele>
        <time>2022-10-28T14:18:47Z</time>
      </trkpt>
      <trkpt lat="44.34387" lon="5.76904">
        <ele>595</ele>
        <time>2022-10-28T14:18:48Z</time>
      </trkpt>
      <trkpt lat="44.3439" lon="5.7691">
        <ele>595</ele>
        <time>2022-10-28T14:18:49Z</time>
      </trkpt>
      <trkpt lat="44.34394" lon="5.76916">
        <ele>595</ele>
        <time>2022-10-28T14:18:50Z</time>
      </trkpt>
      <trkpt lat="44.34397" lon="5.76921">
        <ele>595</ele>
        <time>2022-10-28T14:18:51Z</time>
      </trkpt>
      <trkpt lat="44.34401" lon="5.76927">
        <ele>594.9</ele>
        <time>2022-10-28T14:18:52Z</time>
      </trkpt>
      <trkpt lat="44.34405" lon="5.76932">
        <ele>594.9</ele>
        <time>2022-10-28T14:18:53Z</time>
      </trkpt>
      <trkpt lat="44.34409" lon="5.76938">
        <ele>594.9</ele>
        <time>2022-10-28T14:18:54Z</time>
      </trkpt>
      <trkpt lat="44.34413" lon="5.76943">
        <ele>594.9</ele>
        <time>2022-10-28T14:18:55Z</time>
      </trkpt>
      <trkpt lat="44.34416" lon="5.76948">
        <ele>594.9</ele>
        <time>2022-10-28T14:18:56Z</time>
      </trkpt>
      <trkpt lat="44.3442" lon="5.76953">
        <ele>594.8</ele>
        <time>2022-10-28T14:18:57Z</time>
      </trkpt>
      <trkpt lat="44.34423" lon="5.76959">
        <ele>594.8</ele>
        <time>2022-10-28T14:18:58Z</time>
      </trkpt>
      <trkpt lat="44.34427" lon="5.76964">
        <ele>594.8</ele>
        <time>2022-10-28T14:18:59Z</time>
      </trkpt>
      <trkpt lat="44.34432" lon="5.7697">
        <ele>594.8</ele>
        <time>2022-10-28T14:19:00Z</time>
      </trkpt>
      <trkpt lat="44.34436" lon="5.76975">
        <ele>594.8</ele>
        <time>2022-10-28T14:19:01Z</time>
      </trkpt>
      <trkpt lat="44.3444" lon="5.7698">
        <ele>594.7</ele>
        <time>2022-10-28T14:19:02Z</time>
      </trkpt>
      <trkpt lat="44.34444" lon="5.76984">
        <ele>594.7</ele>
        <time>2022-10-28T14:19:03Z</time>
      </trkpt>
      <trkpt lat="44.34448" lon="5.76987">
        <ele>594.7</ele>
        <time>2022-10-28T14:19:04Z</time>
      </trkpt>
      <trkpt lat="44.34452" lon="5.7699">
        <ele>594.7</ele>
        <time>2022-10-28T14:19:05Z</time>
      </trkpt>
      <trkpt lat="44.34457" lon="5.76994">
        <ele>594.7</ele>
        <time>2022-10-28T14:19:06Z</time>
      </trkpt>
      <trkpt lat="44.34461" lon="5.76998">
        <ele>594.7</ele>
        <time>2022-10-28T14:19:07Z</time>
      </trkpt>
      <trkpt lat="44.34465" lon="5.77003">
        <ele>594.7</ele>
        <time>2022-10-28T14:19:08Z</time>
      </trkpt>
      <trkpt lat="44.3447" lon="5.77007">
        <ele>594.7</ele>
        <time>2022-10-28T14:19:09Z</time>
      </trkpt>
      <trkpt lat="44.34474" lon="5.77011">
        <ele>594.7</ele>
        <time>2022-10-28T14:19:10Z</time>
      </trkpt>
      <trkpt lat="44.34478" lon="5.77016">
        <ele>594.7</ele>
        <time>2022-10-28T14:19:11Z</time>
      </trkpt>
      <trkpt lat="44.34482" lon="5.77021">
        <ele>594.6</ele>
        <time>2022-10-28T14:19:12Z</time>
      </trkpt>
      <trkpt lat="44.34486" lon="5.77025">
        <ele>594.6</ele>
        <time>2022-10-28T14:19:13Z</time>
      </trkpt>
      <trkpt lat="44.3449" lon="5.7703">
        <ele>594.6</ele>
        <time>2022-10-28T14:19:14Z</time>
      </trkpt>
      <trkpt lat="44.34494" lon="5.77034">
        <ele>594.6</ele>
        <time>2022-10-28T14:19:15Z</time>
      </trkpt>
      <trkpt lat="44.34498" lon="5.77039">
        <ele>594.6</ele>
        <time>2022-10-28T14:19:16Z</time>
      </trkpt>
      <trkpt lat="44.34503" lon="5.77043">
        <ele>594.6</ele>
        <time>2022-10-28T14:19:17Z</time>
      </trkpt>
      <trkpt lat="44.34506" lon="5.77048">
        <ele>594.6</ele>
        <time>2022-10-28T14:19:18Z</time>
      </trkpt>
      <trkpt lat="44.3451" lon="5.77052">
        <ele>594.7</ele>
        <time>2022-10-28T14:19:19Z</time>
      </trkpt>
      <trkpt lat="44.34514" lon="5.77056">
        <ele>594.7</ele>
        <time>2022-10-28T14:19:20Z</time>
      </trkpt>
      <trkpt lat="44.34517" lon="5.7706">
        <ele>594.8</ele>
        <time>2022-10-28T14:19:21Z</time>
      </trkpt>
      <trkpt lat="44.34521" lon="5.77064">
        <ele>594.9</ele>
        <time>2022-10-28T14:19:22Z</time>
      </trkpt>
      <trkpt lat="44.34524" lon="5.77068">
        <ele>595</ele>
        <time>2022-10-28T14:19:23Z</time>
      </trkpt>
      <trkpt lat="44.34527" lon="5.77072">
        <ele>595.1</ele>
        <time>2022-10-28T14:19:24Z</time>
      </trkpt>
      <trkpt lat="44.3453" lon="5.77074">
        <ele>595.2</ele>
        <time>2022-10-28T14:19:25Z</time>
      </trkpt>
      <trkpt lat="44.34534" lon="5.77078">
        <ele>595.3</ele>
        <time>2022-10-28T14:19:26Z</time>
      </trkpt>
      <trkpt lat="44.34537" lon="5.7708">
        <ele>595.4</ele>
        <time>2022-10-28T14:19:27Z</time>
      </trkpt>
      <trkpt lat="44.3454" lon="5.77083">
        <ele>595.6</ele>
        <time>2022-10-28T14:19:28Z</time>
      </trkpt>
      <trkpt lat="44.34543" lon="5.77086">
        <ele>595.7</ele>
        <time>2022-10-28T14:19:29Z</time>
      </trkpt>
      <trkpt lat="44.34545" lon="5.77087">
        <ele>595.9</ele>
        <time>2022-10-28T14:19:30Z</time>
      </trkpt>
      <trkpt lat="44.34546" lon="5.77088">
        <ele>595.9</ele>
        <time>2022-10-28T14:19:31Z</time>
      </trkpt>
      <trkpt lat="44.3455" lon="5.77093">
        <ele>596.2</ele>
        <time>2022-10-28T14:19:32Z</time>
      </trkpt>
      <trkpt lat="44.34553" lon="5.77097">
        <ele>596.4</ele>
        <time>2022-10-28T14:19:33Z</time>
      </trkpt>
      <trkpt lat="44.34557" lon="5.77101">
        <ele>596.6</ele>
        <time>2022-10-28T14:19:35Z</time>
      </trkpt>
      <trkpt lat="44.3456" lon="5.77104">
        <ele>596.8</ele>
        <time>2022-10-28T14:19:36Z</time>
      </trkpt>
      <trkpt lat="44.34563" lon="5.77107">
        <ele>597</ele>
        <time>2022-10-28T14:19:37Z</time>
      </trkpt>
      <trkpt lat="44.34563" lon="5.77108">
        <ele>597.1</ele>
        <time>2022-10-28T14:19:38Z</time>
      </trkpt>
      <trkpt lat="44.34566" lon="5.77111">
        <ele>597.3</ele>
        <time>2022-10-28T14:19:39Z</time>
      </trkpt>
      <trkpt lat="44.34567" lon="5.77112">
        <ele>597.3</ele>
        <time>2022-10-28T14:19:40Z</time>
      </trkpt>
      <trkpt lat="44.34568" lon="5.77117">
        <ele>597.5</ele>
        <time>2022-10-28T14:19:42Z</time>
      </trkpt>
      <trkpt lat="44.34569" lon="5.77118">
        <ele>597.6</ele>
        <time>2022-10-28T14:19:43Z</time>
      </trkpt>
      <trkpt lat="44.34569" lon="5.77119">
        <ele>597.6</ele>
        <time>2022-10-28T14:19:44Z</time>
      </trkpt>
      <trkpt lat="44.34569" lon="5.77119">
        <ele>598</ele>
        <time>2022-10-28T14:19:45Z</time>
      </trkpt>
      <trkpt lat="44.34569" lon="5.77119">
        <ele>598</ele>
        <time>2022-10-28T14:19:46Z</time>
      </trkpt>
      <trkpt lat="44.34569" lon="5.77119">
        <ele>598</ele>
        <time>2022-10-28T14:19:47Z</time>
      </trkpt>
      <trkpt lat="44.34569" lon="5.77118">
        <ele>598</ele>
        <time>2022-10-28T14:19:48Z</time>
      </trkpt>
      <trkpt lat="44.34569" lon="5.77118">
        <ele>598</ele>
        <time>2022-10-28T14:19:49Z</time>
      </trkpt>
      <trkpt lat="44.34569" lon="5.77118">
        <ele>598</ele>
        <time>2022-10-28T14:19:50Z</time>
      </trkpt>
      <trkpt lat="44.34569" lon="5.77119">
        <ele>598</ele>
        <time>2022-10-28T14:19:51Z</time>
      </trkpt>
      <trkpt lat="44.34569" lon="5.7712">
        <ele>598</ele>
        <time>2022-10-28T14:19:52Z</time>
      </trkpt>
      <trkpt lat="44.3457" lon="5.77125">
        <ele>598</ele>
        <time>2022-10-28T14:19:54Z</time>
      </trkpt>
      <trkpt lat="44.34567" lon="5.77129">
        <ele>598</ele>
        <time>2022-10-28T14:19:55Z</time>
      </trkpt>
      <trkpt lat="44.34565" lon="5.77132">
        <ele>598</ele>
        <time>2022-10-28T14:19:56Z</time>
      </trkpt>
      <trkpt lat="44.34562" lon="5.77137">
        <ele>598</ele>
        <time>2022-10-28T14:19:57Z</time>
      </trkpt>
      <trkpt lat="44.3456" lon="5.77141">
        <ele>598</ele>
        <time>2022-10-28T14:19:59Z</time>
      </trkpt>
      <trkpt lat="44.34558" lon="5.77146">
        <ele>598</ele>
        <time>2022-10-28T14:20:00Z</time>
      </trkpt>
      <trkpt lat="44.34555" lon="5.7715">
        <ele>597.9</ele>
        <time>2022-10-28T14:20:01Z</time>
      </trkpt>
      <trkpt lat="44.34553" lon="5.77155">
        <ele>597.9</ele>
        <time>2022-10-28T14:20:02Z</time>
      </trkpt>
      <trkpt lat="44.3455" lon="5.7716">
        <ele>597.8</ele>
        <time>2022-10-28T14:20:03Z</time>
      </trkpt>
      <trkpt lat="44.34548" lon="5.77166">
        <ele>597.8</ele>
        <time>2022-10-28T14:20:04Z</time>
      </trkpt>
      <trkpt lat="44.34545" lon="5.77172">
        <ele>597.7</ele>
        <time>2022-10-28T14:20:05Z</time>
      </trkpt>
      <trkpt lat="44.34541" lon="5.7718">
        <ele>597.6</ele>
        <time>2022-10-28T14:20:07Z</time>
      </trkpt>
      <trkpt lat="44.34538" lon="5.77188">
        <ele>597.6</ele>
        <time>2022-10-28T14:20:08Z</time>
      </trkpt>
      <trkpt lat="44.34536" lon="5.77195">
        <ele>597.5</ele>
        <time>2022-10-28T14:20:09Z</time>
      </trkpt>
      <trkpt lat="44.34534" lon="5.77201">
        <ele>597.5</ele>
        <time>2022-10-28T14:20:10Z</time>
      </trkpt>
      <trkpt lat="44.34531" lon="5.77207">
        <ele>597.4</ele>
        <time>2022-10-28T14:20:11Z</time>
      </trkpt>
      <trkpt lat="44.34528" lon="5.77213">
        <ele>597.3</ele>
        <time>2022-10-28T14:20:12Z</time>
      </trkpt>
      <trkpt lat="44.34526" lon="5.7722">
        <ele>597.3</ele>
        <time>2022-10-28T14:20:13Z</time>
      </trkpt>
      <trkpt lat="44.34523" lon="5.77226">
        <ele>597.2</ele>
        <time>2022-10-28T14:20:14Z</time>
      </trkpt>
      <trkpt lat="44.34521" lon="5.77233">
        <ele>597.2</ele>
        <time>2022-10-28T14:20:15Z</time>
      </trkpt>
      <trkpt lat="44.34518" lon="5.7724">
        <ele>597.1</ele>
        <time>2022-10-28T14:20:16Z</time>
      </trkpt>
      <trkpt lat="44.34515" lon="5.77246">
        <ele>597.1</ele>
        <time>2022-10-28T14:20:17Z</time>
      </trkpt>
      <trkpt lat="44.34512" lon="5.77253">
        <ele>597.1</ele>
        <time>2022-10-28T14:20:18Z</time>
      </trkpt>
      <trkpt lat="44.3451" lon="5.7726">
        <ele>597</ele>
        <time>2022-10-28T14:20:19Z</time>
      </trkpt>
      <trkpt lat="44.34507" lon="5.77267">
        <ele>597</ele>
        <time>2022-10-28T14:20:20Z</time>
      </trkpt>
      <trkpt lat="44.34504" lon="5.77274">
        <ele>597</ele>
        <time>2022-10-28T14:20:21Z</time>
      </trkpt>
      <trkpt lat="44.34501" lon="5.77281">
        <ele>597</ele>
        <time>2022-10-28T14:20:22Z</time>
      </trkpt>
      <trkpt lat="44.34497" lon="5.77287">
        <ele>597</ele>
        <time>2022-10-28T14:20:23Z</time>
      </trkpt>
      <trkpt lat="44.34494" lon="5.77294">
        <ele>596.9</ele>
        <time>2022-10-28T14:20:24Z</time>
      </trkpt>
      <trkpt lat="44.34491" lon="5.77301">
        <ele>596.9</ele>
        <time>2022-10-28T14:20:25Z</time>
      </trkpt>
      <trkpt lat="44.34487" lon="5.77307">
        <ele>596.8</ele>
        <time>2022-10-28T14:20:26Z</time>
      </trkpt>
      <trkpt lat="44.34483" lon="5.77314">
        <ele>596.7</ele>
        <time>2022-10-28T14:20:27Z</time>
      </trkpt>
      <trkpt lat="44.34479" lon="5.7732">
        <ele>596.7</ele>
        <time>2022-10-28T14:20:28Z</time>
      </trkpt>
      <trkpt lat="44.34475" lon="5.77326">
        <ele>596.6</ele>
        <time>2022-10-28T14:20:29Z</time>
      </trkpt>
      <trkpt lat="44.34471" lon="5.77332">
        <ele>596.6</ele>
        <time>2022-10-28T14:20:30Z</time>
      </trkpt>
      <trkpt lat="44.34467" lon="5.77338">
        <ele>596.5</ele>
        <time>2022-10-28T14:20:31Z</time>
      </trkpt>
      <trkpt lat="44.34463" lon="5.77344">
        <ele>596.5</ele>
        <time>2022-10-28T14:20:32Z</time>
      </trkpt>
      <trkpt lat="44.34459" lon="5.7735">
        <ele>596.5</ele>
        <time>2022-10-28T14:20:33Z</time>
      </trkpt>
      <trkpt lat="44.34455" lon="5.77356">
        <ele>596.4</ele>
        <time>2022-10-28T14:20:34Z</time>
      </trkpt>
      <trkpt lat="44.34451" lon="5.77362">
        <ele>596.4</ele>
        <time>2022-10-28T14:20:35Z</time>
      </trkpt>
      <trkpt lat="44.34447" lon="5.77368">
        <ele>596.4</ele>
        <time>2022-10-28T14:20:36Z</time>
      </trkpt>
      <trkpt lat="44.34443" lon="5.77373">
        <ele>596.5</ele>
        <time>2022-10-28T14:20:37Z</time>
      </trkpt>
      <trkpt lat="44.34438" lon="5.77379">
        <ele>596.5</ele>
        <time>2022-10-28T14:20:38Z</time>
      </trkpt>
      <trkpt lat="44.34434" lon="5.77385">
        <ele>596.5</ele>
        <time>2022-10-28T14:20:39Z</time>
      </trkpt>
      <trkpt lat="44.3443" lon="5.7739">
        <ele>596.5</ele>
        <time>2022-10-28T14:20:40Z</time>
      </trkpt>
      <trkpt lat="44.34426" lon="5.77396">
        <ele>596.5</ele>
        <time>2022-10-28T14:20:41Z</time>
      </trkpt>
      <trkpt lat="44.34422" lon="5.77402">
        <ele>596.5</ele>
        <time>2022-10-28T14:20:42Z</time>
      </trkpt>
      <trkpt lat="44.34418" lon="5.77407">
        <ele>596.6</ele>
        <time>2022-10-28T14:20:43Z</time>
      </trkpt>
      <trkpt lat="44.34414" lon="5.77413">
        <ele>596.6</ele>
        <time>2022-10-28T14:20:44Z</time>
      </trkpt>
      <trkpt lat="44.34411" lon="5.77418">
        <ele>596.7</ele>
        <time>2022-10-28T14:20:45Z</time>
      </trkpt>
      <trkpt lat="44.34407" lon="5.77424">
        <ele>596.7</ele>
        <time>2022-10-28T14:20:46Z</time>
      </trkpt>
      <trkpt lat="44.34403" lon="5.77429">
        <ele>596.8</ele>
        <time>2022-10-28T14:20:47Z</time>
      </trkpt>
      <trkpt lat="44.344" lon="5.77434">
        <ele>596.8</ele>
        <time>2022-10-28T14:20:48Z</time>
      </trkpt>
      <trkpt lat="44.34397" lon="5.7744">
        <ele>596.8</ele>
        <time>2022-10-28T14:20:49Z</time>
      </trkpt>
      <trkpt lat="44.34393" lon="5.77445">
        <ele>596.9</ele>
        <time>2022-10-28T14:20:50Z</time>
      </trkpt>
      <trkpt lat="44.3439" lon="5.7745">
        <ele>596.9</ele>
        <time>2022-10-28T14:20:51Z</time>
      </trkpt>
      <trkpt lat="44.34386" lon="5.77455">
        <ele>597</ele>
        <time>2022-10-28T14:20:52Z</time>
      </trkpt>
      <trkpt lat="44.34383" lon="5.7746">
        <ele>597</ele>
        <time>2022-10-28T14:20:53Z</time>
      </trkpt>
      <trkpt lat="44.34379" lon="5.77464">
        <ele>597.1</ele>
        <time>2022-10-28T14:20:54Z</time>
      </trkpt>
      <trkpt lat="44.34375" lon="5.77469">
        <ele>597.1</ele>
        <time>2022-10-28T14:20:55Z</time>
      </trkpt>
      <trkpt lat="44.34372" lon="5.77473">
        <ele>597.2</ele>
        <time>2022-10-28T14:20:56Z</time>
      </trkpt>
      <trkpt lat="44.34368" lon="5.77478">
        <ele>597.2</ele>
        <time>2022-10-28T14:20:57Z</time>
      </trkpt>
      <trkpt lat="44.34365" lon="5.77483">
        <ele>597.3</ele>
        <time>2022-10-28T14:20:58Z</time>
      </trkpt>
      <trkpt lat="44.34361" lon="5.77487">
        <ele>597.3</ele>
        <time>2022-10-28T14:20:59Z</time>
      </trkpt>
      <trkpt lat="44.34357" lon="5.77491">
        <ele>597.4</ele>
        <time>2022-10-28T14:21:00Z</time>
      </trkpt>
      <trkpt lat="44.34353" lon="5.77495">
        <ele>597.4</ele>
        <time>2022-10-28T14:21:01Z</time>
      </trkpt>
      <trkpt lat="44.34349" lon="5.77499">
        <ele>597.5</ele>
        <time>2022-10-28T14:21:02Z</time>
      </trkpt>
      <trkpt lat="44.34345" lon="5.77502">
        <ele>597.5</ele>
        <time>2022-10-28T14:21:03Z</time>
      </trkpt>
      <trkpt lat="44.34341" lon="5.77505">
        <ele>597.5</ele>
        <time>2022-10-28T14:21:04Z</time>
      </trkpt>
      <trkpt lat="44.34337" lon="5.77509">
        <ele>597.6</ele>
        <time>2022-10-28T14:21:05Z</time>
      </trkpt>
      <trkpt lat="44.34333" lon="5.77512">
        <ele>597.6</ele>
        <time>2022-10-28T14:21:06Z</time>
      </trkpt>
      <trkpt lat="44.34328" lon="5.77514">
        <ele>597.6</ele>
        <time>2022-10-28T14:21:07Z</time>
      </trkpt>
      <trkpt lat="44.34323" lon="5.77517">
        <ele>597.5</ele>
        <time>2022-10-28T14:21:08Z</time>
      </trkpt>
      <trkpt lat="44.34319" lon="5.7752">
        <ele>597.5</ele>
        <time>2022-10-28T14:21:09Z</time>
      </trkpt>
      <trkpt lat="44.34314" lon="5.77523">
        <ele>597.4</ele>
        <time>2022-10-28T14:21:10Z</time>
      </trkpt>
      <trkpt lat="44.34309" lon="5.77526">
        <ele>597.4</ele>
        <time>2022-10-28T14:21:11Z</time>
      </trkpt>
      <trkpt lat="44.34303" lon="5.77529">
        <ele>597.4</ele>
        <time>2022-10-28T14:21:12Z</time>
      </trkpt>
      <trkpt lat="44.34298" lon="5.77531">
        <ele>597.3</ele>
        <time>2022-10-28T14:21:13Z</time>
      </trkpt>
      <trkpt lat="44.34293" lon="5.77534">
        <ele>597.3</ele>
        <time>2022-10-28T14:21:14Z</time>
      </trkpt>
      <trkpt lat="44.34288" lon="5.77537">
        <ele>597.3</ele>
        <time>2022-10-28T14:21:15Z</time>
      </trkpt>
      <trkpt lat="44.34283" lon="5.7754">
        <ele>597.3</ele>
        <time>2022-10-28T14:21:16Z</time>
      </trkpt>
      <trkpt lat="44.34278" lon="5.77543">
        <ele>597.4</ele>
        <time>2022-10-28T14:21:17Z</time>
      </trkpt>
      <trkpt lat="44.34272" lon="5.77546">
        <ele>597.4</ele>
        <time>2022-10-28T14:21:18Z</time>
      </trkpt>
      <trkpt lat="44.34267" lon="5.77549">
        <ele>597.4</ele>
        <time>2022-10-28T14:21:19Z</time>
      </trkpt>
      <trkpt lat="44.34261" lon="5.77551">
        <ele>597.4</ele>
        <time>2022-10-28T14:21:20Z</time>
      </trkpt>
      <trkpt lat="44.34256" lon="5.77555">
        <ele>597.5</ele>
        <time>2022-10-28T14:21:21Z</time>
      </trkpt>
      <trkpt lat="44.34251" lon="5.77558">
        <ele>597.5</ele>
        <time>2022-10-28T14:21:22Z</time>
      </trkpt>
      <trkpt lat="44.34246" lon="5.77562">
        <ele>597.5</ele>
        <time>2022-10-28T14:21:23Z</time>
      </trkpt>
      <trkpt lat="44.34241" lon="5.77565">
        <ele>597.5</ele>
        <time>2022-10-28T14:21:24Z</time>
      </trkpt>
      <trkpt lat="44.34236" lon="5.77568">
        <ele>597.5</ele>
        <time>2022-10-28T14:21:25Z</time>
      </trkpt>
      <trkpt lat="44.34231" lon="5.77572">
        <ele>597.5</ele>
        <time>2022-10-28T14:21:26Z</time>
      </trkpt>
      <trkpt lat="44.34226" lon="5.77576">
        <ele>597.5</ele>
        <time>2022-10-28T14:21:27Z</time>
      </trkpt>
      <trkpt lat="44.34221" lon="5.7758">
        <ele>597.5</ele>
        <time>2022-10-28T14:21:28Z</time>
      </trkpt>
      <trkpt lat="44.34216" lon="5.77584">
        <ele>597.5</ele>
        <time>2022-10-28T14:21:29Z</time>
      </trkpt>
      <trkpt lat="44.34211" lon="5.77587">
        <ele>597.5</ele>
        <time>2022-10-28T14:21:30Z</time>
      </trkpt>
      <trkpt lat="44.34207" lon="5.77591">
        <ele>597.5</ele>
        <time>2022-10-28T14:21:31Z</time>
      </trkpt>
      <trkpt lat="44.34202" lon="5.77596">
        <ele>597.5</ele>
        <time>2022-10-28T14:21:32Z</time>
      </trkpt>
      <trkpt lat="44.34197" lon="5.776">
        <ele>597.5</ele>
        <time>2022-10-28T14:21:33Z</time>
      </trkpt>
      <trkpt lat="44.34193" lon="5.77604">
        <ele>597.5</ele>
        <time>2022-10-28T14:21:34Z</time>
      </trkpt>
      <trkpt lat="44.34188" lon="5.77608">
        <ele>597.5</ele>
        <time>2022-10-28T14:21:35Z</time>
      </trkpt>
      <trkpt lat="44.34183" lon="5.77613">
        <ele>597.5</ele>
        <time>2022-10-28T14:21:36Z</time>
      </trkpt>
      <trkpt lat="44.34178" lon="5.77618">
        <ele>597.5</ele>
        <time>2022-10-28T14:21:37Z</time>
      </trkpt>
      <trkpt lat="44.34174" lon="5.77623">
        <ele>597.6</ele>
        <time>2022-10-28T14:21:38Z</time>
      </trkpt>
      <trkpt lat="44.34169" lon="5.77628">
        <ele>597.7</ele>
        <time>2022-10-28T14:21:39Z</time>
      </trkpt>
      <trkpt lat="44.34165" lon="5.77633">
        <ele>597.7</ele>
        <time>2022-10-28T14:21:40Z</time>
      </trkpt>
      <trkpt lat="44.34161" lon="5.77638">
        <ele>597.8</ele>
        <time>2022-10-28T14:21:41Z</time>
      </trkpt>
      <trkpt lat="44.34156" lon="5.77644">
        <ele>597.9</ele>
        <time>2022-10-28T14:21:42Z</time>
      </trkpt>
      <trkpt lat="44.34152" lon="5.77649">
        <ele>598</ele>
        <time>2022-10-28T14:21:43Z</time>
      </trkpt>
      <trkpt lat="44.34148" lon="5.77655">
        <ele>598.1</ele>
        <time>2022-10-28T14:21:44Z</time>
      </trkpt>
      <trkpt lat="44.34145" lon="5.7766">
        <ele>598.3</ele>
        <time>2022-10-28T14:21:45Z</time>
      </trkpt>
      <trkpt lat="44.34141" lon="5.77665">
        <ele>598.4</ele>
        <time>2022-10-28T14:21:46Z</time>
      </trkpt>
      <trkpt lat="44.34138" lon="5.77671">
        <ele>598.5</ele>
        <time>2022-10-28T14:21:47Z</time>
      </trkpt>
      <trkpt lat="44.34134" lon="5.77677">
        <ele>598.6</ele>
        <time>2022-10-28T14:21:48Z</time>
      </trkpt>
      <trkpt lat="44.34131" lon="5.77682">
        <ele>598.6</ele>
        <time>2022-10-28T14:21:49Z</time>
      </trkpt>
      <trkpt lat="44.34127" lon="5.77688">
        <ele>598.7</ele>
        <time>2022-10-28T14:21:50Z</time>
      </trkpt>
      <trkpt lat="44.34124" lon="5.77693">
        <ele>598.8</ele>
        <time>2022-10-28T14:21:51Z</time>
      </trkpt>
      <trkpt lat="44.34121" lon="5.77699">
        <ele>598.9</ele>
        <time>2022-10-28T14:21:52Z</time>
      </trkpt>
      <trkpt lat="44.34118" lon="5.77705">
        <ele>599</ele>
        <time>2022-10-28T14:21:53Z</time>
      </trkpt>
      <trkpt lat="44.34114" lon="5.7771">
        <ele>599.1</ele>
        <time>2022-10-28T14:21:54Z</time>
      </trkpt>
      <trkpt lat="44.34111" lon="5.77715">
        <ele>599.2</ele>
        <time>2022-10-28T14:21:55Z</time>
      </trkpt>
      <trkpt lat="44.34108" lon="5.77721">
        <ele>599.3</ele>
        <time>2022-10-28T14:21:56Z</time>
      </trkpt>
      <trkpt lat="44.34105" lon="5.77726">
        <ele>599.4</ele>
        <time>2022-10-28T14:21:57Z</time>
      </trkpt>
      <trkpt lat="44.34102" lon="5.77731">
        <ele>599.5</ele>
        <time>2022-10-28T14:21:58Z</time>
      </trkpt>
      <trkpt lat="44.34099" lon="5.77737">
        <ele>599.6</ele>
        <time>2022-10-28T14:21:59Z</time>
      </trkpt>
      <trkpt lat="44.34096" lon="5.77741">
        <ele>599.6</ele>
        <time>2022-10-28T14:22:00Z</time>
      </trkpt>
      <trkpt lat="44.34093" lon="5.77746">
        <ele>599.7</ele>
        <time>2022-10-28T14:22:01Z</time>
      </trkpt>
      <trkpt lat="44.3409" lon="5.77751">
        <ele>599.8</ele>
        <time>2022-10-28T14:22:02Z</time>
      </trkpt>
      <trkpt lat="44.34086" lon="5.77756">
        <ele>599.8</ele>
        <time>2022-10-28T14:22:03Z</time>
      </trkpt>
      <trkpt lat="44.34083" lon="5.7776">
        <ele>599.9</ele>
        <time>2022-10-28T14:22:04Z</time>
      </trkpt>
      <trkpt lat="44.3408" lon="5.77765">
        <ele>599.9</ele>
        <time>2022-10-28T14:22:05Z</time>
      </trkpt>
      <trkpt lat="44.34077" lon="5.7777">
        <ele>599.9</ele>
        <time>2022-10-28T14:22:06Z</time>
      </trkpt>
      <trkpt lat="44.34074" lon="5.77775">
        <ele>599.9</ele>
        <time>2022-10-28T14:22:07Z</time>
      </trkpt>
      <trkpt lat="44.3407" lon="5.77779">
        <ele>599.9</ele>
        <time>2022-10-28T14:22:08Z</time>
      </trkpt>
      <trkpt lat="44.34066" lon="5.77784">
        <ele>599.9</ele>
        <time>2022-10-28T14:22:09Z</time>
      </trkpt>
      <trkpt lat="44.34062" lon="5.77788">
        <ele>599.9</ele>
        <time>2022-10-28T14:22:10Z</time>
      </trkpt>
      <trkpt lat="44.34058" lon="5.77793">
        <ele>599.9</ele>
        <time>2022-10-28T14:22:11Z</time>
      </trkpt>
      <trkpt lat="44.34054" lon="5.77798">
        <ele>599.9</ele>
        <time>2022-10-28T14:22:12Z</time>
      </trkpt>
      <trkpt lat="44.34051" lon="5.77803">
        <ele>599.9</ele>
        <time>2022-10-28T14:22:13Z</time>
      </trkpt>
      <trkpt lat="44.34046" lon="5.77808">
        <ele>599.8</ele>
        <time>2022-10-28T14:22:14Z</time>
      </trkpt>
      <trkpt lat="44.34042" lon="5.77813">
        <ele>599.8</ele>
        <time>2022-10-28T14:22:15Z</time>
      </trkpt>
      <trkpt lat="44.34038" lon="5.77818">
        <ele>599.8</ele>
        <time>2022-10-28T14:22:16Z</time>
      </trkpt>
      <trkpt lat="44.34034" lon="5.77822">
        <ele>599.8</ele>
        <time>2022-10-28T14:22:17Z</time>
      </trkpt>
      <trkpt lat="44.34029" lon="5.77827">
        <ele>599.7</ele>
        <time>2022-10-28T14:22:18Z</time>
      </trkpt>
      <trkpt lat="44.34025" lon="5.77831">
        <ele>599.7</ele>
        <time>2022-10-28T14:22:19Z</time>
      </trkpt>
      <trkpt lat="44.34021" lon="5.77835">
        <ele>599.7</ele>
        <time>2022-10-28T14:22:20Z</time>
      </trkpt>
      <trkpt lat="44.34016" lon="5.77839">
        <ele>599.6</ele>
        <time>2022-10-28T14:22:21Z</time>
      </trkpt>
      <trkpt lat="44.34012" lon="5.77843">
        <ele>599.6</ele>
        <time>2022-10-28T14:22:22Z</time>
      </trkpt>
      <trkpt lat="44.34007" lon="5.77847">
        <ele>599.5</ele>
        <time>2022-10-28T14:22:23Z</time>
      </trkpt>
      <trkpt lat="44.34002" lon="5.77851">
        <ele>599.5</ele>
        <time>2022-10-28T14:22:24Z</time>
      </trkpt>
      <trkpt lat="44.33997" lon="5.77855">
        <ele>599.4</ele>
        <time>2022-10-28T14:22:25Z</time>
      </trkpt>
      <trkpt lat="44.33992" lon="5.77858">
        <ele>599.3</ele>
        <time>2022-10-28T14:22:26Z</time>
      </trkpt>
      <trkpt lat="44.33986" lon="5.77862">
        <ele>599.2</ele>
        <time>2022-10-28T14:22:27Z</time>
      </trkpt>
      <trkpt lat="44.33981" lon="5.77865">
        <ele>599.1</ele>
        <time>2022-10-28T14:22:28Z</time>
      </trkpt>
      <trkpt lat="44.33975" lon="5.77869">
        <ele>599</ele>
        <time>2022-10-28T14:22:29Z</time>
      </trkpt>
      <trkpt lat="44.33969" lon="5.77872">
        <ele>598.9</ele>
        <time>2022-10-28T14:22:30Z</time>
      </trkpt>
      <trkpt lat="44.33964" lon="5.77875">
        <ele>598.9</ele>
        <time>2022-10-28T14:22:31Z</time>
      </trkpt>
      <trkpt lat="44.33958" lon="5.77878">
        <ele>598.8</ele>
        <time>2022-10-28T14:22:32Z</time>
      </trkpt>
      <trkpt lat="44.33952" lon="5.7788">
        <ele>598.7</ele>
        <time>2022-10-28T14:22:33Z</time>
      </trkpt>
      <trkpt lat="44.33946" lon="5.77883">
        <ele>598.7</ele>
        <time>2022-10-28T14:22:34Z</time>
      </trkpt>
      <trkpt lat="44.3394" lon="5.77886">
        <ele>598.7</ele>
        <time>2022-10-28T14:22:35Z</time>
      </trkpt>
      <trkpt lat="44.33934" lon="5.77889">
        <ele>598.6</ele>
        <time>2022-10-28T14:22:36Z</time>
      </trkpt>
      <trkpt lat="44.33929" lon="5.77892">
        <ele>598.6</ele>
        <time>2022-10-28T14:22:37Z</time>
      </trkpt>
      <trkpt lat="44.33923" lon="5.77894">
        <ele>598.6</ele>
        <time>2022-10-28T14:22:38Z</time>
      </trkpt>
      <trkpt lat="44.33917" lon="5.77897">
        <ele>598.5</ele>
        <time>2022-10-28T14:22:39Z</time>
      </trkpt>
      <trkpt lat="44.33912" lon="5.779">
        <ele>598.5</ele>
        <time>2022-10-28T14:22:40Z</time>
      </trkpt>
      <trkpt lat="44.33906" lon="5.77902">
        <ele>598.5</ele>
        <time>2022-10-28T14:22:41Z</time>
      </trkpt>
      <trkpt lat="44.339" lon="5.77905">
        <ele>598.5</ele>
        <time>2022-10-28T14:22:42Z</time>
      </trkpt>
      <trkpt lat="44.33895" lon="5.77908">
        <ele>598.5</ele>
        <time>2022-10-28T14:22:43Z</time>
      </trkpt>
      <trkpt lat="44.3389" lon="5.7791">
        <ele>598.4</ele>
        <time>2022-10-28T14:22:44Z</time>
      </trkpt>
      <trkpt lat="44.33885" lon="5.77913">
        <ele>598.4</ele>
        <time>2022-10-28T14:22:45Z</time>
      </trkpt>
      <trkpt lat="44.33879" lon="5.77915">
        <ele>598.4</ele>
        <time>2022-10-28T14:22:46Z</time>
      </trkpt>
      <trkpt lat="44.33874" lon="5.77918">
        <ele>598.4</ele>
        <time>2022-10-28T14:22:47Z</time>
      </trkpt>
      <trkpt lat="44.33868" lon="5.77921">
        <ele>598.4</ele>
        <time>2022-10-28T14:22:48Z</time>
      </trkpt>
      <trkpt lat="44.33863" lon="5.77923">
        <ele>598.4</ele>
        <time>2022-10-28T14:22:49Z</time>
      </trkpt>
      <trkpt lat="44.33858" lon="5.77925">
        <ele>598.4</ele>
        <time>2022-10-28T14:22:50Z</time>
      </trkpt>
      <trkpt lat="44.33852" lon="5.77928">
        <ele>598.4</ele>
        <time>2022-10-28T14:22:51Z</time>
      </trkpt>
      <trkpt lat="44.33847" lon="5.77931">
        <ele>598.4</ele>
        <time>2022-10-28T14:22:52Z</time>
      </trkpt>
      <trkpt lat="44.33842" lon="5.77933">
        <ele>598.4</ele>
        <time>2022-10-28T14:22:53Z</time>
      </trkpt>
      <trkpt lat="44.33837" lon="5.77936">
        <ele>598.4</ele>
        <time>2022-10-28T14:22:54Z</time>
      </trkpt>
      <trkpt lat="44.33833" lon="5.77938">
        <ele>598.4</ele>
        <time>2022-10-28T14:22:55Z</time>
      </trkpt>
      <trkpt lat="44.33828" lon="5.77941">
        <ele>598.4</ele>
        <time>2022-10-28T14:22:56Z</time>
      </trkpt>
      <trkpt lat="44.33823" lon="5.77945">
        <ele>598.3</ele>
        <time>2022-10-28T14:22:57Z</time>
      </trkpt>
      <trkpt lat="44.33818" lon="5.77948">
        <ele>598.3</ele>
        <time>2022-10-28T14:22:58Z</time>
      </trkpt>
      <trkpt lat="44.33814" lon="5.77951">
        <ele>598.3</ele>
        <time>2022-10-28T14:22:59Z</time>
      </trkpt>
      <trkpt lat="44.33809" lon="5.77954">
        <ele>598.3</ele>
        <time>2022-10-28T14:23:00Z</time>
      </trkpt>
      <trkpt lat="44.33804" lon="5.77958">
        <ele>598.2</ele>
        <time>2022-10-28T14:23:01Z</time>
      </trkpt>
      <trkpt lat="44.338" lon="5.77962">
        <ele>598.2</ele>
        <time>2022-10-28T14:23:02Z</time>
      </trkpt>
      <trkpt lat="44.33795" lon="5.77965">
        <ele>598.2</ele>
        <time>2022-10-28T14:23:03Z</time>
      </trkpt>
      <trkpt lat="44.33791" lon="5.7797">
        <ele>598.2</ele>
        <time>2022-10-28T14:23:04Z</time>
      </trkpt>
      <trkpt lat="44.33786" lon="5.77974">
        <ele>598.2</ele>
        <time>2022-10-28T14:23:05Z</time>
      </trkpt>
      <trkpt lat="44.33782" lon="5.77978">
        <ele>598.2</ele>
        <time>2022-10-28T14:23:06Z</time>
      </trkpt>
      <trkpt lat="44.33778" lon="5.77982">
        <ele>598.1</ele>
        <time>2022-10-28T14:23:07Z</time>
      </trkpt>
      <trkpt lat="44.33774" lon="5.77987">
        <ele>598.1</ele>
        <time>2022-10-28T14:23:08Z</time>
      </trkpt>
      <trkpt lat="44.3377" lon="5.77991">
        <ele>598.1</ele>
        <time>2022-10-28T14:23:09Z</time>
      </trkpt>
      <trkpt lat="44.33765" lon="5.77995">
        <ele>598.1</ele>
        <time>2022-10-28T14:23:10Z</time>
      </trkpt>
      <trkpt lat="44.33761" lon="5.78">
        <ele>598.1</ele>
        <time>2022-10-28T14:23:11Z</time>
      </trkpt>
      <trkpt lat="44.33757" lon="5.78005">
        <ele>598</ele>
        <time>2022-10-28T14:23:12Z</time>
      </trkpt>
      <trkpt lat="44.33753" lon="5.7801">
        <ele>598</ele>
        <time>2022-10-28T14:23:13Z</time>
      </trkpt>
      <trkpt lat="44.33749" lon="5.78014">
        <ele>598</ele>
        <time>2022-10-28T14:23:14Z</time>
      </trkpt>
      <trkpt lat="44.33745" lon="5.78019">
        <ele>598</ele>
        <time>2022-10-28T14:23:15Z</time>
      </trkpt>
      <trkpt lat="44.33742" lon="5.78024">
        <ele>597.9</ele>
        <time>2022-10-28T14:23:16Z</time>
      </trkpt>
      <trkpt lat="44.33738" lon="5.7803">
        <ele>597.9</ele>
        <time>2022-10-28T14:23:17Z</time>
      </trkpt>
      <trkpt lat="44.33734" lon="5.78035">
        <ele>597.9</ele>
        <time>2022-10-28T14:23:18Z</time>
      </trkpt>
      <trkpt lat="44.3373" lon="5.78041">
        <ele>597.8</ele>
        <time>2022-10-28T14:23:19Z</time>
      </trkpt>
      <trkpt lat="44.33727" lon="5.78047">
        <ele>597.8</ele>
        <time>2022-10-28T14:23:20Z</time>
      </trkpt>
      <trkpt lat="44.33723" lon="5.78053">
        <ele>597.7</ele>
        <time>2022-10-28T14:23:21Z</time>
      </trkpt>
      <trkpt lat="44.33719" lon="5.78059">
        <ele>597.6</ele>
        <time>2022-10-28T14:23:22Z</time>
      </trkpt>
      <trkpt lat="44.33714" lon="5.78065">
        <ele>597.6</ele>
        <time>2022-10-28T14:23:23Z</time>
      </trkpt>
      <trkpt lat="44.3371" lon="5.78071">
        <ele>597.5</ele>
        <time>2022-10-28T14:23:24Z</time>
      </trkpt>
      <trkpt lat="44.33706" lon="5.78077">
        <ele>597.5</ele>
        <time>2022-10-28T14:23:25Z</time>
      </trkpt>
      <trkpt lat="44.33702" lon="5.78083">
        <ele>597.4</ele>
        <time>2022-10-28T14:23:26Z</time>
      </trkpt>
      <trkpt lat="44.33698" lon="5.78089">
        <ele>597.3</ele>
        <time>2022-10-28T14:23:27Z</time>
      </trkpt>
      <trkpt lat="44.33695" lon="5.78095">
        <ele>597.2</ele>
        <time>2022-10-28T14:23:28Z</time>
      </trkpt>
      <trkpt lat="44.3369" lon="5.78101">
        <ele>597.2</ele>
        <time>2022-10-28T14:23:29Z</time>
      </trkpt>
      <trkpt lat="44.33686" lon="5.78108">
        <ele>597.1</ele>
        <time>2022-10-28T14:23:30Z</time>
      </trkpt>
      <trkpt lat="44.33682" lon="5.78114">
        <ele>597</ele>
        <time>2022-10-28T14:23:31Z</time>
      </trkpt>
      <trkpt lat="44.33678" lon="5.78121">
        <ele>596.9</ele>
        <time>2022-10-28T14:23:32Z</time>
      </trkpt>
      <trkpt lat="44.33673" lon="5.78127">
        <ele>596.8</ele>
        <time>2022-10-28T14:23:33Z</time>
      </trkpt>
      <trkpt lat="44.33669" lon="5.78134">
        <ele>596.8</ele>
        <time>2022-10-28T14:23:34Z</time>
      </trkpt>
      <trkpt lat="44.33665" lon="5.7814">
        <ele>596.7</ele>
        <time>2022-10-28T14:23:35Z</time>
      </trkpt>
      <trkpt lat="44.33661" lon="5.78147">
        <ele>596.6</ele>
        <time>2022-10-28T14:23:36Z</time>
      </trkpt>
      <trkpt lat="44.33656" lon="5.78154">
        <ele>596.5</ele>
        <time>2022-10-28T14:23:37Z</time>
      </trkpt>
      <trkpt lat="44.33652" lon="5.7816">
        <ele>596.4</ele>
        <time>2022-10-28T14:23:38Z</time>
      </trkpt>
      <trkpt lat="44.33648" lon="5.78166">
        <ele>596.3</ele>
        <time>2022-10-28T14:23:39Z</time>
      </trkpt>
      <trkpt lat="44.33644" lon="5.78173">
        <ele>596.2</ele>
        <time>2022-10-28T14:23:40Z</time>
      </trkpt>
      <trkpt lat="44.3364" lon="5.78179">
        <ele>596</ele>
        <time>2022-10-28T14:23:41Z</time>
      </trkpt>
      <trkpt lat="44.33636" lon="5.78185">
        <ele>595.9</ele>
        <time>2022-10-28T14:23:42Z</time>
      </trkpt>
      <trkpt lat="44.33632" lon="5.78191">
        <ele>595.7</ele>
        <time>2022-10-28T14:23:43Z</time>
      </trkpt>
      <trkpt lat="44.33628" lon="5.78198">
        <ele>595.6</ele>
        <time>2022-10-28T14:23:44Z</time>
      </trkpt>
      <trkpt lat="44.33624" lon="5.78204">
        <ele>595.4</ele>
        <time>2022-10-28T14:23:45Z</time>
      </trkpt>
      <trkpt lat="44.33619" lon="5.7821">
        <ele>595.3</ele>
        <time>2022-10-28T14:23:46Z</time>
      </trkpt>
      <trkpt lat="44.33615" lon="5.78217">
        <ele>595.1</ele>
        <time>2022-10-28T14:23:47Z</time>
      </trkpt>
      <trkpt lat="44.33611" lon="5.78224">
        <ele>595</ele>
        <time>2022-10-28T14:23:48Z</time>
      </trkpt>
      <trkpt lat="44.33606" lon="5.78231">
        <ele>594.8</ele>
        <time>2022-10-28T14:23:49Z</time>
      </trkpt>
      <trkpt lat="44.33602" lon="5.78238">
        <ele>594.7</ele>
        <time>2022-10-28T14:23:50Z</time>
      </trkpt>
      <trkpt lat="44.33597" lon="5.78245">
        <ele>594.5</ele>
        <time>2022-10-28T14:23:51Z</time>
      </trkpt>
      <trkpt lat="44.33593" lon="5.78252">
        <ele>594.3</ele>
        <time>2022-10-28T14:23:52Z</time>
      </trkpt>
      <trkpt lat="44.33588" lon="5.78259">
        <ele>594.2</ele>
        <time>2022-10-28T14:23:53Z</time>
      </trkpt>
      <trkpt lat="44.33583" lon="5.78266">
        <ele>594</ele>
        <time>2022-10-28T14:23:54Z</time>
      </trkpt>
      <trkpt lat="44.33579" lon="5.78273">
        <ele>593.8</ele>
        <time>2022-10-28T14:23:55Z</time>
      </trkpt>
      <trkpt lat="44.33574" lon="5.7828">
        <ele>593.6</ele>
        <time>2022-10-28T14:23:56Z</time>
      </trkpt>
      <trkpt lat="44.3357" lon="5.78287">
        <ele>593.4</ele>
        <time>2022-10-28T14:23:57Z</time>
      </trkpt>
      <trkpt lat="44.33565" lon="5.78294">
        <ele>593.1</ele>
        <time>2022-10-28T14:23:58Z</time>
      </trkpt>
      <trkpt lat="44.3356" lon="5.78301">
        <ele>592.9</ele>
        <time>2022-10-28T14:23:59Z</time>
      </trkpt>
      <trkpt lat="44.33556" lon="5.78309">
        <ele>592.6</ele>
        <time>2022-10-28T14:24:00Z</time>
      </trkpt>
      <trkpt lat="44.33551" lon="5.78316">
        <ele>592.4</ele>
        <time>2022-10-28T14:24:01Z</time>
      </trkpt>
      <trkpt lat="44.33545" lon="5.78323">
        <ele>592.1</ele>
        <time>2022-10-28T14:24:02Z</time>
      </trkpt>
      <trkpt lat="44.3354" lon="5.78331">
        <ele>591.8</ele>
        <time>2022-10-28T14:24:03Z</time>
      </trkpt>
      <trkpt lat="44.33535" lon="5.78339">
        <ele>591.6</ele>
        <time>2022-10-28T14:24:04Z</time>
      </trkpt>
      <trkpt lat="44.3353" lon="5.78348">
        <ele>591.3</ele>
        <time>2022-10-28T14:24:05Z</time>
      </trkpt>
      <trkpt lat="44.33524" lon="5.78356">
        <ele>591.1</ele>
        <time>2022-10-28T14:24:06Z</time>
      </trkpt>
      <trkpt lat="44.33519" lon="5.78364">
        <ele>590.8</ele>
        <time>2022-10-28T14:24:07Z</time>
      </trkpt>
      <trkpt lat="44.33514" lon="5.78373">
        <ele>590.6</ele>
        <time>2022-10-28T14:24:08Z</time>
      </trkpt>
      <trkpt lat="44.33508" lon="5.78381">
        <ele>590.4</ele>
        <time>2022-10-28T14:24:09Z</time>
      </trkpt>
      <trkpt lat="44.33502" lon="5.7839">
        <ele>590.2</ele>
        <time>2022-10-28T14:24:10Z</time>
      </trkpt>
      <trkpt lat="44.33497" lon="5.78398">
        <ele>590</ele>
        <time>2022-10-28T14:24:11Z</time>
      </trkpt>
      <trkpt lat="44.33492" lon="5.78407">
        <ele>589.9</ele>
        <time>2022-10-28T14:24:12Z</time>
      </trkpt>
      <trkpt lat="44.33486" lon="5.78415">
        <ele>589.9</ele>
        <time>2022-10-28T14:24:13Z</time>
      </trkpt>
      <trkpt lat="44.33481" lon="5.78423">
        <ele>589.8</ele>
        <time>2022-10-28T14:24:14Z</time>
      </trkpt>
      <trkpt lat="44.33476" lon="5.7843">
        <ele>589.8</ele>
        <time>2022-10-28T14:24:15Z</time>
      </trkpt>
      <trkpt lat="44.33471" lon="5.78438">
        <ele>589.8</ele>
        <time>2022-10-28T14:24:16Z</time>
      </trkpt>
      <trkpt lat="44.33466" lon="5.78445">
        <ele>589.8</ele>
        <time>2022-10-28T14:24:17Z</time>
      </trkpt>
      <trkpt lat="44.33461" lon="5.78452">
        <ele>589.8</ele>
        <time>2022-10-28T14:24:18Z</time>
      </trkpt>
      <trkpt lat="44.33456" lon="5.78459">
        <ele>589.8</ele>
        <time>2022-10-28T14:24:19Z</time>
      </trkpt>
      <trkpt lat="44.33452" lon="5.78466">
        <ele>589.8</ele>
        <time>2022-10-28T14:24:20Z</time>
      </trkpt>
      <trkpt lat="44.33447" lon="5.78473">
        <ele>589.8</ele>
        <time>2022-10-28T14:24:21Z</time>
      </trkpt>
      <trkpt lat="44.33443" lon="5.7848">
        <ele>589.8</ele>
        <time>2022-10-28T14:24:22Z</time>
      </trkpt>
      <trkpt lat="44.33438" lon="5.78487">
        <ele>589.8</ele>
        <time>2022-10-28T14:24:23Z</time>
      </trkpt>
      <trkpt lat="44.33434" lon="5.78494">
        <ele>589.8</ele>
        <time>2022-10-28T14:24:24Z</time>
      </trkpt>
      <trkpt lat="44.33429" lon="5.785">
        <ele>589.8</ele>
        <time>2022-10-28T14:24:25Z</time>
      </trkpt>
      <trkpt lat="44.33425" lon="5.78507">
        <ele>589.8</ele>
        <time>2022-10-28T14:24:26Z</time>
      </trkpt>
      <trkpt lat="44.3342" lon="5.78514">
        <ele>589.8</ele>
        <time>2022-10-28T14:24:27Z</time>
      </trkpt>
      <trkpt lat="44.33416" lon="5.78521">
        <ele>589.8</ele>
        <time>2022-10-28T14:24:28Z</time>
      </trkpt>
      <trkpt lat="44.33412" lon="5.78527">
        <ele>589.8</ele>
        <time>2022-10-28T14:24:29Z</time>
      </trkpt>
      <trkpt lat="44.33407" lon="5.78534">
        <ele>589.8</ele>
        <time>2022-10-28T14:24:30Z</time>
      </trkpt>
      <trkpt lat="44.33403" lon="5.78541">
        <ele>589.9</ele>
        <time>2022-10-28T14:24:31Z</time>
      </trkpt>
      <trkpt lat="44.33399" lon="5.78547">
        <ele>589.9</ele>
        <time>2022-10-28T14:24:32Z</time>
      </trkpt>
      <trkpt lat="44.33394" lon="5.78554">
        <ele>589.9</ele>
        <time>2022-10-28T14:24:33Z</time>
      </trkpt>
      <trkpt lat="44.3339" lon="5.7856">
        <ele>590</ele>
        <time>2022-10-28T14:24:34Z</time>
      </trkpt>
      <trkpt lat="44.33385" lon="5.78566">
        <ele>590.1</ele>
        <time>2022-10-28T14:24:35Z</time>
      </trkpt>
      <trkpt lat="44.33381" lon="5.78573">
        <ele>590.2</ele>
        <time>2022-10-28T14:24:36Z</time>
      </trkpt>
      <trkpt lat="44.33377" lon="5.78579">
        <ele>590.3</ele>
        <time>2022-10-28T14:24:37Z</time>
      </trkpt>
      <trkpt lat="44.33373" lon="5.78585">
        <ele>590.4</ele>
        <time>2022-10-28T14:24:38Z</time>
      </trkpt>
      <trkpt lat="44.33369" lon="5.78591">
        <ele>590.5</ele>
        <time>2022-10-28T14:24:39Z</time>
      </trkpt>
      <trkpt lat="44.33365" lon="5.78597">
        <ele>590.7</ele>
        <time>2022-10-28T14:24:40Z</time>
      </trkpt>
      <trkpt lat="44.33361" lon="5.78603">
        <ele>590.8</ele>
        <time>2022-10-28T14:24:41Z</time>
      </trkpt>
      <trkpt lat="44.33357" lon="5.78609">
        <ele>591</ele>
        <time>2022-10-28T14:24:42Z</time>
      </trkpt>
      <trkpt lat="44.33354" lon="5.78614">
        <ele>591.1</ele>
        <time>2022-10-28T14:24:43Z</time>
      </trkpt>
      <trkpt lat="44.3335" lon="5.7862">
        <ele>591.2</ele>
        <time>2022-10-28T14:24:44Z</time>
      </trkpt>
      <trkpt lat="44.33347" lon="5.78625">
        <ele>591.4</ele>
        <time>2022-10-28T14:24:45Z</time>
      </trkpt>
      <trkpt lat="44.33343" lon="5.7863">
        <ele>591.5</ele>
        <time>2022-10-28T14:24:46Z</time>
      </trkpt>
      <trkpt lat="44.3334" lon="5.78635">
        <ele>591.6</ele>
        <time>2022-10-28T14:24:47Z</time>
      </trkpt>
      <trkpt lat="44.33337" lon="5.7864">
        <ele>591.7</ele>
        <time>2022-10-28T14:24:48Z</time>
      </trkpt>
      <trkpt lat="44.33333" lon="5.78645">
        <ele>591.8</ele>
        <time>2022-10-28T14:24:49Z</time>
      </trkpt>
      <trkpt lat="44.3333" lon="5.78649">
        <ele>591.9</ele>
        <time>2022-10-28T14:24:50Z</time>
      </trkpt>
      <trkpt lat="44.33327" lon="5.78654">
        <ele>591.9</ele>
        <time>2022-10-28T14:24:51Z</time>
      </trkpt>
      <trkpt lat="44.33324" lon="5.78659">
        <ele>592</ele>
        <time>2022-10-28T14:24:52Z</time>
      </trkpt>
      <trkpt lat="44.3332" lon="5.78664">
        <ele>592</ele>
        <time>2022-10-28T14:24:53Z</time>
      </trkpt>
      <trkpt lat="44.33317" lon="5.78669">
        <ele>592.1</ele>
        <time>2022-10-28T14:24:54Z</time>
      </trkpt>
      <trkpt lat="44.33313" lon="5.78674">
        <ele>592.2</ele>
        <time>2022-10-28T14:24:55Z</time>
      </trkpt>
      <trkpt lat="44.3331" lon="5.78679">
        <ele>592.2</ele>
        <time>2022-10-28T14:24:56Z</time>
      </trkpt>
      <trkpt lat="44.33307" lon="5.78684">
        <ele>592.3</ele>
        <time>2022-10-28T14:24:57Z</time>
      </trkpt>
      <trkpt lat="44.33303" lon="5.78689">
        <ele>592.4</ele>
        <time>2022-10-28T14:24:58Z</time>
      </trkpt>
      <trkpt lat="44.333" lon="5.78694">
        <ele>592.5</ele>
        <time>2022-10-28T14:24:59Z</time>
      </trkpt>
      <trkpt lat="44.33297" lon="5.78698">
        <ele>592.5</ele>
        <time>2022-10-28T14:25:00Z</time>
      </trkpt>
      <trkpt lat="44.33294" lon="5.78703">
        <ele>592.6</ele>
        <time>2022-10-28T14:25:01Z</time>
      </trkpt>
      <trkpt lat="44.33292" lon="5.78707">
        <ele>592.7</ele>
        <time>2022-10-28T14:25:02Z</time>
      </trkpt>
      <trkpt lat="44.3329" lon="5.7871">
        <ele>592.7</ele>
        <time>2022-10-28T14:25:03Z</time>
      </trkpt>
      <trkpt lat="44.33288" lon="5.78713">
        <ele>592.8</ele>
        <time>2022-10-28T14:25:04Z</time>
      </trkpt>
      <trkpt lat="44.33285" lon="5.78718">
        <ele>592.9</ele>
        <time>2022-10-28T14:25:05Z</time>
      </trkpt>
      <trkpt lat="44.33283" lon="5.78721">
        <ele>592.9</ele>
        <time>2022-10-28T14:25:06Z</time>
      </trkpt>
      <trkpt lat="44.3328" lon="5.78726">
        <ele>593</ele>
        <time>2022-10-28T14:25:07Z</time>
      </trkpt>
      <trkpt lat="44.33278" lon="5.78729">
        <ele>593</ele>
        <time>2022-10-28T14:25:08Z</time>
      </trkpt>
      <trkpt lat="44.33276" lon="5.7873">
        <ele>593.1</ele>
        <time>2022-10-28T14:25:09Z</time>
      </trkpt>
      <trkpt lat="44.33273" lon="5.78736">
        <ele>593.2</ele>
        <time>2022-10-28T14:25:10Z</time>
      </trkpt>
      <trkpt lat="44.33271" lon="5.78741">
        <ele>593.2</ele>
        <time>2022-10-28T14:25:11Z</time>
      </trkpt>
      <trkpt lat="44.33269" lon="5.78745">
        <ele>593.2</ele>
        <time>2022-10-28T14:25:12Z</time>
      </trkpt>
      <trkpt lat="44.33267" lon="5.7875">
        <ele>593.3</ele>
        <time>2022-10-28T14:25:13Z</time>
      </trkpt>
      <trkpt lat="44.33266" lon="5.78754">
        <ele>593.3</ele>
        <time>2022-10-28T14:25:14Z</time>
      </trkpt>
      <trkpt lat="44.33265" lon="5.7876">
        <ele>593.3</ele>
        <time>2022-10-28T14:25:15Z</time>
      </trkpt>
      <trkpt lat="44.33264" lon="5.78765">
        <ele>593.4</ele>
        <time>2022-10-28T14:25:16Z</time>
      </trkpt>
      <trkpt lat="44.33262" lon="5.78773">
        <ele>593.5</ele>
        <time>2022-10-28T14:25:18Z</time>
      </trkpt>
      <trkpt lat="44.33259" lon="5.78781">
        <ele>593.5</ele>
        <time>2022-10-28T14:25:19Z</time>
      </trkpt>
      <trkpt lat="44.33257" lon="5.78788">
        <ele>593.6</ele>
        <time>2022-10-28T14:25:20Z</time>
      </trkpt>
      <trkpt lat="44.33255" lon="5.78796">
        <ele>593.6</ele>
        <time>2022-10-28T14:25:21Z</time>
      </trkpt>
      <trkpt lat="44.33252" lon="5.78802">
        <ele>593.6</ele>
        <time>2022-10-28T14:25:22Z</time>
      </trkpt>
      <trkpt lat="44.33249" lon="5.78807">
        <ele>593.6</ele>
        <time>2022-10-28T14:25:23Z</time>
      </trkpt>
      <trkpt lat="44.33246" lon="5.78813">
        <ele>593.6</ele>
        <time>2022-10-28T14:25:24Z</time>
      </trkpt>
      <trkpt lat="44.33242" lon="5.78818">
        <ele>593.5</ele>
        <time>2022-10-28T14:25:25Z</time>
      </trkpt>
      <trkpt lat="44.33238" lon="5.78823">
        <ele>593.5</ele>
        <time>2022-10-28T14:25:26Z</time>
      </trkpt>
      <trkpt lat="44.33234" lon="5.78827">
        <ele>593.4</ele>
        <time>2022-10-28T14:25:27Z</time>
      </trkpt>
      <trkpt lat="44.3323" lon="5.78831">
        <ele>593.3</ele>
        <time>2022-10-28T14:25:28Z</time>
      </trkpt>
      <trkpt lat="44.33225" lon="5.78835">
        <ele>593.2</ele>
        <time>2022-10-28T14:25:29Z</time>
      </trkpt>
      <trkpt lat="44.33219" lon="5.78838">
        <ele>593.1</ele>
        <time>2022-10-28T14:25:30Z</time>
      </trkpt>
      <trkpt lat="44.33214" lon="5.78841">
        <ele>593</ele>
        <time>2022-10-28T14:25:31Z</time>
      </trkpt>
      <trkpt lat="44.33208" lon="5.78843">
        <ele>592.9</ele>
        <time>2022-10-28T14:25:32Z</time>
      </trkpt>
      <trkpt lat="44.33202" lon="5.78845">
        <ele>592.8</ele>
        <time>2022-10-28T14:25:33Z</time>
      </trkpt>
      <trkpt lat="44.33197" lon="5.78847">
        <ele>592.7</ele>
        <time>2022-10-28T14:25:34Z</time>
      </trkpt>
      <trkpt lat="44.33191" lon="5.7885">
        <ele>592.7</ele>
        <time>2022-10-28T14:25:35Z</time>
      </trkpt>
      <trkpt lat="44.33185" lon="5.78852">
        <ele>592.6</ele>
        <time>2022-10-28T14:25:36Z</time>
      </trkpt>
      <trkpt lat="44.33179" lon="5.78853">
        <ele>592.6</ele>
        <time>2022-10-28T14:25:37Z</time>
      </trkpt>
      <trkpt lat="44.33173" lon="5.78855">
        <ele>592.5</ele>
        <time>2022-10-28T14:25:38Z</time>
      </trkpt>
      <trkpt lat="44.33166" lon="5.78858">
        <ele>592.5</ele>
        <time>2022-10-28T14:25:39Z</time>
      </trkpt>
      <trkpt lat="44.3316" lon="5.78861">
        <ele>592.4</ele>
        <time>2022-10-28T14:25:40Z</time>
      </trkpt>
      <trkpt lat="44.33154" lon="5.78865">
        <ele>592.4</ele>
        <time>2022-10-28T14:25:41Z</time>
      </trkpt>
      <trkpt lat="44.33148" lon="5.78868">
        <ele>592.4</ele>
        <time>2022-10-28T14:25:42Z</time>
      </trkpt>
      <trkpt lat="44.33142" lon="5.78873">
        <ele>592.3</ele>
        <time>2022-10-28T14:25:43Z</time>
      </trkpt>
      <trkpt lat="44.33136" lon="5.78877">
        <ele>592.3</ele>
        <time>2022-10-28T14:25:44Z</time>
      </trkpt>
      <trkpt lat="44.3313" lon="5.78881">
        <ele>592.3</ele>
        <time>2022-10-28T14:25:45Z</time>
      </trkpt>
      <trkpt lat="44.33125" lon="5.78885">
        <ele>592.3</ele>
        <time>2022-10-28T14:25:46Z</time>
      </trkpt>
      <trkpt lat="44.33119" lon="5.78889">
        <ele>592.2</ele>
        <time>2022-10-28T14:25:47Z</time>
      </trkpt>
      <trkpt lat="44.33114" lon="5.78893">
        <ele>592.3</ele>
        <time>2022-10-28T14:25:48Z</time>
      </trkpt>
      <trkpt lat="44.33108" lon="5.78898">
        <ele>592.3</ele>
        <time>2022-10-28T14:25:49Z</time>
      </trkpt>
      <trkpt lat="44.33103" lon="5.78901">
        <ele>592.3</ele>
        <time>2022-10-28T14:25:50Z</time>
      </trkpt>
      <trkpt lat="44.33097" lon="5.78905">
        <ele>592.4</ele>
        <time>2022-10-28T14:25:51Z</time>
      </trkpt>
      <trkpt lat="44.33092" lon="5.78909">
        <ele>592.4</ele>
        <time>2022-10-28T14:25:52Z</time>
      </trkpt>
      <trkpt lat="44.33087" lon="5.78913">
        <ele>592.5</ele>
        <time>2022-10-28T14:25:53Z</time>
      </trkpt>
      <trkpt lat="44.33082" lon="5.78917">
        <ele>592.5</ele>
        <time>2022-10-28T14:25:54Z</time>
      </trkpt>
      <trkpt lat="44.33077" lon="5.7892">
        <ele>592.6</ele>
        <time>2022-10-28T14:25:55Z</time>
      </trkpt>
      <trkpt lat="44.33072" lon="5.78924">
        <ele>592.6</ele>
        <time>2022-10-28T14:25:56Z</time>
      </trkpt>
      <trkpt lat="44.33068" lon="5.78927">
        <ele>592.7</ele>
        <time>2022-10-28T14:25:57Z</time>
      </trkpt>
      <trkpt lat="44.33063" lon="5.78931">
        <ele>592.8</ele>
        <time>2022-10-28T14:25:58Z</time>
      </trkpt>
      <trkpt lat="44.33058" lon="5.78934">
        <ele>592.8</ele>
        <time>2022-10-28T14:25:59Z</time>
      </trkpt>
      <trkpt lat="44.33054" lon="5.78937">
        <ele>592.9</ele>
        <time>2022-10-28T14:26:00Z</time>
      </trkpt>
      <trkpt lat="44.3305" lon="5.7894">
        <ele>592.9</ele>
        <time>2022-10-28T14:26:01Z</time>
      </trkpt>
      <trkpt lat="44.33046" lon="5.78944">
        <ele>593</ele>
        <time>2022-10-28T14:26:02Z</time>
      </trkpt>
      <trkpt lat="44.33042" lon="5.78947">
        <ele>593.1</ele>
        <time>2022-10-28T14:26:03Z</time>
      </trkpt>
      <trkpt lat="44.33038" lon="5.78951">
        <ele>593.1</ele>
        <time>2022-10-28T14:26:04Z</time>
      </trkpt>
      <trkpt lat="44.33034" lon="5.78954">
        <ele>593.2</ele>
        <time>2022-10-28T14:26:05Z</time>
      </trkpt>
      <trkpt lat="44.33029" lon="5.78957">
        <ele>593.3</ele>
        <time>2022-10-28T14:26:06Z</time>
      </trkpt>
      <trkpt lat="44.33025" lon="5.7896">
        <ele>593.3</ele>
        <time>2022-10-28T14:26:07Z</time>
      </trkpt>
      <trkpt lat="44.33021" lon="5.78963">
        <ele>593.4</ele>
        <time>2022-10-28T14:26:08Z</time>
      </trkpt>
      <trkpt lat="44.33017" lon="5.78966">
        <ele>593.4</ele>
        <time>2022-10-28T14:26:09Z</time>
      </trkpt>
      <trkpt lat="44.33012" lon="5.78969">
        <ele>593.4</ele>
        <time>2022-10-28T14:26:10Z</time>
      </trkpt>
      <trkpt lat="44.33008" lon="5.78972">
        <ele>593.5</ele>
        <time>2022-10-28T14:26:11Z</time>
      </trkpt>
      <trkpt lat="44.33004" lon="5.78975">
        <ele>593.5</ele>
        <time>2022-10-28T14:26:12Z</time>
      </trkpt>
      <trkpt lat="44.33" lon="5.78978">
        <ele>593.5</ele>
        <time>2022-10-28T14:26:13Z</time>
      </trkpt>
      <trkpt lat="44.32996" lon="5.78982">
        <ele>593.5</ele>
        <time>2022-10-28T14:26:14Z</time>
      </trkpt>
      <trkpt lat="44.32992" lon="5.78985">
        <ele>593.5</ele>
        <time>2022-10-28T14:26:15Z</time>
      </trkpt>
      <trkpt lat="44.32988" lon="5.78989">
        <ele>593.5</ele>
        <time>2022-10-28T14:26:16Z</time>
      </trkpt>
      <trkpt lat="44.32983" lon="5.78992">
        <ele>593.5</ele>
        <time>2022-10-28T14:26:17Z</time>
      </trkpt>
      <trkpt lat="44.32979" lon="5.78995">
        <ele>593.5</ele>
        <time>2022-10-28T14:26:18Z</time>
      </trkpt>
      <trkpt lat="44.32974" lon="5.78998">
        <ele>593.4</ele>
        <time>2022-10-28T14:26:19Z</time>
      </trkpt>
      <trkpt lat="44.3297" lon="5.79001">
        <ele>593.4</ele>
        <time>2022-10-28T14:26:20Z</time>
      </trkpt>
      <trkpt lat="44.32965" lon="5.79005">
        <ele>593.3</ele>
        <time>2022-10-28T14:26:21Z</time>
      </trkpt>
      <trkpt lat="44.32961" lon="5.79008">
        <ele>593.3</ele>
        <time>2022-10-28T14:26:22Z</time>
      </trkpt>
      <trkpt lat="44.32956" lon="5.79012">
        <ele>593.2</ele>
        <time>2022-10-28T14:26:23Z</time>
      </trkpt>
      <trkpt lat="44.32952" lon="5.79015">
        <ele>593.1</ele>
        <time>2022-10-28T14:26:24Z</time>
      </trkpt>
      <trkpt lat="44.32947" lon="5.79019">
        <ele>593.1</ele>
        <time>2022-10-28T14:26:25Z</time>
      </trkpt>
      <trkpt lat="44.32942" lon="5.79023">
        <ele>593.1</ele>
        <time>2022-10-28T14:26:26Z</time>
      </trkpt>
      <trkpt lat="44.32937" lon="5.79026">
        <ele>593</ele>
        <time>2022-10-28T14:26:27Z</time>
      </trkpt>
      <trkpt lat="44.32932" lon="5.7903">
        <ele>593</ele>
        <time>2022-10-28T14:26:28Z</time>
      </trkpt>
      <trkpt lat="44.32927" lon="5.79033">
        <ele>593.1</ele>
        <time>2022-10-28T14:26:29Z</time>
      </trkpt>
      <trkpt lat="44.32922" lon="5.79037">
        <ele>593.1</ele>
        <time>2022-10-28T14:26:30Z</time>
      </trkpt>
      <trkpt lat="44.32917" lon="5.79041">
        <ele>593.1</ele>
        <time>2022-10-28T14:26:31Z</time>
      </trkpt>
      <trkpt lat="44.32913" lon="5.79045">
        <ele>593.2</ele>
        <time>2022-10-28T14:26:32Z</time>
      </trkpt>
      <trkpt lat="44.32908" lon="5.79049">
        <ele>593.3</ele>
        <time>2022-10-28T14:26:33Z</time>
      </trkpt>
      <trkpt lat="44.32903" lon="5.79052">
        <ele>593.3</ele>
        <time>2022-10-28T14:26:34Z</time>
      </trkpt>
      <trkpt lat="44.32898" lon="5.79055">
        <ele>593.4</ele>
        <time>2022-10-28T14:26:35Z</time>
      </trkpt>
      <trkpt lat="44.32894" lon="5.79059">
        <ele>593.5</ele>
        <time>2022-10-28T14:26:36Z</time>
      </trkpt>
      <trkpt lat="44.32889" lon="5.79062">
        <ele>593.7</ele>
        <time>2022-10-28T14:26:37Z</time>
      </trkpt>
      <trkpt lat="44.32885" lon="5.79065">
        <ele>593.8</ele>
        <time>2022-10-28T14:26:38Z</time>
      </trkpt>
      <trkpt lat="44.32881" lon="5.79069">
        <ele>593.9</ele>
        <time>2022-10-28T14:26:39Z</time>
      </trkpt>
      <trkpt lat="44.32877" lon="5.79072">
        <ele>594.1</ele>
        <time>2022-10-28T14:26:40Z</time>
      </trkpt>
      <trkpt lat="44.32873" lon="5.79075">
        <ele>594.2</ele>
        <time>2022-10-28T14:26:41Z</time>
      </trkpt>
      <trkpt lat="44.32869" lon="5.79078">
        <ele>594.4</ele>
        <time>2022-10-28T14:26:42Z</time>
      </trkpt>
      <trkpt lat="44.32866" lon="5.79079">
        <ele>594.5</ele>
        <time>2022-10-28T14:26:43Z</time>
      </trkpt>
      <trkpt lat="44.32863" lon="5.79082">
        <ele>594.7</ele>
        <time>2022-10-28T14:26:44Z</time>
      </trkpt>
      <trkpt lat="44.3286" lon="5.79084">
        <ele>594.9</ele>
        <time>2022-10-28T14:26:45Z</time>
      </trkpt>
      <trkpt lat="44.32855" lon="5.79087">
        <ele>595.1</ele>
        <time>2022-10-28T14:26:46Z</time>
      </trkpt>
      <trkpt lat="44.32852" lon="5.7909">
        <ele>595.2</ele>
        <time>2022-10-28T14:26:47Z</time>
      </trkpt>
      <trkpt lat="44.32849" lon="5.79093">
        <ele>595.4</ele>
        <time>2022-10-28T14:26:48Z</time>
      </trkpt>
      <trkpt lat="44.32847" lon="5.79094">
        <ele>595.5</ele>
        <time>2022-10-28T14:26:49Z</time>
      </trkpt>
      <trkpt lat="44.32846" lon="5.79096">
        <ele>595.5</ele>
        <time>2022-10-28T14:26:50Z</time>
      </trkpt>
      <trkpt lat="44.3284" lon="5.791">
        <ele>595.8</ele>
        <time>2022-10-28T14:26:51Z</time>
      </trkpt>
      <trkpt lat="44.32834" lon="5.79103">
        <ele>596.1</ele>
        <time>2022-10-28T14:26:52Z</time>
      </trkpt>
      <trkpt lat="44.32828" lon="5.79107">
        <ele>596.3</ele>
        <time>2022-10-28T14:26:54Z</time>
      </trkpt>
      <trkpt lat="44.32824" lon="5.7911">
        <ele>596.5</ele>
        <time>2022-10-28T14:26:55Z</time>
      </trkpt>
      <trkpt lat="44.3282" lon="5.79113">
        <ele>596.7</ele>
        <time>2022-10-28T14:26:56Z</time>
      </trkpt>
      <trkpt lat="44.32815" lon="5.79119">
        <ele>596.9</ele>
        <time>2022-10-28T14:26:58Z</time>
      </trkpt>
      <trkpt lat="44.32811" lon="5.79122">
        <ele>597.1</ele>
        <time>2022-10-28T14:26:59Z</time>
      </trkpt>
      <trkpt lat="44.32807" lon="5.79125">
        <ele>597.2</ele>
        <time>2022-10-28T14:27:00Z</time>
      </trkpt>
      <trkpt lat="44.32803" lon="5.79129">
        <ele>597.3</ele>
        <time>2022-10-28T14:27:01Z</time>
      </trkpt>
      <trkpt lat="44.328" lon="5.7913">
        <ele>597.4</ele>
        <time>2022-10-28T14:27:02Z</time>
      </trkpt>
      <trkpt lat="44.32797" lon="5.79133">
        <ele>597.5</ele>
        <time>2022-10-28T14:27:03Z</time>
      </trkpt>
      <trkpt lat="44.32791" lon="5.79137">
        <ele>597.6</ele>
        <time>2022-10-28T14:27:05Z</time>
      </trkpt>
      <trkpt lat="44.32787" lon="5.7914">
        <ele>597.7</ele>
        <time>2022-10-28T14:27:06Z</time>
      </trkpt>
      <trkpt lat="44.32781" lon="5.79144">
        <ele>597.8</ele>
        <time>2022-10-28T14:27:08Z</time>
      </trkpt>
      <trkpt lat="44.32776" lon="5.79149">
        <ele>597.9</ele>
        <time>2022-10-28T14:27:09Z</time>
      </trkpt>
      <trkpt lat="44.32772" lon="5.79152">
        <ele>597.9</ele>
        <time>2022-10-28T14:27:11Z</time>
      </trkpt>
      <trkpt lat="44.32765" lon="5.79156">
        <ele>598</ele>
        <time>2022-10-28T14:27:12Z</time>
      </trkpt>
      <trkpt lat="44.32761" lon="5.79159">
        <ele>598.1</ele>
        <time>2022-10-28T14:27:13Z</time>
      </trkpt>
      <trkpt lat="44.32756" lon="5.79163">
        <ele>598.1</ele>
        <time>2022-10-28T14:27:15Z</time>
      </trkpt>
      <trkpt lat="44.3275" lon="5.79167">
        <ele>598.2</ele>
        <time>2022-10-28T14:27:16Z</time>
      </trkpt>
      <trkpt lat="44.32744" lon="5.79171">
        <ele>598.2</ele>
        <time>2022-10-28T14:27:17Z</time>
      </trkpt>
      <trkpt lat="44.3274" lon="5.79174">
        <ele>598.2</ele>
        <time>2022-10-28T14:27:18Z</time>
      </trkpt>
      <trkpt lat="44.32736" lon="5.79177">
        <ele>598.2</ele>
        <time>2022-10-28T14:27:19Z</time>
      </trkpt>
      <trkpt lat="44.32732" lon="5.7918">
        <ele>598.2</ele>
        <time>2022-10-28T14:27:20Z</time>
      </trkpt>
      <trkpt lat="44.32728" lon="5.79183">
        <ele>598.2</ele>
        <time>2022-10-28T14:27:21Z</time>
      </trkpt>
      <trkpt lat="44.32723" lon="5.79187">
        <ele>598.2</ele>
        <time>2022-10-28T14:27:22Z</time>
      </trkpt>
      <trkpt lat="44.32719" lon="5.7919">
        <ele>598.2</ele>
        <time>2022-10-28T14:27:23Z</time>
      </trkpt>
      <trkpt lat="44.32714" lon="5.79193">
        <ele>598.1</ele>
        <time>2022-10-28T14:27:24Z</time>
      </trkpt>
      <trkpt lat="44.3271" lon="5.79196">
        <ele>598.1</ele>
        <time>2022-10-28T14:27:25Z</time>
      </trkpt>
      <trkpt lat="44.32705" lon="5.792">
        <ele>598.1</ele>
        <time>2022-10-28T14:27:26Z</time>
      </trkpt>
      <trkpt lat="44.32701" lon="5.79203">
        <ele>598</ele>
        <time>2022-10-28T14:27:27Z</time>
      </trkpt>
      <trkpt lat="44.32696" lon="5.79206">
        <ele>598</ele>
        <time>2022-10-28T14:27:28Z</time>
      </trkpt>
      <trkpt lat="44.32691" lon="5.7921">
        <ele>597.9</ele>
        <time>2022-10-28T14:27:29Z</time>
      </trkpt>
      <trkpt lat="44.32687" lon="5.79213">
        <ele>597.8</ele>
        <time>2022-10-28T14:27:30Z</time>
      </trkpt>
      <trkpt lat="44.32682" lon="5.79216">
        <ele>597.8</ele>
        <time>2022-10-28T14:27:31Z</time>
      </trkpt>
      <trkpt lat="44.32677" lon="5.79219">
        <ele>597.7</ele>
        <time>2022-10-28T14:27:32Z</time>
      </trkpt>
      <trkpt lat="44.32672" lon="5.79223">
        <ele>597.6</ele>
        <time>2022-10-28T14:27:33Z</time>
      </trkpt>
      <trkpt lat="44.32667" lon="5.79227">
        <ele>597.5</ele>
        <time>2022-10-28T14:27:34Z</time>
      </trkpt>
      <trkpt lat="44.32662" lon="5.7923">
        <ele>597.5</ele>
        <time>2022-10-28T14:27:35Z</time>
      </trkpt>
      <trkpt lat="44.32657" lon="5.79234">
        <ele>597.4</ele>
        <time>2022-10-28T14:27:36Z</time>
      </trkpt>
      <trkpt lat="44.32652" lon="5.79237">
        <ele>597.2</ele>
        <time>2022-10-28T14:27:37Z</time>
      </trkpt>
      <trkpt lat="44.32647" lon="5.79241">
        <ele>597.1</ele>
        <time>2022-10-28T14:27:38Z</time>
      </trkpt>
      <trkpt lat="44.32642" lon="5.79245">
        <ele>596.9</ele>
        <time>2022-10-28T14:27:39Z</time>
      </trkpt>
      <trkpt lat="44.32637" lon="5.79249">
        <ele>596.7</ele>
        <time>2022-10-28T14:27:40Z</time>
      </trkpt>
      <trkpt lat="44.32632" lon="5.79252">
        <ele>596.5</ele>
        <time>2022-10-28T14:27:41Z</time>
      </trkpt>
      <trkpt lat="44.32627" lon="5.79256">
        <ele>596.4</ele>
        <time>2022-10-28T14:27:42Z</time>
      </trkpt>
      <trkpt lat="44.32622" lon="5.7926">
        <ele>596.2</ele>
        <time>2022-10-28T14:27:43Z</time>
      </trkpt>
      <trkpt lat="44.32616" lon="5.79264">
        <ele>595.9</ele>
        <time>2022-10-28T14:27:44Z</time>
      </trkpt>
      <trkpt lat="44.3261" lon="5.79268">
        <ele>595.7</ele>
        <time>2022-10-28T14:27:45Z</time>
      </trkpt>
      <trkpt lat="44.32605" lon="5.79272">
        <ele>595.5</ele>
        <time>2022-10-28T14:27:46Z</time>
      </trkpt>
      <trkpt lat="44.32599" lon="5.79276">
        <ele>595.2</ele>
        <time>2022-10-28T14:27:47Z</time>
      </trkpt>
      <trkpt lat="44.32593" lon="5.7928">
        <ele>594.9</ele>
        <time>2022-10-28T14:27:48Z</time>
      </trkpt>
      <trkpt lat="44.32587" lon="5.79286">
        <ele>594.7</ele>
        <time>2022-10-28T14:27:49Z</time>
      </trkpt>
      <trkpt lat="44.32581" lon="5.79291">
        <ele>594.4</ele>
        <time>2022-10-28T14:27:50Z</time>
      </trkpt>
      <trkpt lat="44.32576" lon="5.79296">
        <ele>594.1</ele>
        <time>2022-10-28T14:27:51Z</time>
      </trkpt>
      <trkpt lat="44.3257" lon="5.79302">
        <ele>593.8</ele>
        <time>2022-10-28T14:27:52Z</time>
      </trkpt>
      <trkpt lat="44.32565" lon="5.79308">
        <ele>593.4</ele>
        <time>2022-10-28T14:27:53Z</time>
      </trkpt>
      <trkpt lat="44.32559" lon="5.79314">
        <ele>593.1</ele>
        <time>2022-10-28T14:27:54Z</time>
      </trkpt>
      <trkpt lat="44.32554" lon="5.79321">
        <ele>592.8</ele>
        <time>2022-10-28T14:27:55Z</time>
      </trkpt>
      <trkpt lat="44.32548" lon="5.79327">
        <ele>592.5</ele>
        <time>2022-10-28T14:27:56Z</time>
      </trkpt>
      <trkpt lat="44.32543" lon="5.79335">
        <ele>592.1</ele>
        <time>2022-10-28T14:27:57Z</time>
      </trkpt>
      <trkpt lat="44.32539" lon="5.79343">
        <ele>591.8</ele>
        <time>2022-10-28T14:27:58Z</time>
      </trkpt>
      <trkpt lat="44.32534" lon="5.79353">
        <ele>591.4</ele>
        <time>2022-10-28T14:27:59Z</time>
      </trkpt>
      <trkpt lat="44.3253" lon="5.79362">
        <ele>591</ele>
        <time>2022-10-28T14:28:00Z</time>
      </trkpt>
      <trkpt lat="44.32525" lon="5.79371">
        <ele>590.5</ele>
        <time>2022-10-28T14:28:01Z</time>
      </trkpt>
      <trkpt lat="44.32521" lon="5.79381">
        <ele>590.1</ele>
        <time>2022-10-28T14:28:02Z</time>
      </trkpt>
      <trkpt lat="44.32517" lon="5.79391">
        <ele>589.8</ele>
        <time>2022-10-28T14:28:03Z</time>
      </trkpt>
      <trkpt lat="44.32512" lon="5.79401">
        <ele>589.4</ele>
        <time>2022-10-28T14:28:04Z</time>
      </trkpt>
      <trkpt lat="44.32508" lon="5.79412">
        <ele>589.1</ele>
        <time>2022-10-28T14:28:05Z</time>
      </trkpt>
      <trkpt lat="44.32504" lon="5.79423">
        <ele>588.7</ele>
        <time>2022-10-28T14:28:06Z</time>
      </trkpt>
      <trkpt lat="44.32499" lon="5.79434">
        <ele>588.4</ele>
        <time>2022-10-28T14:28:07Z</time>
      </trkpt>
      <trkpt lat="44.32495" lon="5.79445">
        <ele>588</ele>
        <time>2022-10-28T14:28:08Z</time>
      </trkpt>
      <trkpt lat="44.32491" lon="5.79456">
        <ele>587.7</ele>
        <time>2022-10-28T14:28:09Z</time>
      </trkpt>
      <trkpt lat="44.32486" lon="5.79468">
        <ele>587.4</ele>
        <time>2022-10-28T14:28:10Z</time>
      </trkpt>
      <trkpt lat="44.32481" lon="5.79479">
        <ele>587.1</ele>
        <time>2022-10-28T14:28:11Z</time>
      </trkpt>
      <trkpt lat="44.32476" lon="5.79491">
        <ele>586.9</ele>
        <time>2022-10-28T14:28:12Z</time>
      </trkpt>
      <trkpt lat="44.32472" lon="5.79502">
        <ele>586.7</ele>
        <time>2022-10-28T14:28:13Z</time>
      </trkpt>
      <trkpt lat="44.32468" lon="5.79514">
        <ele>586.6</ele>
        <time>2022-10-28T14:28:14Z</time>
      </trkpt>
      <trkpt lat="44.32463" lon="5.79525">
        <ele>586.5</ele>
        <time>2022-10-28T14:28:15Z</time>
      </trkpt>
      <trkpt lat="44.32458" lon="5.79536">
        <ele>586.4</ele>
        <time>2022-10-28T14:28:16Z</time>
      </trkpt>
      <trkpt lat="44.32454" lon="5.79547">
        <ele>586.3</ele>
        <time>2022-10-28T14:28:17Z</time>
      </trkpt>
      <trkpt lat="44.32449" lon="5.79558">
        <ele>586.3</ele>
        <time>2022-10-28T14:28:18Z</time>
      </trkpt>
      <trkpt lat="44.32445" lon="5.79568">
        <ele>586.2</ele>
        <time>2022-10-28T14:28:19Z</time>
      </trkpt>
      <trkpt lat="44.32441" lon="5.79578">
        <ele>586.2</ele>
        <time>2022-10-28T14:28:20Z</time>
      </trkpt>
      <trkpt lat="44.32437" lon="5.79589">
        <ele>586.2</ele>
        <time>2022-10-28T14:28:21Z</time>
      </trkpt>
      <trkpt lat="44.32433" lon="5.79598">
        <ele>586.2</ele>
        <time>2022-10-28T14:28:22Z</time>
      </trkpt>
      <trkpt lat="44.32429" lon="5.79608">
        <ele>586.2</ele>
        <time>2022-10-28T14:28:23Z</time>
      </trkpt>
      <trkpt lat="44.32425" lon="5.79618">
        <ele>586.2</ele>
        <time>2022-10-28T14:28:24Z</time>
      </trkpt>
      <trkpt lat="44.32421" lon="5.79628">
        <ele>586.1</ele>
        <time>2022-10-28T14:28:25Z</time>
      </trkpt>
      <trkpt lat="44.32417" lon="5.79638">
        <ele>586.1</ele>
        <time>2022-10-28T14:28:26Z</time>
      </trkpt>
      <trkpt lat="44.32414" lon="5.79647">
        <ele>586.1</ele>
        <time>2022-10-28T14:28:27Z</time>
      </trkpt>
      <trkpt lat="44.3241" lon="5.79656">
        <ele>586</ele>
        <time>2022-10-28T14:28:28Z</time>
      </trkpt>
      <trkpt lat="44.32406" lon="5.79665">
        <ele>585.9</ele>
        <time>2022-10-28T14:28:29Z</time>
      </trkpt>
      <trkpt lat="44.32402" lon="5.79675">
        <ele>585.8</ele>
        <time>2022-10-28T14:28:30Z</time>
      </trkpt>
      <trkpt lat="44.32398" lon="5.79684">
        <ele>585.7</ele>
        <time>2022-10-28T14:28:31Z</time>
      </trkpt>
      <trkpt lat="44.32395" lon="5.79694">
        <ele>585.6</ele>
        <time>2022-10-28T14:28:32Z</time>
      </trkpt>
      <trkpt lat="44.32391" lon="5.79703">
        <ele>585.6</ele>
        <time>2022-10-28T14:28:33Z</time>
      </trkpt>
      <trkpt lat="44.32387" lon="5.79713">
        <ele>585.5</ele>
        <time>2022-10-28T14:28:34Z</time>
      </trkpt>
      <trkpt lat="44.32383" lon="5.79722">
        <ele>585.4</ele>
        <time>2022-10-28T14:28:35Z</time>
      </trkpt>
      <trkpt lat="44.3238" lon="5.79731">
        <ele>585.3</ele>
        <time>2022-10-28T14:28:36Z</time>
      </trkpt>
      <trkpt lat="44.32376" lon="5.79741">
        <ele>585.2</ele>
        <time>2022-10-28T14:28:37Z</time>
      </trkpt>
      <trkpt lat="44.32372" lon="5.7975">
        <ele>585.1</ele>
        <time>2022-10-28T14:28:38Z</time>
      </trkpt>
      <trkpt lat="44.32368" lon="5.7976">
        <ele>585</ele>
        <time>2022-10-28T14:28:39Z</time>
      </trkpt>
      <trkpt lat="44.32364" lon="5.7977">
        <ele>584.9</ele>
        <time>2022-10-28T14:28:40Z</time>
      </trkpt>
      <trkpt lat="44.32361" lon="5.79779">
        <ele>584.8</ele>
        <time>2022-10-28T14:28:41Z</time>
      </trkpt>
      <trkpt lat="44.32357" lon="5.79789">
        <ele>584.7</ele>
        <time>2022-10-28T14:28:42Z</time>
      </trkpt>
      <trkpt lat="44.32353" lon="5.79798">
        <ele>584.6</ele>
        <time>2022-10-28T14:28:43Z</time>
      </trkpt>
      <trkpt lat="44.32349" lon="5.79807">
        <ele>584.5</ele>
        <time>2022-10-28T14:28:44Z</time>
      </trkpt>
      <trkpt lat="44.32345" lon="5.79817">
        <ele>584.4</ele>
        <time>2022-10-28T14:28:45Z</time>
      </trkpt>
      <trkpt lat="44.32342" lon="5.79826">
        <ele>584.2</ele>
        <time>2022-10-28T14:28:46Z</time>
      </trkpt>
      <trkpt lat="44.32338" lon="5.79836">
        <ele>584.1</ele>
        <time>2022-10-28T14:28:47Z</time>
      </trkpt>
      <trkpt lat="44.32334" lon="5.79846">
        <ele>583.9</ele>
        <time>2022-10-28T14:28:48Z</time>
      </trkpt>
      <trkpt lat="44.3233" lon="5.79855">
        <ele>583.7</ele>
        <time>2022-10-28T14:28:49Z</time>
      </trkpt>
      <trkpt lat="44.32326" lon="5.79865">
        <ele>583.6</ele>
        <time>2022-10-28T14:28:50Z</time>
      </trkpt>
      <trkpt lat="44.32322" lon="5.79874">
        <ele>583.4</ele>
        <time>2022-10-28T14:28:51Z</time>
      </trkpt>
      <trkpt lat="44.32318" lon="5.79884">
        <ele>583.2</ele>
        <time>2022-10-28T14:28:52Z</time>
      </trkpt>
      <trkpt lat="44.32314" lon="5.79894">
        <ele>582.9</ele>
        <time>2022-10-28T14:28:53Z</time>
      </trkpt>
      <trkpt lat="44.3231" lon="5.79904">
        <ele>582.7</ele>
        <time>2022-10-28T14:28:54Z</time>
      </trkpt>
      <trkpt lat="44.32306" lon="5.79914">
        <ele>582.4</ele>
        <time>2022-10-28T14:28:55Z</time>
      </trkpt>
      <trkpt lat="44.32302" lon="5.79924">
        <ele>582.1</ele>
        <time>2022-10-28T14:28:56Z</time>
      </trkpt>
      <trkpt lat="44.32298" lon="5.79934">
        <ele>581.7</ele>
        <time>2022-10-28T14:28:57Z</time>
      </trkpt>
      <trkpt lat="44.32294" lon="5.79945">
        <ele>581.4</ele>
        <time>2022-10-28T14:28:58Z</time>
      </trkpt>
      <trkpt lat="44.3229" lon="5.79955">
        <ele>581</ele>
        <time>2022-10-28T14:28:59Z</time>
      </trkpt>
      <trkpt lat="44.32286" lon="5.79966">
        <ele>580.6</ele>
        <time>2022-10-28T14:29:00Z</time>
      </trkpt>
      <trkpt lat="44.32282" lon="5.79976">
        <ele>580.2</ele>
        <time>2022-10-28T14:29:01Z</time>
      </trkpt>
      <trkpt lat="44.32278" lon="5.79987">
        <ele>579.9</ele>
        <time>2022-10-28T14:29:02Z</time>
      </trkpt>
      <trkpt lat="44.32273" lon="5.79998">
        <ele>579.6</ele>
        <time>2022-10-28T14:29:03Z</time>
      </trkpt>
      <trkpt lat="44.32269" lon="5.80008">
        <ele>579.3</ele>
        <time>2022-10-28T14:29:04Z</time>
      </trkpt>
      <trkpt lat="44.32265" lon="5.80018">
        <ele>579.1</ele>
        <time>2022-10-28T14:29:05Z</time>
      </trkpt>
      <trkpt lat="44.32261" lon="5.80029">
        <ele>578.9</ele>
        <time>2022-10-28T14:29:06Z</time>
      </trkpt>
      <trkpt lat="44.32257" lon="5.80039">
        <ele>578.8</ele>
        <time>2022-10-28T14:29:07Z</time>
      </trkpt>
      <trkpt lat="44.32253" lon="5.80049">
        <ele>578.6</ele>
        <time>2022-10-28T14:29:08Z</time>
      </trkpt>
      <trkpt lat="44.32249" lon="5.80059">
        <ele>578.5</ele>
        <time>2022-10-28T14:29:09Z</time>
      </trkpt>
      <trkpt lat="44.32245" lon="5.80069">
        <ele>578.5</ele>
        <time>2022-10-28T14:29:10Z</time>
      </trkpt>
      <trkpt lat="44.32241" lon="5.80079">
        <ele>578.5</ele>
        <time>2022-10-28T14:29:11Z</time>
      </trkpt>
      <trkpt lat="44.32237" lon="5.80089">
        <ele>578.5</ele>
        <time>2022-10-28T14:29:12Z</time>
      </trkpt>
      <trkpt lat="44.32233" lon="5.80098">
        <ele>578.5</ele>
        <time>2022-10-28T14:29:13Z</time>
      </trkpt>
      <trkpt lat="44.3223" lon="5.80107">
        <ele>578.4</ele>
        <time>2022-10-28T14:29:14Z</time>
      </trkpt>
      <trkpt lat="44.32226" lon="5.80116">
        <ele>578.4</ele>
        <time>2022-10-28T14:29:15Z</time>
      </trkpt>
      <trkpt lat="44.32223" lon="5.80125">
        <ele>578.4</ele>
        <time>2022-10-28T14:29:16Z</time>
      </trkpt>
      <trkpt lat="44.32219" lon="5.80134">
        <ele>578.4</ele>
        <time>2022-10-28T14:29:17Z</time>
      </trkpt>
      <trkpt lat="44.32216" lon="5.80142">
        <ele>578.4</ele>
        <time>2022-10-28T14:29:18Z</time>
      </trkpt>
      <trkpt lat="44.32213" lon="5.80151">
        <ele>578.5</ele>
        <time>2022-10-28T14:29:19Z</time>
      </trkpt>
      <trkpt lat="44.32209" lon="5.80159">
        <ele>578.5</ele>
        <time>2022-10-28T14:29:20Z</time>
      </trkpt>
      <trkpt lat="44.32206" lon="5.80167">
        <ele>578.5</ele>
        <time>2022-10-28T14:29:21Z</time>
      </trkpt>
      <trkpt lat="44.32202" lon="5.80175">
        <ele>578.6</ele>
        <time>2022-10-28T14:29:22Z</time>
      </trkpt>
      <trkpt lat="44.32199" lon="5.80182">
        <ele>578.7</ele>
        <time>2022-10-28T14:29:23Z</time>
      </trkpt>
      <trkpt lat="44.32196" lon="5.8019">
        <ele>578.7</ele>
        <time>2022-10-28T14:29:24Z</time>
      </trkpt>
      <trkpt lat="44.32194" lon="5.80198">
        <ele>578.8</ele>
        <time>2022-10-28T14:29:25Z</time>
      </trkpt>
      <trkpt lat="44.32191" lon="5.80205">
        <ele>578.8</ele>
        <time>2022-10-28T14:29:26Z</time>
      </trkpt>
      <trkpt lat="44.32188" lon="5.80212">
        <ele>578.9</ele>
        <time>2022-10-28T14:29:27Z</time>
      </trkpt>
      <trkpt lat="44.32185" lon="5.80219">
        <ele>578.9</ele>
        <time>2022-10-28T14:29:28Z</time>
      </trkpt>
      <trkpt lat="44.32182" lon="5.80226">
        <ele>579</ele>
        <time>2022-10-28T14:29:29Z</time>
      </trkpt>
      <trkpt lat="44.32179" lon="5.80233">
        <ele>579</ele>
        <time>2022-10-28T14:29:30Z</time>
      </trkpt>
      <trkpt lat="44.32176" lon="5.8024">
        <ele>579</ele>
        <time>2022-10-28T14:29:31Z</time>
      </trkpt>
      <trkpt lat="44.32173" lon="5.80247">
        <ele>579.1</ele>
        <time>2022-10-28T14:29:32Z</time>
      </trkpt>
      <trkpt lat="44.3217" lon="5.80254">
        <ele>579.1</ele>
        <time>2022-10-28T14:29:33Z</time>
      </trkpt>
      <trkpt lat="44.32167" lon="5.80261">
        <ele>579.1</ele>
        <time>2022-10-28T14:29:34Z</time>
      </trkpt>
      <trkpt lat="44.32164" lon="5.80269">
        <ele>579.2</ele>
        <time>2022-10-28T14:29:35Z</time>
      </trkpt>
      <trkpt lat="44.32161" lon="5.80276">
        <ele>579.2</ele>
        <time>2022-10-28T14:29:36Z</time>
      </trkpt>
      <trkpt lat="44.32158" lon="5.80284">
        <ele>579.2</ele>
        <time>2022-10-28T14:29:37Z</time>
      </trkpt>
      <trkpt lat="44.32155" lon="5.80291">
        <ele>579.2</ele>
        <time>2022-10-28T14:29:38Z</time>
      </trkpt>
      <trkpt lat="44.32152" lon="5.80298">
        <ele>579.1</ele>
        <time>2022-10-28T14:29:39Z</time>
      </trkpt>
      <trkpt lat="44.32149" lon="5.80305">
        <ele>579.1</ele>
        <time>2022-10-28T14:29:40Z</time>
      </trkpt>
      <trkpt lat="44.32146" lon="5.80313">
        <ele>579.1</ele>
        <time>2022-10-28T14:29:41Z</time>
      </trkpt>
      <trkpt lat="44.32143" lon="5.8032">
        <ele>579</ele>
        <time>2022-10-28T14:29:42Z</time>
      </trkpt>
      <trkpt lat="44.3214" lon="5.80328">
        <ele>579</ele>
        <time>2022-10-28T14:29:43Z</time>
      </trkpt>
      <trkpt lat="44.32138" lon="5.80335">
        <ele>578.9</ele>
        <time>2022-10-28T14:29:44Z</time>
      </trkpt>
      <trkpt lat="44.32134" lon="5.80343">
        <ele>578.8</ele>
        <time>2022-10-28T14:29:45Z</time>
      </trkpt>
      <trkpt lat="44.32131" lon="5.80351">
        <ele>578.7</ele>
        <time>2022-10-28T14:29:46Z</time>
      </trkpt>
      <trkpt lat="44.32128" lon="5.80359">
        <ele>578.5</ele>
        <time>2022-10-28T14:29:47Z</time>
      </trkpt>
      <trkpt lat="44.32125" lon="5.80367">
        <ele>578.4</ele>
        <time>2022-10-28T14:29:48Z</time>
      </trkpt>
      <trkpt lat="44.32121" lon="5.80375">
        <ele>578.3</ele>
        <time>2022-10-28T14:29:49Z</time>
      </trkpt>
      <trkpt lat="44.32118" lon="5.80383">
        <ele>578.1</ele>
        <time>2022-10-28T14:29:50Z</time>
      </trkpt>
      <trkpt lat="44.32115" lon="5.80391">
        <ele>578</ele>
        <time>2022-10-28T14:29:51Z</time>
      </trkpt>
      <trkpt lat="44.32111" lon="5.804">
        <ele>577.9</ele>
        <time>2022-10-28T14:29:52Z</time>
      </trkpt>
      <trkpt lat="44.32108" lon="5.80409">
        <ele>577.8</ele>
        <time>2022-10-28T14:29:53Z</time>
      </trkpt>
      <trkpt lat="44.32104" lon="5.80418">
        <ele>577.6</ele>
        <time>2022-10-28T14:29:54Z</time>
      </trkpt>
      <trkpt lat="44.321" lon="5.80427">
        <ele>577.5</ele>
        <time>2022-10-28T14:29:55Z</time>
      </trkpt>
      <trkpt lat="44.32097" lon="5.80436">
        <ele>577.4</ele>
        <time>2022-10-28T14:29:56Z</time>
      </trkpt>
      <trkpt lat="44.32093" lon="5.80445">
        <ele>577.3</ele>
        <time>2022-10-28T14:29:57Z</time>
      </trkpt>
      <trkpt lat="44.3209" lon="5.80454">
        <ele>577.3</ele>
        <time>2022-10-28T14:29:58Z</time>
      </trkpt>
      <trkpt lat="44.32086" lon="5.80464">
        <ele>577.2</ele>
        <time>2022-10-28T14:29:59Z</time>
      </trkpt>
      <trkpt lat="44.32082" lon="5.80473">
        <ele>577.1</ele>
        <time>2022-10-28T14:30:00Z</time>
      </trkpt>
      <trkpt lat="44.32079" lon="5.80481">
        <ele>577.1</ele>
        <time>2022-10-28T14:30:01Z</time>
      </trkpt>
      <trkpt lat="44.32075" lon="5.8049">
        <ele>577.1</ele>
        <time>2022-10-28T14:30:02Z</time>
      </trkpt>
      <trkpt lat="44.32072" lon="5.80499">
        <ele>577.1</ele>
        <time>2022-10-28T14:30:03Z</time>
      </trkpt>
      <trkpt lat="44.32068" lon="5.80507">
        <ele>577.1</ele>
        <time>2022-10-28T14:30:04Z</time>
      </trkpt>
      <trkpt lat="44.32065" lon="5.80516">
        <ele>577.2</ele>
        <time>2022-10-28T14:30:05Z</time>
      </trkpt>
      <trkpt lat="44.32062" lon="5.80524">
        <ele>577.2</ele>
        <time>2022-10-28T14:30:06Z</time>
      </trkpt>
      <trkpt lat="44.32059" lon="5.80532">
        <ele>577.3</ele>
        <time>2022-10-28T14:30:07Z</time>
      </trkpt>
      <trkpt lat="44.32055" lon="5.8054">
        <ele>577.3</ele>
        <time>2022-10-28T14:30:08Z</time>
      </trkpt>
      <trkpt lat="44.32052" lon="5.80548">
        <ele>577.4</ele>
        <time>2022-10-28T14:30:09Z</time>
      </trkpt>
      <trkpt lat="44.32049" lon="5.80556">
        <ele>577.5</ele>
        <time>2022-10-28T14:30:10Z</time>
      </trkpt>
      <trkpt lat="44.32046" lon="5.80564">
        <ele>577.6</ele>
        <time>2022-10-28T14:30:11Z</time>
      </trkpt>
      <trkpt lat="44.32043" lon="5.80571">
        <ele>577.7</ele>
        <time>2022-10-28T14:30:12Z</time>
      </trkpt>
      <trkpt lat="44.3204" lon="5.80578">
        <ele>577.7</ele>
        <time>2022-10-28T14:30:13Z</time>
      </trkpt>
      <trkpt lat="44.32037" lon="5.80586">
        <ele>577.8</ele>
        <time>2022-10-28T14:30:14Z</time>
      </trkpt>
      <trkpt lat="44.32034" lon="5.80594">
        <ele>577.9</ele>
        <time>2022-10-28T14:30:15Z</time>
      </trkpt>
      <trkpt lat="44.32031" lon="5.80601">
        <ele>577.9</ele>
        <time>2022-10-28T14:30:16Z</time>
      </trkpt>
      <trkpt lat="44.32027" lon="5.80609">
        <ele>578</ele>
        <time>2022-10-28T14:30:17Z</time>
      </trkpt>
      <trkpt lat="44.32024" lon="5.80616">
        <ele>578</ele>
        <time>2022-10-28T14:30:18Z</time>
      </trkpt>
      <trkpt lat="44.32021" lon="5.80624">
        <ele>578</ele>
        <time>2022-10-28T14:30:19Z</time>
      </trkpt>
      <trkpt lat="44.32018" lon="5.80631">
        <ele>578.1</ele>
        <time>2022-10-28T14:30:20Z</time>
      </trkpt>
      <trkpt lat="44.32015" lon="5.80639">
        <ele>578.1</ele>
        <time>2022-10-28T14:30:21Z</time>
      </trkpt>
      <trkpt lat="44.32012" lon="5.80647">
        <ele>578.1</ele>
        <time>2022-10-28T14:30:22Z</time>
      </trkpt>
      <trkpt lat="44.32008" lon="5.80654">
        <ele>578.1</ele>
        <time>2022-10-28T14:30:23Z</time>
      </trkpt>
      <trkpt lat="44.32005" lon="5.80662">
        <ele>578.1</ele>
        <time>2022-10-28T14:30:24Z</time>
      </trkpt>
      <trkpt lat="44.32002" lon="5.8067">
        <ele>578.1</ele>
        <time>2022-10-28T14:30:25Z</time>
      </trkpt>
      <trkpt lat="44.31999" lon="5.80678">
        <ele>578.1</ele>
        <time>2022-10-28T14:30:26Z</time>
      </trkpt>
      <trkpt lat="44.31996" lon="5.80685">
        <ele>578.2</ele>
        <time>2022-10-28T14:30:27Z</time>
      </trkpt>
      <trkpt lat="44.31993" lon="5.80693">
        <ele>578.1</ele>
        <time>2022-10-28T14:30:28Z</time>
      </trkpt>
      <trkpt lat="44.3199" lon="5.80701">
        <ele>578.1</ele>
        <time>2022-10-28T14:30:29Z</time>
      </trkpt>
      <trkpt lat="44.31986" lon="5.80709">
        <ele>578.1</ele>
        <time>2022-10-28T14:30:30Z</time>
      </trkpt>
      <trkpt lat="44.31983" lon="5.80717">
        <ele>578.1</ele>
        <time>2022-10-28T14:30:31Z</time>
      </trkpt>
      <trkpt lat="44.3198" lon="5.80725">
        <ele>578</ele>
        <time>2022-10-28T14:30:32Z</time>
      </trkpt>
      <trkpt lat="44.31976" lon="5.80733">
        <ele>577.9</ele>
        <time>2022-10-28T14:30:33Z</time>
      </trkpt>
      <trkpt lat="44.31973" lon="5.80741">
        <ele>577.9</ele>
        <time>2022-10-28T14:30:34Z</time>
      </trkpt>
      <trkpt lat="44.3197" lon="5.80749">
        <ele>577.8</ele>
        <time>2022-10-28T14:30:35Z</time>
      </trkpt>
      <trkpt lat="44.31966" lon="5.80758">
        <ele>577.6</ele>
        <time>2022-10-28T14:30:36Z</time>
      </trkpt>
      <trkpt lat="44.31963" lon="5.80766">
        <ele>577.5</ele>
        <time>2022-10-28T14:30:37Z</time>
      </trkpt>
      <trkpt lat="44.3196" lon="5.80775">
        <ele>577.3</ele>
        <time>2022-10-28T14:30:38Z</time>
      </trkpt>
      <trkpt lat="44.31956" lon="5.80783">
        <ele>577.2</ele>
        <time>2022-10-28T14:30:39Z</time>
      </trkpt>
      <trkpt lat="44.31953" lon="5.80792">
        <ele>577</ele>
        <time>2022-10-28T14:30:40Z</time>
      </trkpt>
      <trkpt lat="44.31949" lon="5.80801">
        <ele>576.8</ele>
        <time>2022-10-28T14:30:41Z</time>
      </trkpt>
      <trkpt lat="44.31946" lon="5.8081">
        <ele>576.6</ele>
        <time>2022-10-28T14:30:42Z</time>
      </trkpt>
      <trkpt lat="44.31942" lon="5.80819">
        <ele>576.5</ele>
        <time>2022-10-28T14:30:43Z</time>
      </trkpt>
      <trkpt lat="44.31938" lon="5.80828">
        <ele>576.3</ele>
        <time>2022-10-28T14:30:44Z</time>
      </trkpt>
      <trkpt lat="44.31935" lon="5.80837">
        <ele>576.1</ele>
        <time>2022-10-28T14:30:45Z</time>
      </trkpt>
      <trkpt lat="44.31931" lon="5.80847">
        <ele>575.9</ele>
        <time>2022-10-28T14:30:46Z</time>
      </trkpt>
      <trkpt lat="44.31928" lon="5.80856">
        <ele>575.7</ele>
        <time>2022-10-28T14:30:47Z</time>
      </trkpt>
      <trkpt lat="44.31923" lon="5.80865">
        <ele>575.6</ele>
        <time>2022-10-28T14:30:48Z</time>
      </trkpt>
      <trkpt lat="44.3192" lon="5.80874">
        <ele>575.4</ele>
        <time>2022-10-28T14:30:49Z</time>
      </trkpt>
      <trkpt lat="44.31916" lon="5.80883">
        <ele>575.3</ele>
        <time>2022-10-28T14:30:50Z</time>
      </trkpt>
      <trkpt lat="44.31913" lon="5.80892">
        <ele>575.2</ele>
        <time>2022-10-28T14:30:51Z</time>
      </trkpt>
      <trkpt lat="44.31909" lon="5.80901">
        <ele>575.1</ele>
        <time>2022-10-28T14:30:52Z</time>
      </trkpt>
      <trkpt lat="44.31905" lon="5.8091">
        <ele>575.1</ele>
        <time>2022-10-28T14:30:53Z</time>
      </trkpt>
      <trkpt lat="44.31901" lon="5.80919">
        <ele>575</ele>
        <time>2022-10-28T14:30:54Z</time>
      </trkpt>
      <trkpt lat="44.31898" lon="5.80928">
        <ele>575</ele>
        <time>2022-10-28T14:30:55Z</time>
      </trkpt>
      <trkpt lat="44.31894" lon="5.80937">
        <ele>574.9</ele>
        <time>2022-10-28T14:30:56Z</time>
      </trkpt>
      <trkpt lat="44.3189" lon="5.80945">
        <ele>574.9</ele>
        <time>2022-10-28T14:30:57Z</time>
      </trkpt>
      <trkpt lat="44.31887" lon="5.80954">
        <ele>574.9</ele>
        <time>2022-10-28T14:30:58Z</time>
      </trkpt>
      <trkpt lat="44.31884" lon="5.80962">
        <ele>574.8</ele>
        <time>2022-10-28T14:30:59Z</time>
      </trkpt>
      <trkpt lat="44.31881" lon="5.80971">
        <ele>574.8</ele>
        <time>2022-10-28T14:31:00Z</time>
      </trkpt>
      <trkpt lat="44.31877" lon="5.80979">
        <ele>574.8</ele>
        <time>2022-10-28T14:31:01Z</time>
      </trkpt>
      <trkpt lat="44.31874" lon="5.80987">
        <ele>574.7</ele>
        <time>2022-10-28T14:31:02Z</time>
      </trkpt>
      <trkpt lat="44.3187" lon="5.80996">
        <ele>574.7</ele>
        <time>2022-10-28T14:31:03Z</time>
      </trkpt>
      <trkpt lat="44.31867" lon="5.81004">
        <ele>574.7</ele>
        <time>2022-10-28T14:31:04Z</time>
      </trkpt>
      <trkpt lat="44.31864" lon="5.81012">
        <ele>574.7</ele>
        <time>2022-10-28T14:31:05Z</time>
      </trkpt>
      <trkpt lat="44.31861" lon="5.8102">
        <ele>574.7</ele>
        <time>2022-10-28T14:31:06Z</time>
      </trkpt>
      <trkpt lat="44.31858" lon="5.81027">
        <ele>574.8</ele>
        <time>2022-10-28T14:31:07Z</time>
      </trkpt>
      <trkpt lat="44.31855" lon="5.81035">
        <ele>574.8</ele>
        <time>2022-10-28T14:31:08Z</time>
      </trkpt>
      <trkpt lat="44.31852" lon="5.81042">
        <ele>574.8</ele>
        <time>2022-10-28T14:31:09Z</time>
      </trkpt>
      <trkpt lat="44.31849" lon="5.81049">
        <ele>574.8</ele>
        <time>2022-10-28T14:31:10Z</time>
      </trkpt>
      <trkpt lat="44.31846" lon="5.81056">
        <ele>574.9</ele>
        <time>2022-10-28T14:31:11Z</time>
      </trkpt>
      <trkpt lat="44.31843" lon="5.81063">
        <ele>575</ele>
        <time>2022-10-28T14:31:12Z</time>
      </trkpt>
      <trkpt lat="44.3184" lon="5.81071">
        <ele>575.1</ele>
        <time>2022-10-28T14:31:13Z</time>
      </trkpt>
      <trkpt lat="44.31837" lon="5.81078">
        <ele>575.2</ele>
        <time>2022-10-28T14:31:14Z</time>
      </trkpt>
      <trkpt lat="44.31834" lon="5.81085">
        <ele>575.3</ele>
        <time>2022-10-28T14:31:15Z</time>
      </trkpt>
      <trkpt lat="44.31832" lon="5.81092">
        <ele>575.4</ele>
        <time>2022-10-28T14:31:16Z</time>
      </trkpt>
      <trkpt lat="44.3183" lon="5.81099">
        <ele>575.5</ele>
        <time>2022-10-28T14:31:17Z</time>
      </trkpt>
      <trkpt lat="44.31827" lon="5.81107">
        <ele>575.6</ele>
        <time>2022-10-28T14:31:18Z</time>
      </trkpt>
      <trkpt lat="44.31824" lon="5.81114">
        <ele>575.7</ele>
        <time>2022-10-28T14:31:19Z</time>
      </trkpt>
      <trkpt lat="44.31822" lon="5.81121">
        <ele>575.8</ele>
        <time>2022-10-28T14:31:20Z</time>
      </trkpt>
      <trkpt lat="44.3182" lon="5.81128">
        <ele>575.9</ele>
        <time>2022-10-28T14:31:21Z</time>
      </trkpt>
      <trkpt lat="44.31817" lon="5.81135">
        <ele>576</ele>
        <time>2022-10-28T14:31:22Z</time>
      </trkpt>
      <trkpt lat="44.31815" lon="5.81142">
        <ele>576.2</ele>
        <time>2022-10-28T14:31:23Z</time>
      </trkpt>
      <trkpt lat="44.31813" lon="5.81149">
        <ele>576.3</ele>
        <time>2022-10-28T14:31:24Z</time>
      </trkpt>
      <trkpt lat="44.3181" lon="5.81155">
        <ele>576.4</ele>
        <time>2022-10-28T14:31:25Z</time>
      </trkpt>
      <trkpt lat="44.31808" lon="5.81162">
        <ele>576.5</ele>
        <time>2022-10-28T14:31:26Z</time>
      </trkpt>
      <trkpt lat="44.31806" lon="5.81169">
        <ele>576.7</ele>
        <time>2022-10-28T14:31:27Z</time>
      </trkpt>
      <trkpt lat="44.31805" lon="5.81175">
        <ele>576.8</ele>
        <time>2022-10-28T14:31:28Z</time>
      </trkpt>
      <trkpt lat="44.31803" lon="5.81181">
        <ele>576.9</ele>
        <time>2022-10-28T14:31:29Z</time>
      </trkpt>
      <trkpt lat="44.31801" lon="5.81187">
        <ele>577</ele>
        <time>2022-10-28T14:31:30Z</time>
      </trkpt>
      <trkpt lat="44.31799" lon="5.81193">
        <ele>577.1</ele>
        <time>2022-10-28T14:31:31Z</time>
      </trkpt>
      <trkpt lat="44.31798" lon="5.81198">
        <ele>577.2</ele>
        <time>2022-10-28T14:31:32Z</time>
      </trkpt>
      <trkpt lat="44.31797" lon="5.81202">
        <ele>577.3</ele>
        <time>2022-10-28T14:31:33Z</time>
      </trkpt>
      <trkpt lat="44.31795" lon="5.81209">
        <ele>577.5</ele>
        <time>2022-10-28T14:31:34Z</time>
      </trkpt>
      <trkpt lat="44.31793" lon="5.81214">
        <ele>577.6</ele>
        <time>2022-10-28T14:31:35Z</time>
      </trkpt>
      <trkpt lat="44.31792" lon="5.81219">
        <ele>577.7</ele>
        <time>2022-10-28T14:31:36Z</time>
      </trkpt>
      <trkpt lat="44.3179" lon="5.81226">
        <ele>577.9</ele>
        <time>2022-10-28T14:31:37Z</time>
      </trkpt>
      <trkpt lat="44.31788" lon="5.81232">
        <ele>578.1</ele>
        <time>2022-10-28T14:31:38Z</time>
      </trkpt>
      <trkpt lat="44.31787" lon="5.81235">
        <ele>578.1</ele>
        <time>2022-10-28T14:31:39Z</time>
      </trkpt>
      <trkpt lat="44.31786" lon="5.81242">
        <ele>578.3</ele>
        <time>2022-10-28T14:31:41Z</time>
      </trkpt>
      <trkpt lat="44.31783" lon="5.81251">
        <ele>578.6</ele>
        <time>2022-10-28T14:31:42Z</time>
      </trkpt>
      <trkpt lat="44.31781" lon="5.81259">
        <ele>578.7</ele>
        <time>2022-10-28T14:31:43Z</time>
      </trkpt>
      <trkpt lat="44.31779" lon="5.81265">
        <ele>578.9</ele>
        <time>2022-10-28T14:31:44Z</time>
      </trkpt>
      <trkpt lat="44.31778" lon="5.81272">
        <ele>579</ele>
        <time>2022-10-28T14:31:45Z</time>
      </trkpt>
      <trkpt lat="44.31776" lon="5.81279">
        <ele>579.2</ele>
        <time>2022-10-28T14:31:46Z</time>
      </trkpt>
      <trkpt lat="44.31774" lon="5.81286">
        <ele>579.3</ele>
        <time>2022-10-28T14:31:48Z</time>
      </trkpt>
      <trkpt lat="44.31771" lon="5.81295">
        <ele>579.5</ele>
        <time>2022-10-28T14:31:49Z</time>
      </trkpt>
      <trkpt lat="44.31769" lon="5.813">
        <ele>579.6</ele>
        <time>2022-10-28T14:31:50Z</time>
      </trkpt>
      <trkpt lat="44.31767" lon="5.81306">
        <ele>579.7</ele>
        <time>2022-10-28T14:31:51Z</time>
      </trkpt>
      <trkpt lat="44.31766" lon="5.81311">
        <ele>579.8</ele>
        <time>2022-10-28T14:31:52Z</time>
      </trkpt>
      <trkpt lat="44.31764" lon="5.81317">
        <ele>579.9</ele>
        <time>2022-10-28T14:31:53Z</time>
      </trkpt>
      <trkpt lat="44.31761" lon="5.81322">
        <ele>580</ele>
        <time>2022-10-28T14:31:54Z</time>
      </trkpt>
      <trkpt lat="44.31758" lon="5.81329">
        <ele>580.1</ele>
        <time>2022-10-28T14:31:56Z</time>
      </trkpt>
      <trkpt lat="44.31754" lon="5.81335">
        <ele>580.1</ele>
        <time>2022-10-28T14:31:57Z</time>
      </trkpt>
      <trkpt lat="44.3175" lon="5.81341">
        <ele>580.2</ele>
        <time>2022-10-28T14:31:58Z</time>
      </trkpt>
      <trkpt lat="44.31749" lon="5.81343">
        <ele>580.2</ele>
        <time>2022-10-28T14:31:59Z</time>
      </trkpt>
      <trkpt lat="44.31744" lon="5.8135">
        <ele>580.3</ele>
        <time>2022-10-28T14:32:01Z</time>
      </trkpt>
      <trkpt lat="44.3174" lon="5.81355">
        <ele>580.4</ele>
        <time>2022-10-28T14:32:02Z</time>
      </trkpt>
      <trkpt lat="44.31734" lon="5.81362">
        <ele>580.4</ele>
        <time>2022-10-28T14:32:03Z</time>
      </trkpt>
      <trkpt lat="44.31731" lon="5.81365">
        <ele>580.5</ele>
        <time>2022-10-28T14:32:04Z</time>
      </trkpt>
      <trkpt lat="44.31728" lon="5.81368">
        <ele>580.5</ele>
        <time>2022-10-28T14:32:05Z</time>
      </trkpt>
      <trkpt lat="44.31723" lon="5.81372">
        <ele>580.5</ele>
        <time>2022-10-28T14:32:06Z</time>
      </trkpt>
      <trkpt lat="44.31718" lon="5.81375">
        <ele>580.5</ele>
        <time>2022-10-28T14:32:08Z</time>
      </trkpt>
      <trkpt lat="44.3171" lon="5.8138">
        <ele>580.6</ele>
        <time>2022-10-28T14:32:09Z</time>
      </trkpt>
      <trkpt lat="44.31706" lon="5.81383">
        <ele>580.6</ele>
        <time>2022-10-28T14:32:10Z</time>
      </trkpt>
      <trkpt lat="44.31701" lon="5.81386">
        <ele>580.6</ele>
        <time>2022-10-28T14:32:11Z</time>
      </trkpt>
      <trkpt lat="44.31698" lon="5.81389">
        <ele>580.6</ele>
        <time>2022-10-28T14:32:12Z</time>
      </trkpt>
      <trkpt lat="44.31694" lon="5.81393">
        <ele>580.5</ele>
        <time>2022-10-28T14:32:13Z</time>
      </trkpt>
      <trkpt lat="44.3169" lon="5.81397">
        <ele>580.5</ele>
        <time>2022-10-28T14:32:14Z</time>
      </trkpt>
      <trkpt lat="44.31687" lon="5.81401">
        <ele>580.5</ele>
        <time>2022-10-28T14:32:15Z</time>
      </trkpt>
      <trkpt lat="44.31684" lon="5.81406">
        <ele>580.5</ele>
        <time>2022-10-28T14:32:16Z</time>
      </trkpt>
      <trkpt lat="44.31681" lon="5.81411">
        <ele>580.4</ele>
        <time>2022-10-28T14:32:17Z</time>
      </trkpt>
      <trkpt lat="44.31678" lon="5.81417">
        <ele>580.4</ele>
        <time>2022-10-28T14:32:18Z</time>
      </trkpt>
      <trkpt lat="44.31676" lon="5.81424">
        <ele>580.3</ele>
        <time>2022-10-28T14:32:19Z</time>
      </trkpt>
      <trkpt lat="44.31675" lon="5.81432">
        <ele>580.2</ele>
        <time>2022-10-28T14:32:20Z</time>
      </trkpt>
      <trkpt lat="44.31674" lon="5.8144">
        <ele>580.1</ele>
        <time>2022-10-28T14:32:21Z</time>
      </trkpt>
      <trkpt lat="44.31672" lon="5.81447">
        <ele>579.9</ele>
        <time>2022-10-28T14:32:22Z</time>
      </trkpt>
      <trkpt lat="44.31671" lon="5.81455">
        <ele>579.8</ele>
        <time>2022-10-28T14:32:23Z</time>
      </trkpt>
      <trkpt lat="44.31669" lon="5.81463">
        <ele>579.7</ele>
        <time>2022-10-28T14:32:24Z</time>
      </trkpt>
      <trkpt lat="44.31667" lon="5.8147">
        <ele>579.6</ele>
        <time>2022-10-28T14:32:25Z</time>
      </trkpt>
      <trkpt lat="44.31665" lon="5.81479">
        <ele>579.5</ele>
        <time>2022-10-28T14:32:26Z</time>
      </trkpt>
      <trkpt lat="44.31663" lon="5.81487">
        <ele>579.4</ele>
        <time>2022-10-28T14:32:27Z</time>
      </trkpt>
      <trkpt lat="44.31662" lon="5.81496">
        <ele>579.3</ele>
        <time>2022-10-28T14:32:28Z</time>
      </trkpt>
      <trkpt lat="44.3166" lon="5.81504">
        <ele>579.2</ele>
        <time>2022-10-28T14:32:29Z</time>
      </trkpt>
      <trkpt lat="44.31658" lon="5.81512">
        <ele>579.2</ele>
        <time>2022-10-28T14:32:30Z</time>
      </trkpt>
      <trkpt lat="44.31657" lon="5.81521">
        <ele>579.1</ele>
        <time>2022-10-28T14:32:31Z</time>
      </trkpt>
      <trkpt lat="44.31654" lon="5.81529">
        <ele>579</ele>
        <time>2022-10-28T14:32:32Z</time>
      </trkpt>
      <trkpt lat="44.31652" lon="5.81537">
        <ele>578.9</ele>
        <time>2022-10-28T14:32:33Z</time>
      </trkpt>
      <trkpt lat="44.3165" lon="5.81545">
        <ele>578.8</ele>
        <time>2022-10-28T14:32:34Z</time>
      </trkpt>
      <trkpt lat="44.31647" lon="5.81554">
        <ele>578.7</ele>
        <time>2022-10-28T14:32:35Z</time>
      </trkpt>
      <trkpt lat="44.31644" lon="5.81562">
        <ele>578.6</ele>
        <time>2022-10-28T14:32:36Z</time>
      </trkpt>
      <trkpt lat="44.31641" lon="5.8157">
        <ele>578.5</ele>
        <time>2022-10-28T14:32:37Z</time>
      </trkpt>
      <trkpt lat="44.31638" lon="5.81577">
        <ele>578.5</ele>
        <time>2022-10-28T14:32:38Z</time>
      </trkpt>
      <trkpt lat="44.31635" lon="5.81585">
        <ele>578.4</ele>
        <time>2022-10-28T14:32:39Z</time>
      </trkpt>
      <trkpt lat="44.31632" lon="5.81593">
        <ele>578.4</ele>
        <time>2022-10-28T14:32:40Z</time>
      </trkpt>
      <trkpt lat="44.3163" lon="5.816">
        <ele>578.3</ele>
        <time>2022-10-28T14:32:41Z</time>
      </trkpt>
      <trkpt lat="44.31627" lon="5.81608">
        <ele>578.2</ele>
        <time>2022-10-28T14:32:42Z</time>
      </trkpt>
      <trkpt lat="44.31624" lon="5.81615">
        <ele>578.1</ele>
        <time>2022-10-28T14:32:43Z</time>
      </trkpt>
      <trkpt lat="44.31621" lon="5.81623">
        <ele>578.1</ele>
        <time>2022-10-28T14:32:44Z</time>
      </trkpt>
      <trkpt lat="44.31618" lon="5.8163">
        <ele>578</ele>
        <time>2022-10-28T14:32:45Z</time>
      </trkpt>
      <trkpt lat="44.31614" lon="5.81638">
        <ele>577.9</ele>
        <time>2022-10-28T14:32:46Z</time>
      </trkpt>
      <trkpt lat="44.31611" lon="5.81646">
        <ele>577.8</ele>
        <time>2022-10-28T14:32:47Z</time>
      </trkpt>
      <trkpt lat="44.31608" lon="5.81654">
        <ele>577.6</ele>
        <time>2022-10-28T14:32:48Z</time>
      </trkpt>
      <trkpt lat="44.31605" lon="5.81662">
        <ele>577.4</ele>
        <time>2022-10-28T14:32:49Z</time>
      </trkpt>
      <trkpt lat="44.31601" lon="5.8167">
        <ele>577.2</ele>
        <time>2022-10-28T14:32:50Z</time>
      </trkpt>
      <trkpt lat="44.31599" lon="5.81679">
        <ele>576.9</ele>
        <time>2022-10-28T14:32:51Z</time>
      </trkpt>
      <trkpt lat="44.31595" lon="5.81687">
        <ele>576.7</ele>
        <time>2022-10-28T14:32:52Z</time>
      </trkpt>
      <trkpt lat="44.31592" lon="5.81696">
        <ele>576.4</ele>
        <time>2022-10-28T14:32:53Z</time>
      </trkpt>
      <trkpt lat="44.31588" lon="5.81704">
        <ele>576</ele>
        <time>2022-10-28T14:32:54Z</time>
      </trkpt>
      <trkpt lat="44.31585" lon="5.81713">
        <ele>575.7</ele>
        <time>2022-10-28T14:32:55Z</time>
      </trkpt>
      <trkpt lat="44.31581" lon="5.81722">
        <ele>575.4</ele>
        <time>2022-10-28T14:32:56Z</time>
      </trkpt>
      <trkpt lat="44.31577" lon="5.8173">
        <ele>575.1</ele>
        <time>2022-10-28T14:32:57Z</time>
      </trkpt>
      <trkpt lat="44.31574" lon="5.81739">
        <ele>574.8</ele>
        <time>2022-10-28T14:32:58Z</time>
      </trkpt>
      <trkpt lat="44.3157" lon="5.81748">
        <ele>574.5</ele>
        <time>2022-10-28T14:32:59Z</time>
      </trkpt>
      <trkpt lat="44.31566" lon="5.81758">
        <ele>574.1</ele>
        <time>2022-10-28T14:33:00Z</time>
      </trkpt>
      <trkpt lat="44.31562" lon="5.81767">
        <ele>574.1</ele>
        <time>2022-10-28T14:33:01Z</time>
      </trkpt>
      <trkpt lat="44.31558" lon="5.81777">
        <ele>574</ele>
        <time>2022-10-28T14:33:02Z</time>
      </trkpt>
      <trkpt lat="44.31554" lon="5.81786">
        <ele>573.8</ele>
        <time>2022-10-28T14:33:03Z</time>
      </trkpt>
      <trkpt lat="44.3155" lon="5.81796">
        <ele>573.7</ele>
        <time>2022-10-28T14:33:04Z</time>
      </trkpt>
      <trkpt lat="44.31546" lon="5.81806">
        <ele>573.5</ele>
        <time>2022-10-28T14:33:05Z</time>
      </trkpt>
      <trkpt lat="44.31542" lon="5.81815">
        <ele>573.3</ele>
        <time>2022-10-28T14:33:06Z</time>
      </trkpt>
      <trkpt lat="44.31539" lon="5.81825">
        <ele>573.2</ele>
        <time>2022-10-28T14:33:07Z</time>
      </trkpt>
      <trkpt lat="44.31535" lon="5.81834">
        <ele>573.1</ele>
        <time>2022-10-28T14:33:08Z</time>
      </trkpt>
      <trkpt lat="44.31531" lon="5.81842">
        <ele>573.1</ele>
        <time>2022-10-28T14:33:09Z</time>
      </trkpt>
      <trkpt lat="44.31528" lon="5.81851">
        <ele>573</ele>
        <time>2022-10-28T14:33:10Z</time>
      </trkpt>
      <trkpt lat="44.31524" lon="5.81859">
        <ele>572.9</ele>
        <time>2022-10-28T14:33:11Z</time>
      </trkpt>
      <trkpt lat="44.31521" lon="5.81868">
        <ele>572.9</ele>
        <time>2022-10-28T14:33:12Z</time>
      </trkpt>
      <trkpt lat="44.31518" lon="5.81876">
        <ele>572.9</ele>
        <time>2022-10-28T14:33:13Z</time>
      </trkpt>
      <trkpt lat="44.31515" lon="5.81885">
        <ele>572.8</ele>
        <time>2022-10-28T14:33:14Z</time>
      </trkpt>
      <trkpt lat="44.31512" lon="5.81893">
        <ele>572.8</ele>
        <time>2022-10-28T14:33:15Z</time>
      </trkpt>
      <trkpt lat="44.31509" lon="5.81901">
        <ele>572.7</ele>
        <time>2022-10-28T14:33:16Z</time>
      </trkpt>
      <trkpt lat="44.31506" lon="5.8191">
        <ele>572.7</ele>
        <time>2022-10-28T14:33:17Z</time>
      </trkpt>
      <trkpt lat="44.31502" lon="5.81918">
        <ele>572.7</ele>
        <time>2022-10-28T14:33:18Z</time>
      </trkpt>
      <trkpt lat="44.31499" lon="5.81926">
        <ele>572.6</ele>
        <time>2022-10-28T14:33:19Z</time>
      </trkpt>
      <trkpt lat="44.31496" lon="5.81935">
        <ele>572.6</ele>
        <time>2022-10-28T14:33:20Z</time>
      </trkpt>
      <trkpt lat="44.31492" lon="5.81943">
        <ele>572.6</ele>
        <time>2022-10-28T14:33:21Z</time>
      </trkpt>
      <trkpt lat="44.31489" lon="5.8195">
        <ele>572.6</ele>
        <time>2022-10-28T14:33:22Z</time>
      </trkpt>
      <trkpt lat="44.31486" lon="5.81958">
        <ele>572.6</ele>
        <time>2022-10-28T14:33:23Z</time>
      </trkpt>
      <trkpt lat="44.31483" lon="5.81965">
        <ele>572.5</ele>
        <time>2022-10-28T14:33:24Z</time>
      </trkpt>
      <trkpt lat="44.31479" lon="5.81973">
        <ele>572.5</ele>
        <time>2022-10-28T14:33:25Z</time>
      </trkpt>
      <trkpt lat="44.31476" lon="5.81981">
        <ele>572.5</ele>
        <time>2022-10-28T14:33:26Z</time>
      </trkpt>
      <trkpt lat="44.31473" lon="5.81988">
        <ele>572.5</ele>
        <time>2022-10-28T14:33:27Z</time>
      </trkpt>
      <trkpt lat="44.3147" lon="5.81995">
        <ele>572.5</ele>
        <time>2022-10-28T14:33:28Z</time>
      </trkpt>
      <trkpt lat="44.31467" lon="5.82003">
        <ele>572.5</ele>
        <time>2022-10-28T14:33:29Z</time>
      </trkpt>
      <trkpt lat="44.31464" lon="5.82011">
        <ele>572.5</ele>
        <time>2022-10-28T14:33:30Z</time>
      </trkpt>
      <trkpt lat="44.31461" lon="5.82018">
        <ele>572.5</ele>
        <time>2022-10-28T14:33:31Z</time>
      </trkpt>
      <trkpt lat="44.31458" lon="5.82024">
        <ele>572.5</ele>
        <time>2022-10-28T14:33:32Z</time>
      </trkpt>
      <trkpt lat="44.31455" lon="5.82031">
        <ele>572.5</ele>
        <time>2022-10-28T14:33:33Z</time>
      </trkpt>
      <trkpt lat="44.31452" lon="5.82038">
        <ele>572.5</ele>
        <time>2022-10-28T14:33:34Z</time>
      </trkpt>
      <trkpt lat="44.31449" lon="5.82045">
        <ele>572.4</ele>
        <time>2022-10-28T14:33:35Z</time>
      </trkpt>
      <trkpt lat="44.31446" lon="5.82051">
        <ele>572.4</ele>
        <time>2022-10-28T14:33:36Z</time>
      </trkpt>
      <trkpt lat="44.31443" lon="5.82059">
        <ele>572.3</ele>
        <time>2022-10-28T14:33:37Z</time>
      </trkpt>
      <trkpt lat="44.3144" lon="5.82066">
        <ele>572.3</ele>
        <time>2022-10-28T14:33:38Z</time>
      </trkpt>
      <trkpt lat="44.31437" lon="5.82073">
        <ele>572.2</ele>
        <time>2022-10-28T14:33:39Z</time>
      </trkpt>
      <trkpt lat="44.31434" lon="5.82081">
        <ele>572.1</ele>
        <time>2022-10-28T14:33:40Z</time>
      </trkpt>
      <trkpt lat="44.31432" lon="5.82088">
        <ele>572.1</ele>
        <time>2022-10-28T14:33:41Z</time>
      </trkpt>
      <trkpt lat="44.3143" lon="5.82096">
        <ele>572</ele>
        <time>2022-10-28T14:33:42Z</time>
      </trkpt>
      <trkpt lat="44.31428" lon="5.82105">
        <ele>571.9</ele>
        <time>2022-10-28T14:33:43Z</time>
      </trkpt>
      <trkpt lat="44.31426" lon="5.82114">
        <ele>571.9</ele>
        <time>2022-10-28T14:33:44Z</time>
      </trkpt>
      <trkpt lat="44.31424" lon="5.82123">
        <ele>571.9</ele>
        <time>2022-10-28T14:33:45Z</time>
      </trkpt>
      <trkpt lat="44.31423" lon="5.82131">
        <ele>571.9</ele>
        <time>2022-10-28T14:33:46Z</time>
      </trkpt>
      <trkpt lat="44.31421" lon="5.82139">
        <ele>571.9</ele>
        <time>2022-10-28T14:33:47Z</time>
      </trkpt>
      <trkpt lat="44.31419" lon="5.82147">
        <ele>571.9</ele>
        <time>2022-10-28T14:33:48Z</time>
      </trkpt>
      <trkpt lat="44.31418" lon="5.82156">
        <ele>571.9</ele>
        <time>2022-10-28T14:33:49Z</time>
      </trkpt>
      <trkpt lat="44.31416" lon="5.82164">
        <ele>571.9</ele>
        <time>2022-10-28T14:33:50Z</time>
      </trkpt>
      <trkpt lat="44.31414" lon="5.82172">
        <ele>571.9</ele>
        <time>2022-10-28T14:33:51Z</time>
      </trkpt>
      <trkpt lat="44.31411" lon="5.8218">
        <ele>571.8</ele>
        <time>2022-10-28T14:33:52Z</time>
      </trkpt>
      <trkpt lat="44.31408" lon="5.82187">
        <ele>571.8</ele>
        <time>2022-10-28T14:33:53Z</time>
      </trkpt>
      <trkpt lat="44.31404" lon="5.82193">
        <ele>571.8</ele>
        <time>2022-10-28T14:33:54Z</time>
      </trkpt>
      <trkpt lat="44.314" lon="5.82198">
        <ele>571.8</ele>
        <time>2022-10-28T14:33:55Z</time>
      </trkpt>
      <trkpt lat="44.31397" lon="5.82205">
        <ele>571.8</ele>
        <time>2022-10-28T14:33:56Z</time>
      </trkpt>
      <trkpt lat="44.31394" lon="5.82212">
        <ele>571.7</ele>
        <time>2022-10-28T14:33:57Z</time>
      </trkpt>
      <trkpt lat="44.31393" lon="5.82219">
        <ele>571.7</ele>
        <time>2022-10-28T14:33:58Z</time>
      </trkpt>
      <trkpt lat="44.31392" lon="5.82226">
        <ele>571.6</ele>
        <time>2022-10-28T14:33:59Z</time>
      </trkpt>
      <trkpt lat="44.31392" lon="5.82233">
        <ele>571.6</ele>
        <time>2022-10-28T14:34:00Z</time>
      </trkpt>
      <trkpt lat="44.31393" lon="5.82239">
        <ele>571.5</ele>
        <time>2022-10-28T14:34:01Z</time>
      </trkpt>
      <trkpt lat="44.31394" lon="5.82245">
        <ele>571.5</ele>
        <time>2022-10-28T14:34:02Z</time>
      </trkpt>
      <trkpt lat="44.31396" lon="5.82252">
        <ele>571.5</ele>
        <time>2022-10-28T14:34:03Z</time>
      </trkpt>
      <trkpt lat="44.31398" lon="5.82258">
        <ele>571.4</ele>
        <time>2022-10-28T14:34:04Z</time>
      </trkpt>
      <trkpt lat="44.314" lon="5.82264">
        <ele>571.4</ele>
        <time>2022-10-28T14:34:05Z</time>
      </trkpt>
      <trkpt lat="44.31402" lon="5.8227">
        <ele>571.4</ele>
        <time>2022-10-28T14:34:06Z</time>
      </trkpt>
      <trkpt lat="44.31403" lon="5.82274">
        <ele>571.4</ele>
        <time>2022-10-28T14:34:07Z</time>
      </trkpt>
      <trkpt lat="44.31405" lon="5.8228">
        <ele>571.4</ele>
        <time>2022-10-28T14:34:08Z</time>
      </trkpt>
      <trkpt lat="44.31407" lon="5.82285">
        <ele>571.4</ele>
        <time>2022-10-28T14:34:09Z</time>
      </trkpt>
      <trkpt lat="44.31408" lon="5.8229">
        <ele>571.4</ele>
        <time>2022-10-28T14:34:10Z</time>
      </trkpt>
      <trkpt lat="44.31408" lon="5.82293">
        <ele>571.3</ele>
        <time>2022-10-28T14:34:11Z</time>
      </trkpt>
      <trkpt lat="44.31408" lon="5.82297">
        <ele>571.3</ele>
        <time>2022-10-28T14:34:12Z</time>
      </trkpt>
      <trkpt lat="44.31408" lon="5.82298">
        <ele>571.3</ele>
        <time>2022-10-28T14:34:13Z</time>
      </trkpt>
      <trkpt lat="44.31408" lon="5.82299">
        <ele>571.3</ele>
        <time>2022-10-28T14:34:14Z</time>
      </trkpt>
      <trkpt lat="44.31408" lon="5.82299">
        <ele>571.3</ele>
        <time>2022-10-28T14:34:15Z</time>
      </trkpt>
      <trkpt lat="44.31408" lon="5.82299">
        <ele>571.3</ele>
        <time>2022-10-28T14:34:16Z</time>
      </trkpt>
      <trkpt lat="44.31408" lon="5.82298">
        <ele>571.3</ele>
        <time>2022-10-28T14:34:17Z</time>
      </trkpt>
      <trkpt lat="44.31408" lon="5.82299">
        <ele>571.3</ele>
        <time>2022-10-28T14:34:18Z</time>
      </trkpt>
      <trkpt lat="44.31408" lon="5.82299">
        <ele>571.3</ele>
        <time>2022-10-28T14:34:19Z</time>
      </trkpt>
      <trkpt lat="44.31408" lon="5.82299">
        <ele>571.3</ele>
        <time>2022-10-28T14:34:20Z</time>
      </trkpt>
      <trkpt lat="44.31408" lon="5.82299">
        <ele>571.3</ele>
        <time>2022-10-28T14:34:21Z</time>
      </trkpt>
      <trkpt lat="44.31408" lon="5.82299">
        <ele>571.3</ele>
        <time>2022-10-28T14:34:22Z</time>
      </trkpt>
      <trkpt lat="44.31408" lon="5.82299">
        <ele>571.3</ele>
        <time>2022-10-28T14:34:23Z</time>
      </trkpt>
      <trkpt lat="44.31408" lon="5.82299">
        <ele>571.3</ele>
        <time>2022-10-28T14:34:24Z</time>
      </trkpt>
      <trkpt lat="44.3141" lon="5.823">
        <ele>571.3</ele>
        <time>2022-10-28T14:34:35Z</time>
      </trkpt>
      <trkpt lat="44.3141" lon="5.823">
        <ele>571.3</ele>
        <time>2022-10-28T14:34:37Z</time>
      </trkpt>
      <trkpt lat="44.3141" lon="5.823">
        <ele>571.3</ele>
        <time>2022-10-28T14:34:38Z</time>
      </trkpt>
      <trkpt lat="44.3141" lon="5.823">
        <ele>571.3</ele>
        <time>2022-10-28T14:34:39Z</time>
      </trkpt>
      <trkpt lat="44.31411" lon="5.823">
        <ele>571.3</ele>
        <time>2022-10-28T14:34:40Z</time>
      </trkpt>
      <trkpt lat="44.31412" lon="5.823">
        <ele>571.3</ele>
        <time>2022-10-28T14:34:41Z</time>
      </trkpt>
      <trkpt lat="44.31413" lon="5.823">
        <ele>571.3</ele>
        <time>2022-10-28T14:34:42Z</time>
      </trkpt>
      <trkpt lat="44.31413" lon="5.82299">
        <ele>571.3</ele>
        <time>2022-10-28T14:34:43Z</time>
      </trkpt>
      <trkpt lat="44.31414" lon="5.82295">
        <ele>571.3</ele>
        <time>2022-10-28T14:34:45Z</time>
      </trkpt>
      <trkpt lat="44.31414" lon="5.82294">
        <ele>571.3</ele>
        <time>2022-10-28T14:34:46Z</time>
      </trkpt>
      <trkpt lat="44.31415" lon="5.82292">
        <ele>571.3</ele>
        <time>2022-10-28T14:34:47Z</time>
      </trkpt>
      <trkpt lat="44.31415" lon="5.8229">
        <ele>571.3</ele>
        <time>2022-10-28T14:34:48Z</time>
      </trkpt>
      <trkpt lat="44.31414" lon="5.82289">
        <ele>571.3</ele>
        <time>2022-10-28T14:34:49Z</time>
      </trkpt>
      <trkpt lat="44.31414" lon="5.82288">
        <ele>571.3</ele>
        <time>2022-10-28T14:34:50Z</time>
      </trkpt>
      <trkpt lat="44.31414" lon="5.82287">
        <ele>571.3</ele>
        <time>2022-10-28T14:34:51Z</time>
      </trkpt>
      <trkpt lat="44.31414" lon="5.82286">
        <ele>571.3</ele>
        <time>2022-10-28T14:34:52Z</time>
      </trkpt>
      <trkpt lat="44.31413" lon="5.82285">
        <ele>571.3</ele>
        <time>2022-10-28T14:34:54Z</time>
      </trkpt>
      <trkpt lat="44.31413" lon="5.82284">
        <ele>571.3</ele>
        <time>2022-10-28T14:34:55Z</time>
      </trkpt>
      <trkpt lat="44.31413" lon="5.82283">
        <ele>571.2</ele>
        <time>2022-10-28T14:34:56Z</time>
      </trkpt>
      <trkpt lat="44.31413" lon="5.82282">
        <ele>571.2</ele>
        <time>2022-10-28T14:34:57Z</time>
      </trkpt>
      <trkpt lat="44.31412" lon="5.8228">
        <ele>571.2</ele>
        <time>2022-10-28T14:34:58Z</time>
      </trkpt>
      <trkpt lat="44.31412" lon="5.8228">
        <ele>571.2</ele>
        <time>2022-10-28T14:35:00Z</time>
      </trkpt>
      <trkpt lat="44.31412" lon="5.8228">
        <ele>571.2</ele>
        <time>2022-10-28T14:35:01Z</time>
      </trkpt>
      <trkpt lat="44.31412" lon="5.82281">
        <ele>571.2</ele>
        <time>2022-10-28T14:35:02Z</time>
      </trkpt>
      <trkpt lat="44.31412" lon="5.82282">
        <ele>571.2</ele>
        <time>2022-10-28T14:35:03Z</time>
      </trkpt>
      <trkpt lat="44.31412" lon="5.82283">
        <ele>571.2</ele>
        <time>2022-10-28T14:35:04Z</time>
      </trkpt>
      <trkpt lat="44.31413" lon="5.82284">
        <ele>571.2</ele>
        <time>2022-10-28T14:35:05Z</time>
      </trkpt>
      <trkpt lat="44.31413" lon="5.82284">
        <ele>571.2</ele>
        <time>2022-10-28T14:35:06Z</time>
      </trkpt>
      <trkpt lat="44.31413" lon="5.82285">
        <ele>571.2</ele>
        <time>2022-10-28T14:35:07Z</time>
      </trkpt>
      <trkpt lat="44.31413" lon="5.82286">
        <ele>571.2</ele>
        <time>2022-10-28T14:35:08Z</time>
      </trkpt>
      <trkpt lat="44.31413" lon="5.82287">
        <ele>571.2</ele>
        <time>2022-10-28T14:35:09Z</time>
      </trkpt>
      <trkpt lat="44.31413" lon="5.82288">
        <ele>571.2</ele>
        <time>2022-10-28T14:35:10Z</time>
      </trkpt>
      <trkpt lat="44.31413" lon="5.82288">
        <ele>571.2</ele>
        <time>2022-10-28T14:35:11Z</time>
      </trkpt>
      <trkpt lat="44.31413" lon="5.82289">
        <ele>571.2</ele>
        <time>2022-10-28T14:39:34Z</time>
      </trkpt>
      <trkpt lat="44.31413" lon="5.8229">
        <ele>571.2</ele>
        <time>2022-10-28T14:39:35Z</time>
      </trkpt>
      <trkpt lat="44.31413" lon="5.82291">
        <ele>571.2</ele>
        <time>2022-10-28T14:39:36Z</time>
      </trkpt>
      <trkpt lat="44.31413" lon="5.82292">
        <ele>571.2</ele>
        <time>2022-10-28T14:39:37Z</time>
      </trkpt>
      <trkpt lat="44.31413" lon="5.82293">
        <ele>571.2</ele>
        <time>2022-10-28T14:39:38Z</time>
      </trkpt>
      <trkpt lat="44.31413" lon="5.82294">
        <ele>571.2</ele>
        <time>2022-10-28T14:39:39Z</time>
      </trkpt>
      <trkpt lat="44.31413" lon="5.82295">
        <ele>571.2</ele>
        <time>2022-10-28T14:39:40Z</time>
      </trkpt>
      <trkpt lat="44.31412" lon="5.82298">
        <ele>571.2</ele>
        <time>2022-10-28T14:39:41Z</time>
      </trkpt>
      <trkpt lat="44.31412" lon="5.823">
        <ele>571.1</ele>
        <time>2022-10-28T14:39:42Z</time>
      </trkpt>
      <trkpt lat="44.31413" lon="5.82304">
        <ele>571.1</ele>
        <time>2022-10-28T14:39:44Z</time>
      </trkpt>
      <trkpt lat="44.31414" lon="5.82309">
        <ele>571</ele>
        <time>2022-10-28T14:39:45Z</time>
      </trkpt>
      <trkpt lat="44.31416" lon="5.82318">
        <ele>570.9</ele>
        <time>2022-10-28T14:39:47Z</time>
      </trkpt>
      <trkpt lat="44.31418" lon="5.82324">
        <ele>570.8</ele>
        <time>2022-10-28T14:39:48Z</time>
      </trkpt>
      <trkpt lat="44.31419" lon="5.8233">
        <ele>570.8</ele>
        <time>2022-10-28T14:39:49Z</time>
      </trkpt>
      <trkpt lat="44.31422" lon="5.82336">
        <ele>570.7</ele>
        <time>2022-10-28T14:39:50Z</time>
      </trkpt>
      <trkpt lat="44.31425" lon="5.82342">
        <ele>570.6</ele>
        <time>2022-10-28T14:39:52Z</time>
      </trkpt>
      <trkpt lat="44.31428" lon="5.82347">
        <ele>570.6</ele>
        <time>2022-10-28T14:39:53Z</time>
      </trkpt>
      <trkpt lat="44.31431" lon="5.82352">
        <ele>570.5</ele>
        <time>2022-10-28T14:39:54Z</time>
      </trkpt>
      <trkpt lat="44.31433" lon="5.82357">
        <ele>570.4</ele>
        <time>2022-10-28T14:39:55Z</time>
      </trkpt>
      <trkpt lat="44.31436" lon="5.82363">
        <ele>570.3</ele>
        <time>2022-10-28T14:39:57Z</time>
      </trkpt>
      <trkpt lat="44.31438" lon="5.82369">
        <ele>570.2</ele>
        <time>2022-10-28T14:39:58Z</time>
      </trkpt>
      <trkpt lat="44.31439" lon="5.82375">
        <ele>570.1</ele>
        <time>2022-10-28T14:39:59Z</time>
      </trkpt>
      <trkpt lat="44.3144" lon="5.82383">
        <ele>570</ele>
        <time>2022-10-28T14:40:00Z</time>
      </trkpt>
      <trkpt lat="44.3144" lon="5.82391">
        <ele>569.9</ele>
        <time>2022-10-28T14:40:01Z</time>
      </trkpt>
      <trkpt lat="44.31439" lon="5.82398">
        <ele>569.8</ele>
        <time>2022-10-28T14:40:02Z</time>
      </trkpt>
      <trkpt lat="44.31439" lon="5.82406">
        <ele>569.7</ele>
        <time>2022-10-28T14:40:03Z</time>
      </trkpt>
      <trkpt lat="44.31439" lon="5.82413">
        <ele>569.6</ele>
        <time>2022-10-28T14:40:04Z</time>
      </trkpt>
      <trkpt lat="44.31439" lon="5.8242">
        <ele>569.5</ele>
        <time>2022-10-28T14:40:05Z</time>
      </trkpt>
      <trkpt lat="44.31438" lon="5.82427">
        <ele>569.4</ele>
        <time>2022-10-28T14:40:06Z</time>
      </trkpt>
      <trkpt lat="44.31436" lon="5.82435">
        <ele>569.4</ele>
        <time>2022-10-28T14:40:07Z</time>
      </trkpt>
      <trkpt lat="44.31435" lon="5.82442">
        <ele>569.3</ele>
        <time>2022-10-28T14:40:08Z</time>
      </trkpt>
      <trkpt lat="44.31433" lon="5.82449">
        <ele>569.3</ele>
        <time>2022-10-28T14:40:09Z</time>
      </trkpt>
      <trkpt lat="44.31432" lon="5.82454">
        <ele>569.2</ele>
        <time>2022-10-28T14:40:10Z</time>
      </trkpt>
      <trkpt lat="44.31431" lon="5.82462">
        <ele>569.1</ele>
        <time>2022-10-28T14:40:11Z</time>
      </trkpt>
      <trkpt lat="44.31429" lon="5.82469">
        <ele>569.1</ele>
        <time>2022-10-28T14:40:12Z</time>
      </trkpt>
      <trkpt lat="44.31427" lon="5.82477">
        <ele>569</ele>
        <time>2022-10-28T14:40:13Z</time>
      </trkpt>
      <trkpt lat="44.31425" lon="5.82485">
        <ele>568.9</ele>
        <time>2022-10-28T14:40:14Z</time>
      </trkpt>
      <trkpt lat="44.31424" lon="5.82493">
        <ele>568.9</ele>
        <time>2022-10-28T14:40:15Z</time>
      </trkpt>
      <trkpt lat="44.31422" lon="5.825">
        <ele>568.8</ele>
        <time>2022-10-28T14:40:16Z</time>
      </trkpt>
      <trkpt lat="44.31421" lon="5.82507">
        <ele>568.8</ele>
        <time>2022-10-28T14:40:17Z</time>
      </trkpt>
      <trkpt lat="44.31418" lon="5.82515">
        <ele>568.7</ele>
        <time>2022-10-28T14:40:18Z</time>
      </trkpt>
      <trkpt lat="44.31416" lon="5.82522">
        <ele>568.7</ele>
        <time>2022-10-28T14:40:19Z</time>
      </trkpt>
      <trkpt lat="44.31414" lon="5.82529">
        <ele>568.6</ele>
        <time>2022-10-28T14:40:20Z</time>
      </trkpt>
      <trkpt lat="44.31413" lon="5.82536">
        <ele>568.6</ele>
        <time>2022-10-28T14:40:21Z</time>
      </trkpt>
      <trkpt lat="44.31411" lon="5.82544">
        <ele>568.6</ele>
        <time>2022-10-28T14:40:22Z</time>
      </trkpt>
      <trkpt lat="44.3141" lon="5.82551">
        <ele>568.5</ele>
        <time>2022-10-28T14:40:23Z</time>
      </trkpt>
      <trkpt lat="44.31408" lon="5.82559">
        <ele>568.5</ele>
        <time>2022-10-28T14:40:24Z</time>
      </trkpt>
      <trkpt lat="44.31407" lon="5.82567">
        <ele>568.4</ele>
        <time>2022-10-28T14:40:25Z</time>
      </trkpt>
      <trkpt lat="44.31405" lon="5.82575">
        <ele>568.4</ele>
        <time>2022-10-28T14:40:26Z</time>
      </trkpt>
      <trkpt lat="44.31404" lon="5.82582">
        <ele>568.4</ele>
        <time>2022-10-28T14:40:27Z</time>
      </trkpt>
      <trkpt lat="44.31402" lon="5.8259">
        <ele>568.3</ele>
        <time>2022-10-28T14:40:28Z</time>
      </trkpt>
      <trkpt lat="44.31401" lon="5.82597">
        <ele>568.3</ele>
        <time>2022-10-28T14:40:29Z</time>
      </trkpt>
      <trkpt lat="44.31399" lon="5.82604">
        <ele>568.3</ele>
        <time>2022-10-28T14:40:30Z</time>
      </trkpt>
      <trkpt lat="44.31397" lon="5.82611">
        <ele>568.2</ele>
        <time>2022-10-28T14:40:31Z</time>
      </trkpt>
      <trkpt lat="44.31396" lon="5.82619">
        <ele>568.2</ele>
        <time>2022-10-28T14:40:32Z</time>
      </trkpt>
      <trkpt lat="44.31393" lon="5.82626">
        <ele>568.2</ele>
        <time>2022-10-28T14:40:33Z</time>
      </trkpt>
      <trkpt lat="44.31391" lon="5.82632">
        <ele>568.2</ele>
        <time>2022-10-28T14:40:34Z</time>
      </trkpt>
      <trkpt lat="44.31388" lon="5.82638">
        <ele>568.2</ele>
        <time>2022-10-28T14:40:35Z</time>
      </trkpt>
      <trkpt lat="44.31385" lon="5.82644">
        <ele>568.2</ele>
        <time>2022-10-28T14:40:36Z</time>
      </trkpt>
      <trkpt lat="44.31382" lon="5.8265">
        <ele>568.1</ele>
        <time>2022-10-28T14:40:37Z</time>
      </trkpt>
      <trkpt lat="44.31379" lon="5.82656">
        <ele>568.1</ele>
        <time>2022-10-28T14:40:38Z</time>
      </trkpt>
      <trkpt lat="44.31376" lon="5.82661">
        <ele>568.1</ele>
        <time>2022-10-28T14:40:39Z</time>
      </trkpt>
      <trkpt lat="44.31373" lon="5.82665">
        <ele>568.1</ele>
        <time>2022-10-28T14:40:40Z</time>
      </trkpt>
      <trkpt lat="44.31372" lon="5.82668">
        <ele>568.1</ele>
        <time>2022-10-28T14:40:41Z</time>
      </trkpt>
      <trkpt lat="44.31371" lon="5.82669">
        <ele>568.1</ele>
        <time>2022-10-28T14:40:42Z</time>
      </trkpt>
      <trkpt lat="44.3137" lon="5.82671">
        <ele>568.1</ele>
        <time>2022-10-28T14:40:43Z</time>
      </trkpt>
      <trkpt lat="44.31369" lon="5.82672">
        <ele>568.1</ele>
        <time>2022-10-28T14:40:44Z</time>
      </trkpt>
      <trkpt lat="44.31366" lon="5.82675">
        <ele>568.1</ele>
        <time>2022-10-28T14:40:45Z</time>
      </trkpt>
      <trkpt lat="44.31366" lon="5.82676">
        <ele>568.1</ele>
        <time>2022-10-28T14:40:46Z</time>
      </trkpt>
      <trkpt lat="44.31363" lon="5.82677">
        <ele>568.1</ele>
        <time>2022-10-28T14:40:47Z</time>
      </trkpt>
      <trkpt lat="44.31361" lon="5.82677">
        <ele>568.1</ele>
        <time>2022-10-28T14:40:48Z</time>
      </trkpt>
      <trkpt lat="44.31354" lon="5.82683">
        <ele>568.1</ele>
        <time>2022-10-28T14:40:50Z</time>
      </trkpt>
      <trkpt lat="44.31351" lon="5.8269">
        <ele>568.2</ele>
        <time>2022-10-28T14:40:51Z</time>
      </trkpt>
      <trkpt lat="44.31349" lon="5.82698">
        <ele>568.1</ele>
        <time>2022-10-28T14:40:52Z</time>
      </trkpt>
      <trkpt lat="44.31349" lon="5.82706">
        <ele>568.1</ele>
        <time>2022-10-28T14:40:53Z</time>
      </trkpt>
      <trkpt lat="44.31346" lon="5.82712">
        <ele>568.1</ele>
        <time>2022-10-28T14:40:54Z</time>
      </trkpt>
      <trkpt lat="44.31342" lon="5.82719">
        <ele>568</ele>
        <time>2022-10-28T14:40:55Z</time>
      </trkpt>
      <trkpt lat="44.31339" lon="5.82725">
        <ele>568</ele>
        <time>2022-10-28T14:40:56Z</time>
      </trkpt>
      <trkpt lat="44.31336" lon="5.8273">
        <ele>567.9</ele>
        <time>2022-10-28T14:40:57Z</time>
      </trkpt>
      <trkpt lat="44.31332" lon="5.82735">
        <ele>567.9</ele>
        <time>2022-10-28T14:40:58Z</time>
      </trkpt>
      <trkpt lat="44.31328" lon="5.82741">
        <ele>567.9</ele>
        <time>2022-10-28T14:40:59Z</time>
      </trkpt>
      <trkpt lat="44.31324" lon="5.82747">
        <ele>567.9</ele>
        <time>2022-10-28T14:41:00Z</time>
      </trkpt>
      <trkpt lat="44.3132" lon="5.82752">
        <ele>567.9</ele>
        <time>2022-10-28T14:41:01Z</time>
      </trkpt>
      <trkpt lat="44.31315" lon="5.82757">
        <ele>567.9</ele>
        <time>2022-10-28T14:41:02Z</time>
      </trkpt>
      <trkpt lat="44.31312" lon="5.82763">
        <ele>567.9</ele>
        <time>2022-10-28T14:41:03Z</time>
      </trkpt>
      <trkpt lat="44.31308" lon="5.82768">
        <ele>567.8</ele>
        <time>2022-10-28T14:41:04Z</time>
      </trkpt>
      <trkpt lat="44.31304" lon="5.82774">
        <ele>567.8</ele>
        <time>2022-10-28T14:41:05Z</time>
      </trkpt>
      <trkpt lat="44.31301" lon="5.82779">
        <ele>567.8</ele>
        <time>2022-10-28T14:41:06Z</time>
      </trkpt>
      <trkpt lat="44.31297" lon="5.82784">
        <ele>567.8</ele>
        <time>2022-10-28T14:41:07Z</time>
      </trkpt>
      <trkpt lat="44.31293" lon="5.82789">
        <ele>567.8</ele>
        <time>2022-10-28T14:41:08Z</time>
      </trkpt>
      <trkpt lat="44.31289" lon="5.82793">
        <ele>567.8</ele>
        <time>2022-10-28T14:41:09Z</time>
      </trkpt>
      <trkpt lat="44.31285" lon="5.82793">
        <ele>567.8</ele>
        <time>2022-10-28T14:41:10Z</time>
      </trkpt>
      <trkpt lat="44.31282" lon="5.82791">
        <ele>567.8</ele>
        <time>2022-10-28T14:41:11Z</time>
      </trkpt>
      <trkpt lat="44.31279" lon="5.82788">
        <ele>567.8</ele>
        <time>2022-10-28T14:41:12Z</time>
      </trkpt>
      <trkpt lat="44.31276" lon="5.82786">
        <ele>567.8</ele>
        <time>2022-10-28T14:41:13Z</time>
      </trkpt>
      <trkpt lat="44.31273" lon="5.82786">
        <ele>567.7</ele>
        <time>2022-10-28T14:41:14Z</time>
      </trkpt>
      <trkpt lat="44.31269" lon="5.82787">
        <ele>567.7</ele>
        <time>2022-10-28T14:41:15Z</time>
      </trkpt>
      <trkpt lat="44.31266" lon="5.8279">
        <ele>567.7</ele>
        <time>2022-10-28T14:41:16Z</time>
      </trkpt>
      <trkpt lat="44.31266" lon="5.82791">
        <ele>567.7</ele>
        <time>2022-10-28T14:41:17Z</time>
      </trkpt>
      <trkpt lat="44.31263" lon="5.82791">
        <ele>567.7</ele>
        <time>2022-10-28T14:41:18Z</time>
      </trkpt>
      <trkpt lat="44.31261" lon="5.82791">
        <ele>567.7</ele>
        <time>2022-10-28T14:41:19Z</time>
      </trkpt>
      <trkpt lat="44.31261" lon="5.8279">
        <ele>567.7</ele>
        <time>2022-10-28T14:41:20Z</time>
      </trkpt>
      <trkpt lat="44.3126" lon="5.82789">
        <ele>567.7</ele>
        <time>2022-10-28T14:41:21Z</time>
      </trkpt>
      <trkpt lat="44.31261" lon="5.82789">
        <ele>567.7</ele>
        <time>2022-10-28T14:41:22Z</time>
      </trkpt>
      <trkpt lat="44.31261" lon="5.82789">
        <ele>567.7</ele>
        <time>2022-10-28T14:41:24Z</time>
      </trkpt>
      <trkpt lat="44.31262" lon="5.82789">
        <ele>567.7</ele>
        <time>2022-10-28T14:41:25Z</time>
      </trkpt>
      <trkpt lat="44.31263" lon="5.82789">
        <ele>567.7</ele>
        <time>2022-10-28T14:41:26Z</time>
      </trkpt>
      <trkpt lat="44.31263" lon="5.8279">
        <ele>567.7</ele>
        <time>2022-10-28T14:41:28Z</time>
      </trkpt>
      <trkpt lat="44.31264" lon="5.8279">
        <ele>567.7</ele>
        <time>2022-10-28T14:41:29Z</time>
      </trkpt>
      <trkpt lat="44.31265" lon="5.8279">
        <ele>567.7</ele>
        <time>2022-10-28T14:41:30Z</time>
      </trkpt>
      <trkpt lat="44.31265" lon="5.8279">
        <ele>567.7</ele>
        <time>2022-10-28T14:41:31Z</time>
      </trkpt>
      <trkpt lat="44.31266" lon="5.82791">
        <ele>567.7</ele>
        <time>2022-10-28T14:41:32Z</time>
      </trkpt>
      <trkpt lat="44.31267" lon="5.82791">
        <ele>567.7</ele>
        <time>2022-10-28T14:41:33Z</time>
      </trkpt>
      <trkpt lat="44.31268" lon="5.82791">
        <ele>567.7</ele>
        <time>2022-10-28T14:41:34Z</time>
      </trkpt>
      <trkpt lat="44.31268" lon="5.82792">
        <ele>567.7</ele>
        <time>2022-10-28T14:41:35Z</time>
      </trkpt>
      <trkpt lat="44.31269" lon="5.82792">
        <ele>567.7</ele>
        <time>2022-10-28T14:41:36Z</time>
      </trkpt>
      <trkpt lat="44.3127" lon="5.82792">
        <ele>567.7</ele>
        <time>2022-10-28T14:41:37Z</time>
      </trkpt>
      <trkpt lat="44.3127" lon="5.82792">
        <ele>567.7</ele>
        <time>2022-10-28T14:41:38Z</time>
      </trkpt>
      <trkpt lat="44.31271" lon="5.82793">
        <ele>567.7</ele>
        <time>2022-10-28T14:43:07Z</time>
      </trkpt>
      <trkpt lat="44.31272" lon="5.82793">
        <ele>567.7</ele>
        <time>2022-10-28T14:43:08Z</time>
      </trkpt>
      <trkpt lat="44.31272" lon="5.82793">
        <ele>567.7</ele>
        <time>2022-10-28T14:43:09Z</time>
      </trkpt>
      <trkpt lat="44.31273" lon="5.82793">
        <ele>567.7</ele>
        <time>2022-10-28T14:43:10Z</time>
      </trkpt>
      <trkpt lat="44.31273" lon="5.82791">
        <ele>567.7</ele>
        <time>2022-10-28T14:43:12Z</time>
      </trkpt>
      <trkpt lat="44.31273" lon="5.82789">
        <ele>567.7</ele>
        <time>2022-10-28T14:43:13Z</time>
      </trkpt>
      <trkpt lat="44.31273" lon="5.82788">
        <ele>567.7</ele>
        <time>2022-10-28T14:43:14Z</time>
      </trkpt>
      <trkpt lat="44.31273" lon="5.82787">
        <ele>567.7</ele>
        <time>2022-10-28T14:43:15Z</time>
      </trkpt>
      <trkpt lat="44.31273" lon="5.82785">
        <ele>567.7</ele>
        <time>2022-10-28T14:43:17Z</time>
      </trkpt>
      <trkpt lat="44.31273" lon="5.82784">
        <ele>567.7</ele>
        <time>2022-10-28T14:43:18Z</time>
      </trkpt>
      <trkpt lat="44.31274" lon="5.82784">
        <ele>567.7</ele>
        <time>2022-10-28T14:43:19Z</time>
      </trkpt>
      <trkpt lat="44.31274" lon="5.82783">
        <ele>567.6</ele>
        <time>2022-10-28T14:43:21Z</time>
      </trkpt>
      <trkpt lat="44.31274" lon="5.82782">
        <ele>567.6</ele>
        <time>2022-10-28T14:43:22Z</time>
      </trkpt>
      <trkpt lat="44.31274" lon="5.82781">
        <ele>567.6</ele>
        <time>2022-10-28T14:43:23Z</time>
      </trkpt>
      <trkpt lat="44.31274" lon="5.82781">
        <ele>567.6</ele>
        <time>2022-10-28T14:43:24Z</time>
      </trkpt>
      <trkpt lat="44.31274" lon="5.82781">
        <ele>567.6</ele>
        <time>2022-10-28T14:43:25Z</time>
      </trkpt>
      <trkpt lat="44.31274" lon="5.82781">
        <ele>567.6</ele>
        <time>2022-10-28T14:43:26Z</time>
      </trkpt>
      <trkpt lat="44.31274" lon="5.82781">
        <ele>567.6</ele>
        <time>2022-10-28T14:43:27Z</time>
      </trkpt>
      <trkpt lat="44.31274" lon="5.82781">
        <ele>567.6</ele>
        <time>2022-10-28T14:43:28Z</time>
      </trkpt>
      <trkpt lat="44.31273" lon="5.82781">
        <ele>567.6</ele>
        <time>2022-10-28T14:43:29Z</time>
      </trkpt>
      <trkpt lat="44.31273" lon="5.82781">
        <ele>567.6</ele>
        <time>2022-10-28T14:43:30Z</time>
      </trkpt>
      <trkpt lat="44.31273" lon="5.82781">
        <ele>567.6</ele>
        <time>2022-10-28T14:43:31Z</time>
      </trkpt>
      <trkpt lat="44.31273" lon="5.82781">
        <ele>567.6</ele>
        <time>2022-10-28T14:43:32Z</time>
      </trkpt>
      <trkpt lat="44.3127" lon="5.82787">
        <ele>567.6</ele>
        <time>2022-10-28T14:43:52Z</time>
      </trkpt>
      <trkpt lat="44.3127" lon="5.82789">
        <ele>567.6</ele>
        <time>2022-10-28T14:43:53Z</time>
      </trkpt>
      <trkpt lat="44.31269" lon="5.8279">
        <ele>567.6</ele>
        <time>2022-10-28T14:43:54Z</time>
      </trkpt>
      <trkpt lat="44.31269" lon="5.82791">
        <ele>567.6</ele>
        <time>2022-10-28T14:43:55Z</time>
      </trkpt>
      <trkpt lat="44.31269" lon="5.82791">
        <ele>567.6</ele>
        <time>2022-10-28T14:43:56Z</time>
      </trkpt>
      <trkpt lat="44.31269" lon="5.82792">
        <ele>567.6</ele>
        <time>2022-10-28T14:43:57Z</time>
      </trkpt>
      <trkpt lat="44.31269" lon="5.8279">
        <ele>567.6</ele>
        <time>2022-10-28T14:43:58Z</time>
      </trkpt>
      <trkpt lat="44.31269" lon="5.8279">
        <ele>567.6</ele>
        <time>2022-10-28T14:43:59Z</time>
      </trkpt>
      <trkpt lat="44.31269" lon="5.82789">
        <ele>567.6</ele>
        <time>2022-10-28T14:44:00Z</time>
      </trkpt>
      <trkpt lat="44.31269" lon="5.82789">
        <ele>567.6</ele>
        <time>2022-10-28T14:44:01Z</time>
      </trkpt>
      <trkpt lat="44.31269" lon="5.82789">
        <ele>567.6</ele>
        <time>2022-10-28T14:44:02Z</time>
      </trkpt>
      <trkpt lat="44.31269" lon="5.8279">
        <ele>567.6</ele>
        <time>2022-10-28T14:44:03Z</time>
      </trkpt>
      <trkpt lat="44.31268" lon="5.8279">
        <ele>567.6</ele>
        <time>2022-10-28T14:44:04Z</time>
      </trkpt>
      <trkpt lat="44.31268" lon="5.82789">
        <ele>567.6</ele>
        <time>2022-10-28T14:44:05Z</time>
      </trkpt>
      <trkpt lat="44.31269" lon="5.82786">
        <ele>567.6</ele>
        <time>2022-10-28T14:44:06Z</time>
      </trkpt>
      <trkpt lat="44.3127" lon="5.82782">
        <ele>567.6</ele>
        <time>2022-10-28T14:44:07Z</time>
      </trkpt>
      <trkpt lat="44.3127" lon="5.82781">
        <ele>567.6</ele>
        <time>2022-10-28T14:44:08Z</time>
      </trkpt>
      <trkpt lat="44.31271" lon="5.82779">
        <ele>567.6</ele>
        <time>2022-10-28T14:44:09Z</time>
      </trkpt>
      <trkpt lat="44.31271" lon="5.82778">
        <ele>567.6</ele>
        <time>2022-10-28T14:44:10Z</time>
      </trkpt>
      <trkpt lat="44.31272" lon="5.82777">
        <ele>567.6</ele>
        <time>2022-10-28T14:44:11Z</time>
      </trkpt>
      <trkpt lat="44.31272" lon="5.82777">
        <ele>567.6</ele>
        <time>2022-10-28T14:44:12Z</time>
      </trkpt>
      <trkpt lat="44.31272" lon="5.82777">
        <ele>567.6</ele>
        <time>2022-10-28T14:44:13Z</time>
      </trkpt>
      <trkpt lat="44.31272" lon="5.82778">
        <ele>567.6</ele>
        <time>2022-10-28T14:44:14Z</time>
      </trkpt>
      <trkpt lat="44.31272" lon="5.82778">
        <ele>567.6</ele>
        <time>2022-10-28T14:44:15Z</time>
      </trkpt>
      <trkpt lat="44.31271" lon="5.82778">
        <ele>567.6</ele>
        <time>2022-10-28T14:44:16Z</time>
      </trkpt>
      <trkpt lat="44.31271" lon="5.82778">
        <ele>567.6</ele>
        <time>2022-10-28T14:44:17Z</time>
      </trkpt>
      <trkpt lat="44.31271" lon="5.82778">
        <ele>567.6</ele>
        <time>2022-10-28T14:44:18Z</time>
      </trkpt>
      <trkpt lat="44.31271" lon="5.82779">
        <ele>567.6</ele>
        <time>2022-10-28T14:44:19Z</time>
      </trkpt>
      <trkpt lat="44.3127" lon="5.8278">
        <ele>567.6</ele>
        <time>2022-10-28T14:44:20Z</time>
      </trkpt>
      <trkpt lat="44.3127" lon="5.82781">
        <ele>567.6</ele>
        <time>2022-10-28T14:44:21Z</time>
      </trkpt>
      <trkpt lat="44.3127" lon="5.82781">
        <ele>567.6</ele>
        <time>2022-10-28T14:44:22Z</time>
      </trkpt>
      <trkpt lat="44.31269" lon="5.82782">
        <ele>567.6</ele>
        <time>2022-10-28T14:44:23Z</time>
      </trkpt>
      <trkpt lat="44.31269" lon="5.82782">
        <ele>567.6</ele>
        <time>2022-10-28T14:44:24Z</time>
      </trkpt>
      <trkpt lat="44.31269" lon="5.82782">
        <ele>567.6</ele>
        <time>2022-10-28T14:44:25Z</time>
      </trkpt>
      <trkpt lat="44.31268" lon="5.82783">
        <ele>567.6</ele>
        <time>2022-10-28T14:44:26Z</time>
      </trkpt>
      <trkpt lat="44.31268" lon="5.82783">
        <ele>567.6</ele>
        <time>2022-10-28T14:44:27Z</time>
      </trkpt>
      <trkpt lat="44.31267" lon="5.82783">
        <ele>567.6</ele>
        <time>2022-10-28T14:44:28Z</time>
      </trkpt>
      <trkpt lat="44.31264" lon="5.82785">
        <ele>567.6</ele>
        <time>2022-10-28T14:44:42Z</time>
      </trkpt>
      <trkpt lat="44.31264" lon="5.82785">
        <ele>567.6</ele>
        <time>2022-10-28T14:44:42Z</time>
      </trkpt>
      <trkpt lat="44.31264" lon="5.82785">
        <ele>567.6</ele>
        <time>2022-10-28T14:44:43Z</time>
      </trkpt>
      <trkpt lat="44.31264" lon="5.82785">
        <ele>567.6</ele>
        <time>2022-10-28T14:44:44Z</time>
      </trkpt>
      <trkpt lat="44.31265" lon="5.82786">
        <ele>567.6</ele>
        <time>2022-10-28T14:44:45Z</time>
      </trkpt>
      <trkpt lat="44.31265" lon="5.82786">
        <ele>567.6</ele>
        <time>2022-10-28T14:44:46Z</time>
      </trkpt>
      <trkpt lat="44.31265" lon="5.82786">
        <ele>567.6</ele>
        <time>2022-10-28T14:44:47Z</time>
      </trkpt>
      <trkpt lat="44.31265" lon="5.82786">
        <ele>567.6</ele>
        <time>2022-10-28T14:44:48Z</time>
      </trkpt>
      <trkpt lat="44.31265" lon="5.82786">
        <ele>567.6</ele>
        <time>2022-10-28T14:44:49Z</time>
      </trkpt>
      <trkpt lat="44.31266" lon="5.82786">
        <ele>567.6</ele>
        <time>2022-10-28T14:44:50Z</time>
      </trkpt>
      <trkpt lat="44.31266" lon="5.82788">
        <ele>567.6</ele>
        <time>2022-10-28T14:44:51Z</time>
      </trkpt>
      <trkpt lat="44.31265" lon="5.8279">
        <ele>567.5</ele>
        <time>2022-10-28T14:44:52Z</time>
      </trkpt>
      <trkpt lat="44.31265" lon="5.82792">
        <ele>567.5</ele>
        <time>2022-10-28T14:44:53Z</time>
      </trkpt>
      <trkpt lat="44.31264" lon="5.82795">
        <ele>567.5</ele>
        <time>2022-10-28T14:44:54Z</time>
      </trkpt>
      <trkpt lat="44.31266" lon="5.82798">
        <ele>567.5</ele>
        <time>2022-10-28T14:44:55Z</time>
      </trkpt>
      <trkpt lat="44.31267" lon="5.82799">
        <ele>567.5</ele>
        <time>2022-10-28T14:44:56Z</time>
      </trkpt>
      <trkpt lat="44.31269" lon="5.828">
        <ele>567.5</ele>
        <time>2022-10-28T14:44:57Z</time>
      </trkpt>
      <trkpt lat="44.31269" lon="5.82803">
        <ele>567.5</ele>
        <time>2022-10-28T14:44:58Z</time>
      </trkpt>
      <trkpt lat="44.31269" lon="5.82805">
        <ele>567.5</ele>
        <time>2022-10-28T14:44:59Z</time>
      </trkpt>
      <trkpt lat="44.31269" lon="5.82806">
        <ele>567.5</ele>
        <time>2022-10-28T14:45:00Z</time>
      </trkpt>
      <trkpt lat="44.31268" lon="5.82807">
        <ele>567.5</ele>
        <time>2022-10-28T14:45:01Z</time>
      </trkpt>
      <trkpt lat="44.31265" lon="5.82808">
        <ele>567.5</ele>
        <time>2022-10-28T14:45:02Z</time>
      </trkpt>
      <trkpt lat="44.31262" lon="5.82808">
        <ele>567.5</ele>
        <time>2022-10-28T14:45:03Z</time>
      </trkpt>
      <trkpt lat="44.3127" lon="5.82802">
        <ele>567.5</ele>
        <time>2022-10-28T14:45:04Z</time>
      </trkpt>
      <trkpt lat="44.31275" lon="5.828">
        <ele>567.5</ele>
        <time>2022-10-28T14:45:05Z</time>
      </trkpt>
      <trkpt lat="44.31279" lon="5.82799">
        <ele>567.5</ele>
        <time>2022-10-28T14:45:06Z</time>
      </trkpt>
      <trkpt lat="44.31281" lon="5.82798">
        <ele>567.5</ele>
        <time>2022-10-28T14:45:07Z</time>
      </trkpt>
      <trkpt lat="44.31282" lon="5.82798">
        <ele>567.5</ele>
        <time>2022-10-28T14:45:08Z</time>
      </trkpt>
      <trkpt lat="44.31281" lon="5.82798">
        <ele>567.5</ele>
        <time>2022-10-28T14:45:09Z</time>
      </trkpt>
      <trkpt lat="44.31281" lon="5.82797">
        <ele>567.5</ele>
        <time>2022-10-28T14:45:10Z</time>
      </trkpt>
      <trkpt lat="44.3128" lon="5.82797">
        <ele>567.5</ele>
        <time>2022-10-28T14:45:11Z</time>
      </trkpt>
      <trkpt lat="44.31279" lon="5.82797">
        <ele>567.5</ele>
        <time>2022-10-28T14:45:12Z</time>
      </trkpt>
      <trkpt lat="44.31279" lon="5.82797">
        <ele>567.5</ele>
        <time>2022-10-28T14:45:13Z</time>
      </trkpt>
      <trkpt lat="44.31278" lon="5.82796">
        <ele>567.4</ele>
        <time>2022-10-28T14:45:14Z</time>
      </trkpt>
      <trkpt lat="44.31277" lon="5.82796">
        <ele>567.4</ele>
        <time>2022-10-28T14:45:15Z</time>
      </trkpt>
      <trkpt lat="44.31277" lon="5.82796">
        <ele>567.4</ele>
        <time>2022-10-28T14:45:16Z</time>
      </trkpt>
      <trkpt lat="44.31276" lon="5.82796">
        <ele>567.4</ele>
        <time>2022-10-28T14:45:17Z</time>
      </trkpt>
      <trkpt lat="44.31276" lon="5.82795">
        <ele>567.4</ele>
        <time>2022-10-28T14:45:18Z</time>
      </trkpt>
      <trkpt lat="44.31275" lon="5.82795">
        <ele>567.4</ele>
        <time>2022-10-28T14:45:19Z</time>
      </trkpt>
      <trkpt lat="44.31274" lon="5.82795">
        <ele>567.4</ele>
        <time>2022-10-28T14:45:20Z</time>
      </trkpt>
      <trkpt lat="44.31274" lon="5.82795">
        <ele>567.4</ele>
        <time>2022-10-28T14:45:39Z</time>
      </trkpt>
      <trkpt lat="44.31273" lon="5.82794">
        <ele>567.4</ele>
        <time>2022-10-28T14:45:40Z</time>
      </trkpt>
      <trkpt lat="44.31272" lon="5.82794">
        <ele>567.4</ele>
        <time>2022-10-28T14:45:41Z</time>
      </trkpt>
      <trkpt lat="44.31271" lon="5.82795">
        <ele>567.4</ele>
        <time>2022-10-28T14:45:42Z</time>
      </trkpt>
      <trkpt lat="44.31269" lon="5.82797">
        <ele>567.4</ele>
        <time>2022-10-28T14:45:43Z</time>
      </trkpt>
      <trkpt lat="44.31268" lon="5.82797">
        <ele>567.4</ele>
        <time>2022-10-28T14:45:44Z</time>
      </trkpt>
      <trkpt lat="44.31268" lon="5.82797">
        <ele>567.4</ele>
        <time>2022-10-28T14:45:45Z</time>
      </trkpt>
      <trkpt lat="44.31268" lon="5.82797">
        <ele>567.4</ele>
        <time>2022-10-28T14:45:46Z</time>
      </trkpt>
      <trkpt lat="44.31267" lon="5.82797">
        <ele>567.4</ele>
        <time>2022-10-28T14:45:47Z</time>
      </trkpt>
      <trkpt lat="44.31267" lon="5.82797">
        <ele>567.4</ele>
        <time>2022-10-28T14:45:48Z</time>
      </trkpt>
      <trkpt lat="44.31266" lon="5.82797">
        <ele>567.4</ele>
        <time>2022-10-28T14:45:49Z</time>
      </trkpt>
      <trkpt lat="44.31266" lon="5.82797">
        <ele>567.4</ele>
        <time>2022-10-28T14:45:50Z</time>
      </trkpt>
      <trkpt lat="44.31263" lon="5.82796">
        <ele>567.4</ele>
        <time>2022-10-28T14:45:51Z</time>
      </trkpt>
      <trkpt lat="44.31262" lon="5.82796">
        <ele>567.4</ele>
        <time>2022-10-28T14:45:52Z</time>
      </trkpt>
      <trkpt lat="44.31261" lon="5.82796">
        <ele>567.4</ele>
        <time>2022-10-28T14:45:53Z</time>
      </trkpt>
      <trkpt lat="44.31261" lon="5.82796">
        <ele>567.4</ele>
        <time>2022-10-28T14:45:54Z</time>
      </trkpt>
      <trkpt lat="44.31261" lon="5.82796">
        <ele>567.4</ele>
        <time>2022-10-28T14:45:55Z</time>
      </trkpt>
      <trkpt lat="44.31261" lon="5.82796">
        <ele>567.4</ele>
        <time>2022-10-28T14:45:56Z</time>
      </trkpt>
      <trkpt lat="44.31261" lon="5.82796">
        <ele>567.4</ele>
        <time>2022-10-28T14:45:57Z</time>
      </trkpt>
      <trkpt lat="44.31261" lon="5.82796">
        <ele>567.4</ele>
        <time>2022-10-28T14:45:58Z</time>
      </trkpt>
      <trkpt lat="44.31261" lon="5.82796">
        <ele>567.4</ele>
        <time>2022-10-28T14:45:59Z</time>
      </trkpt>
      <trkpt lat="44.31262" lon="5.82796">
        <ele>567.4</ele>
        <time>2022-10-28T14:46:00Z</time>
      </trkpt>
      <trkpt lat="44.31262" lon="5.82796">
        <ele>567.4</ele>
        <time>2022-10-28T14:46:01Z</time>
      </trkpt>
      <trkpt lat="44.31262" lon="5.82796">
        <ele>567.4</ele>
        <time>2022-10-28T14:46:02Z</time>
      </trkpt>
      <trkpt lat="44.31261" lon="5.82796">
        <ele>567.4</ele>
        <time>2022-10-28T14:46:03Z</time>
      </trkpt>
      <trkpt lat="44.31261" lon="5.82796">
        <ele>567.4</ele>
        <time>2022-10-28T14:46:04Z</time>
      </trkpt>
      <trkpt lat="44.31258" lon="5.82796">
        <ele>567.4</ele>
        <time>2022-10-28T14:46:05Z</time>
      </trkpt>
      <trkpt lat="44.31255" lon="5.82795">
        <ele>567.4</ele>
        <time>2022-10-28T14:46:06Z</time>
      </trkpt>
      <trkpt lat="44.31255" lon="5.82795">
        <ele>567.4</ele>
        <time>2022-10-28T14:46:07Z</time>
      </trkpt>
      <trkpt lat="44.31253" lon="5.82795">
        <ele>567.4</ele>
        <time>2022-10-28T14:46:08Z</time>
      </trkpt>
      <trkpt lat="44.31253" lon="5.82795">
        <ele>567.4</ele>
        <time>2022-10-28T14:46:09Z</time>
      </trkpt>
      <trkpt lat="44.31252" lon="5.82795">
        <ele>567.4</ele>
        <time>2022-10-28T14:46:10Z</time>
      </trkpt>
      <trkpt lat="44.31252" lon="5.82795">
        <ele>567.4</ele>
        <time>2022-10-28T14:46:11Z</time>
      </trkpt>
      <trkpt lat="44.31252" lon="5.82795">
        <ele>567.4</ele>
        <time>2022-10-28T14:46:12Z</time>
      </trkpt>
      <trkpt lat="44.31252" lon="5.82794">
        <ele>567.4</ele>
        <time>2022-10-28T14:46:13Z</time>
      </trkpt>
      <trkpt lat="44.31252" lon="5.82794">
        <ele>567.4</ele>
        <time>2022-10-28T14:46:14Z</time>
      </trkpt>
      <trkpt lat="44.31252" lon="5.82795">
        <ele>567.4</ele>
        <time>2022-10-28T14:46:15Z</time>
      </trkpt>
      <trkpt lat="44.31252" lon="5.82795">
        <ele>567.4</ele>
        <time>2022-10-28T14:46:16Z</time>
      </trkpt>
      <trkpt lat="44.31253" lon="5.82795">
        <ele>567.4</ele>
        <time>2022-10-28T14:46:17Z</time>
      </trkpt>
      <trkpt lat="44.31253" lon="5.82795">
        <ele>567.4</ele>
        <time>2022-10-28T14:46:18Z</time>
      </trkpt>
      <trkpt lat="44.31253" lon="5.82795">
        <ele>567.4</ele>
        <time>2022-10-28T14:46:19Z</time>
      </trkpt>
      <trkpt lat="44.31253" lon="5.82795">
        <ele>567.4</ele>
        <time>2022-10-28T14:46:20Z</time>
      </trkpt>
      <trkpt lat="44.31253" lon="5.82795">
        <ele>567.4</ele>
        <time>2022-10-28T14:46:21Z</time>
      </trkpt>
      <trkpt lat="44.31253" lon="5.82795">
        <ele>567.4</ele>
        <time>2022-10-28T14:46:22Z</time>
      </trkpt>
      <trkpt lat="44.31253" lon="5.82795">
        <ele>567.4</ele>
        <time>2022-10-28T14:46:23Z</time>
      </trkpt>
      <trkpt lat="44.31253" lon="5.82795">
        <ele>567.4</ele>
        <time>2022-10-28T14:46:24Z</time>
      </trkpt>
      <trkpt lat="44.31257" lon="5.82794">
        <ele>567.4</ele>
        <time>2022-10-28T14:47:57Z</time>
      </trkpt>
      <trkpt lat="44.31257" lon="5.82794">
        <ele>567.4</ele>
        <time>2022-10-28T14:47:58Z</time>
      </trkpt>
      <trkpt lat="44.31257" lon="5.82794">
        <ele>567.4</ele>
        <time>2022-10-28T14:47:59Z</time>
      </trkpt>
      <trkpt lat="44.31256" lon="5.82794">
        <ele>567.4</ele>
        <time>2022-10-28T14:48:00Z</time>
      </trkpt>
      <trkpt lat="44.31256" lon="5.82794">
        <ele>567.4</ele>
        <time>2022-10-28T14:48:01Z</time>
      </trkpt>
      <trkpt lat="44.31256" lon="5.82794">
        <ele>567.4</ele>
        <time>2022-10-28T14:48:02Z</time>
      </trkpt>
      <trkpt lat="44.31256" lon="5.82794">
        <ele>567.4</ele>
        <time>2022-10-28T14:48:03Z</time>
      </trkpt>
      <trkpt lat="44.31256" lon="5.82794">
        <ele>567.4</ele>
        <time>2022-10-28T14:48:04Z</time>
      </trkpt>
      <trkpt lat="44.31256" lon="5.82794">
        <ele>567.4</ele>
        <time>2022-10-28T14:48:05Z</time>
      </trkpt>
      <trkpt lat="44.31256" lon="5.82794">
        <ele>567.4</ele>
        <time>2022-10-28T14:48:06Z</time>
      </trkpt>
      <trkpt lat="44.31256" lon="5.82794">
        <ele>567.4</ele>
        <time>2022-10-28T14:48:07Z</time>
      </trkpt>
      <trkpt lat="44.31257" lon="5.82794">
        <ele>567.4</ele>
        <time>2022-10-28T14:48:08Z</time>
      </trkpt>
      <trkpt lat="44.31257" lon="5.82793">
        <ele>567.4</ele>
        <time>2022-10-28T14:48:09Z</time>
      </trkpt>
      <trkpt lat="44.31258" lon="5.82793">
        <ele>567.4</ele>
        <time>2022-10-28T14:48:10Z</time>
      </trkpt>
      <trkpt lat="44.31259" lon="5.82792">
        <ele>567.4</ele>
        <time>2022-10-28T14:48:11Z</time>
      </trkpt>
      <trkpt lat="44.3126" lon="5.82791">
        <ele>567.4</ele>
        <time>2022-10-28T14:48:12Z</time>
      </trkpt>
      <trkpt lat="44.31261" lon="5.8279">
        <ele>567.4</ele>
        <time>2022-10-28T14:48:13Z</time>
      </trkpt>
      <trkpt lat="44.31262" lon="5.82791">
        <ele>567.4</ele>
        <time>2022-10-28T14:48:14Z</time>
      </trkpt>
      <trkpt lat="44.31262" lon="5.8279">
        <ele>567.4</ele>
        <time>2022-10-28T14:48:15Z</time>
      </trkpt>
      <trkpt lat="44.31262" lon="5.8279">
        <ele>567.4</ele>
        <time>2022-10-28T14:48:16Z</time>
      </trkpt>
      <trkpt lat="44.31262" lon="5.8279">
        <ele>567.4</ele>
        <time>2022-10-28T14:48:17Z</time>
      </trkpt>
      <trkpt lat="44.31262" lon="5.8279">
        <ele>567.4</ele>
        <time>2022-10-28T14:48:18Z</time>
      </trkpt>
      <trkpt lat="44.31262" lon="5.82789">
        <ele>567.4</ele>
        <time>2022-10-28T14:48:19Z</time>
      </trkpt>
      <trkpt lat="44.31263" lon="5.82788">
        <ele>567.4</ele>
        <time>2022-10-28T14:48:20Z</time>
      </trkpt>
      <trkpt lat="44.31263" lon="5.82788">
        <ele>567.4</ele>
        <time>2022-10-28T14:48:21Z</time>
      </trkpt>
      <trkpt lat="44.31264" lon="5.82788">
        <ele>567.4</ele>
        <time>2022-10-28T14:48:22Z</time>
      </trkpt>
      <trkpt lat="44.31263" lon="5.82787">
        <ele>567.4</ele>
        <time>2022-10-28T14:48:23Z</time>
      </trkpt>
      <trkpt lat="44.31262" lon="5.82785">
        <ele>567.4</ele>
        <time>2022-10-28T14:48:24Z</time>
      </trkpt>
      <trkpt lat="44.31261" lon="5.82785">
        <ele>567.4</ele>
        <time>2022-10-28T14:48:25Z</time>
      </trkpt>
      <trkpt lat="44.31261" lon="5.82784">
        <ele>567.4</ele>
        <time>2022-10-28T14:48:26Z</time>
      </trkpt>
      <trkpt lat="44.3126" lon="5.82783">
        <ele>567.4</ele>
        <time>2022-10-28T14:48:27Z</time>
      </trkpt>
      <trkpt lat="44.3126" lon="5.82783">
        <ele>567.4</ele>
        <time>2022-10-28T14:48:28Z</time>
      </trkpt>
      <trkpt lat="44.31259" lon="5.82783">
        <ele>567.4</ele>
        <time>2022-10-28T14:48:29Z</time>
      </trkpt>
      <trkpt lat="44.31259" lon="5.82783">
        <ele>567.4</ele>
        <time>2022-10-28T14:48:30Z</time>
      </trkpt>
      <trkpt lat="44.31259" lon="5.82783">
        <ele>567.4</ele>
        <time>2022-10-28T14:48:31Z</time>
      </trkpt>
      <trkpt lat="44.31259" lon="5.82783">
        <ele>567.4</ele>
        <time>2022-10-28T14:48:32Z</time>
      </trkpt>
      <trkpt lat="44.31259" lon="5.82783">
        <ele>567.4</ele>
        <time>2022-10-28T14:48:33Z</time>
      </trkpt>
      <trkpt lat="44.31259" lon="5.82784">
        <ele>567.4</ele>
        <time>2022-10-28T14:48:34Z</time>
      </trkpt>
      <trkpt lat="44.31259" lon="5.82784">
        <ele>567.4</ele>
        <time>2022-10-28T14:48:35Z</time>
      </trkpt>
      <trkpt lat="44.31259" lon="5.82784">
        <ele>567.4</ele>
        <time>2022-10-28T14:48:36Z</time>
      </trkpt>
      <trkpt lat="44.31259" lon="5.82784">
        <ele>567.4</ele>
        <time>2022-10-28T14:48:37Z</time>
      </trkpt>
      <trkpt lat="44.31259" lon="5.82784">
        <ele>567.4</ele>
        <time>2022-10-28T14:48:38Z</time>
      </trkpt>
      <trkpt lat="44.31259" lon="5.82784">
        <ele>567.4</ele>
        <time>2022-10-28T14:48:39Z</time>
      </trkpt>
      <trkpt lat="44.31259" lon="5.82784">
        <ele>567.4</ele>
        <time>2022-10-28T14:48:40Z</time>
      </trkpt>
      <trkpt lat="44.31255" lon="5.82782">
        <ele>567.4</ele>
        <time>2022-10-28T14:48:52Z</time>
      </trkpt>
      <trkpt lat="44.31254" lon="5.82782">
        <ele>567.4</ele>
        <time>2022-10-28T14:48:53Z</time>
      </trkpt>
      <trkpt lat="44.31253" lon="5.82781">
        <ele>567.4</ele>
        <time>2022-10-28T14:48:54Z</time>
      </trkpt>
      <trkpt lat="44.31253" lon="5.82781">
        <ele>567.4</ele>
        <time>2022-10-28T14:48:55Z</time>
      </trkpt>
      <trkpt lat="44.31245" lon="5.82777">
        <ele>567.4</ele>
        <time>2022-10-28T14:48:56Z</time>
      </trkpt>
      <trkpt lat="44.31238" lon="5.82772">
        <ele>567.4</ele>
        <time>2022-10-28T14:52:18Z</time>
      </trkpt>
      <trkpt lat="44.31232" lon="5.82768">
        <ele>567.4</ele>
        <time>2022-10-28T14:52:19Z</time>
      </trkpt>
      <trkpt lat="44.31225" lon="5.82764">
        <ele>567.4</ele>
        <time>2022-10-28T14:52:20Z</time>
      </trkpt>
      <trkpt lat="44.31228" lon="5.82772">
        <ele>567.4</ele>
        <time>2022-10-28T14:52:21Z</time>
      </trkpt>
      <trkpt lat="44.31233" lon="5.82769">
        <ele>567.4</ele>
        <time>2022-10-28T14:52:22Z</time>
      </trkpt>
      <trkpt lat="44.31234" lon="5.82772">
        <ele>567.4</ele>
        <time>2022-10-28T14:52:23Z</time>
      </trkpt>
      <trkpt lat="44.31234" lon="5.82773">
        <ele>567.4</ele>
        <time>2022-10-28T14:52:24Z</time>
      </trkpt>
      <trkpt lat="44.31234" lon="5.82774">
        <ele>567.4</ele>
        <time>2022-10-28T14:52:25Z</time>
      </trkpt>
      <trkpt lat="44.31235" lon="5.82777">
        <ele>567.4</ele>
        <time>2022-10-28T14:52:26Z</time>
      </trkpt>
      <trkpt lat="44.31235" lon="5.82778">
        <ele>567.4</ele>
        <time>2022-10-28T14:52:27Z</time>
      </trkpt>
      <trkpt lat="44.31236" lon="5.82779">
        <ele>567.4</ele>
        <time>2022-10-28T14:52:28Z</time>
      </trkpt>
      <trkpt lat="44.31236" lon="5.82779">
        <ele>567.4</ele>
        <time>2022-10-28T14:52:29Z</time>
      </trkpt>
      <trkpt lat="44.31237" lon="5.82779">
        <ele>567.4</ele>
        <time>2022-10-28T14:52:30Z</time>
      </trkpt>
      <trkpt lat="44.31238" lon="5.82779">
        <ele>567.4</ele>
        <time>2022-10-28T14:52:31Z</time>
      </trkpt>
      <trkpt lat="44.3124" lon="5.82779">
        <ele>567.4</ele>
        <time>2022-10-28T14:52:32Z</time>
      </trkpt>
      <trkpt lat="44.31269" lon="5.82772">
        <ele>567.4</ele>
        <time>2022-10-28T14:52:44Z</time>
      </trkpt>
      <trkpt lat="44.3127" lon="5.82772">
        <ele>567.4</ele>
        <time>2022-10-28T14:52:45Z</time>
      </trkpt>
      <trkpt lat="44.3127" lon="5.82772">
        <ele>567.4</ele>
        <time>2022-10-28T14:52:46Z</time>
      </trkpt>
      <trkpt lat="44.3127" lon="5.82772">
        <ele>567.4</ele>
        <time>2022-10-28T14:52:47Z</time>
      </trkpt>
      <trkpt lat="44.31271" lon="5.82772">
        <ele>567.4</ele>
        <time>2022-10-28T14:52:48Z</time>
      </trkpt>
      <trkpt lat="44.31271" lon="5.82772">
        <ele>567.4</ele>
        <time>2022-10-28T14:52:49Z</time>
      </trkpt>
      <trkpt lat="44.31272" lon="5.82772">
        <ele>567.4</ele>
        <time>2022-10-28T14:52:50Z</time>
      </trkpt>
      <trkpt lat="44.31272" lon="5.82772">
        <ele>567.4</ele>
        <time>2022-10-28T14:52:51Z</time>
      </trkpt>
      <trkpt lat="44.31272" lon="5.82772">
        <ele>567.4</ele>
        <time>2022-10-28T14:52:52Z</time>
      </trkpt>
      <trkpt lat="44.31272" lon="5.82772">
        <ele>567.4</ele>
        <time>2022-10-28T14:52:53Z</time>
      </trkpt>
      <trkpt lat="44.31273" lon="5.82772">
        <ele>567.4</ele>
        <time>2022-10-28T14:52:54Z</time>
      </trkpt>
      <trkpt lat="44.31274" lon="5.82773">
        <ele>567.4</ele>
        <time>2022-10-28T14:52:55Z</time>
      </trkpt>
      <trkpt lat="44.31274" lon="5.82773">
        <ele>567.4</ele>
        <time>2022-10-28T14:52:56Z</time>
      </trkpt>
      <trkpt lat="44.31274" lon="5.82773">
        <ele>567.4</ele>
        <time>2022-10-28T14:52:57Z</time>
      </trkpt>
      <trkpt lat="44.31274" lon="5.82773">
        <ele>567.4</ele>
        <time>2022-10-28T14:52:58Z</time>
      </trkpt>
      <trkpt lat="44.31274" lon="5.82773">
        <ele>567.4</ele>
        <time>2022-10-28T14:52:59Z</time>
      </trkpt>
      <trkpt lat="44.31273" lon="5.82773">
        <ele>567.4</ele>
        <time>2022-10-28T14:53:00Z</time>
      </trkpt>
      <trkpt lat="44.31273" lon="5.82773">
        <ele>567.4</ele>
        <time>2022-10-28T14:53:01Z</time>
      </trkpt>
      <trkpt lat="44.31273" lon="5.82773">
        <ele>567.4</ele>
        <time>2022-10-28T14:53:02Z</time>
      </trkpt>
      <trkpt lat="44.31273" lon="5.82773">
        <ele>567.4</ele>
        <time>2022-10-28T14:53:03Z</time>
      </trkpt>
      <trkpt lat="44.31274" lon="5.82773">
        <ele>567.4</ele>
        <time>2022-10-28T14:53:04Z</time>
      </trkpt>
      <trkpt lat="44.31274" lon="5.82773">
        <ele>567.4</ele>
        <time>2022-10-28T14:53:05Z</time>
      </trkpt>
      <trkpt lat="44.31275" lon="5.82773">
        <ele>567.4</ele>
        <time>2022-10-28T14:53:06Z</time>
      </trkpt>
      <trkpt lat="44.31275" lon="5.82773">
        <ele>567.4</ele>
        <time>2022-10-28T14:53:07Z</time>
      </trkpt>
      <trkpt lat="44.31275" lon="5.82773">
        <ele>567.4</ele>
        <time>2022-10-28T14:53:08Z</time>
      </trkpt>
      <trkpt lat="44.31274" lon="5.82773">
        <ele>567.4</ele>
        <time>2022-10-28T14:53:09Z</time>
      </trkpt>
      <trkpt lat="44.31274" lon="5.82773">
        <ele>567.4</ele>
        <time>2022-10-28T14:53:10Z</time>
      </trkpt>
      <trkpt lat="44.31274" lon="5.82773">
        <ele>567.4</ele>
        <time>2022-10-28T14:53:11Z</time>
      </trkpt>
      <trkpt lat="44.31274" lon="5.82773">
        <ele>567.4</ele>
        <time>2022-10-28T14:53:12Z</time>
      </trkpt>
      <trkpt lat="44.31274" lon="5.82773">
        <ele>567.4</ele>
        <time>2022-10-28T14:53:13Z</time>
      </trkpt>
      <trkpt lat="44.31274" lon="5.82773">
        <ele>567.4</ele>
        <time>2022-10-28T14:53:14Z</time>
      </trkpt>
      <trkpt lat="44.31274" lon="5.82773">
        <ele>567.4</ele>
        <time>2022-10-28T14:53:15Z</time>
      </trkpt>
      <trkpt lat="44.31274" lon="5.82782">
        <ele>567.4</ele>
        <time>2022-10-28T14:54:19Z</time>
      </trkpt>
      <trkpt lat="44.31273" lon="5.82783">
        <ele>567.4</ele>
        <time>2022-10-28T14:54:20Z</time>
      </trkpt>
      <trkpt lat="44.31272" lon="5.82784">
        <ele>567.4</ele>
        <time>2022-10-28T14:54:21Z</time>
      </trkpt>
      <trkpt lat="44.31271" lon="5.82785">
        <ele>567.4</ele>
        <time>2022-10-28T14:54:22Z</time>
      </trkpt>
      <trkpt lat="44.31269" lon="5.82787">
        <ele>567.4</ele>
        <time>2022-10-28T14:54:23Z</time>
      </trkpt>
      <trkpt lat="44.31267" lon="5.82789">
        <ele>567.4</ele>
        <time>2022-10-28T14:54:24Z</time>
      </trkpt>
      <trkpt lat="44.31266" lon="5.8279">
        <ele>567.4</ele>
        <time>2022-10-28T14:54:25Z</time>
      </trkpt>
      <trkpt lat="44.31264" lon="5.82792">
        <ele>567.4</ele>
        <time>2022-10-28T14:54:26Z</time>
      </trkpt>
      <trkpt lat="44.31263" lon="5.82793">
        <ele>567.4</ele>
        <time>2022-10-28T14:54:27Z</time>
      </trkpt>
      <trkpt lat="44.31262" lon="5.82795">
        <ele>567.4</ele>
        <time>2022-10-28T14:54:28Z</time>
      </trkpt>
      <trkpt lat="44.31261" lon="5.82796">
        <ele>567.4</ele>
        <time>2022-10-28T14:54:29Z</time>
      </trkpt>
      <trkpt lat="44.3126" lon="5.82796">
        <ele>567.4</ele>
        <time>2022-10-28T14:54:30Z</time>
      </trkpt>
      <trkpt lat="44.3126" lon="5.82797">
        <ele>567.4</ele>
        <time>2022-10-28T14:54:31Z</time>
      </trkpt>
      <trkpt lat="44.3126" lon="5.82798">
        <ele>567.5</ele>
        <time>2022-10-28T14:54:32Z</time>
      </trkpt>
      <trkpt lat="44.3126" lon="5.82799">
        <ele>567.5</ele>
        <time>2022-10-28T14:54:33Z</time>
      </trkpt>
      <trkpt lat="44.3126" lon="5.82799">
        <ele>567.5</ele>
        <time>2022-10-28T14:54:34Z</time>
      </trkpt>
      <trkpt lat="44.31261" lon="5.82799">
        <ele>567.5</ele>
        <time>2022-10-28T14:54:35Z</time>
      </trkpt>
      <trkpt lat="44.31261" lon="5.828">
        <ele>567.5</ele>
        <time>2022-10-28T14:54:36Z</time>
      </trkpt>
      <trkpt lat="44.31261" lon="5.828">
        <ele>567.5</ele>
        <time>2022-10-28T14:54:37Z</time>
      </trkpt>
      <trkpt lat="44.31261" lon="5.82801">
        <ele>567.5</ele>
        <time>2022-10-28T14:54:38Z</time>
      </trkpt>
      <trkpt lat="44.31261" lon="5.82802">
        <ele>567.5</ele>
        <time>2022-10-28T14:54:39Z</time>
      </trkpt>
      <trkpt lat="44.31261" lon="5.82802">
        <ele>567.5</ele>
        <time>2022-10-28T14:54:40Z</time>
      </trkpt>
      <trkpt lat="44.31261" lon="5.82802">
        <ele>567.5</ele>
        <time>2022-10-28T14:54:41Z</time>
      </trkpt>
      <trkpt lat="44.31261" lon="5.82802">
        <ele>567.5</ele>
        <time>2022-10-28T14:54:42Z</time>
      </trkpt>
      <trkpt lat="44.31261" lon="5.82803">
        <ele>567.5</ele>
        <time>2022-10-28T14:54:43Z</time>
      </trkpt>
      <trkpt lat="44.31261" lon="5.82803">
        <ele>567.5</ele>
        <time>2022-10-28T14:54:44Z</time>
      </trkpt>
      <trkpt lat="44.31261" lon="5.82803">
        <ele>567.5</ele>
        <time>2022-10-28T14:54:45Z</time>
      </trkpt>
      <trkpt lat="44.31261" lon="5.82803">
        <ele>567.5</ele>
        <time>2022-10-28T14:54:46Z</time>
      </trkpt>
      <trkpt lat="44.31261" lon="5.82803">
        <ele>567.5</ele>
        <time>2022-10-28T14:54:47Z</time>
      </trkpt>
      <trkpt lat="44.31261" lon="5.82803">
        <ele>567.5</ele>
        <time>2022-10-28T14:54:48Z</time>
      </trkpt>
      <trkpt lat="44.31261" lon="5.82803">
        <ele>567.5</ele>
        <time>2022-10-28T14:54:49Z</time>
      </trkpt>
      <trkpt lat="44.31261" lon="5.82803">
        <ele>567.5</ele>
        <time>2022-10-28T14:54:50Z</time>
      </trkpt>
      <trkpt lat="44.31263" lon="5.82804">
        <ele>567.5</ele>
        <time>2022-10-28T14:54:51Z</time>
      </trkpt>
      <trkpt lat="44.31265" lon="5.82805">
        <ele>567.5</ele>
        <time>2022-10-28T14:54:52Z</time>
      </trkpt>
      <trkpt lat="44.31266" lon="5.82806">
        <ele>567.5</ele>
        <time>2022-10-28T14:54:53Z</time>
      </trkpt>
      <trkpt lat="44.31266" lon="5.82806">
        <ele>567.5</ele>
        <time>2022-10-28T14:54:54Z</time>
      </trkpt>
      <trkpt lat="44.31266" lon="5.82806">
        <ele>567.5</ele>
        <time>2022-10-28T14:54:55Z</time>
      </trkpt>
      <trkpt lat="44.31266" lon="5.82806">
        <ele>567.5</ele>
        <time>2022-10-28T14:54:56Z</time>
      </trkpt>
      <trkpt lat="44.31266" lon="5.82806">
        <ele>567.5</ele>
        <time>2022-10-28T14:54:57Z</time>
      </trkpt>
      <trkpt lat="44.31266" lon="5.82806">
        <ele>567.5</ele>
        <time>2022-10-28T14:54:58Z</time>
      </trkpt>
      <trkpt lat="44.31266" lon="5.82806">
        <ele>567.5</ele>
        <time>2022-10-28T14:54:59Z</time>
      </trkpt>
      <trkpt lat="44.31266" lon="5.82806">
        <ele>567.5</ele>
        <time>2022-10-28T14:55:00Z</time>
      </trkpt>
      <trkpt lat="44.31266" lon="5.82806">
        <ele>567.5</ele>
        <time>2022-10-28T14:55:01Z</time>
      </trkpt>
      <trkpt lat="44.31266" lon="5.82806">
        <ele>567.5</ele>
        <time>2022-10-28T14:55:02Z</time>
      </trkpt>
      <trkpt lat="44.31266" lon="5.82806">
        <ele>567.5</ele>
        <time>2022-10-28T14:55:03Z</time>
      </trkpt>
      <trkpt lat="44.31266" lon="5.82806">
        <ele>567.5</ele>
        <time>2022-10-28T14:55:04Z</time>
      </trkpt>
      <trkpt lat="44.31266" lon="5.82806">
        <ele>567.5</ele>
        <time>2022-10-28T14:55:05Z</time>
      </trkpt>
      <trkpt lat="44.31269" lon="5.82804">
        <ele>567.5</ele>
        <time>2022-10-28T15:01:42Z</time>
      </trkpt>
      <trkpt lat="44.31267" lon="5.82803">
        <ele>567.5</ele>
        <time>2022-10-28T15:01:43Z</time>
      </trkpt>
      <trkpt lat="44.31266" lon="5.82805">
        <ele>567.5</ele>
        <time>2022-10-28T15:01:44Z</time>
      </trkpt>
      <trkpt lat="44.31266" lon="5.82808">
        <ele>567.5</ele>
        <time>2022-10-28T15:01:45Z</time>
      </trkpt>
      <trkpt lat="44.31266" lon="5.8281">
        <ele>567.5</ele>
        <time>2022-10-28T15:01:46Z</time>
      </trkpt>
      <trkpt lat="44.31267" lon="5.82811">
        <ele>567.5</ele>
        <time>2022-10-28T15:01:47Z</time>
      </trkpt>
      <trkpt lat="44.31269" lon="5.82815">
        <ele>567.5</ele>
        <time>2022-10-28T15:01:48Z</time>
      </trkpt>
      <trkpt lat="44.3127" lon="5.82819">
        <ele>567.6</ele>
        <time>2022-10-28T15:01:49Z</time>
      </trkpt>
      <trkpt lat="44.31271" lon="5.82821">
        <ele>567.6</ele>
        <time>2022-10-28T15:01:50Z</time>
      </trkpt>
      <trkpt lat="44.31272" lon="5.82823">
        <ele>567.6</ele>
        <time>2022-10-28T15:01:51Z</time>
      </trkpt>
      <trkpt lat="44.31272" lon="5.82824">
        <ele>567.6</ele>
        <time>2022-10-28T15:01:52Z</time>
      </trkpt>
      <trkpt lat="44.31273" lon="5.82825">
        <ele>567.6</ele>
        <time>2022-10-28T15:01:53Z</time>
      </trkpt>
      <trkpt lat="44.31274" lon="5.82825">
        <ele>567.6</ele>
        <time>2022-10-28T15:01:54Z</time>
      </trkpt>
      <trkpt lat="44.31276" lon="5.82824">
        <ele>567.6</ele>
        <time>2022-10-28T15:01:55Z</time>
      </trkpt>
      <trkpt lat="44.31279" lon="5.82821">
        <ele>567.6</ele>
        <time>2022-10-28T15:01:56Z</time>
      </trkpt>
      <trkpt lat="44.31281" lon="5.82816">
        <ele>567.6</ele>
        <time>2022-10-28T15:01:57Z</time>
      </trkpt>
      <trkpt lat="44.31282" lon="5.82814">
        <ele>567.6</ele>
        <time>2022-10-28T15:01:58Z</time>
      </trkpt>
      <trkpt lat="44.31285" lon="5.82809">
        <ele>567.6</ele>
        <time>2022-10-28T15:01:59Z</time>
      </trkpt>
      <trkpt lat="44.31286" lon="5.82807">
        <ele>567.7</ele>
        <time>2022-10-28T15:02:00Z</time>
      </trkpt>
      <trkpt lat="44.31289" lon="5.82802">
        <ele>567.7</ele>
        <time>2022-10-28T15:02:01Z</time>
      </trkpt>
      <trkpt lat="44.3129" lon="5.82801">
        <ele>567.7</ele>
        <time>2022-10-28T15:02:02Z</time>
      </trkpt>
      <trkpt lat="44.31293" lon="5.82797">
        <ele>567.7</ele>
        <time>2022-10-28T15:02:03Z</time>
      </trkpt>
      <trkpt lat="44.31295" lon="5.82792">
        <ele>567.7</ele>
        <time>2022-10-28T15:02:04Z</time>
      </trkpt>
      <trkpt lat="44.31298" lon="5.82788">
        <ele>567.7</ele>
        <time>2022-10-28T15:02:05Z</time>
      </trkpt>
      <trkpt lat="44.313" lon="5.82785">
        <ele>567.7</ele>
        <time>2022-10-28T15:02:06Z</time>
      </trkpt>
      <trkpt lat="44.31302" lon="5.82782">
        <ele>567.8</ele>
        <time>2022-10-28T15:02:07Z</time>
      </trkpt>
      <trkpt lat="44.31304" lon="5.82778">
        <ele>567.8</ele>
        <time>2022-10-28T15:02:08Z</time>
      </trkpt>
      <trkpt lat="44.31307" lon="5.82774">
        <ele>567.8</ele>
        <time>2022-10-28T15:02:09Z</time>
      </trkpt>
      <trkpt lat="44.31309" lon="5.8277">
        <ele>567.8</ele>
        <time>2022-10-28T15:02:10Z</time>
      </trkpt>
      <trkpt lat="44.31311" lon="5.82767">
        <ele>567.8</ele>
        <time>2022-10-28T15:02:11Z</time>
      </trkpt>
      <trkpt lat="44.31314" lon="5.82762">
        <ele>567.8</ele>
        <time>2022-10-28T15:02:12Z</time>
      </trkpt>
      <trkpt lat="44.31316" lon="5.8276">
        <ele>567.8</ele>
        <time>2022-10-28T15:02:13Z</time>
      </trkpt>
      <trkpt lat="44.31319" lon="5.82757">
        <ele>567.8</ele>
        <time>2022-10-28T15:02:14Z</time>
      </trkpt>
      <trkpt lat="44.31322" lon="5.82753">
        <ele>567.9</ele>
        <time>2022-10-28T15:02:15Z</time>
      </trkpt>
      <trkpt lat="44.31325" lon="5.82749">
        <ele>567.9</ele>
        <time>2022-10-28T15:02:16Z</time>
      </trkpt>
      <trkpt lat="44.31327" lon="5.82747">
        <ele>567.9</ele>
        <time>2022-10-28T15:02:17Z</time>
      </trkpt>
      <trkpt lat="44.3133" lon="5.82743">
        <ele>567.9</ele>
        <time>2022-10-28T15:02:18Z</time>
      </trkpt>
      <trkpt lat="44.31333" lon="5.8274">
        <ele>567.9</ele>
        <time>2022-10-28T15:02:19Z</time>
      </trkpt>
      <trkpt lat="44.31335" lon="5.82737">
        <ele>567.9</ele>
        <time>2022-10-28T15:02:20Z</time>
      </trkpt>
      <trkpt lat="44.31339" lon="5.82733">
        <ele>567.9</ele>
        <time>2022-10-28T15:02:21Z</time>
      </trkpt>
      <trkpt lat="44.3134" lon="5.82731">
        <ele>567.9</ele>
        <time>2022-10-28T15:02:22Z</time>
      </trkpt>
      <trkpt lat="44.31346" lon="5.82723">
        <ele>568</ele>
        <time>2022-10-28T15:02:24Z</time>
      </trkpt>
      <trkpt lat="44.31348" lon="5.82719">
        <ele>568</ele>
        <time>2022-10-28T15:02:25Z</time>
      </trkpt>
      <trkpt lat="44.3135" lon="5.82716">
        <ele>568</ele>
        <time>2022-10-28T15:02:26Z</time>
      </trkpt>
      <trkpt lat="44.31353" lon="5.82711">
        <ele>568</ele>
        <time>2022-10-28T15:02:27Z</time>
      </trkpt>
      <trkpt lat="44.31357" lon="5.82706">
        <ele>568.1</ele>
        <time>2022-10-28T15:02:29Z</time>
      </trkpt>
      <trkpt lat="44.31361" lon="5.82701">
        <ele>568.1</ele>
        <time>2022-10-28T15:02:30Z</time>
      </trkpt>
      <trkpt lat="44.31364" lon="5.82699">
        <ele>568.2</ele>
        <time>2022-10-28T15:02:31Z</time>
      </trkpt>
      <trkpt lat="44.31369" lon="5.82695">
        <ele>568.2</ele>
        <time>2022-10-28T15:02:32Z</time>
      </trkpt>
      <trkpt lat="44.31372" lon="5.82692">
        <ele>568.1</ele>
        <time>2022-10-28T15:02:33Z</time>
      </trkpt>
      <trkpt lat="44.31374" lon="5.82688">
        <ele>568.1</ele>
        <time>2022-10-28T15:02:34Z</time>
      </trkpt>
      <trkpt lat="44.31376" lon="5.82683">
        <ele>568.1</ele>
        <time>2022-10-28T15:02:35Z</time>
      </trkpt>
      <trkpt lat="44.31378" lon="5.82677">
        <ele>568.1</ele>
        <time>2022-10-28T15:02:36Z</time>
      </trkpt>
      <trkpt lat="44.31379" lon="5.82673">
        <ele>568.1</ele>
        <time>2022-10-28T15:02:37Z</time>
      </trkpt>
      <trkpt lat="44.31382" lon="5.82667">
        <ele>568.1</ele>
        <time>2022-10-28T15:02:38Z</time>
      </trkpt>
      <trkpt lat="44.31387" lon="5.82655">
        <ele>568.1</ele>
        <time>2022-10-28T15:02:40Z</time>
      </trkpt>
      <trkpt lat="44.3139" lon="5.82649">
        <ele>568.1</ele>
        <time>2022-10-28T15:02:42Z</time>
      </trkpt>
      <trkpt lat="44.31394" lon="5.8264">
        <ele>568.2</ele>
        <time>2022-10-28T15:02:43Z</time>
      </trkpt>
      <trkpt lat="44.31396" lon="5.82635">
        <ele>568.2</ele>
        <time>2022-10-28T15:02:44Z</time>
      </trkpt>
      <trkpt lat="44.31398" lon="5.82629">
        <ele>568.2</ele>
        <time>2022-10-28T15:02:45Z</time>
      </trkpt>
      <trkpt lat="44.31402" lon="5.82618">
        <ele>568.2</ele>
        <time>2022-10-28T15:02:47Z</time>
      </trkpt>
      <trkpt lat="44.31403" lon="5.82611">
        <ele>568.2</ele>
        <time>2022-10-28T15:02:48Z</time>
      </trkpt>
      <trkpt lat="44.31404" lon="5.82607">
        <ele>568.3</ele>
        <time>2022-10-28T15:02:49Z</time>
      </trkpt>
      <trkpt lat="44.31405" lon="5.82599">
        <ele>568.3</ele>
        <time>2022-10-28T15:02:50Z</time>
      </trkpt>
      <trkpt lat="44.31406" lon="5.82592">
        <ele>568.3</ele>
        <time>2022-10-28T15:02:51Z</time>
      </trkpt>
      <trkpt lat="44.31407" lon="5.82589">
        <ele>568.3</ele>
        <time>2022-10-28T15:02:52Z</time>
      </trkpt>
      <trkpt lat="44.31411" lon="5.82574">
        <ele>568.4</ele>
        <time>2022-10-28T15:02:54Z</time>
      </trkpt>
      <trkpt lat="44.31412" lon="5.82568">
        <ele>568.5</ele>
        <time>2022-10-28T15:02:55Z</time>
      </trkpt>
      <trkpt lat="44.31413" lon="5.82561">
        <ele>568.5</ele>
        <time>2022-10-28T15:02:56Z</time>
      </trkpt>
      <trkpt lat="44.31414" lon="5.82554">
        <ele>568.5</ele>
        <time>2022-10-28T15:02:57Z</time>
      </trkpt>
      <trkpt lat="44.31415" lon="5.82547">
        <ele>568.6</ele>
        <time>2022-10-28T15:02:58Z</time>
      </trkpt>
      <trkpt lat="44.31416" lon="5.82541">
        <ele>568.6</ele>
        <time>2022-10-28T15:02:59Z</time>
      </trkpt>
      <trkpt lat="44.31418" lon="5.82535">
        <ele>568.6</ele>
        <time>2022-10-28T15:03:00Z</time>
      </trkpt>
      <trkpt lat="44.31419" lon="5.82528">
        <ele>568.7</ele>
        <time>2022-10-28T15:03:01Z</time>
      </trkpt>
      <trkpt lat="44.31421" lon="5.82522">
        <ele>568.7</ele>
        <time>2022-10-28T15:03:02Z</time>
      </trkpt>
      <trkpt lat="44.31422" lon="5.82515">
        <ele>568.7</ele>
        <time>2022-10-28T15:03:03Z</time>
      </trkpt>
      <trkpt lat="44.31424" lon="5.82507">
        <ele>568.8</ele>
        <time>2022-10-28T15:03:04Z</time>
      </trkpt>
      <trkpt lat="44.31425" lon="5.82502">
        <ele>568.8</ele>
        <time>2022-10-28T15:03:05Z</time>
      </trkpt>
      <trkpt lat="44.31426" lon="5.82496">
        <ele>568.8</ele>
        <time>2022-10-28T15:03:06Z</time>
      </trkpt>
      <trkpt lat="44.31427" lon="5.8249">
        <ele>568.9</ele>
        <time>2022-10-28T15:03:07Z</time>
      </trkpt>
      <trkpt lat="44.31428" lon="5.82484">
        <ele>568.9</ele>
        <time>2022-10-28T15:03:08Z</time>
      </trkpt>
      <trkpt lat="44.31429" lon="5.82481">
        <ele>569</ele>
        <time>2022-10-28T15:03:09Z</time>
      </trkpt>
      <trkpt lat="44.31431" lon="5.82474">
        <ele>569</ele>
        <time>2022-10-28T15:03:10Z</time>
      </trkpt>
      <trkpt lat="44.31433" lon="5.82467">
        <ele>569.1</ele>
        <time>2022-10-28T15:03:12Z</time>
      </trkpt>
      <trkpt lat="44.31434" lon="5.8246">
        <ele>569.2</ele>
        <time>2022-10-28T15:03:13Z</time>
      </trkpt>
      <trkpt lat="44.31435" lon="5.82453">
        <ele>569.2</ele>
        <time>2022-10-28T15:03:14Z</time>
      </trkpt>
      <trkpt lat="44.31436" lon="5.82446">
        <ele>569.3</ele>
        <time>2022-10-28T15:03:15Z</time>
      </trkpt>
      <trkpt lat="44.31437" lon="5.8244">
        <ele>569.3</ele>
        <time>2022-10-28T15:03:16Z</time>
      </trkpt>
      <trkpt lat="44.31439" lon="5.82435">
        <ele>569.4</ele>
        <time>2022-10-28T15:03:17Z</time>
      </trkpt>
      <trkpt lat="44.31439" lon="5.82428">
        <ele>569.4</ele>
        <time>2022-10-28T15:03:18Z</time>
      </trkpt>
      <trkpt lat="44.3144" lon="5.82421">
        <ele>569.5</ele>
        <time>2022-10-28T15:03:20Z</time>
      </trkpt>
      <trkpt lat="44.3144" lon="5.82414">
        <ele>569.6</ele>
        <time>2022-10-28T15:03:21Z</time>
      </trkpt>
      <trkpt lat="44.3144" lon="5.82404">
        <ele>569.7</ele>
        <time>2022-10-28T15:03:23Z</time>
      </trkpt>
      <trkpt lat="44.3144" lon="5.82393">
        <ele>569.9</ele>
        <time>2022-10-28T15:03:24Z</time>
      </trkpt>
      <trkpt lat="44.3144" lon="5.82385">
        <ele>570</ele>
        <time>2022-10-28T15:03:26Z</time>
      </trkpt>
      <trkpt lat="44.3144" lon="5.82378">
        <ele>570.1</ele>
        <time>2022-10-28T15:03:27Z</time>
      </trkpt>
      <trkpt lat="44.31438" lon="5.82372">
        <ele>570.2</ele>
        <time>2022-10-28T15:03:28Z</time>
      </trkpt>
      <trkpt lat="44.31437" lon="5.82366">
        <ele>570.2</ele>
        <time>2022-10-28T15:03:30Z</time>
      </trkpt>
      <trkpt lat="44.31437" lon="5.8236">
        <ele>570.3</ele>
        <time>2022-10-28T15:03:31Z</time>
      </trkpt>
      <trkpt lat="44.31436" lon="5.82354">
        <ele>570.4</ele>
        <time>2022-10-28T15:03:32Z</time>
      </trkpt>
      <trkpt lat="44.31434" lon="5.82343">
        <ele>570.6</ele>
        <time>2022-10-28T15:03:34Z</time>
      </trkpt>
      <trkpt lat="44.31433" lon="5.82338">
        <ele>570.6</ele>
        <time>2022-10-28T15:03:35Z</time>
      </trkpt>
      <trkpt lat="44.31431" lon="5.82335">
        <ele>570.7</ele>
        <time>2022-10-28T15:03:36Z</time>
      </trkpt>
      <trkpt lat="44.31429" lon="5.8233">
        <ele>570.7</ele>
        <time>2022-10-28T15:03:37Z</time>
      </trkpt>
      <trkpt lat="44.31428" lon="5.82325">
        <ele>570.8</ele>
        <time>2022-10-28T15:03:38Z</time>
      </trkpt>
      <trkpt lat="44.31426" lon="5.8232">
        <ele>570.8</ele>
        <time>2022-10-28T15:03:39Z</time>
      </trkpt>
      <trkpt lat="44.31423" lon="5.82317">
        <ele>570.9</ele>
        <time>2022-10-28T15:03:40Z</time>
      </trkpt>
      <trkpt lat="44.3142" lon="5.82313">
        <ele>570.9</ele>
        <time>2022-10-28T15:03:41Z</time>
      </trkpt>
      <trkpt lat="44.31414" lon="5.82313">
        <ele>571</ele>
        <time>2022-10-28T15:03:43Z</time>
      </trkpt>
      <trkpt lat="44.31411" lon="5.82311">
        <ele>571.1</ele>
        <time>2022-10-28T15:03:44Z</time>
      </trkpt>
      <trkpt lat="44.31405" lon="5.82306">
        <ele>571.1</ele>
        <time>2022-10-28T15:03:45Z</time>
      </trkpt>
      <trkpt lat="44.31402" lon="5.82301">
        <ele>571.2</ele>
        <time>2022-10-28T15:03:46Z</time>
      </trkpt>
      <trkpt lat="44.31398" lon="5.82289">
        <ele>571.3</ele>
        <time>2022-10-28T15:03:48Z</time>
      </trkpt>
      <trkpt lat="44.31397" lon="5.82282">
        <ele>571.3</ele>
        <time>2022-10-28T15:03:50Z</time>
      </trkpt>
      <trkpt lat="44.31395" lon="5.82274">
        <ele>571.4</ele>
        <time>2022-10-28T15:03:51Z</time>
      </trkpt>
      <trkpt lat="44.31394" lon="5.82268">
        <ele>571.4</ele>
        <time>2022-10-28T15:03:52Z</time>
      </trkpt>
      <trkpt lat="44.31394" lon="5.82264">
        <ele>571.4</ele>
        <time>2022-10-28T15:03:53Z</time>
      </trkpt>
      <trkpt lat="44.31394" lon="5.82259">
        <ele>571.5</ele>
        <time>2022-10-28T15:03:54Z</time>
      </trkpt>
      <trkpt lat="44.31393" lon="5.82258">
        <ele>571</ele>
        <time>2022-10-28T15:03:55Z</time>
      </trkpt>
      <trkpt lat="44.3139" lon="5.82255">
        <ele>570.9</ele>
        <time>2022-10-28T15:03:57Z</time>
      </trkpt>
      <trkpt lat="44.31386" lon="5.82254">
        <ele>570.7</ele>
        <time>2022-10-28T15:03:58Z</time>
      </trkpt>
      <trkpt lat="44.31385" lon="5.82255">
        <ele>570.7</ele>
        <time>2022-10-28T15:03:59Z</time>
      </trkpt>
      <trkpt lat="44.31383" lon="5.82255">
        <ele>570.6</ele>
        <time>2022-10-28T15:04:00Z</time>
      </trkpt>
      <trkpt lat="44.31377" lon="5.82256">
        <ele>570.4</ele>
        <time>2022-10-28T15:04:02Z</time>
      </trkpt>
      <trkpt lat="44.3137" lon="5.82257">
        <ele>570.2</ele>
        <time>2022-10-28T15:04:03Z</time>
      </trkpt>
      <trkpt lat="44.31365" lon="5.82261">
        <ele>570</ele>
        <time>2022-10-28T15:04:05Z</time>
      </trkpt>
      <trkpt lat="44.31362" lon="5.82265">
        <ele>569.9</ele>
        <time>2022-10-28T15:04:06Z</time>
      </trkpt>
      <trkpt lat="44.31358" lon="5.82269">
        <ele>569.7</ele>
        <time>2022-10-28T15:04:07Z</time>
      </trkpt>
      <trkpt lat="44.31354" lon="5.82273">
        <ele>569</ele>
        <time>2022-10-28T15:04:08Z</time>
      </trkpt>
      <trkpt lat="44.31347" lon="5.82276">
        <ele>568.8</ele>
        <time>2022-10-28T15:04:10Z</time>
      </trkpt>
      <trkpt lat="44.31338" lon="5.82272">
        <ele>568.1</ele>
        <time>2022-10-28T15:04:11Z</time>
      </trkpt>
      <trkpt lat="44.31331" lon="5.82272">
        <ele>567.2</ele>
        <time>2022-10-28T15:04:12Z</time>
      </trkpt>
      <trkpt lat="44.31324" lon="5.82272">
        <ele>566.2</ele>
        <time>2022-10-28T15:04:13Z</time>
      </trkpt>
      <trkpt lat="44.31316" lon="5.82273">
        <ele>565.6</ele>
        <time>2022-10-28T15:04:14Z</time>
      </trkpt>
      <trkpt lat="44.31308" lon="5.82274">
        <ele>565.1</ele>
        <time>2022-10-28T15:04:15Z</time>
      </trkpt>
      <trkpt lat="44.31299" lon="5.82272">
        <ele>564.6</ele>
        <time>2022-10-28T15:04:16Z</time>
      </trkpt>
      <trkpt lat="44.3129" lon="5.82271">
        <ele>564</ele>
        <time>2022-10-28T15:04:17Z</time>
      </trkpt>
      <trkpt lat="44.31283" lon="5.8227">
        <ele>563.4</ele>
        <time>2022-10-28T15:04:18Z</time>
      </trkpt>
      <trkpt lat="44.31275" lon="5.8227">
        <ele>562.9</ele>
        <time>2022-10-28T15:04:19Z</time>
      </trkpt>
      <trkpt lat="44.31267" lon="5.82271">
        <ele>562.4</ele>
        <time>2022-10-28T15:04:20Z</time>
      </trkpt>
      <trkpt lat="44.31258" lon="5.82272">
        <ele>561.8</ele>
        <time>2022-10-28T15:04:21Z</time>
      </trkpt>
      <trkpt lat="44.31249" lon="5.82274">
        <ele>561.3</ele>
        <time>2022-10-28T15:04:22Z</time>
      </trkpt>
      <trkpt lat="44.31241" lon="5.82275">
        <ele>560.8</ele>
        <time>2022-10-28T15:04:23Z</time>
      </trkpt>
      <trkpt lat="44.31233" lon="5.82276">
        <ele>560.6</ele>
        <time>2022-10-28T15:04:24Z</time>
      </trkpt>
      <trkpt lat="44.31226" lon="5.82276">
        <ele>560.5</ele>
        <time>2022-10-28T15:04:25Z</time>
      </trkpt>
      <trkpt lat="44.31222" lon="5.82276">
        <ele>560.4</ele>
        <time>2022-10-28T15:04:26Z</time>
      </trkpt>
      <trkpt lat="44.31218" lon="5.82277">
        <ele>560.4</ele>
        <time>2022-10-28T15:04:27Z</time>
      </trkpt>
      <trkpt lat="44.31217" lon="5.82277">
        <ele>560.3</ele>
        <time>2022-10-28T15:04:28Z</time>
      </trkpt>
      <trkpt lat="44.31214" lon="5.82277">
        <ele>560.3</ele>
        <time>2022-10-28T15:04:29Z</time>
      </trkpt>
      <trkpt lat="44.31213" lon="5.82277">
        <ele>560.3</ele>
        <time>2022-10-28T15:04:30Z</time>
      </trkpt>
      <trkpt lat="44.31212" lon="5.82277">
        <ele>560.3</ele>
        <time>2022-10-28T15:04:31Z</time>
      </trkpt>
      <trkpt lat="44.31211" lon="5.82277">
        <ele>560.2</ele>
        <time>2022-10-28T15:04:32Z</time>
      </trkpt>
      <trkpt lat="44.3121" lon="5.82277">
        <ele>560.2</ele>
        <time>2022-10-28T15:04:33Z</time>
      </trkpt>
      <trkpt lat="44.31209" lon="5.82277">
        <ele>560.2</ele>
        <time>2022-10-28T15:04:34Z</time>
      </trkpt>
      <trkpt lat="44.31208" lon="5.82277">
        <ele>560.2</ele>
        <time>2022-10-28T15:04:35Z</time>
      </trkpt>
      <trkpt lat="44.31208" lon="5.82277">
        <ele>560.2</ele>
        <time>2022-10-28T15:04:36Z</time>
      </trkpt>
      <trkpt lat="44.31208" lon="5.82277">
        <ele>560.2</ele>
        <time>2022-10-28T15:04:37Z</time>
      </trkpt>
      <trkpt lat="44.31207" lon="5.82278">
        <ele>560.2</ele>
        <time>2022-10-28T15:04:38Z</time>
      </trkpt>
      <trkpt lat="44.31207" lon="5.82278">
        <ele>560.2</ele>
        <time>2022-10-28T15:04:39Z</time>
      </trkpt>
      <trkpt lat="44.31206" lon="5.82278">
        <ele>560.1</ele>
        <time>2022-10-28T15:04:40Z</time>
      </trkpt>
      <trkpt lat="44.31206" lon="5.82278">
        <ele>560.1</ele>
        <time>2022-10-28T15:04:41Z</time>
      </trkpt>
      <trkpt lat="44.31205" lon="5.82278">
        <ele>560.1</ele>
        <time>2022-10-28T15:04:42Z</time>
      </trkpt>
      <trkpt lat="44.31205" lon="5.82278">
        <ele>560.1</ele>
        <time>2022-10-28T15:04:43Z</time>
      </trkpt>
      <trkpt lat="44.31205" lon="5.82278">
        <ele>560.1</ele>
        <time>2022-10-28T15:04:44Z</time>
      </trkpt>
      <trkpt lat="44.31204" lon="5.82278">
        <ele>560.1</ele>
        <time>2022-10-28T15:04:45Z</time>
      </trkpt>
      <trkpt lat="44.31204" lon="5.82278">
        <ele>560.1</ele>
        <time>2022-10-28T15:04:50Z</time>
      </trkpt>
      <trkpt lat="44.31203" lon="5.82278">
        <ele>560.1</ele>
        <time>2022-10-28T15:04:51Z</time>
      </trkpt>
      <trkpt lat="44.31203" lon="5.82278">
        <ele>560.1</ele>
        <time>2022-10-28T15:04:52Z</time>
      </trkpt>
      <trkpt lat="44.31202" lon="5.82278">
        <ele>560.1</ele>
        <time>2022-10-28T15:04:53Z</time>
      </trkpt>
      <trkpt lat="44.31201" lon="5.82278">
        <ele>560</ele>
        <time>2022-10-28T15:04:54Z</time>
      </trkpt>
      <trkpt lat="44.31199" lon="5.82279">
        <ele>560</ele>
        <time>2022-10-28T15:04:55Z</time>
      </trkpt>
      <trkpt lat="44.31196" lon="5.82279">
        <ele>559.9</ele>
        <time>2022-10-28T15:04:56Z</time>
      </trkpt>
      <trkpt lat="44.31192" lon="5.8228">
        <ele>559.9</ele>
        <time>2022-10-28T15:04:57Z</time>
      </trkpt>
      <trkpt lat="44.31188" lon="5.82281">
        <ele>559.8</ele>
        <time>2022-10-28T15:04:58Z</time>
      </trkpt>
      <trkpt lat="44.31184" lon="5.82281">
        <ele>559.7</ele>
        <time>2022-10-28T15:04:59Z</time>
      </trkpt>
      <trkpt lat="44.3118" lon="5.82282">
        <ele>559.7</ele>
        <time>2022-10-28T15:05:00Z</time>
      </trkpt>
      <trkpt lat="44.31175" lon="5.82283">
        <ele>559.6</ele>
        <time>2022-10-28T15:05:01Z</time>
      </trkpt>
      <trkpt lat="44.3117" lon="5.82284">
        <ele>559.5</ele>
        <time>2022-10-28T15:05:02Z</time>
      </trkpt>
      <trkpt lat="44.31166" lon="5.82284">
        <ele>559.4</ele>
        <time>2022-10-28T15:05:03Z</time>
      </trkpt>
      <trkpt lat="44.31162" lon="5.82283">
        <ele>559.4</ele>
        <time>2022-10-28T15:05:04Z</time>
      </trkpt>
      <trkpt lat="44.31158" lon="5.82282">
        <ele>559.4</ele>
        <time>2022-10-28T15:05:05Z</time>
      </trkpt>
      <trkpt lat="44.31154" lon="5.82281">
        <ele>559.3</ele>
        <time>2022-10-28T15:05:06Z</time>
      </trkpt>
      <trkpt lat="44.3115" lon="5.82279">
        <ele>559.2</ele>
        <time>2022-10-28T15:05:07Z</time>
      </trkpt>
      <trkpt lat="44.31145" lon="5.82277">
        <ele>559.2</ele>
        <time>2022-10-28T15:05:08Z</time>
      </trkpt>
      <trkpt lat="44.31142" lon="5.82274">
        <ele>559.1</ele>
        <time>2022-10-28T15:05:09Z</time>
      </trkpt>
      <trkpt lat="44.31138" lon="5.8227">
        <ele>559</ele>
        <time>2022-10-28T15:05:10Z</time>
      </trkpt>
      <trkpt lat="44.31135" lon="5.82267">
        <ele>559</ele>
        <time>2022-10-28T15:05:11Z</time>
      </trkpt>
      <trkpt lat="44.31132" lon="5.82263">
        <ele>558.9</ele>
        <time>2022-10-28T15:05:12Z</time>
      </trkpt>
      <trkpt lat="44.31128" lon="5.82259">
        <ele>558.9</ele>
        <time>2022-10-28T15:05:13Z</time>
      </trkpt>
      <trkpt lat="44.31126" lon="5.82255">
        <ele>558.8</ele>
        <time>2022-10-28T15:05:14Z</time>
      </trkpt>
      <trkpt lat="44.31125" lon="5.82255">
        <ele>558.8</ele>
        <time>2022-10-28T15:05:15Z</time>
      </trkpt>
      <trkpt lat="44.31124" lon="5.82254">
        <ele>558.8</ele>
        <time>2022-10-28T15:05:16Z</time>
      </trkpt>
      <trkpt lat="44.31125" lon="5.82253">
        <ele>558.8</ele>
        <time>2022-10-28T15:05:17Z</time>
      </trkpt>
      <trkpt lat="44.31127" lon="5.82251">
        <ele>558.8</ele>
        <time>2022-10-28T15:05:18Z</time>
      </trkpt>
      <trkpt lat="44.31128" lon="5.8225">
        <ele>558.8</ele>
        <time>2022-10-28T15:05:19Z</time>
      </trkpt>
      <trkpt lat="44.31128" lon="5.82249">
        <ele>558.8</ele>
        <time>2022-10-28T15:05:20Z</time>
      </trkpt>
      <trkpt lat="44.31129" lon="5.82249">
        <ele>558.8</ele>
        <time>2022-10-28T15:05:21Z</time>
      </trkpt>
      <trkpt lat="44.31129" lon="5.82249">
        <ele>558.8</ele>
        <time>2022-10-28T15:05:22Z</time>
      </trkpt>
      <trkpt lat="44.31129" lon="5.82249">
        <ele>558.7</ele>
        <time>2022-10-28T15:05:23Z</time>
      </trkpt>
      <trkpt lat="44.31129" lon="5.82249">
        <ele>558.7</ele>
        <time>2022-10-28T15:05:24Z</time>
      </trkpt>
      <trkpt lat="44.31129" lon="5.82249">
        <ele>558.7</ele>
        <time>2022-10-28T15:05:25Z</time>
      </trkpt>
      <trkpt lat="44.31128" lon="5.82248">
        <ele>558.7</ele>
        <time>2022-10-28T15:05:26Z</time>
      </trkpt>
      <trkpt lat="44.31126" lon="5.82248">
        <ele>558.7</ele>
        <time>2022-10-28T15:05:27Z</time>
      </trkpt>
      <trkpt lat="44.31124" lon="5.82247">
        <ele>558.7</ele>
        <time>2022-10-28T15:05:43Z</time>
      </trkpt>
      <trkpt lat="44.31123" lon="5.82246">
        <ele>558.7</ele>
        <time>2022-10-28T15:05:44Z</time>
      </trkpt>
      <trkpt lat="44.31121" lon="5.82245">
        <ele>558.6</ele>
        <time>2022-10-28T15:05:45Z</time>
      </trkpt>
      <trkpt lat="44.31117" lon="5.8224">
        <ele>558.6</ele>
        <time>2022-10-28T15:05:47Z</time>
      </trkpt>
      <trkpt lat="44.31114" lon="5.82235">
        <ele>558.5</ele>
        <time>2022-10-28T15:05:48Z</time>
      </trkpt>
      <trkpt lat="44.3111" lon="5.82228">
        <ele>558.4</ele>
        <time>2022-10-28T15:05:50Z</time>
      </trkpt>
      <trkpt lat="44.31107" lon="5.82222">
        <ele>558.4</ele>
        <time>2022-10-28T15:05:51Z</time>
      </trkpt>
      <trkpt lat="44.31103" lon="5.82214">
        <ele>558.3</ele>
        <time>2022-10-28T15:05:52Z</time>
      </trkpt>
      <trkpt lat="44.31099" lon="5.82208">
        <ele>558.3</ele>
        <time>2022-10-28T15:05:53Z</time>
      </trkpt>
      <trkpt lat="44.31095" lon="5.82203">
        <ele>558.2</ele>
        <time>2022-10-28T15:05:54Z</time>
      </trkpt>
      <trkpt lat="44.31091" lon="5.82199">
        <ele>558.2</ele>
        <time>2022-10-28T15:05:55Z</time>
      </trkpt>
      <trkpt lat="44.31087" lon="5.82194">
        <ele>558.1</ele>
        <time>2022-10-28T15:05:56Z</time>
      </trkpt>
      <trkpt lat="44.31084" lon="5.82189">
        <ele>558.1</ele>
        <time>2022-10-28T15:05:57Z</time>
      </trkpt>
      <trkpt lat="44.3108" lon="5.82184">
        <ele>558.1</ele>
        <time>2022-10-28T15:05:58Z</time>
      </trkpt>
      <trkpt lat="44.31076" lon="5.82179">
        <ele>558</ele>
        <time>2022-10-28T15:05:59Z</time>
      </trkpt>
      <trkpt lat="44.31073" lon="5.82175">
        <ele>558</ele>
        <time>2022-10-28T15:06:00Z</time>
      </trkpt>
      <trkpt lat="44.31069" lon="5.82169">
        <ele>557.9</ele>
        <time>2022-10-28T15:06:01Z</time>
      </trkpt>
      <trkpt lat="44.31065" lon="5.82164">
        <ele>557.9</ele>
        <time>2022-10-28T15:06:02Z</time>
      </trkpt>
      <trkpt lat="44.31061" lon="5.82159">
        <ele>557.8</ele>
        <time>2022-10-28T15:06:03Z</time>
      </trkpt>
      <trkpt lat="44.31057" lon="5.82154">
        <ele>557.8</ele>
        <time>2022-10-28T15:06:04Z</time>
      </trkpt>
      <trkpt lat="44.31053" lon="5.82149">
        <ele>557.7</ele>
        <time>2022-10-28T15:06:05Z</time>
      </trkpt>
      <trkpt lat="44.31049" lon="5.82143">
        <ele>557.7</ele>
        <time>2022-10-28T15:06:06Z</time>
      </trkpt>
      <trkpt lat="44.31045" lon="5.82138">
        <ele>557.7</ele>
        <time>2022-10-28T15:06:07Z</time>
      </trkpt>
      <trkpt lat="44.31042" lon="5.82133">
        <ele>557.6</ele>
        <time>2022-10-28T15:06:08Z</time>
      </trkpt>
      <trkpt lat="44.31038" lon="5.82128">
        <ele>557.6</ele>
        <time>2022-10-28T15:06:09Z</time>
      </trkpt>
      <trkpt lat="44.31034" lon="5.82124">
        <ele>557.6</ele>
        <time>2022-10-28T15:06:10Z</time>
      </trkpt>
      <trkpt lat="44.3103" lon="5.82119">
        <ele>557.6</ele>
        <time>2022-10-28T15:06:11Z</time>
      </trkpt>
      <trkpt lat="44.31026" lon="5.82114">
        <ele>557.5</ele>
        <time>2022-10-28T15:06:12Z</time>
      </trkpt>
      <trkpt lat="44.31023" lon="5.82108">
        <ele>557.5</ele>
        <time>2022-10-28T15:06:13Z</time>
      </trkpt>
      <trkpt lat="44.31019" lon="5.82103">
        <ele>557.5</ele>
        <time>2022-10-28T15:06:14Z</time>
      </trkpt>
      <trkpt lat="44.31015" lon="5.82098">
        <ele>557.5</ele>
        <time>2022-10-28T15:06:15Z</time>
      </trkpt>
      <trkpt lat="44.31011" lon="5.82094">
        <ele>557.5</ele>
        <time>2022-10-28T15:06:16Z</time>
      </trkpt>
      <trkpt lat="44.31007" lon="5.82089">
        <ele>557.4</ele>
        <time>2022-10-28T15:06:17Z</time>
      </trkpt>
      <trkpt lat="44.31003" lon="5.82085">
        <ele>557.4</ele>
        <time>2022-10-28T15:06:18Z</time>
      </trkpt>
      <trkpt lat="44.31" lon="5.8208">
        <ele>557.4</ele>
        <time>2022-10-28T15:06:19Z</time>
      </trkpt>
      <trkpt lat="44.30996" lon="5.82076">
        <ele>557.4</ele>
        <time>2022-10-28T15:06:20Z</time>
      </trkpt>
      <trkpt lat="44.30992" lon="5.82072">
        <ele>557.4</ele>
        <time>2022-10-28T15:06:21Z</time>
      </trkpt>
      <trkpt lat="44.30988" lon="5.82068">
        <ele>557.5</ele>
        <time>2022-10-28T15:06:22Z</time>
      </trkpt>
      <trkpt lat="44.30984" lon="5.82064">
        <ele>557.5</ele>
        <time>2022-10-28T15:06:23Z</time>
      </trkpt>
      <trkpt lat="44.3098" lon="5.8206">
        <ele>557.5</ele>
        <time>2022-10-28T15:06:24Z</time>
      </trkpt>
      <trkpt lat="44.30976" lon="5.82056">
        <ele>557.6</ele>
        <time>2022-10-28T15:06:25Z</time>
      </trkpt>
      <trkpt lat="44.30972" lon="5.82053">
        <ele>557.6</ele>
        <time>2022-10-28T15:06:26Z</time>
      </trkpt>
      <trkpt lat="44.30967" lon="5.82049">
        <ele>557.7</ele>
        <time>2022-10-28T15:06:27Z</time>
      </trkpt>
      <trkpt lat="44.30963" lon="5.82046">
        <ele>557.7</ele>
        <time>2022-10-28T15:06:28Z</time>
      </trkpt>
      <trkpt lat="44.30958" lon="5.82043">
        <ele>557.8</ele>
        <time>2022-10-28T15:06:29Z</time>
      </trkpt>
      <trkpt lat="44.30954" lon="5.82041">
        <ele>557.8</ele>
        <time>2022-10-28T15:06:30Z</time>
      </trkpt>
      <trkpt lat="44.30949" lon="5.82038">
        <ele>557.9</ele>
        <time>2022-10-28T15:06:31Z</time>
      </trkpt>
      <trkpt lat="44.30944" lon="5.82036">
        <ele>558</ele>
        <time>2022-10-28T15:06:32Z</time>
      </trkpt>
      <trkpt lat="44.30939" lon="5.82034">
        <ele>558.1</ele>
        <time>2022-10-28T15:06:33Z</time>
      </trkpt>
      <trkpt lat="44.30934" lon="5.82033">
        <ele>558.2</ele>
        <time>2022-10-28T15:06:34Z</time>
      </trkpt>
      <trkpt lat="44.30929" lon="5.82032">
        <ele>558.3</ele>
        <time>2022-10-28T15:06:35Z</time>
      </trkpt>
      <trkpt lat="44.30924" lon="5.82032">
        <ele>558.5</ele>
        <time>2022-10-28T15:06:36Z</time>
      </trkpt>
      <trkpt lat="44.3092" lon="5.82032">
        <ele>558.6</ele>
        <time>2022-10-28T15:06:37Z</time>
      </trkpt>
      <trkpt lat="44.30916" lon="5.82033">
        <ele>558.8</ele>
        <time>2022-10-28T15:06:38Z</time>
      </trkpt>
      <trkpt lat="44.30912" lon="5.82034">
        <ele>558.8</ele>
        <time>2022-10-28T15:06:39Z</time>
      </trkpt>
      <trkpt lat="44.30908" lon="5.82034">
        <ele>558.9</ele>
        <time>2022-10-28T15:06:40Z</time>
      </trkpt>
      <trkpt lat="44.30904" lon="5.82034">
        <ele>559</ele>
        <time>2022-10-28T15:06:41Z</time>
      </trkpt>
      <trkpt lat="44.309" lon="5.82035">
        <ele>559.1</ele>
        <time>2022-10-28T15:06:42Z</time>
      </trkpt>
      <trkpt lat="44.30896" lon="5.82035">
        <ele>559.2</ele>
        <time>2022-10-28T15:06:43Z</time>
      </trkpt>
      <trkpt lat="44.30892" lon="5.82036">
        <ele>559.3</ele>
        <time>2022-10-28T15:06:44Z</time>
      </trkpt>
      <trkpt lat="44.30887" lon="5.82037">
        <ele>559.5</ele>
        <time>2022-10-28T15:06:45Z</time>
      </trkpt>
      <trkpt lat="44.30885" lon="5.82038">
        <ele>559.5</ele>
        <time>2022-10-28T15:06:46Z</time>
      </trkpt>
      <trkpt lat="44.30881" lon="5.82039">
        <ele>559.6</ele>
        <time>2022-10-28T15:06:47Z</time>
      </trkpt>
      <trkpt lat="44.30877" lon="5.8204">
        <ele>559.8</ele>
        <time>2022-10-28T15:06:48Z</time>
      </trkpt>
      <trkpt lat="44.30873" lon="5.82042">
        <ele>559.9</ele>
        <time>2022-10-28T15:06:49Z</time>
      </trkpt>
      <trkpt lat="44.30869" lon="5.82044">
        <ele>560</ele>
        <time>2022-10-28T15:06:50Z</time>
      </trkpt>
      <trkpt lat="44.30865" lon="5.82045">
        <ele>560.1</ele>
        <time>2022-10-28T15:06:51Z</time>
      </trkpt>
      <trkpt lat="44.30861" lon="5.82047">
        <ele>560.3</ele>
        <time>2022-10-28T15:06:52Z</time>
      </trkpt>
      <trkpt lat="44.30857" lon="5.82049">
        <ele>560.4</ele>
        <time>2022-10-28T15:06:53Z</time>
      </trkpt>
      <trkpt lat="44.30853" lon="5.82051">
        <ele>560.5</ele>
        <time>2022-10-28T15:06:54Z</time>
      </trkpt>
      <trkpt lat="44.30849" lon="5.82052">
        <ele>560.6</ele>
        <time>2022-10-28T15:06:55Z</time>
      </trkpt>
      <trkpt lat="44.30844" lon="5.82055">
        <ele>560.7</ele>
        <time>2022-10-28T15:06:57Z</time>
      </trkpt>
      <trkpt lat="44.30837" lon="5.82057">
        <ele>560.9</ele>
        <time>2022-10-28T15:06:58Z</time>
      </trkpt>
      <trkpt lat="44.30832" lon="5.82059">
        <ele>560.9</ele>
        <time>2022-10-28T15:07:00Z</time>
      </trkpt>
      <trkpt lat="44.30826" lon="5.82061">
        <ele>561</ele>
        <time>2022-10-28T15:07:01Z</time>
      </trkpt>
      <trkpt lat="44.30823" lon="5.82062">
        <ele>561.1</ele>
        <time>2022-10-28T15:07:02Z</time>
      </trkpt>
      <trkpt lat="44.30819" lon="5.82063">
        <ele>561.1</ele>
        <time>2022-10-28T15:07:03Z</time>
      </trkpt>
      <trkpt lat="44.30814" lon="5.82065">
        <ele>561.2</ele>
        <time>2022-10-28T15:07:04Z</time>
      </trkpt>
      <trkpt lat="44.3081" lon="5.82066">
        <ele>561.2</ele>
        <time>2022-10-28T15:07:06Z</time>
      </trkpt>
      <trkpt lat="44.30803" lon="5.82069">
        <ele>561.3</ele>
        <time>2022-10-28T15:07:07Z</time>
      </trkpt>
      <trkpt lat="44.30799" lon="5.8207">
        <ele>561.3</ele>
        <time>2022-10-28T15:07:08Z</time>
      </trkpt>
      <trkpt lat="44.3079" lon="5.82073">
        <ele>561.5</ele>
        <time>2022-10-28T15:07:10Z</time>
      </trkpt>
      <trkpt lat="44.30785" lon="5.82075">
        <ele>561.6</ele>
        <time>2022-10-28T15:07:11Z</time>
      </trkpt>
      <trkpt lat="44.30778" lon="5.82077">
        <ele>561.7</ele>
        <time>2022-10-28T15:07:13Z</time>
      </trkpt>
      <trkpt lat="44.30773" lon="5.82079">
        <ele>561.8</ele>
        <time>2022-10-28T15:07:14Z</time>
      </trkpt>
      <trkpt lat="44.30768" lon="5.82081">
        <ele>561.8</ele>
        <time>2022-10-28T15:07:15Z</time>
      </trkpt>
      <trkpt lat="44.30762" lon="5.82084">
        <ele>561.9</ele>
        <time>2022-10-28T15:07:17Z</time>
      </trkpt>
      <trkpt lat="44.30757" lon="5.82088">
        <ele>562</ele>
        <time>2022-10-28T15:07:18Z</time>
      </trkpt>
      <trkpt lat="44.30753" lon="5.82091">
        <ele>562</ele>
        <time>2022-10-28T15:07:19Z</time>
      </trkpt>
      <trkpt lat="44.30748" lon="5.82096">
        <ele>562.1</ele>
        <time>2022-10-28T15:07:21Z</time>
      </trkpt>
      <trkpt lat="44.30743" lon="5.82104">
        <ele>562.2</ele>
        <time>2022-10-28T15:07:22Z</time>
      </trkpt>
      <trkpt lat="44.3074" lon="5.82108">
        <ele>562.3</ele>
        <time>2022-10-28T15:07:23Z</time>
      </trkpt>
      <trkpt lat="44.30738" lon="5.82115">
        <ele>562.4</ele>
        <time>2022-10-28T15:07:24Z</time>
      </trkpt>
      <trkpt lat="44.30736" lon="5.82121">
        <ele>562.4</ele>
        <time>2022-10-28T15:07:25Z</time>
      </trkpt>
      <trkpt lat="44.30734" lon="5.82127">
        <ele>562.5</ele>
        <time>2022-10-28T15:07:26Z</time>
      </trkpt>
      <trkpt lat="44.30731" lon="5.82134">
        <ele>562.6</ele>
        <time>2022-10-28T15:07:27Z</time>
      </trkpt>
      <trkpt lat="44.30729" lon="5.8214">
        <ele>562.7</ele>
        <time>2022-10-28T15:07:28Z</time>
      </trkpt>
      <trkpt lat="44.30727" lon="5.82145">
        <ele>562.7</ele>
        <time>2022-10-28T15:07:29Z</time>
      </trkpt>
      <trkpt lat="44.30725" lon="5.82151">
        <ele>562.8</ele>
        <time>2022-10-28T15:07:30Z</time>
      </trkpt>
      <trkpt lat="44.30723" lon="5.82157">
        <ele>562.9</ele>
        <time>2022-10-28T15:07:31Z</time>
      </trkpt>
      <trkpt lat="44.30721" lon="5.82162">
        <ele>563</ele>
        <time>2022-10-28T15:07:32Z</time>
      </trkpt>
      <trkpt lat="44.30719" lon="5.82168">
        <ele>563.1</ele>
        <time>2022-10-28T15:07:33Z</time>
      </trkpt>
      <trkpt lat="44.30716" lon="5.82174">
        <ele>563.2</ele>
        <time>2022-10-28T15:07:34Z</time>
      </trkpt>
      <trkpt lat="44.30714" lon="5.8218">
        <ele>563.2</ele>
        <time>2022-10-28T15:07:35Z</time>
      </trkpt>
      <trkpt lat="44.30712" lon="5.82185">
        <ele>563.3</ele>
        <time>2022-10-28T15:07:36Z</time>
      </trkpt>
      <trkpt lat="44.3071" lon="5.82191">
        <ele>563.4</ele>
        <time>2022-10-28T15:07:37Z</time>
      </trkpt>
      <trkpt lat="44.30708" lon="5.82196">
        <ele>563.5</ele>
        <time>2022-10-28T15:07:38Z</time>
      </trkpt>
      <trkpt lat="44.30706" lon="5.82202">
        <ele>563.6</ele>
        <time>2022-10-28T15:07:39Z</time>
      </trkpt>
      <trkpt lat="44.30703" lon="5.82207">
        <ele>563.6</ele>
        <time>2022-10-28T15:07:40Z</time>
      </trkpt>
      <trkpt lat="44.307" lon="5.82213">
        <ele>563.7</ele>
        <time>2022-10-28T15:07:41Z</time>
      </trkpt>
      <trkpt lat="44.30698" lon="5.82218">
        <ele>563.8</ele>
        <time>2022-10-28T15:07:42Z</time>
      </trkpt>
      <trkpt lat="44.30695" lon="5.82223">
        <ele>563.9</ele>
        <time>2022-10-28T15:07:43Z</time>
      </trkpt>
      <trkpt lat="44.30691" lon="5.82228">
        <ele>564</ele>
        <time>2022-10-28T15:07:44Z</time>
      </trkpt>
      <trkpt lat="44.30688" lon="5.82233">
        <ele>564</ele>
        <time>2022-10-28T15:07:45Z</time>
      </trkpt>
      <trkpt lat="44.30685" lon="5.82237">
        <ele>564</ele>
        <time>2022-10-28T15:07:46Z</time>
      </trkpt>
      <trkpt lat="44.30682" lon="5.82242">
        <ele>564</ele>
        <time>2022-10-28T15:07:47Z</time>
      </trkpt>
      <trkpt lat="44.30678" lon="5.82246">
        <ele>564</ele>
        <time>2022-10-28T15:07:48Z</time>
      </trkpt>
      <trkpt lat="44.30675" lon="5.82251">
        <ele>564</ele>
        <time>2022-10-28T15:07:49Z</time>
      </trkpt>
      <trkpt lat="44.30671" lon="5.82256">
        <ele>564</ele>
        <time>2022-10-28T15:07:50Z</time>
      </trkpt>
      <trkpt lat="44.30668" lon="5.82261">
        <ele>564</ele>
        <time>2022-10-28T15:07:51Z</time>
      </trkpt>
      <trkpt lat="44.30664" lon="5.82265">
        <ele>563.9</ele>
        <time>2022-10-28T15:07:52Z</time>
      </trkpt>
      <trkpt lat="44.3066" lon="5.82269">
        <ele>563.9</ele>
        <time>2022-10-28T15:07:53Z</time>
      </trkpt>
      <trkpt lat="44.30656" lon="5.82273">
        <ele>563.9</ele>
        <time>2022-10-28T15:07:54Z</time>
      </trkpt>
      <trkpt lat="44.3065" lon="5.82276">
        <ele>563.8</ele>
        <time>2022-10-28T15:07:55Z</time>
      </trkpt>
      <trkpt lat="44.30645" lon="5.8228">
        <ele>563.8</ele>
        <time>2022-10-28T15:07:56Z</time>
      </trkpt>
      <trkpt lat="44.30641" lon="5.82284">
        <ele>563.7</ele>
        <time>2022-10-28T15:07:57Z</time>
      </trkpt>
      <trkpt lat="44.30636" lon="5.82287">
        <ele>563.7</ele>
        <time>2022-10-28T15:07:58Z</time>
      </trkpt>
      <trkpt lat="44.3063" lon="5.82291">
        <ele>563.6</ele>
        <time>2022-10-28T15:07:59Z</time>
      </trkpt>
      <trkpt lat="44.30624" lon="5.82294">
        <ele>563.5</ele>
        <time>2022-10-28T15:08:00Z</time>
      </trkpt>
      <trkpt lat="44.30618" lon="5.82296">
        <ele>563.5</ele>
        <time>2022-10-28T15:08:01Z</time>
      </trkpt>
      <trkpt lat="44.30612" lon="5.82298">
        <ele>563.4</ele>
        <time>2022-10-28T15:08:02Z</time>
      </trkpt>
      <trkpt lat="44.30606" lon="5.823">
        <ele>563.3</ele>
        <time>2022-10-28T15:08:03Z</time>
      </trkpt>
      <trkpt lat="44.30601" lon="5.82302">
        <ele>563.2</ele>
        <time>2022-10-28T15:08:04Z</time>
      </trkpt>
      <trkpt lat="44.30595" lon="5.82303">
        <ele>563.2</ele>
        <time>2022-10-28T15:08:05Z</time>
      </trkpt>
      <trkpt lat="44.30589" lon="5.82303">
        <ele>563.1</ele>
        <time>2022-10-28T15:08:06Z</time>
      </trkpt>
      <trkpt lat="44.30583" lon="5.82305">
        <ele>563</ele>
        <time>2022-10-28T15:08:07Z</time>
      </trkpt>
      <trkpt lat="44.30576" lon="5.82305">
        <ele>563</ele>
        <time>2022-10-28T15:08:08Z</time>
      </trkpt>
      <trkpt lat="44.3057" lon="5.82306">
        <ele>563</ele>
        <time>2022-10-28T15:08:09Z</time>
      </trkpt>
      <trkpt lat="44.30564" lon="5.82307">
        <ele>563</ele>
        <time>2022-10-28T15:08:10Z</time>
      </trkpt>
      <trkpt lat="44.30558" lon="5.82307">
        <ele>563</ele>
        <time>2022-10-28T15:08:11Z</time>
      </trkpt>
      <trkpt lat="44.30552" lon="5.82308">
        <ele>562.9</ele>
        <time>2022-10-28T15:08:12Z</time>
      </trkpt>
      <trkpt lat="44.30546" lon="5.82309">
        <ele>562.9</ele>
        <time>2022-10-28T15:08:13Z</time>
      </trkpt>
      <trkpt lat="44.30541" lon="5.8231">
        <ele>562.9</ele>
        <time>2022-10-28T15:08:14Z</time>
      </trkpt>
      <trkpt lat="44.30535" lon="5.82311">
        <ele>562.9</ele>
        <time>2022-10-28T15:08:15Z</time>
      </trkpt>
      <trkpt lat="44.30529" lon="5.82312">
        <ele>562.9</ele>
        <time>2022-10-28T15:08:16Z</time>
      </trkpt>
      <trkpt lat="44.30523" lon="5.82312">
        <ele>562.8</ele>
        <time>2022-10-28T15:08:17Z</time>
      </trkpt>
      <trkpt lat="44.30517" lon="5.82313">
        <ele>562.8</ele>
        <time>2022-10-28T15:08:18Z</time>
      </trkpt>
      <trkpt lat="44.30511" lon="5.82314">
        <ele>562.8</ele>
        <time>2022-10-28T15:08:19Z</time>
      </trkpt>
      <trkpt lat="44.30505" lon="5.82314">
        <ele>562.8</ele>
        <time>2022-10-28T15:08:20Z</time>
      </trkpt>
      <trkpt lat="44.30499" lon="5.82315">
        <ele>562.8</ele>
        <time>2022-10-28T15:08:21Z</time>
      </trkpt>
      <trkpt lat="44.30493" lon="5.82315">
        <ele>562.8</ele>
        <time>2022-10-28T15:08:22Z</time>
      </trkpt>
      <trkpt lat="44.30487" lon="5.82315">
        <ele>562.8</ele>
        <time>2022-10-28T15:08:23Z</time>
      </trkpt>
      <trkpt lat="44.30482" lon="5.82315">
        <ele>562.8</ele>
        <time>2022-10-28T15:08:24Z</time>
      </trkpt>
      <trkpt lat="44.30476" lon="5.82315">
        <ele>562.8</ele>
        <time>2022-10-28T15:08:25Z</time>
      </trkpt>
      <trkpt lat="44.3047" lon="5.82316">
        <ele>562.9</ele>
        <time>2022-10-28T15:08:26Z</time>
      </trkpt>
      <trkpt lat="44.30465" lon="5.82316">
        <ele>562.9</ele>
        <time>2022-10-28T15:08:27Z</time>
      </trkpt>
      <trkpt lat="44.30459" lon="5.82316">
        <ele>562.9</ele>
        <time>2022-10-28T15:08:28Z</time>
      </trkpt>
      <trkpt lat="44.30454" lon="5.82316">
        <ele>562.9</ele>
        <time>2022-10-28T15:08:29Z</time>
      </trkpt>
      <trkpt lat="44.30448" lon="5.82316">
        <ele>563</ele>
        <time>2022-10-28T15:08:30Z</time>
      </trkpt>
      <trkpt lat="44.30443" lon="5.82316">
        <ele>563</ele>
        <time>2022-10-28T15:08:31Z</time>
      </trkpt>
      <trkpt lat="44.30437" lon="5.82317">
        <ele>563</ele>
        <time>2022-10-28T15:08:32Z</time>
      </trkpt>
      <trkpt lat="44.30432" lon="5.82317">
        <ele>563</ele>
        <time>2022-10-28T15:08:33Z</time>
      </trkpt>
      <trkpt lat="44.30427" lon="5.82318">
        <ele>563</ele>
        <time>2022-10-28T15:08:34Z</time>
      </trkpt>
      <trkpt lat="44.30421" lon="5.82319">
        <ele>563.1</ele>
        <time>2022-10-28T15:08:35Z</time>
      </trkpt>
      <trkpt lat="44.30416" lon="5.82319">
        <ele>563.1</ele>
        <time>2022-10-28T15:08:36Z</time>
      </trkpt>
      <trkpt lat="44.3041" lon="5.8232">
        <ele>563.1</ele>
        <time>2022-10-28T15:08:37Z</time>
      </trkpt>
      <trkpt lat="44.30405" lon="5.8232">
        <ele>563.1</ele>
        <time>2022-10-28T15:08:38Z</time>
      </trkpt>
      <trkpt lat="44.304" lon="5.8232">
        <ele>563.1</ele>
        <time>2022-10-28T15:08:39Z</time>
      </trkpt>
      <trkpt lat="44.30395" lon="5.8232">
        <ele>563.1</ele>
        <time>2022-10-28T15:08:40Z</time>
      </trkpt>
      <trkpt lat="44.30389" lon="5.8232">
        <ele>563.1</ele>
        <time>2022-10-28T15:08:41Z</time>
      </trkpt>
      <trkpt lat="44.30384" lon="5.82321">
        <ele>563.1</ele>
        <time>2022-10-28T15:08:42Z</time>
      </trkpt>
      <trkpt lat="44.30378" lon="5.82322">
        <ele>563.1</ele>
        <time>2022-10-28T15:08:43Z</time>
      </trkpt>
      <trkpt lat="44.30373" lon="5.82323">
        <ele>563.1</ele>
        <time>2022-10-28T15:08:44Z</time>
      </trkpt>
      <trkpt lat="44.30367" lon="5.82324">
        <ele>563.1</ele>
        <time>2022-10-28T15:08:45Z</time>
      </trkpt>
      <trkpt lat="44.30362" lon="5.82325">
        <ele>563.1</ele>
        <time>2022-10-28T15:08:46Z</time>
      </trkpt>
      <trkpt lat="44.30357" lon="5.82326">
        <ele>563.1</ele>
        <time>2022-10-28T15:08:47Z</time>
      </trkpt>
      <trkpt lat="44.30351" lon="5.82328">
        <ele>563.1</ele>
        <time>2022-10-28T15:08:48Z</time>
      </trkpt>
      <trkpt lat="44.30346" lon="5.82328">
        <ele>563.2</ele>
        <time>2022-10-28T15:08:49Z</time>
      </trkpt>
      <trkpt lat="44.30341" lon="5.8233">
        <ele>563.2</ele>
        <time>2022-10-28T15:08:50Z</time>
      </trkpt>
      <trkpt lat="44.30336" lon="5.82331">
        <ele>563.2</ele>
        <time>2022-10-28T15:08:51Z</time>
      </trkpt>
      <trkpt lat="44.30331" lon="5.82332">
        <ele>563.3</ele>
        <time>2022-10-28T15:08:52Z</time>
      </trkpt>
      <trkpt lat="44.30326" lon="5.82333">
        <ele>563.3</ele>
        <time>2022-10-28T15:08:53Z</time>
      </trkpt>
      <trkpt lat="44.30321" lon="5.82334">
        <ele>563.3</ele>
        <time>2022-10-28T15:08:54Z</time>
      </trkpt>
      <trkpt lat="44.30315" lon="5.82334">
        <ele>563.3</ele>
        <time>2022-10-28T15:08:55Z</time>
      </trkpt>
      <trkpt lat="44.3031" lon="5.82335">
        <ele>563.4</ele>
        <time>2022-10-28T15:08:56Z</time>
      </trkpt>
      <trkpt lat="44.30305" lon="5.82335">
        <ele>563.4</ele>
        <time>2022-10-28T15:08:57Z</time>
      </trkpt>
      <trkpt lat="44.30299" lon="5.82336">
        <ele>563.4</ele>
        <time>2022-10-28T15:08:58Z</time>
      </trkpt>
      <trkpt lat="44.30294" lon="5.82337">
        <ele>563.4</ele>
        <time>2022-10-28T15:08:59Z</time>
      </trkpt>
      <trkpt lat="44.30289" lon="5.82338">
        <ele>563.4</ele>
        <time>2022-10-28T15:09:00Z</time>
      </trkpt>
      <trkpt lat="44.30283" lon="5.82339">
        <ele>563.4</ele>
        <time>2022-10-28T15:09:01Z</time>
      </trkpt>
      <trkpt lat="44.30278" lon="5.82341">
        <ele>563.4</ele>
        <time>2022-10-28T15:09:02Z</time>
      </trkpt>
      <trkpt lat="44.30272" lon="5.82342">
        <ele>563.4</ele>
        <time>2022-10-28T15:09:03Z</time>
      </trkpt>
      <trkpt lat="44.30267" lon="5.82342">
        <ele>563.4</ele>
        <time>2022-10-28T15:09:04Z</time>
      </trkpt>
      <trkpt lat="44.30261" lon="5.82343">
        <ele>563.4</ele>
        <time>2022-10-28T15:09:05Z</time>
      </trkpt>
      <trkpt lat="44.30256" lon="5.82344">
        <ele>563.4</ele>
        <time>2022-10-28T15:09:06Z</time>
      </trkpt>
      <trkpt lat="44.3025" lon="5.82345">
        <ele>563.4</ele>
        <time>2022-10-28T15:09:07Z</time>
      </trkpt>
      <trkpt lat="44.30245" lon="5.82346">
        <ele>563.4</ele>
        <time>2022-10-28T15:09:08Z</time>
      </trkpt>
      <trkpt lat="44.3024" lon="5.82346">
        <ele>563.4</ele>
        <time>2022-10-28T15:09:09Z</time>
      </trkpt>
      <trkpt lat="44.30234" lon="5.82347">
        <ele>563.4</ele>
        <time>2022-10-28T15:09:10Z</time>
      </trkpt>
      <trkpt lat="44.30229" lon="5.82348">
        <ele>563.4</ele>
        <time>2022-10-28T15:09:11Z</time>
      </trkpt>
      <trkpt lat="44.30223" lon="5.82349">
        <ele>563.4</ele>
        <time>2022-10-28T15:09:12Z</time>
      </trkpt>
      <trkpt lat="44.30218" lon="5.82349">
        <ele>563.4</ele>
        <time>2022-10-28T15:09:13Z</time>
      </trkpt>
      <trkpt lat="44.30212" lon="5.82349">
        <ele>563.4</ele>
        <time>2022-10-28T15:09:14Z</time>
      </trkpt>
      <trkpt lat="44.30206" lon="5.82349">
        <ele>563.4</ele>
        <time>2022-10-28T15:09:15Z</time>
      </trkpt>
      <trkpt lat="44.30201" lon="5.82349">
        <ele>563.4</ele>
        <time>2022-10-28T15:09:16Z</time>
      </trkpt>
      <trkpt lat="44.30195" lon="5.82349">
        <ele>563.4</ele>
        <time>2022-10-28T15:09:17Z</time>
      </trkpt>
      <trkpt lat="44.3019" lon="5.82349">
        <ele>563.4</ele>
        <time>2022-10-28T15:09:18Z</time>
      </trkpt>
      <trkpt lat="44.30184" lon="5.82348">
        <ele>563.4</ele>
        <time>2022-10-28T15:09:19Z</time>
      </trkpt>
      <trkpt lat="44.30178" lon="5.82348">
        <ele>563.4</ele>
        <time>2022-10-28T15:09:20Z</time>
      </trkpt>
      <trkpt lat="44.30172" lon="5.82348">
        <ele>563.4</ele>
        <time>2022-10-28T15:09:21Z</time>
      </trkpt>
      <trkpt lat="44.30166" lon="5.82347">
        <ele>563.4</ele>
        <time>2022-10-28T15:09:22Z</time>
      </trkpt>
      <trkpt lat="44.30161" lon="5.82346">
        <ele>563.4</ele>
        <time>2022-10-28T15:09:23Z</time>
      </trkpt>
      <trkpt lat="44.30155" lon="5.82345">
        <ele>563.4</ele>
        <time>2022-10-28T15:09:24Z</time>
      </trkpt>
      <trkpt lat="44.3015" lon="5.82345">
        <ele>563.4</ele>
        <time>2022-10-28T15:09:25Z</time>
      </trkpt>
      <trkpt lat="44.30144" lon="5.82344">
        <ele>563.4</ele>
        <time>2022-10-28T15:09:26Z</time>
      </trkpt>
      <trkpt lat="44.30138" lon="5.82344">
        <ele>563.4</ele>
        <time>2022-10-28T15:09:27Z</time>
      </trkpt>
      <trkpt lat="44.30133" lon="5.82344">
        <ele>563.4</ele>
        <time>2022-10-28T15:09:28Z</time>
      </trkpt>
      <trkpt lat="44.30127" lon="5.82343">
        <ele>563.4</ele>
        <time>2022-10-28T15:09:29Z</time>
      </trkpt>
      <trkpt lat="44.30121" lon="5.82343">
        <ele>563.4</ele>
        <time>2022-10-28T15:09:30Z</time>
      </trkpt>
      <trkpt lat="44.30115" lon="5.82343">
        <ele>563.4</ele>
        <time>2022-10-28T15:09:31Z</time>
      </trkpt>
      <trkpt lat="44.3011" lon="5.82343">
        <ele>563.4</ele>
        <time>2022-10-28T15:09:32Z</time>
      </trkpt>
      <trkpt lat="44.30104" lon="5.82343">
        <ele>563.4</ele>
        <time>2022-10-28T15:09:33Z</time>
      </trkpt>
      <trkpt lat="44.30098" lon="5.82343">
        <ele>563.4</ele>
        <time>2022-10-28T15:09:34Z</time>
      </trkpt>
      <trkpt lat="44.30093" lon="5.82343">
        <ele>563.4</ele>
        <time>2022-10-28T15:09:35Z</time>
      </trkpt>
      <trkpt lat="44.30086" lon="5.82344">
        <ele>563.4</ele>
        <time>2022-10-28T15:09:36Z</time>
      </trkpt>
      <trkpt lat="44.3008" lon="5.82344">
        <ele>563.4</ele>
        <time>2022-10-28T15:09:37Z</time>
      </trkpt>
      <trkpt lat="44.30075" lon="5.82344">
        <ele>563.4</ele>
        <time>2022-10-28T15:09:38Z</time>
      </trkpt>
      <trkpt lat="44.30069" lon="5.82343">
        <ele>563.4</ele>
        <time>2022-10-28T15:09:39Z</time>
      </trkpt>
      <trkpt lat="44.30064" lon="5.82343">
        <ele>563.5</ele>
        <time>2022-10-28T15:09:40Z</time>
      </trkpt>
      <trkpt lat="44.30058" lon="5.82342">
        <ele>563.5</ele>
        <time>2022-10-28T15:09:41Z</time>
      </trkpt>
      <trkpt lat="44.30053" lon="5.82341">
        <ele>563.5</ele>
        <time>2022-10-28T15:09:42Z</time>
      </trkpt>
      <trkpt lat="44.30047" lon="5.8234">
        <ele>563.5</ele>
        <time>2022-10-28T15:09:43Z</time>
      </trkpt>
      <trkpt lat="44.30042" lon="5.82339">
        <ele>563.4</ele>
        <time>2022-10-28T15:09:44Z</time>
      </trkpt>
      <trkpt lat="44.30036" lon="5.82338">
        <ele>563.4</ele>
        <time>2022-10-28T15:09:45Z</time>
      </trkpt>
      <trkpt lat="44.30031" lon="5.82337">
        <ele>563.4</ele>
        <time>2022-10-28T15:09:46Z</time>
      </trkpt>
      <trkpt lat="44.30025" lon="5.82335">
        <ele>563.4</ele>
        <time>2022-10-28T15:09:47Z</time>
      </trkpt>
      <trkpt lat="44.3002" lon="5.82334">
        <ele>563.4</ele>
        <time>2022-10-28T15:09:48Z</time>
      </trkpt>
      <trkpt lat="44.30015" lon="5.82332">
        <ele>563.4</ele>
        <time>2022-10-28T15:09:49Z</time>
      </trkpt>
      <trkpt lat="44.30009" lon="5.8233">
        <ele>563.3</ele>
        <time>2022-10-28T15:09:50Z</time>
      </trkpt>
      <trkpt lat="44.30003" lon="5.82329">
        <ele>563.3</ele>
        <time>2022-10-28T15:09:51Z</time>
      </trkpt>
      <trkpt lat="44.29997" lon="5.82327">
        <ele>563.3</ele>
        <time>2022-10-28T15:09:52Z</time>
      </trkpt>
      <trkpt lat="44.29992" lon="5.82326">
        <ele>563.2</ele>
        <time>2022-10-28T15:09:53Z</time>
      </trkpt>
      <trkpt lat="44.29986" lon="5.82325">
        <ele>563.2</ele>
        <time>2022-10-28T15:09:54Z</time>
      </trkpt>
      <trkpt lat="44.29981" lon="5.82323">
        <ele>563.2</ele>
        <time>2022-10-28T15:09:55Z</time>
      </trkpt>
      <trkpt lat="44.29975" lon="5.8232">
        <ele>563.1</ele>
        <time>2022-10-28T15:09:56Z</time>
      </trkpt>
      <trkpt lat="44.29969" lon="5.82318">
        <ele>563</ele>
        <time>2022-10-28T15:09:57Z</time>
      </trkpt>
      <trkpt lat="44.29963" lon="5.82315">
        <ele>563</ele>
        <time>2022-10-28T15:09:58Z</time>
      </trkpt>
      <trkpt lat="44.29957" lon="5.82313">
        <ele>562.9</ele>
        <time>2022-10-28T15:09:59Z</time>
      </trkpt>
      <trkpt lat="44.29952" lon="5.8231">
        <ele>562.8</ele>
        <time>2022-10-28T15:10:00Z</time>
      </trkpt>
      <trkpt lat="44.29946" lon="5.82308">
        <ele>562.8</ele>
        <time>2022-10-28T15:10:01Z</time>
      </trkpt>
      <trkpt lat="44.2994" lon="5.82305">
        <ele>562.7</ele>
        <time>2022-10-28T15:10:02Z</time>
      </trkpt>
      <trkpt lat="44.29934" lon="5.82302">
        <ele>562.7</ele>
        <time>2022-10-28T15:10:03Z</time>
      </trkpt>
      <trkpt lat="44.29928" lon="5.82299">
        <ele>562.6</ele>
        <time>2022-10-28T15:10:04Z</time>
      </trkpt>
      <trkpt lat="44.29922" lon="5.82295">
        <ele>562.5</ele>
        <time>2022-10-28T15:10:05Z</time>
      </trkpt>
      <trkpt lat="44.29916" lon="5.82293">
        <ele>562.5</ele>
        <time>2022-10-28T15:10:06Z</time>
      </trkpt>
      <trkpt lat="44.2991" lon="5.8229">
        <ele>562.4</ele>
        <time>2022-10-28T15:10:07Z</time>
      </trkpt>
      <trkpt lat="44.29904" lon="5.82287">
        <ele>562.4</ele>
        <time>2022-10-28T15:10:08Z</time>
      </trkpt>
      <trkpt lat="44.29898" lon="5.82283">
        <ele>562.3</ele>
        <time>2022-10-28T15:10:09Z</time>
      </trkpt>
      <trkpt lat="44.29892" lon="5.8228">
        <ele>562.3</ele>
        <time>2022-10-28T15:10:10Z</time>
      </trkpt>
      <trkpt lat="44.29886" lon="5.82276">
        <ele>562.3</ele>
        <time>2022-10-28T15:10:11Z</time>
      </trkpt>
      <trkpt lat="44.29881" lon="5.82272">
        <ele>562.2</ele>
        <time>2022-10-28T15:10:12Z</time>
      </trkpt>
      <trkpt lat="44.29875" lon="5.82269">
        <ele>562.2</ele>
        <time>2022-10-28T15:10:13Z</time>
      </trkpt>
      <trkpt lat="44.29869" lon="5.82265">
        <ele>562.2</ele>
        <time>2022-10-28T15:10:14Z</time>
      </trkpt>
      <trkpt lat="44.29863" lon="5.82262">
        <ele>562.2</ele>
        <time>2022-10-28T15:10:15Z</time>
      </trkpt>
      <trkpt lat="44.29858" lon="5.8226">
        <ele>562.2</ele>
        <time>2022-10-28T15:10:16Z</time>
      </trkpt>
      <trkpt lat="44.29853" lon="5.82257">
        <ele>562.2</ele>
        <time>2022-10-28T15:10:17Z</time>
      </trkpt>
      <trkpt lat="44.29847" lon="5.82255">
        <ele>562.3</ele>
        <time>2022-10-28T15:10:18Z</time>
      </trkpt>
      <trkpt lat="44.29842" lon="5.82254">
        <ele>562.3</ele>
        <time>2022-10-28T15:10:19Z</time>
      </trkpt>
      <trkpt lat="44.29836" lon="5.82252">
        <ele>562.3</ele>
        <time>2022-10-28T15:10:20Z</time>
      </trkpt>
      <trkpt lat="44.29831" lon="5.82251">
        <ele>562.3</ele>
        <time>2022-10-28T15:10:21Z</time>
      </trkpt>
      <trkpt lat="44.29825" lon="5.8225">
        <ele>562.4</ele>
        <time>2022-10-28T15:10:22Z</time>
      </trkpt>
      <trkpt lat="44.29819" lon="5.8225">
        <ele>562.5</ele>
        <time>2022-10-28T15:10:23Z</time>
      </trkpt>
      <trkpt lat="44.29814" lon="5.82249">
        <ele>562.6</ele>
        <time>2022-10-28T15:10:24Z</time>
      </trkpt>
      <trkpt lat="44.29808" lon="5.82248">
        <ele>562.7</ele>
        <time>2022-10-28T15:10:25Z</time>
      </trkpt>
      <trkpt lat="44.29803" lon="5.82248">
        <ele>562.8</ele>
        <time>2022-10-28T15:10:26Z</time>
      </trkpt>
      <trkpt lat="44.29797" lon="5.82247">
        <ele>562.9</ele>
        <time>2022-10-28T15:10:27Z</time>
      </trkpt>
      <trkpt lat="44.29792" lon="5.82247">
        <ele>562.9</ele>
        <time>2022-10-28T15:10:28Z</time>
      </trkpt>
      <trkpt lat="44.29787" lon="5.82246">
        <ele>563</ele>
        <time>2022-10-28T15:10:29Z</time>
      </trkpt>
      <trkpt lat="44.29782" lon="5.82245">
        <ele>563.1</ele>
        <time>2022-10-28T15:10:30Z</time>
      </trkpt>
      <trkpt lat="44.29777" lon="5.82244">
        <ele>563.1</ele>
        <time>2022-10-28T15:10:31Z</time>
      </trkpt>
      <trkpt lat="44.29771" lon="5.82242">
        <ele>563.2</ele>
        <time>2022-10-28T15:10:32Z</time>
      </trkpt>
      <trkpt lat="44.29766" lon="5.82241">
        <ele>563.2</ele>
        <time>2022-10-28T15:10:33Z</time>
      </trkpt>
      <trkpt lat="44.29762" lon="5.8224">
        <ele>563.2</ele>
        <time>2022-10-28T15:10:34Z</time>
      </trkpt>
      <trkpt lat="44.29756" lon="5.82238">
        <ele>563.2</ele>
        <time>2022-10-28T15:10:35Z</time>
      </trkpt>
      <trkpt lat="44.29751" lon="5.82237">
        <ele>563.2</ele>
        <time>2022-10-28T15:10:36Z</time>
      </trkpt>
      <trkpt lat="44.29746" lon="5.82235">
        <ele>563.2</ele>
        <time>2022-10-28T15:10:37Z</time>
      </trkpt>
      <trkpt lat="44.29741" lon="5.82233">
        <ele>563.2</ele>
        <time>2022-10-28T15:10:38Z</time>
      </trkpt>
      <trkpt lat="44.29735" lon="5.82231">
        <ele>563.2</ele>
        <time>2022-10-28T15:10:39Z</time>
      </trkpt>
      <trkpt lat="44.2973" lon="5.82228">
        <ele>563.2</ele>
        <time>2022-10-28T15:10:40Z</time>
      </trkpt>
      <trkpt lat="44.29725" lon="5.82225">
        <ele>563.1</ele>
        <time>2022-10-28T15:10:41Z</time>
      </trkpt>
      <trkpt lat="44.29719" lon="5.82222">
        <ele>563.1</ele>
        <time>2022-10-28T15:10:42Z</time>
      </trkpt>
      <trkpt lat="44.29714" lon="5.82219">
        <ele>563.1</ele>
        <time>2022-10-28T15:10:43Z</time>
      </trkpt>
      <trkpt lat="44.29709" lon="5.82216">
        <ele>563.1</ele>
        <time>2022-10-28T15:10:44Z</time>
      </trkpt>
      <trkpt lat="44.29704" lon="5.82212">
        <ele>563.1</ele>
        <time>2022-10-28T15:10:45Z</time>
      </trkpt>
      <trkpt lat="44.29699" lon="5.82209">
        <ele>563</ele>
        <time>2022-10-28T15:10:46Z</time>
      </trkpt>
      <trkpt lat="44.29694" lon="5.82204">
        <ele>563</ele>
        <time>2022-10-28T15:10:47Z</time>
      </trkpt>
      <trkpt lat="44.29689" lon="5.822">
        <ele>563</ele>
        <time>2022-10-28T15:10:48Z</time>
      </trkpt>
      <trkpt lat="44.29684" lon="5.82196">
        <ele>563</ele>
        <time>2022-10-28T15:10:49Z</time>
      </trkpt>
      <trkpt lat="44.2968" lon="5.82192">
        <ele>562.9</ele>
        <time>2022-10-28T15:10:50Z</time>
      </trkpt>
      <trkpt lat="44.29676" lon="5.82186">
        <ele>562.9</ele>
        <time>2022-10-28T15:10:51Z</time>
      </trkpt>
      <trkpt lat="44.29671" lon="5.82181">
        <ele>562.9</ele>
        <time>2022-10-28T15:10:52Z</time>
      </trkpt>
      <trkpt lat="44.29667" lon="5.82176">
        <ele>562.9</ele>
        <time>2022-10-28T15:10:53Z</time>
      </trkpt>
      <trkpt lat="44.29663" lon="5.82171">
        <ele>563</ele>
        <time>2022-10-28T15:10:54Z</time>
      </trkpt>
      <trkpt lat="44.29658" lon="5.82166">
        <ele>563</ele>
        <time>2022-10-28T15:10:55Z</time>
      </trkpt>
      <trkpt lat="44.29654" lon="5.82161">
        <ele>563</ele>
        <time>2022-10-28T15:10:56Z</time>
      </trkpt>
      <trkpt lat="44.2965" lon="5.82157">
        <ele>563</ele>
        <time>2022-10-28T15:10:57Z</time>
      </trkpt>
      <trkpt lat="44.29645" lon="5.82152">
        <ele>563.1</ele>
        <time>2022-10-28T15:10:58Z</time>
      </trkpt>
      <trkpt lat="44.29641" lon="5.82147">
        <ele>563.2</ele>
        <time>2022-10-28T15:10:59Z</time>
      </trkpt>
      <trkpt lat="44.29636" lon="5.82143">
        <ele>563.2</ele>
        <time>2022-10-28T15:11:00Z</time>
      </trkpt>
      <trkpt lat="44.29632" lon="5.8214">
        <ele>563.3</ele>
        <time>2022-10-28T15:11:01Z</time>
      </trkpt>
      <trkpt lat="44.29628" lon="5.82135">
        <ele>563.4</ele>
        <time>2022-10-28T15:11:02Z</time>
      </trkpt>
      <trkpt lat="44.29623" lon="5.82132">
        <ele>563.5</ele>
        <time>2022-10-28T15:11:03Z</time>
      </trkpt>
      <trkpt lat="44.29618" lon="5.82128">
        <ele>563.6</ele>
        <time>2022-10-28T15:11:04Z</time>
      </trkpt>
      <trkpt lat="44.29614" lon="5.82125">
        <ele>563.7</ele>
        <time>2022-10-28T15:11:05Z</time>
      </trkpt>
      <trkpt lat="44.29609" lon="5.82123">
        <ele>563.8</ele>
        <time>2022-10-28T15:11:06Z</time>
      </trkpt>
      <trkpt lat="44.29605" lon="5.8212">
        <ele>563.9</ele>
        <time>2022-10-28T15:11:07Z</time>
      </trkpt>
      <trkpt lat="44.296" lon="5.82118">
        <ele>564</ele>
        <time>2022-10-28T15:11:08Z</time>
      </trkpt>
      <trkpt lat="44.29596" lon="5.82115">
        <ele>564</ele>
        <time>2022-10-28T15:11:09Z</time>
      </trkpt>
      <trkpt lat="44.29591" lon="5.82113">
        <ele>564.1</ele>
        <time>2022-10-28T15:11:10Z</time>
      </trkpt>
      <trkpt lat="44.29587" lon="5.82111">
        <ele>564.1</ele>
        <time>2022-10-28T15:11:11Z</time>
      </trkpt>
      <trkpt lat="44.29582" lon="5.82109">
        <ele>564.2</ele>
        <time>2022-10-28T15:11:12Z</time>
      </trkpt>
      <trkpt lat="44.29577" lon="5.82107">
        <ele>564.3</ele>
        <time>2022-10-28T15:11:13Z</time>
      </trkpt>
      <trkpt lat="44.29573" lon="5.82106">
        <ele>564.4</ele>
        <time>2022-10-28T15:11:14Z</time>
      </trkpt>
      <trkpt lat="44.29569" lon="5.82104">
        <ele>564.5</ele>
        <time>2022-10-28T15:11:15Z</time>
      </trkpt>
      <trkpt lat="44.29565" lon="5.82104">
        <ele>564.6</ele>
        <time>2022-10-28T15:11:16Z</time>
      </trkpt>
      <trkpt lat="44.2956" lon="5.82103">
        <ele>564.7</ele>
        <time>2022-10-28T15:11:17Z</time>
      </trkpt>
      <trkpt lat="44.29555" lon="5.82102">
        <ele>564.8</ele>
        <time>2022-10-28T15:11:18Z</time>
      </trkpt>
      <trkpt lat="44.29551" lon="5.821">
        <ele>564.9</ele>
        <time>2022-10-28T15:11:19Z</time>
      </trkpt>
      <trkpt lat="44.29546" lon="5.82099">
        <ele>565</ele>
        <time>2022-10-28T15:11:20Z</time>
      </trkpt>
      <trkpt lat="44.29542" lon="5.82099">
        <ele>565</ele>
        <time>2022-10-28T15:11:21Z</time>
      </trkpt>
      <trkpt lat="44.29538" lon="5.82098">
        <ele>565.1</ele>
        <time>2022-10-28T15:11:22Z</time>
      </trkpt>
      <trkpt lat="44.29533" lon="5.82097">
        <ele>565.2</ele>
        <time>2022-10-28T15:11:23Z</time>
      </trkpt>
      <trkpt lat="44.2953" lon="5.82097">
        <ele>565.2</ele>
        <time>2022-10-28T15:11:24Z</time>
      </trkpt>
      <trkpt lat="44.29525" lon="5.82096">
        <ele>565.3</ele>
        <time>2022-10-28T15:11:25Z</time>
      </trkpt>
      <trkpt lat="44.29523" lon="5.82096">
        <ele>565.3</ele>
        <time>2022-10-28T15:11:26Z</time>
      </trkpt>
      <trkpt lat="44.29516" lon="5.82094">
        <ele>565.4</ele>
        <time>2022-10-28T15:11:28Z</time>
      </trkpt>
      <trkpt lat="44.29509" lon="5.82093">
        <ele>565.5</ele>
        <time>2022-10-28T15:11:29Z</time>
      </trkpt>
      <trkpt lat="44.29503" lon="5.82092">
        <ele>565.5</ele>
        <time>2022-10-28T15:11:30Z</time>
      </trkpt>
      <trkpt lat="44.29499" lon="5.82092">
        <ele>565.6</ele>
        <time>2022-10-28T15:11:31Z</time>
      </trkpt>
      <trkpt lat="44.29493" lon="5.82092">
        <ele>565.6</ele>
        <time>2022-10-28T15:11:32Z</time>
      </trkpt>
      <trkpt lat="44.29488" lon="5.82095">
        <ele>565.6</ele>
        <time>2022-10-28T15:11:33Z</time>
      </trkpt>
      <trkpt lat="44.29483" lon="5.82095">
        <ele>565.6</ele>
        <time>2022-10-28T15:11:34Z</time>
      </trkpt>
      <trkpt lat="44.29478" lon="5.82096">
        <ele>565.6</ele>
        <time>2022-10-28T15:11:35Z</time>
      </trkpt>
      <trkpt lat="44.29473" lon="5.82097">
        <ele>565.6</ele>
        <time>2022-10-28T15:11:36Z</time>
      </trkpt>
      <trkpt lat="44.29468" lon="5.82098">
        <ele>565.6</ele>
        <time>2022-10-28T15:11:37Z</time>
      </trkpt>
      <trkpt lat="44.29463" lon="5.82099">
        <ele>565.6</ele>
        <time>2022-10-28T15:11:38Z</time>
      </trkpt>
      <trkpt lat="44.29458" lon="5.82102">
        <ele>565.7</ele>
        <time>2022-10-28T15:11:39Z</time>
      </trkpt>
      <trkpt lat="44.29453" lon="5.82105">
        <ele>565.7</ele>
        <time>2022-10-28T15:11:40Z</time>
      </trkpt>
      <trkpt lat="44.29449" lon="5.82108">
        <ele>565.7</ele>
        <time>2022-10-28T15:11:41Z</time>
      </trkpt>
      <trkpt lat="44.29444" lon="5.82111">
        <ele>565.7</ele>
        <time>2022-10-28T15:11:42Z</time>
      </trkpt>
      <trkpt lat="44.2944" lon="5.82116">
        <ele>565.7</ele>
        <time>2022-10-28T15:11:43Z</time>
      </trkpt>
      <trkpt lat="44.29436" lon="5.8212">
        <ele>565.7</ele>
        <time>2022-10-28T15:11:44Z</time>
      </trkpt>
      <trkpt lat="44.29431" lon="5.82125">
        <ele>565.8</ele>
        <time>2022-10-28T15:11:45Z</time>
      </trkpt>
      <trkpt lat="44.29427" lon="5.82129">
        <ele>565.8</ele>
        <time>2022-10-28T15:11:46Z</time>
      </trkpt>
      <trkpt lat="44.29423" lon="5.82134">
        <ele>565.8</ele>
        <time>2022-10-28T15:11:47Z</time>
      </trkpt>
      <trkpt lat="44.29419" lon="5.82139">
        <ele>565.9</ele>
        <time>2022-10-28T15:11:48Z</time>
      </trkpt>
      <trkpt lat="44.29415" lon="5.82144">
        <ele>565.9</ele>
        <time>2022-10-28T15:11:49Z</time>
      </trkpt>
      <trkpt lat="44.2941" lon="5.82149">
        <ele>566</ele>
        <time>2022-10-28T15:11:50Z</time>
      </trkpt>
      <trkpt lat="44.29406" lon="5.82154">
        <ele>566.1</ele>
        <time>2022-10-28T15:11:51Z</time>
      </trkpt>
      <trkpt lat="44.29402" lon="5.82158">
        <ele>566.2</ele>
        <time>2022-10-28T15:11:52Z</time>
      </trkpt>
      <trkpt lat="44.29399" lon="5.82163">
        <ele>566.3</ele>
        <time>2022-10-28T15:11:53Z</time>
      </trkpt>
      <trkpt lat="44.29395" lon="5.82168">
        <ele>566.4</ele>
        <time>2022-10-28T15:11:54Z</time>
      </trkpt>
      <trkpt lat="44.29391" lon="5.82172">
        <ele>566.4</ele>
        <time>2022-10-28T15:11:55Z</time>
      </trkpt>
      <trkpt lat="44.29386" lon="5.82177">
        <ele>566.5</ele>
        <time>2022-10-28T15:11:56Z</time>
      </trkpt>
      <trkpt lat="44.29382" lon="5.82181">
        <ele>566.6</ele>
        <time>2022-10-28T15:11:57Z</time>
      </trkpt>
      <trkpt lat="44.29379" lon="5.82186">
        <ele>566.7</ele>
        <time>2022-10-28T15:11:58Z</time>
      </trkpt>
      <trkpt lat="44.29375" lon="5.8219">
        <ele>566.7</ele>
        <time>2022-10-28T15:11:59Z</time>
      </trkpt>
      <trkpt lat="44.29371" lon="5.82194">
        <ele>566.8</ele>
        <time>2022-10-28T15:12:00Z</time>
      </trkpt>
      <trkpt lat="44.29367" lon="5.82198">
        <ele>566.8</ele>
        <time>2022-10-28T15:12:01Z</time>
      </trkpt>
      <trkpt lat="44.29363" lon="5.82202">
        <ele>566.9</ele>
        <time>2022-10-28T15:12:02Z</time>
      </trkpt>
      <trkpt lat="44.29359" lon="5.82205">
        <ele>566.9</ele>
        <time>2022-10-28T15:12:03Z</time>
      </trkpt>
      <trkpt lat="44.29355" lon="5.82208">
        <ele>566.9</ele>
        <time>2022-10-28T15:12:04Z</time>
      </trkpt>
      <trkpt lat="44.2935" lon="5.82211">
        <ele>566.9</ele>
        <time>2022-10-28T15:12:05Z</time>
      </trkpt>
      <trkpt lat="44.29346" lon="5.82214">
        <ele>566.8</ele>
        <time>2022-10-28T15:12:06Z</time>
      </trkpt>
      <trkpt lat="44.29342" lon="5.82217">
        <ele>566.8</ele>
        <time>2022-10-28T15:12:07Z</time>
      </trkpt>
      <trkpt lat="44.29337" lon="5.82219">
        <ele>566.7</ele>
        <time>2022-10-28T15:12:08Z</time>
      </trkpt>
      <trkpt lat="44.29332" lon="5.82221">
        <ele>566.7</ele>
        <time>2022-10-28T15:12:09Z</time>
      </trkpt>
      <trkpt lat="44.29327" lon="5.82224">
        <ele>566.6</ele>
        <time>2022-10-28T15:12:10Z</time>
      </trkpt>
      <trkpt lat="44.29322" lon="5.82226">
        <ele>566.6</ele>
        <time>2022-10-28T15:12:11Z</time>
      </trkpt>
      <trkpt lat="44.29317" lon="5.82228">
        <ele>566.5</ele>
        <time>2022-10-28T15:12:12Z</time>
      </trkpt>
      <trkpt lat="44.29312" lon="5.8223">
        <ele>566.4</ele>
        <time>2022-10-28T15:12:13Z</time>
      </trkpt>
      <trkpt lat="44.29306" lon="5.82232">
        <ele>566.4</ele>
        <time>2022-10-28T15:12:14Z</time>
      </trkpt>
      <trkpt lat="44.29301" lon="5.82234">
        <ele>566.3</ele>
        <time>2022-10-28T15:12:15Z</time>
      </trkpt>
      <trkpt lat="44.29295" lon="5.82237">
        <ele>566.2</ele>
        <time>2022-10-28T15:12:16Z</time>
      </trkpt>
      <trkpt lat="44.29289" lon="5.82239">
        <ele>566.2</ele>
        <time>2022-10-28T15:12:17Z</time>
      </trkpt>
      <trkpt lat="44.29283" lon="5.82242">
        <ele>566.2</ele>
        <time>2022-10-28T15:12:18Z</time>
      </trkpt>
      <trkpt lat="44.29277" lon="5.82245">
        <ele>566.1</ele>
        <time>2022-10-28T15:12:19Z</time>
      </trkpt>
      <trkpt lat="44.29271" lon="5.82248">
        <ele>566.1</ele>
        <time>2022-10-28T15:12:20Z</time>
      </trkpt>
      <trkpt lat="44.29265" lon="5.8225">
        <ele>566.1</ele>
        <time>2022-10-28T15:12:21Z</time>
      </trkpt>
      <trkpt lat="44.29259" lon="5.82253">
        <ele>566</ele>
        <time>2022-10-28T15:12:22Z</time>
      </trkpt>
      <trkpt lat="44.29253" lon="5.82255">
        <ele>565.9</ele>
        <time>2022-10-28T15:12:23Z</time>
      </trkpt>
      <trkpt lat="44.29246" lon="5.82257">
        <ele>565.9</ele>
        <time>2022-10-28T15:12:24Z</time>
      </trkpt>
      <trkpt lat="44.29239" lon="5.82258">
        <ele>565.8</ele>
        <time>2022-10-28T15:12:25Z</time>
      </trkpt>
      <trkpt lat="44.29233" lon="5.8226">
        <ele>565.7</ele>
        <time>2022-10-28T15:12:26Z</time>
      </trkpt>
      <trkpt lat="44.29226" lon="5.82261">
        <ele>565.6</ele>
        <time>2022-10-28T15:12:27Z</time>
      </trkpt>
      <trkpt lat="44.2922" lon="5.82262">
        <ele>565.6</ele>
        <time>2022-10-28T15:12:28Z</time>
      </trkpt>
      <trkpt lat="44.29213" lon="5.82263">
        <ele>565.5</ele>
        <time>2022-10-28T15:12:29Z</time>
      </trkpt>
      <trkpt lat="44.29207" lon="5.82263">
        <ele>565.5</ele>
        <time>2022-10-28T15:12:30Z</time>
      </trkpt>
      <trkpt lat="44.292" lon="5.82264">
        <ele>565.5</ele>
        <time>2022-10-28T15:12:31Z</time>
      </trkpt>
      <trkpt lat="44.29193" lon="5.82264">
        <ele>565.5</ele>
        <time>2022-10-28T15:12:32Z</time>
      </trkpt>
      <trkpt lat="44.29187" lon="5.82264">
        <ele>565.5</ele>
        <time>2022-10-28T15:12:33Z</time>
      </trkpt>
      <trkpt lat="44.2918" lon="5.82264">
        <ele>565.4</ele>
        <time>2022-10-28T15:12:34Z</time>
      </trkpt>
      <trkpt lat="44.29174" lon="5.82264">
        <ele>565.4</ele>
        <time>2022-10-28T15:12:35Z</time>
      </trkpt>
      <trkpt lat="44.29168" lon="5.82265">
        <ele>565.4</ele>
        <time>2022-10-28T15:12:36Z</time>
      </trkpt>
      <trkpt lat="44.29162" lon="5.82265">
        <ele>565.4</ele>
        <time>2022-10-28T15:12:37Z</time>
      </trkpt>
      <trkpt lat="44.29155" lon="5.82266">
        <ele>565.4</ele>
        <time>2022-10-28T15:12:38Z</time>
      </trkpt>
      <trkpt lat="44.29149" lon="5.82266">
        <ele>565.4</ele>
        <time>2022-10-28T15:12:39Z</time>
      </trkpt>
      <trkpt lat="44.29143" lon="5.82267">
        <ele>565.3</ele>
        <time>2022-10-28T15:12:40Z</time>
      </trkpt>
      <trkpt lat="44.29137" lon="5.82268">
        <ele>565.3</ele>
        <time>2022-10-28T15:12:41Z</time>
      </trkpt>
      <trkpt lat="44.2913" lon="5.82269">
        <ele>565.3</ele>
        <time>2022-10-28T15:12:42Z</time>
      </trkpt>
      <trkpt lat="44.29124" lon="5.8227">
        <ele>565.2</ele>
        <time>2022-10-28T15:12:43Z</time>
      </trkpt>
      <trkpt lat="44.29118" lon="5.82271">
        <ele>565.2</ele>
        <time>2022-10-28T15:12:44Z</time>
      </trkpt>
      <trkpt lat="44.29112" lon="5.82271">
        <ele>565.2</ele>
        <time>2022-10-28T15:12:45Z</time>
      </trkpt>
      <trkpt lat="44.29106" lon="5.82272">
        <ele>565.2</ele>
        <time>2022-10-28T15:12:46Z</time>
      </trkpt>
      <trkpt lat="44.291" lon="5.82273">
        <ele>565.2</ele>
        <time>2022-10-28T15:12:47Z</time>
      </trkpt>
      <trkpt lat="44.29094" lon="5.82273">
        <ele>565.2</ele>
        <time>2022-10-28T15:12:48Z</time>
      </trkpt>
      <trkpt lat="44.29089" lon="5.82274">
        <ele>565.3</ele>
        <time>2022-10-28T15:12:49Z</time>
      </trkpt>
      <trkpt lat="44.29083" lon="5.82274">
        <ele>565.3</ele>
        <time>2022-10-28T15:12:50Z</time>
      </trkpt>
      <trkpt lat="44.29078" lon="5.82275">
        <ele>565.4</ele>
        <time>2022-10-28T15:12:51Z</time>
      </trkpt>
      <trkpt lat="44.29072" lon="5.82275">
        <ele>565.5</ele>
        <time>2022-10-28T15:12:52Z</time>
      </trkpt>
      <trkpt lat="44.29066" lon="5.82276">
        <ele>565.6</ele>
        <time>2022-10-28T15:12:53Z</time>
      </trkpt>
      <trkpt lat="44.29061" lon="5.82277">
        <ele>565.7</ele>
        <time>2022-10-28T15:12:54Z</time>
      </trkpt>
      <trkpt lat="44.29055" lon="5.82278">
        <ele>565.9</ele>
        <time>2022-10-28T15:12:55Z</time>
      </trkpt>
      <trkpt lat="44.2905" lon="5.82278">
        <ele>566</ele>
        <time>2022-10-28T15:12:56Z</time>
      </trkpt>
      <trkpt lat="44.29046" lon="5.82278">
        <ele>566.2</ele>
        <time>2022-10-28T15:12:57Z</time>
      </trkpt>
      <trkpt lat="44.29041" lon="5.82278">
        <ele>566.4</ele>
        <time>2022-10-28T15:12:58Z</time>
      </trkpt>
      <trkpt lat="44.29036" lon="5.82278">
        <ele>566.5</ele>
        <time>2022-10-28T15:12:59Z</time>
      </trkpt>
      <trkpt lat="44.29032" lon="5.82278">
        <ele>566.6</ele>
        <time>2022-10-28T15:13:00Z</time>
      </trkpt>
      <trkpt lat="44.29028" lon="5.82277">
        <ele>566.8</ele>
        <time>2022-10-28T15:13:01Z</time>
      </trkpt>
      <trkpt lat="44.29024" lon="5.82277">
        <ele>566.9</ele>
        <time>2022-10-28T15:13:02Z</time>
      </trkpt>
      <trkpt lat="44.29021" lon="5.82278">
        <ele>567</ele>
        <time>2022-10-28T15:13:03Z</time>
      </trkpt>
      <trkpt lat="44.29016" lon="5.82278">
        <ele>567.2</ele>
        <time>2022-10-28T15:13:04Z</time>
      </trkpt>
      <trkpt lat="44.29012" lon="5.82278">
        <ele>567.4</ele>
        <time>2022-10-28T15:13:05Z</time>
      </trkpt>
      <trkpt lat="44.29007" lon="5.82279">
        <ele>567.5</ele>
        <time>2022-10-28T15:13:06Z</time>
      </trkpt>
      <trkpt lat="44.29005" lon="5.8228">
        <ele>567.6</ele>
        <time>2022-10-28T15:13:07Z</time>
      </trkpt>
      <trkpt lat="44.29004" lon="5.82281">
        <ele>567.7</ele>
        <time>2022-10-28T15:13:08Z</time>
      </trkpt>
      <trkpt lat="44.28996" lon="5.8228">
        <ele>567.9</ele>
        <time>2022-10-28T15:13:09Z</time>
      </trkpt>
      <trkpt lat="44.28989" lon="5.8228">
        <ele>568.2</ele>
        <time>2022-10-28T15:13:11Z</time>
      </trkpt>
      <trkpt lat="44.28983" lon="5.8228">
        <ele>568.4</ele>
        <time>2022-10-28T15:13:12Z</time>
      </trkpt>
      <trkpt lat="44.28979" lon="5.8228">
        <ele>568.6</ele>
        <time>2022-10-28T15:13:13Z</time>
      </trkpt>
      <trkpt lat="44.28975" lon="5.82281">
        <ele>568.7</ele>
        <time>2022-10-28T15:13:14Z</time>
      </trkpt>
      <trkpt lat="44.28971" lon="5.82281">
        <ele>568.9</ele>
        <time>2022-10-28T15:13:15Z</time>
      </trkpt>
      <trkpt lat="44.28964" lon="5.82282">
        <ele>569.1</ele>
        <time>2022-10-28T15:13:17Z</time>
      </trkpt>
      <trkpt lat="44.2896" lon="5.82282">
        <ele>569.3</ele>
        <time>2022-10-28T15:13:18Z</time>
      </trkpt>
      <trkpt lat="44.28958" lon="5.82283">
        <ele>569.4</ele>
        <time>2022-10-28T15:13:19Z</time>
      </trkpt>
      <trkpt lat="44.28954" lon="5.82283">
        <ele>569.5</ele>
        <time>2022-10-28T15:13:20Z</time>
      </trkpt>
      <trkpt lat="44.28949" lon="5.82283">
        <ele>569.6</ele>
        <time>2022-10-28T15:13:21Z</time>
      </trkpt>
      <trkpt lat="44.28944" lon="5.82283">
        <ele>569.8</ele>
        <time>2022-10-28T15:13:23Z</time>
      </trkpt>
      <trkpt lat="44.28938" lon="5.82283">
        <ele>570</ele>
        <time>2022-10-28T15:13:24Z</time>
      </trkpt>
      <trkpt lat="44.28933" lon="5.82284">
        <ele>570.2</ele>
        <time>2022-10-28T15:13:26Z</time>
      </trkpt>
      <trkpt lat="44.28926" lon="5.82284">
        <ele>570.4</ele>
        <time>2022-10-28T15:13:27Z</time>
      </trkpt>
      <trkpt lat="44.28923" lon="5.82284">
        <ele>570.5</ele>
        <time>2022-10-28T15:13:28Z</time>
      </trkpt>
      <trkpt lat="44.28919" lon="5.82284">
        <ele>570.6</ele>
        <time>2022-10-28T15:13:29Z</time>
      </trkpt>
      <trkpt lat="44.28913" lon="5.82284">
        <ele>570.7</ele>
        <time>2022-10-28T15:13:31Z</time>
      </trkpt>
      <trkpt lat="44.28909" lon="5.82282">
        <ele>570.8</ele>
        <time>2022-10-28T15:13:32Z</time>
      </trkpt>
      <trkpt lat="44.28904" lon="5.82282">
        <ele>570.9</ele>
        <time>2022-10-28T15:13:33Z</time>
      </trkpt>
      <trkpt lat="44.28899" lon="5.8228">
        <ele>571</ele>
        <time>2022-10-28T15:13:34Z</time>
      </trkpt>
      <trkpt lat="44.28896" lon="5.82278">
        <ele>571</ele>
        <time>2022-10-28T15:13:35Z</time>
      </trkpt>
      <trkpt lat="44.28892" lon="5.82276">
        <ele>571.1</ele>
        <time>2022-10-28T15:13:36Z</time>
      </trkpt>
      <trkpt lat="44.28889" lon="5.82275">
        <ele>571.1</ele>
        <time>2022-10-28T15:13:37Z</time>
      </trkpt>
      <trkpt lat="44.28884" lon="5.82271">
        <ele>571.2</ele>
        <time>2022-10-28T15:13:39Z</time>
      </trkpt>
      <trkpt lat="44.28877" lon="5.82267">
        <ele>571.2</ele>
        <time>2022-10-28T15:13:40Z</time>
      </trkpt>
      <trkpt lat="44.28872" lon="5.82262">
        <ele>571.2</ele>
        <time>2022-10-28T15:13:42Z</time>
      </trkpt>
      <trkpt lat="44.28866" lon="5.82257">
        <ele>571.2</ele>
        <time>2022-10-28T15:13:43Z</time>
      </trkpt>
      <trkpt lat="44.28863" lon="5.82252">
        <ele>571.2</ele>
        <time>2022-10-28T15:13:44Z</time>
      </trkpt>
      <trkpt lat="44.28859" lon="5.82248">
        <ele>571.2</ele>
        <time>2022-10-28T15:13:45Z</time>
      </trkpt>
      <trkpt lat="44.28856" lon="5.82243">
        <ele>571.1</ele>
        <time>2022-10-28T15:13:46Z</time>
      </trkpt>
      <trkpt lat="44.28852" lon="5.82239">
        <ele>571.1</ele>
        <time>2022-10-28T15:13:47Z</time>
      </trkpt>
      <trkpt lat="44.28848" lon="5.82236">
        <ele>571.1</ele>
        <time>2022-10-28T15:13:48Z</time>
      </trkpt>
      <trkpt lat="44.28845" lon="5.82232">
        <ele>571</ele>
        <time>2022-10-28T15:13:49Z</time>
      </trkpt>
      <trkpt lat="44.28841" lon="5.82227">
        <ele>571</ele>
        <time>2022-10-28T15:13:50Z</time>
      </trkpt>
      <trkpt lat="44.28837" lon="5.82223">
        <ele>570.9</ele>
        <time>2022-10-28T15:13:51Z</time>
      </trkpt>
      <trkpt lat="44.28834" lon="5.82218">
        <ele>570.8</ele>
        <time>2022-10-28T15:13:52Z</time>
      </trkpt>
      <trkpt lat="44.2883" lon="5.82214">
        <ele>570.7</ele>
        <time>2022-10-28T15:13:53Z</time>
      </trkpt>
      <trkpt lat="44.28826" lon="5.82209">
        <ele>570.6</ele>
        <time>2022-10-28T15:13:54Z</time>
      </trkpt>
      <trkpt lat="44.28821" lon="5.82205">
        <ele>570.5</ele>
        <time>2022-10-28T15:13:55Z</time>
      </trkpt>
      <trkpt lat="44.28817" lon="5.82201">
        <ele>570.4</ele>
        <time>2022-10-28T15:13:56Z</time>
      </trkpt>
      <trkpt lat="44.28812" lon="5.82198">
        <ele>570.2</ele>
        <time>2022-10-28T15:13:57Z</time>
      </trkpt>
      <trkpt lat="44.28807" lon="5.82194">
        <ele>570.1</ele>
        <time>2022-10-28T15:13:58Z</time>
      </trkpt>
      <trkpt lat="44.28802" lon="5.82189">
        <ele>569.9</ele>
        <time>2022-10-28T15:13:59Z</time>
      </trkpt>
      <trkpt lat="44.28797" lon="5.82185">
        <ele>569.8</ele>
        <time>2022-10-28T15:14:00Z</time>
      </trkpt>
      <trkpt lat="44.28791" lon="5.82181">
        <ele>569.6</ele>
        <time>2022-10-28T15:14:01Z</time>
      </trkpt>
      <trkpt lat="44.28786" lon="5.82177">
        <ele>569.4</ele>
        <time>2022-10-28T15:14:02Z</time>
      </trkpt>
      <trkpt lat="44.28779" lon="5.82174">
        <ele>569.2</ele>
        <time>2022-10-28T15:14:03Z</time>
      </trkpt>
      <trkpt lat="44.28773" lon="5.82171">
        <ele>568.9</ele>
        <time>2022-10-28T15:14:04Z</time>
      </trkpt>
      <trkpt lat="44.28766" lon="5.82167">
        <ele>568.6</ele>
        <time>2022-10-28T15:14:05Z</time>
      </trkpt>
      <trkpt lat="44.2876" lon="5.82163">
        <ele>568.3</ele>
        <time>2022-10-28T15:14:06Z</time>
      </trkpt>
      <trkpt lat="44.28753" lon="5.8216">
        <ele>568</ele>
        <time>2022-10-28T15:14:07Z</time>
      </trkpt>
      <trkpt lat="44.28746" lon="5.82156">
        <ele>567.7</ele>
        <time>2022-10-28T15:14:08Z</time>
      </trkpt>
      <trkpt lat="44.28738" lon="5.82152">
        <ele>567.4</ele>
        <time>2022-10-28T15:14:09Z</time>
      </trkpt>
      <trkpt lat="44.2873" lon="5.82148">
        <ele>567</ele>
        <time>2022-10-28T15:14:10Z</time>
      </trkpt>
      <trkpt lat="44.28722" lon="5.82145">
        <ele>566.7</ele>
        <time>2022-10-28T15:14:11Z</time>
      </trkpt>
      <trkpt lat="44.28714" lon="5.82142">
        <ele>566.3</ele>
        <time>2022-10-28T15:14:12Z</time>
      </trkpt>
      <trkpt lat="44.28706" lon="5.82139">
        <ele>565.9</ele>
        <time>2022-10-28T15:14:13Z</time>
      </trkpt>
      <trkpt lat="44.28698" lon="5.82137">
        <ele>565.6</ele>
        <time>2022-10-28T15:14:14Z</time>
      </trkpt>
      <trkpt lat="44.2869" lon="5.82134">
        <ele>565.2</ele>
        <time>2022-10-28T15:14:15Z</time>
      </trkpt>
      <trkpt lat="44.28681" lon="5.82131">
        <ele>564.8</ele>
        <time>2022-10-28T15:14:16Z</time>
      </trkpt>
      <trkpt lat="44.28672" lon="5.82129">
        <ele>564.4</ele>
        <time>2022-10-28T15:14:17Z</time>
      </trkpt>
      <trkpt lat="44.28663" lon="5.82126">
        <ele>564.1</ele>
        <time>2022-10-28T15:14:18Z</time>
      </trkpt>
      <trkpt lat="44.28655" lon="5.82123">
        <ele>563.7</ele>
        <time>2022-10-28T15:14:19Z</time>
      </trkpt>
      <trkpt lat="44.28646" lon="5.82119">
        <ele>563.2</ele>
        <time>2022-10-28T15:14:20Z</time>
      </trkpt>
      <trkpt lat="44.28637" lon="5.82116">
        <ele>562.8</ele>
        <time>2022-10-28T15:14:21Z</time>
      </trkpt>
      <trkpt lat="44.28628" lon="5.82113">
        <ele>562.3</ele>
        <time>2022-10-28T15:14:22Z</time>
      </trkpt>
      <trkpt lat="44.28618" lon="5.8211">
        <ele>561.9</ele>
        <time>2022-10-28T15:14:23Z</time>
      </trkpt>
      <trkpt lat="44.28609" lon="5.82107">
        <ele>561.3</ele>
        <time>2022-10-28T15:14:24Z</time>
      </trkpt>
      <trkpt lat="44.28599" lon="5.82105">
        <ele>560.9</ele>
        <time>2022-10-28T15:14:25Z</time>
      </trkpt>
      <trkpt lat="44.2859" lon="5.82101">
        <ele>560.4</ele>
        <time>2022-10-28T15:14:26Z</time>
      </trkpt>
      <trkpt lat="44.28581" lon="5.82097">
        <ele>560</ele>
        <time>2022-10-28T15:14:27Z</time>
      </trkpt>
      <trkpt lat="44.28572" lon="5.82093">
        <ele>559.6</ele>
        <time>2022-10-28T15:14:28Z</time>
      </trkpt>
      <trkpt lat="44.28563" lon="5.82089">
        <ele>559.1</ele>
        <time>2022-10-28T15:14:29Z</time>
      </trkpt>
      <trkpt lat="44.28553" lon="5.82084">
        <ele>558.7</ele>
        <time>2022-10-28T15:14:30Z</time>
      </trkpt>
      <trkpt lat="44.28544" lon="5.8208">
        <ele>558.3</ele>
        <time>2022-10-28T15:14:31Z</time>
      </trkpt>
      <trkpt lat="44.28535" lon="5.82075">
        <ele>557.9</ele>
        <time>2022-10-28T15:14:32Z</time>
      </trkpt>
      <trkpt lat="44.28526" lon="5.82071">
        <ele>557.6</ele>
        <time>2022-10-28T15:14:33Z</time>
      </trkpt>
      <trkpt lat="44.28517" lon="5.82067">
        <ele>557.2</ele>
        <time>2022-10-28T15:14:34Z</time>
      </trkpt>
      <trkpt lat="44.28508" lon="5.82062">
        <ele>557</ele>
        <time>2022-10-28T15:14:35Z</time>
      </trkpt>
      <trkpt lat="44.28499" lon="5.82057">
        <ele>556.7</ele>
        <time>2022-10-28T15:14:36Z</time>
      </trkpt>
      <trkpt lat="44.28491" lon="5.82053">
        <ele>556.5</ele>
        <time>2022-10-28T15:14:37Z</time>
      </trkpt>
      <trkpt lat="44.28482" lon="5.82049">
        <ele>556.2</ele>
        <time>2022-10-28T15:14:38Z</time>
      </trkpt>
      <trkpt lat="44.28474" lon="5.82045">
        <ele>556</ele>
        <time>2022-10-28T15:14:39Z</time>
      </trkpt>
      <trkpt lat="44.28466" lon="5.82041">
        <ele>555.8</ele>
        <time>2022-10-28T15:14:40Z</time>
      </trkpt>
      <trkpt lat="44.28457" lon="5.82038">
        <ele>555.6</ele>
        <time>2022-10-28T15:14:41Z</time>
      </trkpt>
      <trkpt lat="44.28449" lon="5.82035">
        <ele>555.5</ele>
        <time>2022-10-28T15:14:42Z</time>
      </trkpt>
      <trkpt lat="44.28441" lon="5.82032">
        <ele>555.3</ele>
        <time>2022-10-28T15:14:43Z</time>
      </trkpt>
      <trkpt lat="44.28433" lon="5.8203">
        <ele>555.3</ele>
        <time>2022-10-28T15:14:44Z</time>
      </trkpt>
      <trkpt lat="44.28425" lon="5.82028">
        <ele>555.3</ele>
        <time>2022-10-28T15:14:45Z</time>
      </trkpt>
      <trkpt lat="44.28417" lon="5.82026">
        <ele>555.2</ele>
        <time>2022-10-28T15:14:46Z</time>
      </trkpt>
      <trkpt lat="44.2841" lon="5.82024">
        <ele>555.1</ele>
        <time>2022-10-28T15:14:47Z</time>
      </trkpt>
      <trkpt lat="44.28402" lon="5.82022">
        <ele>555.1</ele>
        <time>2022-10-28T15:14:48Z</time>
      </trkpt>
      <trkpt lat="44.28394" lon="5.82021">
        <ele>555</ele>
        <time>2022-10-28T15:14:49Z</time>
      </trkpt>
      <trkpt lat="44.28386" lon="5.82021">
        <ele>554.9</ele>
        <time>2022-10-28T15:14:50Z</time>
      </trkpt>
      <trkpt lat="44.28379" lon="5.82021">
        <ele>554.9</ele>
        <time>2022-10-28T15:14:51Z</time>
      </trkpt>
      <trkpt lat="44.28371" lon="5.82021">
        <ele>554.9</ele>
        <time>2022-10-28T15:14:52Z</time>
      </trkpt>
      <trkpt lat="44.28363" lon="5.8202">
        <ele>554.8</ele>
        <time>2022-10-28T15:14:53Z</time>
      </trkpt>
      <trkpt lat="44.28356" lon="5.8202">
        <ele>554.8</ele>
        <time>2022-10-28T15:14:54Z</time>
      </trkpt>
      <trkpt lat="44.28349" lon="5.82021">
        <ele>554.7</ele>
        <time>2022-10-28T15:14:55Z</time>
      </trkpt>
      <trkpt lat="44.28341" lon="5.8202">
        <ele>554.7</ele>
        <time>2022-10-28T15:14:56Z</time>
      </trkpt>
      <trkpt lat="44.28333" lon="5.8202">
        <ele>554.6</ele>
        <time>2022-10-28T15:14:57Z</time>
      </trkpt>
      <trkpt lat="44.28325" lon="5.8202">
        <ele>554.6</ele>
        <time>2022-10-28T15:14:58Z</time>
      </trkpt>
      <trkpt lat="44.28318" lon="5.82021">
        <ele>554.6</ele>
        <time>2022-10-28T15:14:59Z</time>
      </trkpt>
      <trkpt lat="44.28312" lon="5.8202">
        <ele>554.5</ele>
        <time>2022-10-28T15:15:00Z</time>
      </trkpt>
      <trkpt lat="44.28305" lon="5.8202">
        <ele>554.4</ele>
        <time>2022-10-28T15:15:01Z</time>
      </trkpt>
      <trkpt lat="44.28299" lon="5.82019">
        <ele>554.4</ele>
        <time>2022-10-28T15:15:02Z</time>
      </trkpt>
      <trkpt lat="44.28293" lon="5.82018">
        <ele>554.3</ele>
        <time>2022-10-28T15:15:03Z</time>
      </trkpt>
      <trkpt lat="44.28285" lon="5.82018">
        <ele>554.2</ele>
        <time>2022-10-28T15:15:04Z</time>
      </trkpt>
      <trkpt lat="44.28278" lon="5.82019">
        <ele>554</ele>
        <time>2022-10-28T15:15:05Z</time>
      </trkpt>
      <trkpt lat="44.28271" lon="5.82019">
        <ele>553.9</ele>
        <time>2022-10-28T15:15:06Z</time>
      </trkpt>
      <trkpt lat="44.28264" lon="5.82019">
        <ele>553.8</ele>
        <time>2022-10-28T15:15:07Z</time>
      </trkpt>
      <trkpt lat="44.28257" lon="5.82018">
        <ele>553.6</ele>
        <time>2022-10-28T15:15:08Z</time>
      </trkpt>
      <trkpt lat="44.28249" lon="5.82017">
        <ele>553.5</ele>
        <time>2022-10-28T15:15:09Z</time>
      </trkpt>
      <trkpt lat="44.28242" lon="5.82015">
        <ele>553.3</ele>
        <time>2022-10-28T15:15:10Z</time>
      </trkpt>
      <trkpt lat="44.28235" lon="5.82012">
        <ele>553.2</ele>
        <time>2022-10-28T15:15:11Z</time>
      </trkpt>
      <trkpt lat="44.28228" lon="5.82009">
        <ele>553</ele>
        <time>2022-10-28T15:15:12Z</time>
      </trkpt>
      <trkpt lat="44.2822" lon="5.82006">
        <ele>552.9</ele>
        <time>2022-10-28T15:15:13Z</time>
      </trkpt>
      <trkpt lat="44.28213" lon="5.82003">
        <ele>552.8</ele>
        <time>2022-10-28T15:15:14Z</time>
      </trkpt>
      <trkpt lat="44.28206" lon="5.81999">
        <ele>552.7</ele>
        <time>2022-10-28T15:15:15Z</time>
      </trkpt>
      <trkpt lat="44.28199" lon="5.81995">
        <ele>552.6</ele>
        <time>2022-10-28T15:15:16Z</time>
      </trkpt>
      <trkpt lat="44.28193" lon="5.8199">
        <ele>552.5</ele>
        <time>2022-10-28T15:15:17Z</time>
      </trkpt>
      <trkpt lat="44.28186" lon="5.81985">
        <ele>552.4</ele>
        <time>2022-10-28T15:15:18Z</time>
      </trkpt>
      <trkpt lat="44.2818" lon="5.8198">
        <ele>552.4</ele>
        <time>2022-10-28T15:15:19Z</time>
      </trkpt>
      <trkpt lat="44.28173" lon="5.81975">
        <ele>552.4</ele>
        <time>2022-10-28T15:15:20Z</time>
      </trkpt>
      <trkpt lat="44.28167" lon="5.8197">
        <ele>552.3</ele>
        <time>2022-10-28T15:15:21Z</time>
      </trkpt>
      <trkpt lat="44.28161" lon="5.81966">
        <ele>552.3</ele>
        <time>2022-10-28T15:15:22Z</time>
      </trkpt>
      <trkpt lat="44.28155" lon="5.81963">
        <ele>552.3</ele>
        <time>2022-10-28T15:15:23Z</time>
      </trkpt>
      <trkpt lat="44.28149" lon="5.81959">
        <ele>552.2</ele>
        <time>2022-10-28T15:15:24Z</time>
      </trkpt>
      <trkpt lat="44.28143" lon="5.81955">
        <ele>552.2</ele>
        <time>2022-10-28T15:15:25Z</time>
      </trkpt>
      <trkpt lat="44.28137" lon="5.81952">
        <ele>552.1</ele>
        <time>2022-10-28T15:15:26Z</time>
      </trkpt>
      <trkpt lat="44.28131" lon="5.81947">
        <ele>552</ele>
        <time>2022-10-28T15:15:27Z</time>
      </trkpt>
      <trkpt lat="44.28125" lon="5.81944">
        <ele>551.9</ele>
        <time>2022-10-28T15:15:28Z</time>
      </trkpt>
      <trkpt lat="44.28118" lon="5.8194">
        <ele>551.8</ele>
        <time>2022-10-28T15:15:29Z</time>
      </trkpt>
      <trkpt lat="44.28112" lon="5.81936">
        <ele>551.7</ele>
        <time>2022-10-28T15:15:30Z</time>
      </trkpt>
      <trkpt lat="44.28106" lon="5.81932">
        <ele>551.7</ele>
        <time>2022-10-28T15:15:31Z</time>
      </trkpt>
      <trkpt lat="44.281" lon="5.81928">
        <ele>551.6</ele>
        <time>2022-10-28T15:15:32Z</time>
      </trkpt>
      <trkpt lat="44.28094" lon="5.81924">
        <ele>551.5</ele>
        <time>2022-10-28T15:15:33Z</time>
      </trkpt>
      <trkpt lat="44.28088" lon="5.8192">
        <ele>551.4</ele>
        <time>2022-10-28T15:15:34Z</time>
      </trkpt>
      <trkpt lat="44.28082" lon="5.81916">
        <ele>551.3</ele>
        <time>2022-10-28T15:15:35Z</time>
      </trkpt>
      <trkpt lat="44.28076" lon="5.81913">
        <ele>551.3</ele>
        <time>2022-10-28T15:15:36Z</time>
      </trkpt>
      <trkpt lat="44.2807" lon="5.81909">
        <ele>551.2</ele>
        <time>2022-10-28T15:15:37Z</time>
      </trkpt>
      <trkpt lat="44.28064" lon="5.81905">
        <ele>551.2</ele>
        <time>2022-10-28T15:15:38Z</time>
      </trkpt>
      <trkpt lat="44.28058" lon="5.81901">
        <ele>551.1</ele>
        <time>2022-10-28T15:15:39Z</time>
      </trkpt>
      <trkpt lat="44.28052" lon="5.81897">
        <ele>551.1</ele>
        <time>2022-10-28T15:15:40Z</time>
      </trkpt>
      <trkpt lat="44.28047" lon="5.81894">
        <ele>551.1</ele>
        <time>2022-10-28T15:15:41Z</time>
      </trkpt>
      <trkpt lat="44.28041" lon="5.8189">
        <ele>551</ele>
        <time>2022-10-28T15:15:42Z</time>
      </trkpt>
      <trkpt lat="44.28035" lon="5.81886">
        <ele>551</ele>
        <time>2022-10-28T15:15:43Z</time>
      </trkpt>
      <trkpt lat="44.28029" lon="5.81882">
        <ele>551</ele>
        <time>2022-10-28T15:15:44Z</time>
      </trkpt>
      <trkpt lat="44.28024" lon="5.81878">
        <ele>551</ele>
        <time>2022-10-28T15:15:45Z</time>
      </trkpt>
      <trkpt lat="44.28018" lon="5.81875">
        <ele>551</ele>
        <time>2022-10-28T15:15:46Z</time>
      </trkpt>
      <trkpt lat="44.28012" lon="5.81871">
        <ele>551</ele>
        <time>2022-10-28T15:15:47Z</time>
      </trkpt>
      <trkpt lat="44.28006" lon="5.81868">
        <ele>551</ele>
        <time>2022-10-28T15:15:48Z</time>
      </trkpt>
      <trkpt lat="44.28001" lon="5.81864">
        <ele>551</ele>
        <time>2022-10-28T15:15:49Z</time>
      </trkpt>
      <trkpt lat="44.27995" lon="5.81861">
        <ele>551</ele>
        <time>2022-10-28T15:15:50Z</time>
      </trkpt>
      <trkpt lat="44.2799" lon="5.81857">
        <ele>551</ele>
        <time>2022-10-28T15:15:51Z</time>
      </trkpt>
      <trkpt lat="44.27984" lon="5.81854">
        <ele>551</ele>
        <time>2022-10-28T15:15:52Z</time>
      </trkpt>
      <trkpt lat="44.27979" lon="5.8185">
        <ele>551</ele>
        <time>2022-10-28T15:15:53Z</time>
      </trkpt>
      <trkpt lat="44.27973" lon="5.81846">
        <ele>551</ele>
        <time>2022-10-28T15:15:54Z</time>
      </trkpt>
      <trkpt lat="44.27968" lon="5.81842">
        <ele>551</ele>
        <time>2022-10-28T15:15:55Z</time>
      </trkpt>
      <trkpt lat="44.27962" lon="5.81839">
        <ele>550.9</ele>
        <time>2022-10-28T15:15:56Z</time>
      </trkpt>
      <trkpt lat="44.27956" lon="5.81835">
        <ele>550.9</ele>
        <time>2022-10-28T15:15:57Z</time>
      </trkpt>
      <trkpt lat="44.27951" lon="5.81832">
        <ele>550.9</ele>
        <time>2022-10-28T15:15:58Z</time>
      </trkpt>
      <trkpt lat="44.27945" lon="5.81829">
        <ele>550.8</ele>
        <time>2022-10-28T15:15:59Z</time>
      </trkpt>
      <trkpt lat="44.27939" lon="5.81825">
        <ele>550.8</ele>
        <time>2022-10-28T15:16:00Z</time>
      </trkpt>
      <trkpt lat="44.27933" lon="5.81822">
        <ele>550.8</ele>
        <time>2022-10-28T15:16:01Z</time>
      </trkpt>
      <trkpt lat="44.27928" lon="5.81818">
        <ele>550.7</ele>
        <time>2022-10-28T15:16:02Z</time>
      </trkpt>
      <trkpt lat="44.27922" lon="5.81815">
        <ele>550.7</ele>
        <time>2022-10-28T15:16:03Z</time>
      </trkpt>
      <trkpt lat="44.27916" lon="5.81812">
        <ele>550.6</ele>
        <time>2022-10-28T15:16:04Z</time>
      </trkpt>
      <trkpt lat="44.27911" lon="5.81809">
        <ele>550.6</ele>
        <time>2022-10-28T15:16:05Z</time>
      </trkpt>
      <trkpt lat="44.27905" lon="5.81805">
        <ele>550.5</ele>
        <time>2022-10-28T15:16:06Z</time>
      </trkpt>
      <trkpt lat="44.279" lon="5.81801">
        <ele>550.4</ele>
        <time>2022-10-28T15:16:07Z</time>
      </trkpt>
      <trkpt lat="44.27894" lon="5.81797">
        <ele>550.4</ele>
        <time>2022-10-28T15:16:08Z</time>
      </trkpt>
      <trkpt lat="44.27888" lon="5.81793">
        <ele>550.3</ele>
        <time>2022-10-28T15:16:09Z</time>
      </trkpt>
      <trkpt lat="44.27882" lon="5.81789">
        <ele>550.2</ele>
        <time>2022-10-28T15:16:10Z</time>
      </trkpt>
      <trkpt lat="44.27877" lon="5.81785">
        <ele>550</ele>
        <time>2022-10-28T15:16:11Z</time>
      </trkpt>
      <trkpt lat="44.27871" lon="5.81782">
        <ele>549.9</ele>
        <time>2022-10-28T15:16:12Z</time>
      </trkpt>
      <trkpt lat="44.27865" lon="5.81778">
        <ele>549.8</ele>
        <time>2022-10-28T15:16:13Z</time>
      </trkpt>
      <trkpt lat="44.27858" lon="5.81774">
        <ele>549.7</ele>
        <time>2022-10-28T15:16:14Z</time>
      </trkpt>
      <trkpt lat="44.27852" lon="5.8177">
        <ele>549.6</ele>
        <time>2022-10-28T15:16:15Z</time>
      </trkpt>
      <trkpt lat="44.27846" lon="5.81766">
        <ele>549.4</ele>
        <time>2022-10-28T15:16:16Z</time>
      </trkpt>
      <trkpt lat="44.2784" lon="5.81762">
        <ele>549.3</ele>
        <time>2022-10-28T15:16:17Z</time>
      </trkpt>
      <trkpt lat="44.27835" lon="5.81758">
        <ele>549.1</ele>
        <time>2022-10-28T15:16:18Z</time>
      </trkpt>
      <trkpt lat="44.27828" lon="5.81754">
        <ele>549</ele>
        <time>2022-10-28T15:16:19Z</time>
      </trkpt>
      <trkpt lat="44.27822" lon="5.8175">
        <ele>548.8</ele>
        <time>2022-10-28T15:16:20Z</time>
      </trkpt>
      <trkpt lat="44.27816" lon="5.81746">
        <ele>548.6</ele>
        <time>2022-10-28T15:16:21Z</time>
      </trkpt>
      <trkpt lat="44.27809" lon="5.81742">
        <ele>548.5</ele>
        <time>2022-10-28T15:16:22Z</time>
      </trkpt>
      <trkpt lat="44.27803" lon="5.81737">
        <ele>548.3</ele>
        <time>2022-10-28T15:16:23Z</time>
      </trkpt>
      <trkpt lat="44.27796" lon="5.81732">
        <ele>548.1</ele>
        <time>2022-10-28T15:16:24Z</time>
      </trkpt>
      <trkpt lat="44.27789" lon="5.81727">
        <ele>547.9</ele>
        <time>2022-10-28T15:16:25Z</time>
      </trkpt>
      <trkpt lat="44.27783" lon="5.81723">
        <ele>547.8</ele>
        <time>2022-10-28T15:16:26Z</time>
      </trkpt>
      <trkpt lat="44.27776" lon="5.81718">
        <ele>547.6</ele>
        <time>2022-10-28T15:16:27Z</time>
      </trkpt>
      <trkpt lat="44.27769" lon="5.81713">
        <ele>547.4</ele>
        <time>2022-10-28T15:16:28Z</time>
      </trkpt>
      <trkpt lat="44.27763" lon="5.81708">
        <ele>547.2</ele>
        <time>2022-10-28T15:16:29Z</time>
      </trkpt>
      <trkpt lat="44.27756" lon="5.81704">
        <ele>547.1</ele>
        <time>2022-10-28T15:16:30Z</time>
      </trkpt>
      <trkpt lat="44.27749" lon="5.81699">
        <ele>547</ele>
        <time>2022-10-28T15:16:31Z</time>
      </trkpt>
      <trkpt lat="44.27742" lon="5.81695">
        <ele>546.9</ele>
        <time>2022-10-28T15:16:32Z</time>
      </trkpt>
      <trkpt lat="44.27735" lon="5.8169">
        <ele>546.8</ele>
        <time>2022-10-28T15:16:33Z</time>
      </trkpt>
      <trkpt lat="44.27729" lon="5.81685">
        <ele>546.7</ele>
        <time>2022-10-28T15:16:34Z</time>
      </trkpt>
      <trkpt lat="44.27722" lon="5.81681">
        <ele>546.6</ele>
        <time>2022-10-28T15:16:35Z</time>
      </trkpt>
      <trkpt lat="44.27715" lon="5.81678">
        <ele>546.5</ele>
        <time>2022-10-28T15:16:36Z</time>
      </trkpt>
      <trkpt lat="44.27708" lon="5.81675">
        <ele>546.3</ele>
        <time>2022-10-28T15:16:37Z</time>
      </trkpt>
      <trkpt lat="44.277" lon="5.81672">
        <ele>546.1</ele>
        <time>2022-10-28T15:16:38Z</time>
      </trkpt>
      <trkpt lat="44.27693" lon="5.81671">
        <ele>545.9</ele>
        <time>2022-10-28T15:16:39Z</time>
      </trkpt>
      <trkpt lat="44.27684" lon="5.81672">
        <ele>545.6</ele>
        <time>2022-10-28T15:16:40Z</time>
      </trkpt>
      <trkpt lat="44.27677" lon="5.81671">
        <ele>545.4</ele>
        <time>2022-10-28T15:16:41Z</time>
      </trkpt>
      <trkpt lat="44.27669" lon="5.81672">
        <ele>545.2</ele>
        <time>2022-10-28T15:16:42Z</time>
      </trkpt>
      <trkpt lat="44.27661" lon="5.81673">
        <ele>545.1</ele>
        <time>2022-10-28T15:16:43Z</time>
      </trkpt>
      <trkpt lat="44.27653" lon="5.81675">
        <ele>544.9</ele>
        <time>2022-10-28T15:16:44Z</time>
      </trkpt>
      <trkpt lat="44.27646" lon="5.81678">
        <ele>544.7</ele>
        <time>2022-10-28T15:16:45Z</time>
      </trkpt>
      <trkpt lat="44.27638" lon="5.81681">
        <ele>544.6</ele>
        <time>2022-10-28T15:16:46Z</time>
      </trkpt>
      <trkpt lat="44.27631" lon="5.81683">
        <ele>544.4</ele>
        <time>2022-10-28T15:16:47Z</time>
      </trkpt>
      <trkpt lat="44.27624" lon="5.81686">
        <ele>544.3</ele>
        <time>2022-10-28T15:16:48Z</time>
      </trkpt>
      <trkpt lat="44.27617" lon="5.81689">
        <ele>544.2</ele>
        <time>2022-10-28T15:16:49Z</time>
      </trkpt>
      <trkpt lat="44.2761" lon="5.81692">
        <ele>544.1</ele>
        <time>2022-10-28T15:16:50Z</time>
      </trkpt>
      <trkpt lat="44.27604" lon="5.81696">
        <ele>544</ele>
        <time>2022-10-28T15:16:51Z</time>
      </trkpt>
      <trkpt lat="44.27597" lon="5.81698">
        <ele>543.9</ele>
        <time>2022-10-28T15:16:52Z</time>
      </trkpt>
      <trkpt lat="44.27591" lon="5.81699">
        <ele>543.8</ele>
        <time>2022-10-28T15:16:53Z</time>
      </trkpt>
      <trkpt lat="44.27586" lon="5.81701">
        <ele>543.8</ele>
        <time>2022-10-28T15:16:54Z</time>
      </trkpt>
      <trkpt lat="44.27583" lon="5.81702">
        <ele>543.7</ele>
        <time>2022-10-28T15:16:55Z</time>
      </trkpt>
      <trkpt lat="44.27581" lon="5.81703">
        <ele>543.7</ele>
        <time>2022-10-28T15:16:56Z</time>
      </trkpt>
      <trkpt lat="44.2758" lon="5.81703">
        <ele>543.6</ele>
        <time>2022-10-28T15:16:57Z</time>
      </trkpt>
      <trkpt lat="44.27579" lon="5.81704">
        <ele>543.6</ele>
        <time>2022-10-28T15:16:58Z</time>
      </trkpt>
      <trkpt lat="44.27579" lon="5.81704">
        <ele>543.6</ele>
        <time>2022-10-28T15:16:59Z</time>
      </trkpt>
      <trkpt lat="44.27578" lon="5.81704">
        <ele>543.6</ele>
        <time>2022-10-28T15:17:00Z</time>
      </trkpt>
      <trkpt lat="44.27578" lon="5.81704">
        <ele>543.6</ele>
        <time>2022-10-28T15:17:01Z</time>
      </trkpt>
      <trkpt lat="44.27578" lon="5.81704">
        <ele>543.6</ele>
        <time>2022-10-28T15:17:02Z</time>
      </trkpt>
      <trkpt lat="44.27577" lon="5.81705">
        <ele>543.6</ele>
        <time>2022-10-28T15:17:03Z</time>
      </trkpt>
      <trkpt lat="44.27577" lon="5.81705">
        <ele>543.6</ele>
        <time>2022-10-28T15:17:04Z</time>
      </trkpt>
      <trkpt lat="44.27576" lon="5.81705">
        <ele>543.6</ele>
        <time>2022-10-28T15:17:05Z</time>
      </trkpt>
      <trkpt lat="44.27576" lon="5.81705">
        <ele>543.6</ele>
        <time>2022-10-28T15:17:06Z</time>
      </trkpt>
      <trkpt lat="44.27576" lon="5.81706">
        <ele>543.6</ele>
        <time>2022-10-28T15:17:07Z</time>
      </trkpt>
      <trkpt lat="44.27575" lon="5.81706">
        <ele>543.6</ele>
        <time>2022-10-28T15:17:08Z</time>
      </trkpt>
      <trkpt lat="44.27575" lon="5.81706">
        <ele>543.5</ele>
        <time>2022-10-28T15:17:09Z</time>
      </trkpt>
      <trkpt lat="44.27574" lon="5.81706">
        <ele>543.5</ele>
        <time>2022-10-28T15:17:10Z</time>
      </trkpt>
      <trkpt lat="44.27574" lon="5.81706">
        <ele>543.5</ele>
        <time>2022-10-28T15:18:21Z</time>
      </trkpt>
      <trkpt lat="44.27574" lon="5.81707">
        <ele>543.5</ele>
        <time>2022-10-28T15:18:22Z</time>
      </trkpt>
      <trkpt lat="44.27573" lon="5.81707">
        <ele>543.5</ele>
        <time>2022-10-28T15:18:23Z</time>
      </trkpt>
      <trkpt lat="44.27569" lon="5.81709">
        <ele>543.4</ele>
        <time>2022-10-28T15:18:24Z</time>
      </trkpt>
      <trkpt lat="44.27568" lon="5.8171">
        <ele>543.4</ele>
        <time>2022-10-28T15:18:25Z</time>
      </trkpt>
      <trkpt lat="44.27565" lon="5.81712">
        <ele>543.3</ele>
        <time>2022-10-28T15:18:26Z</time>
      </trkpt>
      <trkpt lat="44.27562" lon="5.81714">
        <ele>543.3</ele>
        <time>2022-10-28T15:18:28Z</time>
      </trkpt>
      <trkpt lat="44.27559" lon="5.81717">
        <ele>543.2</ele>
        <time>2022-10-28T15:18:29Z</time>
      </trkpt>
      <trkpt lat="44.27552" lon="5.81719">
        <ele>543</ele>
        <time>2022-10-28T15:18:30Z</time>
      </trkpt>
      <trkpt lat="44.27542" lon="5.81722">
        <ele>542.8</ele>
        <time>2022-10-28T15:18:31Z</time>
      </trkpt>
      <trkpt lat="44.27536" lon="5.81724">
        <ele>542.7</ele>
        <time>2022-10-28T15:18:32Z</time>
      </trkpt>
      <trkpt lat="44.27531" lon="5.81726">
        <ele>542.6</ele>
        <time>2022-10-28T15:18:33Z</time>
      </trkpt>
      <trkpt lat="44.27525" lon="5.81728">
        <ele>542.4</ele>
        <time>2022-10-28T15:18:34Z</time>
      </trkpt>
      <trkpt lat="44.27519" lon="5.8173">
        <ele>542.3</ele>
        <time>2022-10-28T15:18:35Z</time>
      </trkpt>
      <trkpt lat="44.27513" lon="5.81733">
        <ele>542.1</ele>
        <time>2022-10-28T15:18:36Z</time>
      </trkpt>
      <trkpt lat="44.27507" lon="5.81735">
        <ele>542</ele>
        <time>2022-10-28T15:18:37Z</time>
      </trkpt>
      <trkpt lat="44.27501" lon="5.81738">
        <ele>541.9</ele>
        <time>2022-10-28T15:18:38Z</time>
      </trkpt>
      <trkpt lat="44.27495" lon="5.8174">
        <ele>541.7</ele>
        <time>2022-10-28T15:18:39Z</time>
      </trkpt>
      <trkpt lat="44.27488" lon="5.81742">
        <ele>541.6</ele>
        <time>2022-10-28T15:18:40Z</time>
      </trkpt>
      <trkpt lat="44.27482" lon="5.81745">
        <ele>541.4</ele>
        <time>2022-10-28T15:18:41Z</time>
      </trkpt>
      <trkpt lat="44.27475" lon="5.81747">
        <ele>541.3</ele>
        <time>2022-10-28T15:18:42Z</time>
      </trkpt>
      <trkpt lat="44.27469" lon="5.81749">
        <ele>541.2</ele>
        <time>2022-10-28T15:18:43Z</time>
      </trkpt>
      <trkpt lat="44.27463" lon="5.81752">
        <ele>541</ele>
        <time>2022-10-28T15:18:44Z</time>
      </trkpt>
      <trkpt lat="44.27457" lon="5.81754">
        <ele>540.9</ele>
        <time>2022-10-28T15:18:45Z</time>
      </trkpt>
      <trkpt lat="44.2745" lon="5.81757">
        <ele>540.7</ele>
        <time>2022-10-28T15:18:46Z</time>
      </trkpt>
      <trkpt lat="44.27444" lon="5.8176">
        <ele>540.6</ele>
        <time>2022-10-28T15:18:47Z</time>
      </trkpt>
      <trkpt lat="44.27438" lon="5.81762">
        <ele>540.4</ele>
        <time>2022-10-28T15:18:48Z</time>
      </trkpt>
      <trkpt lat="44.27431" lon="5.81765">
        <ele>540.3</ele>
        <time>2022-10-28T15:18:49Z</time>
      </trkpt>
      <trkpt lat="44.27425" lon="5.81768">
        <ele>540.2</ele>
        <time>2022-10-28T15:18:50Z</time>
      </trkpt>
      <trkpt lat="44.27418" lon="5.8177">
        <ele>540</ele>
        <time>2022-10-28T15:18:51Z</time>
      </trkpt>
      <trkpt lat="44.27412" lon="5.81773">
        <ele>539.9</ele>
        <time>2022-10-28T15:18:52Z</time>
      </trkpt>
      <trkpt lat="44.27405" lon="5.81775">
        <ele>539.8</ele>
        <time>2022-10-28T15:18:53Z</time>
      </trkpt>
      <trkpt lat="44.27398" lon="5.81778">
        <ele>539.7</ele>
        <time>2022-10-28T15:18:54Z</time>
      </trkpt>
      <trkpt lat="44.27392" lon="5.8178">
        <ele>539.6</ele>
        <time>2022-10-28T15:18:55Z</time>
      </trkpt>
      <trkpt lat="44.27385" lon="5.81783">
        <ele>539.5</ele>
        <time>2022-10-28T15:18:56Z</time>
      </trkpt>
      <trkpt lat="44.27379" lon="5.81785">
        <ele>539.4</ele>
        <time>2022-10-28T15:18:57Z</time>
      </trkpt>
      <trkpt lat="44.27372" lon="5.81788">
        <ele>539.3</ele>
        <time>2022-10-28T15:18:58Z</time>
      </trkpt>
      <trkpt lat="44.27366" lon="5.81791">
        <ele>539.3</ele>
        <time>2022-10-28T15:18:59Z</time>
      </trkpt>
      <trkpt lat="44.27359" lon="5.81793">
        <ele>539.2</ele>
        <time>2022-10-28T15:19:00Z</time>
      </trkpt>
      <trkpt lat="44.27353" lon="5.81796">
        <ele>539.1</ele>
        <time>2022-10-28T15:19:01Z</time>
      </trkpt>
      <trkpt lat="44.27347" lon="5.81799">
        <ele>539</ele>
        <time>2022-10-28T15:19:02Z</time>
      </trkpt>
      <trkpt lat="44.2734" lon="5.81801">
        <ele>538.9</ele>
        <time>2022-10-28T15:19:03Z</time>
      </trkpt>
      <trkpt lat="44.27334" lon="5.81804">
        <ele>538.9</ele>
        <time>2022-10-28T15:19:04Z</time>
      </trkpt>
      <trkpt lat="44.27327" lon="5.81806">
        <ele>538.8</ele>
        <time>2022-10-28T15:19:05Z</time>
      </trkpt>
      <trkpt lat="44.27321" lon="5.81809">
        <ele>538.7</ele>
        <time>2022-10-28T15:19:06Z</time>
      </trkpt>
      <trkpt lat="44.27314" lon="5.81811">
        <ele>538.7</ele>
        <time>2022-10-28T15:19:07Z</time>
      </trkpt>
      <trkpt lat="44.27308" lon="5.81814">
        <ele>538.6</ele>
        <time>2022-10-28T15:19:08Z</time>
      </trkpt>
      <trkpt lat="44.27301" lon="5.81816">
        <ele>538.5</ele>
        <time>2022-10-28T15:19:09Z</time>
      </trkpt>
      <trkpt lat="44.27295" lon="5.81819">
        <ele>538.5</ele>
        <time>2022-10-28T15:19:10Z</time>
      </trkpt>
      <trkpt lat="44.27289" lon="5.81821">
        <ele>538.4</ele>
        <time>2022-10-28T15:19:11Z</time>
      </trkpt>
      <trkpt lat="44.27283" lon="5.81824">
        <ele>538.3</ele>
        <time>2022-10-28T15:19:12Z</time>
      </trkpt>
      <trkpt lat="44.27277" lon="5.81826">
        <ele>538.3</ele>
        <time>2022-10-28T15:19:13Z</time>
      </trkpt>
      <trkpt lat="44.2727" lon="5.81829">
        <ele>538.2</ele>
        <time>2022-10-28T15:19:14Z</time>
      </trkpt>
      <trkpt lat="44.27264" lon="5.81831">
        <ele>538.1</ele>
        <time>2022-10-28T15:19:15Z</time>
      </trkpt>
      <trkpt lat="44.27258" lon="5.81834">
        <ele>538.1</ele>
        <time>2022-10-28T15:19:16Z</time>
      </trkpt>
      <trkpt lat="44.27252" lon="5.81836">
        <ele>538</ele>
        <time>2022-10-28T15:19:17Z</time>
      </trkpt>
      <trkpt lat="44.27245" lon="5.81839">
        <ele>538</ele>
        <time>2022-10-28T15:19:18Z</time>
      </trkpt>
      <trkpt lat="44.27239" lon="5.81841">
        <ele>537.9</ele>
        <time>2022-10-28T15:19:19Z</time>
      </trkpt>
      <trkpt lat="44.27233" lon="5.81843">
        <ele>537.9</ele>
        <time>2022-10-28T15:19:20Z</time>
      </trkpt>
      <trkpt lat="44.27227" lon="5.81846">
        <ele>537.8</ele>
        <time>2022-10-28T15:19:21Z</time>
      </trkpt>
      <trkpt lat="44.27221" lon="5.81848">
        <ele>537.8</ele>
        <time>2022-10-28T15:19:22Z</time>
      </trkpt>
      <trkpt lat="44.27214" lon="5.8185">
        <ele>537.7</ele>
        <time>2022-10-28T15:19:23Z</time>
      </trkpt>
      <trkpt lat="44.27208" lon="5.81852">
        <ele>537.7</ele>
        <time>2022-10-28T15:19:24Z</time>
      </trkpt>
      <trkpt lat="44.27202" lon="5.81854">
        <ele>537.7</ele>
        <time>2022-10-28T15:19:25Z</time>
      </trkpt>
      <trkpt lat="44.27196" lon="5.81856">
        <ele>537.6</ele>
        <time>2022-10-28T15:19:26Z</time>
      </trkpt>
      <trkpt lat="44.27189" lon="5.81858">
        <ele>537.6</ele>
        <time>2022-10-28T15:19:27Z</time>
      </trkpt>
      <trkpt lat="44.27184" lon="5.81861">
        <ele>537.6</ele>
        <time>2022-10-28T15:19:28Z</time>
      </trkpt>
      <trkpt lat="44.27178" lon="5.81863">
        <ele>537.5</ele>
        <time>2022-10-28T15:19:29Z</time>
      </trkpt>
      <trkpt lat="44.27172" lon="5.81866">
        <ele>537.5</ele>
        <time>2022-10-28T15:19:30Z</time>
      </trkpt>
      <trkpt lat="44.27166" lon="5.81868">
        <ele>537.4</ele>
        <time>2022-10-28T15:19:31Z</time>
      </trkpt>
      <trkpt lat="44.2716" lon="5.8187">
        <ele>537.4</ele>
        <time>2022-10-28T15:19:32Z</time>
      </trkpt>
      <trkpt lat="44.27155" lon="5.81873">
        <ele>537.3</ele>
        <time>2022-10-28T15:19:33Z</time>
      </trkpt>
      <trkpt lat="44.27149" lon="5.81876">
        <ele>537.3</ele>
        <time>2022-10-28T15:19:34Z</time>
      </trkpt>
      <trkpt lat="44.27143" lon="5.81878">
        <ele>537.2</ele>
        <time>2022-10-28T15:19:35Z</time>
      </trkpt>
      <trkpt lat="44.27137" lon="5.8188">
        <ele>537.2</ele>
        <time>2022-10-28T15:19:36Z</time>
      </trkpt>
      <trkpt lat="44.27131" lon="5.81883">
        <ele>537.1</ele>
        <time>2022-10-28T15:19:37Z</time>
      </trkpt>
      <trkpt lat="44.27125" lon="5.81885">
        <ele>537.1</ele>
        <time>2022-10-28T15:19:38Z</time>
      </trkpt>
      <trkpt lat="44.27119" lon="5.81887">
        <ele>537</ele>
        <time>2022-10-28T15:19:39Z</time>
      </trkpt>
      <trkpt lat="44.27113" lon="5.81889">
        <ele>536.9</ele>
        <time>2022-10-28T15:19:40Z</time>
      </trkpt>
      <trkpt lat="44.27107" lon="5.81892">
        <ele>536.8</ele>
        <time>2022-10-28T15:19:41Z</time>
      </trkpt>
      <trkpt lat="44.27101" lon="5.81894">
        <ele>536.8</ele>
        <time>2022-10-28T15:19:42Z</time>
      </trkpt>
      <trkpt lat="44.27095" lon="5.81897">
        <ele>536.7</ele>
        <time>2022-10-28T15:19:43Z</time>
      </trkpt>
      <trkpt lat="44.27089" lon="5.81899">
        <ele>536.6</ele>
        <time>2022-10-28T15:19:44Z</time>
      </trkpt>
      <trkpt lat="44.27084" lon="5.81901">
        <ele>536.6</ele>
        <time>2022-10-28T15:19:45Z</time>
      </trkpt>
      <trkpt lat="44.27078" lon="5.81904">
        <ele>536.5</ele>
        <time>2022-10-28T15:19:46Z</time>
      </trkpt>
      <trkpt lat="44.27072" lon="5.81906">
        <ele>536.5</ele>
        <time>2022-10-28T15:19:47Z</time>
      </trkpt>
      <trkpt lat="44.27066" lon="5.81908">
        <ele>536.4</ele>
        <time>2022-10-28T15:19:48Z</time>
      </trkpt>
      <trkpt lat="44.2706" lon="5.81911">
        <ele>536.3</ele>
        <time>2022-10-28T15:19:49Z</time>
      </trkpt>
      <trkpt lat="44.27054" lon="5.81913">
        <ele>536.3</ele>
        <time>2022-10-28T15:19:50Z</time>
      </trkpt>
      <trkpt lat="44.27048" lon="5.81915">
        <ele>536.2</ele>
        <time>2022-10-28T15:19:51Z</time>
      </trkpt>
      <trkpt lat="44.27042" lon="5.81917">
        <ele>536.2</ele>
        <time>2022-10-28T15:19:52Z</time>
      </trkpt>
      <trkpt lat="44.27036" lon="5.8192">
        <ele>536.1</ele>
        <time>2022-10-28T15:19:53Z</time>
      </trkpt>
      <trkpt lat="44.2703" lon="5.81922">
        <ele>536</ele>
        <time>2022-10-28T15:19:54Z</time>
      </trkpt>
      <trkpt lat="44.27024" lon="5.81925">
        <ele>536</ele>
        <time>2022-10-28T15:19:55Z</time>
      </trkpt>
      <trkpt lat="44.27018" lon="5.81927">
        <ele>535.9</ele>
        <time>2022-10-28T15:19:56Z</time>
      </trkpt>
      <trkpt lat="44.27011" lon="5.81929">
        <ele>535.8</ele>
        <time>2022-10-28T15:19:57Z</time>
      </trkpt>
      <trkpt lat="44.27005" lon="5.81932">
        <ele>535.8</ele>
        <time>2022-10-28T15:19:58Z</time>
      </trkpt>
      <trkpt lat="44.26999" lon="5.81934">
        <ele>535.7</ele>
        <time>2022-10-28T15:19:59Z</time>
      </trkpt>
      <trkpt lat="44.26993" lon="5.81936">
        <ele>535.6</ele>
        <time>2022-10-28T15:20:00Z</time>
      </trkpt>
      <trkpt lat="44.26987" lon="5.81939">
        <ele>535.6</ele>
        <time>2022-10-28T15:20:01Z</time>
      </trkpt>
      <trkpt lat="44.2698" lon="5.81941">
        <ele>535.5</ele>
        <time>2022-10-28T15:20:02Z</time>
      </trkpt>
      <trkpt lat="44.26974" lon="5.81944">
        <ele>535.4</ele>
        <time>2022-10-28T15:20:03Z</time>
      </trkpt>
      <trkpt lat="44.26968" lon="5.81946">
        <ele>535.3</ele>
        <time>2022-10-28T15:20:04Z</time>
      </trkpt>
      <trkpt lat="44.26962" lon="5.81948">
        <ele>535.2</ele>
        <time>2022-10-28T15:20:05Z</time>
      </trkpt>
      <trkpt lat="44.26956" lon="5.81951">
        <ele>535.2</ele>
        <time>2022-10-28T15:20:06Z</time>
      </trkpt>
      <trkpt lat="44.2695" lon="5.81953">
        <ele>535.1</ele>
        <time>2022-10-28T15:20:07Z</time>
      </trkpt>
      <trkpt lat="44.26943" lon="5.81955">
        <ele>535</ele>
        <time>2022-10-28T15:20:08Z</time>
      </trkpt>
      <trkpt lat="44.26937" lon="5.81957">
        <ele>535</ele>
        <time>2022-10-28T15:20:09Z</time>
      </trkpt>
      <trkpt lat="44.2693" lon="5.8196">
        <ele>534.9</ele>
        <time>2022-10-28T15:20:10Z</time>
      </trkpt>
      <trkpt lat="44.26924" lon="5.81962">
        <ele>534.8</ele>
        <time>2022-10-28T15:20:11Z</time>
      </trkpt>
      <trkpt lat="44.26918" lon="5.81965">
        <ele>534.7</ele>
        <time>2022-10-28T15:20:12Z</time>
      </trkpt>
      <trkpt lat="44.26911" lon="5.81967">
        <ele>534.7</ele>
        <time>2022-10-28T15:20:13Z</time>
      </trkpt>
      <trkpt lat="44.26905" lon="5.8197">
        <ele>534.6</ele>
        <time>2022-10-28T15:20:14Z</time>
      </trkpt>
      <trkpt lat="44.26899" lon="5.81973">
        <ele>534.6</ele>
        <time>2022-10-28T15:20:15Z</time>
      </trkpt>
      <trkpt lat="44.26893" lon="5.81975">
        <ele>534.5</ele>
        <time>2022-10-28T15:20:16Z</time>
      </trkpt>
      <trkpt lat="44.26886" lon="5.81977">
        <ele>534.4</ele>
        <time>2022-10-28T15:20:17Z</time>
      </trkpt>
      <trkpt lat="44.2688" lon="5.8198">
        <ele>534.4</ele>
        <time>2022-10-28T15:20:18Z</time>
      </trkpt>
      <trkpt lat="44.26874" lon="5.81982">
        <ele>534.3</ele>
        <time>2022-10-28T15:20:19Z</time>
      </trkpt>
      <trkpt lat="44.26868" lon="5.81985">
        <ele>534.3</ele>
        <time>2022-10-28T15:20:20Z</time>
      </trkpt>
      <trkpt lat="44.26862" lon="5.81987">
        <ele>534.3</ele>
        <time>2022-10-28T15:20:21Z</time>
      </trkpt>
      <trkpt lat="44.26855" lon="5.81989">
        <ele>534.2</ele>
        <time>2022-10-28T15:20:22Z</time>
      </trkpt>
      <trkpt lat="44.26849" lon="5.81991">
        <ele>534.2</ele>
        <time>2022-10-28T15:20:23Z</time>
      </trkpt>
      <trkpt lat="44.26843" lon="5.81994">
        <ele>534.1</ele>
        <time>2022-10-28T15:20:24Z</time>
      </trkpt>
      <trkpt lat="44.26837" lon="5.81996">
        <ele>534.1</ele>
        <time>2022-10-28T15:20:25Z</time>
      </trkpt>
      <trkpt lat="44.26831" lon="5.81999">
        <ele>534</ele>
        <time>2022-10-28T15:20:26Z</time>
      </trkpt>
      <trkpt lat="44.26825" lon="5.82002">
        <ele>533.9</ele>
        <time>2022-10-28T15:20:27Z</time>
      </trkpt>
      <trkpt lat="44.26819" lon="5.82004">
        <ele>533.9</ele>
        <time>2022-10-28T15:20:28Z</time>
      </trkpt>
      <trkpt lat="44.26813" lon="5.82007">
        <ele>533.8</ele>
        <time>2022-10-28T15:20:29Z</time>
      </trkpt>
      <trkpt lat="44.26807" lon="5.82009">
        <ele>533.8</ele>
        <time>2022-10-28T15:20:30Z</time>
      </trkpt>
      <trkpt lat="44.26801" lon="5.82012">
        <ele>533.7</ele>
        <time>2022-10-28T15:20:31Z</time>
      </trkpt>
      <trkpt lat="44.26795" lon="5.82015">
        <ele>533.7</ele>
        <time>2022-10-28T15:20:32Z</time>
      </trkpt>
      <trkpt lat="44.26789" lon="5.82018">
        <ele>533.7</ele>
        <time>2022-10-28T15:20:33Z</time>
      </trkpt>
      <trkpt lat="44.26783" lon="5.82019">
        <ele>533.6</ele>
        <time>2022-10-28T15:20:34Z</time>
      </trkpt>
      <trkpt lat="44.26777" lon="5.82021">
        <ele>533.5</ele>
        <time>2022-10-28T15:20:35Z</time>
      </trkpt>
      <trkpt lat="44.26771" lon="5.82024">
        <ele>533.5</ele>
        <time>2022-10-28T15:20:36Z</time>
      </trkpt>
      <trkpt lat="44.26765" lon="5.82026">
        <ele>533.4</ele>
        <time>2022-10-28T15:20:37Z</time>
      </trkpt>
      <trkpt lat="44.26759" lon="5.82028">
        <ele>533.3</ele>
        <time>2022-10-28T15:20:38Z</time>
      </trkpt>
      <trkpt lat="44.26753" lon="5.82031">
        <ele>533.3</ele>
        <time>2022-10-28T15:20:39Z</time>
      </trkpt>
      <trkpt lat="44.26747" lon="5.82033">
        <ele>533.2</ele>
        <time>2022-10-28T15:20:40Z</time>
      </trkpt>
      <trkpt lat="44.2674" lon="5.82036">
        <ele>533.1</ele>
        <time>2022-10-28T15:20:41Z</time>
      </trkpt>
      <trkpt lat="44.26734" lon="5.82038">
        <ele>533.1</ele>
        <time>2022-10-28T15:20:42Z</time>
      </trkpt>
      <trkpt lat="44.26728" lon="5.8204">
        <ele>533</ele>
        <time>2022-10-28T15:20:43Z</time>
      </trkpt>
      <trkpt lat="44.26722" lon="5.82043">
        <ele>533</ele>
        <time>2022-10-28T15:20:44Z</time>
      </trkpt>
      <trkpt lat="44.26715" lon="5.82045">
        <ele>532.9</ele>
        <time>2022-10-28T15:20:45Z</time>
      </trkpt>
      <trkpt lat="44.26709" lon="5.82048">
        <ele>532.9</ele>
        <time>2022-10-28T15:20:46Z</time>
      </trkpt>
      <trkpt lat="44.26703" lon="5.8205">
        <ele>532.8</ele>
        <time>2022-10-28T15:20:47Z</time>
      </trkpt>
      <trkpt lat="44.26696" lon="5.82053">
        <ele>532.8</ele>
        <time>2022-10-28T15:20:48Z</time>
      </trkpt>
      <trkpt lat="44.2669" lon="5.82055">
        <ele>532.7</ele>
        <time>2022-10-28T15:20:49Z</time>
      </trkpt>
      <trkpt lat="44.26683" lon="5.82058">
        <ele>532.6</ele>
        <time>2022-10-28T15:20:50Z</time>
      </trkpt>
      <trkpt lat="44.26677" lon="5.8206">
        <ele>532.5</ele>
        <time>2022-10-28T15:20:51Z</time>
      </trkpt>
      <trkpt lat="44.2667" lon="5.82063">
        <ele>532.4</ele>
        <time>2022-10-28T15:20:52Z</time>
      </trkpt>
      <trkpt lat="44.26664" lon="5.82065">
        <ele>532.4</ele>
        <time>2022-10-28T15:20:53Z</time>
      </trkpt>
      <trkpt lat="44.26657" lon="5.82067">
        <ele>532.3</ele>
        <time>2022-10-28T15:20:54Z</time>
      </trkpt>
      <trkpt lat="44.26651" lon="5.8207">
        <ele>532.2</ele>
        <time>2022-10-28T15:20:55Z</time>
      </trkpt>
      <trkpt lat="44.26644" lon="5.82072">
        <ele>532.1</ele>
        <time>2022-10-28T15:20:56Z</time>
      </trkpt>
      <trkpt lat="44.26638" lon="5.82075">
        <ele>532</ele>
        <time>2022-10-28T15:20:57Z</time>
      </trkpt>
      <trkpt lat="44.26631" lon="5.82077">
        <ele>531.9</ele>
        <time>2022-10-28T15:20:58Z</time>
      </trkpt>
      <trkpt lat="44.26625" lon="5.8208">
        <ele>531.8</ele>
        <time>2022-10-28T15:20:59Z</time>
      </trkpt>
      <trkpt lat="44.26618" lon="5.82082">
        <ele>531.7</ele>
        <time>2022-10-28T15:21:00Z</time>
      </trkpt>
      <trkpt lat="44.26612" lon="5.82085">
        <ele>531.5</ele>
        <time>2022-10-28T15:21:01Z</time>
      </trkpt>
      <trkpt lat="44.26605" lon="5.82087">
        <ele>531.4</ele>
        <time>2022-10-28T15:21:02Z</time>
      </trkpt>
      <trkpt lat="44.26598" lon="5.8209">
        <ele>531.2</ele>
        <time>2022-10-28T15:21:03Z</time>
      </trkpt>
      <trkpt lat="44.26592" lon="5.82092">
        <ele>531</ele>
        <time>2022-10-28T15:21:04Z</time>
      </trkpt>
      <trkpt lat="44.26585" lon="5.82095">
        <ele>530.9</ele>
        <time>2022-10-28T15:21:05Z</time>
      </trkpt>
      <trkpt lat="44.26578" lon="5.82098">
        <ele>530.7</ele>
        <time>2022-10-28T15:21:06Z</time>
      </trkpt>
      <trkpt lat="44.26571" lon="5.82101">
        <ele>530.5</ele>
        <time>2022-10-28T15:21:07Z</time>
      </trkpt>
      <trkpt lat="44.26564" lon="5.82104">
        <ele>530.3</ele>
        <time>2022-10-28T15:21:08Z</time>
      </trkpt>
      <trkpt lat="44.26556" lon="5.82106">
        <ele>530</ele>
        <time>2022-10-28T15:21:09Z</time>
      </trkpt>
      <trkpt lat="44.26549" lon="5.82109">
        <ele>529.8</ele>
        <time>2022-10-28T15:21:10Z</time>
      </trkpt>
      <trkpt lat="44.26542" lon="5.82112">
        <ele>529.6</ele>
        <time>2022-10-28T15:21:11Z</time>
      </trkpt>
      <trkpt lat="44.26534" lon="5.82115">
        <ele>529.4</ele>
        <time>2022-10-28T15:21:12Z</time>
      </trkpt>
      <trkpt lat="44.26527" lon="5.82118">
        <ele>529.2</ele>
        <time>2022-10-28T15:21:13Z</time>
      </trkpt>
      <trkpt lat="44.2652" lon="5.82121">
        <ele>529</ele>
        <time>2022-10-28T15:21:14Z</time>
      </trkpt>
      <trkpt lat="44.26512" lon="5.82125">
        <ele>528.8</ele>
        <time>2022-10-28T15:21:15Z</time>
      </trkpt>
      <trkpt lat="44.26505" lon="5.82128">
        <ele>528.7</ele>
        <time>2022-10-28T15:21:16Z</time>
      </trkpt>
      <trkpt lat="44.26498" lon="5.8213">
        <ele>528.5</ele>
        <time>2022-10-28T15:21:17Z</time>
      </trkpt>
      <trkpt lat="44.2649" lon="5.82133">
        <ele>528.4</ele>
        <time>2022-10-28T15:21:18Z</time>
      </trkpt>
      <trkpt lat="44.26483" lon="5.82136">
        <ele>528.2</ele>
        <time>2022-10-28T15:21:19Z</time>
      </trkpt>
      <trkpt lat="44.26476" lon="5.82139">
        <ele>528.1</ele>
        <time>2022-10-28T15:21:20Z</time>
      </trkpt>
      <trkpt lat="44.26469" lon="5.82141">
        <ele>527.9</ele>
        <time>2022-10-28T15:21:21Z</time>
      </trkpt>
      <trkpt lat="44.26462" lon="5.82144">
        <ele>527.8</ele>
        <time>2022-10-28T15:21:22Z</time>
      </trkpt>
      <trkpt lat="44.26455" lon="5.82146">
        <ele>527.7</ele>
        <time>2022-10-28T15:21:23Z</time>
      </trkpt>
      <trkpt lat="44.26449" lon="5.82148">
        <ele>527.7</ele>
        <time>2022-10-28T15:21:24Z</time>
      </trkpt>
      <trkpt lat="44.26442" lon="5.8215">
        <ele>527.6</ele>
        <time>2022-10-28T15:21:25Z</time>
      </trkpt>
      <trkpt lat="44.26436" lon="5.82151">
        <ele>527.6</ele>
        <time>2022-10-28T15:21:26Z</time>
      </trkpt>
      <trkpt lat="44.2643" lon="5.82153">
        <ele>527.5</ele>
        <time>2022-10-28T15:21:27Z</time>
      </trkpt>
      <trkpt lat="44.26423" lon="5.82154">
        <ele>527.5</ele>
        <time>2022-10-28T15:21:28Z</time>
      </trkpt>
      <trkpt lat="44.26416" lon="5.82156">
        <ele>527.5</ele>
        <time>2022-10-28T15:21:29Z</time>
      </trkpt>
      <trkpt lat="44.2641" lon="5.82158">
        <ele>527.5</ele>
        <time>2022-10-28T15:21:30Z</time>
      </trkpt>
      <trkpt lat="44.26403" lon="5.8216">
        <ele>527.5</ele>
        <time>2022-10-28T15:21:31Z</time>
      </trkpt>
      <trkpt lat="44.26397" lon="5.82162">
        <ele>527.5</ele>
        <time>2022-10-28T15:21:32Z</time>
      </trkpt>
      <trkpt lat="44.26391" lon="5.82165">
        <ele>527.6</ele>
        <time>2022-10-28T15:21:33Z</time>
      </trkpt>
      <trkpt lat="44.26386" lon="5.82167">
        <ele>527.6</ele>
        <time>2022-10-28T15:21:34Z</time>
      </trkpt>
      <trkpt lat="44.2638" lon="5.8217">
        <ele>527.6</ele>
        <time>2022-10-28T15:21:35Z</time>
      </trkpt>
      <trkpt lat="44.26375" lon="5.82173">
        <ele>527.7</ele>
        <time>2022-10-28T15:21:36Z</time>
      </trkpt>
      <trkpt lat="44.26369" lon="5.82175">
        <ele>527.7</ele>
        <time>2022-10-28T15:21:37Z</time>
      </trkpt>
      <trkpt lat="44.26364" lon="5.82177">
        <ele>527.8</ele>
        <time>2022-10-28T15:21:38Z</time>
      </trkpt>
      <trkpt lat="44.26359" lon="5.8218">
        <ele>527.8</ele>
        <time>2022-10-28T15:21:39Z</time>
      </trkpt>
      <trkpt lat="44.26355" lon="5.82182">
        <ele>527.9</ele>
        <time>2022-10-28T15:21:40Z</time>
      </trkpt>
      <trkpt lat="44.2635" lon="5.82184">
        <ele>527.9</ele>
        <time>2022-10-28T15:21:41Z</time>
      </trkpt>
      <trkpt lat="44.26346" lon="5.82186">
        <ele>528</ele>
        <time>2022-10-28T15:21:42Z</time>
      </trkpt>
      <trkpt lat="44.26343" lon="5.82188">
        <ele>528</ele>
        <time>2022-10-28T15:21:43Z</time>
      </trkpt>
      <trkpt lat="44.26342" lon="5.82188">
        <ele>528</ele>
        <time>2022-10-28T15:21:44Z</time>
      </trkpt>
      <trkpt lat="44.26342" lon="5.82188">
        <ele>528</ele>
        <time>2022-10-28T15:21:45Z</time>
      </trkpt>
      <trkpt lat="44.26342" lon="5.82188">
        <ele>528</ele>
        <time>2022-10-28T15:21:46Z</time>
      </trkpt>
      <trkpt lat="44.26342" lon="5.82189">
        <ele>528</ele>
        <time>2022-10-28T15:21:47Z</time>
      </trkpt>
      <trkpt lat="44.26342" lon="5.82189">
        <ele>528.1</ele>
        <time>2022-10-28T15:21:48Z</time>
      </trkpt>
      <trkpt lat="44.26343" lon="5.82189">
        <ele>528.1</ele>
        <time>2022-10-28T15:21:49Z</time>
      </trkpt>
      <trkpt lat="44.26343" lon="5.82189">
        <ele>528.1</ele>
        <time>2022-10-28T15:21:51Z</time>
      </trkpt>
      <trkpt lat="44.26343" lon="5.82189">
        <ele>528.1</ele>
        <time>2022-10-28T15:21:52Z</time>
      </trkpt>
      <trkpt lat="44.26342" lon="5.82189">
        <ele>528.1</ele>
        <time>2022-10-28T15:21:53Z</time>
      </trkpt>
      <trkpt lat="44.26342" lon="5.82188">
        <ele>528.1</ele>
        <time>2022-10-28T15:21:54Z</time>
      </trkpt>
      <trkpt lat="44.26342" lon="5.82188">
        <ele>528.1</ele>
        <time>2022-10-28T15:21:55Z</time>
      </trkpt>
      <trkpt lat="44.26342" lon="5.82188">
        <ele>528.1</ele>
        <time>2022-10-28T15:21:56Z</time>
      </trkpt>
      <trkpt lat="44.26342" lon="5.82188">
        <ele>528.1</ele>
        <time>2022-10-28T15:21:57Z</time>
      </trkpt>
      <trkpt lat="44.26342" lon="5.82188">
        <ele>528.1</ele>
        <time>2022-10-28T15:21:58Z</time>
      </trkpt>
      <trkpt lat="44.26342" lon="5.82188">
        <ele>528.1</ele>
        <time>2022-10-28T15:21:59Z</time>
      </trkpt>
      <trkpt lat="44.26341" lon="5.82188">
        <ele>528.1</ele>
        <time>2022-10-28T15:22:34Z</time>
      </trkpt>
      <trkpt lat="44.26339" lon="5.82188">
        <ele>528.1</ele>
        <time>2022-10-28T15:22:35Z</time>
      </trkpt>
      <trkpt lat="44.26338" lon="5.82189">
        <ele>528.1</ele>
        <time>2022-10-28T15:22:36Z</time>
      </trkpt>
      <trkpt lat="44.26335" lon="5.82191">
        <ele>528.2</ele>
        <time>2022-10-28T15:22:37Z</time>
      </trkpt>
      <trkpt lat="44.26332" lon="5.82194">
        <ele>528.2</ele>
        <time>2022-10-28T15:22:39Z</time>
      </trkpt>
      <trkpt lat="44.26329" lon="5.82196">
        <ele>528.2</ele>
        <time>2022-10-28T15:22:40Z</time>
      </trkpt>
      <trkpt lat="44.26325" lon="5.82198">
        <ele>528.3</ele>
        <time>2022-10-28T15:22:41Z</time>
      </trkpt>
      <trkpt lat="44.26322" lon="5.822">
        <ele>528.3</ele>
        <time>2022-10-28T15:22:42Z</time>
      </trkpt>
      <trkpt lat="44.26319" lon="5.82202">
        <ele>528.3</ele>
        <time>2022-10-28T15:22:43Z</time>
      </trkpt>
      <trkpt lat="44.26315" lon="5.82204">
        <ele>528.3</ele>
        <time>2022-10-28T15:22:44Z</time>
      </trkpt>
      <trkpt lat="44.26311" lon="5.82206">
        <ele>528.4</ele>
        <time>2022-10-28T15:22:45Z</time>
      </trkpt>
      <trkpt lat="44.26307" lon="5.82208">
        <ele>528.4</ele>
        <time>2022-10-28T15:22:46Z</time>
      </trkpt>
      <trkpt lat="44.26303" lon="5.82211">
        <ele>528.4</ele>
        <time>2022-10-28T15:22:48Z</time>
      </trkpt>
      <trkpt lat="44.26297" lon="5.82214">
        <ele>528.5</ele>
        <time>2022-10-28T15:22:49Z</time>
      </trkpt>
      <trkpt lat="44.26293" lon="5.82216">
        <ele>528.5</ele>
        <time>2022-10-28T15:22:50Z</time>
      </trkpt>
      <trkpt lat="44.26288" lon="5.82218">
        <ele>528.5</ele>
        <time>2022-10-28T15:22:51Z</time>
      </trkpt>
      <trkpt lat="44.26285" lon="5.8222">
        <ele>528.6</ele>
        <time>2022-10-28T15:22:52Z</time>
      </trkpt>
      <trkpt lat="44.26279" lon="5.82223">
        <ele>528.6</ele>
        <time>2022-10-28T15:22:54Z</time>
      </trkpt>
      <trkpt lat="44.26274" lon="5.82226">
        <ele>528.7</ele>
        <time>2022-10-28T15:22:55Z</time>
      </trkpt>
      <trkpt lat="44.2627" lon="5.82228">
        <ele>528.7</ele>
        <time>2022-10-28T15:22:56Z</time>
      </trkpt>
      <trkpt lat="44.26266" lon="5.8223">
        <ele>528.8</ele>
        <time>2022-10-28T15:22:57Z</time>
      </trkpt>
      <trkpt lat="44.2626" lon="5.82234">
        <ele>528.8</ele>
        <time>2022-10-28T15:22:59Z</time>
      </trkpt>
      <trkpt lat="44.26254" lon="5.82237">
        <ele>528.9</ele>
        <time>2022-10-28T15:23:00Z</time>
      </trkpt>
      <trkpt lat="44.26251" lon="5.82239">
        <ele>528.9</ele>
        <time>2022-10-28T15:23:01Z</time>
      </trkpt>
      <trkpt lat="44.26248" lon="5.8224">
        <ele>528.9</ele>
        <time>2022-10-28T15:23:02Z</time>
      </trkpt>
      <trkpt lat="44.26244" lon="5.8224">
        <ele>528.9</ele>
        <time>2022-10-28T15:23:03Z</time>
      </trkpt>
      <trkpt lat="44.26243" lon="5.82239">
        <ele>528.9</ele>
        <time>2022-10-28T15:23:04Z</time>
      </trkpt>
      <trkpt lat="44.26241" lon="5.82235">
        <ele>528.9</ele>
        <time>2022-10-28T15:23:05Z</time>
      </trkpt>
      <trkpt lat="44.2624" lon="5.82233">
        <ele>528.9</ele>
        <time>2022-10-28T15:23:06Z</time>
      </trkpt>
      <trkpt lat="44.26244" lon="5.82226">
        <ele>528.9</ele>
        <time>2022-10-28T15:23:07Z</time>
      </trkpt>
      <trkpt lat="44.26248" lon="5.82219">
        <ele>528.9</ele>
        <time>2022-10-28T15:23:09Z</time>
      </trkpt>
      <trkpt lat="44.26252" lon="5.82213">
        <ele>528.9</ele>
        <time>2022-10-28T15:23:10Z</time>
      </trkpt>
      <trkpt lat="44.26256" lon="5.82206">
        <ele>528.8</ele>
        <time>2022-10-28T15:23:12Z</time>
      </trkpt>
      <trkpt lat="44.26258" lon="5.82201">
        <ele>528.7</ele>
        <time>2022-10-28T15:23:13Z</time>
      </trkpt>
      <trkpt lat="44.26262" lon="5.82192">
        <ele>528.6</ele>
        <time>2022-10-28T15:23:14Z</time>
      </trkpt>
      <trkpt lat="44.26265" lon="5.82185">
        <ele>528.5</ele>
        <time>2022-10-28T15:23:16Z</time>
      </trkpt>
      <trkpt lat="44.26268" lon="5.82178">
        <ele>528.4</ele>
        <time>2022-10-28T15:23:17Z</time>
      </trkpt>
      <trkpt lat="44.26269" lon="5.82171">
        <ele>528.4</ele>
        <time>2022-10-28T15:23:18Z</time>
      </trkpt>
      <trkpt lat="44.26269" lon="5.82163">
        <ele>528.3</ele>
        <time>2022-10-28T15:23:19Z</time>
      </trkpt>
      <trkpt lat="44.26269" lon="5.82157">
        <ele>528.3</ele>
        <time>2022-10-28T15:23:20Z</time>
      </trkpt>
      <trkpt lat="44.26269" lon="5.82152">
        <ele>528.2</ele>
        <time>2022-10-28T15:23:21Z</time>
      </trkpt>
      <trkpt lat="44.26269" lon="5.82143">
        <ele>528.2</ele>
        <time>2022-10-28T15:23:22Z</time>
      </trkpt>
      <trkpt lat="44.26269" lon="5.82136">
        <ele>528.2</ele>
        <time>2022-10-28T15:23:23Z</time>
      </trkpt>
      <trkpt lat="44.26268" lon="5.8213">
        <ele>528.2</ele>
        <time>2022-10-28T15:23:24Z</time>
      </trkpt>
      <trkpt lat="44.26267" lon="5.82123">
        <ele>528.2</ele>
        <time>2022-10-28T15:23:25Z</time>
      </trkpt>
      <trkpt lat="44.26266" lon="5.82117">
        <ele>528.2</ele>
        <time>2022-10-28T15:23:26Z</time>
      </trkpt>
      <trkpt lat="44.26265" lon="5.82111">
        <ele>528.3</ele>
        <time>2022-10-28T15:23:27Z</time>
      </trkpt>
      <trkpt lat="44.26265" lon="5.82109">
        <ele>528.3</ele>
        <time>2022-10-28T15:23:28Z</time>
      </trkpt>
      <trkpt lat="44.26265" lon="5.82098">
        <ele>528.4</ele>
        <time>2022-10-28T15:23:30Z</time>
      </trkpt>
      <trkpt lat="44.26265" lon="5.82093">
        <ele>528.5</ele>
        <time>2022-10-28T15:23:31Z</time>
      </trkpt>
      <trkpt lat="44.26264" lon="5.82082">
        <ele>528.6</ele>
        <time>2022-10-28T15:23:33Z</time>
      </trkpt>
      <trkpt lat="44.26265" lon="5.82074">
        <ele>528.7</ele>
        <time>2022-10-28T15:23:34Z</time>
      </trkpt>
      <trkpt lat="44.26267" lon="5.82067">
        <ele>528.7</ele>
        <time>2022-10-28T15:23:36Z</time>
      </trkpt>
      <trkpt lat="44.26267" lon="5.82057">
        <ele>528.7</ele>
        <time>2022-10-28T15:23:37Z</time>
      </trkpt>
      <trkpt lat="44.26267" lon="5.82049">
        <ele>528.7</ele>
        <time>2022-10-28T15:23:38Z</time>
      </trkpt>
      <trkpt lat="44.26268" lon="5.82042">
        <ele>528.6</ele>
        <time>2022-10-28T15:23:39Z</time>
      </trkpt>
      <trkpt lat="44.26268" lon="5.82035">
        <ele>528.6</ele>
        <time>2022-10-28T15:23:40Z</time>
      </trkpt>
      <trkpt lat="44.26268" lon="5.82028">
        <ele>528.5</ele>
        <time>2022-10-28T15:23:41Z</time>
      </trkpt>
      <trkpt lat="44.26268" lon="5.82021">
        <ele>528.4</ele>
        <time>2022-10-28T15:23:42Z</time>
      </trkpt>
      <trkpt lat="44.26268" lon="5.82013">
        <ele>528.4</ele>
        <time>2022-10-28T15:23:43Z</time>
      </trkpt>
      <trkpt lat="44.26268" lon="5.82005">
        <ele>528.3</ele>
        <time>2022-10-28T15:23:44Z</time>
      </trkpt>
      <trkpt lat="44.26269" lon="5.81998">
        <ele>528.3</ele>
        <time>2022-10-28T15:23:45Z</time>
      </trkpt>
      <trkpt lat="44.26271" lon="5.81991">
        <ele>528.2</ele>
        <time>2022-10-28T15:23:46Z</time>
      </trkpt>
      <trkpt lat="44.26274" lon="5.81984">
        <ele>528.1</ele>
        <time>2022-10-28T15:23:47Z</time>
      </trkpt>
      <trkpt lat="44.26276" lon="5.81977">
        <ele>527.9</ele>
        <time>2022-10-28T15:23:48Z</time>
      </trkpt>
      <trkpt lat="44.26279" lon="5.8197">
        <ele>527.8</ele>
        <time>2022-10-28T15:23:49Z</time>
      </trkpt>
      <trkpt lat="44.2628" lon="5.81964">
        <ele>527.7</ele>
        <time>2022-10-28T15:23:50Z</time>
      </trkpt>
      <trkpt lat="44.26281" lon="5.81958">
        <ele>527.6</ele>
        <time>2022-10-28T15:23:51Z</time>
      </trkpt>
      <trkpt lat="44.26283" lon="5.81953">
        <ele>527.6</ele>
        <time>2022-10-28T15:23:52Z</time>
      </trkpt>
      <trkpt lat="44.26285" lon="5.81949">
        <ele>527.5</ele>
        <time>2022-10-28T15:23:53Z</time>
      </trkpt>
      <trkpt lat="44.26287" lon="5.81946">
        <ele>527.5</ele>
        <time>2022-10-28T15:23:54Z</time>
      </trkpt>
      <trkpt lat="44.2629" lon="5.81941">
        <ele>527.4</ele>
        <time>2022-10-28T15:23:55Z</time>
      </trkpt>
      <trkpt lat="44.26293" lon="5.81936">
        <ele>527.4</ele>
        <time>2022-10-28T15:23:56Z</time>
      </trkpt>
      <trkpt lat="44.26295" lon="5.81932">
        <ele>527.3</ele>
        <time>2022-10-28T15:23:57Z</time>
      </trkpt>
      <trkpt lat="44.26297" lon="5.81928">
        <ele>527.3</ele>
        <time>2022-10-28T15:23:58Z</time>
      </trkpt>
      <trkpt lat="44.26297" lon="5.81926">
        <ele>527.3</ele>
        <time>2022-10-28T15:23:59Z</time>
      </trkpt>
      <trkpt lat="44.26303" lon="5.81917">
        <ele>527.2</ele>
        <time>2022-10-28T15:24:01Z</time>
      </trkpt>
      <trkpt lat="44.26307" lon="5.81911">
        <ele>527.1</ele>
        <time>2022-10-28T15:24:02Z</time>
      </trkpt>
      <trkpt lat="44.26312" lon="5.81904">
        <ele>527.1</ele>
        <time>2022-10-28T15:24:03Z</time>
      </trkpt>
      <trkpt lat="44.26315" lon="5.819">
        <ele>527.1</ele>
        <time>2022-10-28T15:24:04Z</time>
      </trkpt>
      <trkpt lat="44.26317" lon="5.81897">
        <ele>527.1</ele>
        <time>2022-10-28T15:24:05Z</time>
      </trkpt>
      <trkpt lat="44.2632" lon="5.8189">
        <ele>527.1</ele>
        <time>2022-10-28T15:24:07Z</time>
      </trkpt>
      <trkpt lat="44.26322" lon="5.81884">
        <ele>527.1</ele>
        <time>2022-10-28T15:24:08Z</time>
      </trkpt>
      <trkpt lat="44.26323" lon="5.81879">
        <ele>527.1</ele>
        <time>2022-10-28T15:24:09Z</time>
      </trkpt>
      <trkpt lat="44.26324" lon="5.81877">
        <ele>527.1</ele>
        <time>2022-10-28T15:24:10Z</time>
      </trkpt>
      <trkpt lat="44.26324" lon="5.81874">
        <ele>527.1</ele>
        <time>2022-10-28T15:24:11Z</time>
      </trkpt>
      <trkpt lat="44.26326" lon="5.8187">
        <ele>527.1</ele>
        <time>2022-10-28T15:24:13Z</time>
      </trkpt>
      <trkpt lat="44.26329" lon="5.81866">
        <ele>527.1</ele>
        <time>2022-10-28T15:24:14Z</time>
      </trkpt>
      <trkpt lat="44.2633" lon="5.81864">
        <ele>527.1</ele>
        <time>2022-10-28T15:24:15Z</time>
      </trkpt>
      <trkpt lat="44.26331" lon="5.81862">
        <ele>527.1</ele>
        <time>2022-10-28T15:24:16Z</time>
      </trkpt>
      <trkpt lat="44.26331" lon="5.81861">
        <ele>527.1</ele>
        <time>2022-10-28T15:24:17Z</time>
      </trkpt>
      <trkpt lat="44.26331" lon="5.8186">
        <ele>527.1</ele>
        <time>2022-10-28T15:24:18Z</time>
      </trkpt>
      <trkpt lat="44.26331" lon="5.8186">
        <ele>527.1</ele>
        <time>2022-10-28T15:24:19Z</time>
      </trkpt>
      <trkpt lat="44.26331" lon="5.81859">
        <ele>527.1</ele>
        <time>2022-10-28T15:24:20Z</time>
      </trkpt>
      <trkpt lat="44.26331" lon="5.81859">
        <ele>527.1</ele>
        <time>2022-10-28T15:24:21Z</time>
      </trkpt>
      <trkpt lat="44.26331" lon="5.8186">
        <ele>527.1</ele>
        <time>2022-10-28T15:24:22Z</time>
      </trkpt>
      <trkpt lat="44.26331" lon="5.8186">
        <ele>527.1</ele>
        <time>2022-10-28T15:24:23Z</time>
      </trkpt>
      <trkpt lat="44.26331" lon="5.8186">
        <ele>527.1</ele>
        <time>2022-10-28T15:24:24Z</time>
      </trkpt>
      <trkpt lat="44.26331" lon="5.8186">
        <ele>527.1</ele>
        <time>2022-10-28T15:24:25Z</time>
      </trkpt>
      <trkpt lat="44.2633" lon="5.8186">
        <ele>527.1</ele>
        <time>2022-10-28T15:24:26Z</time>
      </trkpt>
      <trkpt lat="44.2633" lon="5.8186">
        <ele>527.1</ele>
        <time>2022-10-28T15:24:27Z</time>
      </trkpt>
      <trkpt lat="44.2633" lon="5.8186">
        <ele>527.1</ele>
        <time>2022-10-28T15:24:28Z</time>
      </trkpt>
      <trkpt lat="44.2633" lon="5.81861">
        <ele>527.1</ele>
        <time>2022-10-28T15:24:29Z</time>
      </trkpt>
      <trkpt lat="44.2633" lon="5.81861">
        <ele>527.1</ele>
        <time>2022-10-28T15:24:30Z</time>
      </trkpt>
      <trkpt lat="44.2633" lon="5.81861">
        <ele>527.1</ele>
        <time>2022-10-28T15:24:31Z</time>
      </trkpt>
      <trkpt lat="44.2633" lon="5.81861">
        <ele>527.1</ele>
        <time>2022-10-28T15:24:32Z</time>
      </trkpt>
      <trkpt lat="44.2633" lon="5.81861">
        <ele>527.1</ele>
        <time>2022-10-28T15:24:33Z</time>
      </trkpt>
      <trkpt lat="44.2633" lon="5.81861">
        <ele>527.1</ele>
        <time>2022-10-28T15:24:34Z</time>
      </trkpt>
      <trkpt lat="44.26334" lon="5.81863">
        <ele>527.1</ele>
        <time>2022-10-28T15:25:39Z</time>
      </trkpt>
      <trkpt lat="44.26334" lon="5.81863">
        <ele>527.1</ele>
        <time>2022-10-28T15:25:40Z</time>
      </trkpt>
      <trkpt lat="44.26334" lon="5.81862">
        <ele>527.1</ele>
        <time>2022-10-28T15:25:41Z</time>
      </trkpt>
      <trkpt lat="44.26334" lon="5.81861">
        <ele>527.1</ele>
        <time>2022-10-28T15:25:42Z</time>
      </trkpt>
      <trkpt lat="44.26334" lon="5.81861">
        <ele>527.1</ele>
        <time>2022-10-28T15:25:43Z</time>
      </trkpt>
      <trkpt lat="44.26334" lon="5.81861">
        <ele>527.1</ele>
        <time>2022-10-28T15:25:44Z</time>
      </trkpt>
      <trkpt lat="44.26334" lon="5.8186">
        <ele>527.1</ele>
        <time>2022-10-28T15:25:45Z</time>
      </trkpt>
      <trkpt lat="44.26334" lon="5.81861">
        <ele>527.1</ele>
        <time>2022-10-28T15:25:46Z</time>
      </trkpt>
      <trkpt lat="44.26334" lon="5.81861">
        <ele>527.1</ele>
        <time>2022-10-28T15:25:47Z</time>
      </trkpt>
      <trkpt lat="44.26334" lon="5.81861">
        <ele>527.1</ele>
        <time>2022-10-28T15:25:48Z</time>
      </trkpt>
      <trkpt lat="44.26334" lon="5.81861">
        <ele>527.1</ele>
        <time>2022-10-28T15:25:49Z</time>
      </trkpt>
      <trkpt lat="44.26334" lon="5.81861">
        <ele>527.1</ele>
        <time>2022-10-28T15:25:50Z</time>
      </trkpt>
      <trkpt lat="44.26331" lon="5.81863">
        <ele>527.1</ele>
        <time>2022-10-28T15:33:01Z</time>
      </trkpt>
      <trkpt lat="44.2633" lon="5.81863">
        <ele>527.1</ele>
        <time>2022-10-28T15:33:02Z</time>
      </trkpt>
      <trkpt lat="44.26328" lon="5.81863">
        <ele>527.1</ele>
        <time>2022-10-28T15:33:03Z</time>
      </trkpt>
      <trkpt lat="44.26327" lon="5.81862">
        <ele>527.1</ele>
        <time>2022-10-28T15:33:04Z</time>
      </trkpt>
      <trkpt lat="44.26326" lon="5.81859">
        <ele>527.1</ele>
        <time>2022-10-28T15:33:05Z</time>
      </trkpt>
      <trkpt lat="44.26326" lon="5.81858">
        <ele>527.1</ele>
        <time>2022-10-28T15:33:07Z</time>
      </trkpt>
      <trkpt lat="44.26326" lon="5.81857">
        <ele>527.1</ele>
        <time>2022-10-28T15:33:08Z</time>
      </trkpt>
      <trkpt lat="44.26326" lon="5.81855">
        <ele>527.1</ele>
        <time>2022-10-28T15:33:09Z</time>
      </trkpt>
      <trkpt lat="44.26325" lon="5.81854">
        <ele>527.1</ele>
        <time>2022-10-28T15:33:10Z</time>
      </trkpt>
      <trkpt lat="44.26325" lon="5.81853">
        <ele>527.1</ele>
        <time>2022-10-28T15:33:11Z</time>
      </trkpt>
      <trkpt lat="44.26325" lon="5.81852">
        <ele>527.1</ele>
        <time>2022-10-28T15:33:12Z</time>
      </trkpt>
      <trkpt lat="44.26324" lon="5.8185">
        <ele>527.1</ele>
        <time>2022-10-28T15:33:14Z</time>
      </trkpt>
      <trkpt lat="44.26324" lon="5.81849">
        <ele>527.1</ele>
        <time>2022-10-28T15:33:15Z</time>
      </trkpt>
      <trkpt lat="44.26324" lon="5.81848">
        <ele>527.1</ele>
        <time>2022-10-28T15:33:16Z</time>
      </trkpt>
      <trkpt lat="44.26324" lon="5.81848">
        <ele>527.1</ele>
        <time>2022-10-28T15:33:17Z</time>
      </trkpt>
      <trkpt lat="44.26324" lon="5.81847">
        <ele>527.1</ele>
        <time>2022-10-28T15:33:19Z</time>
      </trkpt>
      <trkpt lat="44.26324" lon="5.81846">
        <ele>527.1</ele>
        <time>2022-10-28T15:33:20Z</time>
      </trkpt>
      <trkpt lat="44.26324" lon="5.81845">
        <ele>527.1</ele>
        <time>2022-10-28T15:33:21Z</time>
      </trkpt>
      <trkpt lat="44.26323" lon="5.81844">
        <ele>527.1</ele>
        <time>2022-10-28T15:33:23Z</time>
      </trkpt>
      <trkpt lat="44.26323" lon="5.81843">
        <ele>527.1</ele>
        <time>2022-10-28T15:33:24Z</time>
      </trkpt>
      <trkpt lat="44.26322" lon="5.81842">
        <ele>527.1</ele>
        <time>2022-10-28T15:33:26Z</time>
      </trkpt>
      <trkpt lat="44.26322" lon="5.81841">
        <ele>527.1</ele>
        <time>2022-10-28T15:33:27Z</time>
      </trkpt>
      <trkpt lat="44.26322" lon="5.81839">
        <ele>527.1</ele>
        <time>2022-10-28T15:33:29Z</time>
      </trkpt>
      <trkpt lat="44.26322" lon="5.81838">
        <ele>527.1</ele>
        <time>2022-10-28T15:33:30Z</time>
      </trkpt>
      <trkpt lat="44.26322" lon="5.81838">
        <ele>527.1</ele>
        <time>2022-10-28T15:33:31Z</time>
      </trkpt>
      <trkpt lat="44.26322" lon="5.81836">
        <ele>527.1</ele>
        <time>2022-10-28T15:33:33Z</time>
      </trkpt>
      <trkpt lat="44.26322" lon="5.81835">
        <ele>527.1</ele>
        <time>2022-10-28T15:33:35Z</time>
      </trkpt>
      <trkpt lat="44.26322" lon="5.81834">
        <ele>527.1</ele>
        <time>2022-10-28T15:33:36Z</time>
      </trkpt>
      <trkpt lat="44.26322" lon="5.81833">
        <ele>527.1</ele>
        <time>2022-10-28T15:33:37Z</time>
      </trkpt>
      <trkpt lat="44.26322" lon="5.81832">
        <ele>527.1</ele>
        <time>2022-10-28T15:33:38Z</time>
      </trkpt>
      <trkpt lat="44.26322" lon="5.8183">
        <ele>527.1</ele>
        <time>2022-10-28T15:33:40Z</time>
      </trkpt>
      <trkpt lat="44.26322" lon="5.8183">
        <ele>527.1</ele>
        <time>2022-10-28T15:33:42Z</time>
      </trkpt>
      <trkpt lat="44.26322" lon="5.8183">
        <ele>527.1</ele>
        <time>2022-10-28T15:33:43Z</time>
      </trkpt>
      <trkpt lat="44.26322" lon="5.8183">
        <ele>527.1</ele>
        <time>2022-10-28T15:33:44Z</time>
      </trkpt>
      <trkpt lat="44.26322" lon="5.81831">
        <ele>527.1</ele>
        <time>2022-10-28T15:33:45Z</time>
      </trkpt>
      <trkpt lat="44.26322" lon="5.81831">
        <ele>527.1</ele>
        <time>2022-10-28T15:33:46Z</time>
      </trkpt>
      <trkpt lat="44.26322" lon="5.81831">
        <ele>527.1</ele>
        <time>2022-10-28T15:33:47Z</time>
      </trkpt>
      <trkpt lat="44.26322" lon="5.81832">
        <ele>527.1</ele>
        <time>2022-10-28T15:33:48Z</time>
      </trkpt>
      <trkpt lat="44.26322" lon="5.81832">
        <ele>527.1</ele>
        <time>2022-10-28T15:33:49Z</time>
      </trkpt>
      <trkpt lat="44.26322" lon="5.81832">
        <ele>527.1</ele>
        <time>2022-10-28T15:33:50Z</time>
      </trkpt>
      <trkpt lat="44.26322" lon="5.81832">
        <ele>527.1</ele>
        <time>2022-10-28T15:33:51Z</time>
      </trkpt>
      <trkpt lat="44.26321" lon="5.81833">
        <ele>527.1</ele>
        <time>2022-10-28T15:33:52Z</time>
      </trkpt>
      <trkpt lat="44.26321" lon="5.81833">
        <ele>527.1</ele>
        <time>2022-10-28T15:33:54Z</time>
      </trkpt>
      <trkpt lat="44.26321" lon="5.81833">
        <ele>527.1</ele>
        <time>2022-10-28T15:33:55Z</time>
      </trkpt>
      <trkpt lat="44.26321" lon="5.81833">
        <ele>527.1</ele>
        <time>2022-10-28T15:33:56Z</time>
      </trkpt>
      <trkpt lat="44.26321" lon="5.81834">
        <ele>527.1</ele>
        <time>2022-10-28T15:33:57Z</time>
      </trkpt>
      <trkpt lat="44.26321" lon="5.81834">
        <ele>527.1</ele>
        <time>2022-10-28T15:34:33Z</time>
      </trkpt>
      <trkpt lat="44.26321" lon="5.81834">
        <ele>527.1</ele>
        <time>2022-10-28T15:34:34Z</time>
      </trkpt>
      <trkpt lat="44.26321" lon="5.81835">
        <ele>527.1</ele>
        <time>2022-10-28T15:34:35Z</time>
      </trkpt>
      <trkpt lat="44.26321" lon="5.81835">
        <ele>527.1</ele>
        <time>2022-10-28T15:34:36Z</time>
      </trkpt>
      <trkpt lat="44.26321" lon="5.81836">
        <ele>527.1</ele>
        <time>2022-10-28T15:34:37Z</time>
      </trkpt>
      <trkpt lat="44.26321" lon="5.81838">
        <ele>527.1</ele>
        <time>2022-10-28T15:34:39Z</time>
      </trkpt>
      <trkpt lat="44.26321" lon="5.81839">
        <ele>527.1</ele>
        <time>2022-10-28T15:34:40Z</time>
      </trkpt>
      <trkpt lat="44.26321" lon="5.81841">
        <ele>527.2</ele>
        <time>2022-10-28T15:34:41Z</time>
      </trkpt>
      <trkpt lat="44.26321" lon="5.81842">
        <ele>527.2</ele>
        <time>2022-10-28T15:34:42Z</time>
      </trkpt>
      <trkpt lat="44.26321" lon="5.81844">
        <ele>527.2</ele>
        <time>2022-10-28T15:34:44Z</time>
      </trkpt>
      <trkpt lat="44.26321" lon="5.81846">
        <ele>527.2</ele>
        <time>2022-10-28T15:34:46Z</time>
      </trkpt>
      <trkpt lat="44.26321" lon="5.81847">
        <ele>527.2</ele>
        <time>2022-10-28T15:34:47Z</time>
      </trkpt>
      <trkpt lat="44.26321" lon="5.81848">
        <ele>527.2</ele>
        <time>2022-10-28T15:34:48Z</time>
      </trkpt>
      <trkpt lat="44.26321" lon="5.81849">
        <ele>527.2</ele>
        <time>2022-10-28T15:34:49Z</time>
      </trkpt>
      <trkpt lat="44.26321" lon="5.8185">
        <ele>527.2</ele>
        <time>2022-10-28T15:34:50Z</time>
      </trkpt>
      <trkpt lat="44.26321" lon="5.8185">
        <ele>527.2</ele>
        <time>2022-10-28T15:34:51Z</time>
      </trkpt>
      <trkpt lat="44.26321" lon="5.81851">
        <ele>527.2</ele>
        <time>2022-10-28T15:34:53Z</time>
      </trkpt>
      <trkpt lat="44.26321" lon="5.81852">
        <ele>527.2</ele>
        <time>2022-10-28T15:34:54Z</time>
      </trkpt>
      <trkpt lat="44.26321" lon="5.81853">
        <ele>527.2</ele>
        <time>2022-10-28T15:34:55Z</time>
      </trkpt>
      <trkpt lat="44.26321" lon="5.81853">
        <ele>527.2</ele>
        <time>2022-10-28T15:34:56Z</time>
      </trkpt>
      <trkpt lat="44.26321" lon="5.81854">
        <ele>527.2</ele>
        <time>2022-10-28T15:34:57Z</time>
      </trkpt>
      <trkpt lat="44.26321" lon="5.81854">
        <ele>527.2</ele>
        <time>2022-10-28T15:34:58Z</time>
      </trkpt>
      <trkpt lat="44.26322" lon="5.81855">
        <ele>527.2</ele>
        <time>2022-10-28T15:34:59Z</time>
      </trkpt>
      <trkpt lat="44.26322" lon="5.81855">
        <ele>527.2</ele>
        <time>2022-10-28T15:35:01Z</time>
      </trkpt>
      <trkpt lat="44.26322" lon="5.81855">
        <ele>527.2</ele>
        <time>2022-10-28T15:35:02Z</time>
      </trkpt>
      <trkpt lat="44.26322" lon="5.81856">
        <ele>527.2</ele>
        <time>2022-10-28T15:35:03Z</time>
      </trkpt>
      <trkpt lat="44.26322" lon="5.81856">
        <ele>527.2</ele>
        <time>2022-10-28T15:35:04Z</time>
      </trkpt>
      <trkpt lat="44.26322" lon="5.81857">
        <ele>527.2</ele>
        <time>2022-10-28T15:35:05Z</time>
      </trkpt>
      <trkpt lat="44.26323" lon="5.81857">
        <ele>527.3</ele>
        <time>2022-10-28T15:35:06Z</time>
      </trkpt>
      <trkpt lat="44.26323" lon="5.81857">
        <ele>527.3</ele>
        <time>2022-10-28T15:35:07Z</time>
      </trkpt>
      <trkpt lat="44.26323" lon="5.81858">
        <ele>527.3</ele>
        <time>2022-10-28T15:35:08Z</time>
      </trkpt>
      <trkpt lat="44.26323" lon="5.81858">
        <ele>527.3</ele>
        <time>2022-10-28T15:35:09Z</time>
      </trkpt>
      <trkpt lat="44.26323" lon="5.81858">
        <ele>527.3</ele>
        <time>2022-10-28T15:35:10Z</time>
      </trkpt>
      <trkpt lat="44.26324" lon="5.81859">
        <ele>527.3</ele>
        <time>2022-10-28T15:35:11Z</time>
      </trkpt>
      <trkpt lat="44.26324" lon="5.81859">
        <ele>527.3</ele>
        <time>2022-10-28T15:35:12Z</time>
      </trkpt>
      <trkpt lat="44.26324" lon="5.8186">
        <ele>527.3</ele>
        <time>2022-10-28T15:35:13Z</time>
      </trkpt>
      <trkpt lat="44.26324" lon="5.8186">
        <ele>527.3</ele>
        <time>2022-10-28T15:35:14Z</time>
      </trkpt>
      <trkpt lat="44.26324" lon="5.8186">
        <ele>527.3</ele>
        <time>2022-10-28T15:35:15Z</time>
      </trkpt>
      <trkpt lat="44.26324" lon="5.81861">
        <ele>527.3</ele>
        <time>2022-10-28T15:35:16Z</time>
      </trkpt>
      <trkpt lat="44.26325" lon="5.81861">
        <ele>527.3</ele>
        <time>2022-10-28T15:35:28Z</time>
      </trkpt>
      <trkpt lat="44.26325" lon="5.81861">
        <ele>527.3</ele>
        <time>2022-10-28T15:35:30Z</time>
      </trkpt>
      <trkpt lat="44.26325" lon="5.81862">
        <ele>527.3</ele>
        <time>2022-10-28T15:35:31Z</time>
      </trkpt>
      <trkpt lat="44.26325" lon="5.81862">
        <ele>527.3</ele>
        <time>2022-10-28T15:35:32Z</time>
      </trkpt>
      <trkpt lat="44.26325" lon="5.81863">
        <ele>527.3</ele>
        <time>2022-10-28T15:35:33Z</time>
      </trkpt>
      <trkpt lat="44.26326" lon="5.81863">
        <ele>527.3</ele>
        <time>2022-10-28T15:35:34Z</time>
      </trkpt>
      <trkpt lat="44.26328" lon="5.81862">
        <ele>527.3</ele>
        <time>2022-10-28T15:35:35Z</time>
      </trkpt>
      <trkpt lat="44.26329" lon="5.81862">
        <ele>527.3</ele>
        <time>2022-10-28T15:35:36Z</time>
      </trkpt>
      <trkpt lat="44.26331" lon="5.81861">
        <ele>527.3</ele>
        <time>2022-10-28T15:35:37Z</time>
      </trkpt>
      <trkpt lat="44.26332" lon="5.8186">
        <ele>527.3</ele>
        <time>2022-10-28T15:35:38Z</time>
      </trkpt>
      <trkpt lat="44.26332" lon="5.8186">
        <ele>527.3</ele>
        <time>2022-10-28T15:35:39Z</time>
      </trkpt>
      <trkpt lat="44.26333" lon="5.81858">
        <ele>527.4</ele>
        <time>2022-10-28T15:35:40Z</time>
      </trkpt>
      <trkpt lat="44.26334" lon="5.81857">
        <ele>527.4</ele>
        <time>2022-10-28T15:35:41Z</time>
      </trkpt>
      <trkpt lat="44.26335" lon="5.81856">
        <ele>527.4</ele>
        <time>2022-10-28T15:35:43Z</time>
      </trkpt>
      <trkpt lat="44.26335" lon="5.81854">
        <ele>527.4</ele>
        <time>2022-10-28T15:35:44Z</time>
      </trkpt>
      <trkpt lat="44.26335" lon="5.81853">
        <ele>527.4</ele>
        <time>2022-10-28T15:35:46Z</time>
      </trkpt>
      <trkpt lat="44.26335" lon="5.81853">
        <ele>527.4</ele>
        <time>2022-10-28T15:35:47Z</time>
      </trkpt>
      <trkpt lat="44.26335" lon="5.81853">
        <ele>527.4</ele>
        <time>2022-10-28T15:35:48Z</time>
      </trkpt>
      <trkpt lat="44.26335" lon="5.81854">
        <ele>527.4</ele>
        <time>2022-10-28T15:35:49Z</time>
      </trkpt>
      <trkpt lat="44.26335" lon="5.81854">
        <ele>527.4</ele>
        <time>2022-10-28T15:35:50Z</time>
      </trkpt>
      <trkpt lat="44.26335" lon="5.81854">
        <ele>527.4</ele>
        <time>2022-10-28T15:35:51Z</time>
      </trkpt>
      <trkpt lat="44.26335" lon="5.81854">
        <ele>527.4</ele>
        <time>2022-10-28T15:35:52Z</time>
      </trkpt>
      <trkpt lat="44.26334" lon="5.81854">
        <ele>527.4</ele>
        <time>2022-10-28T15:35:53Z</time>
      </trkpt>
      <trkpt lat="44.26334" lon="5.81854">
        <ele>527.4</ele>
        <time>2022-10-28T15:35:54Z</time>
      </trkpt>
      <trkpt lat="44.26334" lon="5.81854">
        <ele>527.4</ele>
        <time>2022-10-28T15:35:55Z</time>
      </trkpt>
      <trkpt lat="44.26334" lon="5.81854">
        <ele>527.4</ele>
        <time>2022-10-28T15:35:56Z</time>
      </trkpt>
      <trkpt lat="44.26337" lon="5.81853">
        <ele>527.4</ele>
        <time>2022-10-28T15:36:37Z</time>
      </trkpt>
      <trkpt lat="44.26337" lon="5.81853">
        <ele>527.4</ele>
        <time>2022-10-28T15:36:38Z</time>
      </trkpt>
      <trkpt lat="44.26338" lon="5.81853">
        <ele>527.4</ele>
        <time>2022-10-28T15:36:39Z</time>
      </trkpt>
      <trkpt lat="44.26338" lon="5.81853">
        <ele>527.4</ele>
        <time>2022-10-28T15:36:40Z</time>
      </trkpt>
      <trkpt lat="44.26338" lon="5.81853">
        <ele>527.4</ele>
        <time>2022-10-28T15:36:41Z</time>
      </trkpt>
      <trkpt lat="44.26338" lon="5.81853">
        <ele>527.4</ele>
        <time>2022-10-28T15:36:42Z</time>
      </trkpt>
      <trkpt lat="44.26338" lon="5.81853">
        <ele>527.4</ele>
        <time>2022-10-28T15:36:43Z</time>
      </trkpt>
      <trkpt lat="44.26338" lon="5.81853">
        <ele>527.4</ele>
        <time>2022-10-28T15:36:44Z</time>
      </trkpt>
      <trkpt lat="44.26338" lon="5.81852">
        <ele>527.4</ele>
        <time>2022-10-28T15:36:45Z</time>
      </trkpt>
      <trkpt lat="44.26338" lon="5.81852">
        <ele>527.4</ele>
        <time>2022-10-28T15:36:46Z</time>
      </trkpt>
      <trkpt lat="44.26338" lon="5.81852">
        <ele>527.4</ele>
        <time>2022-10-28T15:36:47Z</time>
      </trkpt>
      <trkpt lat="44.26338" lon="5.81852">
        <ele>527.4</ele>
        <time>2022-10-28T15:36:49Z</time>
      </trkpt>
      <trkpt lat="44.26338" lon="5.81852">
        <ele>527.4</ele>
        <time>2022-10-28T15:36:50Z</time>
      </trkpt>
      <trkpt lat="44.26338" lon="5.81851">
        <ele>527.4</ele>
        <time>2022-10-28T15:36:51Z</time>
      </trkpt>
      <trkpt lat="44.26338" lon="5.81851">
        <ele>527.4</ele>
        <time>2022-10-28T15:36:52Z</time>
      </trkpt>
      <trkpt lat="44.26338" lon="5.8185">
        <ele>527.4</ele>
        <time>2022-10-28T15:36:53Z</time>
      </trkpt>
      <trkpt lat="44.26338" lon="5.8185">
        <ele>527.4</ele>
        <time>2022-10-28T15:36:54Z</time>
      </trkpt>
      <trkpt lat="44.26338" lon="5.81849">
        <ele>527.4</ele>
        <time>2022-10-28T15:36:55Z</time>
      </trkpt>
      <trkpt lat="44.26338" lon="5.81848">
        <ele>527.4</ele>
        <time>2022-10-28T15:36:56Z</time>
      </trkpt>
      <trkpt lat="44.26337" lon="5.81847">
        <ele>527.4</ele>
        <time>2022-10-28T15:36:57Z</time>
      </trkpt>
      <trkpt lat="44.26337" lon="5.81846">
        <ele>527.4</ele>
        <time>2022-10-28T15:36:58Z</time>
      </trkpt>
      <trkpt lat="44.26337" lon="5.81845">
        <ele>527.4</ele>
        <time>2022-10-28T15:37:00Z</time>
      </trkpt>
      <trkpt lat="44.26338" lon="5.81844">
        <ele>527.4</ele>
        <time>2022-10-28T15:37:01Z</time>
      </trkpt>
      <trkpt lat="44.26338" lon="5.81842">
        <ele>527.5</ele>
        <time>2022-10-28T15:37:02Z</time>
      </trkpt>
      <trkpt lat="44.26339" lon="5.81842">
        <ele>527.5</ele>
        <time>2022-10-28T15:37:03Z</time>
      </trkpt>
      <trkpt lat="44.26339" lon="5.81842">
        <ele>527.5</ele>
        <time>2022-10-28T15:37:04Z</time>
      </trkpt>
      <trkpt lat="44.2634" lon="5.81841">
        <ele>527.5</ele>
        <time>2022-10-28T15:37:05Z</time>
      </trkpt>
      <trkpt lat="44.2634" lon="5.81841">
        <ele>527.5</ele>
        <time>2022-10-28T15:37:06Z</time>
      </trkpt>
      <trkpt lat="44.2634" lon="5.8184">
        <ele>527.5</ele>
        <time>2022-10-28T15:37:07Z</time>
      </trkpt>
      <trkpt lat="44.26341" lon="5.8184">
        <ele>527.5</ele>
        <time>2022-10-28T15:37:09Z</time>
      </trkpt>
      <trkpt lat="44.26342" lon="5.8184">
        <ele>527.5</ele>
        <time>2022-10-28T15:37:10Z</time>
      </trkpt>
      <trkpt lat="44.26342" lon="5.81839">
        <ele>527.5</ele>
        <time>2022-10-28T15:37:11Z</time>
      </trkpt>
      <trkpt lat="44.26342" lon="5.81838">
        <ele>527.5</ele>
        <time>2022-10-28T15:37:12Z</time>
      </trkpt>
      <trkpt lat="44.26343" lon="5.81837">
        <ele>527.5</ele>
        <time>2022-10-28T15:37:13Z</time>
      </trkpt>
      <trkpt lat="44.26342" lon="5.81837">
        <ele>527.5</ele>
        <time>2022-10-28T15:37:15Z</time>
      </trkpt>
      <trkpt lat="44.26341" lon="5.81837">
        <ele>527.5</ele>
        <time>2022-10-28T15:37:16Z</time>
      </trkpt>
      <trkpt lat="44.2634" lon="5.81838">
        <ele>527.5</ele>
        <time>2022-10-28T15:37:17Z</time>
      </trkpt>
      <trkpt lat="44.2634" lon="5.81839">
        <ele>527.5</ele>
        <time>2022-10-28T15:37:18Z</time>
      </trkpt>
      <trkpt lat="44.2634" lon="5.8184">
        <ele>527.5</ele>
        <time>2022-10-28T15:37:19Z</time>
      </trkpt>
      <trkpt lat="44.2634" lon="5.8184">
        <ele>527.5</ele>
        <time>2022-10-28T15:37:20Z</time>
      </trkpt>
      <trkpt lat="44.26339" lon="5.8184">
        <ele>527.6</ele>
        <time>2022-10-28T15:37:21Z</time>
      </trkpt>
      <trkpt lat="44.26338" lon="5.8184">
        <ele>527.6</ele>
        <time>2022-10-28T15:37:23Z</time>
      </trkpt>
      <trkpt lat="44.26338" lon="5.8184">
        <ele>527.6</ele>
        <time>2022-10-28T15:37:24Z</time>
      </trkpt>
      <trkpt lat="44.26338" lon="5.8184">
        <ele>527.6</ele>
        <time>2022-10-28T15:37:25Z</time>
      </trkpt>
      <trkpt lat="44.26338" lon="5.81841">
        <ele>527.6</ele>
        <time>2022-10-28T15:37:26Z</time>
      </trkpt>
      <trkpt lat="44.26338" lon="5.81842">
        <ele>527.6</ele>
        <time>2022-10-28T15:37:27Z</time>
      </trkpt>
      <trkpt lat="44.26339" lon="5.81843">
        <ele>527.6</ele>
        <time>2022-10-28T15:37:28Z</time>
      </trkpt>
      <trkpt lat="44.26339" lon="5.81844">
        <ele>527.6</ele>
        <time>2022-10-28T15:37:29Z</time>
      </trkpt>
      <trkpt lat="44.2634" lon="5.81844">
        <ele>527.6</ele>
        <time>2022-10-28T15:37:31Z</time>
      </trkpt>
      <trkpt lat="44.2634" lon="5.81845">
        <ele>527.6</ele>
        <time>2022-10-28T15:37:32Z</time>
      </trkpt>
      <trkpt lat="44.26339" lon="5.81845">
        <ele>527.6</ele>
        <time>2022-10-28T15:37:34Z</time>
      </trkpt>
      <trkpt lat="44.26338" lon="5.81845">
        <ele>527.6</ele>
        <time>2022-10-28T15:37:35Z</time>
      </trkpt>
      <trkpt lat="44.26338" lon="5.81844">
        <ele>527.6</ele>
        <time>2022-10-28T15:37:36Z</time>
      </trkpt>
      <trkpt lat="44.26338" lon="5.81842">
        <ele>527.6</ele>
        <time>2022-10-28T15:37:37Z</time>
      </trkpt>
      <trkpt lat="44.26337" lon="5.81841">
        <ele>527.6</ele>
        <time>2022-10-28T15:37:38Z</time>
      </trkpt>
      <trkpt lat="44.26337" lon="5.81839">
        <ele>527.7</ele>
        <time>2022-10-28T15:37:39Z</time>
      </trkpt>
      <trkpt lat="44.26337" lon="5.81839">
        <ele>527.7</ele>
        <time>2022-10-28T15:37:41Z</time>
      </trkpt>
      <trkpt lat="44.26337" lon="5.81838">
        <ele>527.7</ele>
        <time>2022-10-28T15:37:42Z</time>
      </trkpt>
    </trkseg>
  </trk>
</gpx>